<?xml version='1.0' encoding='UTF-8'?><gpx version="1.1" creator="JPX - https://github.com/jenetics/jpx" xmlns="http://www.topografix.com/GPX/1/1"><trk><trkseg><trkpt lat="40.8937436" lon="14.288009"><ele>80.0</ele><time>2026-04-13T15:03:25.81Z</time></trkpt><trkpt lat="40.8937391" lon="14.2879233"><ele>80.0</ele><time>2026-04-13T15:03:28.718Z</time></trkpt><trkpt lat="40.8936939" lon="14.2878394"><ele>80.0</ele><time>2026-04-13T15:03:32.748Z</time></trkpt><trkpt lat="40.8937033" lon="14.2876389"><ele>80.0</ele><time>2026-04-13T15:03:35.771Z</time></trkpt><trkpt lat="40.8937388" lon="14.2875493"><ele>80.0</ele><time>2026-04-13T15:03:36.778Z</time></trkpt><trkpt lat="40.8937217" lon="14.2873833"><ele>80.0</ele><time>2026-04-13T15:03:38.675Z</time></trkpt><trkpt lat="40.8937067" lon="14.2872867"><ele>80.0</ele><time>2026-04-13T15:03:40.674Z</time></trkpt><trkpt lat="40.8936883" lon="14.2872"><ele>80.0</ele><time>2026-04-13T15:03:42.676Z</time></trkpt><trkpt lat="40.893665" lon="14.28712"><ele>80.0</ele><time>2026-04-13T15:03:44.675Z</time></trkpt><trkpt lat="40.8936533" lon="14.2870217"><ele>80.0</ele><time>2026-04-13T15:03:46.674Z</time></trkpt><trkpt lat="40.8936183" lon="14.2869267"><ele>80.0</ele><time>2026-04-13T15:03:48.674Z</time></trkpt><trkpt lat="40.8935933" lon="14.2868317"><ele>80.0</ele><time>2026-04-13T15:03:50.674Z</time></trkpt><trkpt lat="40.89356" lon="14.2867383"><ele>80.0</ele><time>2026-04-13T15:03:52.674Z</time></trkpt><trkpt lat="40.8935167" lon="14.2866483"><ele>80.0</ele><time>2026-04-13T15:03:54.674Z</time></trkpt><trkpt lat="40.89347" lon="14.286535"><ele>80.0</ele><time>2026-04-13T15:03:56.674Z</time></trkpt><trkpt lat="40.8934333" lon="14.2864167"><ele>80.0</ele><time>2026-04-13T15:03:58.674Z</time></trkpt><trkpt lat="40.8934033" lon="14.2862867"><ele>80.0</ele><time>2026-04-13T15:04:00.674Z</time></trkpt><trkpt lat="40.8933667" lon="14.2861583"><ele>80.4</ele><time>2026-04-13T15:04:02.674Z</time></trkpt><trkpt lat="40.8933617" lon="14.28602"><ele>80.8</ele><time>2026-04-13T15:04:04.674Z</time></trkpt><trkpt lat="40.8933383" lon="14.2858833"><ele>81.19999999999999</ele><time>2026-04-13T15:04:06.672Z</time></trkpt><trkpt lat="40.8932917" lon="14.28575"><ele>81.6</ele><time>2026-04-13T15:04:08.673Z</time></trkpt><trkpt lat="40.8932367" lon="14.285615"><ele>82.0</ele><time>2026-04-13T15:04:10.673Z</time></trkpt><trkpt lat="40.8931833" lon="14.2854733"><ele>82.5</ele><time>2026-04-13T15:04:12.673Z</time></trkpt><trkpt lat="40.8931583" lon="14.2853917"><ele>83.0</ele><time>2026-04-13T15:04:13.674Z</time></trkpt><trkpt lat="40.8930983" lon="14.2852533"><ele>83.5</ele><time>2026-04-13T15:04:15.674Z</time></trkpt><trkpt lat="40.89304" lon="14.28511"><ele>84.0</ele><time>2026-04-13T15:04:17.675Z</time></trkpt><trkpt lat="40.89301" lon="14.2850367"><ele>84.5</ele><time>2026-04-13T15:04:18.676Z</time></trkpt><trkpt lat="40.8929717" lon="14.2849633"><ele>85.0</ele><time>2026-04-13T15:04:19.677Z</time></trkpt><trkpt lat="40.8929317" lon="14.2848917"><ele>85.0</ele><time>2026-04-13T15:04:20.674Z</time></trkpt><trkpt lat="40.8928933" lon="14.284825"><ele>85.0</ele><time>2026-04-13T15:04:21.676Z</time></trkpt><trkpt lat="40.8928533" lon="14.2847583"><ele>85.0</ele><time>2026-04-13T15:04:22.675Z</time></trkpt><trkpt lat="40.8928117" lon="14.2846933"><ele>85.0</ele><time>2026-04-13T15:04:23.675Z</time></trkpt><trkpt lat="40.89277" lon="14.2846283"><ele>85.0</ele><time>2026-04-13T15:04:24.675Z</time></trkpt><trkpt lat="40.8927317" lon="14.2845583"><ele>85.0</ele><time>2026-04-13T15:04:25.675Z</time></trkpt><trkpt lat="40.8926617" lon="14.284425"><ele>85.0</ele><time>2026-04-13T15:04:27.675Z</time></trkpt><trkpt lat="40.8925917" lon="14.2842917"><ele>85.0</ele><time>2026-04-13T15:04:29.674Z</time></trkpt><trkpt lat="40.8925183" lon="14.284165"><ele>85.0</ele><time>2026-04-13T15:04:31.675Z</time></trkpt><trkpt lat="40.8924283" lon="14.2840517"><ele>85.0</ele><time>2026-04-13T15:04:33.675Z</time></trkpt><trkpt lat="40.892345" lon="14.28394"><ele>85.0</ele><time>2026-04-13T15:04:35.676Z</time></trkpt><trkpt lat="40.8922533" lon="14.2838367"><ele>85.0</ele><time>2026-04-13T15:04:37.675Z</time></trkpt><trkpt lat="40.89218" lon="14.2837217"><ele>85.0</ele><time>2026-04-13T15:04:39.675Z</time></trkpt><trkpt lat="40.8920983" lon="14.2836017"><ele>85.0</ele><time>2026-04-13T15:04:41.677Z</time></trkpt><trkpt lat="40.8920517" lon="14.2835433"><ele>85.0</ele><time>2026-04-13T15:04:42.677Z</time></trkpt><trkpt lat="40.8920033" lon="14.28349"><ele>85.0</ele><time>2026-04-13T15:04:43.675Z</time></trkpt><trkpt lat="40.8919033" lon="14.2834033"><ele>85.0</ele><time>2026-04-13T15:04:45.674Z</time></trkpt><trkpt lat="40.8917917" lon="14.28333"><ele>85.0</ele><time>2026-04-13T15:04:47.675Z</time></trkpt><trkpt lat="40.8917333" lon="14.2832967"><ele>85.0</ele><time>2026-04-13T15:04:48.675Z</time></trkpt><trkpt lat="40.8916267" lon="14.2832283"><ele>85.0</ele><time>2026-04-13T15:04:50.675Z</time></trkpt><trkpt lat="40.8915217" lon="14.2831617"><ele>85.0</ele><time>2026-04-13T15:04:52.676Z</time></trkpt><trkpt lat="40.89142" lon="14.2831033"><ele>85.4</ele><time>2026-04-13T15:04:54.675Z</time></trkpt><trkpt lat="40.89132" lon="14.2830467"><ele>85.8</ele><time>2026-04-13T15:04:56.676Z</time></trkpt><trkpt lat="40.8912233" lon="14.2829883"><ele>86.19999999999999</ele><time>2026-04-13T15:04:58.677Z</time></trkpt><trkpt lat="40.8911383" lon="14.2829233"><ele>86.6</ele><time>2026-04-13T15:05:00.676Z</time></trkpt><trkpt lat="40.8910467" lon="14.282875"><ele>87.0</ele><time>2026-04-13T15:05:02.677Z</time></trkpt><trkpt lat="40.8909417" lon="14.282825"><ele>87.16666666666667</ele><time>2026-04-13T15:05:04.676Z</time></trkpt><trkpt lat="40.8908317" lon="14.2827833"><ele>87.33333333333333</ele><time>2026-04-13T15:05:06.675Z</time></trkpt><trkpt lat="40.8907117" lon="14.28276"><ele>87.5</ele><time>2026-04-13T15:05:08.676Z</time></trkpt><trkpt lat="40.8906483" lon="14.2827533"><ele>87.66666666666666</ele><time>2026-04-13T15:05:09.674Z</time></trkpt><trkpt lat="40.8905833" lon="14.2827567"><ele>87.83333333333333</ele><time>2026-04-13T15:05:10.676Z</time></trkpt><trkpt lat="40.8905167" lon="14.2827517"><ele>88.0</ele><time>2026-04-13T15:05:11.676Z</time></trkpt><trkpt lat="40.8904533" lon="14.282745"><ele>88.0</ele><time>2026-04-13T15:05:12.676Z</time></trkpt><trkpt lat="40.8903883" lon="14.282735"><ele>88.0</ele><time>2026-04-13T15:05:13.676Z</time></trkpt><trkpt lat="40.89032" lon="14.282725"><ele>88.0</ele><time>2026-04-13T15:05:14.675Z</time></trkpt><trkpt lat="40.8902533" lon="14.2827267"><ele>88.0</ele><time>2026-04-13T15:05:15.676Z</time></trkpt><trkpt lat="40.890185" lon="14.2827233"><ele>88.0</ele><time>2026-04-13T15:05:16.675Z</time></trkpt><trkpt lat="40.8901167" lon="14.2827117"><ele>88.0</ele><time>2026-04-13T15:05:17.675Z</time></trkpt><trkpt lat="40.8900517" lon="14.282705"><ele>88.0</ele><time>2026-04-13T15:05:18.677Z</time></trkpt><trkpt lat="40.889985" lon="14.2827"><ele>87.2</ele><time>2026-04-13T15:05:19.675Z</time></trkpt><trkpt lat="40.8898633" lon="14.2826867"><ele>86.4</ele><time>2026-04-13T15:05:21.676Z</time></trkpt><trkpt lat="40.8898" lon="14.2826717"><ele>85.60000000000001</ele><time>2026-04-13T15:05:22.676Z</time></trkpt><trkpt lat="40.8896917" lon="14.28262"><ele>84.80000000000001</ele><time>2026-04-13T15:05:24.675Z</time></trkpt><trkpt lat="40.889585" lon="14.2825517"><ele>84.0</ele><time>2026-04-13T15:05:26.676Z</time></trkpt><trkpt lat="40.8895133" lon="14.2824367"><ele>84.0</ele><time>2026-04-13T15:05:28.676Z</time></trkpt><trkpt lat="40.8894567" lon="14.2823217"><ele>84.0</ele><time>2026-04-13T15:05:30.676Z</time></trkpt><trkpt lat="40.8893983" lon="14.2822067"><ele>84.0</ele><time>2026-04-13T15:05:32.675Z</time></trkpt><trkpt lat="40.8893433" lon="14.2820933"><ele>84.0</ele><time>2026-04-13T15:05:34.675Z</time></trkpt><trkpt lat="40.88929" lon="14.28197"><ele>84.0</ele><time>2026-04-13T15:05:36.676Z</time></trkpt><trkpt lat="40.889255" lon="14.281865"><ele>84.16666666666667</ele><time>2026-04-13T15:05:38.675Z</time></trkpt><trkpt lat="40.8892633" lon="14.2817717"><ele>84.33333333333333</ele><time>2026-04-13T15:05:40.675Z</time></trkpt><trkpt lat="40.8893083" lon="14.2816883"><ele>84.5</ele><time>2026-04-13T15:05:42.675Z</time></trkpt><trkpt lat="40.88938" lon="14.2816167"><ele>84.66666666666666</ele><time>2026-04-13T15:05:44.677Z</time></trkpt><trkpt lat="40.8894617" lon="14.2815483"><ele>84.83333333333333</ele><time>2026-04-13T15:05:46.675Z</time></trkpt><trkpt lat="40.8895517" lon="14.2814717"><ele>85.0</ele><time>2026-04-13T15:05:48.675Z</time></trkpt><trkpt lat="40.8896533" lon="14.2813983"><ele>85.0</ele><time>2026-04-13T15:05:50.675Z</time></trkpt><trkpt lat="40.88974" lon="14.2813133"><ele>85.0</ele><time>2026-04-13T15:05:52.675Z</time></trkpt><trkpt lat="40.8898317" lon="14.2812467"><ele>85.0</ele><time>2026-04-13T15:05:54.675Z</time></trkpt><trkpt lat="40.8899183" lon="14.2811667"><ele>85.0</ele><time>2026-04-13T15:05:56.675Z</time></trkpt><trkpt lat="40.8900117" lon="14.2810833"><ele>85.0</ele><time>2026-04-13T15:05:58.675Z</time></trkpt><trkpt lat="40.8901167" lon="14.2810033"><ele>85.0</ele><time>2026-04-13T15:06:00.676Z</time></trkpt><trkpt lat="40.89022" lon="14.2809133"><ele>85.0</ele><time>2026-04-13T15:06:02.676Z</time></trkpt><trkpt lat="40.8903183" lon="14.28082"><ele>85.0</ele><time>2026-04-13T15:06:04.676Z</time></trkpt><trkpt lat="40.8904117" lon="14.2807383"><ele>85.0</ele><time>2026-04-13T15:06:06.676Z</time></trkpt><trkpt lat="40.8904983" lon="14.2806533"><ele>85.2</ele><time>2026-04-13T15:06:08.675Z</time></trkpt><trkpt lat="40.8905917" lon="14.2805767"><ele>85.4</ele><time>2026-04-13T15:06:10.677Z</time></trkpt><trkpt lat="40.890685" lon="14.2804967"><ele>85.6</ele><time>2026-04-13T15:06:12.677Z</time></trkpt><trkpt lat="40.8907717" lon="14.280415"><ele>85.8</ele><time>2026-04-13T15:06:14.676Z</time></trkpt><trkpt lat="40.8908567" lon="14.2803333"><ele>86.0</ele><time>2026-04-13T15:06:16.677Z</time></trkpt><trkpt lat="40.8909433" lon="14.2802583"><ele>86.16666666666667</ele><time>2026-04-13T15:06:18.676Z</time></trkpt><trkpt lat="40.89102" lon="14.2801783"><ele>86.33333333333334</ele><time>2026-04-13T15:06:20.674Z</time></trkpt><trkpt lat="40.8910933" lon="14.2801017"><ele>86.5</ele><time>2026-04-13T15:06:22.674Z</time></trkpt><trkpt lat="40.891165" lon="14.2800317"><ele>86.66666666666667</ele><time>2026-04-13T15:06:24.674Z</time></trkpt><trkpt lat="40.8912367" lon="14.2799683"><ele>86.83333333333333</ele><time>2026-04-13T15:06:26.676Z</time></trkpt><trkpt lat="40.8913" lon="14.2799017"><ele>87.0</ele><time>2026-04-13T15:06:28.673Z</time></trkpt><trkpt lat="40.8913567" lon="14.2798333"><ele>87.6</ele><time>2026-04-13T15:06:30.673Z</time></trkpt><trkpt lat="40.8914183" lon="14.279755"><ele>88.19999999999999</ele><time>2026-04-13T15:06:32.675Z</time></trkpt><trkpt lat="40.891495" lon="14.2796717"><ele>88.8</ele><time>2026-04-13T15:06:34.674Z</time></trkpt><trkpt lat="40.8915733" lon="14.2795967"><ele>89.4</ele><time>2026-04-13T15:06:36.675Z</time></trkpt><trkpt lat="40.8916567" lon="14.2795167"><ele>90.0</ele><time>2026-04-13T15:06:38.674Z</time></trkpt><trkpt lat="40.8917333" lon="14.2794283"><ele>90.0</ele><time>2026-04-13T15:06:40.675Z</time></trkpt><trkpt lat="40.8918083" lon="14.279355"><ele>90.0</ele><time>2026-04-13T15:06:42.675Z</time></trkpt><trkpt lat="40.8918333" lon="14.2792567"><ele>90.0</ele><time>2026-04-13T15:06:45.673Z</time></trkpt><trkpt lat="40.891765" lon="14.2791767"><ele>90.0</ele><time>2026-04-13T15:06:48.673Z</time></trkpt><trkpt lat="40.891705" lon="14.2791183"><ele>90.0</ele><time>2026-04-13T15:06:50.674Z</time></trkpt><trkpt lat="40.8916283" lon="14.27908"><ele>90.0</ele><time>2026-04-13T15:06:52.674Z</time></trkpt><trkpt lat="40.8915517" lon="14.279035"><ele>90.0</ele><time>2026-04-13T15:06:54.674Z</time></trkpt><trkpt lat="40.8914767" lon="14.2789833"><ele>90.0</ele><time>2026-04-13T15:06:56.675Z</time></trkpt><trkpt lat="40.8913967" lon="14.278945"><ele>90.0</ele><time>2026-04-13T15:06:58.674Z</time></trkpt><trkpt lat="40.8913183" lon="14.2788983"><ele>90.0</ele><time>2026-04-13T15:07:00.674Z</time></trkpt><trkpt lat="40.8912533" lon="14.2788467"><ele>90.0</ele><time>2026-04-13T15:07:02.675Z</time></trkpt><trkpt lat="40.8911883" lon="14.27881"><ele>90.0</ele><time>2026-04-13T15:07:04.674Z</time></trkpt><trkpt lat="40.8911183" lon="14.2787867"><ele>90.6</ele><time>2026-04-13T15:07:06.674Z</time></trkpt><trkpt lat="40.89104" lon="14.27875"><ele>91.2</ele><time>2026-04-13T15:07:08.674Z</time></trkpt><trkpt lat="40.8909583" lon="14.2787067"><ele>91.80000000000001</ele><time>2026-04-13T15:07:10.674Z</time></trkpt><trkpt lat="40.890875" lon="14.2786733"><ele>92.4</ele><time>2026-04-13T15:07:12.673Z</time></trkpt><trkpt lat="40.890785" lon="14.2786317"><ele>93.0</ele><time>2026-04-13T15:07:14.674Z</time></trkpt><trkpt lat="40.8906933" lon="14.2785933"><ele>93.0</ele><time>2026-04-13T15:07:16.674Z</time></trkpt><trkpt lat="40.89061" lon="14.2785433"><ele>93.0</ele><time>2026-04-13T15:07:18.674Z</time></trkpt><trkpt lat="40.8905367" lon="14.278485"><ele>93.0</ele><time>2026-04-13T15:07:20.673Z</time></trkpt><trkpt lat="40.8904567" lon="14.2784367"><ele>93.0</ele><time>2026-04-13T15:07:22.674Z</time></trkpt><trkpt lat="40.89038" lon="14.27838"><ele>93.0</ele><time>2026-04-13T15:07:24.674Z</time></trkpt><trkpt lat="40.8902967" lon="14.27832"><ele>93.0</ele><time>2026-04-13T15:07:26.674Z</time></trkpt><trkpt lat="40.8902017" lon="14.27827"><ele>93.0</ele><time>2026-04-13T15:07:28.674Z</time></trkpt><trkpt lat="40.8901083" lon="14.27822"><ele>93.0</ele><time>2026-04-13T15:07:30.673Z</time></trkpt><trkpt lat="40.8900167" lon="14.2781583"><ele>93.0</ele><time>2026-04-13T15:07:32.675Z</time></trkpt><trkpt lat="40.88993" lon="14.2781067"><ele>93.0</ele><time>2026-04-13T15:07:34.676Z</time></trkpt><trkpt lat="40.889835" lon="14.2780533"><ele>93.0</ele><time>2026-04-13T15:07:36.677Z</time></trkpt><trkpt lat="40.8897417" lon="14.2780167"><ele>92.80000000000001</ele><time>2026-04-13T15:07:38.675Z</time></trkpt><trkpt lat="40.889645" lon="14.277975"><ele>92.6</ele><time>2026-04-13T15:07:40.676Z</time></trkpt><trkpt lat="40.8895467" lon="14.27793"><ele>92.4</ele><time>2026-04-13T15:07:42.677Z</time></trkpt><trkpt lat="40.889445" lon="14.277905"><ele>92.19999999999999</ele><time>2026-04-13T15:07:44.676Z</time></trkpt><trkpt lat="40.8893383" lon="14.2778733"><ele>92.0</ele><time>2026-04-13T15:07:46.676Z</time></trkpt><trkpt lat="40.8892333" lon="14.2778417"><ele>91.6</ele><time>2026-04-13T15:07:48.676Z</time></trkpt><trkpt lat="40.889135" lon="14.2778117"><ele>91.19999999999999</ele><time>2026-04-13T15:07:50.676Z</time></trkpt><trkpt lat="40.8890367" lon="14.2777767"><ele>90.8</ele><time>2026-04-13T15:07:52.675Z</time></trkpt><trkpt lat="40.88894" lon="14.2777317"><ele>90.4</ele><time>2026-04-13T15:07:54.676Z</time></trkpt><trkpt lat="40.88884" lon="14.2776883"><ele>90.0</ele><time>2026-04-13T15:07:56.676Z</time></trkpt><trkpt lat="40.8887383" lon="14.2776467"><ele>90.0</ele><time>2026-04-13T15:07:58.676Z</time></trkpt><trkpt lat="40.8886483" lon="14.27759"><ele>90.0</ele><time>2026-04-13T15:08:00.676Z</time></trkpt><trkpt lat="40.8885633" lon="14.27752"><ele>90.0</ele><time>2026-04-13T15:08:02.674Z</time></trkpt><trkpt lat="40.8884883" lon="14.2774417"><ele>90.0</ele><time>2026-04-13T15:08:04.676Z</time></trkpt><trkpt lat="40.8884067" lon="14.2773833"><ele>90.0</ele><time>2026-04-13T15:08:06.676Z</time></trkpt><trkpt lat="40.888325" lon="14.2773167"><ele>90.0</ele><time>2026-04-13T15:08:08.676Z</time></trkpt><trkpt lat="40.8882367" lon="14.27724"><ele>90.0</ele><time>2026-04-13T15:08:10.676Z</time></trkpt><trkpt lat="40.8881533" lon="14.2771583"><ele>90.0</ele><time>2026-04-13T15:08:12.675Z</time></trkpt><trkpt lat="40.8880683" lon="14.27708"><ele>90.0</ele><time>2026-04-13T15:08:14.675Z</time></trkpt><trkpt lat="40.887985" lon="14.2770117"><ele>90.0</ele><time>2026-04-13T15:08:16.676Z</time></trkpt><trkpt lat="40.8878933" lon="14.2769383"><ele>90.0</ele><time>2026-04-13T15:08:18.676Z</time></trkpt><trkpt lat="40.8877933" lon="14.2768733"><ele>90.0</ele><time>2026-04-13T15:08:20.675Z</time></trkpt><trkpt lat="40.887695" lon="14.2768167"><ele>90.0</ele><time>2026-04-13T15:08:22.674Z</time></trkpt><trkpt lat="40.8875917" lon="14.276765"><ele>90.0</ele><time>2026-04-13T15:08:24.675Z</time></trkpt><trkpt lat="40.88749" lon="14.2767133"><ele>90.0</ele><time>2026-04-13T15:08:26.676Z</time></trkpt><trkpt lat="40.887395" lon="14.27666"><ele>90.0</ele><time>2026-04-13T15:08:28.675Z</time></trkpt><trkpt lat="40.8873033" lon="14.27661"><ele>90.0</ele><time>2026-04-13T15:08:30.676Z</time></trkpt><trkpt lat="40.88721" lon="14.2765633"><ele>90.0</ele><time>2026-04-13T15:08:32.676Z</time></trkpt><trkpt lat="40.8871283" lon="14.276495"><ele>90.0</ele><time>2026-04-13T15:08:34.676Z</time></trkpt><trkpt lat="40.8870433" lon="14.2764367"><ele>90.0</ele><time>2026-04-13T15:08:36.675Z</time></trkpt><trkpt lat="40.8869683" lon="14.27637"><ele>90.0</ele><time>2026-04-13T15:08:38.676Z</time></trkpt><trkpt lat="40.8868883" lon="14.2763083"><ele>90.0</ele><time>2026-04-13T15:08:40.675Z</time></trkpt><trkpt lat="40.8868083" lon="14.2762417"><ele>90.0</ele><time>2026-04-13T15:08:42.675Z</time></trkpt><trkpt lat="40.8867317" lon="14.276175"><ele>90.0</ele><time>2026-04-13T15:08:44.676Z</time></trkpt><trkpt lat="40.8866467" lon="14.2761083"><ele>90.0</ele><time>2026-04-13T15:08:46.675Z</time></trkpt><trkpt lat="40.8865583" lon="14.2760433"><ele>90.0</ele><time>2026-04-13T15:08:48.675Z</time></trkpt><trkpt lat="40.8864683" lon="14.27597"><ele>90.0</ele><time>2026-04-13T15:08:50.676Z</time></trkpt><trkpt lat="40.8863867" lon="14.2759"><ele>90.0</ele><time>2026-04-13T15:08:52.676Z</time></trkpt><trkpt lat="40.8863033" lon="14.275835"><ele>90.0</ele><time>2026-04-13T15:08:54.675Z</time></trkpt><trkpt lat="40.8862133" lon="14.2757833"><ele>90.0</ele><time>2026-04-13T15:08:56.676Z</time></trkpt><trkpt lat="40.8861267" lon="14.2757283"><ele>90.0</ele><time>2026-04-13T15:08:58.675Z</time></trkpt><trkpt lat="40.8860467" lon="14.2756633"><ele>90.0</ele><time>2026-04-13T15:09:00.675Z</time></trkpt><trkpt lat="40.8859683" lon="14.2755917"><ele>90.0</ele><time>2026-04-13T15:09:02.676Z</time></trkpt><trkpt lat="40.8858917" lon="14.2755133"><ele>90.0</ele><time>2026-04-13T15:09:04.676Z</time></trkpt><trkpt lat="40.885815" lon="14.275435"><ele>90.0</ele><time>2026-04-13T15:09:06.675Z</time></trkpt><trkpt lat="40.8857367" lon="14.2753583"><ele>90.4</ele><time>2026-04-13T15:09:08.675Z</time></trkpt><trkpt lat="40.88566" lon="14.2752733"><ele>90.8</ele><time>2026-04-13T15:09:10.675Z</time></trkpt><trkpt lat="40.8855783" lon="14.2751883"><ele>91.19999999999999</ele><time>2026-04-13T15:09:12.676Z</time></trkpt><trkpt lat="40.8855" lon="14.27512"><ele>91.6</ele><time>2026-04-13T15:09:14.676Z</time></trkpt><trkpt lat="40.8854133" lon="14.2750467"><ele>92.0</ele><time>2026-04-13T15:09:16.676Z</time></trkpt><trkpt lat="40.8853283" lon="14.27498"><ele>92.0</ele><time>2026-04-13T15:09:18.676Z</time></trkpt><trkpt lat="40.8852467" lon="14.2749133"><ele>92.0</ele><time>2026-04-13T15:09:20.675Z</time></trkpt><trkpt lat="40.8851667" lon="14.2748467"><ele>92.0</ele><time>2026-04-13T15:09:22.677Z</time></trkpt><trkpt lat="40.8850833" lon="14.2747767"><ele>92.0</ele><time>2026-04-13T15:09:24.678Z</time></trkpt><trkpt lat="40.8850033" lon="14.2747017"><ele>92.0</ele><time>2026-04-13T15:09:26.676Z</time></trkpt><trkpt lat="40.8849233" lon="14.27462"><ele>91.83333333333334</ele><time>2026-04-13T15:09:28.676Z</time></trkpt><trkpt lat="40.884845" lon="14.2745383"><ele>91.66666666666667</ele><time>2026-04-13T15:09:30.678Z</time></trkpt><trkpt lat="40.8847717" lon="14.2744683"><ele>91.5</ele><time>2026-04-13T15:09:32.677Z</time></trkpt><trkpt lat="40.8846983" lon="14.2744033"><ele>91.33333333333333</ele><time>2026-04-13T15:09:34.676Z</time></trkpt><trkpt lat="40.8846233" lon="14.2743467"><ele>91.16666666666666</ele><time>2026-04-13T15:09:36.676Z</time></trkpt><trkpt lat="40.884555" lon="14.2742833"><ele>91.0</ele><time>2026-04-13T15:09:38.676Z</time></trkpt><trkpt lat="40.884495" lon="14.274215"><ele>91.0</ele><time>2026-04-13T15:09:40.676Z</time></trkpt><trkpt lat="40.884455" lon="14.27415"><ele>91.0</ele><time>2026-04-13T15:09:42.676Z</time></trkpt><trkpt lat="40.884405" lon="14.274095"><ele>91.0</ele><time>2026-04-13T15:10:10.674Z</time></trkpt><trkpt lat="40.8843483" lon="14.2740367"><ele>91.0</ele><time>2026-04-13T15:10:13.675Z</time></trkpt><trkpt lat="40.8842817" lon="14.2739767"><ele>91.0</ele><time>2026-04-13T15:10:15.674Z</time></trkpt><trkpt lat="40.8842033" lon="14.273895"><ele>91.0</ele><time>2026-04-13T15:10:17.674Z</time></trkpt><trkpt lat="40.8841283" lon="14.2738083"><ele>91.6</ele><time>2026-04-13T15:10:19.675Z</time></trkpt><trkpt lat="40.8840517" lon="14.2737267"><ele>92.19999999999999</ele><time>2026-04-13T15:10:21.674Z</time></trkpt><trkpt lat="40.8839733" lon="14.27364"><ele>92.80000000000001</ele><time>2026-04-13T15:10:23.675Z</time></trkpt><trkpt lat="40.8838917" lon="14.273555"><ele>93.4</ele><time>2026-04-13T15:10:25.674Z</time></trkpt><trkpt lat="40.8838167" lon="14.273455"><ele>94.0</ele><time>2026-04-13T15:10:27.673Z</time></trkpt><trkpt lat="40.8837417" lon="14.27336"><ele>94.0</ele><time>2026-04-13T15:10:29.674Z</time></trkpt><trkpt lat="40.883675" lon="14.273265"><ele>94.0</ele><time>2026-04-13T15:10:31.674Z</time></trkpt><trkpt lat="40.8836017" lon="14.2731683"><ele>94.0</ele><time>2026-04-13T15:10:33.674Z</time></trkpt><trkpt lat="40.8835233" lon="14.27307"><ele>94.0</ele><time>2026-04-13T15:10:35.674Z</time></trkpt><trkpt lat="40.88345" lon="14.272985"><ele>94.0</ele><time>2026-04-13T15:10:37.674Z</time></trkpt><trkpt lat="40.883375" lon="14.2729133"><ele>94.4</ele><time>2026-04-13T15:10:39.674Z</time></trkpt><trkpt lat="40.883295" lon="14.2728533"><ele>94.80000000000001</ele><time>2026-04-13T15:10:41.674Z</time></trkpt><trkpt lat="40.883215" lon="14.2727867"><ele>95.19999999999999</ele><time>2026-04-13T15:10:43.674Z</time></trkpt><trkpt lat="40.883135" lon="14.2727283"><ele>95.6</ele><time>2026-04-13T15:10:45.675Z</time></trkpt><trkpt lat="40.8830583" lon="14.272675"><ele>96.0</ele><time>2026-04-13T15:10:47.675Z</time></trkpt><trkpt lat="40.88298" lon="14.2726067"><ele>96.0</ele><time>2026-04-13T15:10:49.674Z</time></trkpt><trkpt lat="40.8828983" lon="14.27253"><ele>96.0</ele><time>2026-04-13T15:10:51.674Z</time></trkpt><trkpt lat="40.8828183" lon="14.2724467"><ele>96.0</ele><time>2026-04-13T15:10:53.675Z</time></trkpt><trkpt lat="40.88273" lon="14.2723683"><ele>96.0</ele><time>2026-04-13T15:10:55.676Z</time></trkpt><trkpt lat="40.882645" lon="14.272305"><ele>96.0</ele><time>2026-04-13T15:10:57.673Z</time></trkpt><trkpt lat="40.882565" lon="14.272245"><ele>95.33333333333333</ele><time>2026-04-13T15:10:59.675Z</time></trkpt><trkpt lat="40.8824883" lon="14.27217"><ele>94.66666666666667</ele><time>2026-04-13T15:11:01.675Z</time></trkpt><trkpt lat="40.882415" lon="14.272085"><ele>94.0</ele><time>2026-04-13T15:11:03.673Z</time></trkpt><trkpt lat="40.8823533" lon="14.271995"><ele>93.33333333333334</ele><time>2026-04-13T15:11:05.674Z</time></trkpt><trkpt lat="40.8823067" lon="14.2719167"><ele>92.66666666666667</ele><time>2026-04-13T15:11:07.675Z</time></trkpt><trkpt lat="40.8822817" lon="14.2718167"><ele>92.0</ele><time>2026-04-13T15:11:09.674Z</time></trkpt><trkpt lat="40.8822483" lon="14.2717117"><ele>92.0</ele><time>2026-04-13T15:11:11.674Z</time></trkpt><trkpt lat="40.8821783" lon="14.27164"><ele>92.0</ele><time>2026-04-13T15:11:13.675Z</time></trkpt><trkpt lat="40.882095" lon="14.2715833"><ele>92.0</ele><time>2026-04-13T15:11:15.674Z</time></trkpt><trkpt lat="40.8819967" lon="14.271565"><ele>92.0</ele><time>2026-04-13T15:11:17.674Z</time></trkpt><trkpt lat="40.8819033" lon="14.2715467"><ele>92.0</ele><time>2026-04-13T15:11:19.673Z</time></trkpt><trkpt lat="40.8818317" lon="14.2714767"><ele>92.16666666666667</ele><time>2026-04-13T15:11:21.674Z</time></trkpt><trkpt lat="40.8817683" lon="14.2713817"><ele>92.33333333333334</ele><time>2026-04-13T15:11:23.675Z</time></trkpt><trkpt lat="40.8817267" lon="14.271315"><ele>92.5</ele><time>2026-04-13T15:11:25.674Z</time></trkpt><trkpt lat="40.8817083" lon="14.271235"><ele>92.66666666666667</ele><time>2026-04-13T15:11:27.673Z</time></trkpt><trkpt lat="40.8817533" lon="14.271125"><ele>92.83333333333333</ele><time>2026-04-13T15:11:30.675Z</time></trkpt><trkpt lat="40.8818017" lon="14.2710433"><ele>93.0</ele><time>2026-04-13T15:11:32.674Z</time></trkpt><trkpt lat="40.8818733" lon="14.27097"><ele>93.16666666666667</ele><time>2026-04-13T15:11:34.674Z</time></trkpt><trkpt lat="40.881965" lon="14.2709117"><ele>93.33333333333333</ele><time>2026-04-13T15:11:36.675Z</time></trkpt><trkpt lat="40.88203" lon="14.2708617"><ele>93.5</ele><time>2026-04-13T15:11:38.674Z</time></trkpt><trkpt lat="40.8820833" lon="14.2708167"><ele>93.66666666666666</ele><time>2026-04-13T15:11:40.675Z</time></trkpt><trkpt lat="40.882145" lon="14.2707467"><ele>93.83333333333333</ele><time>2026-04-13T15:11:42.674Z</time></trkpt><trkpt lat="40.882195" lon="14.270645"><ele>94.0</ele><time>2026-04-13T15:11:44.674Z</time></trkpt><trkpt lat="40.8822267" lon="14.27052"><ele>94.2</ele><time>2026-04-13T15:11:46.675Z</time></trkpt><trkpt lat="40.8822433" lon="14.27037"><ele>94.4</ele><time>2026-04-13T15:11:48.674Z</time></trkpt><trkpt lat="40.8822533" lon="14.27022"><ele>94.6</ele><time>2026-04-13T15:11:50.674Z</time></trkpt><trkpt lat="40.8822717" lon="14.27007"><ele>94.8</ele><time>2026-04-13T15:11:52.674Z</time></trkpt><trkpt lat="40.882295" lon="14.26994"><ele>95.0</ele><time>2026-04-13T15:11:54.675Z</time></trkpt><trkpt lat="40.8823167" lon="14.2698583"><ele>95.2</ele><time>2026-04-13T15:11:55.674Z</time></trkpt><trkpt lat="40.8823617" lon="14.2697167"><ele>95.4</ele><time>2026-04-13T15:11:57.674Z</time></trkpt><trkpt lat="40.88241" lon="14.2695917"><ele>95.6</ele><time>2026-04-13T15:11:59.675Z</time></trkpt><trkpt lat="40.8824733" lon="14.2694783"><ele>95.8</ele><time>2026-04-13T15:12:01.674Z</time></trkpt><trkpt lat="40.8825367" lon="14.2693533"><ele>96.0</ele><time>2026-04-13T15:12:03.674Z</time></trkpt><trkpt lat="40.8826133" lon="14.2692633"><ele>96.0</ele><time>2026-04-13T15:12:05.674Z</time></trkpt><trkpt lat="40.882675" lon="14.2691633"><ele>96.0</ele><time>2026-04-13T15:12:07.674Z</time></trkpt><trkpt lat="40.8827183" lon="14.2690517"><ele>96.0</ele><time>2026-04-13T15:12:09.675Z</time></trkpt><trkpt lat="40.882775" lon="14.2689383"><ele>96.0</ele><time>2026-04-13T15:12:11.675Z</time></trkpt><trkpt lat="40.8828267" lon="14.26882"><ele>96.0</ele><time>2026-04-13T15:12:13.675Z</time></trkpt><trkpt lat="40.882885" lon="14.2687"><ele>96.0</ele><time>2026-04-13T15:12:15.675Z</time></trkpt><trkpt lat="40.8829467" lon="14.2685867"><ele>96.0</ele><time>2026-04-13T15:12:17.674Z</time></trkpt><trkpt lat="40.8829967" lon="14.2684667"><ele>96.0</ele><time>2026-04-13T15:12:19.674Z</time></trkpt><trkpt lat="40.883045" lon="14.268345"><ele>96.0</ele><time>2026-04-13T15:12:21.674Z</time></trkpt><trkpt lat="40.8831033" lon="14.2682283"><ele>96.0</ele><time>2026-04-13T15:12:23.674Z</time></trkpt><trkpt lat="40.8831633" lon="14.2681033"><ele>96.19999999999999</ele><time>2026-04-13T15:12:25.675Z</time></trkpt><trkpt lat="40.8832167" lon="14.267975"><ele>96.39999999999999</ele><time>2026-04-13T15:12:27.674Z</time></trkpt><trkpt lat="40.88327" lon="14.2678483"><ele>96.6</ele><time>2026-04-13T15:12:29.674Z</time></trkpt><trkpt lat="40.8833233" lon="14.2677333"><ele>96.8</ele><time>2026-04-13T15:12:31.674Z</time></trkpt><trkpt lat="40.88338" lon="14.2676183"><ele>97.0</ele><time>2026-04-13T15:12:33.674Z</time></trkpt><trkpt lat="40.883425" lon="14.2675083"><ele>97.39999999999999</ele><time>2026-04-13T15:12:35.675Z</time></trkpt><trkpt lat="40.8834783" lon="14.267405"><ele>97.8</ele><time>2026-04-13T15:12:37.675Z</time></trkpt><trkpt lat="40.883535" lon="14.2673"><ele>98.2</ele><time>2026-04-13T15:12:39.674Z</time></trkpt><trkpt lat="40.8835917" lon="14.2672017"><ele>98.6</ele><time>2026-04-13T15:12:41.674Z</time></trkpt><trkpt lat="40.8836517" lon="14.2671067"><ele>99.0</ele><time>2026-04-13T15:12:43.675Z</time></trkpt><trkpt lat="40.8837283" lon="14.2670083"><ele>99.2</ele><time>2026-04-13T15:12:45.675Z</time></trkpt><trkpt lat="40.8838033" lon="14.2669283"><ele>99.4</ele><time>2026-04-13T15:12:47.675Z</time></trkpt><trkpt lat="40.883865" lon="14.26684"><ele>99.6</ele><time>2026-04-13T15:12:49.674Z</time></trkpt><trkpt lat="40.8839217" lon="14.2667467"><ele>99.8</ele><time>2026-04-13T15:12:51.674Z</time></trkpt><trkpt lat="40.883985" lon="14.2666567"><ele>100.0</ele><time>2026-04-13T15:12:53.674Z</time></trkpt><trkpt lat="40.8840483" lon="14.2665683"><ele>100.00000000000001</ele><time>2026-04-13T15:12:55.675Z</time></trkpt><trkpt lat="40.8841133" lon="14.2664767"><ele>100.0</ele><time>2026-04-13T15:12:57.674Z</time></trkpt><trkpt lat="40.88418" lon="14.2663867"><ele>100.0</ele><time>2026-04-13T15:12:59.674Z</time></trkpt><trkpt lat="40.884245" lon="14.2663083"><ele>100.0</ele><time>2026-04-13T15:13:01.674Z</time></trkpt><trkpt lat="40.8842983" lon="14.266225"><ele>100.00000000000001</ele><time>2026-04-13T15:13:03.673Z</time></trkpt><trkpt lat="40.88436" lon="14.2661417"><ele>100.0</ele><time>2026-04-13T15:13:05.673Z</time></trkpt><trkpt lat="40.8844183" lon="14.266055"><ele>99.8</ele><time>2026-04-13T15:13:07.673Z</time></trkpt><trkpt lat="40.8844867" lon="14.2659667"><ele>99.6</ele><time>2026-04-13T15:13:09.673Z</time></trkpt><trkpt lat="40.8845617" lon="14.26589"><ele>99.4</ele><time>2026-04-13T15:13:11.674Z</time></trkpt><trkpt lat="40.88464" lon="14.265805"><ele>99.2</ele><time>2026-04-13T15:13:13.673Z</time></trkpt><trkpt lat="40.884705" lon="14.265705"><ele>99.0</ele><time>2026-04-13T15:13:15.673Z</time></trkpt><trkpt lat="40.8847717" lon="14.26561"><ele>99.0</ele><time>2026-04-13T15:13:17.674Z</time></trkpt><trkpt lat="40.8848383" lon="14.2655133"><ele>99.0</ele><time>2026-04-13T15:13:19.672Z</time></trkpt><trkpt lat="40.8849017" lon="14.2654217"><ele>99.0</ele><time>2026-04-13T15:13:21.672Z</time></trkpt><trkpt lat="40.884975" lon="14.2653267"><ele>99.0</ele><time>2026-04-13T15:13:23.674Z</time></trkpt><trkpt lat="40.8850433" lon="14.2652283"><ele>99.0</ele><time>2026-04-13T15:13:25.674Z</time></trkpt><trkpt lat="40.88512" lon="14.26513"><ele>99.0</ele><time>2026-04-13T15:13:27.673Z</time></trkpt><trkpt lat="40.885185" lon="14.2650283"><ele>99.0</ele><time>2026-04-13T15:13:29.673Z</time></trkpt><trkpt lat="40.8852467" lon="14.26493"><ele>99.0</ele><time>2026-04-13T15:13:31.674Z</time></trkpt><trkpt lat="40.8853133" lon="14.2648333"><ele>99.0</ele><time>2026-04-13T15:13:33.675Z</time></trkpt><trkpt lat="40.8853733" lon="14.264735"><ele>99.0</ele><time>2026-04-13T15:13:35.674Z</time></trkpt><trkpt lat="40.88544" lon="14.264635"><ele>99.80000000000001</ele><time>2026-04-13T15:13:37.675Z</time></trkpt><trkpt lat="40.8855" lon="14.2645267"><ele>100.60000000000001</ele><time>2026-04-13T15:13:39.674Z</time></trkpt><trkpt lat="40.88556" lon="14.2644183"><ele>101.4</ele><time>2026-04-13T15:13:41.674Z</time></trkpt><trkpt lat="40.885625" lon="14.2643183"><ele>102.2</ele><time>2026-04-13T15:13:43.674Z</time></trkpt><trkpt lat="40.8856833" lon="14.2642133"><ele>103.0</ele><time>2026-04-13T15:13:45.674Z</time></trkpt><trkpt lat="40.8857433" lon="14.264115"><ele>103.0</ele><time>2026-04-13T15:13:47.674Z</time></trkpt><trkpt lat="40.8858017" lon="14.2640033"><ele>103.0</ele><time>2026-04-13T15:13:49.673Z</time></trkpt><trkpt lat="40.8858633" lon="14.2638983"><ele>103.0</ele><time>2026-04-13T15:13:51.674Z</time></trkpt><trkpt lat="40.8859233" lon="14.263795"><ele>103.0</ele><time>2026-04-13T15:13:53.673Z</time></trkpt><trkpt lat="40.88598" lon="14.2636967"><ele>103.0</ele><time>2026-04-13T15:13:55.674Z</time></trkpt><trkpt lat="40.8860417" lon="14.2636067"><ele>103.60000000000001</ele><time>2026-04-13T15:13:57.674Z</time></trkpt><trkpt lat="40.8860933" lon="14.2635083"><ele>104.2</ele><time>2026-04-13T15:13:59.675Z</time></trkpt><trkpt lat="40.8861417" lon="14.2634"><ele>104.8</ele><time>2026-04-13T15:14:01.675Z</time></trkpt><trkpt lat="40.8861967" lon="14.2633033"><ele>105.4</ele><time>2026-04-13T15:14:03.674Z</time></trkpt><trkpt lat="40.8862533" lon="14.2632067"><ele>106.0</ele><time>2026-04-13T15:14:05.674Z</time></trkpt><trkpt lat="40.8863083" lon="14.263105"><ele>106.4</ele><time>2026-04-13T15:14:07.674Z</time></trkpt><trkpt lat="40.8863417" lon="14.2629833"><ele>106.8</ele><time>2026-04-13T15:14:09.675Z</time></trkpt><trkpt lat="40.8863767" lon="14.26286"><ele>107.20000000000002</ele><time>2026-04-13T15:14:11.675Z</time></trkpt><trkpt lat="40.8863833" lon="14.2627217"><ele>107.60000000000001</ele><time>2026-04-13T15:14:13.675Z</time></trkpt><trkpt lat="40.8863983" lon="14.26257"><ele>108.0</ele><time>2026-04-13T15:14:15.674Z</time></trkpt><trkpt lat="40.8864367" lon="14.26245"><ele>108.0</ele><time>2026-04-13T15:14:17.675Z</time></trkpt><trkpt lat="40.8864717" lon="14.2623583"><ele>108.0</ele><time>2026-04-13T15:14:19.675Z</time></trkpt><trkpt lat="40.8864583" lon="14.2622633"><ele>108.0</ele><time>2026-04-13T15:14:21.675Z</time></trkpt><trkpt lat="40.8864117" lon="14.26217"><ele>108.0</ele><time>2026-04-13T15:14:23.674Z</time></trkpt><trkpt lat="40.8863883" lon="14.2620467"><ele>108.0</ele><time>2026-04-13T15:14:25.676Z</time></trkpt><trkpt lat="40.8863867" lon="14.2619133"><ele>108.0</ele><time>2026-04-13T15:14:27.675Z</time></trkpt><trkpt lat="40.8863867" lon="14.2617983"><ele>108.16666666666667</ele><time>2026-04-13T15:14:29.675Z</time></trkpt><trkpt lat="40.8864033" lon="14.2616783"><ele>108.33333333333334</ele><time>2026-04-13T15:14:31.675Z</time></trkpt><trkpt lat="40.8864133" lon="14.2615583"><ele>108.5</ele><time>2026-04-13T15:14:33.674Z</time></trkpt><trkpt lat="40.8864333" lon="14.26144"><ele>108.66666666666667</ele><time>2026-04-13T15:14:35.675Z</time></trkpt><trkpt lat="40.8864517" lon="14.26133"><ele>108.83333333333334</ele><time>2026-04-13T15:14:37.675Z</time></trkpt><trkpt lat="40.8864767" lon="14.2612333"><ele>109.0</ele><time>2026-04-13T15:14:39.675Z</time></trkpt><trkpt lat="40.8864933" lon="14.2611333"><ele>109.0</ele><time>2026-04-13T15:14:41.676Z</time></trkpt><trkpt lat="40.8865283" lon="14.2610383"><ele>109.0</ele><time>2026-04-13T15:14:43.675Z</time></trkpt><trkpt lat="40.886555" lon="14.26094"><ele>109.0</ele><time>2026-04-13T15:14:45.675Z</time></trkpt><trkpt lat="40.8865783" lon="14.26084"><ele>109.0</ele><time>2026-04-13T15:14:47.675Z</time></trkpt><trkpt lat="40.886605" lon="14.260755"><ele>109.0</ele><time>2026-04-13T15:14:49.675Z</time></trkpt><trkpt lat="40.8866283" lon="14.2606767"><ele>109.0</ele><time>2026-04-13T15:14:51.676Z</time></trkpt><trkpt lat="40.886655" lon="14.2605983"><ele>109.0</ele><time>2026-04-13T15:14:53.676Z</time></trkpt><trkpt lat="40.8866817" lon="14.26052"><ele>109.16666666666667</ele><time>2026-04-13T15:14:55.674Z</time></trkpt><trkpt lat="40.8867183" lon="14.2604117"><ele>109.33333333333334</ele><time>2026-04-13T15:14:58.675Z</time></trkpt><trkpt lat="40.88674" lon="14.2602917"><ele>109.5</ele><time>2026-04-13T15:15:01.675Z</time></trkpt><trkpt lat="40.88676" lon="14.2602017"><ele>109.66666666666666</ele><time>2026-04-13T15:15:03.674Z</time></trkpt><trkpt lat="40.8867733" lon="14.2601167"><ele>109.83333333333333</ele><time>2026-04-13T15:15:05.675Z</time></trkpt><trkpt lat="40.88678" lon="14.2600283"><ele>110.0</ele><time>2026-04-13T15:15:07.674Z</time></trkpt><trkpt lat="40.886795" lon="14.259935"><ele>110.33333333333333</ele><time>2026-04-13T15:15:09.674Z</time></trkpt><trkpt lat="40.8868067" lon="14.259845"><ele>110.66666666666666</ele><time>2026-04-13T15:15:11.674Z</time></trkpt><trkpt lat="40.88682" lon="14.25975"><ele>111.0</ele><time>2026-04-13T15:15:13.675Z</time></trkpt><trkpt lat="40.8868417" lon="14.2596633"><ele>111.33333333333334</ele><time>2026-04-13T15:15:15.675Z</time></trkpt><trkpt lat="40.8868567" lon="14.259545"><ele>111.66666666666667</ele><time>2026-04-13T15:15:17.674Z</time></trkpt><trkpt lat="40.8868733" lon="14.2594433"><ele>112.0</ele><time>2026-04-13T15:15:19.673Z</time></trkpt><trkpt lat="40.8868917" lon="14.25935"><ele>112.00000000000001</ele><time>2026-04-13T15:15:21.672Z</time></trkpt><trkpt lat="40.88692" lon="14.2592567"><ele>112.0</ele><time>2026-04-13T15:15:23.674Z</time></trkpt><trkpt lat="40.8869583" lon="14.25916"><ele>112.0</ele><time>2026-04-13T15:15:25.673Z</time></trkpt><trkpt lat="40.8870017" lon="14.2590583"><ele>112.0</ele><time>2026-04-13T15:15:27.673Z</time></trkpt><trkpt lat="40.8870483" lon="14.258965"><ele>112.00000000000001</ele><time>2026-04-13T15:15:29.673Z</time></trkpt><trkpt lat="40.8870883" lon="14.2588683"><ele>112.0</ele><time>2026-04-13T15:15:31.676Z</time></trkpt><trkpt lat="40.887145" lon="14.2587717"><ele>112.33333333333334</ele><time>2026-04-13T15:15:33.673Z</time></trkpt><trkpt lat="40.8871883" lon="14.2586767"><ele>112.66666666666667</ele><time>2026-04-13T15:15:35.674Z</time></trkpt><trkpt lat="40.8872333" lon="14.258575"><ele>113.0</ele><time>2026-04-13T15:15:37.673Z</time></trkpt><trkpt lat="40.8872783" lon="14.258465"><ele>113.33333333333334</ele><time>2026-04-13T15:15:39.673Z</time></trkpt><trkpt lat="40.8873117" lon="14.2583517"><ele>113.66666666666667</ele><time>2026-04-13T15:15:41.673Z</time></trkpt><trkpt lat="40.8873367" lon="14.258275"><ele>114.0</ele><time>2026-04-13T15:15:43.674Z</time></trkpt><trkpt lat="40.887405" lon="14.2582267"><ele>114.0</ele><time>2026-04-13T15:15:46.674Z</time></trkpt><trkpt lat="40.887475" lon="14.25822"><ele>114.0</ele><time>2026-04-13T15:15:48.673Z</time></trkpt><trkpt lat="40.887555" lon="14.2582117"><ele>114.0</ele><time>2026-04-13T15:15:50.674Z</time></trkpt><trkpt lat="40.88764" lon="14.2581883"><ele>114.0</ele><time>2026-04-13T15:15:52.674Z</time></trkpt><trkpt lat="40.8877183" lon="14.2581383"><ele>114.0</ele><time>2026-04-13T15:15:54.673Z</time></trkpt><trkpt lat="40.887805" lon="14.25808"><ele>114.0</ele><time>2026-04-13T15:15:56.677Z</time></trkpt><trkpt lat="40.8878833" lon="14.2580067"><ele>114.0</ele><time>2026-04-13T15:15:58.675Z</time></trkpt><trkpt lat="40.8879483" lon="14.25791"><ele>114.0</ele><time>2026-04-13T15:16:00.676Z</time></trkpt><trkpt lat="40.8879983" lon="14.2577967"><ele>114.0</ele><time>2026-04-13T15:16:02.677Z</time></trkpt><trkpt lat="40.8880283" lon="14.2576783"><ele>114.0</ele><time>2026-04-13T15:16:04.676Z</time></trkpt><trkpt lat="40.888045" lon="14.2575533"><ele>114.0</ele><time>2026-04-13T15:16:06.676Z</time></trkpt><trkpt lat="40.888055" lon="14.257405"><ele>114.0</ele><time>2026-04-13T15:16:08.675Z</time></trkpt><trkpt lat="40.8880717" lon="14.2572683"><ele>114.0</ele><time>2026-04-13T15:16:10.674Z</time></trkpt><trkpt lat="40.8881017" lon="14.2571333"><ele>114.0</ele><time>2026-04-13T15:16:12.674Z</time></trkpt><trkpt lat="40.888125" lon="14.257015"><ele>114.0</ele><time>2026-04-13T15:16:14.674Z</time></trkpt><trkpt lat="40.8881533" lon="14.2569067"><ele>114.0</ele><time>2026-04-13T15:16:16.674Z</time></trkpt><trkpt lat="40.8881833" lon="14.2567933"><ele>114.0</ele><time>2026-04-13T15:16:18.674Z</time></trkpt><trkpt lat="40.8882183" lon="14.2566883"><ele>114.0</ele><time>2026-04-13T15:16:20.673Z</time></trkpt><trkpt lat="40.8882483" lon="14.25658"><ele>114.0</ele><time>2026-04-13T15:16:22.674Z</time></trkpt><trkpt lat="40.8882683" lon="14.2564833"><ele>114.0</ele><time>2026-04-13T15:16:24.675Z</time></trkpt><trkpt lat="40.8882683" lon="14.2563817"><ele>114.0</ele><time>2026-04-13T15:16:26.674Z</time></trkpt><trkpt lat="40.888215" lon="14.2563067"><ele>114.0</ele><time>2026-04-13T15:16:28.674Z</time></trkpt><trkpt lat="40.8881383" lon="14.25624"><ele>114.0</ele><time>2026-04-13T15:16:30.675Z</time></trkpt><trkpt lat="40.8880383" lon="14.2561933"><ele>114.0</ele><time>2026-04-13T15:16:32.673Z</time></trkpt><trkpt lat="40.8879483" lon="14.2561517"><ele>114.0</ele><time>2026-04-13T15:16:34.674Z</time></trkpt><trkpt lat="40.8878617" lon="14.2560933"><ele>114.0</ele><time>2026-04-13T15:16:36.674Z</time></trkpt><trkpt lat="40.8877667" lon="14.2560467"><ele>114.0</ele><time>2026-04-13T15:16:38.674Z</time></trkpt><trkpt lat="40.88769" lon="14.2559767"><ele>114.0</ele><time>2026-04-13T15:16:40.674Z</time></trkpt><trkpt lat="40.8876617" lon="14.2558683"><ele>114.0</ele><time>2026-04-13T15:16:42.674Z</time></trkpt><trkpt lat="40.887685" lon="14.25575"><ele>114.0</ele><time>2026-04-13T15:16:44.675Z</time></trkpt><trkpt lat="40.8877333" lon="14.2556317"><ele>114.0</ele><time>2026-04-13T15:16:46.675Z</time></trkpt><trkpt lat="40.8877683" lon="14.2555233"><ele>114.0</ele><time>2026-04-13T15:16:48.675Z</time></trkpt><trkpt lat="40.8877817" lon="14.2554083"><ele>114.16666666666667</ele><time>2026-04-13T15:16:50.674Z</time></trkpt><trkpt lat="40.8877833" lon="14.255285"><ele>114.33333333333334</ele><time>2026-04-13T15:16:52.676Z</time></trkpt><trkpt lat="40.8877767" lon="14.25516"><ele>114.5</ele><time>2026-04-13T15:16:54.674Z</time></trkpt><trkpt lat="40.8877783" lon="14.2550517"><ele>114.66666666666667</ele><time>2026-04-13T15:16:56.674Z</time></trkpt><trkpt lat="40.8877817" lon="14.2549483"><ele>114.83333333333334</ele><time>2026-04-13T15:16:58.674Z</time></trkpt><trkpt lat="40.8877933" lon="14.2548617"><ele>115.0</ele><time>2026-04-13T15:17:00.674Z</time></trkpt><trkpt lat="40.8877883" lon="14.254775"><ele>115.00000000000001</ele><time>2026-04-13T15:17:02.675Z</time></trkpt><trkpt lat="40.8877967" lon="14.2546833"><ele>115.0</ele><time>2026-04-13T15:17:04.675Z</time></trkpt><trkpt lat="40.887805" lon="14.2545883"><ele>115.0</ele><time>2026-04-13T15:17:06.674Z</time></trkpt><trkpt lat="40.8878033" lon="14.2544917"><ele>115.0</ele><time>2026-04-13T15:17:08.674Z</time></trkpt><trkpt lat="40.8878033" lon="14.254405"><ele>115.00000000000001</ele><time>2026-04-13T15:17:10.675Z</time></trkpt><trkpt lat="40.887815" lon="14.25428"><ele>115.0</ele><time>2026-04-13T15:17:13.674Z</time></trkpt><trkpt lat="40.8878267" lon="14.2541567"><ele>114.99999999999999</ele><time>2026-04-13T15:17:16.675Z</time></trkpt><trkpt lat="40.8878283" lon="14.254065"><ele>115.0</ele><time>2026-04-13T15:17:18.674Z</time></trkpt><trkpt lat="40.8878283" lon="14.2539783"><ele>114.99999999999999</ele><time>2026-04-13T15:17:20.673Z</time></trkpt><trkpt lat="40.88782" lon="14.2538883"><ele>114.99999999999999</ele><time>2026-04-13T15:17:22.673Z</time></trkpt><trkpt lat="40.8878217" lon="14.2537933"><ele>115.0</ele><time>2026-04-13T15:17:24.676Z</time></trkpt><trkpt lat="40.8878317" lon="14.2536983"><ele>114.99999999999999</ele><time>2026-04-13T15:17:26.675Z</time></trkpt><trkpt lat="40.8878217" lon="14.25361"><ele>114.99999999999999</ele><time>2026-04-13T15:17:28.674Z</time></trkpt><trkpt lat="40.8878133" lon="14.253525"><ele>115.28571428571428</ele><time>2026-04-13T15:17:30.674Z</time></trkpt><trkpt lat="40.8878133" lon="14.25343"><ele>115.57142857142857</ele><time>2026-04-13T15:17:32.674Z</time></trkpt><trkpt lat="40.8878217" lon="14.2533333"><ele>115.85714285714286</ele><time>2026-04-13T15:17:34.674Z</time></trkpt><trkpt lat="40.8878267" lon="14.2532233"><ele>116.14285714285714</ele><time>2026-04-13T15:17:36.674Z</time></trkpt><trkpt lat="40.8878317" lon="14.2531183"><ele>116.42857142857144</ele><time>2026-04-13T15:17:38.675Z</time></trkpt><trkpt lat="40.8878517" lon="14.2530233"><ele>116.71428571428572</ele><time>2026-04-13T15:17:40.676Z</time></trkpt><trkpt lat="40.8878583" lon="14.2529367"><ele>117.0</ele><time>2026-04-13T15:17:42.675Z</time></trkpt><trkpt lat="40.8878683" lon="14.25285"><ele>117.83333333333333</ele><time>2026-04-13T15:17:44.674Z</time></trkpt><trkpt lat="40.887905" lon="14.2527417"><ele>118.66666666666666</ele><time>2026-04-13T15:17:47.674Z</time></trkpt><trkpt lat="40.8879433" lon="14.252625"><ele>119.5</ele><time>2026-04-13T15:17:50.676Z</time></trkpt><trkpt lat="40.8879683" lon="14.2525333"><ele>120.33333333333333</ele><time>2026-04-13T15:17:52.676Z</time></trkpt><trkpt lat="40.887995" lon="14.2524533"><ele>121.16666666666666</ele><time>2026-04-13T15:17:54.676Z</time></trkpt><trkpt lat="40.8880283" lon="14.2523717"><ele>122.0</ele><time>2026-04-13T15:17:56.675Z</time></trkpt><trkpt lat="40.888065" lon="14.25229"><ele>122.14285714285712</ele><time>2026-04-13T15:17:58.675Z</time></trkpt><trkpt lat="40.8880967" lon="14.2522067"><ele>122.28571428571428</ele><time>2026-04-13T15:18:00.674Z</time></trkpt><trkpt lat="40.8881267" lon="14.2521267"><ele>122.42857142857143</ele><time>2026-04-13T15:18:02.674Z</time></trkpt><trkpt lat="40.8881517" lon="14.25204"><ele>122.57142857142857</ele><time>2026-04-13T15:18:04.674Z</time></trkpt><trkpt lat="40.8881733" lon="14.2519517"><ele>122.71428571428572</ele><time>2026-04-13T15:18:06.675Z</time></trkpt><trkpt lat="40.8882017" lon="14.251875"><ele>122.85714285714288</ele><time>2026-04-13T15:18:34.674Z</time></trkpt><trkpt lat="40.8882417" lon="14.25177"><ele>123.00000000000001</ele><time>2026-04-13T15:18:38.674Z</time></trkpt><trkpt lat="40.88827" lon="14.2516933"><ele>123.0</ele><time>2026-04-13T15:18:40.674Z</time></trkpt><trkpt lat="40.8883183" lon="14.25161"><ele>123.0</ele><time>2026-04-13T15:18:42.674Z</time></trkpt><trkpt lat="40.8883567" lon="14.2515133"><ele>123.0</ele><time>2026-04-13T15:18:44.675Z</time></trkpt><trkpt lat="40.888395" lon="14.251405"><ele>123.0</ele><time>2026-04-13T15:18:46.674Z</time></trkpt><trkpt lat="40.8884383" lon="14.2512917"><ele>123.0</ele><time>2026-04-13T15:18:48.675Z</time></trkpt><trkpt lat="40.888485" lon="14.2511917"><ele>123.0</ele><time>2026-04-13T15:18:50.674Z</time></trkpt><trkpt lat="40.8885433" lon="14.251095"><ele>122.5</ele><time>2026-04-13T15:18:52.674Z</time></trkpt><trkpt lat="40.8885883" lon="14.2510033"><ele>122.0</ele><time>2026-04-13T15:18:54.674Z</time></trkpt><trkpt lat="40.88864" lon="14.2509033"><ele>121.5</ele><time>2026-04-13T15:18:57.673Z</time></trkpt><trkpt lat="40.8887217" lon="14.2508667"><ele>121.0</ele><time>2026-04-13T15:19:00.675Z</time></trkpt><trkpt lat="40.8887933" lon="14.2508967"><ele>120.5</ele><time>2026-04-13T15:19:03.674Z</time></trkpt><trkpt lat="40.888865" lon="14.25092"><ele>120.0</ele><time>2026-04-13T15:19:06.674Z</time></trkpt><trkpt lat="40.88895" lon="14.250885"><ele>120.0</ele><time>2026-04-13T15:19:09.674Z</time></trkpt><trkpt lat="40.888965" lon="14.2507867"><ele>120.0</ele><time>2026-04-13T15:19:12.674Z</time></trkpt><trkpt lat="40.8889333" lon="14.2507083"><ele>120.0</ele><time>2026-04-13T15:19:14.674Z</time></trkpt><trkpt lat="40.888905" lon="14.2506183"><ele>120.0</ele><time>2026-04-13T15:19:16.675Z</time></trkpt><trkpt lat="40.888885" lon="14.25053"><ele>120.0</ele><time>2026-04-13T15:19:18.674Z</time></trkpt><trkpt lat="40.8888667" lon="14.2504433"><ele>120.0</ele><time>2026-04-13T15:19:20.673Z</time></trkpt><trkpt lat="40.8888317" lon="14.250355"><ele>120.0</ele><time>2026-04-13T15:19:23.675Z</time></trkpt><trkpt lat="40.8888" lon="14.2502783"><ele>120.0</ele><time>2026-04-13T15:19:26.674Z</time></trkpt><trkpt lat="40.8887633" lon="14.2502017"><ele>120.0</ele><time>2026-04-13T15:19:29.676Z</time></trkpt><trkpt lat="40.8887167" lon="14.2502767"><ele>120.0</ele><time>2026-04-13T15:19:35.676Z</time></trkpt><trkpt lat="40.8887383" lon="14.25036"><ele>120.0</ele><time>2026-04-13T15:19:38.678Z</time></trkpt><trkpt lat="40.8887467" lon="14.25046"><ele>120.0</ele><time>2026-04-13T15:19:41.675Z</time></trkpt><trkpt lat="40.8887983" lon="14.2505717"><ele>120.0</ele><time>2026-04-13T15:21:15.676Z</time></trkpt><trkpt lat="40.8888517" lon="14.250655"><ele>120.0</ele><time>2026-04-13T15:21:18.677Z</time></trkpt><trkpt lat="40.88893" lon="14.2506417"><ele>120.0</ele><time>2026-04-13T15:21:21.672Z</time></trkpt><trkpt lat="40.8889217" lon="14.2505267"><ele>120.0</ele><time>2026-04-13T15:21:24.674Z</time></trkpt><trkpt lat="40.8888917" lon="14.2504383"><ele>120.0</ele><time>2026-04-13T15:21:26.672Z</time></trkpt><trkpt lat="40.8888533" lon="14.2503383"><ele>120.0</ele><time>2026-04-13T15:21:28.673Z</time></trkpt><trkpt lat="40.8888267" lon="14.2502433"><ele>120.0</ele><time>2026-04-13T15:21:30.674Z</time></trkpt><trkpt lat="40.8887917" lon="14.2501467"><ele>120.0</ele><time>2026-04-13T15:21:32.673Z</time></trkpt><trkpt lat="40.88876" lon="14.2500517"><ele>120.0</ele><time>2026-04-13T15:21:34.673Z</time></trkpt><trkpt lat="40.888725" lon="14.2499533"><ele>120.0</ele><time>2026-04-13T15:21:36.675Z</time></trkpt><trkpt lat="40.888685" lon="14.2498417"><ele>120.0</ele><time>2026-04-13T15:21:38.673Z</time></trkpt><trkpt lat="40.8886533" lon="14.2497383"><ele>120.0</ele><time>2026-04-13T15:21:40.676Z</time></trkpt><trkpt lat="40.8886217" lon="14.24965"><ele>120.0</ele><time>2026-04-13T15:21:42.676Z</time></trkpt><trkpt lat="40.888585" lon="14.249555"><ele>120.5</ele><time>2026-04-13T15:21:44.676Z</time></trkpt><trkpt lat="40.8885583" lon="14.2494483"><ele>121.0</ele><time>2026-04-13T15:21:46.673Z</time></trkpt><trkpt lat="40.8885283" lon="14.2493417"><ele>121.5</ele><time>2026-04-13T15:21:48.674Z</time></trkpt><trkpt lat="40.8885017" lon="14.2492383"><ele>122.0</ele><time>2026-04-13T15:21:50.672Z</time></trkpt><trkpt lat="40.8884817" lon="14.2491383"><ele>122.5</ele><time>2026-04-13T15:21:52.672Z</time></trkpt><trkpt lat="40.8884617" lon="14.2490417"><ele>123.0</ele><time>2026-04-13T15:21:54.673Z</time></trkpt><trkpt lat="40.8884383" lon="14.2489467"><ele>123.16666666666667</ele><time>2026-04-13T15:21:56.674Z</time></trkpt><trkpt lat="40.888405" lon="14.248845"><ele>123.33333333333334</ele><time>2026-04-13T15:21:58.675Z</time></trkpt><trkpt lat="40.88838" lon="14.2487433"><ele>123.5</ele><time>2026-04-13T15:22:00.674Z</time></trkpt><trkpt lat="40.888355" lon="14.2486483"><ele>123.66666666666667</ele><time>2026-04-13T15:22:02.674Z</time></trkpt><trkpt lat="40.8883267" lon="14.2485517"><ele>123.83333333333334</ele><time>2026-04-13T15:22:04.674Z</time></trkpt><trkpt lat="40.8882967" lon="14.2484533"><ele>124.0</ele><time>2026-04-13T15:22:06.673Z</time></trkpt><trkpt lat="40.8882633" lon="14.2483517"><ele>124.00000000000001</ele><time>2026-04-13T15:22:08.673Z</time></trkpt><trkpt lat="40.8882317" lon="14.248255"><ele>124.0</ele><time>2026-04-13T15:22:10.674Z</time></trkpt><trkpt lat="40.8881883" lon="14.2481717"><ele>124.0</ele><time>2026-04-13T15:22:12.673Z</time></trkpt><trkpt lat="40.88815" lon="14.2480817"><ele>124.0</ele><time>2026-04-13T15:22:14.674Z</time></trkpt><trkpt lat="40.8881217" lon="14.24799"><ele>124.00000000000001</ele><time>2026-04-13T15:22:16.674Z</time></trkpt><trkpt lat="40.8880933" lon="14.24789"><ele>124.0</ele><time>2026-04-13T15:22:18.673Z</time></trkpt><trkpt lat="40.88807" lon="14.2477983"><ele>124.57142857142858</ele><time>2026-04-13T15:22:20.673Z</time></trkpt><trkpt lat="40.8880567" lon="14.2477017"><ele>125.14285714285715</ele><time>2026-04-13T15:22:22.672Z</time></trkpt><trkpt lat="40.8880333" lon="14.247615"><ele>125.71428571428572</ele><time>2026-04-13T15:22:24.673Z</time></trkpt><trkpt lat="40.8879967" lon="14.2475267"><ele>126.28571428571428</ele><time>2026-04-13T15:22:26.673Z</time></trkpt><trkpt lat="40.887965" lon="14.24743"><ele>126.85714285714285</ele><time>2026-04-13T15:22:28.675Z</time></trkpt><trkpt lat="40.8879333" lon="14.2473533"><ele>127.42857142857142</ele><time>2026-04-13T15:22:30.677Z</time></trkpt><trkpt lat="40.8878983" lon="14.2472633"><ele>128.0</ele><time>2026-04-13T15:22:32.674Z</time></trkpt><trkpt lat="40.8878633" lon="14.2471767"><ele>128.5</ele><time>2026-04-13T15:22:34.674Z</time></trkpt><trkpt lat="40.88781" lon="14.247085"><ele>129.0</ele><time>2026-04-13T15:22:37.673Z</time></trkpt><trkpt lat="40.8877783" lon="14.2469967"><ele>129.5</ele><time>2026-04-13T15:22:39.674Z</time></trkpt><trkpt lat="40.8877517" lon="14.2468933"><ele>130.0</ele><time>2026-04-13T15:22:41.675Z</time></trkpt><trkpt lat="40.8877233" lon="14.2467967"><ele>130.5</ele><time>2026-04-13T15:22:44.674Z</time></trkpt><trkpt lat="40.88768" lon="14.24669"><ele>131.0</ele><time>2026-04-13T15:22:47.674Z</time></trkpt><trkpt lat="40.8876417" lon="14.246605"><ele>131.0</ele><time>2026-04-13T15:22:49.673Z</time></trkpt><trkpt lat="40.8876167" lon="14.246515"><ele>131.0</ele><time>2026-04-13T15:22:51.673Z</time></trkpt><trkpt lat="40.887605" lon="14.2464267"><ele>131.0</ele><time>2026-04-13T15:22:53.673Z</time></trkpt><trkpt lat="40.88758" lon="14.2463383"><ele>131.0</ele><time>2026-04-13T15:22:55.674Z</time></trkpt><trkpt lat="40.887555" lon="14.2462483"><ele>131.0</ele><time>2026-04-13T15:22:57.673Z</time></trkpt><trkpt lat="40.8875283" lon="14.2461633"><ele>131.0</ele><time>2026-04-13T15:22:59.674Z</time></trkpt><trkpt lat="40.8874933" lon="14.2460767"><ele>131.0</ele><time>2026-04-13T15:23:01.674Z</time></trkpt><trkpt lat="40.8874617" lon="14.2459833"><ele>131.16666666666666</ele><time>2026-04-13T15:23:03.674Z</time></trkpt><trkpt lat="40.887435" lon="14.2458917"><ele>131.33333333333331</ele><time>2026-04-13T15:23:05.675Z</time></trkpt><trkpt lat="40.8874067" lon="14.2457983"><ele>131.5</ele><time>2026-04-13T15:23:07.674Z</time></trkpt><trkpt lat="40.8873833" lon="14.2457033"><ele>131.66666666666666</ele><time>2026-04-13T15:23:09.673Z</time></trkpt><trkpt lat="40.8873467" lon="14.2456133"><ele>131.83333333333334</ele><time>2026-04-13T15:23:11.673Z</time></trkpt><trkpt lat="40.8873083" lon="14.2455233"><ele>132.0</ele><time>2026-04-13T15:23:13.674Z</time></trkpt><trkpt lat="40.8872783" lon="14.2454417"><ele>132.33333333333334</ele><time>2026-04-13T15:23:15.674Z</time></trkpt><trkpt lat="40.88725" lon="14.2453533"><ele>132.66666666666666</ele><time>2026-04-13T15:23:17.674Z</time></trkpt><trkpt lat="40.8872233" lon="14.2452633"><ele>133.0</ele><time>2026-04-13T15:23:19.674Z</time></trkpt><trkpt lat="40.887195" lon="14.2451717"><ele>133.33333333333331</ele><time>2026-04-13T15:23:21.672Z</time></trkpt><trkpt lat="40.8871667" lon="14.24508"><ele>133.66666666666666</ele><time>2026-04-13T15:23:23.674Z</time></trkpt><trkpt lat="40.88714" lon="14.244985"><ele>134.0</ele><time>2026-04-13T15:23:25.674Z</time></trkpt><trkpt lat="40.887105" lon="14.2448867"><ele>134.33333333333331</ele><time>2026-04-13T15:23:27.674Z</time></trkpt><trkpt lat="40.887075" lon="14.2447817"><ele>134.66666666666666</ele><time>2026-04-13T15:23:29.675Z</time></trkpt><trkpt lat="40.887045" lon="14.24468"><ele>135.0</ele><time>2026-04-13T15:23:31.674Z</time></trkpt><trkpt lat="40.887025" lon="14.244575"><ele>135.33333333333334</ele><time>2026-04-13T15:23:33.674Z</time></trkpt><trkpt lat="40.8870083" lon="14.2444683"><ele>135.66666666666669</ele><time>2026-04-13T15:23:35.674Z</time></trkpt><trkpt lat="40.88699" lon="14.2443667"><ele>136.0</ele><time>2026-04-13T15:23:37.674Z</time></trkpt><trkpt lat="40.8869633" lon="14.24427"><ele>136.0</ele><time>2026-04-13T15:23:39.673Z</time></trkpt><trkpt lat="40.8869167" lon="14.2441817"><ele>136.0</ele><time>2026-04-13T15:23:41.674Z</time></trkpt><trkpt lat="40.8868783" lon="14.244085"><ele>136.0</ele><time>2026-04-13T15:23:43.674Z</time></trkpt><trkpt lat="40.88684" lon="14.2439867"><ele>136.0</ele><time>2026-04-13T15:23:45.673Z</time></trkpt><trkpt lat="40.8868083" lon="14.2438917"><ele>136.0</ele><time>2026-04-13T15:23:47.674Z</time></trkpt><trkpt lat="40.886775" lon="14.2437883"><ele>136.0</ele><time>2026-04-13T15:23:49.673Z</time></trkpt><trkpt lat="40.886735" lon="14.24369"><ele>136.33333333333334</ele><time>2026-04-13T15:23:51.673Z</time></trkpt><trkpt lat="40.8867033" lon="14.2435883"><ele>136.66666666666669</ele><time>2026-04-13T15:23:53.674Z</time></trkpt><trkpt lat="40.886665" lon="14.2434917"><ele>137.0</ele><time>2026-04-13T15:23:55.675Z</time></trkpt><trkpt lat="40.88663" lon="14.2433833"><ele>137.33333333333334</ele><time>2026-04-13T15:23:57.674Z</time></trkpt><trkpt lat="40.8865983" lon="14.24328"><ele>137.66666666666666</ele><time>2026-04-13T15:23:59.675Z</time></trkpt><trkpt lat="40.8865717" lon="14.243175"><ele>138.0</ele><time>2026-04-13T15:24:01.675Z</time></trkpt><trkpt lat="40.8865367" lon="14.2430767"><ele>138.5</ele><time>2026-04-13T15:24:03.675Z</time></trkpt><trkpt lat="40.8865033" lon="14.2429817"><ele>139.0</ele><time>2026-04-13T15:24:05.675Z</time></trkpt><trkpt lat="40.8864717" lon="14.242885"><ele>139.5</ele><time>2026-04-13T15:24:07.674Z</time></trkpt><trkpt lat="40.8864517" lon="14.242785"><ele>140.0</ele><time>2026-04-13T15:24:09.675Z</time></trkpt><trkpt lat="40.8864217" lon="14.242695"><ele>140.5</ele><time>2026-04-13T15:24:11.674Z</time></trkpt><trkpt lat="40.8864017" lon="14.2425833"><ele>141.0</ele><time>2026-04-13T15:24:13.674Z</time></trkpt><trkpt lat="40.88637" lon="14.2424867"><ele>141.0</ele><time>2026-04-13T15:24:15.675Z</time></trkpt><trkpt lat="40.8863283" lon="14.242395"><ele>141.0</ele><time>2026-04-13T15:24:17.674Z</time></trkpt><trkpt lat="40.8862917" lon="14.2423033"><ele>141.0</ele><time>2026-04-13T15:24:19.675Z</time></trkpt><trkpt lat="40.8862633" lon="14.2422067"><ele>141.0</ele><time>2026-04-13T15:24:21.674Z</time></trkpt><trkpt lat="40.88625" lon="14.2421"><ele>141.0</ele><time>2026-04-13T15:24:23.676Z</time></trkpt><trkpt lat="40.8862267" lon="14.2419867"><ele>141.0</ele><time>2026-04-13T15:24:25.675Z</time></trkpt><trkpt lat="40.88621" lon="14.241875"><ele>141.0</ele><time>2026-04-13T15:24:27.677Z</time></trkpt><trkpt lat="40.886195" lon="14.2417583"><ele>141.0</ele><time>2026-04-13T15:24:29.676Z</time></trkpt><trkpt lat="40.886185" lon="14.2416483"><ele>141.0</ele><time>2026-04-13T15:24:31.678Z</time></trkpt><trkpt lat="40.88617" lon="14.2415383"><ele>141.0</ele><time>2026-04-13T15:24:33.677Z</time></trkpt><trkpt lat="40.886155" lon="14.2414317"><ele>141.0</ele><time>2026-04-13T15:24:35.673Z</time></trkpt><trkpt lat="40.8861433" lon="14.24132"><ele>141.0</ele><time>2026-04-13T15:24:37.678Z</time></trkpt><trkpt lat="40.88613" lon="14.2412233"><ele>141.33333333333334</ele><time>2026-04-13T15:24:39.677Z</time></trkpt><trkpt lat="40.8861133" lon="14.2411167"><ele>141.66666666666666</ele><time>2026-04-13T15:24:41.675Z</time></trkpt><trkpt lat="40.8861017" lon="14.2410117"><ele>142.0</ele><time>2026-04-13T15:24:43.674Z</time></trkpt><trkpt lat="40.8860933" lon="14.2409033"><ele>142.33333333333331</ele><time>2026-04-13T15:24:45.673Z</time></trkpt><trkpt lat="40.8860833" lon="14.2407983"><ele>142.66666666666666</ele><time>2026-04-13T15:24:47.674Z</time></trkpt><trkpt lat="40.886075" lon="14.24069"><ele>143.0</ele><time>2026-04-13T15:24:49.674Z</time></trkpt><trkpt lat="40.8860583" lon="14.24059"><ele>143.16666666666666</ele><time>2026-04-13T15:24:51.673Z</time></trkpt><trkpt lat="40.8860283" lon="14.2404933"><ele>143.33333333333331</ele><time>2026-04-13T15:24:53.674Z</time></trkpt><trkpt lat="40.8859767" lon="14.2404067"><ele>143.5</ele><time>2026-04-13T15:24:55.677Z</time></trkpt><trkpt lat="40.8859167" lon="14.2403267"><ele>143.66666666666666</ele><time>2026-04-13T15:24:57.677Z</time></trkpt><trkpt lat="40.885855" lon="14.2402533"><ele>143.83333333333334</ele><time>2026-04-13T15:24:59.676Z</time></trkpt><trkpt lat="40.88579" lon="14.2401833"><ele>144.0</ele><time>2026-04-13T15:25:01.674Z</time></trkpt><trkpt lat="40.8857333" lon="14.2401133"><ele>144.0</ele><time>2026-04-13T15:25:03.673Z</time></trkpt><trkpt lat="40.8856883" lon="14.2400383"><ele>144.0</ele><time>2026-04-13T15:25:05.674Z</time></trkpt><trkpt lat="40.8856217" lon="14.2399517"><ele>144.0</ele><time>2026-04-13T15:25:07.674Z</time></trkpt><trkpt lat="40.8855667" lon="14.2398667"><ele>144.0</ele><time>2026-04-13T15:25:09.673Z</time></trkpt><trkpt lat="40.8855283" lon="14.23978"><ele>144.0</ele><time>2026-04-13T15:25:11.674Z</time></trkpt><trkpt lat="40.8855067" lon="14.239685"><ele>144.0</ele><time>2026-04-13T15:25:13.675Z</time></trkpt><trkpt lat="40.885495" lon="14.239585"><ele>144.33333333333334</ele><time>2026-04-13T15:25:15.673Z</time></trkpt><trkpt lat="40.8854783" lon="14.239475"><ele>144.66666666666666</ele><time>2026-04-13T15:25:17.674Z</time></trkpt><trkpt lat="40.8854467" lon="14.2393733"><ele>145.0</ele><time>2026-04-13T15:25:19.674Z</time></trkpt><trkpt lat="40.8854167" lon="14.2392767"><ele>145.33333333333331</ele><time>2026-04-13T15:25:21.674Z</time></trkpt><trkpt lat="40.885375" lon="14.23919"><ele>145.66666666666666</ele><time>2026-04-13T15:25:23.674Z</time></trkpt><trkpt lat="40.88533" lon="14.23911"><ele>146.0</ele><time>2026-04-13T15:25:25.677Z</time></trkpt><trkpt lat="40.8852867" lon="14.2390283"><ele>146.33333333333331</ele><time>2026-04-13T15:25:27.676Z</time></trkpt><trkpt lat="40.88524" lon="14.2389517"><ele>146.66666666666666</ele><time>2026-04-13T15:25:29.677Z</time></trkpt><trkpt lat="40.8851883" lon="14.2388733"><ele>147.0</ele><time>2026-04-13T15:25:31.676Z</time></trkpt><trkpt lat="40.8851467" lon="14.2387833"><ele>147.33333333333334</ele><time>2026-04-13T15:25:33.676Z</time></trkpt><trkpt lat="40.8851083" lon="14.2386967"><ele>147.66666666666669</ele><time>2026-04-13T15:25:35.677Z</time></trkpt><trkpt lat="40.8850817" lon="14.2386083"><ele>148.0</ele><time>2026-04-13T15:25:37.675Z</time></trkpt><trkpt lat="40.8850617" lon="14.2385183"><ele>148.16666666666669</ele><time>2026-04-13T15:25:39.674Z</time></trkpt><trkpt lat="40.885035" lon="14.2384317"><ele>148.33333333333334</ele><time>2026-04-13T15:25:41.674Z</time></trkpt><trkpt lat="40.885015" lon="14.23835"><ele>148.5</ele><time>2026-04-13T15:25:43.675Z</time></trkpt><trkpt lat="40.8849783" lon="14.23824"><ele>148.66666666666666</ele><time>2026-04-13T15:25:46.675Z</time></trkpt><trkpt lat="40.8849433" lon="14.238145"><ele>148.83333333333331</ele><time>2026-04-13T15:25:49.681Z</time></trkpt><trkpt lat="40.8849117" lon="14.23805"><ele>149.0</ele><time>2026-04-13T15:25:52.675Z</time></trkpt><trkpt lat="40.88488" lon="14.237945"><ele>149.0</ele><time>2026-04-13T15:25:55.675Z</time></trkpt><trkpt lat="40.8848367" lon="14.237855"><ele>149.0</ele><time>2026-04-13T15:25:58.676Z</time></trkpt><trkpt lat="40.88482" lon="14.2377633"><ele>149.0</ele><time>2026-04-13T15:26:02.679Z</time></trkpt><trkpt lat="40.884775" lon="14.2378217"><ele>149.0</ele><time>2026-04-13T15:26:08.678Z</time></trkpt><trkpt lat="40.8848033" lon="14.2379133"><ele>149.0</ele><time>2026-04-13T15:26:11.68Z</time></trkpt><trkpt lat="40.8848183" lon="14.2380033"><ele>149.0</ele><time>2026-04-13T15:26:16.677Z</time></trkpt><trkpt lat="40.8848467" lon="14.2380833"><ele>149.0</ele><time>2026-04-13T15:26:20.679Z</time></trkpt><trkpt lat="40.8848683" lon="14.2381717"><ele>149.0</ele><time>2026-04-13T15:26:23.676Z</time></trkpt><trkpt lat="40.8848883" lon="14.2382633"><ele>149.0</ele><time>2026-04-13T15:26:26.678Z</time></trkpt><trkpt lat="40.8849033" lon="14.23815"><ele>149.0</ele><time>2026-04-13T15:28:32.676Z</time></trkpt><trkpt lat="40.8848883" lon="14.2380483"><ele>149.0</ele><time>2026-04-13T15:28:34.678Z</time></trkpt><trkpt lat="40.88486" lon="14.2379417"><ele>149.0</ele><time>2026-04-13T15:28:36.675Z</time></trkpt><trkpt lat="40.8848283" lon="14.23785"><ele>149.0</ele><time>2026-04-13T15:28:38.675Z</time></trkpt><trkpt lat="40.8847983" lon="14.2377567"><ele>149.16666666666666</ele><time>2026-04-13T15:28:40.677Z</time></trkpt><trkpt lat="40.88477" lon="14.2376583"><ele>149.33333333333331</ele><time>2026-04-13T15:28:42.678Z</time></trkpt><trkpt lat="40.8847433" lon="14.237565"><ele>149.5</ele><time>2026-04-13T15:28:44.677Z</time></trkpt><trkpt lat="40.8847133" lon="14.2374717"><ele>149.66666666666666</ele><time>2026-04-13T15:28:46.678Z</time></trkpt><trkpt lat="40.8846833" lon="14.2373833"><ele>149.83333333333334</ele><time>2026-04-13T15:28:48.675Z</time></trkpt><trkpt lat="40.884645" lon="14.2372967"><ele>150.0</ele><time>2026-04-13T15:28:50.675Z</time></trkpt><trkpt lat="40.8845967" lon="14.23722"><ele>150.42857142857142</ele><time>2026-04-13T15:28:52.676Z</time></trkpt><trkpt lat="40.8845433" lon="14.2371583"><ele>150.85714285714286</ele><time>2026-04-13T15:28:54.676Z</time></trkpt><trkpt lat="40.884485" lon="14.2371067"><ele>151.28571428571428</ele><time>2026-04-13T15:28:56.676Z</time></trkpt><trkpt lat="40.8844267" lon="14.2370517"><ele>151.71428571428572</ele><time>2026-04-13T15:28:58.676Z</time></trkpt><trkpt lat="40.8843633" lon="14.2369983"><ele>152.14285714285714</ele><time>2026-04-13T15:29:00.676Z</time></trkpt><trkpt lat="40.8842967" lon="14.236965"><ele>152.57142857142856</ele><time>2026-04-13T15:29:02.675Z</time></trkpt><trkpt lat="40.884225" lon="14.2369467"><ele>153.0</ele><time>2026-04-13T15:29:04.676Z</time></trkpt><trkpt lat="40.8841617" lon="14.2369317"><ele>153.16666666666666</ele><time>2026-04-13T15:29:06.677Z</time></trkpt><trkpt lat="40.8840667" lon="14.2369067"><ele>153.33333333333334</ele><time>2026-04-13T15:29:09.676Z</time></trkpt><trkpt lat="40.884" lon="14.2368983"><ele>153.5</ele><time>2026-04-13T15:29:11.676Z</time></trkpt><trkpt lat="40.8839067" lon="14.2368983"><ele>153.66666666666669</ele><time>2026-04-13T15:29:14.674Z</time></trkpt><trkpt lat="40.8838433" lon="14.2368767"><ele>153.83333333333334</ele><time>2026-04-13T15:29:16.676Z</time></trkpt><trkpt lat="40.883775" lon="14.2368633"><ele>154.0</ele><time>2026-04-13T15:29:18.676Z</time></trkpt><trkpt lat="40.8837133" lon="14.2368433"><ele>154.0</ele><time>2026-04-13T15:29:20.676Z</time></trkpt><trkpt lat="40.88365" lon="14.236825"><ele>154.0</ele><time>2026-04-13T15:29:22.676Z</time></trkpt><trkpt lat="40.8835567" lon="14.23683"><ele>154.0</ele><time>2026-04-13T15:29:25.677Z</time></trkpt><trkpt lat="40.8834933" lon="14.2368167"><ele>154.0</ele><time>2026-04-13T15:29:27.675Z</time></trkpt><trkpt lat="40.8834083" lon="14.2367817"><ele>154.0</ele><time>2026-04-13T15:29:30.678Z</time></trkpt><trkpt lat="40.883325" lon="14.236725"><ele>154.0</ele><time>2026-04-13T15:29:33.676Z</time></trkpt><trkpt lat="40.8832733" lon="14.2366717"><ele>154.42857142857142</ele><time>2026-04-13T15:29:35.678Z</time></trkpt><trkpt lat="40.883205" lon="14.2365983"><ele>154.85714285714286</ele><time>2026-04-13T15:29:38.676Z</time></trkpt><trkpt lat="40.883165" lon="14.2365317"><ele>155.28571428571428</ele><time>2026-04-13T15:29:40.676Z</time></trkpt><trkpt lat="40.8831233" lon="14.2364667"><ele>155.71428571428572</ele><time>2026-04-13T15:29:42.676Z</time></trkpt><trkpt lat="40.8830833" lon="14.23639"><ele>156.14285714285714</ele><time>2026-04-13T15:29:44.677Z</time></trkpt><trkpt lat="40.8830383" lon="14.236325"><ele>156.57142857142856</ele><time>2026-04-13T15:29:46.674Z</time></trkpt><trkpt lat="40.882985" lon="14.2362733"><ele>157.0</ele><time>2026-04-13T15:29:48.676Z</time></trkpt><trkpt lat="40.8829317" lon="14.2362233"><ele>157.57142857142856</ele><time>2026-04-13T15:29:50.677Z</time></trkpt><trkpt lat="40.8828783" lon="14.2361717"><ele>158.14285714285714</ele><time>2026-04-13T15:29:52.676Z</time></trkpt><trkpt lat="40.88282" lon="14.2361233"><ele>158.71428571428572</ele><time>2026-04-13T15:29:54.678Z</time></trkpt><trkpt lat="40.8827583" lon="14.2360767"><ele>159.28571428571428</ele><time>2026-04-13T15:29:56.676Z</time></trkpt><trkpt lat="40.88267" lon="14.236015"><ele>159.85714285714286</ele><time>2026-04-13T15:29:59.675Z</time></trkpt><trkpt lat="40.8826117" lon="14.2359767"><ele>160.42857142857142</ele><time>2026-04-13T15:30:01.677Z</time></trkpt><trkpt lat="40.8825533" lon="14.23594"><ele>161.0</ele><time>2026-04-13T15:30:03.674Z</time></trkpt><trkpt lat="40.8824917" lon="14.2358983"><ele>161.28571428571428</ele><time>2026-04-13T15:30:05.676Z</time></trkpt><trkpt lat="40.8824333" lon="14.2358567"><ele>161.57142857142856</ele><time>2026-04-13T15:30:07.676Z</time></trkpt><trkpt lat="40.8823717" lon="14.235825"><ele>161.85714285714286</ele><time>2026-04-13T15:30:09.675Z</time></trkpt><trkpt lat="40.88231" lon="14.2357867"><ele>162.14285714285714</ele><time>2026-04-13T15:30:11.678Z</time></trkpt><trkpt lat="40.8822533" lon="14.2357383"><ele>162.42857142857142</ele><time>2026-04-13T15:30:13.677Z</time></trkpt><trkpt lat="40.8821983" lon="14.2356917"><ele>162.71428571428572</ele><time>2026-04-13T15:30:15.677Z</time></trkpt><trkpt lat="40.8821417" lon="14.2356417"><ele>163.0</ele><time>2026-04-13T15:30:17.675Z</time></trkpt><trkpt lat="40.88209" lon="14.235585"><ele>163.5</ele><time>2026-04-13T15:30:19.678Z</time></trkpt><trkpt lat="40.8820217" lon="14.2355067"><ele>164.0</ele><time>2026-04-13T15:30:22.676Z</time></trkpt><trkpt lat="40.8819533" lon="14.2354217"><ele>164.5</ele><time>2026-04-13T15:30:25.678Z</time></trkpt><trkpt lat="40.8819117" lon="14.2353567"><ele>165.0</ele><time>2026-04-13T15:30:27.677Z</time></trkpt><trkpt lat="40.8818417" lon="14.2352667"><ele>165.5</ele><time>2026-04-13T15:30:30.675Z</time></trkpt><trkpt lat="40.8817967" lon="14.235205"><ele>166.0</ele><time>2026-04-13T15:30:32.675Z</time></trkpt><trkpt lat="40.881755" lon="14.2351417"><ele>166.42857142857142</ele><time>2026-04-13T15:30:34.676Z</time></trkpt><trkpt lat="40.8817167" lon="14.235075"><ele>166.85714285714286</ele><time>2026-04-13T15:30:36.674Z</time></trkpt><trkpt lat="40.88166" lon="14.2349783"><ele>167.28571428571428</ele><time>2026-04-13T15:30:39.676Z</time></trkpt><trkpt lat="40.88162" lon="14.23491"><ele>167.71428571428572</ele><time>2026-04-13T15:30:41.678Z</time></trkpt><trkpt lat="40.881575" lon="14.23485"><ele>168.14285714285714</ele><time>2026-04-13T15:30:43.676Z</time></trkpt><trkpt lat="40.8815383" lon="14.23478"><ele>168.57142857142858</ele><time>2026-04-13T15:30:45.678Z</time></trkpt><trkpt lat="40.8815167" lon="14.2346817"><ele>169.0</ele><time>2026-04-13T15:30:47.676Z</time></trkpt><trkpt lat="40.8814967" lon="14.234595"><ele>169.85714285714286</ele><time>2026-04-13T15:30:49.679Z</time></trkpt><trkpt lat="40.88149" lon="14.234505"><ele>170.71428571428572</ele><time>2026-04-13T15:30:51.676Z</time></trkpt><trkpt lat="40.8814967" lon="14.2344033"><ele>171.57142857142856</ele><time>2026-04-13T15:30:53.676Z</time></trkpt><trkpt lat="40.8814933" lon="14.2343067"><ele>172.42857142857144</ele><time>2026-04-13T15:30:55.678Z</time></trkpt><trkpt lat="40.8814883" lon="14.2342117"><ele>173.28571428571428</ele><time>2026-04-13T15:30:57.676Z</time></trkpt><trkpt lat="40.8814883" lon="14.2341283"><ele>174.14285714285714</ele><time>2026-04-13T15:30:59.676Z</time></trkpt><trkpt lat="40.8814867" lon="14.2340383"><ele>175.0</ele><time>2026-04-13T15:31:01.679Z</time></trkpt><trkpt lat="40.881475" lon="14.2339117"><ele>175.28571428571428</ele><time>2026-04-13T15:31:04.678Z</time></trkpt><trkpt lat="40.8814433" lon="14.2338233"><ele>175.57142857142856</ele><time>2026-04-13T15:31:06.677Z</time></trkpt><trkpt lat="40.8814167" lon="14.233735"><ele>175.85714285714286</ele><time>2026-04-13T15:31:08.675Z</time></trkpt><trkpt lat="40.8813917" lon="14.2336517"><ele>176.14285714285714</ele><time>2026-04-13T15:31:10.677Z</time></trkpt><trkpt lat="40.8813617" lon="14.23357"><ele>176.42857142857142</ele><time>2026-04-13T15:31:12.678Z</time></trkpt><trkpt lat="40.88133" lon="14.2334883"><ele>176.71428571428572</ele><time>2026-04-13T15:31:14.676Z</time></trkpt><trkpt lat="40.8812883" lon="14.2334183"><ele>177.0</ele><time>2026-04-13T15:31:16.678Z</time></trkpt><trkpt lat="40.8812433" lon="14.2333467"><ele>177.0</ele><time>2026-04-13T15:31:18.678Z</time></trkpt><trkpt lat="40.8812017" lon="14.23327"><ele>177.0</ele><time>2026-04-13T15:31:20.676Z</time></trkpt><trkpt lat="40.8811583" lon="14.2332017"><ele>177.0</ele><time>2026-04-13T15:31:22.68Z</time></trkpt><trkpt lat="40.8811117" lon="14.23314"><ele>177.0</ele><time>2026-04-13T15:31:24.678Z</time></trkpt><trkpt lat="40.8810717" lon="14.233075"><ele>177.0</ele><time>2026-04-13T15:31:26.676Z</time></trkpt><trkpt lat="40.8810167" lon="14.233025"><ele>177.0</ele><time>2026-04-13T15:31:28.677Z</time></trkpt><trkpt lat="40.8809567" lon="14.2329783"><ele>177.0</ele><time>2026-04-13T15:31:30.676Z</time></trkpt><trkpt lat="40.8809" lon="14.2329283"><ele>177.42857142857144</ele><time>2026-04-13T15:31:32.676Z</time></trkpt><trkpt lat="40.8808417" lon="14.2328833"><ele>177.85714285714283</ele><time>2026-04-13T15:31:34.678Z</time></trkpt><trkpt lat="40.8807817" lon="14.23284"><ele>178.28571428571428</ele><time>2026-04-13T15:31:36.677Z</time></trkpt><trkpt lat="40.88072" lon="14.2327983"><ele>178.71428571428572</ele><time>2026-04-13T15:31:38.676Z</time></trkpt><trkpt lat="40.8806583" lon="14.2327533"><ele>179.14285714285717</ele><time>2026-04-13T15:31:40.677Z</time></trkpt><trkpt lat="40.8805933" lon="14.2327183"><ele>179.57142857142856</ele><time>2026-04-13T15:31:42.676Z</time></trkpt><trkpt lat="40.8805317" lon="14.232675"><ele>180.0</ele><time>2026-04-13T15:31:44.677Z</time></trkpt><trkpt lat="40.8804667" lon="14.2326417"><ele>180.0</ele><time>2026-04-13T15:31:46.677Z</time></trkpt><trkpt lat="40.8803933" lon="14.2325667"><ele>180.0</ele><time>2026-04-13T15:31:49.677Z</time></trkpt><trkpt lat="40.880325" lon="14.232505"><ele>180.0</ele><time>2026-04-13T15:31:52.676Z</time></trkpt><trkpt lat="40.880265" lon="14.232425"><ele>180.0</ele><time>2026-04-13T15:31:55.674Z</time></trkpt><trkpt lat="40.8801917" lon="14.2323667"><ele>180.0</ele><time>2026-04-13T15:31:58.678Z</time></trkpt><trkpt lat="40.8801217" lon="14.2323"><ele>180.0</ele><time>2026-04-13T15:32:01.677Z</time></trkpt><trkpt lat="40.8800517" lon="14.2322283"><ele>180.66666666666666</ele><time>2026-04-13T15:32:04.676Z</time></trkpt><trkpt lat="40.8800117" lon="14.2321217"><ele>181.33333333333334</ele><time>2026-04-13T15:32:07.677Z</time></trkpt><trkpt lat="40.8800167" lon="14.2320133"><ele>182.0</ele><time>2026-04-13T15:32:10.677Z</time></trkpt><trkpt lat="40.88004" lon="14.2319067"><ele>182.66666666666669</ele><time>2026-04-13T15:32:13.676Z</time></trkpt><trkpt lat="40.8800967" lon="14.231815"><ele>183.33333333333334</ele><time>2026-04-13T15:32:16.676Z</time></trkpt><trkpt lat="40.8801417" lon="14.2317567"><ele>184.0</ele><time>2026-04-13T15:32:18.676Z</time></trkpt><trkpt lat="40.8801983" lon="14.23167"><ele>184.0</ele><time>2026-04-13T15:32:21.675Z</time></trkpt><trkpt lat="40.88025" lon="14.2315767"><ele>184.0</ele><time>2026-04-13T15:32:24.676Z</time></trkpt><trkpt lat="40.880265" lon="14.231495"><ele>184.0</ele><time>2026-04-13T15:32:26.678Z</time></trkpt><trkpt lat="40.88027" lon="14.2314067"><ele>184.0</ele><time>2026-04-13T15:32:28.675Z</time></trkpt><trkpt lat="40.8802517" lon="14.23132"><ele>184.0</ele><time>2026-04-13T15:32:30.676Z</time></trkpt><trkpt lat="40.880215" lon="14.2312417"><ele>184.0</ele><time>2026-04-13T15:32:32.676Z</time></trkpt><trkpt lat="40.8801717" lon="14.2311683"><ele>184.0</ele><time>2026-04-13T15:32:34.676Z</time></trkpt><trkpt lat="40.880115" lon="14.2311133"><ele>185.0</ele><time>2026-04-13T15:32:36.677Z</time></trkpt><trkpt lat="40.8800417" lon="14.2310867"><ele>186.0</ele><time>2026-04-13T15:32:38.677Z</time></trkpt><trkpt lat="40.879965" lon="14.2310617"><ele>187.0</ele><time>2026-04-13T15:32:40.676Z</time></trkpt><trkpt lat="40.87989" lon="14.2310383"><ele>188.0</ele><time>2026-04-13T15:32:42.676Z</time></trkpt><trkpt lat="40.8798117" lon="14.23102"><ele>189.0</ele><time>2026-04-13T15:32:44.676Z</time></trkpt><trkpt lat="40.87973" lon="14.231005"><ele>190.0</ele><time>2026-04-13T15:32:46.676Z</time></trkpt><trkpt lat="40.879655" lon="14.2309817"><ele>190.0</ele><time>2026-04-13T15:32:48.675Z</time></trkpt><trkpt lat="40.879585" lon="14.230945"><ele>190.0</ele><time>2026-04-13T15:32:50.676Z</time></trkpt><trkpt lat="40.87952" lon="14.2309067"><ele>190.0</ele><time>2026-04-13T15:32:52.676Z</time></trkpt><trkpt lat="40.8794567" lon="14.2308733"><ele>190.0</ele><time>2026-04-13T15:32:54.678Z</time></trkpt><trkpt lat="40.8793917" lon="14.2308467"><ele>190.0</ele><time>2026-04-13T15:32:56.675Z</time></trkpt><trkpt lat="40.879325" lon="14.23082"><ele>190.0</ele><time>2026-04-13T15:32:58.677Z</time></trkpt><trkpt lat="40.87926" lon="14.2308"><ele>190.0</ele><time>2026-04-13T15:33:00.68Z</time></trkpt><trkpt lat="40.87919" lon="14.230795"><ele>190.0</ele><time>2026-04-13T15:33:02.675Z</time></trkpt><trkpt lat="40.879115" lon="14.2307967"><ele>190.0</ele><time>2026-04-13T15:33:04.68Z</time></trkpt><trkpt lat="40.87904" lon="14.2308117"><ele>190.0</ele><time>2026-04-13T15:33:06.676Z</time></trkpt><trkpt lat="40.8789767" lon="14.230825"><ele>190.0</ele><time>2026-04-13T15:33:08.677Z</time></trkpt><trkpt lat="40.87891" lon="14.2308483"><ele>190.0</ele><time>2026-04-13T15:33:10.676Z</time></trkpt><trkpt lat="40.8788433" lon="14.23087"><ele>190.0</ele><time>2026-04-13T15:33:12.677Z</time></trkpt><trkpt lat="40.8787733" lon="14.2308767"><ele>190.0</ele><time>2026-04-13T15:33:14.676Z</time></trkpt><trkpt lat="40.878705" lon="14.2308717"><ele>190.0</ele><time>2026-04-13T15:33:16.678Z</time></trkpt><trkpt lat="40.8786317" lon="14.2308117"><ele>190.0</ele><time>2026-04-13T15:33:19.678Z</time></trkpt><trkpt lat="40.8785983" lon="14.23074"><ele>190.0</ele><time>2026-04-13T15:33:21.678Z</time></trkpt><trkpt lat="40.878575" lon="14.2306583"><ele>190.0</ele><time>2026-04-13T15:33:23.68Z</time></trkpt><trkpt lat="40.8785583" lon="14.2305717"><ele>190.0</ele><time>2026-04-13T15:33:25.676Z</time></trkpt><trkpt lat="40.8785533" lon="14.230475"><ele>190.0</ele><time>2026-04-13T15:33:27.676Z</time></trkpt><trkpt lat="40.8785483" lon="14.23039"><ele>190.0</ele><time>2026-04-13T15:33:29.678Z</time></trkpt><trkpt lat="40.8785417" lon="14.2303033"><ele>190.57142857142858</ele><time>2026-04-13T15:33:31.679Z</time></trkpt><trkpt lat="40.8785433" lon="14.2302117"><ele>191.14285714285717</ele><time>2026-04-13T15:33:33.677Z</time></trkpt><trkpt lat="40.8785433" lon="14.2301183"><ele>191.71428571428572</ele><time>2026-04-13T15:33:35.677Z</time></trkpt><trkpt lat="40.8785433" lon="14.2300233"><ele>192.28571428571428</ele><time>2026-04-13T15:33:37.676Z</time></trkpt><trkpt lat="40.8785417" lon="14.2299283"><ele>192.85714285714286</ele><time>2026-04-13T15:33:39.675Z</time></trkpt><trkpt lat="40.87854" lon="14.229835"><ele>193.42857142857142</ele><time>2026-04-13T15:33:41.679Z</time></trkpt><trkpt lat="40.878545" lon="14.2297433"><ele>194.0</ele><time>2026-04-13T15:33:43.678Z</time></trkpt><trkpt lat="40.8785617" lon="14.229645"><ele>194.57142857142856</ele><time>2026-04-13T15:33:45.677Z</time></trkpt><trkpt lat="40.8785717" lon="14.22955"><ele>195.14285714285717</ele><time>2026-04-13T15:33:47.679Z</time></trkpt><trkpt lat="40.8785833" lon="14.2294583"><ele>195.71428571428572</ele><time>2026-04-13T15:33:49.675Z</time></trkpt><trkpt lat="40.8785917" lon="14.22937"><ele>196.28571428571428</ele><time>2026-04-13T15:33:51.675Z</time></trkpt><trkpt lat="40.8786017" lon="14.2292833"><ele>196.85714285714283</ele><time>2026-04-13T15:33:53.677Z</time></trkpt><trkpt lat="40.8786117" lon="14.22919"><ele>197.42857142857144</ele><time>2026-04-13T15:33:55.675Z</time></trkpt><trkpt lat="40.878625" lon="14.229095"><ele>198.0</ele><time>2026-04-13T15:33:57.675Z</time></trkpt><trkpt lat="40.8786317" lon="14.2289967"><ele>198.57142857142858</ele><time>2026-04-13T15:33:59.675Z</time></trkpt><trkpt lat="40.878645" lon="14.2289017"><ele>199.14285714285714</ele><time>2026-04-13T15:34:01.676Z</time></trkpt><trkpt lat="40.878655" lon="14.228805"><ele>199.71428571428572</ele><time>2026-04-13T15:34:03.678Z</time></trkpt><trkpt lat="40.8786567" lon="14.2287083"><ele>200.28571428571428</ele><time>2026-04-13T15:34:05.68Z</time></trkpt><trkpt lat="40.8786517" lon="14.2286167"><ele>200.85714285714283</ele><time>2026-04-13T15:34:07.677Z</time></trkpt><trkpt lat="40.87863" lon="14.2285217"><ele>201.42857142857142</ele><time>2026-04-13T15:34:09.676Z</time></trkpt><trkpt lat="40.8785967" lon="14.22843"><ele>202.0</ele><time>2026-04-13T15:34:11.677Z</time></trkpt><trkpt lat="40.8785533" lon="14.228345"><ele>202.0</ele><time>2026-04-13T15:34:13.677Z</time></trkpt><trkpt lat="40.87851" lon="14.228265"><ele>202.0</ele><time>2026-04-13T15:34:15.676Z</time></trkpt><trkpt lat="40.8784617" lon="14.22819"><ele>202.0</ele><time>2026-04-13T15:34:17.676Z</time></trkpt><trkpt lat="40.8784117" lon="14.22812"><ele>202.0</ele><time>2026-04-13T15:34:19.676Z</time></trkpt><trkpt lat="40.8783683" lon="14.2280467"><ele>202.0</ele><time>2026-04-13T15:34:21.676Z</time></trkpt><trkpt lat="40.87833" lon="14.22797"><ele>202.0</ele><time>2026-04-13T15:34:23.676Z</time></trkpt><trkpt lat="40.8782883" lon="14.227895"><ele>202.0</ele><time>2026-04-13T15:34:25.677Z</time></trkpt><trkpt lat="40.878245" lon="14.227825"><ele>202.66666666666666</ele><time>2026-04-13T15:34:27.676Z</time></trkpt><trkpt lat="40.8781733" lon="14.2277483"><ele>203.33333333333331</ele><time>2026-04-13T15:34:30.675Z</time></trkpt><trkpt lat="40.8781133" lon="14.22772"><ele>204.0</ele><time>2026-04-13T15:34:32.676Z</time></trkpt><trkpt lat="40.8780467" lon="14.2277117"><ele>204.66666666666669</ele><time>2026-04-13T15:34:34.675Z</time></trkpt><trkpt lat="40.877985" lon="14.22773"><ele>205.33333333333334</ele><time>2026-04-13T15:34:36.676Z</time></trkpt><trkpt lat="40.877895" lon="14.2277667"><ele>206.0</ele><time>2026-04-13T15:34:39.675Z</time></trkpt><trkpt lat="40.87783" lon="14.2278"><ele>205.99999999999997</ele><time>2026-04-13T15:34:41.678Z</time></trkpt><trkpt lat="40.8777667" lon="14.2278233"><ele>206.0</ele><time>2026-04-13T15:34:43.676Z</time></trkpt><trkpt lat="40.8777" lon="14.227845"><ele>206.0</ele><time>2026-04-13T15:34:45.676Z</time></trkpt><trkpt lat="40.877635" lon="14.2278717"><ele>206.0</ele><time>2026-04-13T15:34:47.676Z</time></trkpt><trkpt lat="40.8775683" lon="14.2278867"><ele>206.0</ele><time>2026-04-13T15:34:49.677Z</time></trkpt><trkpt lat="40.877505" lon="14.22787"><ele>205.99999999999997</ele><time>2026-04-13T15:34:51.677Z</time></trkpt><trkpt lat="40.8774467" lon="14.2278367"><ele>206.0</ele><time>2026-04-13T15:34:53.677Z</time></trkpt><trkpt lat="40.8773683" lon="14.22777"><ele>206.42857142857142</ele><time>2026-04-13T15:34:56.675Z</time></trkpt><trkpt lat="40.8772967" lon="14.2276983"><ele>206.85714285714286</ele><time>2026-04-13T15:34:59.677Z</time></trkpt><trkpt lat="40.8772467" lon="14.2276433"><ele>207.28571428571428</ele><time>2026-04-13T15:35:01.676Z</time></trkpt><trkpt lat="40.8771933" lon="14.22759"><ele>207.71428571428572</ele><time>2026-04-13T15:35:03.678Z</time></trkpt><trkpt lat="40.8771267" lon="14.2275117"><ele>208.14285714285714</ele><time>2026-04-13T15:35:06.677Z</time></trkpt><trkpt lat="40.8770733" lon="14.22746"><ele>208.57142857142856</ele><time>2026-04-13T15:35:08.675Z</time></trkpt><trkpt lat="40.87702" lon="14.2274067"><ele>209.0</ele><time>2026-04-13T15:35:10.677Z</time></trkpt><trkpt lat="40.8769683" lon="14.2273483"><ele>210.33333333333334</ele><time>2026-04-13T15:35:12.678Z</time></trkpt><trkpt lat="40.87691" lon="14.2273017"><ele>211.66666666666669</ele><time>2026-04-13T15:35:14.677Z</time></trkpt><trkpt lat="40.876825" lon="14.2272467"><ele>213.0</ele><time>2026-04-13T15:35:17.677Z</time></trkpt><trkpt lat="40.8767417" lon="14.2272117"><ele>214.33333333333331</ele><time>2026-04-13T15:35:20.677Z</time></trkpt><trkpt lat="40.87668" lon="14.22719"><ele>215.66666666666666</ele><time>2026-04-13T15:35:22.677Z</time></trkpt><trkpt lat="40.8765917" lon="14.22716"><ele>217.0</ele><time>2026-04-13T15:35:25.677Z</time></trkpt><trkpt lat="40.8765" lon="14.227135"><ele>217.99999999999997</ele><time>2026-04-13T15:35:28.677Z</time></trkpt><trkpt lat="40.8764083" lon="14.2271183"><ele>219.0</ele><time>2026-04-13T15:35:31.68Z</time></trkpt><trkpt lat="40.876345" lon="14.2271017"><ele>220.0</ele><time>2026-04-13T15:35:33.676Z</time></trkpt><trkpt lat="40.8762567" lon="14.2270833"><ele>221.0</ele><time>2026-04-13T15:35:36.677Z</time></trkpt><trkpt lat="40.8761633" lon="14.2270783"><ele>221.99999999999997</ele><time>2026-04-13T15:35:39.676Z</time></trkpt><trkpt lat="40.8761" lon="14.2270767"><ele>223.0</ele><time>2026-04-13T15:35:41.676Z</time></trkpt><trkpt lat="40.8760333" lon="14.22708"><ele>222.99999999999997</ele><time>2026-04-13T15:35:43.677Z</time></trkpt><trkpt lat="40.8759683" lon="14.2270817"><ele>223.0</ele><time>2026-04-13T15:35:45.675Z</time></trkpt><trkpt lat="40.87588" lon="14.2270683"><ele>223.0</ele><time>2026-04-13T15:35:48.676Z</time></trkpt><trkpt lat="40.87579" lon="14.22705"><ele>223.0</ele><time>2026-04-13T15:35:51.674Z</time></trkpt><trkpt lat="40.8757017" lon="14.2270217"><ele>222.99999999999997</ele><time>2026-04-13T15:35:54.679Z</time></trkpt><trkpt lat="40.8756433" lon="14.2269817"><ele>223.0</ele><time>2026-04-13T15:35:56.679Z</time></trkpt><trkpt lat="40.87559" lon="14.2269267"><ele>223.14285714285714</ele><time>2026-04-13T15:35:58.678Z</time></trkpt><trkpt lat="40.87552" lon="14.226845"><ele>223.28571428571428</ele><time>2026-04-13T15:36:01.678Z</time></trkpt><trkpt lat="40.8754817" lon="14.226775"><ele>223.42857142857144</ele><time>2026-04-13T15:36:03.677Z</time></trkpt><trkpt lat="40.8754617" lon="14.2266917"><ele>223.57142857142856</ele><time>2026-04-13T15:36:05.678Z</time></trkpt><trkpt lat="40.8754417" lon="14.22661"><ele>223.71428571428572</ele><time>2026-04-13T15:36:07.678Z</time></trkpt><trkpt lat="40.8754333" lon="14.226515"><ele>223.85714285714286</ele><time>2026-04-13T15:36:09.677Z</time></trkpt><trkpt lat="40.8754183" lon="14.2264233"><ele>224.0</ele><time>2026-04-13T15:36:11.677Z</time></trkpt><trkpt lat="40.8754083" lon="14.2263383"><ele>224.0</ele><time>2026-04-13T15:36:13.676Z</time></trkpt><trkpt lat="40.8753933" lon="14.2262567"><ele>224.0</ele><time>2026-04-13T15:36:15.68Z</time></trkpt><trkpt lat="40.8753917" lon="14.22617"><ele>224.0</ele><time>2026-04-13T15:36:17.68Z</time></trkpt><trkpt lat="40.8753817" lon="14.2260833"><ele>224.0</ele><time>2026-04-13T15:36:19.678Z</time></trkpt><trkpt lat="40.87537" lon="14.2259983"><ele>224.0</ele><time>2026-04-13T15:36:21.677Z</time></trkpt><trkpt lat="40.8753617" lon="14.2259133"><ele>224.0</ele><time>2026-04-13T15:36:23.679Z</time></trkpt><trkpt lat="40.8753567" lon="14.2258267"><ele>224.0</ele><time>2026-04-13T15:36:25.677Z</time></trkpt><trkpt lat="40.87536" lon="14.2257333"><ele>224.0</ele><time>2026-04-13T15:36:27.675Z</time></trkpt><trkpt lat="40.87536" lon="14.2256383"><ele>224.0</ele><time>2026-04-13T15:36:29.678Z</time></trkpt><trkpt lat="40.875365" lon="14.2255517"><ele>224.0</ele><time>2026-04-13T15:36:31.679Z</time></trkpt><trkpt lat="40.8753783" lon="14.2254633"><ele>224.0</ele><time>2026-04-13T15:36:33.676Z</time></trkpt><trkpt lat="40.8753917" lon="14.22538"><ele>224.0</ele><time>2026-04-13T15:36:35.677Z</time></trkpt><trkpt lat="40.8754133" lon="14.2252967"><ele>224.0</ele><time>2026-04-13T15:36:37.679Z</time></trkpt><trkpt lat="40.8754333" lon="14.2252117"><ele>224.0</ele><time>2026-04-13T15:36:39.676Z</time></trkpt><trkpt lat="40.8754583" lon="14.225125"><ele>224.0</ele><time>2026-04-13T15:36:41.677Z</time></trkpt><trkpt lat="40.8754883" lon="14.2250333"><ele>224.0</ele><time>2026-04-13T15:36:43.677Z</time></trkpt><trkpt lat="40.8755183" lon="14.2249433"><ele>224.0</ele><time>2026-04-13T15:36:45.676Z</time></trkpt><trkpt lat="40.8755483" lon="14.2248617"><ele>224.0</ele><time>2026-04-13T15:36:47.675Z</time></trkpt><trkpt lat="40.8755817" lon="14.2247817"><ele>224.0</ele><time>2026-04-13T15:36:49.675Z</time></trkpt><trkpt lat="40.875615" lon="14.224705"><ele>224.0</ele><time>2026-04-13T15:36:51.675Z</time></trkpt><trkpt lat="40.8756517" lon="14.2246267"><ele>224.0</ele><time>2026-04-13T15:36:53.68Z</time></trkpt><trkpt lat="40.8756867" lon="14.224545"><ele>224.28571428571428</ele><time>2026-04-13T15:36:55.678Z</time></trkpt><trkpt lat="40.8757183" lon="14.2244567"><ele>224.57142857142856</ele><time>2026-04-13T15:36:57.677Z</time></trkpt><trkpt lat="40.8757317" lon="14.2243617"><ele>224.85714285714286</ele><time>2026-04-13T15:36:59.68Z</time></trkpt><trkpt lat="40.8757317" lon="14.2242617"><ele>225.14285714285714</ele><time>2026-04-13T15:37:01.679Z</time></trkpt><trkpt lat="40.875725" lon="14.2241667"><ele>225.42857142857142</ele><time>2026-04-13T15:37:03.679Z</time></trkpt><trkpt lat="40.8757133" lon="14.2240833"><ele>225.71428571428572</ele><time>2026-04-13T15:37:05.678Z</time></trkpt><trkpt lat="40.8756817" lon="14.22399"><ele>226.0</ele><time>2026-04-13T15:37:07.678Z</time></trkpt><trkpt lat="40.8756417" lon="14.223905"><ele>227.33333333333331</ele><time>2026-04-13T15:37:09.679Z</time></trkpt><trkpt lat="40.8755817" lon="14.2238383"><ele>228.66666666666666</ele><time>2026-04-13T15:37:11.679Z</time></trkpt><trkpt lat="40.8755133" lon="14.2238"><ele>230.0</ele><time>2026-04-13T15:37:13.68Z</time></trkpt><trkpt lat="40.8754417" lon="14.2237767"><ele>231.33333333333331</ele><time>2026-04-13T15:37:15.679Z</time></trkpt><trkpt lat="40.8753717" lon="14.2237483"><ele>232.66666666666666</ele><time>2026-04-13T15:37:17.676Z</time></trkpt><trkpt lat="40.875295" lon="14.2237183"><ele>234.0</ele><time>2026-04-13T15:37:19.677Z</time></trkpt><trkpt lat="40.8752233" lon="14.2236783"><ele>234.0</ele><time>2026-04-13T15:37:21.678Z</time></trkpt><trkpt lat="40.8751617" lon="14.22362"><ele>234.0</ele><time>2026-04-13T15:37:23.677Z</time></trkpt><trkpt lat="40.8751083" lon="14.223545"><ele>234.0</ele><time>2026-04-13T15:37:25.678Z</time></trkpt><trkpt lat="40.87506" lon="14.2234617"><ele>234.0</ele><time>2026-04-13T15:37:27.676Z</time></trkpt><trkpt lat="40.87501" lon="14.2233767"><ele>234.0</ele><time>2026-04-13T15:37:29.677Z</time></trkpt><trkpt lat="40.874965" lon="14.2232917"><ele>234.0</ele><time>2026-04-13T15:37:31.676Z</time></trkpt><trkpt lat="40.8749233" lon="14.2232117"><ele>234.16666666666666</ele><time>2026-04-13T15:37:33.676Z</time></trkpt><trkpt lat="40.874885" lon="14.223125"><ele>234.33333333333331</ele><time>2026-04-13T15:37:35.676Z</time></trkpt><trkpt lat="40.874845" lon="14.22304"><ele>234.5</ele><time>2026-04-13T15:37:37.676Z</time></trkpt><trkpt lat="40.8748133" lon="14.2229533"><ele>234.66666666666666</ele><time>2026-04-13T15:37:39.675Z</time></trkpt><trkpt lat="40.8747917" lon="14.2228567"><ele>234.83333333333331</ele><time>2026-04-13T15:37:41.678Z</time></trkpt><trkpt lat="40.8747783" lon="14.22276"><ele>235.0</ele><time>2026-04-13T15:37:43.679Z</time></trkpt><trkpt lat="40.8747767" lon="14.2226567"><ele>235.0</ele><time>2026-04-13T15:37:45.676Z</time></trkpt><trkpt lat="40.8747867" lon="14.222555"><ele>234.99999999999997</ele><time>2026-04-13T15:37:47.678Z</time></trkpt><trkpt lat="40.87479" lon="14.2224617"><ele>235.0</ele><time>2026-04-13T15:37:49.677Z</time></trkpt><trkpt lat="40.8747933" lon="14.2223717"><ele>235.0</ele><time>2026-04-13T15:37:51.677Z</time></trkpt><trkpt lat="40.874795" lon="14.2222833"><ele>234.99999999999997</ele><time>2026-04-13T15:37:53.678Z</time></trkpt><trkpt lat="40.8747933" lon="14.2221983"><ele>235.0</ele><time>2026-04-13T15:37:55.677Z</time></trkpt><trkpt lat="40.8747883" lon="14.2221083"><ele>235.0</ele><time>2026-04-13T15:37:57.677Z</time></trkpt><trkpt lat="40.8747833" lon="14.22202"><ele>235.16666666666666</ele><time>2026-04-13T15:37:59.68Z</time></trkpt><trkpt lat="40.8747983" lon="14.2219367"><ele>235.33333333333331</ele><time>2026-04-13T15:38:01.676Z</time></trkpt><trkpt lat="40.8748217" lon="14.2218417"><ele>235.5</ele><time>2026-04-13T15:38:04.678Z</time></trkpt><trkpt lat="40.8749" lon="14.2218233"><ele>235.66666666666669</ele><time>2026-04-13T15:38:07.679Z</time></trkpt><trkpt lat="40.8749933" lon="14.2218283"><ele>235.83333333333334</ele><time>2026-04-13T15:38:10.677Z</time></trkpt><trkpt lat="40.8750633" lon="14.2218333"><ele>236.0</ele><time>2026-04-13T15:38:12.676Z</time></trkpt><trkpt lat="40.87513" lon="14.221815"><ele>236.16666666666669</ele><time>2026-04-13T15:38:14.677Z</time></trkpt><trkpt lat="40.875195" lon="14.2217783"><ele>236.33333333333334</ele><time>2026-04-13T15:38:16.677Z</time></trkpt><trkpt lat="40.875255" lon="14.2217333"><ele>236.5</ele><time>2026-04-13T15:38:18.677Z</time></trkpt><trkpt lat="40.8752967" lon="14.2216283"><ele>236.66666666666669</ele><time>2026-04-13T15:38:21.677Z</time></trkpt><trkpt lat="40.8752733" lon="14.2214733"><ele>236.83333333333334</ele><time>2026-04-13T15:38:25.681Z</time></trkpt><trkpt lat="40.8752217" lon="14.2214017"><ele>237.0</ele><time>2026-04-13T15:38:27.674Z</time></trkpt><trkpt lat="40.87521" lon="14.2213"><ele>237.66666666666666</ele><time>2026-04-13T15:38:29.677Z</time></trkpt><trkpt lat="40.8752233" lon="14.2212133"><ele>238.33333333333331</ele><time>2026-04-13T15:38:31.678Z</time></trkpt><trkpt lat="40.8752433" lon="14.2211333"><ele>239.0</ele><time>2026-04-13T15:38:33.677Z</time></trkpt><trkpt lat="40.8752733" lon="14.221015"><ele>239.66666666666666</ele><time>2026-04-13T15:38:36.678Z</time></trkpt><trkpt lat="40.8752867" lon="14.2209133"><ele>240.33333333333331</ele><time>2026-04-13T15:38:39.678Z</time></trkpt><trkpt lat="40.8752933" lon="14.2208133"><ele>241.0</ele><time>2026-04-13T15:38:42.677Z</time></trkpt><trkpt lat="40.8752967" lon="14.22071"><ele>241.33333333333331</ele><time>2026-04-13T15:38:45.677Z</time></trkpt><trkpt lat="40.875305" lon="14.220605"><ele>241.66666666666666</ele><time>2026-04-13T15:38:48.677Z</time></trkpt><trkpt lat="40.8753117" lon="14.2204917"><ele>242.0</ele><time>2026-04-13T15:38:51.678Z</time></trkpt><trkpt lat="40.87531" lon="14.2203783"><ele>242.33333333333331</ele><time>2026-04-13T15:38:54.676Z</time></trkpt><trkpt lat="40.8752983" lon="14.220275"><ele>242.66666666666666</ele><time>2026-04-13T15:38:57.677Z</time></trkpt><trkpt lat="40.8753067" lon="14.2201567"><ele>243.0</ele><time>2026-04-13T15:39:00.677Z</time></trkpt><trkpt lat="40.87532" lon="14.220035"><ele>243.0</ele><time>2026-04-13T15:39:03.678Z</time></trkpt><trkpt lat="40.8753217" lon="14.2199233"><ele>243.0</ele><time>2026-04-13T15:39:06.678Z</time></trkpt><trkpt lat="40.8753167" lon="14.2198383"><ele>243.0</ele><time>2026-04-13T15:39:08.677Z</time></trkpt><trkpt lat="40.8752933" lon="14.2197233"><ele>243.0</ele><time>2026-04-13T15:39:11.676Z</time></trkpt><trkpt lat="40.8752717" lon="14.2196383"><ele>243.0</ele><time>2026-04-13T15:39:13.678Z</time></trkpt><trkpt lat="40.8752433" lon="14.2195617"><ele>243.0</ele><time>2026-04-13T15:39:15.676Z</time></trkpt><trkpt lat="40.875215" lon="14.21948"><ele>243.0</ele><time>2026-04-13T15:39:17.678Z</time></trkpt><trkpt lat="40.8751783" lon="14.2194067"><ele>243.33333333333334</ele><time>2026-04-13T15:39:19.675Z</time></trkpt><trkpt lat="40.8751267" lon="14.2192917"><ele>243.66666666666669</ele><time>2026-04-13T15:39:22.678Z</time></trkpt><trkpt lat="40.8750883" lon="14.21921"><ele>244.0</ele><time>2026-04-13T15:39:24.675Z</time></trkpt><trkpt lat="40.8750467" lon="14.2191367"><ele>244.33333333333334</ele><time>2026-04-13T15:39:26.676Z</time></trkpt><trkpt lat="40.8750183" lon="14.2190483"><ele>244.66666666666669</ele><time>2026-04-13T15:39:28.681Z</time></trkpt><trkpt lat="40.875025" lon="14.2189417"><ele>245.0</ele><time>2026-04-13T15:39:30.684Z</time></trkpt><trkpt lat="40.875005" lon="14.2188483"><ele>245.33333333333334</ele><time>2026-04-13T15:39:32.682Z</time></trkpt><trkpt lat="40.8749967" lon="14.2187517"><ele>245.66666666666669</ele><time>2026-04-13T15:39:34.677Z</time></trkpt><trkpt lat="40.8749883" lon="14.2186283"><ele>246.0</ele><time>2026-04-13T15:39:37.677Z</time></trkpt><trkpt lat="40.8749783" lon="14.2185417"><ele>246.33333333333331</ele><time>2026-04-13T15:39:39.676Z</time></trkpt><trkpt lat="40.8749617" lon="14.2184583"><ele>246.66666666666666</ele><time>2026-04-13T15:39:41.681Z</time></trkpt><trkpt lat="40.874955" lon="14.2183317"><ele>247.0</ele><time>2026-04-13T15:39:44.677Z</time></trkpt><trkpt lat="40.8749567" lon="14.2182433"><ele>247.0</ele><time>2026-04-13T15:39:46.677Z</time></trkpt><trkpt lat="40.8749667" lon="14.2181583"><ele>247.0</ele><time>2026-04-13T15:39:48.677Z</time></trkpt><trkpt lat="40.874975" lon="14.21807"><ele>247.0</ele><time>2026-04-13T15:39:50.675Z</time></trkpt><trkpt lat="40.87498" lon="14.21798"><ele>247.0</ele><time>2026-04-13T15:39:52.675Z</time></trkpt><trkpt lat="40.8749933" lon="14.2178917"><ele>247.0</ele><time>2026-04-13T15:39:54.675Z</time></trkpt><trkpt lat="40.8749967" lon="14.2178033"><ele>247.0</ele><time>2026-04-13T15:39:56.676Z</time></trkpt><trkpt lat="40.875015" lon="14.2177"><ele>247.0</ele><time>2026-04-13T15:39:58.675Z</time></trkpt><trkpt lat="40.8750333" lon="14.2176133"><ele>247.42857142857144</ele><time>2026-04-13T15:40:00.675Z</time></trkpt><trkpt lat="40.875055" lon="14.2175333"><ele>247.85714285714283</ele><time>2026-04-13T15:40:02.675Z</time></trkpt><trkpt lat="40.87507" lon="14.2174367"><ele>248.28571428571428</ele><time>2026-04-13T15:40:04.675Z</time></trkpt><trkpt lat="40.8750967" lon="14.2173433"><ele>248.71428571428572</ele><time>2026-04-13T15:40:06.675Z</time></trkpt><trkpt lat="40.875125" lon="14.21726"><ele>249.14285714285717</ele><time>2026-04-13T15:40:08.675Z</time></trkpt><trkpt lat="40.8751483" lon="14.2171783"><ele>249.57142857142856</ele><time>2026-04-13T15:40:10.675Z</time></trkpt><trkpt lat="40.87517" lon="14.2170933"><ele>250.0</ele><time>2026-04-13T15:40:12.674Z</time></trkpt><trkpt lat="40.8751883" lon="14.2170067"><ele>250.71428571428572</ele><time>2026-04-13T15:40:14.673Z</time></trkpt><trkpt lat="40.8752033" lon="14.2169183"><ele>251.42857142857144</ele><time>2026-04-13T15:40:16.674Z</time></trkpt><trkpt lat="40.8752167" lon="14.216835"><ele>252.14285714285717</ele><time>2026-04-13T15:40:18.675Z</time></trkpt><trkpt lat="40.8752217" lon="14.2167483"><ele>252.85714285714286</ele><time>2026-04-13T15:40:20.676Z</time></trkpt><trkpt lat="40.87521" lon="14.2166367"><ele>253.5714285714286</ele><time>2026-04-13T15:40:23.675Z</time></trkpt><trkpt lat="40.8752" lon="14.2165383"><ele>254.2857142857143</ele><time>2026-04-13T15:40:26.675Z</time></trkpt><trkpt lat="40.8751833" lon="14.216435"><ele>255.0</ele><time>2026-04-13T15:40:29.674Z</time></trkpt><trkpt lat="40.8751683" lon="14.2163483"><ele>255.66666666666666</ele><time>2026-04-13T15:40:32.675Z</time></trkpt><trkpt lat="40.875165" lon="14.2162467"><ele>256.3333333333333</ele><time>2026-04-13T15:40:35.677Z</time></trkpt><trkpt lat="40.8751317" lon="14.2161533"><ele>257.0</ele><time>2026-04-13T15:40:38.676Z</time></trkpt><trkpt lat="40.8751217" lon="14.2160567"><ele>257.66666666666663</ele><time>2026-04-13T15:40:41.676Z</time></trkpt><trkpt lat="40.8751217" lon="14.2159333"><ele>258.3333333333333</ele><time>2026-04-13T15:40:44.676Z</time></trkpt><trkpt lat="40.8751067" lon="14.2158517"><ele>259.0</ele><time>2026-04-13T15:40:46.677Z</time></trkpt><trkpt lat="40.8750933" lon="14.215755"><ele>259.3333333333333</ele><time>2026-04-13T15:40:49.676Z</time></trkpt><trkpt lat="40.87506" lon="14.215655"><ele>259.66666666666663</ele><time>2026-04-13T15:40:52.677Z</time></trkpt><trkpt lat="40.87503" lon="14.21554"><ele>260.0</ele><time>2026-04-13T15:40:55.677Z</time></trkpt><trkpt lat="40.875005" lon="14.2154333"><ele>260.3333333333333</ele><time>2026-04-13T15:40:58.677Z</time></trkpt><trkpt lat="40.8749883" lon="14.2153183"><ele>260.6666666666667</ele><time>2026-04-13T15:41:01.676Z</time></trkpt><trkpt lat="40.8749883" lon="14.2152033"><ele>261.0</ele><time>2026-04-13T15:41:04.678Z</time></trkpt><trkpt lat="40.874995" lon="14.2150917"><ele>262.14285714285717</ele><time>2026-04-13T15:41:07.676Z</time></trkpt><trkpt lat="40.874995" lon="14.215"><ele>263.2857142857143</ele><time>2026-04-13T15:41:10.677Z</time></trkpt><trkpt lat="40.875" lon="14.2149067"><ele>264.42857142857144</ele><time>2026-04-13T15:41:13.676Z</time></trkpt><trkpt lat="40.8750017" lon="14.214815"><ele>265.57142857142856</ele><time>2026-04-13T15:41:16.676Z</time></trkpt><trkpt lat="40.8749967" lon="14.2147167"><ele>266.7142857142857</ele><time>2026-04-13T15:41:19.677Z</time></trkpt><trkpt lat="40.8750017" lon="14.2146133"><ele>267.8571428571429</ele><time>2026-04-13T15:41:22.677Z</time></trkpt><trkpt lat="40.87502" lon="14.2145267"><ele>269.0</ele><time>2026-04-13T15:41:25.677Z</time></trkpt><trkpt lat="40.875" lon="14.2144283"><ele>269.1666666666667</ele><time>2026-04-13T15:41:28.677Z</time></trkpt><trkpt lat="40.87498" lon="14.21434"><ele>269.33333333333337</ele><time>2026-04-13T15:41:31.678Z</time></trkpt><trkpt lat="40.8749533" lon="14.214235"><ele>269.5</ele><time>2026-04-13T15:41:34.679Z</time></trkpt><trkpt lat="40.8749183" lon="14.2141367"><ele>269.6666666666667</ele><time>2026-04-13T15:41:37.675Z</time></trkpt><trkpt lat="40.874895" lon="14.2140483"><ele>269.8333333333333</ele><time>2026-04-13T15:41:40.676Z</time></trkpt><trkpt lat="40.8748683" lon="14.213955"><ele>270.0</ele><time>2026-04-13T15:41:43.677Z</time></trkpt><trkpt lat="40.8748133" lon="14.213855"><ele>270.0</ele><time>2026-04-13T15:41:46.677Z</time></trkpt><trkpt lat="40.8747883" lon="14.2137517"><ele>270.0</ele><time>2026-04-13T15:41:49.678Z</time></trkpt><trkpt lat="40.87475" lon="14.2136633"><ele>270.0</ele><time>2026-04-13T15:41:52.676Z</time></trkpt><trkpt lat="40.8747233" lon="14.2135817"><ele>270.0</ele><time>2026-04-13T15:41:55.678Z</time></trkpt><trkpt lat="40.8746783" lon="14.2134883"><ele>270.0</ele><time>2026-04-13T15:41:58.675Z</time></trkpt><trkpt lat="40.8746367" lon="14.213405"><ele>270.0</ele><time>2026-04-13T15:42:01.676Z</time></trkpt><trkpt lat="40.874595" lon="14.21332"><ele>270.0</ele><time>2026-04-13T15:42:04.678Z</time></trkpt><trkpt lat="40.874565" lon="14.2132233"><ele>270.0</ele><time>2026-04-13T15:42:07.678Z</time></trkpt><trkpt lat="40.8745317" lon="14.2131267"><ele>270.0</ele><time>2026-04-13T15:42:10.678Z</time></trkpt><trkpt lat="40.8744867" lon="14.2130367"><ele>270.0</ele><time>2026-04-13T15:42:13.678Z</time></trkpt><trkpt lat="40.8744483" lon="14.212955"><ele>270.0</ele><time>2026-04-13T15:42:16.678Z</time></trkpt><trkpt lat="40.87439" lon="14.2128717"><ele>270.0</ele><time>2026-04-13T15:42:19.676Z</time></trkpt><trkpt lat="40.8743433" lon="14.2127767"><ele>270.0</ele><time>2026-04-13T15:42:22.679Z</time></trkpt><trkpt lat="40.8742883" lon="14.2126867"><ele>270.0</ele><time>2026-04-13T15:42:25.676Z</time></trkpt><trkpt lat="40.874225" lon="14.2126033"><ele>270.0</ele><time>2026-04-13T15:42:28.678Z</time></trkpt><trkpt lat="40.8741767" lon="14.212515"><ele>270.0</ele><time>2026-04-13T15:42:31.678Z</time></trkpt><trkpt lat="40.8741267" lon="14.21243"><ele>270.0</ele><time>2026-04-13T15:42:34.678Z</time></trkpt><trkpt lat="40.8740733" lon="14.2123383"><ele>270.0</ele><time>2026-04-13T15:42:37.679Z</time></trkpt><trkpt lat="40.8740217" lon="14.2122583"><ele>272.0</ele><time>2026-04-13T15:42:40.678Z</time></trkpt><trkpt lat="40.873965" lon="14.2121783"><ele>274.0</ele><time>2026-04-13T15:42:43.678Z</time></trkpt><trkpt lat="40.8739117" lon="14.212105"><ele>276.0</ele><time>2026-04-13T15:42:46.676Z</time></trkpt><trkpt lat="40.8738517" lon="14.212035"><ele>278.0</ele><time>2026-04-13T15:42:49.678Z</time></trkpt><trkpt lat="40.873795" lon="14.2119717"><ele>280.0</ele><time>2026-04-13T15:42:52.677Z</time></trkpt><trkpt lat="40.8737567" lon="14.2118783"><ele>282.0</ele><time>2026-04-13T15:42:55.677Z</time></trkpt><trkpt lat="40.8737383" lon="14.2117633"><ele>282.0</ele><time>2026-04-13T15:42:58.677Z</time></trkpt><trkpt lat="40.8737267" lon="14.21168"><ele>282.0</ele><time>2026-04-13T15:43:00.677Z</time></trkpt><trkpt lat="40.8737133" lon="14.211585"><ele>282.0</ele><time>2026-04-13T15:43:02.676Z</time></trkpt><trkpt lat="40.8737117" lon="14.2114767"><ele>282.0</ele><time>2026-04-13T15:43:04.677Z</time></trkpt><trkpt lat="40.8737133" lon="14.2113767"><ele>282.0</ele><time>2026-04-13T15:43:06.676Z</time></trkpt><trkpt lat="40.873675" lon="14.2112867"><ele>282.0</ele><time>2026-04-13T15:43:09.68Z</time></trkpt><trkpt lat="40.873605" lon="14.2112633"><ele>282.0</ele><time>2026-04-13T15:43:11.675Z</time></trkpt><trkpt lat="40.8735367" lon="14.2112583"><ele>282.3333333333333</ele><time>2026-04-13T15:43:13.676Z</time></trkpt><trkpt lat="40.8734567" lon="14.2112583"><ele>282.6666666666667</ele><time>2026-04-13T15:43:15.676Z</time></trkpt><trkpt lat="40.8733733" lon="14.21125"><ele>283.0</ele><time>2026-04-13T15:43:17.677Z</time></trkpt><trkpt lat="40.87329" lon="14.2112317"><ele>283.33333333333337</ele><time>2026-04-13T15:43:19.677Z</time></trkpt><trkpt lat="40.8732117" lon="14.2112333"><ele>283.6666666666667</ele><time>2026-04-13T15:43:21.677Z</time></trkpt><trkpt lat="40.873145" lon="14.21124"><ele>284.0</ele><time>2026-04-13T15:43:23.675Z</time></trkpt><trkpt lat="40.87308" lon="14.2112633"><ele>284.0</ele><time>2026-04-13T15:43:25.677Z</time></trkpt><trkpt lat="40.8730217" lon="14.2113033"><ele>284.0</ele><time>2026-04-13T15:43:27.675Z</time></trkpt><trkpt lat="40.8729467" lon="14.2113667"><ele>284.0</ele><time>2026-04-13T15:43:30.676Z</time></trkpt><trkpt lat="40.8729" lon="14.211435"><ele>284.0</ele><time>2026-04-13T15:43:32.675Z</time></trkpt><trkpt lat="40.87285" lon="14.2114983"><ele>284.0</ele><time>2026-04-13T15:43:34.676Z</time></trkpt><trkpt lat="40.8727933" lon="14.21157"><ele>284.0</ele><time>2026-04-13T15:43:36.676Z</time></trkpt><trkpt lat="40.8727367" lon="14.211645"><ele>283.5</ele><time>2026-04-13T15:43:38.676Z</time></trkpt><trkpt lat="40.8726767" lon="14.2117033"><ele>283.0</ele><time>2026-04-13T15:43:40.677Z</time></trkpt><trkpt lat="40.872625" lon="14.2117767"><ele>282.5</ele><time>2026-04-13T15:43:42.677Z</time></trkpt><trkpt lat="40.8725717" lon="14.2118533"><ele>282.0</ele><time>2026-04-13T15:43:44.676Z</time></trkpt><trkpt lat="40.8725167" lon="14.2119283"><ele>281.5</ele><time>2026-04-13T15:43:46.675Z</time></trkpt><trkpt lat="40.8724567" lon="14.2119933"><ele>281.0</ele><time>2026-04-13T15:43:48.676Z</time></trkpt><trkpt lat="40.8724017" lon="14.212045"><ele>282.33333333333337</ele><time>2026-04-13T15:43:50.677Z</time></trkpt><trkpt lat="40.8723483" lon="14.2121083"><ele>283.6666666666667</ele><time>2026-04-13T15:43:52.677Z</time></trkpt><trkpt lat="40.8722767" lon="14.2121617"><ele>285.0</ele><time>2026-04-13T15:43:54.677Z</time></trkpt><trkpt lat="40.872195" lon="14.2121983"><ele>286.3333333333333</ele><time>2026-04-13T15:43:56.677Z</time></trkpt><trkpt lat="40.872105" lon="14.2122217"><ele>287.66666666666663</ele><time>2026-04-13T15:43:58.676Z</time></trkpt><trkpt lat="40.87202" lon="14.2122533"><ele>289.0</ele><time>2026-04-13T15:44:00.676Z</time></trkpt><trkpt lat="40.8719283" lon="14.2122767"><ele>289.3333333333333</ele><time>2026-04-13T15:44:02.677Z</time></trkpt><trkpt lat="40.8718433" lon="14.2123267"><ele>289.66666666666663</ele><time>2026-04-13T15:44:04.676Z</time></trkpt><trkpt lat="40.87175" lon="14.21236"><ele>290.0</ele><time>2026-04-13T15:44:06.677Z</time></trkpt><trkpt lat="40.8716633" lon="14.2123967"><ele>290.3333333333333</ele><time>2026-04-13T15:44:08.677Z</time></trkpt><trkpt lat="40.871585" lon="14.2124333"><ele>290.6666666666667</ele><time>2026-04-13T15:44:10.676Z</time></trkpt><trkpt lat="40.871505" lon="14.2124617"><ele>291.0</ele><time>2026-04-13T15:44:12.676Z</time></trkpt><trkpt lat="40.8714317" lon="14.2124667"><ele>291.0</ele><time>2026-04-13T15:44:14.676Z</time></trkpt><trkpt lat="40.871365" lon="14.2124783"><ele>291.0</ele><time>2026-04-13T15:44:16.676Z</time></trkpt><trkpt lat="40.8712717" lon="14.2125"><ele>291.0</ele><time>2026-04-13T15:44:19.676Z</time></trkpt><trkpt lat="40.8711983" lon="14.2125017"><ele>291.0</ele><time>2026-04-13T15:44:21.676Z</time></trkpt><trkpt lat="40.8711283" lon="14.2125133"><ele>291.0</ele><time>2026-04-13T15:44:23.678Z</time></trkpt><trkpt lat="40.87106" lon="14.212525"><ele>291.0</ele><time>2026-04-13T15:44:25.676Z</time></trkpt><trkpt lat="40.8709867" lon="14.2125333"><ele>291.0</ele><time>2026-04-13T15:44:27.678Z</time></trkpt><trkpt lat="40.8709233" lon="14.2125367"><ele>291.0</ele><time>2026-04-13T15:44:29.677Z</time></trkpt><trkpt lat="40.8708533" lon="14.2125367"><ele>291.0</ele><time>2026-04-13T15:44:31.676Z</time></trkpt><trkpt lat="40.87079" lon="14.2125383"><ele>291.0</ele><time>2026-04-13T15:44:33.676Z</time></trkpt><trkpt lat="40.870725" lon="14.21254"><ele>291.0</ele><time>2026-04-13T15:44:35.678Z</time></trkpt><trkpt lat="40.8706583" lon="14.212545"><ele>291.0</ele><time>2026-04-13T15:44:37.677Z</time></trkpt><trkpt lat="40.8705817" lon="14.2125567"><ele>291.0</ele><time>2026-04-13T15:44:39.676Z</time></trkpt><trkpt lat="40.87051" lon="14.2125767"><ele>291.0</ele><time>2026-04-13T15:44:41.677Z</time></trkpt><trkpt lat="40.8704433" lon="14.2125967"><ele>291.0</ele><time>2026-04-13T15:44:43.676Z</time></trkpt><trkpt lat="40.8703783" lon="14.21261"><ele>291.0</ele><time>2026-04-13T15:44:45.676Z</time></trkpt><trkpt lat="40.8703117" lon="14.21262"><ele>291.0</ele><time>2026-04-13T15:44:47.677Z</time></trkpt><trkpt lat="40.8702433" lon="14.2126317"><ele>291.0</ele><time>2026-04-13T15:44:49.677Z</time></trkpt><trkpt lat="40.8701661" lon="14.2126311"><ele>291.0</ele><time>2026-04-13T15:44:51.806Z</time></trkpt><trkpt lat="40.8700677" lon="14.2126316"><ele>291.0</ele><time>2026-04-13T15:44:54.746Z</time></trkpt><trkpt lat="40.87" lon="14.21264"><ele>291.0</ele><time>2026-04-13T15:44:56.676Z</time></trkpt><trkpt lat="40.8699333" lon="14.2126417"><ele>293.0</ele><time>2026-04-13T15:44:58.676Z</time></trkpt><trkpt lat="40.8698467" lon="14.21266"><ele>295.0</ele><time>2026-04-13T15:45:01.675Z</time></trkpt><trkpt lat="40.86977" lon="14.21265"><ele>297.0</ele><time>2026-04-13T15:45:04.675Z</time></trkpt><trkpt lat="40.8697083" lon="14.21267"><ele>299.0</ele><time>2026-04-13T15:45:06.676Z</time></trkpt><trkpt lat="40.8696433" lon="14.2126883"><ele>301.0</ele><time>2026-04-13T15:45:08.677Z</time></trkpt><trkpt lat="40.8695717" lon="14.212715"><ele>303.0</ele><time>2026-04-13T15:45:10.675Z</time></trkpt><trkpt lat="40.8694917" lon="14.21274"><ele>303.0</ele><time>2026-04-13T15:45:12.675Z</time></trkpt><trkpt lat="40.8694133" lon="14.2127683"><ele>303.0</ele><time>2026-04-13T15:45:14.676Z</time></trkpt><trkpt lat="40.869335" lon="14.21276"><ele>303.0</ele><time>2026-04-13T15:45:16.677Z</time></trkpt><trkpt lat="40.8692483" lon="14.212775"><ele>303.0</ele><time>2026-04-13T15:45:18.676Z</time></trkpt><trkpt lat="40.8691567" lon="14.212785"><ele>303.0</ele><time>2026-04-13T15:45:20.676Z</time></trkpt><trkpt lat="40.869075" lon="14.2128133"><ele>303.0</ele><time>2026-04-13T15:45:22.675Z</time></trkpt><trkpt lat="40.8689917" lon="14.2128333"><ele>302.6666666666667</ele><time>2026-04-13T15:45:24.676Z</time></trkpt><trkpt lat="40.868915" lon="14.2128683"><ele>302.3333333333333</ele><time>2026-04-13T15:45:26.677Z</time></trkpt><trkpt lat="40.8688383" lon="14.2128983"><ele>302.0</ele><time>2026-04-13T15:45:28.677Z</time></trkpt><trkpt lat="40.8687617" lon="14.21292"><ele>301.66666666666663</ele><time>2026-04-13T15:45:30.676Z</time></trkpt><trkpt lat="40.868685" lon="14.21294"><ele>301.3333333333333</ele><time>2026-04-13T15:45:32.677Z</time></trkpt><trkpt lat="40.868615" lon="14.2129667"><ele>301.0</ele><time>2026-04-13T15:45:34.676Z</time></trkpt><trkpt lat="40.868545" lon="14.21299"><ele>301.0</ele><time>2026-04-13T15:45:36.676Z</time></trkpt><trkpt lat="40.8684767" lon="14.21301"><ele>301.0</ele><time>2026-04-13T15:45:38.675Z</time></trkpt><trkpt lat="40.8683817" lon="14.213015"><ele>301.0</ele><time>2026-04-13T15:45:41.677Z</time></trkpt><trkpt lat="40.8683183" lon="14.2129333"><ele>301.0</ele><time>2026-04-13T15:45:44.676Z</time></trkpt><trkpt lat="40.8682667" lon="14.2128383"><ele>301.0</ele><time>2026-04-13T15:45:47.676Z</time></trkpt><trkpt lat="40.8682383" lon="14.21275"><ele>301.0</ele><time>2026-04-13T15:45:49.676Z</time></trkpt><trkpt lat="40.86823" lon="14.2126583"><ele>300.8333333333333</ele><time>2026-04-13T15:45:51.676Z</time></trkpt><trkpt lat="40.8682333" lon="14.2125367"><ele>300.66666666666663</ele><time>2026-04-13T15:45:54.675Z</time></trkpt><trkpt lat="40.8682367" lon="14.21242"><ele>300.5</ele><time>2026-04-13T15:45:57.674Z</time></trkpt><trkpt lat="40.8682433" lon="14.21233"><ele>300.3333333333333</ele><time>2026-04-13T15:45:59.676Z</time></trkpt><trkpt lat="40.868255" lon="14.212215"><ele>300.1666666666667</ele><time>2026-04-13T15:46:02.679Z</time></trkpt><trkpt lat="40.86827" lon="14.2120917"><ele>300.0</ele><time>2026-04-13T15:46:05.676Z</time></trkpt><trkpt lat="40.8682483" lon="14.2119683"><ele>300.57142857142856</ele><time>2026-04-13T15:46:08.679Z</time></trkpt><trkpt lat="40.8682433" lon="14.211885"><ele>301.1428571428571</ele><time>2026-04-13T15:46:10.676Z</time></trkpt><trkpt lat="40.8682433" lon="14.2117983"><ele>301.71428571428567</ele><time>2026-04-13T15:46:12.678Z</time></trkpt><trkpt lat="40.8682417" lon="14.2117083"><ele>302.2857142857143</ele><time>2026-04-13T15:46:14.675Z</time></trkpt><trkpt lat="40.8682417" lon="14.2116233"><ele>302.8571428571429</ele><time>2026-04-13T15:46:16.676Z</time></trkpt><trkpt lat="40.8682467" lon="14.21154"><ele>303.4285714285714</ele><time>2026-04-13T15:46:18.676Z</time></trkpt><trkpt lat="40.8682533" lon="14.2114217"><ele>304.0</ele><time>2026-04-13T15:46:21.676Z</time></trkpt><trkpt lat="40.8682617" lon="14.21132"><ele>305.0</ele><time>2026-04-13T15:46:24.676Z</time></trkpt><trkpt lat="40.8682617" lon="14.2112117"><ele>306.0</ele><time>2026-04-13T15:46:27.674Z</time></trkpt><trkpt lat="40.868265" lon="14.211105"><ele>307.0</ele><time>2026-04-13T15:46:30.676Z</time></trkpt><trkpt lat="40.8682667" lon="14.2110017"><ele>308.0</ele><time>2026-04-13T15:46:33.676Z</time></trkpt><trkpt lat="40.8682717" lon="14.2108867"><ele>309.0</ele><time>2026-04-13T15:46:36.676Z</time></trkpt><trkpt lat="40.8682967" lon="14.210775"><ele>310.0</ele><time>2026-04-13T15:46:39.675Z</time></trkpt><trkpt lat="40.8683017" lon="14.2106567"><ele>310.16666666666663</ele><time>2026-04-13T15:46:42.677Z</time></trkpt><trkpt lat="40.8683083" lon="14.210535"><ele>310.3333333333333</ele><time>2026-04-13T15:46:45.676Z</time></trkpt><trkpt lat="40.868305" lon="14.2104133"><ele>310.5</ele><time>2026-04-13T15:46:48.676Z</time></trkpt><trkpt lat="40.8683067" lon="14.2102933"><ele>310.6666666666667</ele><time>2026-04-13T15:46:51.676Z</time></trkpt><trkpt lat="40.8683117" lon="14.210175"><ele>310.83333333333337</ele><time>2026-04-13T15:46:54.676Z</time></trkpt><trkpt lat="40.8683117" lon="14.2100633"><ele>311.0</ele><time>2026-04-13T15:46:57.675Z</time></trkpt><trkpt lat="40.86832" lon="14.2099467"><ele>311.0</ele><time>2026-04-13T15:47:00.676Z</time></trkpt><trkpt lat="40.8683283" lon="14.20984"><ele>311.0</ele><time>2026-04-13T15:47:03.676Z</time></trkpt><trkpt lat="40.868335" lon="14.2097283"><ele>311.0</ele><time>2026-04-13T15:47:06.676Z</time></trkpt><trkpt lat="40.8683467" lon="14.20962"><ele>311.0</ele><time>2026-04-13T15:47:09.676Z</time></trkpt><trkpt lat="40.8683517" lon="14.209505"><ele>311.0</ele><time>2026-04-13T15:47:12.675Z</time></trkpt><trkpt lat="40.868355" lon="14.209395"><ele>311.0</ele><time>2026-04-13T15:47:15.676Z</time></trkpt><trkpt lat="40.8683533" lon="14.20929"><ele>311.6666666666667</ele><time>2026-04-13T15:47:18.674Z</time></trkpt><trkpt lat="40.86836" lon="14.2091867"><ele>312.33333333333337</ele><time>2026-04-13T15:47:21.675Z</time></trkpt><trkpt lat="40.86836" lon="14.2090833"><ele>313.0</ele><time>2026-04-13T15:47:24.676Z</time></trkpt><trkpt lat="40.8683667" lon="14.2089867"><ele>313.6666666666667</ele><time>2026-04-13T15:47:27.675Z</time></trkpt><trkpt lat="40.868375" lon="14.2088867"><ele>314.3333333333333</ele><time>2026-04-13T15:47:30.675Z</time></trkpt><trkpt lat="40.8683767" lon="14.2087717"><ele>315.0</ele><time>2026-04-13T15:47:33.675Z</time></trkpt><trkpt lat="40.8683833" lon="14.2086517"><ele>315.8333333333333</ele><time>2026-04-13T15:47:36.676Z</time></trkpt><trkpt lat="40.868385" lon="14.208545"><ele>316.6666666666667</ele><time>2026-04-13T15:47:39.678Z</time></trkpt><trkpt lat="40.868395" lon="14.208425"><ele>317.5</ele><time>2026-04-13T15:47:42.678Z</time></trkpt><trkpt lat="40.8683883" lon="14.20831"><ele>318.33333333333337</ele><time>2026-04-13T15:47:45.677Z</time></trkpt><trkpt lat="40.868375" lon="14.208205"><ele>319.1666666666667</ele><time>2026-04-13T15:47:48.676Z</time></trkpt><trkpt lat="40.8683467" lon="14.2081117"><ele>320.0</ele><time>2026-04-13T15:47:51.676Z</time></trkpt><trkpt lat="40.868305" lon="14.2080183"><ele>321.0</ele><time>2026-04-13T15:47:54.677Z</time></trkpt><trkpt lat="40.868265" lon="14.2079283"><ele>322.0</ele><time>2026-04-13T15:47:57.675Z</time></trkpt><trkpt lat="40.8682217" lon="14.207835"><ele>323.0</ele><time>2026-04-13T15:48:00.677Z</time></trkpt><trkpt lat="40.8681783" lon="14.207745"><ele>324.0</ele><time>2026-04-13T15:48:03.677Z</time></trkpt><trkpt lat="40.8681417" lon="14.207645"><ele>325.0</ele><time>2026-04-13T15:48:06.677Z</time></trkpt><trkpt lat="40.8681267" lon="14.20753"><ele>326.0</ele><time>2026-04-13T15:48:09.677Z</time></trkpt><trkpt lat="40.86812" lon="14.2074133"><ele>326.1666666666667</ele><time>2026-04-13T15:48:12.676Z</time></trkpt><trkpt lat="40.8681167" lon="14.2073083"><ele>326.33333333333337</ele><time>2026-04-13T15:48:15.676Z</time></trkpt><trkpt lat="40.86813" lon="14.2072"><ele>326.5</ele><time>2026-04-13T15:48:18.676Z</time></trkpt><trkpt lat="40.868145" lon="14.2070767"><ele>326.6666666666667</ele><time>2026-04-13T15:48:21.675Z</time></trkpt><trkpt lat="40.86816" lon="14.2069667"><ele>326.8333333333333</ele><time>2026-04-13T15:48:24.676Z</time></trkpt><trkpt lat="40.8681667" lon="14.2068583"><ele>327.0</ele><time>2026-04-13T15:48:27.677Z</time></trkpt><trkpt lat="40.8681767" lon="14.2067417"><ele>327.0</ele><time>2026-04-13T15:48:30.676Z</time></trkpt><trkpt lat="40.8682" lon="14.20663"><ele>327.0</ele><time>2026-04-13T15:48:33.677Z</time></trkpt><trkpt lat="40.8682267" lon="14.2065267"><ele>327.0</ele><time>2026-04-13T15:48:36.677Z</time></trkpt><trkpt lat="40.868255" lon="14.20642"><ele>327.0</ele><time>2026-04-13T15:48:39.676Z</time></trkpt><trkpt lat="40.8682883" lon="14.2063117"><ele>327.0</ele><time>2026-04-13T15:48:42.676Z</time></trkpt><trkpt lat="40.8683017" lon="14.20619"><ele>327.0</ele><time>2026-04-13T15:48:45.678Z</time></trkpt><trkpt lat="40.8683217" lon="14.2060817"><ele>327.2857142857143</ele><time>2026-04-13T15:48:48.676Z</time></trkpt><trkpt lat="40.8683333" lon="14.205965"><ele>327.57142857142856</ele><time>2026-04-13T15:48:51.677Z</time></trkpt><trkpt lat="40.8683467" lon="14.20588"><ele>327.8571428571429</ele><time>2026-04-13T15:48:53.675Z</time></trkpt><trkpt lat="40.8683567" lon="14.2057967"><ele>328.1428571428571</ele><time>2026-04-13T15:48:55.676Z</time></trkpt><trkpt lat="40.8683667" lon="14.2057033"><ele>328.42857142857144</ele><time>2026-04-13T15:48:57.678Z</time></trkpt><trkpt lat="40.8683817" lon="14.20562"><ele>328.7142857142857</ele><time>2026-04-13T15:48:59.678Z</time></trkpt><trkpt lat="40.8683867" lon="14.20553"><ele>329.0</ele><time>2026-04-13T15:49:01.676Z</time></trkpt><trkpt lat="40.8683967" lon="14.2054067"><ele>329.0</ele><time>2026-04-13T15:49:04.677Z</time></trkpt><trkpt lat="40.8683967" lon="14.2053217"><ele>329.0</ele><time>2026-04-13T15:49:06.677Z</time></trkpt><trkpt lat="40.8684" lon="14.2052367"><ele>329.0</ele><time>2026-04-13T15:49:08.677Z</time></trkpt><trkpt lat="40.8683883" lon="14.2051533"><ele>329.0</ele><time>2026-04-13T15:49:10.675Z</time></trkpt><trkpt lat="40.8683717" lon="14.2050317"><ele>329.0</ele><time>2026-04-13T15:49:13.679Z</time></trkpt><trkpt lat="40.8683567" lon="14.20492"><ele>329.0</ele><time>2026-04-13T15:49:16.677Z</time></trkpt><trkpt lat="40.86833" lon="14.2048183"><ele>329.6666666666667</ele><time>2026-04-13T15:49:19.678Z</time></trkpt><trkpt lat="40.86831" lon="14.20471"><ele>330.33333333333337</ele><time>2026-04-13T15:49:22.676Z</time></trkpt><trkpt lat="40.868295" lon="14.2046017"><ele>331.0</ele><time>2026-04-13T15:49:25.676Z</time></trkpt><trkpt lat="40.86828" lon="14.2044917"><ele>331.6666666666667</ele><time>2026-04-13T15:49:28.675Z</time></trkpt><trkpt lat="40.86825" lon="14.2044083"><ele>332.3333333333333</ele><time>2026-04-13T15:49:31.678Z</time></trkpt><trkpt lat="40.8681917" lon="14.204325"><ele>333.0</ele><time>2026-04-13T15:49:34.676Z</time></trkpt><trkpt lat="40.8681367" lon="14.204245"><ele>333.0</ele><time>2026-04-13T15:49:37.679Z</time></trkpt><trkpt lat="40.8680783" lon="14.204175"><ele>333.0</ele><time>2026-04-13T15:49:40.676Z</time></trkpt><trkpt lat="40.8680267" lon="14.204115"><ele>333.0</ele><time>2026-04-13T15:49:43.676Z</time></trkpt><trkpt lat="40.867985" lon="14.204045"><ele>333.0</ele><time>2026-04-13T15:49:46.676Z</time></trkpt><trkpt lat="40.867935" lon="14.203985"><ele>333.0</ele><time>2026-04-13T15:49:49.677Z</time></trkpt><trkpt lat="40.8678867" lon="14.2039267"><ele>333.0</ele><time>2026-04-13T15:49:52.675Z</time></trkpt><trkpt lat="40.8678367" lon="14.2038667"><ele>333.0</ele><time>2026-04-13T15:49:55.677Z</time></trkpt><trkpt lat="40.867785" lon="14.203805"><ele>334.14285714285717</ele><time>2026-04-13T15:49:58.675Z</time></trkpt><trkpt lat="40.8677317" lon="14.2037417"><ele>335.2857142857143</ele><time>2026-04-13T15:50:01.676Z</time></trkpt><trkpt lat="40.8676917" lon="14.2036683"><ele>336.42857142857144</ele><time>2026-04-13T15:50:04.677Z</time></trkpt><trkpt lat="40.867645" lon="14.2035967"><ele>337.57142857142856</ele><time>2026-04-13T15:50:07.675Z</time></trkpt><trkpt lat="40.8675833" lon="14.203525"><ele>338.7142857142857</ele><time>2026-04-13T15:50:10.675Z</time></trkpt><trkpt lat="40.8675183" lon="14.203455"><ele>339.85714285714283</ele><time>2026-04-13T15:50:13.675Z</time></trkpt><trkpt lat="40.86748" lon="14.2033767"><ele>341.0</ele><time>2026-04-13T15:50:16.676Z</time></trkpt><trkpt lat="40.8674333" lon="14.2032767"><ele>341.1428571428571</ele><time>2026-04-13T15:50:20.675Z</time></trkpt><trkpt lat="40.8674083" lon="14.2031933"><ele>341.2857142857143</ele><time>2026-04-13T15:50:23.675Z</time></trkpt><trkpt lat="40.8673867" lon="14.2030933"><ele>341.42857142857144</ele><time>2026-04-13T15:50:26.675Z</time></trkpt><trkpt lat="40.867355" lon="14.202995"><ele>341.57142857142856</ele><time>2026-04-13T15:50:29.676Z</time></trkpt><trkpt lat="40.8673417" lon="14.2029117"><ele>341.7142857142857</ele><time>2026-04-13T15:50:32.676Z</time></trkpt><trkpt lat="40.8673183" lon="14.2028017"><ele>341.85714285714283</ele><time>2026-04-13T15:50:36.675Z</time></trkpt><trkpt lat="40.8673017" lon="14.20271"><ele>342.0</ele><time>2026-04-13T15:50:39.675Z</time></trkpt><trkpt lat="40.867285" lon="14.2026133"><ele>343.3333333333333</ele><time>2026-04-13T15:50:42.675Z</time></trkpt><trkpt lat="40.8672683" lon="14.20251"><ele>344.6666666666667</ele><time>2026-04-13T15:50:45.676Z</time></trkpt><trkpt lat="40.8672583" lon="14.2024067"><ele>346.0</ele><time>2026-04-13T15:50:48.675Z</time></trkpt><trkpt lat="40.8672517" lon="14.2023017"><ele>347.33333333333337</ele><time>2026-04-13T15:50:51.675Z</time></trkpt><trkpt lat="40.8672533" lon="14.2022067"><ele>348.6666666666667</ele><time>2026-04-13T15:50:54.676Z</time></trkpt><trkpt lat="40.8672667" lon="14.2021167"><ele>350.0</ele><time>2026-04-13T15:50:57.676Z</time></trkpt><trkpt lat="40.86728" lon="14.2020067"><ele>350.6666666666667</ele><time>2026-04-13T15:51:00.679Z</time></trkpt><trkpt lat="40.8672883" lon="14.2019017"><ele>351.33333333333337</ele><time>2026-04-13T15:51:03.675Z</time></trkpt><trkpt lat="40.8673" lon="14.201795"><ele>352.0</ele><time>2026-04-13T15:51:06.675Z</time></trkpt><trkpt lat="40.8673133" lon="14.2016933"><ele>352.6666666666667</ele><time>2026-04-13T15:51:09.677Z</time></trkpt><trkpt lat="40.86734" lon="14.2015917"><ele>353.3333333333333</ele><time>2026-04-13T15:51:12.677Z</time></trkpt><trkpt lat="40.8673733" lon="14.2014967"><ele>354.0</ele><time>2026-04-13T15:51:15.676Z</time></trkpt><trkpt lat="40.8674" lon="14.2014033"><ele>354.6666666666667</ele><time>2026-04-13T15:51:18.676Z</time></trkpt><trkpt lat="40.8674367" lon="14.2013167"><ele>355.3333333333333</ele><time>2026-04-13T15:51:21.676Z</time></trkpt><trkpt lat="40.8674617" lon="14.2012233"><ele>356.0</ele><time>2026-04-13T15:51:24.676Z</time></trkpt><trkpt lat="40.8674983" lon="14.201125"><ele>356.66666666666663</ele><time>2026-04-13T15:51:27.676Z</time></trkpt><trkpt lat="40.86754" lon="14.2010317"><ele>357.3333333333333</ele><time>2026-04-13T15:51:30.678Z</time></trkpt><trkpt lat="40.867565" lon="14.200935"><ele>358.0</ele><time>2026-04-13T15:51:33.678Z</time></trkpt><trkpt lat="40.8676017" lon="14.2008417"><ele>358.3333333333333</ele><time>2026-04-13T15:51:36.678Z</time></trkpt><trkpt lat="40.8676433" lon="14.200735"><ele>358.66666666666663</ele><time>2026-04-13T15:51:39.678Z</time></trkpt><trkpt lat="40.8676833" lon="14.200635"><ele>359.0</ele><time>2026-04-13T15:51:42.676Z</time></trkpt><trkpt lat="40.8677267" lon="14.2005483"><ele>359.3333333333333</ele><time>2026-04-13T15:51:45.677Z</time></trkpt><trkpt lat="40.8677683" lon="14.2004517"><ele>359.6666666666667</ele><time>2026-04-13T15:51:48.677Z</time></trkpt><trkpt lat="40.8678033" lon="14.2003567"><ele>360.0</ele><time>2026-04-13T15:51:51.676Z</time></trkpt><trkpt lat="40.8678467" lon="14.20026"><ele>360.0</ele><time>2026-04-13T15:51:54.676Z</time></trkpt><trkpt lat="40.86789" lon="14.20016"><ele>360.0</ele><time>2026-04-13T15:51:57.677Z</time></trkpt><trkpt lat="40.867925" lon="14.20009"><ele>360.0</ele><time>2026-04-13T15:51:59.678Z</time></trkpt><trkpt lat="40.8679767" lon="14.1999933"><ele>360.0</ele><time>2026-04-13T15:52:02.676Z</time></trkpt><trkpt lat="40.8680367" lon="14.1999083"><ele>360.0</ele><time>2026-04-13T15:52:05.676Z</time></trkpt><trkpt lat="40.8681083" lon="14.1998383"><ele>360.0</ele><time>2026-04-13T15:52:08.678Z</time></trkpt><trkpt lat="40.8681683" lon="14.19978"><ele>360.2857142857143</ele><time>2026-04-13T15:52:10.676Z</time></trkpt><trkpt lat="40.86823" lon="14.19973"><ele>360.5714285714286</ele><time>2026-04-13T15:52:12.677Z</time></trkpt><trkpt lat="40.8682917" lon="14.1996883"><ele>360.8571428571429</ele><time>2026-04-13T15:52:14.678Z</time></trkpt><trkpt lat="40.86835" lon="14.1996267"><ele>361.1428571428571</ele><time>2026-04-13T15:52:16.676Z</time></trkpt><trkpt lat="40.8683983" lon="14.1995633"><ele>361.42857142857144</ele><time>2026-04-13T15:52:18.676Z</time></trkpt><trkpt lat="40.868445" lon="14.1994883"><ele>361.7142857142857</ele><time>2026-04-13T15:52:20.677Z</time></trkpt><trkpt lat="40.8684833" lon="14.1994033"><ele>362.0</ele><time>2026-04-13T15:52:22.676Z</time></trkpt><trkpt lat="40.8685133" lon="14.1993217"><ele>362.0</ele><time>2026-04-13T15:52:24.676Z</time></trkpt><trkpt lat="40.8685317" lon="14.19924"><ele>362.0</ele><time>2026-04-13T15:52:26.677Z</time></trkpt><trkpt lat="40.8685467" lon="14.1991533"><ele>362.0</ele><time>2026-04-13T15:52:28.679Z</time></trkpt><trkpt lat="40.8685417" lon="14.1990333"><ele>362.0</ele><time>2026-04-13T15:52:31.677Z</time></trkpt><trkpt lat="40.86853" lon="14.1989417"><ele>362.0</ele><time>2026-04-13T15:52:33.676Z</time></trkpt><trkpt lat="40.8685183" lon="14.1988583"><ele>362.0</ele><time>2026-04-13T15:52:35.677Z</time></trkpt><trkpt lat="40.8685017" lon="14.1987717"><ele>362.0</ele><time>2026-04-13T15:52:37.677Z</time></trkpt><trkpt lat="40.868495" lon="14.1986883"><ele>362.1666666666667</ele><time>2026-04-13T15:52:39.678Z</time></trkpt><trkpt lat="40.8684867" lon="14.19857"><ele>362.33333333333337</ele><time>2026-04-13T15:52:42.677Z</time></trkpt><trkpt lat="40.86847" lon="14.198485"><ele>362.5</ele><time>2026-04-13T15:52:44.678Z</time></trkpt><trkpt lat="40.8684583" lon="14.1984017"><ele>362.6666666666667</ele><time>2026-04-13T15:52:46.677Z</time></trkpt><trkpt lat="40.8684417" lon="14.1982817"><ele>362.8333333333333</ele><time>2026-04-13T15:52:49.677Z</time></trkpt><trkpt lat="40.8684233" lon="14.19816"><ele>363.0</ele><time>2026-04-13T15:52:52.677Z</time></trkpt><trkpt lat="40.8684067" lon="14.1980633"><ele>363.85714285714283</ele><time>2026-04-13T15:52:54.677Z</time></trkpt><trkpt lat="40.8683917" lon="14.197975"><ele>364.7142857142857</ele><time>2026-04-13T15:52:56.678Z</time></trkpt><trkpt lat="40.8683833" lon="14.1978867"><ele>365.57142857142856</ele><time>2026-04-13T15:52:58.676Z</time></trkpt><trkpt lat="40.8683717" lon="14.1977933"><ele>366.42857142857144</ele><time>2026-04-13T15:53:00.677Z</time></trkpt><trkpt lat="40.8683567" lon="14.197705"><ele>367.2857142857143</ele><time>2026-04-13T15:53:02.675Z</time></trkpt><trkpt lat="40.8683433" lon="14.1976167"><ele>368.1428571428571</ele><time>2026-04-13T15:53:04.679Z</time></trkpt><trkpt lat="40.8683417" lon="14.1975283"><ele>369.0</ele><time>2026-04-13T15:53:06.677Z</time></trkpt><trkpt lat="40.8683333" lon="14.1974433"><ele>369.1428571428571</ele><time>2026-04-13T15:53:08.677Z</time></trkpt><trkpt lat="40.8683133" lon="14.197325"><ele>369.2857142857143</ele><time>2026-04-13T15:53:11.679Z</time></trkpt><trkpt lat="40.8682867" lon="14.197235"><ele>369.42857142857144</ele><time>2026-04-13T15:53:13.677Z</time></trkpt><trkpt lat="40.868275" lon="14.1971467"><ele>369.57142857142856</ele><time>2026-04-13T15:53:15.675Z</time></trkpt><trkpt lat="40.8682617" lon="14.197065"><ele>369.7142857142857</ele><time>2026-04-13T15:53:17.677Z</time></trkpt><trkpt lat="40.86824" lon="14.1969717"><ele>369.85714285714283</ele><time>2026-04-13T15:53:19.678Z</time></trkpt><trkpt lat="40.8682283" lon="14.1968733"><ele>370.0</ele><time>2026-04-13T15:53:21.675Z</time></trkpt><trkpt lat="40.8682183" lon="14.1967867"><ele>369.99999999999994</ele><time>2026-04-13T15:53:23.677Z</time></trkpt><trkpt lat="40.8682067" lon="14.1966967"><ele>370.0</ele><time>2026-04-13T15:53:25.677Z</time></trkpt><trkpt lat="40.8682" lon="14.1966083"><ele>370.0</ele><time>2026-04-13T15:53:27.675Z</time></trkpt><trkpt lat="40.8681967" lon="14.19651"><ele>370.0</ele><time>2026-04-13T15:53:29.677Z</time></trkpt><trkpt lat="40.8682017" lon="14.1964183"><ele>370.0</ele><time>2026-04-13T15:53:31.679Z</time></trkpt><trkpt lat="40.86821" lon="14.1963217"><ele>369.99999999999994</ele><time>2026-04-13T15:53:33.678Z</time></trkpt><trkpt lat="40.868215" lon="14.19623"><ele>370.0</ele><time>2026-04-13T15:53:35.675Z</time></trkpt><trkpt lat="40.8682233" lon="14.1961383"><ele>370.85714285714283</ele><time>2026-04-13T15:53:37.678Z</time></trkpt><trkpt lat="40.8682267" lon="14.196045"><ele>371.7142857142857</ele><time>2026-04-13T15:53:39.677Z</time></trkpt><trkpt lat="40.86823" lon="14.1959533"><ele>372.57142857142856</ele><time>2026-04-13T15:53:41.676Z</time></trkpt><trkpt lat="40.8682367" lon="14.1958617"><ele>373.42857142857144</ele><time>2026-04-13T15:53:43.677Z</time></trkpt><trkpt lat="40.8682533" lon="14.1957333"><ele>374.2857142857143</ele><time>2026-04-13T15:53:46.676Z</time></trkpt><trkpt lat="40.868265" lon="14.1956483"><ele>375.1428571428571</ele><time>2026-04-13T15:53:48.676Z</time></trkpt><trkpt lat="40.8682717" lon="14.1955633"><ele>376.0</ele><time>2026-04-13T15:53:50.677Z</time></trkpt><trkpt lat="40.8682817" lon="14.19548"><ele>376.6</ele><time>2026-04-13T15:53:52.678Z</time></trkpt><trkpt lat="40.8682967" lon="14.195365"><ele>377.20000000000005</ele><time>2026-04-13T15:53:55.679Z</time></trkpt><trkpt lat="40.8683117" lon="14.1952467"><ele>377.79999999999995</ele><time>2026-04-13T15:53:58.679Z</time></trkpt><trkpt lat="40.8683283" lon="14.195125"><ele>378.4</ele><time>2026-04-13T15:54:01.679Z</time></trkpt><trkpt lat="40.86833" lon="14.1950083"><ele>379.0</ele><time>2026-04-13T15:54:04.679Z</time></trkpt><trkpt lat="40.8683417" lon="14.194885"><ele>379.14285714285717</ele><time>2026-04-13T15:54:07.678Z</time></trkpt><trkpt lat="40.86836" lon="14.1947617"><ele>379.2857142857143</ele><time>2026-04-13T15:54:10.676Z</time></trkpt><trkpt lat="40.868375" lon="14.194675"><ele>379.42857142857144</ele><time>2026-04-13T15:54:12.677Z</time></trkpt><trkpt lat="40.8683883" lon="14.1945867"><ele>379.57142857142856</ele><time>2026-04-13T15:54:14.677Z</time></trkpt><trkpt lat="40.868395" lon="14.1944917"><ele>379.7142857142857</ele><time>2026-04-13T15:54:16.678Z</time></trkpt><trkpt lat="40.8684017" lon="14.1943933"><ele>379.8571428571429</ele><time>2026-04-13T15:54:18.678Z</time></trkpt><trkpt lat="40.8684067" lon="14.1943083"><ele>380.0</ele><time>2026-04-13T15:54:20.678Z</time></trkpt><trkpt lat="40.868415" lon="14.1942217"><ele>380.0</ele><time>2026-04-13T15:54:22.678Z</time></trkpt><trkpt lat="40.8684183" lon="14.19413"><ele>380.0</ele><time>2026-04-13T15:54:24.677Z</time></trkpt><trkpt lat="40.8684217" lon="14.1940417"><ele>380.0</ele><time>2026-04-13T15:54:26.677Z</time></trkpt><trkpt lat="40.8684233" lon="14.1939433"><ele>380.0</ele><time>2026-04-13T15:54:28.679Z</time></trkpt><trkpt lat="40.868425" lon="14.1938533"><ele>380.0</ele><time>2026-04-13T15:54:30.677Z</time></trkpt><trkpt lat="40.868425" lon="14.19373"><ele>380.0</ele><time>2026-04-13T15:54:33.678Z</time></trkpt><trkpt lat="40.868425" lon="14.1936383"><ele>380.0</ele><time>2026-04-13T15:54:35.678Z</time></trkpt><trkpt lat="40.86842" lon="14.1935517"><ele>380.6666666666667</ele><time>2026-04-13T15:54:37.679Z</time></trkpt><trkpt lat="40.8684183" lon="14.1934267"><ele>381.33333333333337</ele><time>2026-04-13T15:54:40.677Z</time></trkpt><trkpt lat="40.8684183" lon="14.1933067"><ele>382.0</ele><time>2026-04-13T15:54:43.677Z</time></trkpt><trkpt lat="40.8684133" lon="14.19319"><ele>382.6666666666667</ele><time>2026-04-13T15:54:46.676Z</time></trkpt><trkpt lat="40.8684183" lon="14.1930817"><ele>383.3333333333333</ele><time>2026-04-13T15:54:49.679Z</time></trkpt><trkpt lat="40.8684133" lon="14.19297"><ele>384.0</ele><time>2026-04-13T15:54:52.678Z</time></trkpt><trkpt lat="40.868415" lon="14.19287"><ele>383.6666666666667</ele><time>2026-04-13T15:54:55.679Z</time></trkpt><trkpt lat="40.8684217" lon="14.1927567"><ele>383.3333333333333</ele><time>2026-04-13T15:54:58.679Z</time></trkpt><trkpt lat="40.8684433" lon="14.1926467"><ele>383.0</ele><time>2026-04-13T15:55:01.679Z</time></trkpt><trkpt lat="40.86847" lon="14.1925383"><ele>382.66666666666663</ele><time>2026-04-13T15:55:04.677Z</time></trkpt><trkpt lat="40.868485" lon="14.1924383"><ele>382.3333333333333</ele><time>2026-04-13T15:55:07.676Z</time></trkpt><trkpt lat="40.8684967" lon="14.1923367"><ele>382.0</ele><time>2026-04-13T15:55:10.677Z</time></trkpt><trkpt lat="40.8685133" lon="14.192225"><ele>382.0</ele><time>2026-04-13T15:55:13.678Z</time></trkpt><trkpt lat="40.8685283" lon="14.192105"><ele>382.0</ele><time>2026-04-13T15:55:16.678Z</time></trkpt><trkpt lat="40.86855" lon="14.191995"><ele>382.0</ele><time>2026-04-13T15:55:19.677Z</time></trkpt><trkpt lat="40.86857" lon="14.191885"><ele>382.0</ele><time>2026-04-13T15:55:22.679Z</time></trkpt><trkpt lat="40.8686033" lon="14.1917767"><ele>382.0</ele><time>2026-04-13T15:55:25.677Z</time></trkpt><trkpt lat="40.8686283" lon="14.1916633"><ele>382.0</ele><time>2026-04-13T15:55:28.679Z</time></trkpt><trkpt lat="40.8686617" lon="14.1915433"><ele>382.7142857142857</ele><time>2026-04-13T15:55:31.677Z</time></trkpt><trkpt lat="40.8687217" lon="14.191455"><ele>383.4285714285714</ele><time>2026-04-13T15:55:34.678Z</time></trkpt><trkpt lat="40.8687517" lon="14.1913783"><ele>384.1428571428571</ele><time>2026-04-13T15:55:36.679Z</time></trkpt><trkpt lat="40.868795" lon="14.19128"><ele>384.8571428571429</ele><time>2026-04-13T15:55:39.676Z</time></trkpt><trkpt lat="40.86883" lon="14.1912033"><ele>385.57142857142856</ele><time>2026-04-13T15:55:41.676Z</time></trkpt><trkpt lat="40.8688617" lon="14.1911267"><ele>386.2857142857143</ele><time>2026-04-13T15:55:43.68Z</time></trkpt><trkpt lat="40.8689067" lon="14.1910483"><ele>387.0</ele><time>2026-04-13T15:55:45.676Z</time></trkpt><trkpt lat="40.86894" lon="14.1909617"><ele>387.0</ele><time>2026-04-13T15:55:47.677Z</time></trkpt><trkpt lat="40.8689833" lon="14.1908683"><ele>387.0</ele><time>2026-04-13T15:55:49.679Z</time></trkpt><trkpt lat="40.869025" lon="14.19077"><ele>387.0</ele><time>2026-04-13T15:55:51.676Z</time></trkpt><trkpt lat="40.86906" lon="14.1906683"><ele>387.0</ele><time>2026-04-13T15:55:53.676Z</time></trkpt><trkpt lat="40.8691017" lon="14.1905767"><ele>387.0</ele><time>2026-04-13T15:55:55.679Z</time></trkpt><trkpt lat="40.86916" lon="14.1905067"><ele>387.0</ele><time>2026-04-13T15:55:57.678Z</time></trkpt><trkpt lat="40.8692033" lon="14.1904233"><ele>387.20000000000005</ele><time>2026-04-13T15:55:59.68Z</time></trkpt><trkpt lat="40.8692517" lon="14.1903233"><ele>387.4</ele><time>2026-04-13T15:56:01.677Z</time></trkpt><trkpt lat="40.869295" lon="14.1902033"><ele>387.6</ele><time>2026-04-13T15:56:03.677Z</time></trkpt><trkpt lat="40.8693383" lon="14.1900717"><ele>387.79999999999995</ele><time>2026-04-13T15:56:05.679Z</time></trkpt><trkpt lat="40.8693933" lon="14.189945"><ele>388.0</ele><time>2026-04-13T15:56:07.678Z</time></trkpt><trkpt lat="40.8694583" lon="14.1898183"><ele>388.0</ele><time>2026-04-13T15:56:09.679Z</time></trkpt><trkpt lat="40.8695383" lon="14.1897033"><ele>388.0</ele><time>2026-04-13T15:56:11.678Z</time></trkpt><trkpt lat="40.8696433" lon="14.1896067"><ele>388.0</ele><time>2026-04-13T15:56:13.679Z</time></trkpt><trkpt lat="40.8697317" lon="14.1895117"><ele>388.0</ele><time>2026-04-13T15:56:15.681Z</time></trkpt><trkpt lat="40.8698183" lon="14.1894317"><ele>388.0</ele><time>2026-04-13T15:56:17.678Z</time></trkpt><trkpt lat="40.8699" lon="14.1893433"><ele>388.0</ele><time>2026-04-13T15:56:19.677Z</time></trkpt><trkpt lat="40.8699833" lon="14.1892633"><ele>388.0</ele><time>2026-04-13T15:56:21.679Z</time></trkpt><trkpt lat="40.87006" lon="14.1891633"><ele>388.0</ele><time>2026-04-13T15:56:23.679Z</time></trkpt><trkpt lat="40.870145" lon="14.18905"><ele>388.0</ele><time>2026-04-13T15:56:25.677Z</time></trkpt><trkpt lat="40.8701867" lon="14.1889867"><ele>387.0</ele><time>2026-04-13T15:56:26.677Z</time></trkpt><trkpt lat="40.870235" lon="14.188925"><ele>386.0</ele><time>2026-04-13T15:56:27.679Z</time></trkpt><trkpt lat="40.8702867" lon="14.1888683"><ele>385.0</ele><time>2026-04-13T15:56:28.678Z</time></trkpt><trkpt lat="40.870345" lon="14.1888167"><ele>384.0</ele><time>2026-04-13T15:56:29.677Z</time></trkpt><trkpt lat="40.8704067" lon="14.1887617"><ele>383.0</ele><time>2026-04-13T15:56:30.677Z</time></trkpt><trkpt lat="40.8704667" lon="14.1887067"><ele>382.0</ele><time>2026-04-13T15:56:31.679Z</time></trkpt><trkpt lat="40.870515" lon="14.1886533"><ele>381.0</ele><time>2026-04-13T15:56:32.679Z</time></trkpt><trkpt lat="40.8706" lon="14.1885667"><ele>381.0</ele><time>2026-04-13T15:56:34.678Z</time></trkpt><trkpt lat="40.87067" lon="14.1884933"><ele>381.0</ele><time>2026-04-13T15:56:36.678Z</time></trkpt><trkpt lat="40.870745" lon="14.188415"><ele>381.0</ele><time>2026-04-13T15:56:38.677Z</time></trkpt><trkpt lat="40.8708233" lon="14.1883333"><ele>381.0</ele><time>2026-04-13T15:56:40.677Z</time></trkpt><trkpt lat="40.87091" lon="14.1882433"><ele>381.0</ele><time>2026-04-13T15:56:42.678Z</time></trkpt><trkpt lat="40.87101" lon="14.1881467"><ele>380.0</ele><time>2026-04-13T15:56:44.678Z</time></trkpt><trkpt lat="40.8710633" lon="14.1880933"><ele>379.0</ele><time>2026-04-13T15:56:45.677Z</time></trkpt><trkpt lat="40.8711183" lon="14.18803"><ele>378.0</ele><time>2026-04-13T15:56:46.676Z</time></trkpt><trkpt lat="40.8711833" lon="14.1879733"><ele>377.0</ele><time>2026-04-13T15:56:47.681Z</time></trkpt><trkpt lat="40.8712567" lon="14.1879217"><ele>376.0</ele><time>2026-04-13T15:56:48.677Z</time></trkpt><trkpt lat="40.871335" lon="14.18787"><ele>375.0</ele><time>2026-04-13T15:56:49.679Z</time></trkpt><trkpt lat="40.8714183" lon="14.1878117"><ele>375.0</ele><time>2026-04-13T15:56:50.677Z</time></trkpt><trkpt lat="40.871505" lon="14.1877517"><ele>375.0</ele><time>2026-04-13T15:56:51.68Z</time></trkpt><trkpt lat="40.8715933" lon="14.1876967"><ele>375.0</ele><time>2026-04-13T15:56:52.677Z</time></trkpt><trkpt lat="40.8716867" lon="14.187645"><ele>375.0</ele><time>2026-04-13T15:56:53.678Z</time></trkpt><trkpt lat="40.8717833" lon="14.1875967"><ele>375.0</ele><time>2026-04-13T15:56:54.677Z</time></trkpt><trkpt lat="40.8718833" lon="14.1875533"><ele>374.5</ele><time>2026-04-13T15:56:55.677Z</time></trkpt><trkpt lat="40.8719883" lon="14.1875117"><ele>374.0</ele><time>2026-04-13T15:56:56.679Z</time></trkpt><trkpt lat="40.872095" lon="14.1874717"><ele>373.5</ele><time>2026-04-13T15:56:57.679Z</time></trkpt><trkpt lat="40.8722067" lon="14.187435"><ele>373.0</ele><time>2026-04-13T15:56:58.677Z</time></trkpt><trkpt lat="40.8723217" lon="14.1874"><ele>373.0</ele><time>2026-04-13T15:56:59.677Z</time></trkpt><trkpt lat="40.8724367" lon="14.1873617"><ele>373.0</ele><time>2026-04-13T15:57:00.677Z</time></trkpt><trkpt lat="40.872555" lon="14.1873217"><ele>373.0</ele><time>2026-04-13T15:57:01.677Z</time></trkpt><trkpt lat="40.872675" lon="14.1872817"><ele>373.0</ele><time>2026-04-13T15:57:02.678Z</time></trkpt><trkpt lat="40.8727967" lon="14.18724"><ele>370.75</ele><time>2026-04-13T15:57:03.675Z</time></trkpt><trkpt lat="40.8729183" lon="14.1872"><ele>368.5</ele><time>2026-04-13T15:57:04.678Z</time></trkpt><trkpt lat="40.8730417" lon="14.1871633"><ele>366.25</ele><time>2026-04-13T15:57:05.679Z</time></trkpt><trkpt lat="40.8731717" lon="14.187125"><ele>364.0</ele><time>2026-04-13T15:57:06.679Z</time></trkpt><trkpt lat="40.8732983" lon="14.187085"><ele>364.0</ele><time>2026-04-13T15:57:07.68Z</time></trkpt><trkpt lat="40.8734233" lon="14.1870533"><ele>364.0</ele><time>2026-04-13T15:57:08.678Z</time></trkpt><trkpt lat="40.8735467" lon="14.187015"><ele>364.0</ele><time>2026-04-13T15:57:09.677Z</time></trkpt><trkpt lat="40.873665" lon="14.1869767"><ele>364.0</ele><time>2026-04-13T15:57:10.676Z</time></trkpt><trkpt lat="40.8737733" lon="14.186945"><ele>362.6</ele><time>2026-04-13T15:57:11.679Z</time></trkpt><trkpt lat="40.8738767" lon="14.1869117"><ele>361.2</ele><time>2026-04-13T15:57:12.679Z</time></trkpt><trkpt lat="40.8739767" lon="14.18688"><ele>359.8</ele><time>2026-04-13T15:57:13.677Z</time></trkpt><trkpt lat="40.8740767" lon="14.1868533"><ele>358.40000000000003</ele><time>2026-04-13T15:57:14.677Z</time></trkpt><trkpt lat="40.87418" lon="14.1868283"><ele>357.0</ele><time>2026-04-13T15:57:15.677Z</time></trkpt><trkpt lat="40.8742867" lon="14.1868033"><ele>355.6</ele><time>2026-04-13T15:57:16.678Z</time></trkpt><trkpt lat="40.8743933" lon="14.1867833"><ele>354.20000000000005</ele><time>2026-04-13T15:57:17.68Z</time></trkpt><trkpt lat="40.8745" lon="14.186765"><ele>352.8</ele><time>2026-04-13T15:57:18.677Z</time></trkpt><trkpt lat="40.874605" lon="14.186745"><ele>351.4</ele><time>2026-04-13T15:57:19.677Z</time></trkpt><trkpt lat="40.8747067" lon="14.18673"><ele>350.0</ele><time>2026-04-13T15:57:20.677Z</time></trkpt><trkpt lat="40.8748083" lon="14.1867117"><ele>350.0</ele><time>2026-04-13T15:57:21.679Z</time></trkpt><trkpt lat="40.8749133" lon="14.1866917"><ele>350.0</ele><time>2026-04-13T15:57:22.678Z</time></trkpt><trkpt lat="40.8750117" lon="14.1866567"><ele>350.0</ele><time>2026-04-13T15:57:23.677Z</time></trkpt><trkpt lat="40.8750983" lon="14.1866233"><ele>350.0</ele><time>2026-04-13T15:57:24.677Z</time></trkpt><trkpt lat="40.8751717" lon="14.1865833"><ele>350.0</ele><time>2026-04-13T15:57:25.677Z</time></trkpt><trkpt lat="40.8752433" lon="14.1865333"><ele>349.83333333333337</ele><time>2026-04-13T15:57:26.677Z</time></trkpt><trkpt lat="40.8753083" lon="14.186475"><ele>349.6666666666667</ele><time>2026-04-13T15:57:27.678Z</time></trkpt><trkpt lat="40.875375" lon="14.1864117"><ele>349.5</ele><time>2026-04-13T15:57:28.677Z</time></trkpt><trkpt lat="40.8754433" lon="14.1863617"><ele>349.3333333333333</ele><time>2026-04-13T15:57:29.679Z</time></trkpt><trkpt lat="40.8755133" lon="14.1863033"><ele>349.16666666666663</ele><time>2026-04-13T15:57:30.677Z</time></trkpt><trkpt lat="40.8755833" lon="14.1862417"><ele>349.0</ele><time>2026-04-13T15:57:31.678Z</time></trkpt><trkpt lat="40.8756517" lon="14.18618"><ele>349.0</ele><time>2026-04-13T15:57:32.676Z</time></trkpt><trkpt lat="40.8757217" lon="14.1861167"><ele>349.0</ele><time>2026-04-13T15:57:33.678Z</time></trkpt><trkpt lat="40.875785" lon="14.1860633"><ele>349.0</ele><time>2026-04-13T15:57:34.68Z</time></trkpt><trkpt lat="40.87587" lon="14.1859817"><ele>349.0</ele><time>2026-04-13T15:57:36.678Z</time></trkpt><trkpt lat="40.8759283" lon="14.1859383"><ele>349.0</ele><time>2026-04-13T15:57:38.678Z</time></trkpt><trkpt lat="40.8759817" lon="14.1858783"><ele>349.0</ele><time>2026-04-13T15:57:40.679Z</time></trkpt><trkpt lat="40.8760483" lon="14.1858383"><ele>349.0</ele><time>2026-04-13T15:57:42.678Z</time></trkpt><trkpt lat="40.8761267" lon="14.1858067"><ele>349.0</ele><time>2026-04-13T15:57:44.679Z</time></trkpt><trkpt lat="40.876215" lon="14.1857717"><ele>349.0</ele><time>2026-04-13T15:57:46.677Z</time></trkpt><trkpt lat="40.8763067" lon="14.185735"><ele>349.0</ele><time>2026-04-13T15:57:48.678Z</time></trkpt><trkpt lat="40.876405" lon="14.1856967"><ele>349.0</ele><time>2026-04-13T15:57:50.679Z</time></trkpt><trkpt lat="40.87651" lon="14.1856683"><ele>349.0</ele><time>2026-04-13T15:57:52.677Z</time></trkpt><trkpt lat="40.8766183" lon="14.18567"><ele>349.0</ele><time>2026-04-13T15:57:54.677Z</time></trkpt><trkpt lat="40.876725" lon="14.1856683"><ele>349.0</ele><time>2026-04-13T15:57:56.679Z</time></trkpt><trkpt lat="40.876835" lon="14.185645"><ele>349.0</ele><time>2026-04-13T15:57:58.676Z</time></trkpt><trkpt lat="40.8769533" lon="14.185585"><ele>348.8333333333333</ele><time>2026-04-13T15:58:00.677Z</time></trkpt><trkpt lat="40.8770117" lon="14.1855467"><ele>348.66666666666663</ele><time>2026-04-13T15:58:01.676Z</time></trkpt><trkpt lat="40.8771233" lon="14.1854717"><ele>348.5</ele><time>2026-04-13T15:58:03.675Z</time></trkpt><trkpt lat="40.8771833" lon="14.1854267"><ele>348.3333333333333</ele><time>2026-04-13T15:58:04.677Z</time></trkpt><trkpt lat="40.8772417" lon="14.1853833"><ele>348.1666666666667</ele><time>2026-04-13T15:58:05.677Z</time></trkpt><trkpt lat="40.877305" lon="14.1853383"><ele>348.0</ele><time>2026-04-13T15:58:06.677Z</time></trkpt><trkpt lat="40.8773683" lon="14.1853083"><ele>348.0</ele><time>2026-04-13T15:58:07.677Z</time></trkpt><trkpt lat="40.877435" lon="14.1852817"><ele>348.0</ele><time>2026-04-13T15:58:08.678Z</time></trkpt><trkpt lat="40.877505" lon="14.1852583"><ele>348.0</ele><time>2026-04-13T15:58:09.678Z</time></trkpt><trkpt lat="40.8775783" lon="14.1852367"><ele>348.0</ele><time>2026-04-13T15:58:10.677Z</time></trkpt><trkpt lat="40.8776533" lon="14.1852233"><ele>348.0</ele><time>2026-04-13T15:58:11.677Z</time></trkpt><trkpt lat="40.87773" lon="14.1852183"><ele>348.0</ele><time>2026-04-13T15:58:12.677Z</time></trkpt><trkpt lat="40.877805" lon="14.185215"><ele>348.0</ele><time>2026-04-13T15:58:13.678Z</time></trkpt><trkpt lat="40.8778833" lon="14.185215"><ele>347.5</ele><time>2026-04-13T15:58:14.677Z</time></trkpt><trkpt lat="40.8779683" lon="14.1852017"><ele>347.0</ele><time>2026-04-13T15:58:15.676Z</time></trkpt><trkpt lat="40.8780517" lon="14.1851933"><ele>346.5</ele><time>2026-04-13T15:58:16.678Z</time></trkpt><trkpt lat="40.8781367" lon="14.185185"><ele>346.0</ele><time>2026-04-13T15:58:17.678Z</time></trkpt><trkpt lat="40.8782217" lon="14.18518"><ele>345.5</ele><time>2026-04-13T15:58:18.678Z</time></trkpt><trkpt lat="40.878305" lon="14.1851767"><ele>345.0</ele><time>2026-04-13T15:58:19.676Z</time></trkpt><trkpt lat="40.8783917" lon="14.1851633"><ele>344.2</ele><time>2026-04-13T15:58:20.677Z</time></trkpt><trkpt lat="40.878475" lon="14.1851567"><ele>343.4</ele><time>2026-04-13T15:58:21.678Z</time></trkpt><trkpt lat="40.878565" lon="14.1851467"><ele>342.6</ele><time>2026-04-13T15:58:22.677Z</time></trkpt><trkpt lat="40.8786583" lon="14.185145"><ele>341.8</ele><time>2026-04-13T15:58:23.678Z</time></trkpt><trkpt lat="40.8787517" lon="14.1851367"><ele>341.0</ele><time>2026-04-13T15:58:24.678Z</time></trkpt><trkpt lat="40.8788417" lon="14.1851367"><ele>341.0</ele><time>2026-04-13T15:58:25.678Z</time></trkpt><trkpt lat="40.87893" lon="14.1851383"><ele>341.0</ele><time>2026-04-13T15:58:26.679Z</time></trkpt><trkpt lat="40.8790233" lon="14.185145"><ele>341.0</ele><time>2026-04-13T15:58:27.677Z</time></trkpt><trkpt lat="40.87911" lon="14.185165"><ele>341.0</ele><time>2026-04-13T15:58:28.68Z</time></trkpt><trkpt lat="40.8791933" lon="14.18518"><ele>341.0</ele><time>2026-04-13T15:58:29.677Z</time></trkpt><trkpt lat="40.879275" lon="14.1851883"><ele>341.0</ele><time>2026-04-13T15:58:30.676Z</time></trkpt><trkpt lat="40.8793617" lon="14.185195"><ele>340.33333333333337</ele><time>2026-04-13T15:58:31.677Z</time></trkpt><trkpt lat="40.8794483" lon="14.1851883"><ele>339.6666666666667</ele><time>2026-04-13T15:58:32.677Z</time></trkpt><trkpt lat="40.8795333" lon="14.1851717"><ele>339.0</ele><time>2026-04-13T15:58:33.679Z</time></trkpt><trkpt lat="40.8796217" lon="14.1851483"><ele>338.3333333333333</ele><time>2026-04-13T15:58:34.678Z</time></trkpt><trkpt lat="40.8797067" lon="14.1851267"><ele>337.66666666666663</ele><time>2026-04-13T15:58:35.681Z</time></trkpt><trkpt lat="40.879795" lon="14.1851017"><ele>337.0</ele><time>2026-04-13T15:58:36.678Z</time></trkpt><trkpt lat="40.879885" lon="14.1850717"><ele>337.0</ele><time>2026-04-13T15:58:37.679Z</time></trkpt><trkpt lat="40.879975" lon="14.1850433"><ele>337.0</ele><time>2026-04-13T15:58:38.678Z</time></trkpt><trkpt lat="40.8800633" lon="14.18503"><ele>337.0</ele><time>2026-04-13T15:58:39.679Z</time></trkpt><trkpt lat="40.8801533" lon="14.185015"><ele>337.0</ele><time>2026-04-13T15:58:40.679Z</time></trkpt><trkpt lat="40.8802417" lon="14.1850017"><ele>337.0</ele><time>2026-04-13T15:58:41.676Z</time></trkpt><trkpt lat="40.8803283" lon="14.1849817"><ele>337.0</ele><time>2026-04-13T15:58:42.679Z</time></trkpt><trkpt lat="40.8804133" lon="14.18496"><ele>336.66666666666663</ele><time>2026-04-13T15:58:43.679Z</time></trkpt><trkpt lat="40.8804933" lon="14.1849317"><ele>336.3333333333333</ele><time>2026-04-13T15:58:44.677Z</time></trkpt><trkpt lat="40.88057" lon="14.18489"><ele>336.0</ele><time>2026-04-13T15:58:45.677Z</time></trkpt><trkpt lat="40.880645" lon="14.184835"><ele>335.6666666666667</ele><time>2026-04-13T15:58:46.678Z</time></trkpt><trkpt lat="40.8807183" lon="14.1847933"><ele>335.33333333333337</ele><time>2026-04-13T15:58:47.677Z</time></trkpt><trkpt lat="40.8807917" lon="14.184775"><ele>335.0</ele><time>2026-04-13T15:58:48.677Z</time></trkpt><trkpt lat="40.8808583" lon="14.1847833"><ele>334.99999999999994</ele><time>2026-04-13T15:58:49.677Z</time></trkpt><trkpt lat="40.8809267" lon="14.184805"><ele>335.0</ele><time>2026-04-13T15:58:50.677Z</time></trkpt><trkpt lat="40.8809917" lon="14.1848433"><ele>335.0</ele><time>2026-04-13T15:58:51.675Z</time></trkpt><trkpt lat="40.8810567" lon="14.1848767"><ele>335.0</ele><time>2026-04-13T15:58:52.678Z</time></trkpt><trkpt lat="40.881125" lon="14.184895"><ele>335.0</ele><time>2026-04-13T15:58:53.679Z</time></trkpt><trkpt lat="40.881195" lon="14.1848983"><ele>334.99999999999994</ele><time>2026-04-13T15:58:54.679Z</time></trkpt><trkpt lat="40.881265" lon="14.184895"><ele>335.0</ele><time>2026-04-13T15:58:55.68Z</time></trkpt><trkpt lat="40.8813383" lon="14.1848783"><ele>334.6666666666667</ele><time>2026-04-13T15:58:56.679Z</time></trkpt><trkpt lat="40.8814117" lon="14.1848567"><ele>334.33333333333337</ele><time>2026-04-13T15:58:57.679Z</time></trkpt><trkpt lat="40.8814867" lon="14.1848367"><ele>334.0</ele><time>2026-04-13T15:58:58.68Z</time></trkpt><trkpt lat="40.88156" lon="14.1848167"><ele>333.6666666666667</ele><time>2026-04-13T15:58:59.677Z</time></trkpt><trkpt lat="40.8816367" lon="14.1847917"><ele>333.3333333333333</ele><time>2026-04-13T15:59:00.677Z</time></trkpt><trkpt lat="40.8817133" lon="14.1847583"><ele>333.0</ele><time>2026-04-13T15:59:01.68Z</time></trkpt><trkpt lat="40.8817917" lon="14.1847267"><ele>331.6666666666667</ele><time>2026-04-13T15:59:02.677Z</time></trkpt><trkpt lat="40.8818717" lon="14.1846883"><ele>330.3333333333333</ele><time>2026-04-13T15:59:03.679Z</time></trkpt><trkpt lat="40.8819467" lon="14.1846433"><ele>329.0</ele><time>2026-04-13T15:59:04.681Z</time></trkpt><trkpt lat="40.8820183" lon="14.18459"><ele>327.66666666666663</ele><time>2026-04-13T15:59:05.679Z</time></trkpt><trkpt lat="40.8820783" lon="14.1845517"><ele>326.3333333333333</ele><time>2026-04-13T15:59:06.678Z</time></trkpt><trkpt lat="40.8821967" lon="14.184525"><ele>325.0</ele><time>2026-04-13T15:59:08.677Z</time></trkpt><trkpt lat="40.8823117" lon="14.1845917"><ele>325.0</ele><time>2026-04-13T15:59:10.679Z</time></trkpt><trkpt lat="40.8823717" lon="14.18464"><ele>325.0</ele><time>2026-04-13T15:59:11.678Z</time></trkpt><trkpt lat="40.8824333" lon="14.184695"><ele>325.0</ele><time>2026-04-13T15:59:12.677Z</time></trkpt><trkpt lat="40.8825033" lon="14.184755"><ele>325.0</ele><time>2026-04-13T15:59:13.679Z</time></trkpt><trkpt lat="40.8825733" lon="14.1848183"><ele>325.0</ele><time>2026-04-13T15:59:14.677Z</time></trkpt><trkpt lat="40.88265" lon="14.184875"><ele>325.0</ele><time>2026-04-13T15:59:15.677Z</time></trkpt><trkpt lat="40.8827233" lon="14.1849283"><ele>324.3333333333333</ele><time>2026-04-13T15:59:16.678Z</time></trkpt><trkpt lat="40.882805" lon="14.1849667"><ele>323.66666666666663</ele><time>2026-04-13T15:59:17.677Z</time></trkpt><trkpt lat="40.8828867" lon="14.1849933"><ele>323.0</ele><time>2026-04-13T15:59:18.68Z</time></trkpt><trkpt lat="40.8829617" lon="14.1850267"><ele>322.3333333333333</ele><time>2026-04-13T15:59:19.679Z</time></trkpt><trkpt lat="40.883025" lon="14.1850733"><ele>321.6666666666667</ele><time>2026-04-13T15:59:20.678Z</time></trkpt><trkpt lat="40.8830783" lon="14.1851333"><ele>321.0</ele><time>2026-04-13T15:59:21.677Z</time></trkpt><trkpt lat="40.8831233" lon="14.1852083"><ele>321.0</ele><time>2026-04-13T15:59:22.679Z</time></trkpt><trkpt lat="40.8831467" lon="14.1853"><ele>321.0</ele><time>2026-04-13T15:59:23.678Z</time></trkpt><trkpt lat="40.8831617" lon="14.1853983"><ele>321.0</ele><time>2026-04-13T15:59:24.678Z</time></trkpt><trkpt lat="40.88317" lon="14.1855017"><ele>321.0</ele><time>2026-04-13T15:59:25.68Z</time></trkpt><trkpt lat="40.8831783" lon="14.1856"><ele>321.0</ele><time>2026-04-13T15:59:26.678Z</time></trkpt><trkpt lat="40.883185" lon="14.1857033"><ele>321.0</ele><time>2026-04-13T15:59:27.678Z</time></trkpt><trkpt lat="40.8831917" lon="14.1858017"><ele>321.0</ele><time>2026-04-13T15:59:28.679Z</time></trkpt><trkpt lat="40.8832033" lon="14.185885"><ele>321.0</ele><time>2026-04-13T15:59:29.679Z</time></trkpt><trkpt lat="40.883265" lon="14.1860117"><ele>321.0</ele><time>2026-04-13T15:59:31.679Z</time></trkpt><trkpt lat="40.8833783" lon="14.1860467"><ele>321.0</ele><time>2026-04-13T15:59:33.678Z</time></trkpt><trkpt lat="40.8834433" lon="14.1860367"><ele>321.0</ele><time>2026-04-13T15:59:34.679Z</time></trkpt><trkpt lat="40.8835083" lon="14.18603"><ele>321.0</ele><time>2026-04-13T15:59:35.679Z</time></trkpt><trkpt lat="40.8835717" lon="14.1860383"><ele>320.0</ele><time>2026-04-13T15:59:36.678Z</time></trkpt><trkpt lat="40.88363" lon="14.1860767"><ele>319.0</ele><time>2026-04-13T15:59:37.679Z</time></trkpt><trkpt lat="40.8836833" lon="14.1861267"><ele>318.0</ele><time>2026-04-13T15:59:38.679Z</time></trkpt><trkpt lat="40.88379" lon="14.186195"><ele>317.0</ele><time>2026-04-13T15:59:40.68Z</time></trkpt><trkpt lat="40.883915" lon="14.186195"><ele>316.0</ele><time>2026-04-13T15:59:42.679Z</time></trkpt><trkpt lat="40.8839867" lon="14.186175"><ele>315.0</ele><time>2026-04-13T15:59:43.68Z</time></trkpt><trkpt lat="40.8840567" lon="14.186155"><ele>315.0</ele><time>2026-04-13T15:59:44.679Z</time></trkpt><trkpt lat="40.884135" lon="14.1861267"><ele>315.0</ele><time>2026-04-13T15:59:45.678Z</time></trkpt><trkpt lat="40.8842217" lon="14.1861033"><ele>315.0</ele><time>2026-04-13T15:59:46.678Z</time></trkpt><trkpt lat="40.884305" lon="14.1860833"><ele>315.0</ele><time>2026-04-13T15:59:47.681Z</time></trkpt><trkpt lat="40.8843883" lon="14.1860667"><ele>315.0</ele><time>2026-04-13T15:59:48.677Z</time></trkpt><trkpt lat="40.884475" lon="14.18605"><ele>315.0</ele><time>2026-04-13T15:59:49.679Z</time></trkpt><trkpt lat="40.88457" lon="14.1860283"><ele>313.2</ele><time>2026-04-13T15:59:50.678Z</time></trkpt><trkpt lat="40.884665" lon="14.1859983"><ele>311.4</ele><time>2026-04-13T15:59:51.679Z</time></trkpt><trkpt lat="40.8847567" lon="14.1859733"><ele>309.6</ele><time>2026-04-13T15:59:52.678Z</time></trkpt><trkpt lat="40.884835" lon="14.1859483"><ele>307.8</ele><time>2026-04-13T15:59:53.681Z</time></trkpt><trkpt lat="40.8849033" lon="14.185935"><ele>306.0</ele><time>2026-04-13T15:59:54.677Z</time></trkpt><trkpt lat="40.885015" lon="14.1859683"><ele>306.0</ele><time>2026-04-13T15:59:56.678Z</time></trkpt><trkpt lat="40.8850633" lon="14.186025"><ele>306.0</ele><time>2026-04-13T15:59:57.678Z</time></trkpt><trkpt lat="40.8851083" lon="14.186085"><ele>306.0</ele><time>2026-04-13T15:59:58.678Z</time></trkpt><trkpt lat="40.88516" lon="14.186135"><ele>306.0</ele><time>2026-04-13T15:59:59.678Z</time></trkpt><trkpt lat="40.8852183" lon="14.18617"><ele>306.0</ele><time>2026-04-13T16:00:00.678Z</time></trkpt><trkpt lat="40.8852817" lon="14.186175"><ele>306.0</ele><time>2026-04-13T16:00:01.676Z</time></trkpt><trkpt lat="40.8853467" lon="14.1861633"><ele>306.0</ele><time>2026-04-13T16:00:02.675Z</time></trkpt><trkpt lat="40.8854083" lon="14.1861217"><ele>304.6666666666667</ele><time>2026-04-13T16:00:03.675Z</time></trkpt><trkpt lat="40.8854717" lon="14.1860667"><ele>303.3333333333333</ele><time>2026-04-13T16:00:04.676Z</time></trkpt><trkpt lat="40.8855367" lon="14.1860117"><ele>302.0</ele><time>2026-04-13T16:00:05.676Z</time></trkpt><trkpt lat="40.8856" lon="14.1859483"><ele>300.66666666666663</ele><time>2026-04-13T16:00:06.676Z</time></trkpt><trkpt lat="40.885665" lon="14.18588"><ele>299.3333333333333</ele><time>2026-04-13T16:00:07.678Z</time></trkpt><trkpt lat="40.88573" lon="14.18583"><ele>298.0</ele><time>2026-04-13T16:00:08.678Z</time></trkpt><trkpt lat="40.8857967" lon="14.1857967"><ele>298.0</ele><time>2026-04-13T16:00:09.677Z</time></trkpt><trkpt lat="40.88587" lon="14.1857883"><ele>298.0</ele><time>2026-04-13T16:00:10.677Z</time></trkpt><trkpt lat="40.8859383" lon="14.1858017"><ele>298.0</ele><time>2026-04-13T16:00:11.678Z</time></trkpt><trkpt lat="40.8860017" lon="14.1858417"><ele>298.0</ele><time>2026-04-13T16:00:12.676Z</time></trkpt><trkpt lat="40.8860583" lon="14.1859067"><ele>298.0</ele><time>2026-04-13T16:00:13.677Z</time></trkpt><trkpt lat="40.8861133" lon="14.1859767"><ele>298.0</ele><time>2026-04-13T16:00:14.676Z</time></trkpt><trkpt lat="40.8861667" lon="14.1860533"><ele>298.0</ele><time>2026-04-13T16:00:15.678Z</time></trkpt><trkpt lat="40.8862167" lon="14.1861367"><ele>296.66666666666663</ele><time>2026-04-13T16:00:16.679Z</time></trkpt><trkpt lat="40.8862567" lon="14.1862367"><ele>295.3333333333333</ele><time>2026-04-13T16:00:17.677Z</time></trkpt><trkpt lat="40.8862817" lon="14.1863583"><ele>294.0</ele><time>2026-04-13T16:00:18.676Z</time></trkpt><trkpt lat="40.88631" lon="14.1864733"><ele>292.6666666666667</ele><time>2026-04-13T16:00:19.677Z</time></trkpt><trkpt lat="40.8863367" lon="14.1865867"><ele>291.33333333333337</ele><time>2026-04-13T16:00:20.678Z</time></trkpt><trkpt lat="40.8863617" lon="14.1866883"><ele>290.0</ele><time>2026-04-13T16:00:21.678Z</time></trkpt><trkpt lat="40.8863867" lon="14.186785"><ele>290.0</ele><time>2026-04-13T16:00:22.679Z</time></trkpt><trkpt lat="40.88642" lon="14.1868633"><ele>290.0</ele><time>2026-04-13T16:00:23.678Z</time></trkpt><trkpt lat="40.8864533" lon="14.1869383"><ele>290.0</ele><time>2026-04-13T16:00:24.676Z</time></trkpt><trkpt lat="40.88648" lon="14.187025"><ele>290.0</ele><time>2026-04-13T16:00:25.677Z</time></trkpt><trkpt lat="40.8865083" lon="14.187115"><ele>290.0</ele><time>2026-04-13T16:00:26.676Z</time></trkpt><trkpt lat="40.88654" lon="14.1871967"><ele>290.0</ele><time>2026-04-13T16:00:27.676Z</time></trkpt><trkpt lat="40.8866133" lon="14.1872917"><ele>290.0</ele><time>2026-04-13T16:00:29.677Z</time></trkpt><trkpt lat="40.8867183" lon="14.1873267"><ele>290.0</ele><time>2026-04-13T16:00:31.676Z</time></trkpt><trkpt lat="40.8868183" lon="14.1873983"><ele>290.0</ele><time>2026-04-13T16:00:33.677Z</time></trkpt><trkpt lat="40.8869133" lon="14.1875083"><ele>290.0</ele><time>2026-04-13T16:00:35.676Z</time></trkpt><trkpt lat="40.886965" lon="14.1875683"><ele>290.0</ele><time>2026-04-13T16:00:36.676Z</time></trkpt><trkpt lat="40.8870183" lon="14.1876283"><ele>288.6666666666667</ele><time>2026-04-13T16:00:37.678Z</time></trkpt><trkpt lat="40.88707" lon="14.1876967"><ele>287.33333333333337</ele><time>2026-04-13T16:00:38.674Z</time></trkpt><trkpt lat="40.8871233" lon="14.1877567"><ele>286.0</ele><time>2026-04-13T16:00:39.675Z</time></trkpt><trkpt lat="40.8871817" lon="14.187795"><ele>284.6666666666667</ele><time>2026-04-13T16:00:40.675Z</time></trkpt><trkpt lat="40.8872983" lon="14.1877933"><ele>283.3333333333333</ele><time>2026-04-13T16:00:42.678Z</time></trkpt><trkpt lat="40.8873917" lon="14.1877033"><ele>282.0</ele><time>2026-04-13T16:00:44.676Z</time></trkpt><trkpt lat="40.8874883" lon="14.187615"><ele>279.1666666666667</ele><time>2026-04-13T16:00:46.677Z</time></trkpt><trkpt lat="40.887595" lon="14.1876183"><ele>276.3333333333333</ele><time>2026-04-13T16:00:48.676Z</time></trkpt><trkpt lat="40.8876483" lon="14.1876783"><ele>273.5</ele><time>2026-04-13T16:00:49.678Z</time></trkpt><trkpt lat="40.8876933" lon="14.1877583"><ele>270.66666666666663</ele><time>2026-04-13T16:00:50.675Z</time></trkpt><trkpt lat="40.8877383" lon="14.1878367"><ele>267.8333333333333</ele><time>2026-04-13T16:00:51.676Z</time></trkpt><trkpt lat="40.887775" lon="14.1879267"><ele>265.0</ele><time>2026-04-13T16:00:52.676Z</time></trkpt><trkpt lat="40.887795" lon="14.188025"><ele>265.0</ele><time>2026-04-13T16:00:53.678Z</time></trkpt><trkpt lat="40.887795" lon="14.1881267"><ele>265.0</ele><time>2026-04-13T16:00:54.677Z</time></trkpt><trkpt lat="40.887795" lon="14.18822"><ele>265.0</ele><time>2026-04-13T16:00:55.677Z</time></trkpt><trkpt lat="40.8877917" lon="14.1883217"><ele>265.0</ele><time>2026-04-13T16:00:56.677Z</time></trkpt><trkpt lat="40.88778" lon="14.1884233"><ele>265.0</ele><time>2026-04-13T16:00:57.676Z</time></trkpt><trkpt lat="40.8877667" lon="14.1885333"><ele>265.0</ele><time>2026-04-13T16:00:58.677Z</time></trkpt><trkpt lat="40.8877533" lon="14.18864"><ele>265.0</ele><time>2026-04-13T16:00:59.677Z</time></trkpt><trkpt lat="40.8877433" lon="14.1887433"><ele>265.0</ele><time>2026-04-13T16:01:00.679Z</time></trkpt><trkpt lat="40.8877467" lon="14.1888417"><ele>265.0</ele><time>2026-04-13T16:01:01.676Z</time></trkpt><trkpt lat="40.887765" lon="14.1889433"><ele>265.0</ele><time>2026-04-13T16:01:02.676Z</time></trkpt><trkpt lat="40.8877933" lon="14.1890433"><ele>265.0</ele><time>2026-04-13T16:01:03.677Z</time></trkpt><trkpt lat="40.8878233" lon="14.1891383"><ele>265.0</ele><time>2026-04-13T16:01:04.677Z</time></trkpt><trkpt lat="40.887855" lon="14.1892317"><ele>265.0</ele><time>2026-04-13T16:01:05.679Z</time></trkpt><trkpt lat="40.8878783" lon="14.1893317"><ele>265.0</ele><time>2026-04-13T16:01:06.679Z</time></trkpt><trkpt lat="40.8878917" lon="14.1894267"><ele>265.0</ele><time>2026-04-13T16:01:07.678Z</time></trkpt><trkpt lat="40.8879067" lon="14.1895083"><ele>265.0</ele><time>2026-04-13T16:01:08.679Z</time></trkpt><trkpt lat="40.8879467" lon="14.1896567"><ele>265.0</ele><time>2026-04-13T16:01:10.677Z</time></trkpt><trkpt lat="40.8880133" lon="14.1898017"><ele>265.4285714285714</ele><time>2026-04-13T16:01:12.678Z</time></trkpt><trkpt lat="40.8880567" lon="14.1898717"><ele>265.85714285714283</ele><time>2026-04-13T16:01:13.676Z</time></trkpt><trkpt lat="40.8881033" lon="14.1899433"><ele>266.2857142857143</ele><time>2026-04-13T16:01:14.677Z</time></trkpt><trkpt lat="40.888155" lon="14.1900117"><ele>266.71428571428567</ele><time>2026-04-13T16:01:15.677Z</time></trkpt><trkpt lat="40.8882117" lon="14.1900817"><ele>267.1428571428571</ele><time>2026-04-13T16:01:16.677Z</time></trkpt><trkpt lat="40.8882617" lon="14.1901533"><ele>267.57142857142856</ele><time>2026-04-13T16:01:17.676Z</time></trkpt><trkpt lat="40.888315" lon="14.190215"><ele>268.0</ele><time>2026-04-13T16:01:18.676Z</time></trkpt><trkpt lat="40.8883667" lon="14.1902667"><ele>265.0</ele><time>2026-04-13T16:01:19.676Z</time></trkpt><trkpt lat="40.8884733" lon="14.1903467"><ele>262.0</ele><time>2026-04-13T16:01:21.674Z</time></trkpt><trkpt lat="40.8885367" lon="14.1903767"><ele>259.0</ele><time>2026-04-13T16:01:22.677Z</time></trkpt><trkpt lat="40.8886017" lon="14.1904017"><ele>256.0</ele><time>2026-04-13T16:01:23.678Z</time></trkpt><trkpt lat="40.88867" lon="14.1904267"><ele>252.99999999999997</ele><time>2026-04-13T16:01:24.677Z</time></trkpt><trkpt lat="40.8887333" lon="14.19045"><ele>250.0</ele><time>2026-04-13T16:01:25.678Z</time></trkpt><trkpt lat="40.88884" lon="14.19052"><ele>249.99999999999997</ele><time>2026-04-13T16:01:27.676Z</time></trkpt><trkpt lat="40.8889" lon="14.190655"><ele>250.0</ele><time>2026-04-13T16:01:29.678Z</time></trkpt><trkpt lat="40.8889" lon="14.1907483"><ele>250.0</ele><time>2026-04-13T16:01:30.678Z</time></trkpt><trkpt lat="40.8888867" lon="14.19083"><ele>250.0</ele><time>2026-04-13T16:01:31.676Z</time></trkpt><trkpt lat="40.8888667" lon="14.190915"><ele>249.99999999999997</ele><time>2026-04-13T16:01:32.677Z</time></trkpt><trkpt lat="40.88884" lon="14.1909933"><ele>250.0</ele><time>2026-04-13T16:01:33.676Z</time></trkpt><trkpt lat="40.8888083" lon="14.1910733"><ele>250.14285714285714</ele><time>2026-04-13T16:01:34.676Z</time></trkpt><trkpt lat="40.8887633" lon="14.1911433"><ele>250.28571428571428</ele><time>2026-04-13T16:01:35.678Z</time></trkpt><trkpt lat="40.8887133" lon="14.1912083"><ele>250.42857142857142</ele><time>2026-04-13T16:01:36.676Z</time></trkpt><trkpt lat="40.8886567" lon="14.1912617"><ele>250.57142857142856</ele><time>2026-04-13T16:01:37.678Z</time></trkpt><trkpt lat="40.8885933" lon="14.1913083"><ele>250.71428571428572</ele><time>2026-04-13T16:01:38.678Z</time></trkpt><trkpt lat="40.8885283" lon="14.1913483"><ele>250.85714285714283</ele><time>2026-04-13T16:01:39.677Z</time></trkpt><trkpt lat="40.8884683" lon="14.191405"><ele>250.99999999999997</ele><time>2026-04-13T16:01:40.676Z</time></trkpt><trkpt lat="40.8884217" lon="14.191475"><ele>249.50000000000003</ele><time>2026-04-13T16:01:41.677Z</time></trkpt><trkpt lat="40.8883917" lon="14.1915633"><ele>248.0</ele><time>2026-04-13T16:01:42.678Z</time></trkpt><trkpt lat="40.8883783" lon="14.1916533"><ele>246.5</ele><time>2026-04-13T16:01:43.677Z</time></trkpt><trkpt lat="40.8883767" lon="14.1917517"><ele>245.0</ele><time>2026-04-13T16:01:44.678Z</time></trkpt><trkpt lat="40.8883817" lon="14.1918433"><ele>243.50000000000003</ele><time>2026-04-13T16:01:45.679Z</time></trkpt><trkpt lat="40.8884117" lon="14.191985"><ele>242.0</ele><time>2026-04-13T16:01:47.678Z</time></trkpt><trkpt lat="40.8884483" lon="14.1920867"><ele>242.00000000000003</ele><time>2026-04-13T16:01:49.678Z</time></trkpt><trkpt lat="40.8885083" lon="14.192175"><ele>242.0</ele><time>2026-04-13T16:01:51.678Z</time></trkpt><trkpt lat="40.8886133" lon="14.1922183"><ele>242.0</ele><time>2026-04-13T16:01:53.679Z</time></trkpt><trkpt lat="40.8886767" lon="14.192215"><ele>242.0</ele><time>2026-04-13T16:01:54.678Z</time></trkpt><trkpt lat="40.8887433" lon="14.192215"><ele>242.00000000000003</ele><time>2026-04-13T16:01:55.678Z</time></trkpt><trkpt lat="40.888815" lon="14.1922217"><ele>242.0</ele><time>2026-04-13T16:01:56.676Z</time></trkpt><trkpt lat="40.88889" lon="14.1922317"><ele>242.00000000000003</ele><time>2026-04-13T16:01:57.675Z</time></trkpt><trkpt lat="40.8889667" lon="14.192255"><ele>242.0</ele><time>2026-04-13T16:01:58.676Z</time></trkpt><trkpt lat="40.8890467" lon="14.1922867"><ele>242.0</ele><time>2026-04-13T16:01:59.676Z</time></trkpt><trkpt lat="40.8891283" lon="14.1923133"><ele>242.0</ele><time>2026-04-13T16:02:00.677Z</time></trkpt><trkpt lat="40.8892067" lon="14.1923267"><ele>242.00000000000003</ele><time>2026-04-13T16:02:01.676Z</time></trkpt><trkpt lat="40.889285" lon="14.1923283"><ele>242.0</ele><time>2026-04-13T16:02:02.677Z</time></trkpt><trkpt lat="40.889365" lon="14.192315"><ele>241.66666666666669</ele><time>2026-04-13T16:02:03.676Z</time></trkpt><trkpt lat="40.88944" lon="14.1922983"><ele>241.33333333333334</ele><time>2026-04-13T16:02:04.678Z</time></trkpt><trkpt lat="40.8895117" lon="14.19229"><ele>241.0</ele><time>2026-04-13T16:02:05.677Z</time></trkpt><trkpt lat="40.889585" lon="14.1922933"><ele>240.66666666666669</ele><time>2026-04-13T16:02:06.678Z</time></trkpt><trkpt lat="40.8896583" lon="14.19232"><ele>240.33333333333334</ele><time>2026-04-13T16:02:07.676Z</time></trkpt><trkpt lat="40.8897317" lon="14.1923783"><ele>240.0</ele><time>2026-04-13T16:02:08.678Z</time></trkpt><trkpt lat="40.8897983" lon="14.192455"><ele>240.0</ele><time>2026-04-13T16:02:09.676Z</time></trkpt><trkpt lat="40.8898633" lon="14.1925267"><ele>240.0</ele><time>2026-04-13T16:02:10.676Z</time></trkpt><trkpt lat="40.88991" lon="14.192605"><ele>240.0</ele><time>2026-04-13T16:02:11.677Z</time></trkpt><trkpt lat="40.889945" lon="14.19269"><ele>240.0</ele><time>2026-04-13T16:02:12.677Z</time></trkpt><trkpt lat="40.8899683" lon="14.19277"><ele>240.0</ele><time>2026-04-13T16:02:13.677Z</time></trkpt><trkpt lat="40.889925" lon="14.19292"><ele>240.0</ele><time>2026-04-13T16:02:15.678Z</time></trkpt><trkpt lat="40.8898633" lon="14.19298"><ele>240.0</ele><time>2026-04-13T16:02:16.678Z</time></trkpt><trkpt lat="40.88981" lon="14.1930433"><ele>240.0</ele><time>2026-04-13T16:02:17.677Z</time></trkpt><trkpt lat="40.8897633" lon="14.19311"><ele>240.0</ele><time>2026-04-13T16:02:18.676Z</time></trkpt><trkpt lat="40.889715" lon="14.1931733"><ele>240.0</ele><time>2026-04-13T16:02:19.675Z</time></trkpt><trkpt lat="40.8897067" lon="14.1932917"><ele>240.0</ele><time>2026-04-13T16:02:21.679Z</time></trkpt><trkpt lat="40.88978" lon="14.1933233"><ele>240.0</ele><time>2026-04-13T16:02:23.677Z</time></trkpt><trkpt lat="40.8898933" lon="14.1932617"><ele>240.0</ele><time>2026-04-13T16:02:25.678Z</time></trkpt><trkpt lat="40.890015" lon="14.1931967"><ele>240.0</ele><time>2026-04-13T16:02:27.675Z</time></trkpt><trkpt lat="40.8900767" lon="14.1931533"><ele>240.0</ele><time>2026-04-13T16:02:28.675Z</time></trkpt><trkpt lat="40.8901283" lon="14.193095"><ele>240.0</ele><time>2026-04-13T16:02:29.676Z</time></trkpt><trkpt lat="40.8901733" lon="14.193025"><ele>240.0</ele><time>2026-04-13T16:02:30.68Z</time></trkpt><trkpt lat="40.8902733" lon="14.1927333"><ele>237.66666666666666</ele><time>2026-04-13T16:02:33.689Z</time></trkpt><trkpt lat="40.8902983" lon="14.1926233"><ele>235.33333333333331</ele><time>2026-04-13T16:02:34.772Z</time></trkpt><trkpt lat="40.8903133" lon="14.1924967"><ele>233.0</ele><time>2026-04-13T16:02:35.676Z</time></trkpt><trkpt lat="40.8903217" lon="14.1923733"><ele>230.66666666666666</ele><time>2026-04-13T16:02:36.692Z</time></trkpt><trkpt lat="40.89033" lon="14.19227"><ele>228.33333333333331</ele><time>2026-04-13T16:02:37.672Z</time></trkpt><trkpt lat="40.8903417" lon="14.1921633"><ele>226.0</ele><time>2026-04-13T16:02:38.678Z</time></trkpt><trkpt lat="40.8903517" lon="14.1920683"><ele>226.0</ele><time>2026-04-13T16:02:39.675Z</time></trkpt><trkpt lat="40.8903317" lon="14.191915"><ele>226.0</ele><time>2026-04-13T16:02:41.676Z</time></trkpt><trkpt lat="40.89024" lon="14.191825"><ele>226.0</ele><time>2026-04-13T16:02:43.678Z</time></trkpt><trkpt lat="40.890125" lon="14.1918133"><ele>226.0</ele><time>2026-04-13T16:02:45.677Z</time></trkpt><trkpt lat="40.8900133" lon="14.19182"><ele>226.0</ele><time>2026-04-13T16:02:47.676Z</time></trkpt><trkpt lat="40.8899283" lon="14.191775"><ele>226.00000000000003</ele><time>2026-04-13T16:02:49.676Z</time></trkpt><trkpt lat="40.889985" lon="14.1916917"><ele>226.00000000000003</ele><time>2026-04-13T16:02:52.676Z</time></trkpt><trkpt lat="40.8900683" lon="14.191665"><ele>226.0</ele><time>2026-04-13T16:02:53.676Z</time></trkpt><trkpt lat="40.890175" lon="14.1916317"><ele>226.0</ele><time>2026-04-13T16:02:54.68Z</time></trkpt><trkpt lat="40.8902617" lon="14.1915867"><ele>226.0</ele><time>2026-04-13T16:02:55.678Z</time></trkpt><trkpt lat="40.8903467" lon="14.1915367"><ele>226.00000000000003</ele><time>2026-04-13T16:02:56.676Z</time></trkpt><trkpt lat="40.8904233" lon="14.1915"><ele>226.00000000000003</ele><time>2026-04-13T16:02:57.675Z</time></trkpt><trkpt lat="40.8904917" lon="14.1914683"><ele>226.0</ele><time>2026-04-13T16:02:58.679Z</time></trkpt><trkpt lat="40.890585" lon="14.191425"><ele>226.0</ele><time>2026-04-13T16:03:00.678Z</time></trkpt><trkpt lat="40.8907017" lon="14.191375"><ele>225.49999999999997</ele><time>2026-04-13T16:06:28.674Z</time></trkpt><trkpt lat="40.89077" lon="14.1913217"><ele>225.0</ele><time>2026-04-13T16:06:32.675Z</time></trkpt><trkpt lat="40.8908367" lon="14.1912833"><ele>224.5</ele><time>2026-04-13T16:06:34.674Z</time></trkpt><trkpt lat="40.8909183" lon="14.1912483"><ele>224.0</ele><time>2026-04-13T16:06:36.675Z</time></trkpt><trkpt lat="40.8910033" lon="14.191215"><ele>223.49999999999997</ele><time>2026-04-13T16:06:38.683Z</time></trkpt><trkpt lat="40.8910817" lon="14.1911633"><ele>223.0</ele><time>2026-04-13T16:06:40.674Z</time></trkpt><trkpt lat="40.8911733" lon="14.1911217"><ele>222.66666666666666</ele><time>2026-04-13T16:06:42.673Z</time></trkpt><trkpt lat="40.89126" lon="14.19108"><ele>222.33333333333331</ele><time>2026-04-13T16:06:44.674Z</time></trkpt><trkpt lat="40.8913383" lon="14.19104"><ele>222.0</ele><time>2026-04-13T16:06:46.676Z</time></trkpt><trkpt lat="40.8914333" lon="14.1911283"><ele>221.66666666666669</ele><time>2026-04-13T16:06:48.676Z</time></trkpt><trkpt lat="40.891455" lon="14.1912167"><ele>221.33333333333334</ele><time>2026-04-13T16:06:49.674Z</time></trkpt><trkpt lat="40.8914833" lon="14.191295"><ele>221.0</ele><time>2026-04-13T16:06:50.675Z</time></trkpt><trkpt lat="40.8915183" lon="14.191365"><ele>221.00000000000003</ele><time>2026-04-13T16:06:51.675Z</time></trkpt><trkpt lat="40.891555" lon="14.1914367"><ele>221.0</ele><time>2026-04-13T16:06:52.674Z</time></trkpt><trkpt lat="40.8915967" lon="14.191505"><ele>221.0</ele><time>2026-04-13T16:06:53.676Z</time></trkpt><trkpt lat="40.8916383" lon="14.1915717"><ele>221.0</ele><time>2026-04-13T16:06:54.677Z</time></trkpt><trkpt lat="40.8917417" lon="14.191675"><ele>221.00000000000003</ele><time>2026-04-13T16:06:56.677Z</time></trkpt><trkpt lat="40.89182" lon="14.1916917"><ele>221.0</ele><time>2026-04-13T16:06:57.677Z</time></trkpt><trkpt lat="40.8919" lon="14.19169"><ele>219.00000000000003</ele><time>2026-04-13T16:06:58.678Z</time></trkpt><trkpt lat="40.8919733" lon="14.1916633"><ele>217.0</ele><time>2026-04-13T16:06:59.677Z</time></trkpt><trkpt lat="40.89204" lon="14.191625"><ele>215.0</ele><time>2026-04-13T16:07:00.674Z</time></trkpt><trkpt lat="40.8920983" lon="14.1915817"><ele>213.0</ele><time>2026-04-13T16:07:01.675Z</time></trkpt><trkpt lat="40.892165" lon="14.19153"><ele>211.0</ele><time>2026-04-13T16:07:02.674Z</time></trkpt><trkpt lat="40.89223" lon="14.1914767"><ele>209.00000000000003</ele><time>2026-04-13T16:07:03.674Z</time></trkpt><trkpt lat="40.8922917" lon="14.19142"><ele>207.0</ele><time>2026-04-13T16:07:04.677Z</time></trkpt><trkpt lat="40.8923517" lon="14.1913617"><ele>207.0</ele><time>2026-04-13T16:07:05.675Z</time></trkpt><trkpt lat="40.8924133" lon="14.1913067"><ele>207.0</ele><time>2026-04-13T16:07:06.675Z</time></trkpt><trkpt lat="40.8924767" lon="14.1912533"><ele>207.0</ele><time>2026-04-13T16:07:07.679Z</time></trkpt><trkpt lat="40.8925417" lon="14.1911967"><ele>207.0</ele><time>2026-04-13T16:07:08.71Z</time></trkpt><trkpt lat="40.892605" lon="14.19114"><ele>207.0</ele><time>2026-04-13T16:07:09.676Z</time></trkpt><trkpt lat="40.8926717" lon="14.1910833"><ele>207.0</ele><time>2026-04-13T16:07:10.676Z</time></trkpt><trkpt lat="40.892745" lon="14.1910233"><ele>204.83333333333334</ele><time>2026-04-13T16:07:11.676Z</time></trkpt><trkpt lat="40.892815" lon="14.1909583"><ele>202.66666666666669</ele><time>2026-04-13T16:07:12.674Z</time></trkpt><trkpt lat="40.8928833" lon="14.1909017"><ele>200.5</ele><time>2026-04-13T16:07:13.676Z</time></trkpt><trkpt lat="40.8929417" lon="14.1908533"><ele>198.33333333333334</ele><time>2026-04-13T16:07:14.673Z</time></trkpt><trkpt lat="40.8930217" lon="14.1907567"><ele>196.16666666666669</ele><time>2026-04-13T16:07:16.674Z</time></trkpt><trkpt lat="40.8930683" lon="14.1906517"><ele>194.0</ele><time>2026-04-13T16:07:18.674Z</time></trkpt><trkpt lat="40.8930817" lon="14.1905217"><ele>194.0</ele><time>2026-04-13T16:07:20.674Z</time></trkpt><trkpt lat="40.8930683" lon="14.1903833"><ele>194.0</ele><time>2026-04-13T16:07:22.675Z</time></trkpt><trkpt lat="40.8930517" lon="14.1902483"><ele>194.0</ele><time>2026-04-13T16:07:24.677Z</time></trkpt><trkpt lat="40.89303" lon="14.1901183"><ele>194.0</ele><time>2026-04-13T16:07:26.674Z</time></trkpt><trkpt lat="40.893025" lon="14.1900167"><ele>194.0</ele><time>2026-04-13T16:07:28.675Z</time></trkpt><trkpt lat="40.8930483" lon="14.1899033"><ele>194.00000000000003</ele><time>2026-04-13T16:07:31.677Z</time></trkpt><trkpt lat="40.8931133" lon="14.1898467"><ele>194.0</ele><time>2026-04-13T16:07:33.676Z</time></trkpt><trkpt lat="40.8932183" lon="14.189805"><ele>194.0</ele><time>2026-04-13T16:07:35.677Z</time></trkpt><trkpt lat="40.8933333" lon="14.1897783"><ele>194.0</ele><time>2026-04-13T16:07:37.675Z</time></trkpt><trkpt lat="40.8934" lon="14.1897583"><ele>194.00000000000003</ele><time>2026-04-13T16:07:38.676Z</time></trkpt><trkpt lat="40.893465" lon="14.1897217"><ele>194.0</ele><time>2026-04-13T16:07:39.675Z</time></trkpt><trkpt lat="40.8935233" lon="14.1896533"><ele>192.66666666666669</ele><time>2026-04-13T16:07:40.676Z</time></trkpt><trkpt lat="40.8935617" lon="14.1895617"><ele>191.33333333333334</ele><time>2026-04-13T16:07:41.676Z</time></trkpt><trkpt lat="40.8935833" lon="14.1894533"><ele>190.0</ele><time>2026-04-13T16:07:42.678Z</time></trkpt><trkpt lat="40.8936017" lon="14.189345"><ele>188.66666666666669</ele><time>2026-04-13T16:07:43.676Z</time></trkpt><trkpt lat="40.8936167" lon="14.1892367"><ele>187.33333333333334</ele><time>2026-04-13T16:07:44.676Z</time></trkpt><trkpt lat="40.8936367" lon="14.189125"><ele>186.0</ele><time>2026-04-13T16:07:45.676Z</time></trkpt><trkpt lat="40.893655" lon="14.1890167"><ele>186.00000000000003</ele><time>2026-04-13T16:07:46.676Z</time></trkpt><trkpt lat="40.8936683" lon="14.1889217"><ele>186.0</ele><time>2026-04-13T16:07:47.677Z</time></trkpt><trkpt lat="40.893675" lon="14.18883"><ele>186.0</ele><time>2026-04-13T16:07:48.675Z</time></trkpt><trkpt lat="40.8936717" lon="14.188735"><ele>186.0</ele><time>2026-04-13T16:07:49.676Z</time></trkpt><trkpt lat="40.8936667" lon="14.1886383"><ele>186.0</ele><time>2026-04-13T16:07:50.675Z</time></trkpt><trkpt lat="40.8936483" lon="14.18854"><ele>186.00000000000003</ele><time>2026-04-13T16:07:51.677Z</time></trkpt><trkpt lat="40.893625" lon="14.188445"><ele>186.0</ele><time>2026-04-13T16:07:52.676Z</time></trkpt><trkpt lat="40.8936117" lon="14.1883617"><ele>186.0</ele><time>2026-04-13T16:07:53.676Z</time></trkpt><trkpt lat="40.893595" lon="14.1882517"><ele>186.0</ele><time>2026-04-13T16:07:55.676Z</time></trkpt><trkpt lat="40.8935817" lon="14.188345"><ele>186.0</ele><time>2026-04-13T16:08:04.676Z</time></trkpt><trkpt lat="40.8935883" lon="14.18843"><ele>186.0</ele><time>2026-04-13T16:08:07.677Z</time></trkpt><trkpt lat="40.8936033" lon="14.188545"><ele>186.0</ele><time>2026-04-13T16:08:10.675Z</time></trkpt><trkpt lat="40.8936117" lon="14.188655"><ele>186.0</ele><time>2026-04-13T16:08:12.677Z</time></trkpt><trkpt lat="40.8936083" lon="14.1887567"><ele>186.00000000000003</ele><time>2026-04-13T16:08:14.677Z</time></trkpt><trkpt lat="40.8936" lon="14.18886"><ele>186.0</ele><time>2026-04-13T16:08:16.676Z</time></trkpt><trkpt lat="40.8935867" lon="14.188955"><ele>186.0</ele><time>2026-04-13T16:08:18.677Z</time></trkpt><trkpt lat="40.8935733" lon="14.1890483"><ele>186.0</ele><time>2026-04-13T16:08:20.676Z</time></trkpt><trkpt lat="40.893555" lon="14.189135"><ele>186.0</ele><time>2026-04-13T16:08:22.677Z</time></trkpt><trkpt lat="40.89353" lon="14.1892167"><ele>186.00000000000003</ele><time>2026-04-13T16:08:24.676Z</time></trkpt><trkpt lat="40.8935167" lon="14.1893067"><ele>186.0</ele><time>2026-04-13T16:08:26.676Z</time></trkpt><trkpt lat="40.8935183" lon="14.189395"><ele>186.0</ele><time>2026-04-13T16:08:28.677Z</time></trkpt><trkpt lat="40.893505" lon="14.18952"><ele>186.0</ele><time>2026-04-13T16:08:31.677Z</time></trkpt><trkpt lat="40.8934833" lon="14.1896"><ele>186.0</ele><time>2026-04-13T16:08:33.676Z</time></trkpt><trkpt lat="40.8934383" lon="14.18966"><ele>186.0</ele><time>2026-04-13T16:08:35.676Z</time></trkpt><trkpt lat="40.8933667" lon="14.1897183"><ele>186.0</ele><time>2026-04-13T16:08:38.676Z</time></trkpt><trkpt lat="40.8932917" lon="14.189755"><ele>186.0</ele><time>2026-04-13T16:08:41.676Z</time></trkpt><trkpt lat="40.8932117" lon="14.1897683"><ele>186.71428571428572</ele><time>2026-04-13T16:08:44.681Z</time></trkpt><trkpt lat="40.8931483" lon="14.18977"><ele>187.42857142857144</ele><time>2026-04-13T16:08:47.676Z</time></trkpt><trkpt lat="40.89308" lon="14.18978"><ele>188.14285714285717</ele><time>2026-04-13T16:08:50.677Z</time></trkpt><trkpt lat="40.8930017" lon="14.1898267"><ele>188.85714285714286</ele><time>2026-04-13T16:08:54.677Z</time></trkpt><trkpt lat="40.89296" lon="14.1899283"><ele>189.57142857142856</ele><time>2026-04-13T16:08:57.678Z</time></trkpt><trkpt lat="40.8929483" lon="14.1900183"><ele>190.2857142857143</ele><time>2026-04-13T16:09:00.677Z</time></trkpt><trkpt lat="40.89297" lon="14.19011"><ele>191.0</ele><time>2026-04-13T16:09:03.677Z</time></trkpt><trkpt lat="40.8930033" lon="14.1902083"><ele>191.33333333333331</ele><time>2026-04-13T16:09:06.677Z</time></trkpt><trkpt lat="40.8930167" lon="14.1903133"><ele>191.66666666666666</ele><time>2026-04-13T16:09:09.677Z</time></trkpt><trkpt lat="40.8930283" lon="14.1904133"><ele>192.0</ele><time>2026-04-13T16:09:12.678Z</time></trkpt><trkpt lat="40.8930383" lon="14.1905117"><ele>192.33333333333331</ele><time>2026-04-13T16:09:15.679Z</time></trkpt><trkpt lat="40.8930317" lon="14.1906117"><ele>192.66666666666666</ele><time>2026-04-13T16:09:18.677Z</time></trkpt><trkpt lat="40.8929983" lon="14.190705"><ele>193.0</ele><time>2026-04-13T16:09:22.676Z</time></trkpt><trkpt lat="40.89295" lon="14.190765"><ele>193.00000000000003</ele><time>2026-04-13T16:09:26.676Z</time></trkpt><trkpt lat="40.8928917" lon="14.1908167"><ele>193.0</ele><time>2026-04-13T16:09:29.677Z</time></trkpt><trkpt lat="40.8928283" lon="14.1908767"><ele>193.0</ele><time>2026-04-13T16:09:32.677Z</time></trkpt><trkpt lat="40.8927683" lon="14.1909317"><ele>193.0</ele><time>2026-04-13T16:09:35.677Z</time></trkpt><trkpt lat="40.892705" lon="14.1909817"><ele>193.0</ele><time>2026-04-13T16:09:38.676Z</time></trkpt><trkpt lat="40.8926483" lon="14.1910217"><ele>193.00000000000003</ele><time>2026-04-13T16:09:41.677Z</time></trkpt><trkpt lat="40.89259" lon="14.1910667"><ele>193.0</ele><time>2026-04-13T16:09:44.678Z</time></trkpt><trkpt lat="40.89253" lon="14.191115"><ele>195.33333333333331</ele><time>2026-04-13T16:09:47.677Z</time></trkpt><trkpt lat="40.892465" lon="14.1911633"><ele>197.66666666666666</ele><time>2026-04-13T16:09:50.676Z</time></trkpt><trkpt lat="40.8924083" lon="14.191235"><ele>200.0</ele><time>2026-04-13T16:09:53.677Z</time></trkpt><trkpt lat="40.8923483" lon="14.1913033"><ele>202.33333333333331</ele><time>2026-04-13T16:09:56.677Z</time></trkpt><trkpt lat="40.8922917" lon="14.191355"><ele>204.66666666666666</ele><time>2026-04-13T16:09:59.677Z</time></trkpt><trkpt lat="40.89223" lon="14.191405"><ele>207.0</ele><time>2026-04-13T16:10:02.677Z</time></trkpt><trkpt lat="40.8921633" lon="14.1914567"><ele>205.42857142857144</ele><time>2026-04-13T16:10:05.677Z</time></trkpt><trkpt lat="40.8921" lon="14.19151"><ele>203.85714285714286</ele><time>2026-04-13T16:10:08.677Z</time></trkpt><trkpt lat="40.8920317" lon="14.1915517"><ele>202.28571428571428</ele><time>2026-04-13T16:10:11.676Z</time></trkpt><trkpt lat="40.8919683" lon="14.191585"><ele>200.71428571428572</ele><time>2026-04-13T16:10:14.675Z</time></trkpt><trkpt lat="40.8918983" lon="14.19161"><ele>199.14285714285714</ele><time>2026-04-13T16:10:17.676Z</time></trkpt><trkpt lat="40.8918333" lon="14.1916117"><ele>197.57142857142858</ele><time>2026-04-13T16:10:20.677Z</time></trkpt><trkpt lat="40.8917717" lon="14.1915817"><ele>196.0</ele><time>2026-04-13T16:10:23.677Z</time></trkpt><trkpt lat="40.891715" lon="14.1915417"><ele>199.57142857142858</ele><time>2026-04-13T16:10:26.677Z</time></trkpt><trkpt lat="40.8916717" lon="14.19148"><ele>203.14285714285714</ele><time>2026-04-13T16:10:29.677Z</time></trkpt><trkpt lat="40.891635" lon="14.1914"><ele>206.71428571428572</ele><time>2026-04-13T16:10:32.675Z</time></trkpt><trkpt lat="40.8915917" lon="14.191325"><ele>210.28571428571428</ele><time>2026-04-13T16:10:35.676Z</time></trkpt><trkpt lat="40.8915517" lon="14.191255"><ele>213.85714285714286</ele><time>2026-04-13T16:10:38.677Z</time></trkpt><trkpt lat="40.89152" lon="14.1911817"><ele>217.42857142857144</ele><time>2026-04-13T16:10:41.678Z</time></trkpt><trkpt lat="40.891485" lon="14.1911067"><ele>221.0</ele><time>2026-04-13T16:10:44.677Z</time></trkpt><trkpt lat="40.8914433" lon="14.1910417"><ele>221.00000000000003</ele><time>2026-04-13T16:10:47.677Z</time></trkpt><trkpt lat="40.891375" lon="14.19103"><ele>221.0</ele><time>2026-04-13T16:10:50.677Z</time></trkpt><trkpt lat="40.8913017" lon="14.19105"><ele>221.0</ele><time>2026-04-13T16:10:53.676Z</time></trkpt><trkpt lat="40.891235" lon="14.1910683"><ele>221.0</ele><time>2026-04-13T16:10:56.678Z</time></trkpt><trkpt lat="40.8911533" lon="14.1910983"><ele>221.0</ele><time>2026-04-13T16:11:00.676Z</time></trkpt><trkpt lat="40.8910833" lon="14.1911117"><ele>221.00000000000003</ele><time>2026-04-13T16:11:03.676Z</time></trkpt><trkpt lat="40.8910233" lon="14.19114"><ele>221.0</ele><time>2026-04-13T16:11:06.676Z</time></trkpt><trkpt lat="40.8909517" lon="14.19117"><ele>221.2857142857143</ele><time>2026-04-13T16:11:10.677Z</time></trkpt><trkpt lat="40.89089" lon="14.1911933"><ele>221.57142857142858</ele><time>2026-04-13T16:11:13.677Z</time></trkpt><trkpt lat="40.8908233" lon="14.1912217"><ele>221.85714285714286</ele><time>2026-04-13T16:11:16.676Z</time></trkpt><trkpt lat="40.8907467" lon="14.191245"><ele>222.14285714285717</ele><time>2026-04-13T16:11:20.675Z</time></trkpt><trkpt lat="40.8906683" lon="14.191265"><ele>222.42857142857142</ele><time>2026-04-13T16:11:24.677Z</time></trkpt><trkpt lat="40.890605" lon="14.1912917"><ele>222.71428571428572</ele><time>2026-04-13T16:11:27.678Z</time></trkpt><trkpt lat="40.890545" lon="14.19132"><ele>223.0</ele><time>2026-04-13T16:11:30.677Z</time></trkpt><trkpt lat="40.8904817" lon="14.19135"><ele>223.0</ele><time>2026-04-13T16:11:33.676Z</time></trkpt><trkpt lat="40.8904033" lon="14.1913883"><ele>223.0</ele><time>2026-04-13T16:11:37.673Z</time></trkpt><trkpt lat="40.89034" lon="14.19143"><ele>223.0</ele><time>2026-04-13T16:11:40.674Z</time></trkpt><trkpt lat="40.89027" lon="14.1914467"><ele>223.0</ele><time>2026-04-13T16:11:43.675Z</time></trkpt><trkpt lat="40.8902017" lon="14.1914833"><ele>223.0</ele><time>2026-04-13T16:11:46.674Z</time></trkpt><trkpt lat="40.8901367" lon="14.1915067"><ele>223.0</ele><time>2026-04-13T16:11:49.676Z</time></trkpt><trkpt lat="40.8900717" lon="14.1915433"><ele>223.0</ele><time>2026-04-13T16:11:52.674Z</time></trkpt><trkpt lat="40.890005" lon="14.1915867"><ele>223.42857142857142</ele><time>2026-04-13T16:11:55.686Z</time></trkpt><trkpt lat="40.8899717" lon="14.1916583"><ele>223.85714285714283</ele><time>2026-04-13T16:11:58.677Z</time></trkpt><trkpt lat="40.8899783" lon="14.19175"><ele>224.28571428571428</ele><time>2026-04-13T16:12:02.675Z</time></trkpt><trkpt lat="40.8900183" lon="14.191845"><ele>224.71428571428572</ele><time>2026-04-13T16:12:07.675Z</time></trkpt><trkpt lat="40.8900867" lon="14.1918417"><ele>225.14285714285714</ele><time>2026-04-13T16:12:11.684Z</time></trkpt><trkpt lat="40.8901467" lon="14.191815"><ele>225.57142857142858</ele><time>2026-04-13T16:12:14.675Z</time></trkpt><trkpt lat="40.8902217" lon="14.1918483"><ele>226.0</ele><time>2026-04-13T16:12:17.675Z</time></trkpt><trkpt lat="40.890285" lon="14.1919133"><ele>226.0</ele><time>2026-04-13T16:12:20.675Z</time></trkpt><trkpt lat="40.890285" lon="14.1920067"><ele>226.0</ele><time>2026-04-13T16:12:23.674Z</time></trkpt><trkpt lat="40.8902867" lon="14.1920983"><ele>226.0</ele><time>2026-04-13T16:12:26.674Z</time></trkpt><trkpt lat="40.89028" lon="14.1921917"><ele>226.0</ele><time>2026-04-13T16:12:29.675Z</time></trkpt><trkpt lat="40.89028" lon="14.1923017"><ele>226.0</ele><time>2026-04-13T16:12:32.674Z</time></trkpt><trkpt lat="40.8902717" lon="14.1923883"><ele>226.0</ele><time>2026-04-13T16:12:34.676Z</time></trkpt><trkpt lat="40.89026" lon="14.1924933"><ele>226.0</ele><time>2026-04-13T16:12:37.677Z</time></trkpt><trkpt lat="40.8902617" lon="14.1925883"><ele>225.85714285714286</ele><time>2026-04-13T16:12:40.676Z</time></trkpt><trkpt lat="40.8902483" lon="14.1926733"><ele>225.71428571428572</ele><time>2026-04-13T16:12:43.676Z</time></trkpt><trkpt lat="40.89022" lon="14.1927717"><ele>225.57142857142858</ele><time>2026-04-13T16:12:46.675Z</time></trkpt><trkpt lat="40.8901867" lon="14.192855"><ele>225.42857142857144</ele><time>2026-04-13T16:12:49.676Z</time></trkpt><trkpt lat="40.890155" lon="14.1929433"><ele>225.28571428571428</ele><time>2026-04-13T16:12:52.677Z</time></trkpt><trkpt lat="40.8901217" lon="14.1930267"><ele>225.14285714285717</ele><time>2026-04-13T16:12:55.676Z</time></trkpt><trkpt lat="40.8900567" lon="14.1930783"><ele>225.00000000000003</ele><time>2026-04-13T16:12:58.677Z</time></trkpt><trkpt lat="40.8899867" lon="14.1931183"><ele>227.5</ele><time>2026-04-13T16:13:01.675Z</time></trkpt><trkpt lat="40.889915" lon="14.1931467"><ele>230.0</ele><time>2026-04-13T16:13:04.676Z</time></trkpt><trkpt lat="40.88984" lon="14.1931667"><ele>232.5</ele><time>2026-04-13T16:13:07.676Z</time></trkpt><trkpt lat="40.8897733" lon="14.19317"><ele>235.0</ele><time>2026-04-13T16:13:10.676Z</time></trkpt><trkpt lat="40.88977" lon="14.193065"><ele>237.5</ele><time>2026-04-13T16:13:14.679Z</time></trkpt><trkpt lat="40.88983" lon="14.1929933"><ele>240.0</ele><time>2026-04-13T16:13:17.675Z</time></trkpt><trkpt lat="40.8898883" lon="14.19292"><ele>240.0</ele><time>2026-04-13T16:13:20.676Z</time></trkpt><trkpt lat="40.8899367" lon="14.1928567"><ele>240.0</ele><time>2026-04-13T16:13:23.678Z</time></trkpt><trkpt lat="40.8899783" lon="14.19278"><ele>240.0</ele><time>2026-04-13T16:13:26.678Z</time></trkpt><trkpt lat="40.8900067" lon="14.1926767"><ele>240.0</ele><time>2026-04-13T16:13:29.676Z</time></trkpt><trkpt lat="40.8899883" lon="14.1925817"><ele>240.0</ele><time>2026-04-13T16:13:32.678Z</time></trkpt><trkpt lat="40.8899417" lon="14.1924983"><ele>240.0</ele><time>2026-04-13T16:13:35.675Z</time></trkpt><trkpt lat="40.8898917" lon="14.1924217"><ele>240.0</ele><time>2026-04-13T16:13:38.675Z</time></trkpt><trkpt lat="40.8898417" lon="14.1923483"><ele>240.0</ele><time>2026-04-13T16:13:41.676Z</time></trkpt><trkpt lat="40.8897933" lon="14.1922833"><ele>240.0</ele><time>2026-04-13T16:13:44.678Z</time></trkpt><trkpt lat="40.889725" lon="14.1922167"><ele>240.0</ele><time>2026-04-13T16:13:48.678Z</time></trkpt><trkpt lat="40.8896633" lon="14.192175"><ele>240.0</ele><time>2026-04-13T16:13:51.678Z</time></trkpt><trkpt lat="40.8895967" lon="14.1921683"><ele>240.0</ele><time>2026-04-13T16:13:54.677Z</time></trkpt><trkpt lat="40.8895183" lon="14.1921783"><ele>240.0</ele><time>2026-04-13T16:13:57.676Z</time></trkpt><trkpt lat="40.8894367" lon="14.1922017"><ele>240.33333333333334</ele><time>2026-04-13T16:14:00.675Z</time></trkpt><trkpt lat="40.889355" lon="14.1922267"><ele>240.66666666666669</ele><time>2026-04-13T16:14:03.676Z</time></trkpt><trkpt lat="40.889275" lon="14.1922333"><ele>241.0</ele><time>2026-04-13T16:14:06.675Z</time></trkpt><trkpt lat="40.8891983" lon="14.1922183"><ele>241.33333333333334</ele><time>2026-04-13T16:14:09.674Z</time></trkpt><trkpt lat="40.8891267" lon="14.192195"><ele>241.66666666666669</ele><time>2026-04-13T16:14:12.675Z</time></trkpt><trkpt lat="40.88905" lon="14.192175"><ele>242.0</ele><time>2026-04-13T16:14:15.677Z</time></trkpt><trkpt lat="40.8889683" lon="14.1921617"><ele>242.00000000000003</ele><time>2026-04-13T16:14:18.676Z</time></trkpt><trkpt lat="40.8888917" lon="14.1921417"><ele>242.0</ele><time>2026-04-13T16:14:21.676Z</time></trkpt><trkpt lat="40.8888133" lon="14.1921233"><ele>242.0</ele><time>2026-04-13T16:14:24.676Z</time></trkpt><trkpt lat="40.888735" lon="14.1921117"><ele>242.0</ele><time>2026-04-13T16:14:27.675Z</time></trkpt><trkpt lat="40.888655" lon="14.1921067"><ele>242.00000000000003</ele><time>2026-04-13T16:14:30.675Z</time></trkpt><trkpt lat="40.88858" lon="14.1920833"><ele>242.0</ele><time>2026-04-13T16:14:33.679Z</time></trkpt><trkpt lat="40.8884983" lon="14.1920367"><ele>242.00000000000003</ele><time>2026-04-13T16:14:36.676Z</time></trkpt><trkpt lat="40.8884583" lon="14.1919383"><ele>242.0</ele><time>2026-04-13T16:14:39.674Z</time></trkpt><trkpt lat="40.8884217" lon="14.19184"><ele>242.0</ele><time>2026-04-13T16:14:42.677Z</time></trkpt><trkpt lat="40.8883983" lon="14.191745"><ele>242.0</ele><time>2026-04-13T16:14:45.676Z</time></trkpt><trkpt lat="40.8883917" lon="14.1916467"><ele>242.00000000000003</ele><time>2026-04-13T16:14:48.676Z</time></trkpt><trkpt lat="40.8883933" lon="14.1915533"><ele>242.0</ele><time>2026-04-13T16:14:51.676Z</time></trkpt><trkpt lat="40.8884033" lon="14.1914633"><ele>243.28571428571428</ele><time>2026-04-13T16:14:54.678Z</time></trkpt><trkpt lat="40.8884433" lon="14.191395"><ele>244.57142857142856</ele><time>2026-04-13T16:14:57.677Z</time></trkpt><trkpt lat="40.8885017" lon="14.19134"><ele>245.85714285714283</ele><time>2026-04-13T16:15:01.677Z</time></trkpt><trkpt lat="40.8885583" lon="14.1913017"><ele>247.1428571428571</ele><time>2026-04-13T16:15:04.676Z</time></trkpt><trkpt lat="40.88862" lon="14.1912567"><ele>248.42857142857142</ele><time>2026-04-13T16:15:07.677Z</time></trkpt><trkpt lat="40.88869" lon="14.19121"><ele>249.71428571428567</ele><time>2026-04-13T16:15:10.679Z</time></trkpt><trkpt lat="40.8887517" lon="14.1911417"><ele>250.99999999999997</ele><time>2026-04-13T16:15:13.677Z</time></trkpt><trkpt lat="40.8888067" lon="14.19105"><ele>250.99999999999997</ele><time>2026-04-13T16:15:16.676Z</time></trkpt><trkpt lat="40.8888483" lon="14.1909783"><ele>251.0</ele><time>2026-04-13T16:15:18.676Z</time></trkpt><trkpt lat="40.8888817" lon="14.1908967"><ele>250.99999999999997</ele><time>2026-04-13T16:15:20.677Z</time></trkpt><trkpt lat="40.8889083" lon="14.1908117"><ele>250.99999999999997</ele><time>2026-04-13T16:15:22.676Z</time></trkpt><trkpt lat="40.8889267" lon="14.1907317"><ele>251.0</ele><time>2026-04-13T16:15:24.676Z</time></trkpt><trkpt lat="40.888925" lon="14.1906317"><ele>250.99999999999997</ele><time>2026-04-13T16:15:27.674Z</time></trkpt><trkpt lat="40.888905" lon="14.19054"><ele>250.99999999999997</ele><time>2026-04-13T16:15:30.676Z</time></trkpt><trkpt lat="40.8888617" lon="14.1904733"><ele>250.83333333333334</ele><time>2026-04-13T16:15:33.676Z</time></trkpt><trkpt lat="40.8887933" lon="14.1904267"><ele>250.66666666666669</ele><time>2026-04-13T16:15:36.675Z</time></trkpt><trkpt lat="40.8887217" lon="14.1903867"><ele>250.5</ele><time>2026-04-13T16:15:39.677Z</time></trkpt><trkpt lat="40.8886367" lon="14.1903583"><ele>250.33333333333331</ele><time>2026-04-13T16:15:42.679Z</time></trkpt><trkpt lat="40.888565" lon="14.1903367"><ele>250.16666666666666</ele><time>2026-04-13T16:15:45.679Z</time></trkpt><trkpt lat="40.8884867" lon="14.1902967"><ele>250.0</ele><time>2026-04-13T16:15:48.676Z</time></trkpt><trkpt lat="40.8884017" lon="14.19025"><ele>252.14285714285714</ele><time>2026-04-13T16:15:51.676Z</time></trkpt><trkpt lat="40.8883517" lon="14.1901983"><ele>254.28571428571428</ele><time>2026-04-13T16:15:53.676Z</time></trkpt><trkpt lat="40.8883" lon="14.1901333"><ele>256.42857142857144</ele><time>2026-04-13T16:15:55.676Z</time></trkpt><trkpt lat="40.8882517" lon="14.1900667"><ele>258.57142857142856</ele><time>2026-04-13T16:15:57.676Z</time></trkpt><trkpt lat="40.8881867" lon="14.1899783"><ele>260.7142857142857</ele><time>2026-04-13T16:16:00.676Z</time></trkpt><trkpt lat="40.8881433" lon="14.1899083"><ele>262.85714285714283</ele><time>2026-04-13T16:16:02.674Z</time></trkpt><trkpt lat="40.8881017" lon="14.18984"><ele>265.0</ele><time>2026-04-13T16:16:04.676Z</time></trkpt><trkpt lat="40.88805" lon="14.1897433"><ele>264.99999999999994</ele><time>2026-04-13T16:16:07.675Z</time></trkpt><trkpt lat="40.8880117" lon="14.1896717"><ele>265.0</ele><time>2026-04-13T16:16:09.676Z</time></trkpt><trkpt lat="40.887975" lon="14.1895983"><ele>265.0</ele><time>2026-04-13T16:16:11.676Z</time></trkpt><trkpt lat="40.887945" lon="14.189485"><ele>265.0</ele><time>2026-04-13T16:16:14.677Z</time></trkpt><trkpt lat="40.8879317" lon="14.1893633"><ele>265.0</ele><time>2026-04-13T16:16:17.676Z</time></trkpt><trkpt lat="40.8879133" lon="14.1892783"><ele>264.99999999999994</ele><time>2026-04-13T16:16:19.677Z</time></trkpt><trkpt lat="40.8878967" lon="14.1891967"><ele>265.0</ele><time>2026-04-13T16:16:21.676Z</time></trkpt><trkpt lat="40.8878633" lon="14.1890867"><ele>265.0</ele><time>2026-04-13T16:16:24.676Z</time></trkpt><trkpt lat="40.8878333" lon="14.189"><ele>265.0</ele><time>2026-04-13T16:16:26.677Z</time></trkpt><trkpt lat="40.8877983" lon="14.18892"><ele>265.0</ele><time>2026-04-13T16:16:28.676Z</time></trkpt><trkpt lat="40.8877717" lon="14.1888417"><ele>265.0</ele><time>2026-04-13T16:16:30.677Z</time></trkpt><trkpt lat="40.8877533" lon="14.1887217"><ele>265.0</ele><time>2026-04-13T16:16:33.676Z</time></trkpt><trkpt lat="40.88776" lon="14.188605"><ele>265.0</ele><time>2026-04-13T16:16:36.676Z</time></trkpt><trkpt lat="40.8877783" lon="14.188505"><ele>265.0</ele><time>2026-04-13T16:16:39.675Z</time></trkpt><trkpt lat="40.8877967" lon="14.1883967"><ele>265.0</ele><time>2026-04-13T16:16:42.676Z</time></trkpt><trkpt lat="40.887815" lon="14.1882817"><ele>265.0</ele><time>2026-04-13T16:16:45.675Z</time></trkpt><trkpt lat="40.887835" lon="14.1881683"><ele>265.0</ele><time>2026-04-13T16:16:48.676Z</time></trkpt><trkpt lat="40.8878417" lon="14.1880583"><ele>265.0</ele><time>2026-04-13T16:16:51.676Z</time></trkpt><trkpt lat="40.887825" lon="14.187935"><ele>265.0</ele><time>2026-04-13T16:16:54.676Z</time></trkpt><trkpt lat="40.8877933" lon="14.1878617"><ele>264.99999999999994</ele><time>2026-04-13T16:16:56.677Z</time></trkpt><trkpt lat="40.88775" lon="14.187795"><ele>265.0</ele><time>2026-04-13T16:16:58.676Z</time></trkpt><trkpt lat="40.8877083" lon="14.1877317"><ele>265.0</ele><time>2026-04-13T16:17:00.676Z</time></trkpt><trkpt lat="40.88766" lon="14.1876733"><ele>265.0</ele><time>2026-04-13T16:17:02.675Z</time></trkpt><trkpt lat="40.8876083" lon="14.18762"><ele>265.0</ele><time>2026-04-13T16:17:04.677Z</time></trkpt><trkpt lat="40.8875217" lon="14.1875683"><ele>264.99999999999994</ele><time>2026-04-13T16:17:07.678Z</time></trkpt><trkpt lat="40.8874517" lon="14.18756"><ele>265.0</ele><time>2026-04-13T16:17:09.677Z</time></trkpt><trkpt lat="40.887395" lon="14.1876033"><ele>267.4285714285714</ele><time>2026-04-13T16:17:11.677Z</time></trkpt><trkpt lat="40.887345" lon="14.1876683"><ele>269.85714285714283</ele><time>2026-04-13T16:17:13.678Z</time></trkpt><trkpt lat="40.887295" lon="14.1877333"><ele>272.2857142857143</ele><time>2026-04-13T16:17:15.676Z</time></trkpt><trkpt lat="40.887235" lon="14.18778"><ele>274.71428571428567</ele><time>2026-04-13T16:17:17.676Z</time></trkpt><trkpt lat="40.887165" lon="14.1877767"><ele>277.1428571428571</ele><time>2026-04-13T16:17:19.677Z</time></trkpt><trkpt lat="40.8871083" lon="14.1877367"><ele>279.57142857142856</ele><time>2026-04-13T16:17:21.677Z</time></trkpt><trkpt lat="40.8870583" lon="14.18768"><ele>282.0</ele><time>2026-04-13T16:17:23.677Z</time></trkpt><trkpt lat="40.88701" lon="14.1876233"><ele>282.0</ele><time>2026-04-13T16:17:25.677Z</time></trkpt><trkpt lat="40.8869633" lon="14.18756"><ele>282.0</ele><time>2026-04-13T16:17:27.676Z</time></trkpt><trkpt lat="40.886895" lon="14.1874717"><ele>282.0</ele><time>2026-04-13T16:17:30.677Z</time></trkpt><trkpt lat="40.88685" lon="14.1874083"><ele>282.0</ele><time>2026-04-13T16:17:32.676Z</time></trkpt><trkpt lat="40.886805" lon="14.187345"><ele>282.0</ele><time>2026-04-13T16:17:34.678Z</time></trkpt><trkpt lat="40.8867283" lon="14.1872733"><ele>282.0</ele><time>2026-04-13T16:17:37.676Z</time></trkpt><trkpt lat="40.88667" lon="14.1872417"><ele>283.14285714285717</ele><time>2026-04-13T16:17:39.676Z</time></trkpt><trkpt lat="40.88661" lon="14.1872067"><ele>284.2857142857143</ele><time>2026-04-13T16:17:41.676Z</time></trkpt><trkpt lat="40.8865567" lon="14.18716"><ele>285.42857142857144</ele><time>2026-04-13T16:17:43.677Z</time></trkpt><trkpt lat="40.8865017" lon="14.1870733"><ele>286.57142857142856</ele><time>2026-04-13T16:17:46.677Z</time></trkpt><trkpt lat="40.886475" lon="14.1869967"><ele>287.7142857142857</ele><time>2026-04-13T16:17:48.676Z</time></trkpt><trkpt lat="40.88645" lon="14.1869167"><ele>288.8571428571429</ele><time>2026-04-13T16:17:50.676Z</time></trkpt><trkpt lat="40.886425" lon="14.18684"><ele>290.0</ele><time>2026-04-13T16:17:52.677Z</time></trkpt><trkpt lat="40.8863983" lon="14.1867617"><ele>290.0</ele><time>2026-04-13T16:17:54.679Z</time></trkpt><trkpt lat="40.8863733" lon="14.1866817"><ele>290.0</ele><time>2026-04-13T16:17:56.677Z</time></trkpt><trkpt lat="40.88635" lon="14.1865967"><ele>290.0</ele><time>2026-04-13T16:17:58.677Z</time></trkpt><trkpt lat="40.8863367" lon="14.186515"><ele>290.0</ele><time>2026-04-13T16:18:00.677Z</time></trkpt><trkpt lat="40.886325" lon="14.1864267"><ele>290.0</ele><time>2026-04-13T16:18:02.676Z</time></trkpt><trkpt lat="40.886305" lon="14.1863083"><ele>290.0</ele><time>2026-04-13T16:18:05.676Z</time></trkpt><trkpt lat="40.8862667" lon="14.1862"><ele>290.0</ele><time>2026-04-13T16:18:08.678Z</time></trkpt><trkpt lat="40.8862183" lon="14.186105"><ele>290.0</ele><time>2026-04-13T16:18:11.678Z</time></trkpt><trkpt lat="40.886165" lon="14.1860133"><ele>290.0</ele><time>2026-04-13T16:18:14.675Z</time></trkpt><trkpt lat="40.88612" lon="14.1859517"><ele>290.0</ele><time>2026-04-13T16:18:16.678Z</time></trkpt><trkpt lat="40.8860733" lon="14.18589"><ele>290.0</ele><time>2026-04-13T16:18:18.677Z</time></trkpt><trkpt lat="40.886005" lon="14.185815"><ele>290.0</ele><time>2026-04-13T16:18:21.677Z</time></trkpt><trkpt lat="40.88594" lon="14.18575"><ele>290.0</ele><time>2026-04-13T16:18:24.678Z</time></trkpt><trkpt lat="40.8858633" lon="14.185705"><ele>291.14285714285717</ele><time>2026-04-13T16:18:27.677Z</time></trkpt><trkpt lat="40.8857783" lon="14.1857017"><ele>292.28571428571433</ele><time>2026-04-13T16:18:30.676Z</time></trkpt><trkpt lat="40.8856917" lon="14.185755"><ele>293.42857142857144</ele><time>2026-04-13T16:18:33.679Z</time></trkpt><trkpt lat="40.8856367" lon="14.185805"><ele>294.57142857142856</ele><time>2026-04-13T16:18:35.678Z</time></trkpt><trkpt lat="40.8855817" lon="14.1858533"><ele>295.71428571428567</ele><time>2026-04-13T16:18:37.675Z</time></trkpt><trkpt lat="40.8855317" lon="14.185905"><ele>296.85714285714283</ele><time>2026-04-13T16:18:39.678Z</time></trkpt><trkpt lat="40.8854783" lon="14.18595"><ele>298.0</ele><time>2026-04-13T16:18:41.676Z</time></trkpt><trkpt lat="40.8854267" lon="14.186"><ele>298.0</ele><time>2026-04-13T16:18:43.679Z</time></trkpt><trkpt lat="40.8853483" lon="14.1860733"><ele>298.0</ele><time>2026-04-13T16:18:46.678Z</time></trkpt><trkpt lat="40.88529" lon="14.1861083"><ele>298.0</ele><time>2026-04-13T16:18:48.675Z</time></trkpt><trkpt lat="40.8852283" lon="14.186135"><ele>298.0</ele><time>2026-04-13T16:18:50.676Z</time></trkpt><trkpt lat="40.88514" lon="14.18612"><ele>298.0</ele><time>2026-04-13T16:18:53.678Z</time></trkpt><trkpt lat="40.8850883" lon="14.1860683"><ele>298.0</ele><time>2026-04-13T16:18:55.676Z</time></trkpt><trkpt lat="40.8850467" lon="14.18599"><ele>299.3333333333333</ele><time>2026-04-13T16:18:57.679Z</time></trkpt><trkpt lat="40.885005" lon="14.18592"><ele>300.66666666666663</ele><time>2026-04-13T16:18:59.678Z</time></trkpt><trkpt lat="40.8849233" lon="14.1858717"><ele>302.0</ele><time>2026-04-13T16:19:02.677Z</time></trkpt><trkpt lat="40.884835" lon="14.18588"><ele>303.3333333333333</ele><time>2026-04-13T16:19:05.678Z</time></trkpt><trkpt lat="40.8847583" lon="14.185905"><ele>304.6666666666667</ele><time>2026-04-13T16:19:08.677Z</time></trkpt><trkpt lat="40.8846717" lon="14.185925"><ele>306.0</ele><time>2026-04-13T16:19:11.678Z</time></trkpt><trkpt lat="40.8845883" lon="14.185945"><ele>306.0</ele><time>2026-04-13T16:19:14.677Z</time></trkpt><trkpt lat="40.8845017" lon="14.1859717"><ele>306.0</ele><time>2026-04-13T16:19:17.677Z</time></trkpt><trkpt lat="40.88442" lon="14.186"><ele>306.0</ele><time>2026-04-13T16:19:20.678Z</time></trkpt><trkpt lat="40.8843433" lon="14.1860217"><ele>306.0</ele><time>2026-04-13T16:19:23.677Z</time></trkpt><trkpt lat="40.884265" lon="14.1860483"><ele>306.0</ele><time>2026-04-13T16:19:26.678Z</time></trkpt><trkpt lat="40.884195" lon="14.1860717"><ele>306.0</ele><time>2026-04-13T16:19:29.678Z</time></trkpt><trkpt lat="40.8841167" lon="14.1860933"><ele>307.8</ele><time>2026-04-13T16:19:32.679Z</time></trkpt><trkpt lat="40.8840267" lon="14.186125"><ele>309.6</ele><time>2026-04-13T16:19:35.678Z</time></trkpt><trkpt lat="40.883935" lon="14.1861533"><ele>311.4</ele><time>2026-04-13T16:19:38.676Z</time></trkpt><trkpt lat="40.8838433" lon="14.1861683"><ele>313.2</ele><time>2026-04-13T16:19:41.677Z</time></trkpt><trkpt lat="40.883755" lon="14.1861617"><ele>315.0</ele><time>2026-04-13T16:19:44.677Z</time></trkpt><trkpt lat="40.8836833" lon="14.1860867"><ele>315.0</ele><time>2026-04-13T16:19:47.677Z</time></trkpt><trkpt lat="40.8836117" lon="14.1860183"><ele>315.0</ele><time>2026-04-13T16:19:50.675Z</time></trkpt><trkpt lat="40.88353" lon="14.18598"><ele>315.0</ele><time>2026-04-13T16:19:53.676Z</time></trkpt><trkpt lat="40.8834483" lon="14.1859833"><ele>315.0</ele><time>2026-04-13T16:19:56.677Z</time></trkpt><trkpt lat="40.8833683" lon="14.1859967"><ele>315.0</ele><time>2026-04-13T16:19:59.676Z</time></trkpt><trkpt lat="40.88328" lon="14.1859867"><ele>315.0</ele><time>2026-04-13T16:20:02.676Z</time></trkpt><trkpt lat="40.883225" lon="14.18591"><ele>316.0</ele><time>2026-04-13T16:20:05.677Z</time></trkpt><trkpt lat="40.8832233" lon="14.18582"><ele>317.0</ele><time>2026-04-13T16:20:07.676Z</time></trkpt><trkpt lat="40.883215" lon="14.1857"><ele>318.0</ele><time>2026-04-13T16:20:10.679Z</time></trkpt><trkpt lat="40.883215" lon="14.185585"><ele>319.0</ele><time>2026-04-13T16:20:13.677Z</time></trkpt><trkpt lat="40.8832167" lon="14.1854717"><ele>320.0</ele><time>2026-04-13T16:20:16.677Z</time></trkpt><trkpt lat="40.88321" lon="14.1853883"><ele>321.0</ele><time>2026-04-13T16:20:18.678Z</time></trkpt><trkpt lat="40.8832267" lon="14.185275"><ele>321.0</ele><time>2026-04-13T16:20:21.675Z</time></trkpt><trkpt lat="40.8832667" lon="14.1852083"><ele>321.0</ele><time>2026-04-13T16:20:23.678Z</time></trkpt><trkpt lat="40.8833033" lon="14.1851317"><ele>321.0</ele><time>2026-04-13T16:20:25.677Z</time></trkpt><trkpt lat="40.8833433" lon="14.1850317"><ele>321.0</ele><time>2026-04-13T16:20:27.678Z</time></trkpt><trkpt lat="40.8833617" lon="14.18491"><ele>321.0</ele><time>2026-04-13T16:20:29.677Z</time></trkpt><trkpt lat="40.88334" lon="14.1847967"><ele>321.0</ele><time>2026-04-13T16:20:31.679Z</time></trkpt><trkpt lat="40.883295" lon="14.1847233"><ele>321.0</ele><time>2026-04-13T16:20:33.679Z</time></trkpt><trkpt lat="40.8832233" lon="14.1846883"><ele>321.0</ele><time>2026-04-13T16:20:36.678Z</time></trkpt><trkpt lat="40.883145" lon="14.184705"><ele>321.0</ele><time>2026-04-13T16:20:39.678Z</time></trkpt><trkpt lat="40.8830833" lon="14.1847517"><ele>321.0</ele><time>2026-04-13T16:20:42.679Z</time></trkpt><trkpt lat="40.8830267" lon="14.18483"><ele>321.0</ele><time>2026-04-13T16:20:45.677Z</time></trkpt><trkpt lat="40.8830033" lon="14.1849233"><ele>321.0</ele><time>2026-04-13T16:20:48.678Z</time></trkpt><trkpt lat="40.8829517" lon="14.1849867"><ele>321.0</ele><time>2026-04-13T16:21:20.676Z</time></trkpt><trkpt lat="40.8828867" lon="14.1849433"><ele>321.0</ele><time>2026-04-13T16:21:24.678Z</time></trkpt><trkpt lat="40.88282" lon="14.1849017"><ele>321.0</ele><time>2026-04-13T16:21:27.678Z</time></trkpt><trkpt lat="40.8827433" lon="14.1848767"><ele>321.0</ele><time>2026-04-13T16:21:30.675Z</time></trkpt><trkpt lat="40.8826633" lon="14.1848267"><ele>321.0</ele><time>2026-04-13T16:21:33.676Z</time></trkpt><trkpt lat="40.8825817" lon="14.18476"><ele>321.0</ele><time>2026-04-13T16:21:36.676Z</time></trkpt><trkpt lat="40.8825233" lon="14.184715"><ele>321.57142857142856</ele><time>2026-04-13T16:21:38.678Z</time></trkpt><trkpt lat="40.88247" lon="14.184665"><ele>322.1428571428571</ele><time>2026-04-13T16:21:40.676Z</time></trkpt><trkpt lat="40.8824183" lon="14.184615"><ele>322.71428571428567</ele><time>2026-04-13T16:21:42.677Z</time></trkpt><trkpt lat="40.8823617" lon="14.1845717"><ele>323.2857142857143</ele><time>2026-04-13T16:21:44.678Z</time></trkpt><trkpt lat="40.88231" lon="14.184515"><ele>323.8571428571429</ele><time>2026-04-13T16:21:46.678Z</time></trkpt><trkpt lat="40.8822317" lon="14.1844817"><ele>324.4285714285714</ele><time>2026-04-13T16:21:49.678Z</time></trkpt><trkpt lat="40.882145" lon="14.184475"><ele>325.0</ele><time>2026-04-13T16:21:52.675Z</time></trkpt><trkpt lat="40.8820567" lon="14.184525"><ele>325.0</ele><time>2026-04-13T16:21:55.676Z</time></trkpt><trkpt lat="40.881995" lon="14.1845617"><ele>325.0</ele><time>2026-04-13T16:21:57.678Z</time></trkpt><trkpt lat="40.8819383" lon="14.184605"><ele>325.0</ele><time>2026-04-13T16:21:59.676Z</time></trkpt><trkpt lat="40.8818533" lon="14.1846633"><ele>325.0</ele><time>2026-04-13T16:22:02.678Z</time></trkpt><trkpt lat="40.8817933" lon="14.1846983"><ele>325.0</ele><time>2026-04-13T16:22:04.677Z</time></trkpt><trkpt lat="40.881705" lon="14.1847233"><ele>325.0</ele><time>2026-04-13T16:22:07.677Z</time></trkpt><trkpt lat="40.88164" lon="14.1847333"><ele>325.8333333333333</ele><time>2026-04-13T16:22:09.676Z</time></trkpt><trkpt lat="40.8815783" lon="14.1847567"><ele>326.66666666666663</ele><time>2026-04-13T16:22:11.679Z</time></trkpt><trkpt lat="40.881515" lon="14.1847733"><ele>327.5</ele><time>2026-04-13T16:22:13.678Z</time></trkpt><trkpt lat="40.8814317" lon="14.1847983"><ele>328.3333333333333</ele><time>2026-04-13T16:22:16.676Z</time></trkpt><trkpt lat="40.8813433" lon="14.1848183"><ele>329.1666666666667</ele><time>2026-04-13T16:22:19.676Z</time></trkpt><trkpt lat="40.88128" lon="14.1848383"><ele>330.0</ele><time>2026-04-13T16:22:21.674Z</time></trkpt><trkpt lat="40.8811917" lon="14.184855"><ele>330.0</ele><time>2026-04-13T16:22:24.676Z</time></trkpt><trkpt lat="40.8811183" lon="14.1848517"><ele>330.0</ele><time>2026-04-13T16:22:26.675Z</time></trkpt><trkpt lat="40.8810283" lon="14.1848333"><ele>330.0</ele><time>2026-04-13T16:22:29.678Z</time></trkpt><trkpt lat="40.8809383" lon="14.1848083"><ele>330.0</ele><time>2026-04-13T16:22:32.679Z</time></trkpt><trkpt lat="40.8808783" lon="14.184775"><ele>330.0</ele><time>2026-04-13T16:22:34.677Z</time></trkpt><trkpt lat="40.8808117" lon="14.184745"><ele>330.0</ele><time>2026-04-13T16:22:36.676Z</time></trkpt><trkpt lat="40.88074" lon="14.1847333"><ele>330.8333333333333</ele><time>2026-04-13T16:22:38.678Z</time></trkpt><trkpt lat="40.88066" lon="14.1847533"><ele>331.6666666666667</ele><time>2026-04-13T16:22:40.679Z</time></trkpt><trkpt lat="40.8805833" lon="14.1847883"><ele>332.5</ele><time>2026-04-13T16:22:42.677Z</time></trkpt><trkpt lat="40.8805117" lon="14.1848317"><ele>333.33333333333337</ele><time>2026-04-13T16:22:44.677Z</time></trkpt><trkpt lat="40.8804433" lon="14.18488"><ele>334.1666666666667</ele><time>2026-04-13T16:22:46.677Z</time></trkpt><trkpt lat="40.88037" lon="14.1849217"><ele>335.0</ele><time>2026-04-13T16:22:48.676Z</time></trkpt><trkpt lat="40.8802883" lon="14.18495"><ele>335.0</ele><time>2026-04-13T16:22:50.676Z</time></trkpt><trkpt lat="40.8802083" lon="14.18497"><ele>335.0</ele><time>2026-04-13T16:22:52.675Z</time></trkpt><trkpt lat="40.880145" lon="14.184975"><ele>335.0</ele><time>2026-04-13T16:22:54.676Z</time></trkpt><trkpt lat="40.880075" lon="14.18497"><ele>335.0</ele><time>2026-04-13T16:22:57.675Z</time></trkpt><trkpt lat="40.87999" lon="14.18498"><ele>335.0</ele><time>2026-04-13T16:23:00.676Z</time></trkpt><trkpt lat="40.8799017" lon="14.1850083"><ele>335.0</ele><time>2026-04-13T16:23:02.675Z</time></trkpt><trkpt lat="40.879815" lon="14.1850383"><ele>335.33333333333337</ele><time>2026-04-13T16:23:04.678Z</time></trkpt><trkpt lat="40.8797333" lon="14.1850717"><ele>335.6666666666667</ele><time>2026-04-13T16:23:06.677Z</time></trkpt><trkpt lat="40.8796583" lon="14.1850933"><ele>336.0</ele><time>2026-04-13T16:23:08.678Z</time></trkpt><trkpt lat="40.879585" lon="14.1851117"><ele>336.3333333333333</ele><time>2026-04-13T16:23:10.677Z</time></trkpt><trkpt lat="40.87951" lon="14.1851317"><ele>336.66666666666663</ele><time>2026-04-13T16:23:12.676Z</time></trkpt><trkpt lat="40.879435" lon="14.1851483"><ele>337.0</ele><time>2026-04-13T16:23:14.677Z</time></trkpt><trkpt lat="40.87936" lon="14.18517"><ele>337.0</ele><time>2026-04-13T16:23:16.677Z</time></trkpt><trkpt lat="40.8792867" lon="14.1851817"><ele>337.0</ele><time>2026-04-13T16:23:18.677Z</time></trkpt><trkpt lat="40.87921" lon="14.18517"><ele>337.0</ele><time>2026-04-13T16:23:20.676Z</time></trkpt><trkpt lat="40.87913" lon="14.1851467"><ele>337.0</ele><time>2026-04-13T16:23:22.675Z</time></trkpt><trkpt lat="40.87905" lon="14.1851317"><ele>337.0</ele><time>2026-04-13T16:23:24.677Z</time></trkpt><trkpt lat="40.87897" lon="14.1851283"><ele>337.0</ele><time>2026-04-13T16:23:26.677Z</time></trkpt><trkpt lat="40.8788883" lon="14.185125"><ele>337.66666666666663</ele><time>2026-04-13T16:23:28.677Z</time></trkpt><trkpt lat="40.8788083" lon="14.1851267"><ele>338.3333333333333</ele><time>2026-04-13T16:23:30.676Z</time></trkpt><trkpt lat="40.8787233" lon="14.1851283"><ele>339.0</ele><time>2026-04-13T16:23:32.677Z</time></trkpt><trkpt lat="40.8786433" lon="14.1851333"><ele>339.6666666666667</ele><time>2026-04-13T16:23:34.677Z</time></trkpt><trkpt lat="40.8785667" lon="14.1851333"><ele>340.33333333333337</ele><time>2026-04-13T16:23:36.677Z</time></trkpt><trkpt lat="40.8784867" lon="14.18512"><ele>341.0</ele><time>2026-04-13T16:23:38.676Z</time></trkpt><trkpt lat="40.8783983" lon="14.185125"><ele>341.6666666666667</ele><time>2026-04-13T16:23:40.677Z</time></trkpt><trkpt lat="40.8783217" lon="14.1851333"><ele>342.33333333333337</ele><time>2026-04-13T16:23:42.678Z</time></trkpt><trkpt lat="40.8782417" lon="14.18514"><ele>343.0</ele><time>2026-04-13T16:23:44.676Z</time></trkpt><trkpt lat="40.8781633" lon="14.18515"><ele>343.6666666666667</ele><time>2026-04-13T16:23:46.676Z</time></trkpt><trkpt lat="40.8780783" lon="14.185165"><ele>344.3333333333333</ele><time>2026-04-13T16:23:48.678Z</time></trkpt><trkpt lat="40.8779983" lon="14.1851767"><ele>345.0</ele><time>2026-04-13T16:23:50.677Z</time></trkpt><trkpt lat="40.8779133" lon="14.1851717"><ele>345.0</ele><time>2026-04-13T16:23:52.677Z</time></trkpt><trkpt lat="40.8778233" lon="14.1851767"><ele>345.0</ele><time>2026-04-13T16:23:54.677Z</time></trkpt><trkpt lat="40.8777367" lon="14.1851867"><ele>345.0</ele><time>2026-04-13T16:23:56.675Z</time></trkpt><trkpt lat="40.8776483" lon="14.18519"><ele>345.0</ele><time>2026-04-13T16:23:58.677Z</time></trkpt><trkpt lat="40.8775583" lon="14.1852017"><ele>345.0</ele><time>2026-04-13T16:24:00.677Z</time></trkpt><trkpt lat="40.8774667" lon="14.1852167"><ele>345.0</ele><time>2026-04-13T16:24:02.678Z</time></trkpt><trkpt lat="40.8773817" lon="14.1852467"><ele>345.5</ele><time>2026-04-13T16:24:04.676Z</time></trkpt><trkpt lat="40.8773033" lon="14.185285"><ele>346.0</ele><time>2026-04-13T16:24:06.675Z</time></trkpt><trkpt lat="40.8772267" lon="14.1853267"><ele>346.5</ele><time>2026-04-13T16:24:08.676Z</time></trkpt><trkpt lat="40.8771483" lon="14.1853867"><ele>347.0</ele><time>2026-04-13T16:24:10.678Z</time></trkpt><trkpt lat="40.8770733" lon="14.1854517"><ele>347.5</ele><time>2026-04-13T16:24:12.677Z</time></trkpt><trkpt lat="40.877" lon="14.1855167"><ele>348.0</ele><time>2026-04-13T16:24:14.678Z</time></trkpt><trkpt lat="40.876925" lon="14.1855833"><ele>348.0</ele><time>2026-04-13T16:24:16.677Z</time></trkpt><trkpt lat="40.8768417" lon="14.185625"><ele>348.0</ele><time>2026-04-13T16:24:18.677Z</time></trkpt><trkpt lat="40.8767567" lon="14.1856467"><ele>348.0</ele><time>2026-04-13T16:24:20.677Z</time></trkpt><trkpt lat="40.8766683" lon="14.18565"><ele>348.0</ele><time>2026-04-13T16:24:22.676Z</time></trkpt><trkpt lat="40.8765817" lon="14.1856367"><ele>348.0</ele><time>2026-04-13T16:24:24.678Z</time></trkpt><trkpt lat="40.8764883" lon="14.18563"><ele>348.0</ele><time>2026-04-13T16:24:26.675Z</time></trkpt><trkpt lat="40.8763883" lon="14.1856417"><ele>348.2</ele><time>2026-04-13T16:24:28.675Z</time></trkpt><trkpt lat="40.87629" lon="14.1856867"><ele>348.4</ele><time>2026-04-13T16:24:30.675Z</time></trkpt><trkpt lat="40.8762" lon="14.1857267"><ele>348.59999999999997</ele><time>2026-04-13T16:24:32.675Z</time></trkpt><trkpt lat="40.8760983" lon="14.1857717"><ele>348.79999999999995</ele><time>2026-04-13T16:24:34.675Z</time></trkpt><trkpt lat="40.8760067" lon="14.1858367"><ele>349.0</ele><time>2026-04-13T16:24:36.677Z</time></trkpt><trkpt lat="40.87593" lon="14.1859083"><ele>349.0</ele><time>2026-04-13T16:24:38.676Z</time></trkpt><trkpt lat="40.8758617" lon="14.1859683"><ele>349.0</ele><time>2026-04-13T16:24:40.677Z</time></trkpt><trkpt lat="40.8757917" lon="14.186025"><ele>349.0</ele><time>2026-04-13T16:24:42.677Z</time></trkpt><trkpt lat="40.8757233" lon="14.1860817"><ele>349.0</ele><time>2026-04-13T16:24:44.676Z</time></trkpt><trkpt lat="40.8756533" lon="14.1861417"><ele>349.0</ele><time>2026-04-13T16:24:46.676Z</time></trkpt><trkpt lat="40.875595" lon="14.18619"><ele>349.0</ele><time>2026-04-13T16:24:48.677Z</time></trkpt><trkpt lat="40.87553" lon="14.18624"><ele>349.0</ele><time>2026-04-13T16:24:50.677Z</time></trkpt><trkpt lat="40.8754583" lon="14.1863017"><ele>349.0</ele><time>2026-04-13T16:24:52.677Z</time></trkpt><trkpt lat="40.8753883" lon="14.18636"><ele>349.0</ele><time>2026-04-13T16:24:54.677Z</time></trkpt><trkpt lat="40.8753233" lon="14.1864183"><ele>349.0</ele><time>2026-04-13T16:24:56.676Z</time></trkpt><trkpt lat="40.8752517" lon="14.186485"><ele>349.0</ele><time>2026-04-13T16:24:58.677Z</time></trkpt><trkpt lat="40.8751767" lon="14.1865433"><ele>349.0</ele><time>2026-04-13T16:25:00.678Z</time></trkpt><trkpt lat="40.8750967" lon="14.1865833"><ele>349.1428571428571</ele><time>2026-04-13T16:25:02.676Z</time></trkpt><trkpt lat="40.8750167" lon="14.1866117"><ele>349.2857142857143</ele><time>2026-04-13T16:25:04.679Z</time></trkpt><trkpt lat="40.8749417" lon="14.1866267"><ele>349.42857142857144</ele><time>2026-04-13T16:25:06.676Z</time></trkpt><trkpt lat="40.8748733" lon="14.1866433"><ele>349.57142857142856</ele><time>2026-04-13T16:25:08.678Z</time></trkpt><trkpt lat="40.8748067" lon="14.1866617"><ele>349.7142857142857</ele><time>2026-04-13T16:25:10.675Z</time></trkpt><trkpt lat="40.874735" lon="14.1866783"><ele>349.85714285714283</ele><time>2026-04-13T16:25:12.676Z</time></trkpt><trkpt lat="40.8746617" lon="14.1866933"><ele>350.0</ele><time>2026-04-13T16:25:14.678Z</time></trkpt><trkpt lat="40.8745933" lon="14.1867083"><ele>350.0</ele><time>2026-04-13T16:25:16.677Z</time></trkpt><trkpt lat="40.87452" lon="14.1867233"><ele>350.0</ele><time>2026-04-13T16:25:18.678Z</time></trkpt><trkpt lat="40.8744417" lon="14.186735"><ele>350.0</ele><time>2026-04-13T16:25:20.676Z</time></trkpt><trkpt lat="40.8743767" lon="14.1867467"><ele>350.0</ele><time>2026-04-13T16:25:22.677Z</time></trkpt><trkpt lat="40.87428" lon="14.1867683"><ele>350.0</ele><time>2026-04-13T16:25:25.679Z</time></trkpt><trkpt lat="40.874205" lon="14.1867767"><ele>350.0</ele><time>2026-04-13T16:25:27.677Z</time></trkpt><trkpt lat="40.8741367" lon="14.1867967"><ele>351.0</ele><time>2026-04-13T16:25:29.678Z</time></trkpt><trkpt lat="40.87407" lon="14.18681"><ele>352.0</ele><time>2026-04-13T16:25:31.676Z</time></trkpt><trkpt lat="40.874005" lon="14.18682"><ele>353.0</ele><time>2026-04-13T16:25:33.679Z</time></trkpt><trkpt lat="40.87394" lon="14.1868367"><ele>354.0</ele><time>2026-04-13T16:25:35.676Z</time></trkpt><trkpt lat="40.873875" lon="14.1868567"><ele>355.0</ele><time>2026-04-13T16:25:37.676Z</time></trkpt><trkpt lat="40.8738133" lon="14.1868767"><ele>356.0</ele><time>2026-04-13T16:25:39.676Z</time></trkpt><trkpt lat="40.87372" lon="14.1868983"><ele>357.0</ele><time>2026-04-13T16:25:42.678Z</time></trkpt><trkpt lat="40.87363" lon="14.186925"><ele>357.0</ele><time>2026-04-13T16:25:45.676Z</time></trkpt><trkpt lat="40.8735633" lon="14.1869467"><ele>357.0</ele><time>2026-04-13T16:25:47.679Z</time></trkpt><trkpt lat="40.87347" lon="14.186985"><ele>357.0</ele><time>2026-04-13T16:25:50.679Z</time></trkpt><trkpt lat="40.8734033" lon="14.1870083"><ele>357.0</ele><time>2026-04-13T16:25:52.679Z</time></trkpt><trkpt lat="40.8733367" lon="14.187035"><ele>357.0</ele><time>2026-04-13T16:25:54.677Z</time></trkpt><trkpt lat="40.8732483" lon="14.18707"><ele>357.0</ele><time>2026-04-13T16:25:57.679Z</time></trkpt><trkpt lat="40.8731583" lon="14.1870967"><ele>358.0</ele><time>2026-04-13T16:26:00.676Z</time></trkpt><trkpt lat="40.8730933" lon="14.1871183"><ele>359.0</ele><time>2026-04-13T16:26:02.678Z</time></trkpt><trkpt lat="40.8730283" lon="14.1871367"><ele>360.0</ele><time>2026-04-13T16:26:04.677Z</time></trkpt><trkpt lat="40.87296" lon="14.187155"><ele>361.0</ele><time>2026-04-13T16:26:06.677Z</time></trkpt><trkpt lat="40.8728983" lon="14.187175"><ele>362.0</ele><time>2026-04-13T16:26:08.676Z</time></trkpt><trkpt lat="40.8728333" lon="14.1871917"><ele>363.0</ele><time>2026-04-13T16:26:10.677Z</time></trkpt><trkpt lat="40.8727433" lon="14.1872217"><ele>364.0</ele><time>2026-04-13T16:26:13.677Z</time></trkpt><trkpt lat="40.8726617" lon="14.1872433"><ele>365.16666666666663</ele><time>2026-04-13T16:26:16.676Z</time></trkpt><trkpt lat="40.8725883" lon="14.1872633"><ele>366.3333333333333</ele><time>2026-04-13T16:26:19.677Z</time></trkpt><trkpt lat="40.8725233" lon="14.1872817"><ele>367.5</ele><time>2026-04-13T16:26:22.677Z</time></trkpt><trkpt lat="40.8724417" lon="14.1873117"><ele>368.6666666666667</ele><time>2026-04-13T16:26:25.677Z</time></trkpt><trkpt lat="40.8723667" lon="14.1873367"><ele>369.83333333333337</ele><time>2026-04-13T16:26:28.677Z</time></trkpt><trkpt lat="40.8722933" lon="14.1873533"><ele>371.0</ele><time>2026-04-13T16:26:31.678Z</time></trkpt><trkpt lat="40.8722133" lon="14.18737"><ele>371.33333333333337</ele><time>2026-04-13T16:26:34.678Z</time></trkpt><trkpt lat="40.8721333" lon="14.1873867"><ele>371.6666666666667</ele><time>2026-04-13T16:26:37.678Z</time></trkpt><trkpt lat="40.872055" lon="14.1874183"><ele>372.0</ele><time>2026-04-13T16:26:40.677Z</time></trkpt><trkpt lat="40.8719817" lon="14.18744"><ele>372.3333333333333</ele><time>2026-04-13T16:26:43.677Z</time></trkpt><trkpt lat="40.8719" lon="14.1874667"><ele>372.66666666666663</ele><time>2026-04-13T16:26:46.676Z</time></trkpt><trkpt lat="40.8718283" lon="14.1874883"><ele>373.0</ele><time>2026-04-13T16:26:49.678Z</time></trkpt><trkpt lat="40.8717683" lon="14.1875183"><ele>373.3333333333333</ele><time>2026-04-13T16:26:52.677Z</time></trkpt><trkpt lat="40.8717067" lon="14.18754"><ele>373.66666666666663</ele><time>2026-04-13T16:26:55.677Z</time></trkpt><trkpt lat="40.8716317" lon="14.18761"><ele>374.0</ele><time>2026-04-13T16:26:58.677Z</time></trkpt><trkpt lat="40.87156" lon="14.1876567"><ele>374.3333333333333</ele><time>2026-04-13T16:27:01.677Z</time></trkpt><trkpt lat="40.87149" lon="14.1876983"><ele>374.6666666666667</ele><time>2026-04-13T16:27:04.677Z</time></trkpt><trkpt lat="40.8714" lon="14.18776"><ele>375.0</ele><time>2026-04-13T16:27:08.678Z</time></trkpt><trkpt lat="40.8713333" lon="14.1878217"><ele>375.0</ele><time>2026-04-13T16:27:11.677Z</time></trkpt><trkpt lat="40.8712733" lon="14.1878667"><ele>375.0</ele><time>2026-04-13T16:27:13.677Z</time></trkpt><trkpt lat="40.8712167" lon="14.18791"><ele>375.0</ele><time>2026-04-13T16:27:15.677Z</time></trkpt><trkpt lat="40.8711417" lon="14.187975"><ele>375.0</ele><time>2026-04-13T16:27:18.675Z</time></trkpt><trkpt lat="40.8710783" lon="14.1880317"><ele>375.0</ele><time>2026-04-13T16:27:21.677Z</time></trkpt><trkpt lat="40.871005" lon="14.1880883"><ele>375.0</ele><time>2026-04-13T16:27:24.676Z</time></trkpt><trkpt lat="40.8709467" lon="14.1881567"><ele>375.8333333333333</ele><time>2026-04-13T16:27:27.675Z</time></trkpt><trkpt lat="40.8708883" lon="14.1882267"><ele>376.6666666666667</ele><time>2026-04-13T16:27:30.676Z</time></trkpt><trkpt lat="40.87082" lon="14.18831"><ele>377.5</ele><time>2026-04-13T16:27:33.676Z</time></trkpt><trkpt lat="40.8707517" lon="14.188335"><ele>378.33333333333337</ele><time>2026-04-13T16:27:36.677Z</time></trkpt><trkpt lat="40.8707283" lon="14.188245"><ele>379.1666666666667</ele><time>2026-04-13T16:27:39.676Z</time></trkpt><trkpt lat="40.8706917" lon="14.1881417"><ele>380.0</ele><time>2026-04-13T16:27:42.676Z</time></trkpt><trkpt lat="40.8706617" lon="14.1880267"><ele>380.0</ele><time>2026-04-13T16:27:45.677Z</time></trkpt><trkpt lat="40.870645" lon="14.187935"><ele>380.0</ele><time>2026-04-13T16:27:47.679Z</time></trkpt><trkpt lat="40.8706467" lon="14.187835"><ele>380.0</ele><time>2026-04-13T16:27:49.677Z</time></trkpt><trkpt lat="40.8706517" lon="14.1877367"><ele>380.0</ele><time>2026-04-13T16:27:51.676Z</time></trkpt><trkpt lat="40.8706567" lon="14.1876367"><ele>380.0</ele><time>2026-04-13T16:27:53.678Z</time></trkpt><trkpt lat="40.870655" lon="14.187535"><ele>380.0</ele><time>2026-04-13T16:27:55.677Z</time></trkpt><trkpt lat="40.8706567" lon="14.1874317"><ele>379.83333333333337</ele><time>2026-04-13T16:27:57.676Z</time></trkpt><trkpt lat="40.8706567" lon="14.1873283"><ele>379.6666666666667</ele><time>2026-04-13T16:27:59.676Z</time></trkpt><trkpt lat="40.8706617" lon="14.1872267"><ele>379.5</ele><time>2026-04-13T16:28:01.679Z</time></trkpt><trkpt lat="40.8706667" lon="14.18713"><ele>379.3333333333333</ele><time>2026-04-13T16:28:03.679Z</time></trkpt><trkpt lat="40.8706783" lon="14.1870117"><ele>379.16666666666663</ele><time>2026-04-13T16:28:06.678Z</time></trkpt><trkpt lat="40.8706767" lon="14.1868983"><ele>379.0</ele><time>2026-04-13T16:28:34.677Z</time></trkpt><trkpt lat="40.8706217" lon="14.1868533"><ele>379.0</ele><time>2026-04-13T16:28:38.674Z</time></trkpt><trkpt lat="40.870635" lon="14.1867383"><ele>379.0</ele><time>2026-04-13T16:28:54.675Z</time></trkpt><trkpt lat="40.8706533" lon="14.18665"><ele>379.0</ele><time>2026-04-13T16:28:57.676Z</time></trkpt><trkpt lat="40.8705983" lon="14.1865583"><ele>379.0</ele><time>2026-04-13T16:29:24.675Z</time></trkpt><trkpt lat="40.870595" lon="14.1864617"><ele>379.0</ele><time>2026-04-13T16:29:27.674Z</time></trkpt><trkpt lat="40.87059" lon="14.186355"><ele>379.0</ele><time>2026-04-13T16:29:29.676Z</time></trkpt><trkpt lat="40.8705783" lon="14.186235"><ele>379.2</ele><time>2026-04-13T16:29:31.677Z</time></trkpt><trkpt lat="40.8705783" lon="14.186095"><ele>379.4</ele><time>2026-04-13T16:29:33.677Z</time></trkpt><trkpt lat="40.8705867" lon="14.1859417"><ele>379.6</ele><time>2026-04-13T16:29:35.676Z</time></trkpt><trkpt lat="40.8705883" lon="14.1858067"><ele>379.8</ele><time>2026-04-13T16:29:37.676Z</time></trkpt><trkpt lat="40.8705867" lon="14.1856617"><ele>380.0</ele><time>2026-04-13T16:29:39.676Z</time></trkpt><trkpt lat="40.8705867" lon="14.1854983"><ele>379.33333333333337</ele><time>2026-04-13T16:29:41.676Z</time></trkpt><trkpt lat="40.8706067" lon="14.1854167"><ele>378.6666666666667</ele><time>2026-04-13T16:29:42.677Z</time></trkpt><trkpt lat="40.87064" lon="14.185345"><ele>378.0</ele><time>2026-04-13T16:29:43.676Z</time></trkpt><trkpt lat="40.870685" lon="14.18526"><ele>377.3333333333333</ele><time>2026-04-13T16:29:44.676Z</time></trkpt><trkpt lat="40.870735" lon="14.1851717"><ele>376.66666666666663</ele><time>2026-04-13T16:29:45.677Z</time></trkpt><trkpt lat="40.870795" lon="14.1850933"><ele>376.0</ele><time>2026-04-13T16:29:46.676Z</time></trkpt><trkpt lat="40.8708517" lon="14.185015"><ele>376.0</ele><time>2026-04-13T16:29:47.676Z</time></trkpt><trkpt lat="40.8709117" lon="14.1849333"><ele>376.0</ele><time>2026-04-13T16:29:48.677Z</time></trkpt><trkpt lat="40.8709767" lon="14.1848483"><ele>376.0</ele><time>2026-04-13T16:29:49.677Z</time></trkpt><trkpt lat="40.8710383" lon="14.18476"><ele>376.0</ele><time>2026-04-13T16:29:50.675Z</time></trkpt><trkpt lat="40.871105" lon="14.1846767"><ele>376.0</ele><time>2026-04-13T16:29:51.676Z</time></trkpt><trkpt lat="40.8711617" lon="14.1846"><ele>376.0</ele><time>2026-04-13T16:29:52.676Z</time></trkpt><trkpt lat="40.8712067" lon="14.1845267"><ele>375.7142857142857</ele><time>2026-04-13T16:29:53.676Z</time></trkpt><trkpt lat="40.871255" lon="14.1844583"><ele>375.42857142857144</ele><time>2026-04-13T16:29:54.677Z</time></trkpt><trkpt lat="40.8713017" lon="14.1843833"><ele>375.1428571428571</ele><time>2026-04-13T16:29:55.676Z</time></trkpt><trkpt lat="40.871335" lon="14.1843083"><ele>374.8571428571429</ele><time>2026-04-13T16:29:56.676Z</time></trkpt><trkpt lat="40.8713717" lon="14.1842233"><ele>374.5714285714286</ele><time>2026-04-13T16:29:57.676Z</time></trkpt><trkpt lat="40.871405" lon="14.1841517"><ele>374.2857142857143</ele><time>2026-04-13T16:29:58.674Z</time></trkpt><trkpt lat="40.871435" lon="14.1840617"><ele>374.0</ele><time>2026-04-13T16:29:59.676Z</time></trkpt><trkpt lat="40.8714567" lon="14.18397"><ele>373.57142857142856</ele><time>2026-04-13T16:30:00.676Z</time></trkpt><trkpt lat="40.8714783" lon="14.1838717"><ele>373.14285714285717</ele><time>2026-04-13T16:30:01.675Z</time></trkpt><trkpt lat="40.8714883" lon="14.18377"><ele>372.7142857142857</ele><time>2026-04-13T16:30:02.677Z</time></trkpt><trkpt lat="40.8714967" lon="14.1836783"><ele>372.2857142857143</ele><time>2026-04-13T16:30:03.676Z</time></trkpt><trkpt lat="40.8715017" lon="14.1835883"><ele>371.8571428571429</ele><time>2026-04-13T16:30:04.676Z</time></trkpt><trkpt lat="40.87151" lon="14.18349"><ele>371.42857142857144</ele><time>2026-04-13T16:30:05.677Z</time></trkpt><trkpt lat="40.871525" lon="14.1833883"><ele>371.0</ele><time>2026-04-13T16:30:06.677Z</time></trkpt><trkpt lat="40.87155" lon="14.1832917"><ele>371.0</ele><time>2026-04-13T16:30:07.674Z</time></trkpt><trkpt lat="40.8715817" lon="14.183215"><ele>371.0</ele><time>2026-04-13T16:30:08.677Z</time></trkpt><trkpt lat="40.87161" lon="14.1831267"><ele>371.0</ele><time>2026-04-13T16:30:09.674Z</time></trkpt><trkpt lat="40.8716417" lon="14.18304"><ele>371.0</ele><time>2026-04-13T16:30:10.676Z</time></trkpt><trkpt lat="40.8716767" lon="14.1829633"><ele>371.0</ele><time>2026-04-13T16:30:11.675Z</time></trkpt><trkpt lat="40.8717217" lon="14.18289"><ele>371.0</ele><time>2026-04-13T16:30:12.675Z</time></trkpt><trkpt lat="40.871775" lon="14.18282"><ele>371.0</ele><time>2026-04-13T16:30:13.676Z</time></trkpt><trkpt lat="40.8718217" lon="14.182745"><ele>369.6</ele><time>2026-04-13T16:30:14.676Z</time></trkpt><trkpt lat="40.8719067" lon="14.18267"><ele>368.20000000000005</ele><time>2026-04-13T16:30:16.676Z</time></trkpt><trkpt lat="40.872" lon="14.1826933"><ele>366.79999999999995</ele><time>2026-04-13T16:30:18.676Z</time></trkpt><trkpt lat="40.8720783" lon="14.1827217"><ele>365.4</ele><time>2026-04-13T16:30:20.678Z</time></trkpt><trkpt lat="40.872155" lon="14.1827417"><ele>364.0</ele><time>2026-04-13T16:30:22.676Z</time></trkpt><trkpt lat="40.872245" lon="14.1827783"><ele>364.0</ele><time>2026-04-13T16:30:24.675Z</time></trkpt><trkpt lat="40.8723283" lon="14.1828533"><ele>364.0</ele><time>2026-04-13T16:30:26.675Z</time></trkpt><trkpt lat="40.8723883" lon="14.18296"><ele>364.0</ele><time>2026-04-13T16:30:28.676Z</time></trkpt><trkpt lat="40.8724617" lon="14.18302"><ele>364.0</ele><time>2026-04-13T16:30:30.675Z</time></trkpt><trkpt lat="40.87255" lon="14.1830117"><ele>364.0</ele><time>2026-04-13T16:30:32.676Z</time></trkpt><trkpt lat="40.87263" lon="14.1829783"><ele>363.79999999999995</ele><time>2026-04-13T16:30:34.675Z</time></trkpt><trkpt lat="40.872715" lon="14.182935"><ele>363.59999999999997</ele><time>2026-04-13T16:30:36.676Z</time></trkpt><trkpt lat="40.8728033" lon="14.1828533"><ele>363.4</ele><time>2026-04-13T16:30:38.676Z</time></trkpt><trkpt lat="40.87288" lon="14.1827533"><ele>363.2</ele><time>2026-04-13T16:30:40.675Z</time></trkpt><trkpt lat="40.87296" lon="14.182645"><ele>363.0</ele><time>2026-04-13T16:30:42.676Z</time></trkpt><trkpt lat="40.8730433" lon="14.1825267"><ele>362.99999999999994</ele><time>2026-04-13T16:30:44.676Z</time></trkpt><trkpt lat="40.8730883" lon="14.1824667"><ele>363.0</ele><time>2026-04-13T16:30:45.678Z</time></trkpt><trkpt lat="40.8731333" lon="14.1824083"><ele>363.0</ele><time>2026-04-13T16:30:46.677Z</time></trkpt><trkpt lat="40.8731833" lon="14.182345"><ele>363.0</ele><time>2026-04-13T16:30:47.678Z</time></trkpt><trkpt lat="40.8732317" lon="14.182285"><ele>363.0</ele><time>2026-04-13T16:30:48.677Z</time></trkpt><trkpt lat="40.8732783" lon="14.182225"><ele>362.99999999999994</ele><time>2026-04-13T16:30:49.678Z</time></trkpt><trkpt lat="40.8733233" lon="14.1821617"><ele>363.0</ele><time>2026-04-13T16:30:50.678Z</time></trkpt><trkpt lat="40.8733667" lon="14.1820967"><ele>362.6666666666667</ele><time>2026-04-13T16:30:51.678Z</time></trkpt><trkpt lat="40.8734433" lon="14.181985"><ele>362.3333333333333</ele><time>2026-04-13T16:30:53.677Z</time></trkpt><trkpt lat="40.8734933" lon="14.1819233"><ele>362.0</ele><time>2026-04-13T16:30:55.677Z</time></trkpt><trkpt lat="40.8735267" lon="14.1818383"><ele>361.66666666666663</ele><time>2026-04-13T16:32:31.677Z</time></trkpt><trkpt lat="40.8735667" lon="14.18176"><ele>361.3333333333333</ele><time>2026-04-13T16:32:33.674Z</time></trkpt><trkpt lat="40.873595" lon="14.181665"><ele>361.0</ele><time>2026-04-13T16:32:35.676Z</time></trkpt><trkpt lat="40.8736133" lon="14.1815567"><ele>361.8</ele><time>2026-04-13T16:32:37.677Z</time></trkpt><trkpt lat="40.8736367" lon="14.1814217"><ele>362.6</ele><time>2026-04-13T16:32:39.677Z</time></trkpt><trkpt lat="40.8736517" lon="14.181285"><ele>363.4</ele><time>2026-04-13T16:32:41.676Z</time></trkpt><trkpt lat="40.87367" lon="14.1811433"><ele>364.2</ele><time>2026-04-13T16:32:43.676Z</time></trkpt><trkpt lat="40.873715" lon="14.181025"><ele>365.0</ele><time>2026-04-13T16:32:45.676Z</time></trkpt><trkpt lat="40.87376" lon="14.1809333"><ele>365.0</ele><time>2026-04-13T16:32:47.677Z</time></trkpt><trkpt lat="40.8738083" lon="14.1808317"><ele>365.0</ele><time>2026-04-13T16:32:50.674Z</time></trkpt><trkpt lat="40.8738333" lon="14.1807483"><ele>365.0</ele><time>2026-04-13T16:32:53.676Z</time></trkpt><trkpt lat="40.87386" lon="14.1806633"><ele>365.0</ele><time>2026-04-13T16:32:56.676Z</time></trkpt><trkpt lat="40.8738917" lon="14.1805767"><ele>365.0</ele><time>2026-04-13T16:32:59.678Z</time></trkpt><trkpt lat="40.87391" lon="14.18047"><ele>365.0</ele><time>2026-04-13T16:33:02.676Z</time></trkpt><trkpt lat="40.87394" lon="14.1803667"><ele>365.33333333333337</ele><time>2026-04-13T16:33:05.676Z</time></trkpt><trkpt lat="40.8739667" lon="14.18028"><ele>365.6666666666667</ele><time>2026-04-13T16:33:07.676Z</time></trkpt><trkpt lat="40.8740033" lon="14.1801883"><ele>366.0</ele><time>2026-04-13T16:33:09.677Z</time></trkpt><trkpt lat="40.874035" lon="14.180085"><ele>366.3333333333333</ele><time>2026-04-13T16:33:11.676Z</time></trkpt><trkpt lat="40.8740683" lon="14.1799617"><ele>366.66666666666663</ele><time>2026-04-13T16:33:13.676Z</time></trkpt><trkpt lat="40.874105" lon="14.1798367"><ele>367.0</ele><time>2026-04-13T16:33:15.675Z</time></trkpt><trkpt lat="40.8741383" lon="14.1796917"><ele>366.0</ele><time>2026-04-13T16:33:17.676Z</time></trkpt><trkpt lat="40.8741833" lon="14.1795383"><ele>365.0</ele><time>2026-04-13T16:33:19.676Z</time></trkpt><trkpt lat="40.874205" lon="14.1794533"><ele>364.0</ele><time>2026-04-13T16:33:20.676Z</time></trkpt><trkpt lat="40.8742133" lon="14.1793633"><ele>363.0</ele><time>2026-04-13T16:33:21.676Z</time></trkpt><trkpt lat="40.874225" lon="14.179275"><ele>362.0</ele><time>2026-04-13T16:33:22.676Z</time></trkpt><trkpt lat="40.8742317" lon="14.17918"><ele>361.0</ele><time>2026-04-13T16:33:23.676Z</time></trkpt><trkpt lat="40.87424" lon="14.1790783"><ele>360.5</ele><time>2026-04-13T16:33:24.676Z</time></trkpt><trkpt lat="40.8742333" lon="14.1789767"><ele>360.0</ele><time>2026-04-13T16:33:25.677Z</time></trkpt><trkpt lat="40.8742317" lon="14.178875"><ele>359.5</ele><time>2026-04-13T16:33:26.676Z</time></trkpt><trkpt lat="40.8742383" lon="14.17878"><ele>359.0</ele><time>2026-04-13T16:33:27.677Z</time></trkpt><trkpt lat="40.8742417" lon="14.178685"><ele>358.5</ele><time>2026-04-13T16:33:28.675Z</time></trkpt><trkpt lat="40.8742517" lon="14.17858"><ele>358.0</ele><time>2026-04-13T16:33:29.702Z</time></trkpt><trkpt lat="40.874275" lon="14.1783583"><ele>357.0</ele><time>2026-04-13T16:33:31.678Z</time></trkpt><trkpt lat="40.874315" lon="14.1781083"><ele>356.0</ele><time>2026-04-13T16:33:33.673Z</time></trkpt><trkpt lat="40.8743267" lon="14.1779883"><ele>355.0</ele><time>2026-04-13T16:33:34.674Z</time></trkpt><trkpt lat="40.874335" lon="14.1778683"><ele>354.0</ele><time>2026-04-13T16:33:35.677Z</time></trkpt><trkpt lat="40.8743517" lon="14.1777533"><ele>354.0</ele><time>2026-04-13T16:33:36.678Z</time></trkpt><trkpt lat="40.8743617" lon="14.1776617"><ele>354.0</ele><time>2026-04-13T16:33:37.675Z</time></trkpt><trkpt lat="40.874385" lon="14.1775817"><ele>354.0</ele><time>2026-04-13T16:33:38.676Z</time></trkpt><trkpt lat="40.8744233" lon="14.1775017"><ele>354.0</ele><time>2026-04-13T16:33:39.678Z</time></trkpt><trkpt lat="40.8744783" lon="14.1774467"><ele>354.0</ele><time>2026-04-13T16:33:40.675Z</time></trkpt><trkpt lat="40.8745383" lon="14.1773917"><ele>354.0</ele><time>2026-04-13T16:33:41.678Z</time></trkpt><trkpt lat="40.8746" lon="14.1773317"><ele>354.0</ele><time>2026-04-13T16:33:42.68Z</time></trkpt><trkpt lat="40.8746667" lon="14.1772767"><ele>353.5</ele><time>2026-04-13T16:33:43.676Z</time></trkpt><trkpt lat="40.8747433" lon="14.1772283"><ele>353.0</ele><time>2026-04-13T16:33:44.675Z</time></trkpt><trkpt lat="40.8748267" lon="14.1771883"><ele>352.5</ele><time>2026-04-13T16:33:45.674Z</time></trkpt><trkpt lat="40.874915" lon="14.1771533"><ele>352.0</ele><time>2026-04-13T16:33:46.676Z</time></trkpt><trkpt lat="40.875" lon="14.1771067"><ele>351.5</ele><time>2026-04-13T16:33:47.678Z</time></trkpt><trkpt lat="40.8750833" lon="14.1770633"><ele>351.0</ele><time>2026-04-13T16:33:48.678Z</time></trkpt><trkpt lat="40.8751533" lon="14.1770317"><ele>348.8</ele><time>2026-04-13T16:33:49.676Z</time></trkpt><trkpt lat="40.87526" lon="14.1769717"><ele>346.6</ele><time>2026-04-13T16:33:51.677Z</time></trkpt><trkpt lat="40.8753467" lon="14.17688"><ele>344.4</ele><time>2026-04-13T16:33:53.678Z</time></trkpt><trkpt lat="40.8753933" lon="14.1767483"><ele>342.2</ele><time>2026-04-13T16:33:55.676Z</time></trkpt><trkpt lat="40.8754133" lon="14.176665"><ele>340.0</ele><time>2026-04-13T16:33:56.676Z</time></trkpt><trkpt lat="40.87543" lon="14.17658"><ele>340.5</ele><time>2026-04-13T16:33:57.677Z</time></trkpt><trkpt lat="40.87545" lon="14.1764933"><ele>341.0</ele><time>2026-04-13T16:33:58.676Z</time></trkpt><trkpt lat="40.87547" lon="14.1764"><ele>341.5</ele><time>2026-04-13T16:33:59.673Z</time></trkpt><trkpt lat="40.8754883" lon="14.17631"><ele>342.0</ele><time>2026-04-13T16:34:00.674Z</time></trkpt><trkpt lat="40.8754967" lon="14.17616"><ele>342.5</ele><time>2026-04-13T16:34:02.676Z</time></trkpt><trkpt lat="40.8755283" lon="14.1760117"><ele>343.0</ele><time>2026-04-13T16:34:04.675Z</time></trkpt><trkpt lat="40.8755567" lon="14.1758533"><ele>343.0</ele><time>2026-04-13T16:34:06.677Z</time></trkpt><trkpt lat="40.87563" lon="14.17572"><ele>343.0</ele><time>2026-04-13T16:34:08.676Z</time></trkpt><trkpt lat="40.8756767" lon="14.1756567"><ele>343.0</ele><time>2026-04-13T16:34:09.678Z</time></trkpt><trkpt lat="40.8757233" lon="14.1755933"><ele>343.0</ele><time>2026-04-13T16:34:10.676Z</time></trkpt><trkpt lat="40.8758" lon="14.1754867"><ele>343.0</ele><time>2026-04-13T16:34:12.675Z</time></trkpt><trkpt lat="40.8758583" lon="14.1753983"><ele>342.79999999999995</ele><time>2026-04-13T16:34:14.675Z</time></trkpt><trkpt lat="40.8759117" lon="14.1752917"><ele>342.6</ele><time>2026-04-13T16:34:16.673Z</time></trkpt><trkpt lat="40.8759667" lon="14.1751767"><ele>342.4</ele><time>2026-04-13T16:34:18.674Z</time></trkpt><trkpt lat="40.8760183" lon="14.17505"><ele>342.20000000000005</ele><time>2026-04-13T16:34:20.675Z</time></trkpt><trkpt lat="40.8761117" lon="14.174945"><ele>342.0</ele><time>2026-04-13T16:34:22.675Z</time></trkpt><trkpt lat="40.8761667" lon="14.1748883"><ele>341.3333333333333</ele><time>2026-04-13T16:34:23.674Z</time></trkpt><trkpt lat="40.876225" lon="14.1748267"><ele>340.6666666666667</ele><time>2026-04-13T16:34:24.675Z</time></trkpt><trkpt lat="40.8762833" lon="14.1747683"><ele>340.0</ele><time>2026-04-13T16:34:25.676Z</time></trkpt><trkpt lat="40.8763483" lon="14.174695"><ele>339.33333333333337</ele><time>2026-04-13T16:34:26.676Z</time></trkpt><trkpt lat="40.876415" lon="14.1746183"><ele>338.6666666666667</ele><time>2026-04-13T16:34:27.676Z</time></trkpt><trkpt lat="40.87647" lon="14.1745383"><ele>338.0</ele><time>2026-04-13T16:34:28.675Z</time></trkpt><trkpt lat="40.8765183" lon="14.1744433"><ele>338.0</ele><time>2026-04-13T16:34:29.676Z</time></trkpt><trkpt lat="40.87655" lon="14.1743367"><ele>338.0</ele><time>2026-04-13T16:34:30.677Z</time></trkpt><trkpt lat="40.876575" lon="14.1742317"><ele>338.0</ele><time>2026-04-13T16:34:31.676Z</time></trkpt><trkpt lat="40.876595" lon="14.174125"><ele>338.0</ele><time>2026-04-13T16:34:32.676Z</time></trkpt><trkpt lat="40.8766117" lon="14.1740167"><ele>338.0</ele><time>2026-04-13T16:34:33.675Z</time></trkpt><trkpt lat="40.876625" lon="14.1739067"><ele>338.0</ele><time>2026-04-13T16:34:34.675Z</time></trkpt><trkpt lat="40.8766217" lon="14.173805"><ele>337.5</ele><time>2026-04-13T16:34:35.677Z</time></trkpt><trkpt lat="40.8765983" lon="14.1737033"><ele>337.0</ele><time>2026-04-13T16:34:36.676Z</time></trkpt><trkpt lat="40.8765467" lon="14.1736183"><ele>336.5</ele><time>2026-04-13T16:34:37.677Z</time></trkpt><trkpt lat="40.8764783" lon="14.17355"><ele>336.0</ele><time>2026-04-13T16:34:38.675Z</time></trkpt><trkpt lat="40.8764" lon="14.1735033"><ele>335.5</ele><time>2026-04-13T16:34:39.675Z</time></trkpt><trkpt lat="40.876325" lon="14.1734667"><ele>335.0</ele><time>2026-04-13T16:34:40.68Z</time></trkpt><trkpt lat="40.8762517" lon="14.173425"><ele>335.0</ele><time>2026-04-13T16:34:41.674Z</time></trkpt><trkpt lat="40.876155" lon="14.17342"><ele>335.0</ele><time>2026-04-13T16:34:42.672Z</time></trkpt><trkpt lat="40.8760467" lon="14.17344"><ele>335.0</ele><time>2026-04-13T16:34:43.678Z</time></trkpt><trkpt lat="40.8759567" lon="14.173525"><ele>335.0</ele><time>2026-04-13T16:34:44.675Z</time></trkpt><trkpt lat="40.875905" lon="14.1736533"><ele>335.0</ele><time>2026-04-13T16:34:45.674Z</time></trkpt><trkpt lat="40.8758567" lon="14.1737333"><ele>333.6666666666667</ele><time>2026-04-13T16:34:46.675Z</time></trkpt><trkpt lat="40.8757633" lon="14.17382"><ele>332.33333333333337</ele><time>2026-04-13T16:34:48.682Z</time></trkpt><trkpt lat="40.8756517" lon="14.1737983"><ele>331.0</ele><time>2026-04-13T16:34:50.679Z</time></trkpt><trkpt lat="40.87559" lon="14.1737667"><ele>329.6666666666667</ele><time>2026-04-13T16:34:51.68Z</time></trkpt><trkpt lat="40.87552" lon="14.1737333"><ele>328.3333333333333</ele><time>2026-04-13T16:34:52.676Z</time></trkpt><trkpt lat="40.8754533" lon="14.1736867"><ele>327.0</ele><time>2026-04-13T16:34:53.676Z</time></trkpt><trkpt lat="40.8753883" lon="14.17363"><ele>327.0</ele><time>2026-04-13T16:34:54.678Z</time></trkpt><trkpt lat="40.8753283" lon="14.17356"><ele>327.0</ele><time>2026-04-13T16:34:55.676Z</time></trkpt><trkpt lat="40.875265" lon="14.173485"><ele>327.0</ele><time>2026-04-13T16:34:56.675Z</time></trkpt><trkpt lat="40.8751967" lon="14.173415"><ele>327.0</ele><time>2026-04-13T16:34:57.675Z</time></trkpt><trkpt lat="40.8751217" lon="14.17335"><ele>327.0</ele><time>2026-04-13T16:34:58.675Z</time></trkpt><trkpt lat="40.8750433" lon="14.1732933"><ele>327.0</ele><time>2026-04-13T16:34:59.676Z</time></trkpt><trkpt lat="40.87497" lon="14.1732417"><ele>324.5</ele><time>2026-04-13T16:35:00.676Z</time></trkpt><trkpt lat="40.8749017" lon="14.17318"><ele>322.0</ele><time>2026-04-13T16:35:01.677Z</time></trkpt><trkpt lat="40.8748333" lon="14.1731033"><ele>319.5</ele><time>2026-04-13T16:35:02.674Z</time></trkpt><trkpt lat="40.87477" lon="14.1730217"><ele>317.0</ele><time>2026-04-13T16:35:03.676Z</time></trkpt><trkpt lat="40.8747083" lon="14.1729367"><ele>314.5</ele><time>2026-04-13T16:35:04.676Z</time></trkpt><trkpt lat="40.8746483" lon="14.1728383"><ele>312.0</ele><time>2026-04-13T16:35:05.677Z</time></trkpt><trkpt lat="40.8745867" lon="14.17274"><ele>312.0</ele><time>2026-04-13T16:35:06.676Z</time></trkpt><trkpt lat="40.87452" lon="14.17266"><ele>312.0</ele><time>2026-04-13T16:35:07.676Z</time></trkpt><trkpt lat="40.87444" lon="14.17261"><ele>312.0</ele><time>2026-04-13T16:35:08.676Z</time></trkpt><trkpt lat="40.874345" lon="14.1725883"><ele>312.0</ele><time>2026-04-13T16:35:09.677Z</time></trkpt><trkpt lat="40.8742433" lon="14.17258"><ele>312.0</ele><time>2026-04-13T16:35:10.675Z</time></trkpt><trkpt lat="40.874145" lon="14.1725683"><ele>312.6</ele><time>2026-04-13T16:35:11.677Z</time></trkpt><trkpt lat="40.8740517" lon="14.1725433"><ele>313.2</ele><time>2026-04-13T16:35:12.675Z</time></trkpt><trkpt lat="40.87396" lon="14.172515"><ele>313.8</ele><time>2026-04-13T16:35:13.676Z</time></trkpt><trkpt lat="40.8738833" lon="14.1724767"><ele>314.4</ele><time>2026-04-13T16:35:14.673Z</time></trkpt><trkpt lat="40.8738117" lon="14.1724467"><ele>315.0</ele><time>2026-04-13T16:35:15.673Z</time></trkpt><trkpt lat="40.8737033" lon="14.17238"><ele>315.0</ele><time>2026-04-13T16:35:17.675Z</time></trkpt><trkpt lat="40.8735983" lon="14.1723317"><ele>315.0</ele><time>2026-04-13T16:35:19.674Z</time></trkpt><trkpt lat="40.8735083" lon="14.172405"><ele>315.0</ele><time>2026-04-13T16:35:21.675Z</time></trkpt><trkpt lat="40.8734567" lon="14.1724717"><ele>315.0</ele><time>2026-04-13T16:35:22.674Z</time></trkpt><trkpt lat="40.8734133" lon="14.17257"><ele>315.0</ele><time>2026-04-13T16:35:23.676Z</time></trkpt><trkpt lat="40.8733667" lon="14.17267"><ele>314.0</ele><time>2026-04-13T16:35:24.678Z</time></trkpt><trkpt lat="40.8733167" lon="14.17277"><ele>313.0</ele><time>2026-04-13T16:35:25.678Z</time></trkpt><trkpt lat="40.873265" lon="14.1728667"><ele>312.0</ele><time>2026-04-13T16:35:26.677Z</time></trkpt><trkpt lat="40.873215" lon="14.17296"><ele>311.0</ele><time>2026-04-13T16:35:27.675Z</time></trkpt><trkpt lat="40.87316" lon="14.1730583"><ele>310.0</ele><time>2026-04-13T16:35:28.675Z</time></trkpt><trkpt lat="40.8731033" lon="14.1731533"><ele>310.3333333333333</ele><time>2026-04-13T16:35:29.676Z</time></trkpt><trkpt lat="40.8730483" lon="14.1732483"><ele>310.66666666666663</ele><time>2026-04-13T16:35:30.676Z</time></trkpt><trkpt lat="40.872995" lon="14.1733467"><ele>311.0</ele><time>2026-04-13T16:35:31.678Z</time></trkpt><trkpt lat="40.8729433" lon="14.1734483"><ele>311.3333333333333</ele><time>2026-04-13T16:35:32.676Z</time></trkpt><trkpt lat="40.8728933" lon="14.1735417"><ele>311.6666666666667</ele><time>2026-04-13T16:35:33.676Z</time></trkpt><trkpt lat="40.87284" lon="14.1736217"><ele>312.0</ele><time>2026-04-13T16:35:34.676Z</time></trkpt><trkpt lat="40.8727833" lon="14.1736783"><ele>312.0</ele><time>2026-04-13T16:35:35.676Z</time></trkpt><trkpt lat="40.8727167" lon="14.1737083"><ele>312.0</ele><time>2026-04-13T16:35:36.676Z</time></trkpt><trkpt lat="40.8726267" lon="14.1736833"><ele>312.0</ele><time>2026-04-13T16:35:37.676Z</time></trkpt><trkpt lat="40.8725367" lon="14.1736583"><ele>312.0</ele><time>2026-04-13T16:35:38.676Z</time></trkpt><trkpt lat="40.87245" lon="14.17366"><ele>312.0</ele><time>2026-04-13T16:35:39.676Z</time></trkpt><trkpt lat="40.87237" lon="14.1736917"><ele>312.0</ele><time>2026-04-13T16:35:40.677Z</time></trkpt><trkpt lat="40.872305" lon="14.17374"><ele>310.0</ele><time>2026-04-13T16:35:41.678Z</time></trkpt><trkpt lat="40.8722583" lon="14.1737967"><ele>308.0</ele><time>2026-04-13T16:35:42.677Z</time></trkpt><trkpt lat="40.8721833" lon="14.17389"><ele>306.0</ele><time>2026-04-13T16:35:44.676Z</time></trkpt><trkpt lat="40.8721067" lon="14.1738933"><ele>304.0</ele><time>2026-04-13T16:35:47.676Z</time></trkpt><trkpt lat="40.8721067" lon="14.17379"><ele>302.0</ele><time>2026-04-13T16:35:49.676Z</time></trkpt><trkpt lat="40.8721467" lon="14.1737133"><ele>300.0</ele><time>2026-04-13T16:35:50.676Z</time></trkpt><trkpt lat="40.8721983" lon="14.17365"><ele>300.0</ele><time>2026-04-13T16:35:51.675Z</time></trkpt><trkpt lat="40.8722483" lon="14.1735967"><ele>300.0</ele><time>2026-04-13T16:35:52.676Z</time></trkpt><trkpt lat="40.8723167" lon="14.1735483"><ele>300.0</ele><time>2026-04-13T16:35:53.677Z</time></trkpt><trkpt lat="40.8723967" lon="14.1735183"><ele>300.0</ele><time>2026-04-13T16:35:54.676Z</time></trkpt><trkpt lat="40.8724733" lon="14.1734983"><ele>300.0</ele><time>2026-04-13T16:35:55.676Z</time></trkpt><trkpt lat="40.87254" lon="14.17349"><ele>300.0</ele><time>2026-04-13T16:35:56.676Z</time></trkpt><trkpt lat="40.8726617" lon="14.1734867"><ele>301.6666666666667</ele><time>2026-04-13T16:35:58.676Z</time></trkpt><trkpt lat="40.8727383" lon="14.1733783"><ele>303.3333333333333</ele><time>2026-04-13T16:36:00.676Z</time></trkpt><trkpt lat="40.872755" lon="14.1732967"><ele>305.0</ele><time>2026-04-13T16:36:01.676Z</time></trkpt><trkpt lat="40.8727517" lon="14.173205"><ele>306.66666666666663</ele><time>2026-04-13T16:36:02.678Z</time></trkpt><trkpt lat="40.8727283" lon="14.1731083"><ele>308.3333333333333</ele><time>2026-04-13T16:36:03.676Z</time></trkpt><trkpt lat="40.8726933" lon="14.1730167"><ele>310.0</ele><time>2026-04-13T16:36:04.677Z</time></trkpt><trkpt lat="40.8726417" lon="14.17293"><ele>308.5</ele><time>2026-04-13T16:36:05.678Z</time></trkpt><trkpt lat="40.872575" lon="14.17286"><ele>307.0</ele><time>2026-04-13T16:36:06.676Z</time></trkpt><trkpt lat="40.872505" lon="14.1728083"><ele>305.5</ele><time>2026-04-13T16:36:07.678Z</time></trkpt><trkpt lat="40.8724233" lon="14.172775"><ele>304.0</ele><time>2026-04-13T16:36:08.676Z</time></trkpt><trkpt lat="40.8723367" lon="14.1727517"><ele>302.5</ele><time>2026-04-13T16:36:09.676Z</time></trkpt><trkpt lat="40.8722417" lon="14.1727317"><ele>301.0</ele><time>2026-04-13T16:36:10.676Z</time></trkpt><trkpt lat="40.8721417" lon="14.1727083"><ele>301.0</ele><time>2026-04-13T16:36:11.677Z</time></trkpt><trkpt lat="40.8720383" lon="14.17269"><ele>301.0</ele><time>2026-04-13T16:36:12.675Z</time></trkpt><trkpt lat="40.8719417" lon="14.1726733"><ele>301.0</ele><time>2026-04-13T16:36:13.675Z</time></trkpt><trkpt lat="40.8718433" lon="14.1726533"><ele>301.0</ele><time>2026-04-13T16:36:14.678Z</time></trkpt><trkpt lat="40.87174" lon="14.17264"><ele>301.0</ele><time>2026-04-13T16:36:15.675Z</time></trkpt><trkpt lat="40.8716417" lon="14.172625"><ele>298.0</ele><time>2026-04-13T16:36:16.676Z</time></trkpt><trkpt lat="40.8715583" lon="14.1726017"><ele>295.0</ele><time>2026-04-13T16:36:17.677Z</time></trkpt><trkpt lat="40.8714817" lon="14.172575"><ele>292.0</ele><time>2026-04-13T16:36:18.676Z</time></trkpt><trkpt lat="40.87142" lon="14.172535"><ele>289.0</ele><time>2026-04-13T16:36:19.678Z</time></trkpt><trkpt lat="40.87136" lon="14.1724933"><ele>286.0</ele><time>2026-04-13T16:36:20.677Z</time></trkpt><trkpt lat="40.87128" lon="14.1724067"><ele>283.0</ele><time>2026-04-13T16:36:22.676Z</time></trkpt><trkpt lat="40.87129" lon="14.17226"><ele>282.0</ele><time>2026-04-13T16:36:24.676Z</time></trkpt><trkpt lat="40.8713717" lon="14.17214"><ele>281.0</ele><time>2026-04-13T16:36:25.676Z</time></trkpt><trkpt lat="40.871455" lon="14.1720467"><ele>280.0</ele><time>2026-04-13T16:36:26.676Z</time></trkpt><trkpt lat="40.8715383" lon="14.1719567"><ele>279.0</ele><time>2026-04-13T16:36:27.675Z</time></trkpt><trkpt lat="40.87163" lon="14.171865"><ele>279.0</ele><time>2026-04-13T16:36:28.676Z</time></trkpt><trkpt lat="40.8716983" lon="14.1717783"><ele>279.0</ele><time>2026-04-13T16:36:29.678Z</time></trkpt><trkpt lat="40.8717483" lon="14.1716717"><ele>279.0</ele><time>2026-04-13T16:36:30.676Z</time></trkpt><trkpt lat="40.871765" lon="14.171555"><ele>279.0</ele><time>2026-04-13T16:36:31.677Z</time></trkpt><trkpt lat="40.8717633" lon="14.1714367"><ele>279.0</ele><time>2026-04-13T16:36:32.677Z</time></trkpt><trkpt lat="40.8717483" lon="14.171345"><ele>279.0</ele><time>2026-04-13T16:36:33.677Z</time></trkpt><trkpt lat="40.8717517" lon="14.1711917"><ele>278.4285714285714</ele><time>2026-04-13T16:36:35.677Z</time></trkpt><trkpt lat="40.8717767" lon="14.1711133"><ele>277.85714285714283</ele><time>2026-04-13T16:36:36.677Z</time></trkpt><trkpt lat="40.8718033" lon="14.1710267"><ele>277.2857142857143</ele><time>2026-04-13T16:36:37.677Z</time></trkpt><trkpt lat="40.8718083" lon="14.170935"><ele>276.71428571428567</ele><time>2026-04-13T16:36:38.679Z</time></trkpt><trkpt lat="40.8717917" lon="14.1708417"><ele>276.1428571428571</ele><time>2026-04-13T16:36:39.676Z</time></trkpt><trkpt lat="40.8717583" lon="14.1707533"><ele>275.57142857142856</ele><time>2026-04-13T16:36:40.676Z</time></trkpt><trkpt lat="40.8717083" lon="14.1706817"><ele>275.0</ele><time>2026-04-13T16:36:41.677Z</time></trkpt><trkpt lat="40.871615" lon="14.17066"><ele>275.0</ele><time>2026-04-13T16:36:42.676Z</time></trkpt><trkpt lat="40.871535" lon="14.170625"><ele>275.0</ele><time>2026-04-13T16:36:43.676Z</time></trkpt><trkpt lat="40.871475" lon="14.170585"><ele>275.0</ele><time>2026-04-13T16:36:44.676Z</time></trkpt><trkpt lat="40.8714117" lon="14.1704867"><ele>275.0</ele><time>2026-04-13T16:36:46.676Z</time></trkpt><trkpt lat="40.8714317" lon="14.17035"><ele>275.0</ele><time>2026-04-13T16:36:48.674Z</time></trkpt><trkpt lat="40.8714433" lon="14.170255"><ele>275.0</ele><time>2026-04-13T16:36:49.676Z</time></trkpt><trkpt lat="40.8714417" lon="14.1701517"><ele>275.0</ele><time>2026-04-13T16:36:50.675Z</time></trkpt><trkpt lat="40.8714367" lon="14.1700467"><ele>275.0</ele><time>2026-04-13T16:36:51.676Z</time></trkpt><trkpt lat="40.87142" lon="14.16996"><ele>275.0</ele><time>2026-04-13T16:36:52.676Z</time></trkpt><trkpt lat="40.8713567" lon="14.169845"><ele>275.0</ele><time>2026-04-13T16:36:54.674Z</time></trkpt><trkpt lat="40.8712267" lon="14.16989"><ele>275.0</ele><time>2026-04-13T16:36:56.674Z</time></trkpt><trkpt lat="40.8711267" lon="14.1700133"><ele>275.0</ele><time>2026-04-13T16:36:57.676Z</time></trkpt><trkpt lat="40.8710433" lon="14.1701117"><ele>275.0</ele><time>2026-04-13T16:36:58.675Z</time></trkpt><trkpt lat="40.8709667" lon="14.170205"><ele>275.0</ele><time>2026-04-13T16:36:59.677Z</time></trkpt><trkpt lat="40.8708933" lon="14.1703083"><ele>275.0</ele><time>2026-04-13T16:37:00.676Z</time></trkpt><trkpt lat="40.8708283" lon="14.1704217"><ele>275.0</ele><time>2026-04-13T16:37:01.676Z</time></trkpt><trkpt lat="40.8707733" lon="14.170525"><ele>272.4</ele><time>2026-04-13T16:37:02.676Z</time></trkpt><trkpt lat="40.87071" lon="14.1706233"><ele>269.8</ele><time>2026-04-13T16:37:03.675Z</time></trkpt><trkpt lat="40.87064" lon="14.1707067"><ele>267.2</ele><time>2026-04-13T16:37:04.675Z</time></trkpt><trkpt lat="40.8705733" lon="14.1707667"><ele>264.6</ele><time>2026-04-13T16:37:05.676Z</time></trkpt><trkpt lat="40.870495" lon="14.170805"><ele>262.0</ele><time>2026-04-13T16:37:06.676Z</time></trkpt><trkpt lat="40.8703917" lon="14.1708183"><ele>260.8333333333333</ele><time>2026-04-13T16:37:07.676Z</time></trkpt><trkpt lat="40.8703017" lon="14.1708267"><ele>259.66666666666663</ele><time>2026-04-13T16:37:08.676Z</time></trkpt><trkpt lat="40.8702167" lon="14.17082"><ele>258.5</ele><time>2026-04-13T16:37:09.675Z</time></trkpt><trkpt lat="40.8701433" lon="14.170805"><ele>257.3333333333333</ele><time>2026-04-13T16:37:10.676Z</time></trkpt><trkpt lat="40.87008" lon="14.1707767"><ele>256.1666666666667</ele><time>2026-04-13T16:37:11.676Z</time></trkpt><trkpt lat="40.8700267" lon="14.170665"><ele>255.0</ele><time>2026-04-13T16:37:13.676Z</time></trkpt><trkpt lat="40.870075" lon="14.17048"><ele>256.4</ele><time>2026-04-13T16:37:15.674Z</time></trkpt><trkpt lat="40.87013" lon="14.17036"><ele>257.8</ele><time>2026-04-13T16:37:16.675Z</time></trkpt><trkpt lat="40.8701883" lon="14.17025"><ele>259.2</ele><time>2026-04-13T16:37:17.677Z</time></trkpt><trkpt lat="40.87026" lon="14.1701383"><ele>260.6</ele><time>2026-04-13T16:37:18.674Z</time></trkpt><trkpt lat="40.87034" lon="14.17004"><ele>262.0</ele><time>2026-04-13T16:37:19.677Z</time></trkpt><trkpt lat="40.8704317" lon="14.1699533"><ele>262.0</ele><time>2026-04-13T16:37:20.674Z</time></trkpt><trkpt lat="40.870525" lon="14.1698717"><ele>262.0</ele><time>2026-04-13T16:37:21.675Z</time></trkpt><trkpt lat="40.8706" lon="14.1698067"><ele>262.0</ele><time>2026-04-13T16:37:22.675Z</time></trkpt><trkpt lat="40.8706617" lon="14.16974"><ele>262.0</ele><time>2026-04-13T16:37:23.676Z</time></trkpt><trkpt lat="40.870715" lon="14.16967"><ele>262.0</ele><time>2026-04-13T16:37:24.675Z</time></trkpt><trkpt lat="40.8707617" lon="14.1695583"><ele>262.5</ele><time>2026-04-13T16:37:26.676Z</time></trkpt><trkpt lat="40.8706517" lon="14.1694783"><ele>263.0</ele><time>2026-04-13T16:37:28.676Z</time></trkpt><trkpt lat="40.8705683" lon="14.1694567"><ele>263.5</ele><time>2026-04-13T16:37:29.675Z</time></trkpt><trkpt lat="40.8704433" lon="14.169465"><ele>264.0</ele><time>2026-04-13T16:37:30.677Z</time></trkpt><trkpt lat="40.8703283" lon="14.1694833"><ele>264.0</ele><time>2026-04-13T16:37:31.674Z</time></trkpt><trkpt lat="40.870205" lon="14.1695167"><ele>264.0</ele><time>2026-04-13T16:37:32.676Z</time></trkpt><trkpt lat="40.870095" lon="14.169565"><ele>264.0</ele><time>2026-04-13T16:37:33.674Z</time></trkpt><trkpt lat="40.8699967" lon="14.169615"><ele>264.0</ele><time>2026-04-13T16:37:34.675Z</time></trkpt><trkpt lat="40.8698967" lon="14.16968"><ele>260.8</ele><time>2026-04-13T16:37:35.676Z</time></trkpt><trkpt lat="40.86981" lon="14.1697433"><ele>257.59999999999997</ele><time>2026-04-13T16:37:36.676Z</time></trkpt><trkpt lat="40.86971" lon="14.1698133"><ele>254.4</ele><time>2026-04-13T16:37:37.676Z</time></trkpt><trkpt lat="40.8696133" lon="14.1698867"><ele>251.2</ele><time>2026-04-13T16:37:38.677Z</time></trkpt><trkpt lat="40.8695183" lon="14.1699733"><ele>248.0</ele><time>2026-04-13T16:37:39.674Z</time></trkpt><trkpt lat="40.8694267" lon="14.1700683"><ele>246.5</ele><time>2026-04-13T16:37:40.676Z</time></trkpt><trkpt lat="40.8693367" lon="14.1701633"><ele>245.0</ele><time>2026-04-13T16:37:41.677Z</time></trkpt><trkpt lat="40.8692583" lon="14.1702767"><ele>243.5</ele><time>2026-04-13T16:37:42.674Z</time></trkpt><trkpt lat="40.86918" lon="14.1704083"><ele>242.0</ele><time>2026-04-13T16:37:43.677Z</time></trkpt><trkpt lat="40.869105" lon="14.1705583"><ele>238.2</ele><time>2026-04-13T16:37:44.676Z</time></trkpt><trkpt lat="40.8690433" lon="14.1706933"><ele>234.39999999999998</ele><time>2026-04-13T16:37:45.677Z</time></trkpt><trkpt lat="40.868995" lon="14.170815"><ele>230.60000000000002</ele><time>2026-04-13T16:37:46.676Z</time></trkpt><trkpt lat="40.8689567" lon="14.1709117"><ele>226.8</ele><time>2026-04-13T16:37:47.675Z</time></trkpt><trkpt lat="40.8689233" lon="14.17099"><ele>223.0</ele><time>2026-04-13T16:37:48.676Z</time></trkpt><trkpt lat="40.8688167" lon="14.171055"><ele>222.99999999999997</ele><time>2026-04-13T16:37:50.675Z</time></trkpt><trkpt lat="40.8687483" lon="14.17103"><ele>223.0</ele><time>2026-04-13T16:37:51.674Z</time></trkpt><trkpt lat="40.8686733" lon="14.17097"><ele>223.0</ele><time>2026-04-13T16:37:52.676Z</time></trkpt><trkpt lat="40.868595" lon="14.17092"><ele>223.0</ele><time>2026-04-13T16:37:53.676Z</time></trkpt><trkpt lat="40.86851" lon="14.1708717"><ele>222.99999999999997</ele><time>2026-04-13T16:37:54.677Z</time></trkpt><trkpt lat="40.8684233" lon="14.1708217"><ele>223.0</ele><time>2026-04-13T16:37:55.676Z</time></trkpt><trkpt lat="40.8683317" lon="14.17078"><ele>221.60000000000002</ele><time>2026-04-13T16:37:56.677Z</time></trkpt><trkpt lat="40.868235" lon="14.1707367"><ele>220.20000000000002</ele><time>2026-04-13T16:37:57.675Z</time></trkpt><trkpt lat="40.8681383" lon="14.1706983"><ele>218.8</ele><time>2026-04-13T16:37:58.676Z</time></trkpt><trkpt lat="40.8680383" lon="14.1706667"><ele>217.4</ele><time>2026-04-13T16:37:59.675Z</time></trkpt><trkpt lat="40.867935" lon="14.170635"><ele>216.0</ele><time>2026-04-13T16:38:00.676Z</time></trkpt><trkpt lat="40.86783" lon="14.170605"><ele>216.20000000000002</ele><time>2026-04-13T16:38:01.676Z</time></trkpt><trkpt lat="40.867725" lon="14.1705867"><ele>216.40000000000003</ele><time>2026-04-13T16:38:02.677Z</time></trkpt><trkpt lat="40.8676167" lon="14.1705767"><ele>216.6</ele><time>2026-04-13T16:38:03.677Z</time></trkpt><trkpt lat="40.8675017" lon="14.1705867"><ele>216.8</ele><time>2026-04-13T16:38:04.676Z</time></trkpt><trkpt lat="40.8673867" lon="14.170605"><ele>217.0</ele><time>2026-04-13T16:38:05.674Z</time></trkpt><trkpt lat="40.8672783" lon="14.17063"><ele>216.99999999999997</ele><time>2026-04-13T16:38:06.676Z</time></trkpt><trkpt lat="40.8671767" lon="14.1706567"><ele>217.0</ele><time>2026-04-13T16:38:07.676Z</time></trkpt><trkpt lat="40.8670833" lon="14.1706767"><ele>217.0</ele><time>2026-04-13T16:38:08.676Z</time></trkpt><trkpt lat="40.867" lon="14.1706883"><ele>217.0</ele><time>2026-04-13T16:38:09.676Z</time></trkpt><trkpt lat="40.8669233" lon="14.1706867"><ele>216.99999999999997</ele><time>2026-04-13T16:38:10.676Z</time></trkpt><trkpt lat="40.8668567" lon="14.1706633"><ele>217.0</ele><time>2026-04-13T16:38:11.676Z</time></trkpt><trkpt lat="40.8668033" lon="14.1706067"><ele>216.99999999999997</ele><time>2026-04-13T16:38:12.674Z</time></trkpt><trkpt lat="40.8667667" lon="14.1705233"><ele>217.0</ele><time>2026-04-13T16:38:13.676Z</time></trkpt><trkpt lat="40.8667467" lon="14.1704183"><ele>217.0</ele><time>2026-04-13T16:38:14.677Z</time></trkpt><trkpt lat="40.86674" lon="14.1703017"><ele>217.0</ele><time>2026-04-13T16:38:15.674Z</time></trkpt><trkpt lat="40.86674" lon="14.1701867"><ele>216.99999999999997</ele><time>2026-04-13T16:38:16.675Z</time></trkpt><trkpt lat="40.86677" lon="14.170085"><ele>217.0</ele><time>2026-04-13T16:38:17.675Z</time></trkpt><trkpt lat="40.866815" lon="14.17"><ele>217.0</ele><time>2026-04-13T16:38:18.674Z</time></trkpt><trkpt lat="40.8669" lon="14.1699467"><ele>217.0</ele><time>2026-04-13T16:38:19.674Z</time></trkpt><trkpt lat="40.866985" lon="14.1698933"><ele>217.0</ele><time>2026-04-13T16:38:20.674Z</time></trkpt><trkpt lat="40.8670667" lon="14.16984"><ele>217.0</ele><time>2026-04-13T16:38:21.676Z</time></trkpt><trkpt lat="40.867145" lon="14.16977"><ele>217.0</ele><time>2026-04-13T16:38:22.675Z</time></trkpt><trkpt lat="40.8672167" lon="14.1697"><ele>216.66666666666666</ele><time>2026-04-13T16:38:23.677Z</time></trkpt><trkpt lat="40.8672483" lon="14.1696083"><ele>216.33333333333331</ele><time>2026-04-13T16:38:24.674Z</time></trkpt><trkpt lat="40.8672483" lon="14.1695167"><ele>216.0</ele><time>2026-04-13T16:38:25.675Z</time></trkpt><trkpt lat="40.8672333" lon="14.169435"><ele>215.66666666666669</ele><time>2026-04-13T16:38:26.676Z</time></trkpt><trkpt lat="40.8671483" lon="14.1693317"><ele>215.33333333333334</ele><time>2026-04-13T16:38:28.676Z</time></trkpt><trkpt lat="40.867075" lon="14.1693217"><ele>215.0</ele><time>2026-04-13T16:38:29.677Z</time></trkpt><trkpt lat="40.8670083" lon="14.1693"><ele>215.0</ele><time>2026-04-13T16:38:30.676Z</time></trkpt><trkpt lat="40.8669217" lon="14.1693133"><ele>215.0</ele><time>2026-04-13T16:38:31.676Z</time></trkpt><trkpt lat="40.8667983" lon="14.1693533"><ele>215.0</ele><time>2026-04-13T16:38:32.676Z</time></trkpt><trkpt lat="40.8666983" lon="14.1693767"><ele>215.0</ele><time>2026-04-13T16:38:33.675Z</time></trkpt><trkpt lat="40.866595" lon="14.169395"><ele>215.0</ele><time>2026-04-13T16:38:34.674Z</time></trkpt><trkpt lat="40.8665" lon="14.1694067"><ele>211.8</ele><time>2026-04-13T16:38:35.676Z</time></trkpt><trkpt lat="40.8664" lon="14.16942"><ele>208.6</ele><time>2026-04-13T16:38:36.675Z</time></trkpt><trkpt lat="40.86629" lon="14.16944"><ele>205.39999999999998</ele><time>2026-04-13T16:38:37.676Z</time></trkpt><trkpt lat="40.8661983" lon="14.1694483"><ele>202.2</ele><time>2026-04-13T16:38:38.674Z</time></trkpt><trkpt lat="40.866115" lon="14.16945"><ele>199.0</ele><time>2026-04-13T16:38:39.675Z</time></trkpt><trkpt lat="40.8660533" lon="14.1694283"><ele>199.0</ele><time>2026-04-13T16:38:40.677Z</time></trkpt><trkpt lat="40.865985" lon="14.1693217"><ele>199.0</ele><time>2026-04-13T16:38:42.676Z</time></trkpt><trkpt lat="40.8660217" lon="14.1691567"><ele>199.0</ele><time>2026-04-13T16:38:44.675Z</time></trkpt><trkpt lat="40.86607" lon="14.1690767"><ele>199.0</ele><time>2026-04-13T16:38:45.674Z</time></trkpt><trkpt lat="40.8661167" lon="14.168995"><ele>199.0</ele><time>2026-04-13T16:38:46.676Z</time></trkpt><trkpt lat="40.8661717" lon="14.168905"><ele>197.49999999999997</ele><time>2026-04-13T16:38:47.675Z</time></trkpt><trkpt lat="40.8662217" lon="14.1688167"><ele>196.0</ele><time>2026-04-13T16:38:48.676Z</time></trkpt><trkpt lat="40.86628" lon="14.1687267"><ele>194.5</ele><time>2026-04-13T16:38:49.675Z</time></trkpt><trkpt lat="40.8663383" lon="14.1686383"><ele>193.0</ele><time>2026-04-13T16:38:50.674Z</time></trkpt><trkpt lat="40.8663917" lon="14.1685433"><ele>191.5</ele><time>2026-04-13T16:38:51.674Z</time></trkpt><trkpt lat="40.8664367" lon="14.1684483"><ele>190.0</ele><time>2026-04-13T16:38:52.674Z</time></trkpt><trkpt lat="40.86647" lon="14.1683383"><ele>190.0</ele><time>2026-04-13T16:38:53.676Z</time></trkpt><trkpt lat="40.8664833" lon="14.1682333"><ele>190.0</ele><time>2026-04-13T16:38:54.675Z</time></trkpt><trkpt lat="40.8664917" lon="14.16813"><ele>190.0</ele><time>2026-04-13T16:38:55.677Z</time></trkpt><trkpt lat="40.86641" lon="14.1680333"><ele>190.0</ele><time>2026-04-13T16:38:57.678Z</time></trkpt><trkpt lat="40.8663433" lon="14.168065"><ele>190.0</ele><time>2026-04-13T16:38:58.676Z</time></trkpt><trkpt lat="40.86627" lon="14.168155"><ele>190.0</ele><time>2026-04-13T16:38:59.675Z</time></trkpt><trkpt lat="40.8662083" lon="14.16822"><ele>190.0</ele><time>2026-04-13T16:39:00.676Z</time></trkpt><trkpt lat="40.8661483" lon="14.16829"><ele>190.0</ele><time>2026-04-13T16:39:01.676Z</time></trkpt><trkpt lat="40.8660933" lon="14.16836"><ele>190.0</ele><time>2026-04-13T16:39:02.677Z</time></trkpt><trkpt lat="40.8660383" lon="14.1684417"><ele>190.0</ele><time>2026-04-13T16:39:03.677Z</time></trkpt><trkpt lat="40.8659867" lon="14.1685233"><ele>190.0</ele><time>2026-04-13T16:39:04.676Z</time></trkpt><trkpt lat="40.86593" lon="14.1685983"><ele>190.0</ele><time>2026-04-13T16:39:05.676Z</time></trkpt><trkpt lat="40.8658733" lon="14.1686733"><ele>188.16666666666669</ele><time>2026-04-13T16:39:06.677Z</time></trkpt><trkpt lat="40.865815" lon="14.16875"><ele>186.33333333333334</ele><time>2026-04-13T16:39:07.677Z</time></trkpt><trkpt lat="40.8657617" lon="14.16883"><ele>184.5</ele><time>2026-04-13T16:39:08.676Z</time></trkpt><trkpt lat="40.8657083" lon="14.1689117"><ele>182.66666666666666</ele><time>2026-04-13T16:39:09.674Z</time></trkpt><trkpt lat="40.8656567" lon="14.1689917"><ele>180.83333333333331</ele><time>2026-04-13T16:39:10.674Z</time></trkpt><trkpt lat="40.86561" lon="14.1690733"><ele>179.0</ele><time>2026-04-13T16:39:11.676Z</time></trkpt><trkpt lat="40.86556" lon="14.169155"><ele>179.0</ele><time>2026-04-13T16:39:12.676Z</time></trkpt><trkpt lat="40.8655167" lon="14.16924"><ele>179.0</ele><time>2026-04-13T16:39:13.677Z</time></trkpt><trkpt lat="40.8654817" lon="14.16933"><ele>179.0</ele><time>2026-04-13T16:39:14.678Z</time></trkpt><trkpt lat="40.86545" lon="14.1694267"><ele>179.0</ele><time>2026-04-13T16:39:15.675Z</time></trkpt><trkpt lat="40.865425" lon="14.1695233"><ele>179.0</ele><time>2026-04-13T16:39:16.676Z</time></trkpt><trkpt lat="40.865405" lon="14.1696233"><ele>179.0</ele><time>2026-04-13T16:39:17.675Z</time></trkpt><trkpt lat="40.865385" lon="14.169725"><ele>179.0</ele><time>2026-04-13T16:39:18.676Z</time></trkpt><trkpt lat="40.8653667" lon="14.1698267"><ele>179.0</ele><time>2026-04-13T16:39:19.677Z</time></trkpt><trkpt lat="40.8653467" lon="14.16993"><ele>179.0</ele><time>2026-04-13T16:39:20.676Z</time></trkpt><trkpt lat="40.8653283" lon="14.1700317"><ele>179.0</ele><time>2026-04-13T16:39:21.676Z</time></trkpt><trkpt lat="40.86531" lon="14.170135"><ele>179.0</ele><time>2026-04-13T16:39:22.676Z</time></trkpt><trkpt lat="40.8652933" lon="14.17024"><ele>179.0</ele><time>2026-04-13T16:39:23.676Z</time></trkpt><trkpt lat="40.865275" lon="14.170345"><ele>178.83333333333331</ele><time>2026-04-13T16:39:24.676Z</time></trkpt><trkpt lat="40.8652533" lon="14.1704467"><ele>178.66666666666666</ele><time>2026-04-13T16:39:25.676Z</time></trkpt><trkpt lat="40.8652333" lon="14.17055"><ele>178.5</ele><time>2026-04-13T16:39:26.676Z</time></trkpt><trkpt lat="40.8652167" lon="14.1706517"><ele>178.33333333333334</ele><time>2026-04-13T16:39:27.674Z</time></trkpt><trkpt lat="40.8651983" lon="14.1707517"><ele>178.16666666666669</ele><time>2026-04-13T16:39:28.676Z</time></trkpt><trkpt lat="40.86518" lon="14.1708517"><ele>178.0</ele><time>2026-04-13T16:39:29.678Z</time></trkpt><trkpt lat="40.8651617" lon="14.1709533"><ele>177.83333333333334</ele><time>2026-04-13T16:39:30.676Z</time></trkpt><trkpt lat="40.8651433" lon="14.17105"><ele>177.66666666666669</ele><time>2026-04-13T16:39:31.676Z</time></trkpt><trkpt lat="40.865125" lon="14.17115"><ele>177.5</ele><time>2026-04-13T16:39:32.676Z</time></trkpt><trkpt lat="40.865105" lon="14.1712517"><ele>177.33333333333334</ele><time>2026-04-13T16:39:33.675Z</time></trkpt><trkpt lat="40.8650833" lon="14.1713567"><ele>177.16666666666666</ele><time>2026-04-13T16:39:34.675Z</time></trkpt><trkpt lat="40.8650583" lon="14.17146"><ele>177.0</ele><time>2026-04-13T16:39:35.676Z</time></trkpt><trkpt lat="40.86503" lon="14.17156"><ele>176.0</ele><time>2026-04-13T16:39:36.676Z</time></trkpt><trkpt lat="40.8650017" lon="14.1716583"><ele>175.0</ele><time>2026-04-13T16:39:37.677Z</time></trkpt><trkpt lat="40.8649683" lon="14.171755"><ele>174.0</ele><time>2026-04-13T16:39:38.677Z</time></trkpt><trkpt lat="40.86494" lon="14.17185"><ele>173.0</ele><time>2026-04-13T16:39:39.674Z</time></trkpt><trkpt lat="40.8649117" lon="14.1719467"><ele>172.0</ele><time>2026-04-13T16:39:40.676Z</time></trkpt><trkpt lat="40.86488" lon="14.1720383"><ele>171.0</ele><time>2026-04-13T16:39:41.677Z</time></trkpt><trkpt lat="40.8648317" lon="14.172155"><ele>171.0</ele><time>2026-04-13T16:39:43.675Z</time></trkpt><trkpt lat="40.8647517" lon="14.1720967"><ele>171.0</ele><time>2026-04-13T16:39:47.676Z</time></trkpt><trkpt lat="40.864715" lon="14.1719833"><ele>171.0</ele><time>2026-04-13T16:39:49.675Z</time></trkpt><trkpt lat="40.8646733" lon="14.1718583"><ele>171.0</ele><time>2026-04-13T16:39:51.676Z</time></trkpt><trkpt lat="40.8646233" lon="14.1717133"><ele>171.0</ele><time>2026-04-13T16:39:53.676Z</time></trkpt><trkpt lat="40.8645667" lon="14.1715667"><ele>170.66666666666666</ele><time>2026-04-13T16:39:55.676Z</time></trkpt><trkpt lat="40.8645367" lon="14.1714933"><ele>170.33333333333334</ele><time>2026-04-13T16:39:56.676Z</time></trkpt><trkpt lat="40.8644733" lon="14.17135"><ele>170.0</ele><time>2026-04-13T16:39:58.676Z</time></trkpt><trkpt lat="40.864435" lon="14.1712817"><ele>169.66666666666669</ele><time>2026-04-13T16:39:59.676Z</time></trkpt><trkpt lat="40.8643967" lon="14.171215"><ele>169.33333333333334</ele><time>2026-04-13T16:40:00.675Z</time></trkpt><trkpt lat="40.864355" lon="14.171145"><ele>169.0</ele><time>2026-04-13T16:40:01.677Z</time></trkpt><trkpt lat="40.8642983" lon="14.1710017"><ele>169.0</ele><time>2026-04-13T16:40:03.674Z</time></trkpt><trkpt lat="40.8642233" lon="14.170865"><ele>169.0</ele><time>2026-04-13T16:40:05.676Z</time></trkpt><trkpt lat="40.8641833" lon="14.1707883"><ele>169.0</ele><time>2026-04-13T16:40:06.674Z</time></trkpt><trkpt lat="40.864145" lon="14.1707167"><ele>169.0</ele><time>2026-04-13T16:40:07.675Z</time></trkpt><trkpt lat="40.864105" lon="14.17065"><ele>169.0</ele><time>2026-04-13T16:40:08.676Z</time></trkpt><trkpt lat="40.8640667" lon="14.17058"><ele>169.0</ele><time>2026-04-13T16:40:09.675Z</time></trkpt><trkpt lat="40.8640317" lon="14.170505"><ele>169.0</ele><time>2026-04-13T16:40:10.676Z</time></trkpt><trkpt lat="40.8640033" lon="14.170425"><ele>169.0</ele><time>2026-04-13T16:40:11.676Z</time></trkpt><trkpt lat="40.863965" lon="14.1703517"><ele>169.0</ele><time>2026-04-13T16:40:12.679Z</time></trkpt><trkpt lat="40.86393" lon="14.170275"><ele>169.0</ele><time>2026-04-13T16:40:13.678Z</time></trkpt><trkpt lat="40.8638983" lon="14.1701983"><ele>169.0</ele><time>2026-04-13T16:40:14.674Z</time></trkpt><trkpt lat="40.8638667" lon="14.1701233"><ele>169.0</ele><time>2026-04-13T16:40:15.676Z</time></trkpt><trkpt lat="40.8638317" lon="14.170045"><ele>169.0</ele><time>2026-04-13T16:40:16.676Z</time></trkpt><trkpt lat="40.863795" lon="14.1699683"><ele>169.0</ele><time>2026-04-13T16:40:17.674Z</time></trkpt><trkpt lat="40.86376" lon="14.1698933"><ele>169.0</ele><time>2026-04-13T16:40:18.674Z</time></trkpt><trkpt lat="40.8637283" lon="14.1698183"><ele>169.0</ele><time>2026-04-13T16:40:19.675Z</time></trkpt><trkpt lat="40.8636883" lon="14.1697433"><ele>169.0</ele><time>2026-04-13T16:40:20.677Z</time></trkpt><trkpt lat="40.86365" lon="14.1696683"><ele>169.0</ele><time>2026-04-13T16:40:21.676Z</time></trkpt><trkpt lat="40.8636083" lon="14.1695917"><ele>169.0</ele><time>2026-04-13T16:40:22.676Z</time></trkpt><trkpt lat="40.8635717" lon="14.16951"><ele>169.0</ele><time>2026-04-13T16:40:23.676Z</time></trkpt><trkpt lat="40.8635333" lon="14.1694283"><ele>169.14285714285714</ele><time>2026-04-13T16:40:24.676Z</time></trkpt><trkpt lat="40.8634967" lon="14.1693483"><ele>169.28571428571428</ele><time>2026-04-13T16:40:25.676Z</time></trkpt><trkpt lat="40.86346" lon="14.169265"><ele>169.42857142857144</ele><time>2026-04-13T16:40:26.676Z</time></trkpt><trkpt lat="40.8634217" lon="14.1691817"><ele>169.57142857142856</ele><time>2026-04-13T16:40:27.675Z</time></trkpt><trkpt lat="40.863385" lon="14.1691017"><ele>169.7142857142857</ele><time>2026-04-13T16:40:28.677Z</time></trkpt><trkpt lat="40.863355" lon="14.1690283"><ele>169.85714285714286</ele><time>2026-04-13T16:40:29.675Z</time></trkpt><trkpt lat="40.8633267" lon="14.1689517"><ele>170.0</ele><time>2026-04-13T16:40:30.675Z</time></trkpt><trkpt lat="40.8632717" lon="14.1687983"><ele>169.66666666666666</ele><time>2026-04-13T16:40:32.674Z</time></trkpt><trkpt lat="40.86326" lon="14.1687117"><ele>169.33333333333331</ele><time>2026-04-13T16:40:33.674Z</time></trkpt><trkpt lat="40.863245" lon="14.1686217"><ele>169.0</ele><time>2026-04-13T16:40:34.676Z</time></trkpt><trkpt lat="40.8632267" lon="14.16854"><ele>168.66666666666666</ele><time>2026-04-13T16:40:35.677Z</time></trkpt><trkpt lat="40.86319" lon="14.168375"><ele>168.33333333333334</ele><time>2026-04-13T16:40:37.677Z</time></trkpt><trkpt lat="40.863175" lon="14.1682883"><ele>168.0</ele><time>2026-04-13T16:40:38.675Z</time></trkpt><trkpt lat="40.8631567" lon="14.1682067"><ele>168.0</ele><time>2026-04-13T16:40:39.675Z</time></trkpt><trkpt lat="40.863135" lon="14.1681233"><ele>168.0</ele><time>2026-04-13T16:40:40.676Z</time></trkpt><trkpt lat="40.8631017" lon="14.1680333"><ele>168.0</ele><time>2026-04-13T16:40:41.678Z</time></trkpt><trkpt lat="40.8630717" lon="14.16795"><ele>168.0</ele><time>2026-04-13T16:40:42.676Z</time></trkpt><trkpt lat="40.8630317" lon="14.1678617"><ele>168.0</ele><time>2026-04-13T16:40:43.678Z</time></trkpt><trkpt lat="40.8629933" lon="14.1677867"><ele>168.0</ele><time>2026-04-13T16:40:44.675Z</time></trkpt><trkpt lat="40.8629483" lon="14.1677117"><ele>168.0</ele><time>2026-04-13T16:40:45.675Z</time></trkpt><trkpt lat="40.8629083" lon="14.167635"><ele>168.0</ele><time>2026-04-13T16:40:46.675Z</time></trkpt><trkpt lat="40.862865" lon="14.1675567"><ele>168.0</ele><time>2026-04-13T16:40:47.676Z</time></trkpt><trkpt lat="40.86282" lon="14.1674817"><ele>168.0</ele><time>2026-04-13T16:40:48.676Z</time></trkpt><trkpt lat="40.862775" lon="14.1674117"><ele>168.0</ele><time>2026-04-13T16:40:49.677Z</time></trkpt><trkpt lat="40.8627283" lon="14.1673433"><ele>168.0</ele><time>2026-04-13T16:40:50.675Z</time></trkpt><trkpt lat="40.86268" lon="14.1672783"><ele>168.0</ele><time>2026-04-13T16:40:51.677Z</time></trkpt><trkpt lat="40.8626267" lon="14.1672217"><ele>168.0</ele><time>2026-04-13T16:40:52.675Z</time></trkpt><trkpt lat="40.8625733" lon="14.16717"><ele>167.4</ele><time>2026-04-13T16:40:53.677Z</time></trkpt><trkpt lat="40.86252" lon="14.1671217"><ele>166.8</ele><time>2026-04-13T16:40:54.677Z</time></trkpt><trkpt lat="40.8624667" lon="14.1670767"><ele>166.2</ele><time>2026-04-13T16:40:55.676Z</time></trkpt><trkpt lat="40.86236" lon="14.1670067"><ele>165.6</ele><time>2026-04-13T16:40:57.676Z</time></trkpt><trkpt lat="40.8622517" lon="14.1669517"><ele>165.0</ele><time>2026-04-13T16:40:59.675Z</time></trkpt><trkpt lat="40.8621417" lon="14.1669133"><ele>165.0</ele><time>2026-04-13T16:41:01.676Z</time></trkpt><trkpt lat="40.8620333" lon="14.1668867"><ele>165.0</ele><time>2026-04-13T16:41:03.675Z</time></trkpt><trkpt lat="40.86192" lon="14.166875"><ele>165.0</ele><time>2026-04-13T16:41:05.676Z</time></trkpt><trkpt lat="40.8618033" lon="14.1668683"><ele>165.0</ele><time>2026-04-13T16:41:07.676Z</time></trkpt><trkpt lat="40.8616833" lon="14.16687"><ele>164.4</ele><time>2026-04-13T16:41:09.676Z</time></trkpt><trkpt lat="40.8615617" lon="14.1669067"><ele>163.8</ele><time>2026-04-13T16:41:11.675Z</time></trkpt><trkpt lat="40.8614417" lon="14.1669517"><ele>163.2</ele><time>2026-04-13T16:41:13.676Z</time></trkpt><trkpt lat="40.8613767" lon="14.1669717"><ele>162.6</ele><time>2026-04-13T16:41:14.678Z</time></trkpt><trkpt lat="40.8612567" lon="14.1670267"><ele>162.0</ele><time>2026-04-13T16:41:16.676Z</time></trkpt><trkpt lat="40.8611917" lon="14.1670467"><ele>162.0</ele><time>2026-04-13T16:41:17.676Z</time></trkpt><trkpt lat="40.86113" lon="14.1670683"><ele>162.0</ele><time>2026-04-13T16:41:18.677Z</time></trkpt><trkpt lat="40.8610667" lon="14.16709"><ele>162.0</ele><time>2026-04-13T16:41:19.676Z</time></trkpt><trkpt lat="40.861005" lon="14.16711"><ele>162.0</ele><time>2026-04-13T16:41:20.676Z</time></trkpt><trkpt lat="40.8608867" lon="14.1671383"><ele>162.0</ele><time>2026-04-13T16:41:22.675Z</time></trkpt><trkpt lat="40.8607617" lon="14.1671483"><ele>162.0</ele><time>2026-04-13T16:41:24.678Z</time></trkpt><trkpt lat="40.860695" lon="14.1671533"><ele>161.83333333333334</ele><time>2026-04-13T16:41:25.676Z</time></trkpt><trkpt lat="40.8606317" lon="14.1671517"><ele>161.66666666666666</ele><time>2026-04-13T16:41:26.678Z</time></trkpt><trkpt lat="40.8605667" lon="14.1671467"><ele>161.5</ele><time>2026-04-13T16:41:27.677Z</time></trkpt><trkpt lat="40.8605033" lon="14.167135"><ele>161.33333333333331</ele><time>2026-04-13T16:41:28.675Z</time></trkpt><trkpt lat="40.860385" lon="14.167095"><ele>161.16666666666666</ele><time>2026-04-13T16:41:30.677Z</time></trkpt><trkpt lat="40.86027" lon="14.1670417"><ele>161.0</ele><time>2026-04-13T16:41:32.676Z</time></trkpt><trkpt lat="40.8601583" lon="14.1669667"><ele>160.75</ele><time>2026-04-13T16:41:34.675Z</time></trkpt><trkpt lat="40.8600533" lon="14.1668817"><ele>160.5</ele><time>2026-04-13T16:41:36.674Z</time></trkpt><trkpt lat="40.85996" lon="14.16678"><ele>160.25</ele><time>2026-04-13T16:41:38.678Z</time></trkpt><trkpt lat="40.8598783" lon="14.166665"><ele>160.0</ele><time>2026-04-13T16:41:40.674Z</time></trkpt><trkpt lat="40.8597983" lon="14.1665417"><ele>160.0</ele><time>2026-04-13T16:41:42.677Z</time></trkpt><trkpt lat="40.8597233" lon="14.16641"><ele>160.0</ele><time>2026-04-13T16:41:44.674Z</time></trkpt><trkpt lat="40.8596517" lon="14.16628"><ele>160.0</ele><time>2026-04-13T16:41:46.675Z</time></trkpt><trkpt lat="40.859585" lon="14.16615"><ele>160.0</ele><time>2026-04-13T16:41:48.676Z</time></trkpt><trkpt lat="40.8595217" lon="14.1660117"><ele>160.0</ele><time>2026-04-13T16:41:50.674Z</time></trkpt><trkpt lat="40.8594567" lon="14.1658733"><ele>160.0</ele><time>2026-04-13T16:41:52.675Z</time></trkpt><trkpt lat="40.8593933" lon="14.1657383"><ele>160.0</ele><time>2026-04-13T16:41:54.678Z</time></trkpt><trkpt lat="40.8593333" lon="14.1656083"><ele>160.0</ele><time>2026-04-13T16:41:56.677Z</time></trkpt><trkpt lat="40.85927" lon="14.1654767"><ele>160.0</ele><time>2026-04-13T16:41:58.674Z</time></trkpt><trkpt lat="40.8592083" lon="14.1653417"><ele>160.0</ele><time>2026-04-13T16:42:00.676Z</time></trkpt><trkpt lat="40.859145" lon="14.1652067"><ele>160.0</ele><time>2026-04-13T16:42:02.677Z</time></trkpt><trkpt lat="40.85908" lon="14.1650867"><ele>160.0</ele><time>2026-04-13T16:42:04.678Z</time></trkpt><trkpt lat="40.8590183" lon="14.164955"><ele>160.5</ele><time>2026-04-13T16:42:06.677Z</time></trkpt><trkpt lat="40.858965" lon="14.1648283"><ele>161.0</ele><time>2026-04-13T16:42:08.678Z</time></trkpt><trkpt lat="40.8589017" lon="14.1647083"><ele>161.5</ele><time>2026-04-13T16:42:10.677Z</time></trkpt><trkpt lat="40.858835" lon="14.164585"><ele>162.0</ele><time>2026-04-13T16:42:12.677Z</time></trkpt><trkpt lat="40.8587683" lon="14.16446"><ele>162.0</ele><time>2026-04-13T16:42:14.676Z</time></trkpt><trkpt lat="40.8587017" lon="14.16433"><ele>162.0</ele><time>2026-04-13T16:42:16.677Z</time></trkpt><trkpt lat="40.8586383" lon="14.1642017"><ele>162.0</ele><time>2026-04-13T16:42:18.677Z</time></trkpt><trkpt lat="40.8585833" lon="14.1640767"><ele>162.0</ele><time>2026-04-13T16:42:20.679Z</time></trkpt><trkpt lat="40.8585267" lon="14.163955"><ele>161.8</ele><time>2026-04-13T16:42:22.677Z</time></trkpt><trkpt lat="40.8584733" lon="14.1638283"><ele>161.6</ele><time>2026-04-13T16:42:24.674Z</time></trkpt><trkpt lat="40.85842" lon="14.1636933"><ele>161.4</ele><time>2026-04-13T16:42:26.675Z</time></trkpt><trkpt lat="40.8583667" lon="14.163565"><ele>161.20000000000002</ele><time>2026-04-13T16:42:28.675Z</time></trkpt><trkpt lat="40.8583083" lon="14.16344"><ele>161.0</ele><time>2026-04-13T16:42:30.674Z</time></trkpt><trkpt lat="40.8582567" lon="14.1633183"><ele>161.4</ele><time>2026-04-13T16:42:32.675Z</time></trkpt><trkpt lat="40.858205" lon="14.1632017"><ele>161.8</ele><time>2026-04-13T16:42:34.674Z</time></trkpt><trkpt lat="40.8581667" lon="14.163075"><ele>162.20000000000002</ele><time>2026-04-13T16:42:36.675Z</time></trkpt><trkpt lat="40.85813" lon="14.1629417"><ele>162.60000000000002</ele><time>2026-04-13T16:42:38.674Z</time></trkpt><trkpt lat="40.8581017" lon="14.162815"><ele>163.0</ele><time>2026-04-13T16:42:40.677Z</time></trkpt><trkpt lat="40.858065" lon="14.1626983"><ele>163.2</ele><time>2026-04-13T16:42:42.677Z</time></trkpt><trkpt lat="40.858035" lon="14.1625883"><ele>163.4</ele><time>2026-04-13T16:42:44.676Z</time></trkpt><trkpt lat="40.8579883" lon="14.16248"><ele>163.6</ele><time>2026-04-13T16:42:46.675Z</time></trkpt><trkpt lat="40.85794" lon="14.1623633"><ele>163.79999999999998</ele><time>2026-04-13T16:42:48.678Z</time></trkpt><trkpt lat="40.857895" lon="14.1622433"><ele>164.0</ele><time>2026-04-13T16:42:50.675Z</time></trkpt><trkpt lat="40.85784" lon="14.16213"><ele>164.16666666666666</ele><time>2026-04-13T16:42:52.677Z</time></trkpt><trkpt lat="40.8577833" lon="14.16203"><ele>164.33333333333331</ele><time>2026-04-13T16:42:54.675Z</time></trkpt><trkpt lat="40.8577283" lon="14.1619317"><ele>164.5</ele><time>2026-04-13T16:42:56.674Z</time></trkpt><trkpt lat="40.85767" lon="14.1618433"><ele>164.66666666666666</ele><time>2026-04-13T16:42:58.677Z</time></trkpt><trkpt lat="40.8576117" lon="14.1617633"><ele>164.83333333333334</ele><time>2026-04-13T16:43:00.677Z</time></trkpt><trkpt lat="40.8575583" lon="14.161695"><ele>165.0</ele><time>2026-04-13T16:43:02.675Z</time></trkpt><trkpt lat="40.8575" lon="14.161625"><ele>165.14285714285717</ele><time>2026-04-13T16:43:04.674Z</time></trkpt><trkpt lat="40.8574467" lon="14.1615567"><ele>165.28571428571428</ele><time>2026-04-13T16:43:06.675Z</time></trkpt><trkpt lat="40.8573883" lon="14.1615"><ele>165.42857142857144</ele><time>2026-04-13T16:43:08.675Z</time></trkpt><trkpt lat="40.8573317" lon="14.1614367"><ele>165.57142857142858</ele><time>2026-04-13T16:43:10.679Z</time></trkpt><trkpt lat="40.8572767" lon="14.1613717"><ele>165.71428571428572</ele><time>2026-04-13T16:43:12.675Z</time></trkpt><trkpt lat="40.857225" lon="14.16131"><ele>165.85714285714286</ele><time>2026-04-13T16:43:14.677Z</time></trkpt><trkpt lat="40.8571733" lon="14.16124"><ele>166.0</ele><time>2026-04-13T16:43:16.674Z</time></trkpt><trkpt lat="40.8571183" lon="14.1611717"><ele>166.28571428571428</ele><time>2026-04-13T16:43:18.676Z</time></trkpt><trkpt lat="40.85707" lon="14.1611"><ele>166.57142857142858</ele><time>2026-04-13T16:43:20.676Z</time></trkpt><trkpt lat="40.8570233" lon="14.1610333"><ele>166.85714285714286</ele><time>2026-04-13T16:43:22.677Z</time></trkpt><trkpt lat="40.8569733" lon="14.1609567"><ele>167.14285714285714</ele><time>2026-04-13T16:43:24.675Z</time></trkpt><trkpt lat="40.85693" lon="14.1608817"><ele>167.42857142857144</ele><time>2026-04-13T16:43:26.677Z</time></trkpt><trkpt lat="40.8568933" lon="14.1608"><ele>167.71428571428572</ele><time>2026-04-13T16:43:28.677Z</time></trkpt><trkpt lat="40.8568517" lon="14.16072"><ele>168.0</ele><time>2026-04-13T16:43:30.676Z</time></trkpt><trkpt lat="40.8568133" lon="14.1606333"><ele>168.57142857142858</ele><time>2026-04-13T16:43:32.676Z</time></trkpt><trkpt lat="40.85677" lon="14.1605583"><ele>169.14285714285714</ele><time>2026-04-13T16:43:34.677Z</time></trkpt><trkpt lat="40.8567317" lon="14.160485"><ele>169.71428571428572</ele><time>2026-04-13T16:43:36.677Z</time></trkpt><trkpt lat="40.8567033" lon="14.16041"><ele>170.28571428571428</ele><time>2026-04-13T16:43:38.674Z</time></trkpt><trkpt lat="40.8566717" lon="14.1603317"><ele>170.85714285714286</ele><time>2026-04-13T16:43:40.675Z</time></trkpt><trkpt lat="40.8566267" lon="14.1602217"><ele>171.42857142857144</ele><time>2026-04-13T16:43:43.675Z</time></trkpt><trkpt lat="40.8566" lon="14.1601367"><ele>172.0</ele><time>2026-04-13T16:43:45.675Z</time></trkpt><trkpt lat="40.856575" lon="14.160055"><ele>172.00000000000003</ele><time>2026-04-13T16:43:47.675Z</time></trkpt><trkpt lat="40.8565467" lon="14.15998"><ele>172.0</ele><time>2026-04-13T16:43:49.675Z</time></trkpt><trkpt lat="40.85652" lon="14.1599033"><ele>172.0</ele><time>2026-04-13T16:43:51.676Z</time></trkpt><trkpt lat="40.85649" lon="14.1598283"><ele>172.0</ele><time>2026-04-13T16:43:53.677Z</time></trkpt><trkpt lat="40.8564583" lon="14.1597183"><ele>172.0</ele><time>2026-04-13T16:43:56.677Z</time></trkpt><trkpt lat="40.85643" lon="14.1596367"><ele>172.00000000000003</ele><time>2026-04-13T16:43:58.676Z</time></trkpt><trkpt lat="40.856395" lon="14.1595617"><ele>172.0</ele><time>2026-04-13T16:44:00.677Z</time></trkpt><trkpt lat="40.8563567" lon="14.15949"><ele>172.42857142857144</ele><time>2026-04-13T16:44:02.678Z</time></trkpt><trkpt lat="40.856295" lon="14.1593967"><ele>172.85714285714286</ele><time>2026-04-13T16:44:05.677Z</time></trkpt><trkpt lat="40.85625" lon="14.1593367"><ele>173.28571428571428</ele><time>2026-04-13T16:44:07.676Z</time></trkpt><trkpt lat="40.8562067" lon="14.1592717"><ele>173.71428571428572</ele><time>2026-04-13T16:44:09.678Z</time></trkpt><trkpt lat="40.8561583" lon="14.1592083"><ele>174.14285714285714</ele><time>2026-04-13T16:44:11.677Z</time></trkpt><trkpt lat="40.8561083" lon="14.1591433"><ele>174.57142857142858</ele><time>2026-04-13T16:44:13.676Z</time></trkpt><trkpt lat="40.8560533" lon="14.1590783"><ele>175.0</ele><time>2026-04-13T16:44:15.674Z</time></trkpt><trkpt lat="40.8559967" lon="14.159005"><ele>175.33333333333334</ele><time>2026-04-13T16:44:17.676Z</time></trkpt><trkpt lat="40.85594" lon="14.1589267"><ele>175.66666666666669</ele><time>2026-04-13T16:44:19.677Z</time></trkpt><trkpt lat="40.8559117" lon="14.1588367"><ele>176.0</ele><time>2026-04-13T16:44:21.675Z</time></trkpt><trkpt lat="40.8558917" lon="14.1587167"><ele>176.33333333333334</ele><time>2026-04-13T16:44:23.676Z</time></trkpt><trkpt lat="40.8558867" lon="14.1585917"><ele>176.66666666666666</ele><time>2026-04-13T16:44:25.675Z</time></trkpt><trkpt lat="40.8559067" lon="14.1584767"><ele>177.0</ele><time>2026-04-13T16:44:27.673Z</time></trkpt><trkpt lat="40.8559383" lon="14.1583517"><ele>177.0</ele><time>2026-04-13T16:44:29.675Z</time></trkpt><trkpt lat="40.8559617" lon="14.1582217"><ele>177.0</ele><time>2026-04-13T16:44:31.675Z</time></trkpt><trkpt lat="40.85599" lon="14.1580967"><ele>177.0</ele><time>2026-04-13T16:44:33.675Z</time></trkpt><trkpt lat="40.85602" lon="14.15798"><ele>177.0</ele><time>2026-04-13T16:44:35.674Z</time></trkpt><trkpt lat="40.8560567" lon="14.1578733"><ele>177.0</ele><time>2026-04-13T16:44:37.675Z</time></trkpt><trkpt lat="40.8561167" lon="14.157715"><ele>177.33333333333334</ele><time>2026-04-13T16:44:40.674Z</time></trkpt><trkpt lat="40.8561517" lon="14.157615"><ele>177.66666666666666</ele><time>2026-04-13T16:44:42.675Z</time></trkpt><trkpt lat="40.8561783" lon="14.1575033"><ele>178.0</ele><time>2026-04-13T16:44:44.675Z</time></trkpt><trkpt lat="40.8562017" lon="14.1573967"><ele>178.33333333333331</ele><time>2026-04-13T16:44:46.674Z</time></trkpt><trkpt lat="40.8562217" lon="14.1573"><ele>178.66666666666666</ele><time>2026-04-13T16:44:49.675Z</time></trkpt><trkpt lat="40.8562717" lon="14.1571867"><ele>179.0</ele><time>2026-04-13T16:44:52.674Z</time></trkpt><trkpt lat="40.8562883" lon="14.1570817"><ele>179.0</ele><time>2026-04-13T16:44:54.675Z</time></trkpt><trkpt lat="40.8563" lon="14.15699"><ele>179.0</ele><time>2026-04-13T16:44:56.676Z</time></trkpt><trkpt lat="40.856255" lon="14.156855"><ele>179.0</ele><time>2026-04-13T16:45:45.675Z</time></trkpt><trkpt lat="40.85622" lon="14.1567833"><ele>179.0</ele><time>2026-04-13T16:45:47.675Z</time></trkpt><trkpt lat="40.8561583" lon="14.1567017"><ele>179.0</ele><time>2026-04-13T16:45:49.676Z</time></trkpt><trkpt lat="40.8560817" lon="14.1566033"><ele>179.0</ele><time>2026-04-13T16:45:51.676Z</time></trkpt><trkpt lat="40.8560217" lon="14.1564617"><ele>178.0</ele><time>2026-04-13T16:45:53.676Z</time></trkpt><trkpt lat="40.8559817" lon="14.156395"><ele>177.0</ele><time>2026-04-13T16:45:54.675Z</time></trkpt><trkpt lat="40.8559367" lon="14.1563333"><ele>176.0</ele><time>2026-04-13T16:45:55.677Z</time></trkpt><trkpt lat="40.8558883" lon="14.1562617"><ele>175.0</ele><time>2026-04-13T16:45:56.675Z</time></trkpt><trkpt lat="40.8558367" lon="14.1561783"><ele>174.0</ele><time>2026-04-13T16:45:57.676Z</time></trkpt><trkpt lat="40.8557767" lon="14.1560917"><ele>173.0</ele><time>2026-04-13T16:45:58.675Z</time></trkpt><trkpt lat="40.855705" lon="14.1560133"><ele>172.8</ele><time>2026-04-13T16:45:59.676Z</time></trkpt><trkpt lat="40.8556267" lon="14.155945"><ele>172.60000000000002</ele><time>2026-04-13T16:46:00.675Z</time></trkpt><trkpt lat="40.8555383" lon="14.155885"><ele>172.39999999999998</ele><time>2026-04-13T16:46:01.675Z</time></trkpt><trkpt lat="40.8554417" lon="14.1558317"><ele>172.2</ele><time>2026-04-13T16:46:02.677Z</time></trkpt><trkpt lat="40.8553533" lon="14.1557767"><ele>172.0</ele><time>2026-04-13T16:46:03.674Z</time></trkpt><trkpt lat="40.8552583" lon="14.15573"><ele>170.39999999999998</ele><time>2026-04-13T16:46:04.678Z</time></trkpt><trkpt lat="40.8551633" lon="14.1556917"><ele>168.79999999999998</ele><time>2026-04-13T16:46:05.676Z</time></trkpt><trkpt lat="40.85507" lon="14.1556467"><ele>167.2</ele><time>2026-04-13T16:46:06.675Z</time></trkpt><trkpt lat="40.8549767" lon="14.1555917"><ele>165.6</ele><time>2026-04-13T16:46:07.676Z</time></trkpt><trkpt lat="40.8548883" lon="14.1555233"><ele>164.0</ele><time>2026-04-13T16:46:08.676Z</time></trkpt><trkpt lat="40.85481" lon="14.15543"><ele>164.0</ele><time>2026-04-13T16:46:09.676Z</time></trkpt><trkpt lat="40.85475" lon="14.1553183"><ele>164.0</ele><time>2026-04-13T16:46:10.676Z</time></trkpt><trkpt lat="40.8547067" lon="14.155185"><ele>164.0</ele><time>2026-04-13T16:46:11.678Z</time></trkpt><trkpt lat="40.8546733" lon="14.1550467"><ele>164.0</ele><time>2026-04-13T16:46:12.675Z</time></trkpt><trkpt lat="40.854665" lon="14.1548917"><ele>164.0</ele><time>2026-04-13T16:46:13.676Z</time></trkpt><trkpt lat="40.8546633" lon="14.1547383"><ele>162.5</ele><time>2026-04-13T16:46:14.678Z</time></trkpt><trkpt lat="40.854655" lon="14.1545833"><ele>161.0</ele><time>2026-04-13T16:46:15.678Z</time></trkpt><trkpt lat="40.85465" lon="14.15443"><ele>159.5</ele><time>2026-04-13T16:46:16.676Z</time></trkpt><trkpt lat="40.85466" lon="14.15428"><ele>158.0</ele><time>2026-04-13T16:46:17.675Z</time></trkpt><trkpt lat="40.8546767" lon="14.1541383"><ele>157.20000000000002</ele><time>2026-04-13T16:46:18.676Z</time></trkpt><trkpt lat="40.8547017" lon="14.1539983"><ele>156.4</ele><time>2026-04-13T16:46:19.675Z</time></trkpt><trkpt lat="40.854725" lon="14.1538617"><ele>155.60000000000002</ele><time>2026-04-13T16:46:20.675Z</time></trkpt><trkpt lat="40.8547433" lon="14.1537267"><ele>154.8</ele><time>2026-04-13T16:46:21.674Z</time></trkpt><trkpt lat="40.85476" lon="14.1535983"><ele>154.0</ele><time>2026-04-13T16:46:22.676Z</time></trkpt><trkpt lat="40.85478" lon="14.1534833"><ele>154.0</ele><time>2026-04-13T16:46:23.678Z</time></trkpt><trkpt lat="40.8547983" lon="14.1533733"><ele>154.0</ele><time>2026-04-13T16:46:24.678Z</time></trkpt><trkpt lat="40.8548183" lon="14.1532617"><ele>154.0</ele><time>2026-04-13T16:46:25.678Z</time></trkpt><trkpt lat="40.8548367" lon="14.15315"><ele>154.0</ele><time>2026-04-13T16:46:26.678Z</time></trkpt><trkpt lat="40.85486" lon="14.1530383"><ele>154.0</ele><time>2026-04-13T16:46:27.677Z</time></trkpt><trkpt lat="40.8548817" lon="14.15293"><ele>154.0</ele><time>2026-04-13T16:46:28.677Z</time></trkpt><trkpt lat="40.8549033" lon="14.152825"><ele>152.8</ele><time>2026-04-13T16:46:29.678Z</time></trkpt><trkpt lat="40.85493" lon="14.152715"><ele>151.60000000000002</ele><time>2026-04-13T16:46:30.676Z</time></trkpt><trkpt lat="40.8549567" lon="14.152605"><ele>150.4</ele><time>2026-04-13T16:46:31.677Z</time></trkpt><trkpt lat="40.8549883" lon="14.1524967"><ele>149.20000000000002</ele><time>2026-04-13T16:46:32.679Z</time></trkpt><trkpt lat="40.8550217" lon="14.1523833"><ele>148.0</ele><time>2026-04-13T16:46:33.677Z</time></trkpt><trkpt lat="40.8550533" lon="14.1522633"><ele>147.4</ele><time>2026-04-13T16:46:34.678Z</time></trkpt><trkpt lat="40.8550867" lon="14.152145"><ele>146.8</ele><time>2026-04-13T16:46:35.677Z</time></trkpt><trkpt lat="40.85512" lon="14.1520233"><ele>146.2</ele><time>2026-04-13T16:46:36.679Z</time></trkpt><trkpt lat="40.8551533" lon="14.1518967"><ele>145.6</ele><time>2026-04-13T16:46:37.679Z</time></trkpt><trkpt lat="40.8551883" lon="14.1517683"><ele>145.0</ele><time>2026-04-13T16:46:38.678Z</time></trkpt><trkpt lat="40.8552217" lon="14.1516383"><ele>143.0</ele><time>2026-04-13T16:46:39.678Z</time></trkpt><trkpt lat="40.855255" lon="14.151505"><ele>141.0</ele><time>2026-04-13T16:46:40.678Z</time></trkpt><trkpt lat="40.85529" lon="14.1513667"><ele>139.0</ele><time>2026-04-13T16:46:41.679Z</time></trkpt><trkpt lat="40.8553283" lon="14.1512283"><ele>137.0</ele><time>2026-04-13T16:46:42.678Z</time></trkpt><trkpt lat="40.8553567" lon="14.1510933"><ele>135.0</ele><time>2026-04-13T16:46:43.679Z</time></trkpt><trkpt lat="40.8553717" lon="14.1509617"><ele>135.0</ele><time>2026-04-13T16:46:44.677Z</time></trkpt><trkpt lat="40.8553767" lon="14.1508283"><ele>135.0</ele><time>2026-04-13T16:46:45.678Z</time></trkpt><trkpt lat="40.8553733" lon="14.1506917"><ele>135.0</ele><time>2026-04-13T16:46:46.676Z</time></trkpt><trkpt lat="40.8553633" lon="14.15055"><ele>135.0</ele><time>2026-04-13T16:46:47.675Z</time></trkpt><trkpt lat="40.855355" lon="14.150405"><ele>135.0</ele><time>2026-04-13T16:46:48.676Z</time></trkpt><trkpt lat="40.8553467" lon="14.15026"><ele>134.0</ele><time>2026-04-13T16:46:49.676Z</time></trkpt><trkpt lat="40.8553367" lon="14.1501133"><ele>133.0</ele><time>2026-04-13T16:46:50.675Z</time></trkpt><trkpt lat="40.855325" lon="14.14996"><ele>132.0</ele><time>2026-04-13T16:46:51.675Z</time></trkpt><trkpt lat="40.8553117" lon="14.149805"><ele>131.0</ele><time>2026-04-13T16:46:52.674Z</time></trkpt><trkpt lat="40.8553" lon="14.1496567"><ele>131.0</ele><time>2026-04-13T16:46:53.678Z</time></trkpt><trkpt lat="40.8552883" lon="14.1495233"><ele>131.0</ele><time>2026-04-13T16:46:54.677Z</time></trkpt><trkpt lat="40.855275" lon="14.1493933"><ele>131.0</ele><time>2026-04-13T16:46:55.678Z</time></trkpt><trkpt lat="40.8552633" lon="14.1492633"><ele>131.0</ele><time>2026-04-13T16:46:56.679Z</time></trkpt><trkpt lat="40.8552483" lon="14.1491267"><ele>131.0</ele><time>2026-04-13T16:46:57.677Z</time></trkpt><trkpt lat="40.8552367" lon="14.148985"><ele>130.2</ele><time>2026-04-13T16:46:58.677Z</time></trkpt><trkpt lat="40.855225" lon="14.1488417"><ele>129.39999999999998</ele><time>2026-04-13T16:46:59.678Z</time></trkpt><trkpt lat="40.8552117" lon="14.1486967"><ele>128.6</ele><time>2026-04-13T16:47:00.677Z</time></trkpt><trkpt lat="40.855205" lon="14.1485617"><ele>127.8</ele><time>2026-04-13T16:47:01.678Z</time></trkpt><trkpt lat="40.8552067" lon="14.1484433"><ele>127.0</ele><time>2026-04-13T16:47:02.676Z</time></trkpt><trkpt lat="40.85522" lon="14.148335"><ele>127.00000000000001</ele><time>2026-04-13T16:47:03.678Z</time></trkpt><trkpt lat="40.8552467" lon="14.1482333"><ele>127.0</ele><time>2026-04-13T16:47:04.675Z</time></trkpt><trkpt lat="40.85527" lon="14.1481367"><ele>127.0</ele><time>2026-04-13T16:47:05.675Z</time></trkpt><trkpt lat="40.8553433" lon="14.1480233"><ele>127.0</ele><time>2026-04-13T16:47:07.675Z</time></trkpt><trkpt lat="40.8553967" lon="14.14797"><ele>127.00000000000001</ele><time>2026-04-13T16:47:08.678Z</time></trkpt><trkpt lat="40.8554767" lon="14.14788"><ele>127.0</ele><time>2026-04-13T16:47:10.674Z</time></trkpt><trkpt lat="40.85557" lon="14.1477833"><ele>126.66666666666667</ele><time>2026-04-13T16:47:12.677Z</time></trkpt><trkpt lat="40.85566" lon="14.1476683"><ele>126.33333333333334</ele><time>2026-04-13T16:47:14.677Z</time></trkpt><trkpt lat="40.855715" lon="14.1476067"><ele>126.0</ele><time>2026-04-13T16:47:15.675Z</time></trkpt><trkpt lat="40.8557717" lon="14.14754"><ele>125.66666666666666</ele><time>2026-04-13T16:47:16.675Z</time></trkpt><trkpt lat="40.8558317" lon="14.1474683"><ele>125.33333333333333</ele><time>2026-04-13T16:47:17.676Z</time></trkpt><trkpt lat="40.8558967" lon="14.1473967"><ele>125.0</ele><time>2026-04-13T16:47:18.676Z</time></trkpt><trkpt lat="40.8559617" lon="14.1473217"><ele>123.4</ele><time>2026-04-13T16:47:19.675Z</time></trkpt><trkpt lat="40.8560267" lon="14.1472417"><ele>121.8</ele><time>2026-04-13T16:47:20.675Z</time></trkpt><trkpt lat="40.8560933" lon="14.1471583"><ele>120.19999999999999</ele><time>2026-04-13T16:47:21.676Z</time></trkpt><trkpt lat="40.85616" lon="14.1470717"><ele>118.6</ele><time>2026-04-13T16:47:22.676Z</time></trkpt><trkpt lat="40.8562267" lon="14.1469783"><ele>117.0</ele><time>2026-04-13T16:47:23.676Z</time></trkpt><trkpt lat="40.8562933" lon="14.1468767"><ele>117.0</ele><time>2026-04-13T16:47:24.676Z</time></trkpt><trkpt lat="40.8563567" lon="14.14677"><ele>116.99999999999999</ele><time>2026-04-13T16:47:25.678Z</time></trkpt><trkpt lat="40.856415" lon="14.14666"><ele>116.99999999999999</ele><time>2026-04-13T16:47:26.676Z</time></trkpt><trkpt lat="40.8564683" lon="14.1465383"><ele>117.0</ele><time>2026-04-13T16:47:27.678Z</time></trkpt><trkpt lat="40.8565133" lon="14.1464133"><ele>117.0</ele><time>2026-04-13T16:47:28.677Z</time></trkpt><trkpt lat="40.8565433" lon="14.1462783"><ele>116.19999999999999</ele><time>2026-04-13T16:47:29.677Z</time></trkpt><trkpt lat="40.8565633" lon="14.1461367"><ele>115.39999999999999</ele><time>2026-04-13T16:47:30.678Z</time></trkpt><trkpt lat="40.8565717" lon="14.1460017"><ele>114.60000000000001</ele><time>2026-04-13T16:47:31.675Z</time></trkpt><trkpt lat="40.8565733" lon="14.145865"><ele>113.80000000000001</ele><time>2026-04-13T16:47:32.677Z</time></trkpt><trkpt lat="40.8565717" lon="14.1457267"><ele>113.0</ele><time>2026-04-13T16:47:33.675Z</time></trkpt><trkpt lat="40.8565617" lon="14.1455917"><ele>112.60000000000001</ele><time>2026-04-13T16:47:34.675Z</time></trkpt><trkpt lat="40.85655" lon="14.1454583"><ele>112.20000000000002</ele><time>2026-04-13T16:47:35.675Z</time></trkpt><trkpt lat="40.8565417" lon="14.1453267"><ele>111.8</ele><time>2026-04-13T16:47:36.677Z</time></trkpt><trkpt lat="40.8565283" lon="14.1451983"><ele>111.4</ele><time>2026-04-13T16:47:37.678Z</time></trkpt><trkpt lat="40.8565133" lon="14.1450733"><ele>111.0</ele><time>2026-04-13T16:47:38.678Z</time></trkpt><trkpt lat="40.8565017" lon="14.14495"><ele>111.16666666666667</ele><time>2026-04-13T16:47:39.677Z</time></trkpt><trkpt lat="40.8564883" lon="14.14483"><ele>111.33333333333334</ele><time>2026-04-13T16:47:40.676Z</time></trkpt><trkpt lat="40.8564733" lon="14.1447117"><ele>111.5</ele><time>2026-04-13T16:47:41.678Z</time></trkpt><trkpt lat="40.856465" lon="14.1445933"><ele>111.66666666666667</ele><time>2026-04-13T16:47:42.677Z</time></trkpt><trkpt lat="40.856455" lon="14.1444767"><ele>111.83333333333334</ele><time>2026-04-13T16:47:43.678Z</time></trkpt><trkpt lat="40.85644" lon="14.1443633"><ele>112.0</ele><time>2026-04-13T16:47:44.677Z</time></trkpt><trkpt lat="40.8564233" lon="14.1442483"><ele>112.00000000000001</ele><time>2026-04-13T16:47:45.676Z</time></trkpt><trkpt lat="40.856415" lon="14.1441383"><ele>112.0</ele><time>2026-04-13T16:47:46.674Z</time></trkpt><trkpt lat="40.8564183" lon="14.1440267"><ele>112.0</ele><time>2026-04-13T16:47:47.676Z</time></trkpt><trkpt lat="40.856445" lon="14.14392"><ele>112.0</ele><time>2026-04-13T16:47:48.675Z</time></trkpt><trkpt lat="40.856495" lon="14.1438267"><ele>112.00000000000001</ele><time>2026-04-13T16:47:49.675Z</time></trkpt><trkpt lat="40.8565583" lon="14.1437533"><ele>112.0</ele><time>2026-04-13T16:47:50.675Z</time></trkpt><trkpt lat="40.8566333" lon="14.1436917"><ele>111.8</ele><time>2026-04-13T16:47:51.675Z</time></trkpt><trkpt lat="40.85671" lon="14.143635"><ele>111.6</ele><time>2026-04-13T16:47:52.674Z</time></trkpt><trkpt lat="40.8567917" lon="14.1435833"><ele>111.39999999999999</ele><time>2026-04-13T16:47:53.678Z</time></trkpt><trkpt lat="40.8568733" lon="14.1435283"><ele>111.19999999999999</ele><time>2026-04-13T16:47:54.677Z</time></trkpt><trkpt lat="40.856955" lon="14.143475"><ele>111.0</ele><time>2026-04-13T16:47:55.677Z</time></trkpt><trkpt lat="40.8570367" lon="14.1434217"><ele>111.0</ele><time>2026-04-13T16:47:56.677Z</time></trkpt><trkpt lat="40.8571167" lon="14.1433683"><ele>111.0</ele><time>2026-04-13T16:47:57.678Z</time></trkpt><trkpt lat="40.8571967" lon="14.143315"><ele>111.0</ele><time>2026-04-13T16:47:58.678Z</time></trkpt><trkpt lat="40.857275" lon="14.1432617"><ele>111.0</ele><time>2026-04-13T16:47:59.677Z</time></trkpt><trkpt lat="40.8573533" lon="14.14321"><ele>111.0</ele><time>2026-04-13T16:48:00.677Z</time></trkpt><trkpt lat="40.8574333" lon="14.1431567"><ele>111.0</ele><time>2026-04-13T16:48:01.678Z</time></trkpt><trkpt lat="40.8575167" lon="14.1431017"><ele>111.66666666666667</ele><time>2026-04-13T16:48:02.677Z</time></trkpt><trkpt lat="40.8575967" lon="14.1430433"><ele>112.33333333333334</ele><time>2026-04-13T16:48:03.677Z</time></trkpt><trkpt lat="40.85767" lon="14.1429833"><ele>113.0</ele><time>2026-04-13T16:48:04.677Z</time></trkpt><trkpt lat="40.8577483" lon="14.1429267"><ele>113.66666666666667</ele><time>2026-04-13T16:48:05.678Z</time></trkpt><trkpt lat="40.85783" lon="14.142875"><ele>114.33333333333334</ele><time>2026-04-13T16:48:06.677Z</time></trkpt><trkpt lat="40.8579083" lon="14.14282"><ele>115.0</ele><time>2026-04-13T16:48:07.678Z</time></trkpt><trkpt lat="40.8579817" lon="14.1427583"><ele>113.66666666666667</ele><time>2026-04-13T16:48:08.674Z</time></trkpt><trkpt lat="40.8580583" lon="14.1427033"><ele>112.33333333333334</ele><time>2026-04-13T16:48:09.679Z</time></trkpt><trkpt lat="40.858135" lon="14.1426533"><ele>111.0</ele><time>2026-04-13T16:48:10.677Z</time></trkpt><trkpt lat="40.8582117" lon="14.1426"><ele>109.66666666666666</ele><time>2026-04-13T16:48:11.675Z</time></trkpt><trkpt lat="40.8582833" lon="14.1425483"><ele>108.33333333333333</ele><time>2026-04-13T16:48:12.674Z</time></trkpt><trkpt lat="40.8583583" lon="14.142495"><ele>107.0</ele><time>2026-04-13T16:48:13.678Z</time></trkpt><trkpt lat="40.858435" lon="14.142445"><ele>107.16666666666666</ele><time>2026-04-13T16:48:14.678Z</time></trkpt><trkpt lat="40.85851" lon="14.142395"><ele>107.33333333333333</ele><time>2026-04-13T16:48:15.678Z</time></trkpt><trkpt lat="40.858585" lon="14.142345"><ele>107.5</ele><time>2026-04-13T16:48:16.674Z</time></trkpt><trkpt lat="40.85866" lon="14.1422967"><ele>107.66666666666666</ele><time>2026-04-13T16:48:17.676Z</time></trkpt><trkpt lat="40.8587317" lon="14.1422417"><ele>107.83333333333333</ele><time>2026-04-13T16:48:18.674Z</time></trkpt><trkpt lat="40.858805" lon="14.1421867"><ele>108.0</ele><time>2026-04-13T16:48:19.676Z</time></trkpt><trkpt lat="40.8588783" lon="14.14213"><ele>108.0</ele><time>2026-04-13T16:48:20.676Z</time></trkpt><trkpt lat="40.8589517" lon="14.1420733"><ele>108.0</ele><time>2026-04-13T16:48:21.674Z</time></trkpt><trkpt lat="40.8590267" lon="14.142015"><ele>108.0</ele><time>2026-04-13T16:48:22.676Z</time></trkpt><trkpt lat="40.8591" lon="14.1419567"><ele>108.0</ele><time>2026-04-13T16:48:23.678Z</time></trkpt><trkpt lat="40.8591733" lon="14.1419"><ele>108.0</ele><time>2026-04-13T16:48:24.677Z</time></trkpt><trkpt lat="40.8592517" lon="14.141855"><ele>108.0</ele><time>2026-04-13T16:48:25.678Z</time></trkpt><trkpt lat="40.8593333" lon="14.1418217"><ele>107.66666666666667</ele><time>2026-04-13T16:48:26.675Z</time></trkpt><trkpt lat="40.8594183" lon="14.1418"><ele>107.33333333333334</ele><time>2026-04-13T16:48:27.675Z</time></trkpt><trkpt lat="40.859505" lon="14.141795"><ele>107.0</ele><time>2026-04-13T16:48:28.675Z</time></trkpt><trkpt lat="40.8595933" lon="14.1418"><ele>106.66666666666667</ele><time>2026-04-13T16:48:29.675Z</time></trkpt><trkpt lat="40.8596833" lon="14.1418133"><ele>106.33333333333334</ele><time>2026-04-13T16:48:30.677Z</time></trkpt><trkpt lat="40.859775" lon="14.141835"><ele>106.0</ele><time>2026-04-13T16:48:31.678Z</time></trkpt><trkpt lat="40.8598667" lon="14.1418583"><ele>106.0</ele><time>2026-04-13T16:48:32.676Z</time></trkpt><trkpt lat="40.859955" lon="14.1418883"><ele>106.0</ele><time>2026-04-13T16:48:33.676Z</time></trkpt><trkpt lat="40.8600483" lon="14.1419167"><ele>106.0</ele><time>2026-04-13T16:48:34.677Z</time></trkpt><trkpt lat="40.8601433" lon="14.141945"><ele>106.0</ele><time>2026-04-13T16:48:35.678Z</time></trkpt><trkpt lat="40.8602383" lon="14.1419717"><ele>106.0</ele><time>2026-04-13T16:48:36.678Z</time></trkpt><trkpt lat="40.8603333" lon="14.1420017"><ele>105.4</ele><time>2026-04-13T16:48:37.678Z</time></trkpt><trkpt lat="40.86043" lon="14.1420283"><ele>104.8</ele><time>2026-04-13T16:48:38.676Z</time></trkpt><trkpt lat="40.860525" lon="14.1420533"><ele>104.2</ele><time>2026-04-13T16:48:39.678Z</time></trkpt><trkpt lat="40.8606233" lon="14.142075"><ele>103.60000000000001</ele><time>2026-04-13T16:48:40.677Z</time></trkpt><trkpt lat="40.8607183" lon="14.1421"><ele>103.0</ele><time>2026-04-13T16:48:41.678Z</time></trkpt><trkpt lat="40.860815" lon="14.142125"><ele>103.0</ele><time>2026-04-13T16:48:42.678Z</time></trkpt><trkpt lat="40.86091" lon="14.1421467"><ele>103.0</ele><time>2026-04-13T16:48:43.678Z</time></trkpt><trkpt lat="40.8610017" lon="14.142165"><ele>103.0</ele><time>2026-04-13T16:48:44.678Z</time></trkpt><trkpt lat="40.8610933" lon="14.1421783"><ele>103.0</ele><time>2026-04-13T16:48:45.678Z</time></trkpt><trkpt lat="40.8611817" lon="14.1421883"><ele>103.0</ele><time>2026-04-13T16:48:46.676Z</time></trkpt><trkpt lat="40.86127" lon="14.1421983"><ele>102.2</ele><time>2026-04-13T16:48:47.675Z</time></trkpt><trkpt lat="40.8613617" lon="14.14221"><ele>101.4</ele><time>2026-04-13T16:48:48.675Z</time></trkpt><trkpt lat="40.8614533" lon="14.1422183"><ele>100.60000000000001</ele><time>2026-04-13T16:48:49.677Z</time></trkpt><trkpt lat="40.861545" lon="14.14222"><ele>99.80000000000001</ele><time>2026-04-13T16:48:50.675Z</time></trkpt><trkpt lat="40.8616367" lon="14.1422067"><ele>99.0</ele><time>2026-04-13T16:48:51.675Z</time></trkpt><trkpt lat="40.861725" lon="14.1421817"><ele>98.80000000000001</ele><time>2026-04-13T16:48:52.677Z</time></trkpt><trkpt lat="40.8618117" lon="14.1421433"><ele>98.60000000000001</ele><time>2026-04-13T16:48:53.678Z</time></trkpt><trkpt lat="40.8618967" lon="14.1420983"><ele>98.4</ele><time>2026-04-13T16:48:54.678Z</time></trkpt><trkpt lat="40.86198" lon="14.14204"><ele>98.2</ele><time>2026-04-13T16:48:55.678Z</time></trkpt><trkpt lat="40.8620583" lon="14.1419717"><ele>98.0</ele><time>2026-04-13T16:48:56.676Z</time></trkpt><trkpt lat="40.8621317" lon="14.14189"><ele>98.0</ele><time>2026-04-13T16:48:57.676Z</time></trkpt><trkpt lat="40.8622" lon="14.1417983"><ele>98.0</ele><time>2026-04-13T16:48:58.676Z</time></trkpt><trkpt lat="40.862265" lon="14.1417017"><ele>98.0</ele><time>2026-04-13T16:48:59.678Z</time></trkpt><trkpt lat="40.862325" lon="14.1416133"><ele>98.0</ele><time>2026-04-13T16:49:00.674Z</time></trkpt><trkpt lat="40.8623767" lon="14.1415267"><ele>98.0</ele><time>2026-04-13T16:49:01.676Z</time></trkpt><trkpt lat="40.8624333" lon="14.1414367"><ele>98.33333333333333</ele><time>2026-04-13T16:49:02.675Z</time></trkpt><trkpt lat="40.8624867" lon="14.141325"><ele>98.66666666666666</ele><time>2026-04-13T16:49:03.675Z</time></trkpt><trkpt lat="40.862535" lon="14.1412283"><ele>99.0</ele><time>2026-04-13T16:49:04.676Z</time></trkpt><trkpt lat="40.8625783" lon="14.1411417"><ele>99.33333333333334</ele><time>2026-04-13T16:49:05.676Z</time></trkpt><trkpt lat="40.8626167" lon="14.1410633"><ele>99.66666666666667</ele><time>2026-04-13T16:49:06.675Z</time></trkpt><trkpt lat="40.86266" lon="14.1409917"><ele>100.0</ele><time>2026-04-13T16:49:07.675Z</time></trkpt><trkpt lat="40.862705" lon="14.1409267"><ele>100.2</ele><time>2026-04-13T16:49:08.678Z</time></trkpt><trkpt lat="40.8627483" lon="14.1408617"><ele>100.4</ele><time>2026-04-13T16:49:09.678Z</time></trkpt><trkpt lat="40.8628217" lon="14.1407433"><ele>100.6</ele><time>2026-04-13T16:49:11.674Z</time></trkpt><trkpt lat="40.8628967" lon="14.14065"><ele>100.8</ele><time>2026-04-13T16:49:13.675Z</time></trkpt><trkpt lat="40.8629567" lon="14.1405533"><ele>101.0</ele><time>2026-04-13T16:49:15.675Z</time></trkpt><trkpt lat="40.8630133" lon="14.140465"><ele>101.71428571428571</ele><time>2026-04-13T16:49:17.676Z</time></trkpt><trkpt lat="40.8630617" lon="14.1403733"><ele>102.42857142857142</ele><time>2026-04-13T16:49:19.676Z</time></trkpt><trkpt lat="40.8631083" lon="14.1402883"><ele>103.14285714285714</ele><time>2026-04-13T16:49:21.676Z</time></trkpt><trkpt lat="40.8631517" lon="14.1402117"><ele>103.85714285714286</ele><time>2026-04-13T16:49:23.677Z</time></trkpt><trkpt lat="40.863185" lon="14.1401383"><ele>104.57142857142857</ele><time>2026-04-13T16:49:25.675Z</time></trkpt><trkpt lat="40.8632133" lon="14.1400567"><ele>105.28571428571429</ele><time>2026-04-13T16:49:27.676Z</time></trkpt><trkpt lat="40.8632433" lon="14.1399633"><ele>106.0</ele><time>2026-04-13T16:49:29.676Z</time></trkpt><trkpt lat="40.8632817" lon="14.1398633"><ele>106.16666666666667</ele><time>2026-04-13T16:49:31.675Z</time></trkpt><trkpt lat="40.863315" lon="14.1397567"><ele>106.33333333333334</ele><time>2026-04-13T16:49:33.676Z</time></trkpt><trkpt lat="40.86335" lon="14.1396533"><ele>106.5</ele><time>2026-04-13T16:49:35.677Z</time></trkpt><trkpt lat="40.863385" lon="14.13955"><ele>106.66666666666666</ele><time>2026-04-13T16:49:37.676Z</time></trkpt><trkpt lat="40.8634133" lon="14.1394467"><ele>106.83333333333333</ele><time>2026-04-13T16:49:39.676Z</time></trkpt><trkpt lat="40.863445" lon="14.13935"><ele>107.0</ele><time>2026-04-13T16:49:41.676Z</time></trkpt><trkpt lat="40.8634683" lon="14.1392533"><ele>107.8</ele><time>2026-04-13T16:49:43.675Z</time></trkpt><trkpt lat="40.863485" lon="14.139145"><ele>108.6</ele><time>2026-04-13T16:49:45.675Z</time></trkpt><trkpt lat="40.8635133" lon="14.1390267"><ele>109.39999999999999</ele><time>2026-04-13T16:49:47.676Z</time></trkpt><trkpt lat="40.8635483" lon="14.1389033"><ele>110.19999999999999</ele><time>2026-04-13T16:49:49.675Z</time></trkpt><trkpt lat="40.8635817" lon="14.138775"><ele>111.0</ele><time>2026-04-13T16:49:51.676Z</time></trkpt><trkpt lat="40.863625" lon="14.1386383"><ele>111.0</ele><time>2026-04-13T16:49:53.675Z</time></trkpt><trkpt lat="40.863655" lon="14.1385533"><ele>111.0</ele><time>2026-04-13T16:49:54.675Z</time></trkpt><trkpt lat="40.8636967" lon="14.1384617"><ele>111.0</ele><time>2026-04-13T16:49:55.676Z</time></trkpt><trkpt lat="40.86373" lon="14.1383783"><ele>111.0</ele><time>2026-04-13T16:49:56.674Z</time></trkpt><trkpt lat="40.86377" lon="14.13829"><ele>111.0</ele><time>2026-04-13T16:49:57.676Z</time></trkpt><trkpt lat="40.8638133" lon="14.1382033"><ele>111.0</ele><time>2026-04-13T16:49:58.676Z</time></trkpt><trkpt lat="40.8638667" lon="14.13809"><ele>109.33333333333333</ele><time>2026-04-13T16:49:59.676Z</time></trkpt><trkpt lat="40.8639117" lon="14.1379967"><ele>107.66666666666666</ele><time>2026-04-13T16:50:00.675Z</time></trkpt><trkpt lat="40.8639617" lon="14.137895"><ele>106.0</ele><time>2026-04-13T16:50:01.675Z</time></trkpt><trkpt lat="40.8640083" lon="14.1377983"><ele>104.33333333333333</ele><time>2026-04-13T16:50:02.676Z</time></trkpt><trkpt lat="40.86405" lon="14.1376917"><ele>102.66666666666666</ele><time>2026-04-13T16:50:03.674Z</time></trkpt><trkpt lat="40.8640917" lon="14.137605"><ele>101.0</ele><time>2026-04-13T16:50:04.674Z</time></trkpt><trkpt lat="40.864145" lon="14.137505"><ele>101.0</ele><time>2026-04-13T16:50:05.676Z</time></trkpt><trkpt lat="40.8641783" lon="14.13742"><ele>101.0</ele><time>2026-04-13T16:50:06.674Z</time></trkpt><trkpt lat="40.86421" lon="14.1373367"><ele>101.0</ele><time>2026-04-13T16:50:07.674Z</time></trkpt><trkpt lat="40.8642417" lon="14.1372483"><ele>101.0</ele><time>2026-04-13T16:50:08.674Z</time></trkpt><trkpt lat="40.8642783" lon="14.13717"><ele>101.0</ele><time>2026-04-13T16:50:09.674Z</time></trkpt><trkpt lat="40.8643233" lon="14.137095"><ele>101.0</ele><time>2026-04-13T16:50:10.674Z</time></trkpt><trkpt lat="40.864375" lon="14.1370317"><ele>101.0</ele><time>2026-04-13T16:50:11.68Z</time></trkpt><trkpt lat="40.864445" lon="14.136895"><ele>99.49999999999999</ele><time>2026-04-13T16:50:13.685Z</time></trkpt><trkpt lat="40.8645167" lon="14.1368333"><ele>98.0</ele><time>2026-04-13T16:50:14.675Z</time></trkpt><trkpt lat="40.8645567" lon="14.13675"><ele>96.5</ele><time>2026-04-13T16:50:15.674Z</time></trkpt><trkpt lat="40.8646" lon="14.13667"><ele>95.0</ele><time>2026-04-13T16:50:16.674Z</time></trkpt><trkpt lat="40.8646283" lon="14.1365767"><ele>93.5</ele><time>2026-04-13T16:50:17.675Z</time></trkpt><trkpt lat="40.8646517" lon="14.136485"><ele>92.0</ele><time>2026-04-13T16:50:18.675Z</time></trkpt><trkpt lat="40.8646667" lon="14.136385"><ele>91.16666666666667</ele><time>2026-04-13T16:50:19.676Z</time></trkpt><trkpt lat="40.8646817" lon="14.1362717"><ele>90.33333333333334</ele><time>2026-04-13T16:50:20.677Z</time></trkpt><trkpt lat="40.8646983" lon="14.1361667"><ele>89.5</ele><time>2026-04-13T16:50:21.675Z</time></trkpt><trkpt lat="40.86471" lon="14.1360533"><ele>88.66666666666667</ele><time>2026-04-13T16:50:22.673Z</time></trkpt><trkpt lat="40.864715" lon="14.135935"><ele>87.83333333333333</ele><time>2026-04-13T16:50:23.678Z</time></trkpt><trkpt lat="40.8647233" lon="14.13582"><ele>87.0</ele><time>2026-04-13T16:50:24.675Z</time></trkpt><trkpt lat="40.86473" lon="14.1356983"><ele>86.39999999999999</ele><time>2026-04-13T16:50:25.677Z</time></trkpt><trkpt lat="40.8647333" lon="14.1355767"><ele>85.8</ele><time>2026-04-13T16:50:26.678Z</time></trkpt><trkpt lat="40.864735" lon="14.135455"><ele>85.2</ele><time>2026-04-13T16:50:27.676Z</time></trkpt><trkpt lat="40.864735" lon="14.1353367"><ele>84.6</ele><time>2026-04-13T16:50:28.676Z</time></trkpt><trkpt lat="40.8647317" lon="14.135215"><ele>84.0</ele><time>2026-04-13T16:50:29.676Z</time></trkpt><trkpt lat="40.86473" lon="14.1350917"><ele>84.0</ele><time>2026-04-13T16:50:30.675Z</time></trkpt><trkpt lat="40.86473" lon="14.1349667"><ele>84.0</ele><time>2026-04-13T16:50:31.678Z</time></trkpt><trkpt lat="40.8647233" lon="14.13484"><ele>84.0</ele><time>2026-04-13T16:50:32.678Z</time></trkpt><trkpt lat="40.8647133" lon="14.1347117"><ele>84.0</ele><time>2026-04-13T16:50:33.677Z</time></trkpt><trkpt lat="40.8647" lon="14.1345867"><ele>84.0</ele><time>2026-04-13T16:50:34.677Z</time></trkpt><trkpt lat="40.86469" lon="14.1344617"><ele>83.6</ele><time>2026-04-13T16:50:35.678Z</time></trkpt><trkpt lat="40.864675" lon="14.134335"><ele>83.2</ele><time>2026-04-13T16:50:36.677Z</time></trkpt><trkpt lat="40.86466" lon="14.1342083"><ele>82.8</ele><time>2026-04-13T16:50:37.674Z</time></trkpt><trkpt lat="40.8646433" lon="14.1340817"><ele>82.39999999999999</ele><time>2026-04-13T16:50:38.675Z</time></trkpt><trkpt lat="40.8646267" lon="14.1339567"><ele>82.0</ele><time>2026-04-13T16:50:39.676Z</time></trkpt><trkpt lat="40.8646083" lon="14.133835"><ele>81.6</ele><time>2026-04-13T16:50:40.677Z</time></trkpt><trkpt lat="40.8645883" lon="14.13371"><ele>81.19999999999999</ele><time>2026-04-13T16:50:41.675Z</time></trkpt><trkpt lat="40.86457" lon="14.13359"><ele>80.8</ele><time>2026-04-13T16:50:42.677Z</time></trkpt><trkpt lat="40.8645517" lon="14.1334667"><ele>80.4</ele><time>2026-04-13T16:50:43.677Z</time></trkpt><trkpt lat="40.8645317" lon="14.1333433"><ele>80.0</ele><time>2026-04-13T16:50:44.676Z</time></trkpt><trkpt lat="40.864515" lon="14.13322"><ele>79.8</ele><time>2026-04-13T16:50:45.677Z</time></trkpt><trkpt lat="40.8644983" lon="14.133095"><ele>79.6</ele><time>2026-04-13T16:50:46.677Z</time></trkpt><trkpt lat="40.86448" lon="14.1329683"><ele>79.4</ele><time>2026-04-13T16:50:47.675Z</time></trkpt><trkpt lat="40.864465" lon="14.1328467"><ele>79.2</ele><time>2026-04-13T16:50:48.677Z</time></trkpt><trkpt lat="40.8644483" lon="14.132725"><ele>79.0</ele><time>2026-04-13T16:50:49.676Z</time></trkpt><trkpt lat="40.8644267" lon="14.1326017"><ele>79.0</ele><time>2026-04-13T16:50:50.677Z</time></trkpt><trkpt lat="40.8644067" lon="14.1324767"><ele>79.0</ele><time>2026-04-13T16:50:51.676Z</time></trkpt><trkpt lat="40.8643917" lon="14.13235"><ele>79.0</ele><time>2026-04-13T16:50:52.678Z</time></trkpt><trkpt lat="40.8643767" lon="14.1322267"><ele>79.0</ele><time>2026-04-13T16:50:53.678Z</time></trkpt><trkpt lat="40.864365" lon="14.1321017"><ele>79.0</ele><time>2026-04-13T16:50:54.677Z</time></trkpt><trkpt lat="40.8643517" lon="14.1319783"><ele>79.0</ele><time>2026-04-13T16:50:55.678Z</time></trkpt><trkpt lat="40.8643383" lon="14.131855"><ele>79.0</ele><time>2026-04-13T16:50:56.677Z</time></trkpt><trkpt lat="40.8643267" lon="14.1317283"><ele>79.0</ele><time>2026-04-13T16:50:57.676Z</time></trkpt><trkpt lat="40.8643167" lon="14.1315983"><ele>79.0</ele><time>2026-04-13T16:50:58.679Z</time></trkpt><trkpt lat="40.8643033" lon="14.1314683"><ele>79.0</ele><time>2026-04-13T16:50:59.678Z</time></trkpt><trkpt lat="40.8642867" lon="14.1313367"><ele>77.8</ele><time>2026-04-13T16:51:00.678Z</time></trkpt><trkpt lat="40.8642767" lon="14.131205"><ele>76.60000000000001</ele><time>2026-04-13T16:51:01.678Z</time></trkpt><trkpt lat="40.8642633" lon="14.1310733"><ele>75.4</ele><time>2026-04-13T16:51:02.678Z</time></trkpt><trkpt lat="40.8642517" lon="14.130945"><ele>74.2</ele><time>2026-04-13T16:51:03.677Z</time></trkpt><trkpt lat="40.86424" lon="14.1308167"><ele>73.0</ele><time>2026-04-13T16:51:04.677Z</time></trkpt><trkpt lat="40.8642333" lon="14.1306933"><ele>72.4</ele><time>2026-04-13T16:51:05.679Z</time></trkpt><trkpt lat="40.8642333" lon="14.130565"><ele>71.8</ele><time>2026-04-13T16:51:06.676Z</time></trkpt><trkpt lat="40.8642267" lon="14.1304417"><ele>71.2</ele><time>2026-04-13T16:51:07.678Z</time></trkpt><trkpt lat="40.8642183" lon="14.1303183"><ele>70.6</ele><time>2026-04-13T16:51:08.678Z</time></trkpt><trkpt lat="40.8642117" lon="14.1301917"><ele>70.0</ele><time>2026-04-13T16:51:09.679Z</time></trkpt><trkpt lat="40.86421" lon="14.1300667"><ele>70.0</ele><time>2026-04-13T16:51:10.677Z</time></trkpt><trkpt lat="40.8642133" lon="14.1299417"><ele>70.0</ele><time>2026-04-13T16:51:11.677Z</time></trkpt><trkpt lat="40.8642167" lon="14.129815"><ele>70.0</ele><time>2026-04-13T16:51:12.676Z</time></trkpt><trkpt lat="40.8642167" lon="14.1296917"><ele>70.0</ele><time>2026-04-13T16:51:13.678Z</time></trkpt><trkpt lat="40.8642133" lon="14.1295667"><ele>70.0</ele><time>2026-04-13T16:51:14.675Z</time></trkpt><trkpt lat="40.8642133" lon="14.1294383"><ele>70.0</ele><time>2026-04-13T16:51:15.676Z</time></trkpt><trkpt lat="40.8642133" lon="14.129315"><ele>70.0</ele><time>2026-04-13T16:51:16.676Z</time></trkpt><trkpt lat="40.8642183" lon="14.1291883"><ele>70.0</ele><time>2026-04-13T16:51:17.677Z</time></trkpt><trkpt lat="40.864225" lon="14.1290633"><ele>70.0</ele><time>2026-04-13T16:51:18.675Z</time></trkpt><trkpt lat="40.864235" lon="14.1289417"><ele>70.0</ele><time>2026-04-13T16:51:19.675Z</time></trkpt><trkpt lat="40.86425" lon="14.12882"><ele>69.6</ele><time>2026-04-13T16:51:20.677Z</time></trkpt><trkpt lat="40.864275" lon="14.1286967"><ele>69.2</ele><time>2026-04-13T16:51:21.674Z</time></trkpt><trkpt lat="40.8643083" lon="14.1285817"><ele>68.8</ele><time>2026-04-13T16:51:22.676Z</time></trkpt><trkpt lat="40.864345" lon="14.128465"><ele>68.4</ele><time>2026-04-13T16:51:23.676Z</time></trkpt><trkpt lat="40.8643917" lon="14.1283633"><ele>68.0</ele><time>2026-04-13T16:51:24.676Z</time></trkpt><trkpt lat="40.8644467" lon="14.1282633"><ele>67.66666666666667</ele><time>2026-04-13T16:51:25.676Z</time></trkpt><trkpt lat="40.8645017" lon="14.1281717"><ele>67.33333333333334</ele><time>2026-04-13T16:51:26.676Z</time></trkpt><trkpt lat="40.8645617" lon="14.128085"><ele>67.0</ele><time>2026-04-13T16:51:27.676Z</time></trkpt><trkpt lat="40.8646267" lon="14.1280033"><ele>66.66666666666667</ele><time>2026-04-13T16:51:28.677Z</time></trkpt><trkpt lat="40.8646933" lon="14.12792"><ele>66.33333333333333</ele><time>2026-04-13T16:51:29.678Z</time></trkpt><trkpt lat="40.8647567" lon="14.1278383"><ele>66.0</ele><time>2026-04-13T16:51:30.674Z</time></trkpt><trkpt lat="40.86482" lon="14.1277583"><ele>66.0</ele><time>2026-04-13T16:51:31.676Z</time></trkpt><trkpt lat="40.8648817" lon="14.12767"><ele>66.0</ele><time>2026-04-13T16:51:32.674Z</time></trkpt><trkpt lat="40.8649417" lon="14.1275883"><ele>66.0</ele><time>2026-04-13T16:51:33.679Z</time></trkpt><trkpt lat="40.8650067" lon="14.1275083"><ele>66.0</ele><time>2026-04-13T16:51:34.675Z</time></trkpt><trkpt lat="40.86507" lon="14.1274283"><ele>66.0</ele><time>2026-04-13T16:51:35.676Z</time></trkpt><trkpt lat="40.8651267" lon="14.1273467"><ele>66.0</ele><time>2026-04-13T16:51:36.676Z</time></trkpt><trkpt lat="40.8651833" lon="14.127265"><ele>66.0</ele><time>2026-04-13T16:51:37.676Z</time></trkpt><trkpt lat="40.8652433" lon="14.1271817"><ele>66.0</ele><time>2026-04-13T16:51:38.677Z</time></trkpt><trkpt lat="40.8653067" lon="14.1270983"><ele>66.0</ele><time>2026-04-13T16:51:39.68Z</time></trkpt><trkpt lat="40.8653717" lon="14.127015"><ele>66.0</ele><time>2026-04-13T16:51:40.678Z</time></trkpt><trkpt lat="40.865435" lon="14.12693"><ele>66.0</ele><time>2026-04-13T16:51:41.675Z</time></trkpt><trkpt lat="40.8654983" lon="14.1268483"><ele>66.0</ele><time>2026-04-13T16:51:42.677Z</time></trkpt><trkpt lat="40.8655667" lon="14.12678"><ele>66.0</ele><time>2026-04-13T16:51:43.676Z</time></trkpt><trkpt lat="40.865635" lon="14.12672"><ele>66.0</ele><time>2026-04-13T16:51:44.683Z</time></trkpt><trkpt lat="40.8656933" lon="14.1266517"><ele>66.0</ele><time>2026-04-13T16:51:45.673Z</time></trkpt><trkpt lat="40.86575" lon="14.12659"><ele>66.0</ele><time>2026-04-13T16:51:46.674Z</time></trkpt><trkpt lat="40.8658033" lon="14.1265167"><ele>66.0</ele><time>2026-04-13T16:51:47.674Z</time></trkpt><trkpt lat="40.8658567" lon="14.126445"><ele>66.0</ele><time>2026-04-13T16:51:48.674Z</time></trkpt><trkpt lat="40.8659083" lon="14.12638"><ele>67.0</ele><time>2026-04-13T16:51:49.673Z</time></trkpt><trkpt lat="40.8659617" lon="14.1263167"><ele>68.0</ele><time>2026-04-13T16:51:50.674Z</time></trkpt><trkpt lat="40.8660133" lon="14.1262583"><ele>69.0</ele><time>2026-04-13T16:51:51.674Z</time></trkpt><trkpt lat="40.8660633" lon="14.1261933"><ele>70.0</ele><time>2026-04-13T16:51:52.675Z</time></trkpt><trkpt lat="40.8661117" lon="14.12613"><ele>71.0</ele><time>2026-04-13T16:51:53.681Z</time></trkpt><trkpt lat="40.8661567" lon="14.12606"><ele>72.0</ele><time>2026-04-13T16:51:54.678Z</time></trkpt><trkpt lat="40.8662033" lon="14.1259917"><ele>73.0</ele><time>2026-04-13T16:51:55.684Z</time></trkpt><trkpt lat="40.8662983" lon="14.125865"><ele>73.0</ele><time>2026-04-13T16:51:57.676Z</time></trkpt><trkpt lat="40.8663833" lon="14.125745"><ele>73.0</ele><time>2026-04-13T16:51:59.677Z</time></trkpt><trkpt lat="40.8664717" lon="14.1256367"><ele>73.0</ele><time>2026-04-13T16:52:01.675Z</time></trkpt><trkpt lat="40.86655" lon="14.125525"><ele>73.0</ele><time>2026-04-13T16:52:03.747Z</time></trkpt><trkpt lat="40.866595" lon="14.1254617"><ele>73.0</ele><time>2026-04-13T16:52:04.674Z</time></trkpt><trkpt lat="40.8666433" lon="14.1254"><ele>74.5</ele><time>2026-04-13T16:52:05.674Z</time></trkpt><trkpt lat="40.86672" lon="14.12529"><ele>76.0</ele><time>2026-04-13T16:52:07.681Z</time></trkpt><trkpt lat="40.86681" lon="14.1252067"><ele>77.5</ele><time>2026-04-13T16:52:09.675Z</time></trkpt><trkpt lat="40.86689" lon="14.125085"><ele>79.0</ele><time>2026-04-13T16:52:11.676Z</time></trkpt><trkpt lat="40.8670083" lon="14.124915"><ele>78.5</ele><time>2026-04-13T16:52:14.676Z</time></trkpt><trkpt lat="40.8670717" lon="14.1248083"><ele>78.0</ele><time>2026-04-13T16:52:16.683Z</time></trkpt><trkpt lat="40.8671233" lon="14.1247333"><ele>77.5</ele><time>2026-04-13T16:52:18.675Z</time></trkpt><trkpt lat="40.867105" lon="14.1246283"><ele>77.0</ele><time>2026-04-13T16:52:22.675Z</time></trkpt><trkpt lat="40.8670567" lon="14.124565"><ele>76.5</ele><time>2026-04-13T16:52:24.68Z</time></trkpt><trkpt lat="40.867" lon="14.1245017"><ele>76.0</ele><time>2026-04-13T16:52:26.675Z</time></trkpt><trkpt lat="40.8669133" lon="14.1244467"><ele>76.0</ele><time>2026-04-13T16:52:28.676Z</time></trkpt><trkpt lat="40.866815" lon="14.1243917"><ele>76.0</ele><time>2026-04-13T16:52:30.674Z</time></trkpt><trkpt lat="40.8667117" lon="14.12433"><ele>76.0</ele><time>2026-04-13T16:52:32.676Z</time></trkpt><trkpt lat="40.8666" lon="14.1242667"><ele>76.0</ele><time>2026-04-13T16:52:34.677Z</time></trkpt><trkpt lat="40.866535" lon="14.1242417"><ele>76.0</ele><time>2026-04-13T16:52:35.676Z</time></trkpt><trkpt lat="40.8664717" lon="14.1242167"><ele>73.33333333333333</ele><time>2026-04-13T16:52:36.675Z</time></trkpt><trkpt lat="40.8664067" lon="14.1241883"><ele>70.66666666666666</ele><time>2026-04-13T16:52:37.676Z</time></trkpt><trkpt lat="40.8663433" lon="14.12416"><ele>68.0</ele><time>2026-04-13T16:52:38.678Z</time></trkpt><trkpt lat="40.86628" lon="14.1241317"><ele>65.33333333333333</ele><time>2026-04-13T16:52:39.674Z</time></trkpt><trkpt lat="40.8661667" lon="14.1240667"><ele>62.666666666666664</ele><time>2026-04-13T16:52:41.678Z</time></trkpt><trkpt lat="40.8660617" lon="14.1239983"><ele>60.0</ele><time>2026-04-13T16:52:43.676Z</time></trkpt><trkpt lat="40.8660033" lon="14.1239667"><ele>59.42857142857143</ele><time>2026-04-13T16:52:44.677Z</time></trkpt><trkpt lat="40.8659417" lon="14.1239367"><ele>58.857142857142854</ele><time>2026-04-13T16:52:45.677Z</time></trkpt><trkpt lat="40.86588" lon="14.1239067"><ele>58.285714285714285</ele><time>2026-04-13T16:52:46.676Z</time></trkpt><trkpt lat="40.86582" lon="14.123875"><ele>57.714285714285715</ele><time>2026-04-13T16:52:47.676Z</time></trkpt><trkpt lat="40.8657567" lon="14.123845"><ele>57.14285714285714</ele><time>2026-04-13T16:52:48.676Z</time></trkpt><trkpt lat="40.8656917" lon="14.1238117"><ele>56.57142857142857</ele><time>2026-04-13T16:52:49.676Z</time></trkpt><trkpt lat="40.8656283" lon="14.1237833"><ele>56.0</ele><time>2026-04-13T16:52:50.676Z</time></trkpt><trkpt lat="40.8655667" lon="14.123755"><ele>56.0</ele><time>2026-04-13T16:52:51.676Z</time></trkpt><trkpt lat="40.8655017" lon="14.1237283"><ele>56.0</ele><time>2026-04-13T16:52:52.675Z</time></trkpt><trkpt lat="40.865435" lon="14.1237067"><ele>56.0</ele><time>2026-04-13T16:52:53.677Z</time></trkpt><trkpt lat="40.8653717" lon="14.1236783"><ele>56.0</ele><time>2026-04-13T16:52:54.676Z</time></trkpt><trkpt lat="40.8653117" lon="14.12364"><ele>56.0</ele><time>2026-04-13T16:52:55.676Z</time></trkpt><trkpt lat="40.8652517" lon="14.1236067"><ele>56.0</ele><time>2026-04-13T16:52:56.676Z</time></trkpt><trkpt lat="40.86519" lon="14.1235767"><ele>56.0</ele><time>2026-04-13T16:52:57.675Z</time></trkpt><trkpt lat="40.86513" lon="14.1235433"><ele>55.833333333333336</ele><time>2026-04-13T16:52:58.676Z</time></trkpt><trkpt lat="40.8650683" lon="14.1235133"><ele>55.66666666666667</ele><time>2026-04-13T16:52:59.677Z</time></trkpt><trkpt lat="40.865005" lon="14.1234817"><ele>55.5</ele><time>2026-04-13T16:53:00.678Z</time></trkpt><trkpt lat="40.8649467" lon="14.1234483"><ele>55.33333333333333</ele><time>2026-04-13T16:53:01.677Z</time></trkpt><trkpt lat="40.8648867" lon="14.1234167"><ele>55.166666666666664</ele><time>2026-04-13T16:53:02.677Z</time></trkpt><trkpt lat="40.8648267" lon="14.1233867"><ele>55.0</ele><time>2026-04-13T16:53:03.676Z</time></trkpt><trkpt lat="40.8647117" lon="14.1233233"><ele>54.99999999999999</ele><time>2026-04-13T16:53:05.679Z</time></trkpt><trkpt lat="40.8646517" lon="14.12329"><ele>55.0</ele><time>2026-04-13T16:53:06.679Z</time></trkpt><trkpt lat="40.8645933" lon="14.1232583"><ele>55.0</ele><time>2026-04-13T16:53:07.676Z</time></trkpt><trkpt lat="40.8645333" lon="14.1232283"><ele>55.0</ele><time>2026-04-13T16:53:08.677Z</time></trkpt><trkpt lat="40.8644167" lon="14.1231683"><ele>54.99999999999999</ele><time>2026-04-13T16:53:10.675Z</time></trkpt><trkpt lat="40.864305" lon="14.1231017"><ele>55.0</ele><time>2026-04-13T16:53:12.674Z</time></trkpt><trkpt lat="40.8641933" lon="14.12303"><ele>54.857142857142854</ele><time>2026-04-13T16:53:14.679Z</time></trkpt><trkpt lat="40.86408" lon="14.122965"><ele>54.714285714285715</ele><time>2026-04-13T16:53:16.676Z</time></trkpt><trkpt lat="40.8640217" lon="14.1229333"><ele>54.57142857142857</ele><time>2026-04-13T16:53:17.675Z</time></trkpt><trkpt lat="40.8639617" lon="14.1229017"><ele>54.42857142857143</ele><time>2026-04-13T16:53:18.677Z</time></trkpt><trkpt lat="40.8639033" lon="14.12287"><ele>54.285714285714285</ele><time>2026-04-13T16:53:19.675Z</time></trkpt><trkpt lat="40.863845" lon="14.122835"><ele>54.14285714285714</ele><time>2026-04-13T16:53:20.675Z</time></trkpt><trkpt lat="40.863785" lon="14.1228033"><ele>54.0</ele><time>2026-04-13T16:53:21.675Z</time></trkpt><trkpt lat="40.8637217" lon="14.1227733"><ele>54.0</ele><time>2026-04-13T16:53:22.675Z</time></trkpt><trkpt lat="40.8636583" lon="14.12274"><ele>54.0</ele><time>2026-04-13T16:53:23.675Z</time></trkpt><trkpt lat="40.8635967" lon="14.1227083"><ele>54.0</ele><time>2026-04-13T16:53:24.676Z</time></trkpt><trkpt lat="40.863535" lon="14.1226783"><ele>54.0</ele><time>2026-04-13T16:53:25.676Z</time></trkpt><trkpt lat="40.8634717" lon="14.1226417"><ele>54.0</ele><time>2026-04-13T16:53:26.675Z</time></trkpt><trkpt lat="40.8634117" lon="14.122605"><ele>54.0</ele><time>2026-04-13T16:53:27.675Z</time></trkpt><trkpt lat="40.8633517" lon="14.1225683"><ele>54.0</ele><time>2026-04-13T16:53:28.675Z</time></trkpt><trkpt lat="40.86329" lon="14.1225317"><ele>54.0</ele><time>2026-04-13T16:53:29.676Z</time></trkpt><trkpt lat="40.8632267" lon="14.1224967"><ele>54.0</ele><time>2026-04-13T16:53:30.676Z</time></trkpt><trkpt lat="40.863165" lon="14.1224617"><ele>54.0</ele><time>2026-04-13T16:53:31.675Z</time></trkpt><trkpt lat="40.8631033" lon="14.1224283"><ele>54.0</ele><time>2026-04-13T16:53:32.675Z</time></trkpt><trkpt lat="40.8630417" lon="14.1223933"><ele>54.0</ele><time>2026-04-13T16:53:33.676Z</time></trkpt><trkpt lat="40.86298" lon="14.12236"><ele>54.0</ele><time>2026-04-13T16:53:34.675Z</time></trkpt><trkpt lat="40.86292" lon="14.1223267"><ele>54.0</ele><time>2026-04-13T16:53:35.677Z</time></trkpt><trkpt lat="40.8628617" lon="14.1222917"><ele>54.0</ele><time>2026-04-13T16:53:36.675Z</time></trkpt><trkpt lat="40.8627467" lon="14.12223"><ele>54.0</ele><time>2026-04-13T16:53:38.675Z</time></trkpt><trkpt lat="40.8626867" lon="14.1221967"><ele>54.0</ele><time>2026-04-13T16:53:39.675Z</time></trkpt><trkpt lat="40.8626267" lon="14.1221617"><ele>54.0</ele><time>2026-04-13T16:53:40.675Z</time></trkpt><trkpt lat="40.8625667" lon="14.1221283"><ele>54.0</ele><time>2026-04-13T16:53:41.676Z</time></trkpt><trkpt lat="40.862505" lon="14.1220933"><ele>54.0</ele><time>2026-04-13T16:53:42.675Z</time></trkpt><trkpt lat="40.8624433" lon="14.12206"><ele>54.0</ele><time>2026-04-13T16:53:43.678Z</time></trkpt><trkpt lat="40.8623833" lon="14.1220283"><ele>54.0</ele><time>2026-04-13T16:53:44.679Z</time></trkpt><trkpt lat="40.862265" lon="14.12197"><ele>54.0</ele><time>2026-04-13T16:53:46.675Z</time></trkpt><trkpt lat="40.8622067" lon="14.1219383"><ele>54.0</ele><time>2026-04-13T16:53:47.676Z</time></trkpt><trkpt lat="40.8621467" lon="14.12191"><ele>54.0</ele><time>2026-04-13T16:53:48.678Z</time></trkpt><trkpt lat="40.8620817" lon="14.12188"><ele>54.0</ele><time>2026-04-13T16:53:49.676Z</time></trkpt><trkpt lat="40.8620167" lon="14.1218517"><ele>54.0</ele><time>2026-04-13T16:53:50.675Z</time></trkpt><trkpt lat="40.8619517" lon="14.1218217"><ele>54.0</ele><time>2026-04-13T16:53:51.675Z</time></trkpt><trkpt lat="40.8618867" lon="14.1217917"><ele>54.0</ele><time>2026-04-13T16:53:52.677Z</time></trkpt><trkpt lat="40.861825" lon="14.12176"><ele>54.0</ele><time>2026-04-13T16:53:53.678Z</time></trkpt><trkpt lat="40.861765" lon="14.121725"><ele>54.0</ele><time>2026-04-13T16:53:54.679Z</time></trkpt><trkpt lat="40.861705" lon="14.1216883"><ele>54.0</ele><time>2026-04-13T16:53:55.676Z</time></trkpt><trkpt lat="40.861645" lon="14.121655"><ele>54.0</ele><time>2026-04-13T16:53:56.679Z</time></trkpt><trkpt lat="40.861585" lon="14.12162"><ele>54.0</ele><time>2026-04-13T16:53:57.674Z</time></trkpt><trkpt lat="40.8615233" lon="14.1215883"><ele>54.0</ele><time>2026-04-13T16:53:58.675Z</time></trkpt><trkpt lat="40.8614617" lon="14.1215567"><ele>54.0</ele><time>2026-04-13T16:53:59.677Z</time></trkpt><trkpt lat="40.8614" lon="14.1215267"><ele>54.0</ele><time>2026-04-13T16:54:00.678Z</time></trkpt><trkpt lat="40.8613433" lon="14.1214883"><ele>54.0</ele><time>2026-04-13T16:54:01.678Z</time></trkpt><trkpt lat="40.8612833" lon="14.121455"><ele>54.0</ele><time>2026-04-13T16:54:02.677Z</time></trkpt><trkpt lat="40.8612233" lon="14.1214233"><ele>54.0</ele><time>2026-04-13T16:54:03.677Z</time></trkpt><trkpt lat="40.8611583" lon="14.121395"><ele>54.0</ele><time>2026-04-13T16:54:04.677Z</time></trkpt><trkpt lat="40.8610983" lon="14.1213683"><ele>54.0</ele><time>2026-04-13T16:54:05.679Z</time></trkpt><trkpt lat="40.86104" lon="14.1213367"><ele>54.0</ele><time>2026-04-13T16:54:06.677Z</time></trkpt><trkpt lat="40.8609767" lon="14.1213083"><ele>54.0</ele><time>2026-04-13T16:54:07.676Z</time></trkpt><trkpt lat="40.8609167" lon="14.1212783"><ele>54.0</ele><time>2026-04-13T16:54:08.679Z</time></trkpt><trkpt lat="40.8608533" lon="14.12125"><ele>54.0</ele><time>2026-04-13T16:54:09.677Z</time></trkpt><trkpt lat="40.8607883" lon="14.121225"><ele>54.0</ele><time>2026-04-13T16:54:10.678Z</time></trkpt><trkpt lat="40.8607283" lon="14.1211917"><ele>54.0</ele><time>2026-04-13T16:54:11.676Z</time></trkpt><trkpt lat="40.8606683" lon="14.12116"><ele>54.0</ele><time>2026-04-13T16:54:12.678Z</time></trkpt><trkpt lat="40.8606033" lon="14.1211333"><ele>54.0</ele><time>2026-04-13T16:54:13.678Z</time></trkpt><trkpt lat="40.86054" lon="14.1211067"><ele>54.0</ele><time>2026-04-13T16:54:14.676Z</time></trkpt><trkpt lat="40.860475" lon="14.121075"><ele>54.0</ele><time>2026-04-13T16:54:15.677Z</time></trkpt><trkpt lat="40.8604117" lon="14.1210417"><ele>54.0</ele><time>2026-04-13T16:54:16.676Z</time></trkpt><trkpt lat="40.8603517" lon="14.1210133"><ele>54.0</ele><time>2026-04-13T16:54:17.676Z</time></trkpt><trkpt lat="40.8602883" lon="14.1209867"><ele>54.0</ele><time>2026-04-13T16:54:18.675Z</time></trkpt><trkpt lat="40.860225" lon="14.1209633"><ele>54.0</ele><time>2026-04-13T16:54:19.676Z</time></trkpt><trkpt lat="40.8601633" lon="14.12094"><ele>54.0</ele><time>2026-04-13T16:54:20.676Z</time></trkpt><trkpt lat="40.8601017" lon="14.12092"><ele>54.0</ele><time>2026-04-13T16:54:21.677Z</time></trkpt><trkpt lat="40.86004" lon="14.1208967"><ele>54.0</ele><time>2026-04-13T16:54:22.677Z</time></trkpt><trkpt lat="40.859975" lon="14.12088"><ele>54.0</ele><time>2026-04-13T16:54:23.675Z</time></trkpt><trkpt lat="40.85991" lon="14.12086"><ele>54.0</ele><time>2026-04-13T16:54:24.678Z</time></trkpt><trkpt lat="40.8597917" lon="14.1208267"><ele>54.0</ele><time>2026-04-13T16:54:26.675Z</time></trkpt><trkpt lat="40.8596717" lon="14.12079"><ele>54.00000000000001</ele><time>2026-04-13T16:54:28.676Z</time></trkpt><trkpt lat="40.8595533" lon="14.120765"><ele>54.00000000000001</ele><time>2026-04-13T16:54:30.676Z</time></trkpt><trkpt lat="40.85943" lon="14.1207433"><ele>54.0</ele><time>2026-04-13T16:54:32.674Z</time></trkpt><trkpt lat="40.8593583" lon="14.12075"><ele>54.0</ele><time>2026-04-13T16:54:33.675Z</time></trkpt><trkpt lat="40.8592333" lon="14.1207333"><ele>54.400000000000006</ele><time>2026-04-13T16:54:35.68Z</time></trkpt><trkpt lat="40.85917" lon="14.1207233"><ele>54.800000000000004</ele><time>2026-04-13T16:54:36.679Z</time></trkpt><trkpt lat="40.8590467" lon="14.1207"><ele>55.199999999999996</ele><time>2026-04-13T16:54:38.677Z</time></trkpt><trkpt lat="40.8589217" lon="14.120675"><ele>55.599999999999994</ele><time>2026-04-13T16:54:40.675Z</time></trkpt><trkpt lat="40.8588583" lon="14.1206717"><ele>56.0</ele><time>2026-04-13T16:54:41.678Z</time></trkpt><trkpt lat="40.8587367" lon="14.12065"><ele>56.00000000000001</ele><time>2026-04-13T16:54:43.677Z</time></trkpt><trkpt lat="40.8586733" lon="14.1206383"><ele>56.0</ele><time>2026-04-13T16:54:44.677Z</time></trkpt><trkpt lat="40.8586117" lon="14.1206183"><ele>56.0</ele><time>2026-04-13T16:54:45.677Z</time></trkpt><trkpt lat="40.858545" lon="14.1206"><ele>56.0</ele><time>2026-04-13T16:54:46.675Z</time></trkpt><trkpt lat="40.8584817" lon="14.1205867"><ele>56.00000000000001</ele><time>2026-04-13T16:54:47.677Z</time></trkpt><trkpt lat="40.8583617" lon="14.1205667"><ele>56.0</ele><time>2026-04-13T16:54:49.677Z</time></trkpt><trkpt lat="40.8582417" lon="14.1205483"><ele>56.0</ele><time>2026-04-13T16:54:51.675Z</time></trkpt><trkpt lat="40.8581233" lon="14.1205283"><ele>56.0</ele><time>2026-04-13T16:54:53.677Z</time></trkpt><trkpt lat="40.858005" lon="14.1205017"><ele>56.0</ele><time>2026-04-13T16:54:55.677Z</time></trkpt><trkpt lat="40.857885" lon="14.1204667"><ele>56.0</ele><time>2026-04-13T16:54:57.678Z</time></trkpt><trkpt lat="40.8577667" lon="14.1204333"><ele>56.0</ele><time>2026-04-13T16:54:59.676Z</time></trkpt><trkpt lat="40.8576433" lon="14.1204083"><ele>55.99999999999999</ele><time>2026-04-13T16:55:01.678Z</time></trkpt><trkpt lat="40.8575217" lon="14.120385"><ele>55.99999999999999</ele><time>2026-04-13T16:55:03.677Z</time></trkpt><trkpt lat="40.8574583" lon="14.1203683"><ele>56.0</ele><time>2026-04-13T16:55:04.678Z</time></trkpt><trkpt lat="40.8573483" lon="14.1203367"><ele>56.0</ele><time>2026-04-13T16:55:06.675Z</time></trkpt><trkpt lat="40.85723" lon="14.120315"><ele>56.00000000000001</ele><time>2026-04-13T16:55:08.677Z</time></trkpt><trkpt lat="40.8571083" lon="14.120285"><ele>56.0</ele><time>2026-04-13T16:55:10.677Z</time></trkpt><trkpt lat="40.8570417" lon="14.1202733"><ele>56.0</ele><time>2026-04-13T16:55:11.676Z</time></trkpt><trkpt lat="40.8569167" lon="14.1202467"><ele>56.0</ele><time>2026-04-13T16:55:13.677Z</time></trkpt><trkpt lat="40.8568533" lon="14.1202333"><ele>56.00000000000001</ele><time>2026-04-13T16:55:14.678Z</time></trkpt><trkpt lat="40.8567883" lon="14.12022"><ele>56.0</ele><time>2026-04-13T16:55:15.676Z</time></trkpt><trkpt lat="40.85667" lon="14.1202083"><ele>56.25</ele><time>2026-04-13T16:55:17.679Z</time></trkpt><trkpt lat="40.8565567" lon="14.1201933"><ele>56.5</ele><time>2026-04-13T16:55:19.678Z</time></trkpt><trkpt lat="40.8564433" lon="14.1201733"><ele>56.75</ele><time>2026-04-13T16:55:21.677Z</time></trkpt><trkpt lat="40.8563233" lon="14.1201483"><ele>57.0</ele><time>2026-04-13T16:55:23.677Z</time></trkpt><trkpt lat="40.8562033" lon="14.1201133"><ele>57.0</ele><time>2026-04-13T16:55:25.68Z</time></trkpt><trkpt lat="40.8560817" lon="14.1200883"><ele>57.0</ele><time>2026-04-13T16:55:27.679Z</time></trkpt><trkpt lat="40.85596" lon="14.12006"><ele>57.0</ele><time>2026-04-13T16:55:29.676Z</time></trkpt><trkpt lat="40.8558983" lon="14.1200433"><ele>57.0</ele><time>2026-04-13T16:55:30.679Z</time></trkpt><trkpt lat="40.8557783" lon="14.1200133"><ele>57.0</ele><time>2026-04-13T16:55:32.678Z</time></trkpt><trkpt lat="40.855715" lon="14.1200033"><ele>57.2</ele><time>2026-04-13T16:55:33.676Z</time></trkpt><trkpt lat="40.8556517" lon="14.1199917"><ele>57.400000000000006</ele><time>2026-04-13T16:55:34.675Z</time></trkpt><trkpt lat="40.85553" lon="14.11996"><ele>57.599999999999994</ele><time>2026-04-13T16:55:36.676Z</time></trkpt><trkpt lat="40.8554683" lon="14.1199433"><ele>57.8</ele><time>2026-04-13T16:55:37.678Z</time></trkpt><trkpt lat="40.8553433" lon="14.1199167"><ele>58.0</ele><time>2026-04-13T16:55:39.678Z</time></trkpt><trkpt lat="40.8552233" lon="14.1198967"><ele>58.0</ele><time>2026-04-13T16:55:41.679Z</time></trkpt><trkpt lat="40.855105" lon="14.119875"><ele>58.0</ele><time>2026-04-13T16:55:43.675Z</time></trkpt><trkpt lat="40.8550417" lon="14.1198633"><ele>58.0</ele><time>2026-04-13T16:55:44.675Z</time></trkpt><trkpt lat="40.8549217" lon="14.1198383"><ele>58.0</ele><time>2026-04-13T16:55:46.678Z</time></trkpt><trkpt lat="40.8548" lon="14.1198183"><ele>58.0</ele><time>2026-04-13T16:55:48.677Z</time></trkpt><trkpt lat="40.85468" lon="14.1197883"><ele>58.0</ele><time>2026-04-13T16:55:50.675Z</time></trkpt><trkpt lat="40.854615" lon="14.1197733"><ele>58.0</ele><time>2026-04-13T16:55:51.677Z</time></trkpt><trkpt lat="40.8544983" lon="14.1197433"><ele>58.0</ele><time>2026-04-13T16:55:53.679Z</time></trkpt><trkpt lat="40.8543767" lon="14.1197217"><ele>58.0</ele><time>2026-04-13T16:55:55.678Z</time></trkpt><trkpt lat="40.8542533" lon="14.1196917"><ele>58.0</ele><time>2026-04-13T16:55:57.68Z</time></trkpt><trkpt lat="40.8541317" lon="14.1196633"><ele>58.4</ele><time>2026-04-13T16:55:59.679Z</time></trkpt><trkpt lat="40.854015" lon="14.119645"><ele>58.8</ele><time>2026-04-13T16:56:01.678Z</time></trkpt><trkpt lat="40.853895" lon="14.1196117"><ele>59.2</ele><time>2026-04-13T16:56:03.678Z</time></trkpt><trkpt lat="40.8538317" lon="14.1195983"><ele>59.6</ele><time>2026-04-13T16:56:04.675Z</time></trkpt><trkpt lat="40.8537117" lon="14.1195833"><ele>60.0</ele><time>2026-04-13T16:56:06.678Z</time></trkpt><trkpt lat="40.85359" lon="14.11956"><ele>60.0</ele><time>2026-04-13T16:56:08.678Z</time></trkpt><trkpt lat="40.853475" lon="14.1195233"><ele>60.0</ele><time>2026-04-13T16:56:10.679Z</time></trkpt><trkpt lat="40.8534117" lon="14.1195117"><ele>60.0</ele><time>2026-04-13T16:56:11.675Z</time></trkpt><trkpt lat="40.8533483" lon="14.119495"><ele>60.0</ele><time>2026-04-13T16:56:12.675Z</time></trkpt><trkpt lat="40.8532833" lon="14.11948"><ele>60.0</ele><time>2026-04-13T16:56:13.676Z</time></trkpt><trkpt lat="40.8531617" lon="14.11946"><ele>60.0</ele><time>2026-04-13T16:56:15.677Z</time></trkpt><trkpt lat="40.8530383" lon="14.119435"><ele>61.0</ele><time>2026-04-13T16:56:17.676Z</time></trkpt><trkpt lat="40.8529183" lon="14.1194133"><ele>62.0</ele><time>2026-04-13T16:56:19.676Z</time></trkpt><trkpt lat="40.8528017" lon="14.119385"><ele>63.0</ele><time>2026-04-13T16:56:21.677Z</time></trkpt><trkpt lat="40.8527367" lon="14.1193717"><ele>64.0</ele><time>2026-04-13T16:56:22.679Z</time></trkpt><trkpt lat="40.8526167" lon="14.1193433"><ele>65.0</ele><time>2026-04-13T16:56:24.676Z</time></trkpt><trkpt lat="40.8524933" lon="14.1193167"><ele>65.2</ele><time>2026-04-13T16:56:26.677Z</time></trkpt><trkpt lat="40.8523767" lon="14.11929"><ele>65.4</ele><time>2026-04-13T16:56:28.676Z</time></trkpt><trkpt lat="40.852255" lon="14.1192633"><ele>65.6</ele><time>2026-04-13T16:56:30.678Z</time></trkpt><trkpt lat="40.8521917" lon="14.1192567"><ele>65.8</ele><time>2026-04-13T16:56:31.677Z</time></trkpt><trkpt lat="40.8521283" lon="14.1192467"><ele>66.0</ele><time>2026-04-13T16:56:32.677Z</time></trkpt><trkpt lat="40.852005" lon="14.119225"><ele>66.0</ele><time>2026-04-13T16:56:34.677Z</time></trkpt><trkpt lat="40.8519417" lon="14.119215"><ele>66.0</ele><time>2026-04-13T16:56:35.675Z</time></trkpt><trkpt lat="40.85182" lon="14.1191917"><ele>66.0</ele><time>2026-04-13T16:56:37.677Z</time></trkpt><trkpt lat="40.8517567" lon="14.1191767"><ele>66.0</ele><time>2026-04-13T16:56:38.676Z</time></trkpt><trkpt lat="40.8516933" lon="14.1191633"><ele>66.0</ele><time>2026-04-13T16:56:39.675Z</time></trkpt><trkpt lat="40.85163" lon="14.1191517"><ele>66.0</ele><time>2026-04-13T16:56:40.675Z</time></trkpt><trkpt lat="40.8515667" lon="14.1191417"><ele>66.0</ele><time>2026-04-13T16:56:41.676Z</time></trkpt><trkpt lat="40.8515033" lon="14.1191267"><ele>66.0</ele><time>2026-04-13T16:56:42.676Z</time></trkpt><trkpt lat="40.85144" lon="14.119115"><ele>66.0</ele><time>2026-04-13T16:56:43.677Z</time></trkpt><trkpt lat="40.85132" lon="14.11908"><ele>66.0</ele><time>2026-04-13T16:56:45.679Z</time></trkpt><trkpt lat="40.8511983" lon="14.1190483"><ele>66.0</ele><time>2026-04-13T16:56:47.678Z</time></trkpt><trkpt lat="40.8510783" lon="14.1190167"><ele>66.0</ele><time>2026-04-13T16:56:49.68Z</time></trkpt><trkpt lat="40.8509583" lon="14.1189867"><ele>66.0</ele><time>2026-04-13T16:56:51.679Z</time></trkpt><trkpt lat="40.8508433" lon="14.1189467"><ele>66.0</ele><time>2026-04-13T16:56:53.679Z</time></trkpt><trkpt lat="40.8507233" lon="14.11893"><ele>66.0</ele><time>2026-04-13T16:56:55.676Z</time></trkpt><trkpt lat="40.8506017" lon="14.1189033"><ele>66.0</ele><time>2026-04-13T16:56:57.674Z</time></trkpt><trkpt lat="40.85049" lon="14.1188767"><ele>66.0</ele><time>2026-04-13T16:56:59.678Z</time></trkpt><trkpt lat="40.8503767" lon="14.1188517"><ele>66.0</ele><time>2026-04-13T16:57:01.678Z</time></trkpt><trkpt lat="40.850255" lon="14.1188233"><ele>66.0</ele><time>2026-04-13T16:57:03.679Z</time></trkpt><trkpt lat="40.8501417" lon="14.1187933"><ele>66.0</ele><time>2026-04-13T16:57:05.678Z</time></trkpt><trkpt lat="40.8500267" lon="14.1187733"><ele>67.0</ele><time>2026-04-13T16:57:07.676Z</time></trkpt><trkpt lat="40.8499117" lon="14.1187533"><ele>68.0</ele><time>2026-04-13T16:57:09.675Z</time></trkpt><trkpt lat="40.84979" lon="14.1187367"><ele>69.0</ele><time>2026-04-13T16:57:11.675Z</time></trkpt><trkpt lat="40.8496717" lon="14.1187167"><ele>70.0</ele><time>2026-04-13T16:57:13.677Z</time></trkpt><trkpt lat="40.8495517" lon="14.1186933"><ele>70.0</ele><time>2026-04-13T16:57:15.676Z</time></trkpt><trkpt lat="40.84944" lon="14.1186683"><ele>70.0</ele><time>2026-04-13T16:57:17.677Z</time></trkpt><trkpt lat="40.849325" lon="14.11865"><ele>70.0</ele><time>2026-04-13T16:57:19.676Z</time></trkpt><trkpt lat="40.84921" lon="14.1186267"><ele>70.0</ele><time>2026-04-13T16:57:21.676Z</time></trkpt><trkpt lat="40.8490933" lon="14.118605"><ele>70.4</ele><time>2026-04-13T16:57:23.675Z</time></trkpt><trkpt lat="40.8489783" lon="14.11858"><ele>70.8</ele><time>2026-04-13T16:57:25.676Z</time></trkpt><trkpt lat="40.84886" lon="14.1185583"><ele>71.2</ele><time>2026-04-13T16:57:27.675Z</time></trkpt><trkpt lat="40.848795" lon="14.1185433"><ele>71.6</ele><time>2026-04-13T16:57:28.676Z</time></trkpt><trkpt lat="40.84873" lon="14.11853"><ele>72.0</ele><time>2026-04-13T16:57:29.676Z</time></trkpt><trkpt lat="40.8486083" lon="14.118505"><ele>72.0</ele><time>2026-04-13T16:57:31.676Z</time></trkpt><trkpt lat="40.8484817" lon="14.118485"><ele>72.0</ele><time>2026-04-13T16:57:33.677Z</time></trkpt><trkpt lat="40.8483583" lon="14.1184583"><ele>72.0</ele><time>2026-04-13T16:57:35.676Z</time></trkpt><trkpt lat="40.8482367" lon="14.1184333"><ele>72.0</ele><time>2026-04-13T16:57:37.677Z</time></trkpt><trkpt lat="40.8481733" lon="14.1184217"><ele>72.0</ele><time>2026-04-13T16:57:38.676Z</time></trkpt><trkpt lat="40.84811" lon="14.11841"><ele>72.33333333333333</ele><time>2026-04-13T16:57:39.676Z</time></trkpt><trkpt lat="40.84799" lon="14.1183833"><ele>72.66666666666667</ele><time>2026-04-13T16:57:41.676Z</time></trkpt><trkpt lat="40.8478667" lon="14.118345"><ele>73.0</ele><time>2026-04-13T16:57:43.676Z</time></trkpt><trkpt lat="40.8478033" lon="14.11833"><ele>73.33333333333334</ele><time>2026-04-13T16:57:44.675Z</time></trkpt><trkpt lat="40.84774" lon="14.118315"><ele>73.66666666666667</ele><time>2026-04-13T16:57:45.675Z</time></trkpt><trkpt lat="40.847675" lon="14.1183067"><ele>74.0</ele><time>2026-04-13T16:57:46.676Z</time></trkpt><trkpt lat="40.8476117" lon="14.118295"><ele>74.2</ele><time>2026-04-13T16:57:47.676Z</time></trkpt><trkpt lat="40.8474917" lon="14.1182683"><ele>74.4</ele><time>2026-04-13T16:57:49.676Z</time></trkpt><trkpt lat="40.847365" lon="14.1182483"><ele>74.6</ele><time>2026-04-13T16:57:51.677Z</time></trkpt><trkpt lat="40.8473017" lon="14.1182333"><ele>74.8</ele><time>2026-04-13T16:57:52.675Z</time></trkpt><trkpt lat="40.8472383" lon="14.1182167"><ele>75.0</ele><time>2026-04-13T16:57:53.676Z</time></trkpt><trkpt lat="40.847115" lon="14.1181867"><ele>75.16666666666667</ele><time>2026-04-13T16:57:55.677Z</time></trkpt><trkpt lat="40.8470483" lon="14.1181717"><ele>75.33333333333333</ele><time>2026-04-13T16:57:56.678Z</time></trkpt><trkpt lat="40.846985" lon="14.1181567"><ele>75.5</ele><time>2026-04-13T16:57:57.677Z</time></trkpt><trkpt lat="40.84692" lon="14.1181417"><ele>75.66666666666666</ele><time>2026-04-13T16:57:58.675Z</time></trkpt><trkpt lat="40.8468583" lon="14.118125"><ele>75.83333333333333</ele><time>2026-04-13T16:57:59.676Z</time></trkpt><trkpt lat="40.8467317" lon="14.1181017"><ele>76.0</ele><time>2026-04-13T16:58:01.678Z</time></trkpt><trkpt lat="40.846665" lon="14.1180867"><ele>76.0</ele><time>2026-04-13T16:58:02.678Z</time></trkpt><trkpt lat="40.8466" lon="14.1180717"><ele>76.0</ele><time>2026-04-13T16:58:03.674Z</time></trkpt><trkpt lat="40.8465367" lon="14.1180567"><ele>76.0</ele><time>2026-04-13T16:58:04.675Z</time></trkpt><trkpt lat="40.8464717" lon="14.1180383"><ele>76.0</ele><time>2026-04-13T16:58:05.678Z</time></trkpt><trkpt lat="40.8464033" lon="14.1180217"><ele>76.0</ele><time>2026-04-13T16:58:06.678Z</time></trkpt><trkpt lat="40.8463367" lon="14.118005"><ele>76.0</ele><time>2026-04-13T16:58:07.679Z</time></trkpt><trkpt lat="40.8462683" lon="14.1179883"><ele>76.0</ele><time>2026-04-13T16:58:08.675Z</time></trkpt><trkpt lat="40.8462" lon="14.117975"><ele>76.0</ele><time>2026-04-13T16:58:09.677Z</time></trkpt><trkpt lat="40.846135" lon="14.11796"><ele>76.0</ele><time>2026-04-13T16:58:10.678Z</time></trkpt><trkpt lat="40.8460733" lon="14.1179433"><ele>76.0</ele><time>2026-04-13T16:58:11.675Z</time></trkpt><trkpt lat="40.84601" lon="14.1179283"><ele>76.0</ele><time>2026-04-13T16:58:12.677Z</time></trkpt><trkpt lat="40.8459467" lon="14.1179133"><ele>76.0</ele><time>2026-04-13T16:58:13.676Z</time></trkpt><trkpt lat="40.8458833" lon="14.1179"><ele>76.0</ele><time>2026-04-13T16:58:14.676Z</time></trkpt><trkpt lat="40.84582" lon="14.117885"><ele>76.0</ele><time>2026-04-13T16:58:15.677Z</time></trkpt><trkpt lat="40.845695" lon="14.117855"><ele>76.5</ele><time>2026-04-13T16:58:17.677Z</time></trkpt><trkpt lat="40.8456317" lon="14.1178417"><ele>77.0</ele><time>2026-04-13T16:58:18.676Z</time></trkpt><trkpt lat="40.8455083" lon="14.1178183"><ele>77.5</ele><time>2026-04-13T16:58:20.676Z</time></trkpt><trkpt lat="40.845385" lon="14.1177883"><ele>78.0</ele><time>2026-04-13T16:58:22.676Z</time></trkpt><trkpt lat="40.84532" lon="14.1177767"><ele>78.5</ele><time>2026-04-13T16:58:23.676Z</time></trkpt><trkpt lat="40.845255" lon="14.11776"><ele>79.0</ele><time>2026-04-13T16:58:24.677Z</time></trkpt><trkpt lat="40.8451917" lon="14.1177417"><ele>80.16666666666666</ele><time>2026-04-13T16:58:25.677Z</time></trkpt><trkpt lat="40.8450683" lon="14.1177183"><ele>81.33333333333333</ele><time>2026-04-13T16:58:27.675Z</time></trkpt><trkpt lat="40.8449983" lon="14.1176983"><ele>82.5</ele><time>2026-04-13T16:58:28.677Z</time></trkpt><trkpt lat="40.8449333" lon="14.117685"><ele>83.66666666666667</ele><time>2026-04-13T16:58:29.677Z</time></trkpt><trkpt lat="40.8448667" lon="14.117675"><ele>84.83333333333334</ele><time>2026-04-13T16:58:30.678Z</time></trkpt><trkpt lat="40.8448033" lon="14.1176633"><ele>86.0</ele><time>2026-04-13T16:58:31.679Z</time></trkpt><trkpt lat="40.84474" lon="14.117655"><ele>86.0</ele><time>2026-04-13T16:58:32.677Z</time></trkpt><trkpt lat="40.84462" lon="14.1176217"><ele>86.0</ele><time>2026-04-13T16:58:34.676Z</time></trkpt><trkpt lat="40.8445583" lon="14.117605"><ele>86.0</ele><time>2026-04-13T16:58:35.679Z</time></trkpt><trkpt lat="40.8444933" lon="14.1175933"><ele>86.0</ele><time>2026-04-13T16:58:36.678Z</time></trkpt><trkpt lat="40.8443683" lon="14.117575"><ele>86.0</ele><time>2026-04-13T16:58:38.676Z</time></trkpt><trkpt lat="40.8443017" lon="14.117565"><ele>86.0</ele><time>2026-04-13T16:58:39.675Z</time></trkpt><trkpt lat="40.84418" lon="14.1175433"><ele>85.19999999999999</ele><time>2026-04-13T16:58:41.679Z</time></trkpt><trkpt lat="40.8440717" lon="14.117525"><ele>84.39999999999999</ele><time>2026-04-13T16:58:43.677Z</time></trkpt><trkpt lat="40.843975" lon="14.117495"><ele>83.6</ele><time>2026-04-13T16:58:45.678Z</time></trkpt><trkpt lat="40.8438817" lon="14.1174717"><ele>82.8</ele><time>2026-04-13T16:58:47.677Z</time></trkpt><trkpt lat="40.8437833" lon="14.1174483"><ele>82.0</ele><time>2026-04-13T16:58:49.676Z</time></trkpt><trkpt lat="40.8436883" lon="14.117425"><ele>82.0</ele><time>2026-04-13T16:58:51.678Z</time></trkpt><trkpt lat="40.8435983" lon="14.117405"><ele>82.0</ele><time>2026-04-13T16:58:53.678Z</time></trkpt><trkpt lat="40.8435183" lon="14.11739"><ele>82.0</ele><time>2026-04-13T16:58:55.678Z</time></trkpt><trkpt lat="40.843455" lon="14.1173783"><ele>82.0</ele><time>2026-04-13T16:59:23.678Z</time></trkpt><trkpt lat="40.8433767" lon="14.1173517"><ele>82.0</ele><time>2026-04-13T16:59:27.677Z</time></trkpt><trkpt lat="40.8432983" lon="14.1173283"><ele>82.0</ele><time>2026-04-13T16:59:30.678Z</time></trkpt><trkpt lat="40.8432317" lon="14.1173167"><ele>82.66666666666666</ele><time>2026-04-13T16:59:32.678Z</time></trkpt><trkpt lat="40.8431683" lon="14.1172983"><ele>83.33333333333333</ele><time>2026-04-13T16:59:34.676Z</time></trkpt><trkpt lat="40.8431" lon="14.1172783"><ele>84.0</ele><time>2026-04-13T16:59:36.675Z</time></trkpt><trkpt lat="40.843015" lon="14.1172567"><ele>84.66666666666667</ele><time>2026-04-13T16:59:38.678Z</time></trkpt><trkpt lat="40.8429317" lon="14.1172217"><ele>85.33333333333334</ele><time>2026-04-13T16:59:40.677Z</time></trkpt><trkpt lat="40.8428683" lon="14.1171483"><ele>86.0</ele><time>2026-04-13T16:59:42.678Z</time></trkpt><trkpt lat="40.8428417" lon="14.11703"><ele>86.0</ele><time>2026-04-13T16:59:44.676Z</time></trkpt><trkpt lat="40.842835" lon="14.1169033"><ele>86.0</ele><time>2026-04-13T16:59:46.677Z</time></trkpt><trkpt lat="40.8428167" lon="14.1167917"><ele>86.0</ele><time>2026-04-13T16:59:48.674Z</time></trkpt><trkpt lat="40.8427717" lon="14.1167067"><ele>86.0</ele><time>2026-04-13T16:59:50.675Z</time></trkpt><trkpt lat="40.84272" lon="14.1166467"><ele>86.0</ele><time>2026-04-13T16:59:52.677Z</time></trkpt><trkpt lat="40.8426533" lon="14.1166233"><ele>86.0</ele><time>2026-04-13T16:59:54.675Z</time></trkpt><trkpt lat="40.8425833" lon="14.11663"><ele>84.8</ele><time>2026-04-13T16:59:56.677Z</time></trkpt><trkpt lat="40.842505" lon="14.1166683"><ele>83.6</ele><time>2026-04-13T16:59:58.677Z</time></trkpt><trkpt lat="40.84245" lon="14.11676"><ele>82.4</ele><time>2026-04-13T17:00:00.674Z</time></trkpt><trkpt lat="40.8424317" lon="14.1168933"><ele>81.2</ele><time>2026-04-13T17:00:02.675Z</time></trkpt><trkpt lat="40.8424733" lon="14.1170317"><ele>80.0</ele><time>2026-04-13T17:00:04.676Z</time></trkpt><trkpt lat="40.84255" lon="14.1171333"><ele>81.2</ele><time>2026-04-13T17:00:06.677Z</time></trkpt><trkpt lat="40.8426317" lon="14.1172183"><ele>82.4</ele><time>2026-04-13T17:00:08.675Z</time></trkpt><trkpt lat="40.8427183" lon="14.1172867"><ele>83.6</ele><time>2026-04-13T17:00:10.678Z</time></trkpt><trkpt lat="40.8428017" lon="14.1173367"><ele>84.8</ele><time>2026-04-13T17:00:12.678Z</time></trkpt><trkpt lat="40.8428867" lon="14.117355"><ele>86.0</ele><time>2026-04-13T17:00:14.678Z</time></trkpt><trkpt lat="40.842975" lon="14.11737"><ele>86.0</ele><time>2026-04-13T17:00:16.676Z</time></trkpt><trkpt lat="40.84306" lon="14.1173933"><ele>86.0</ele><time>2026-04-13T17:00:18.676Z</time></trkpt><trkpt lat="40.8431533" lon="14.11741"><ele>86.0</ele><time>2026-04-13T17:00:20.686Z</time></trkpt><trkpt lat="40.8432517" lon="14.117425"><ele>86.0</ele><time>2026-04-13T17:00:22.676Z</time></trkpt><trkpt lat="40.8433567" lon="14.1174433"><ele>86.0</ele><time>2026-04-13T17:00:24.689Z</time></trkpt><trkpt lat="40.8434583" lon="14.11747"><ele>85.19999999999999</ele><time>2026-04-13T17:00:26.676Z</time></trkpt><trkpt lat="40.8435717" lon="14.117485"><ele>84.39999999999999</ele><time>2026-04-13T17:00:28.676Z</time></trkpt><trkpt lat="40.8436833" lon="14.11751"><ele>83.6</ele><time>2026-04-13T17:00:30.675Z</time></trkpt><trkpt lat="40.8437933" lon="14.1175317"><ele>82.8</ele><time>2026-04-13T17:00:32.673Z</time></trkpt><trkpt lat="40.8439" lon="14.1175633"><ele>82.0</ele><time>2026-04-13T17:00:34.674Z</time></trkpt><trkpt lat="40.8440033" lon="14.11759"><ele>82.0</ele><time>2026-04-13T17:00:36.675Z</time></trkpt><trkpt lat="40.8441033" lon="14.1176067"><ele>82.0</ele><time>2026-04-13T17:00:38.675Z</time></trkpt><trkpt lat="40.8442" lon="14.1176117"><ele>82.0</ele><time>2026-04-13T17:00:40.685Z</time></trkpt><trkpt lat="40.8443083" lon="14.11763"><ele>82.0</ele><time>2026-04-13T17:00:42.679Z</time></trkpt><trkpt lat="40.8444167" lon="14.1176533"><ele>82.0</ele><time>2026-04-13T17:00:44.674Z</time></trkpt><trkpt lat="40.8445283" lon="14.1176767"><ele>83.0</ele><time>2026-04-13T17:00:46.674Z</time></trkpt><trkpt lat="40.8446433" lon="14.1177033"><ele>84.0</ele><time>2026-04-13T17:00:48.675Z</time></trkpt><trkpt lat="40.8447583" lon="14.1177333"><ele>85.0</ele><time>2026-04-13T17:00:50.674Z</time></trkpt><trkpt lat="40.8449467" lon="14.1177717"><ele>86.0</ele><time>2026-04-13T17:00:53.674Z</time></trkpt><trkpt lat="40.8450767" lon="14.1178"><ele>85.00000000000001</ele><time>2026-04-13T17:00:55.675Z</time></trkpt><trkpt lat="40.8451433" lon="14.1178167"><ele>84.0</ele><time>2026-04-13T17:00:56.677Z</time></trkpt><trkpt lat="40.8452167" lon="14.11782"><ele>83.0</ele><time>2026-04-13T17:00:57.675Z</time></trkpt><trkpt lat="40.84529" lon="14.1178167"><ele>82.0</ele><time>2026-04-13T17:00:58.674Z</time></trkpt><trkpt lat="40.845355" lon="14.1178367"><ele>81.0</ele><time>2026-04-13T17:00:59.674Z</time></trkpt><trkpt lat="40.8454283" lon="14.1178417"><ele>80.00000000000001</ele><time>2026-04-13T17:01:00.679Z</time></trkpt><trkpt lat="40.84549" lon="14.11786"><ele>79.0</ele><time>2026-04-13T17:01:01.685Z</time></trkpt><trkpt lat="40.8455517" lon="14.1178767"><ele>79.0</ele><time>2026-04-13T17:01:02.674Z</time></trkpt><trkpt lat="40.84568" lon="14.1179117"><ele>79.0</ele><time>2026-04-13T17:01:04.675Z</time></trkpt><trkpt lat="40.8457433" lon="14.1179283"><ele>79.0</ele><time>2026-04-13T17:01:05.676Z</time></trkpt><trkpt lat="40.845865" lon="14.1179567"><ele>79.0</ele><time>2026-04-13T17:01:07.676Z</time></trkpt><trkpt lat="40.8459883" lon="14.117995"><ele>79.0</ele><time>2026-04-13T17:01:09.675Z</time></trkpt><trkpt lat="40.846055" lon="14.11801"><ele>78.57142857142858</ele><time>2026-04-13T17:01:10.674Z</time></trkpt><trkpt lat="40.84612" lon="14.1180233"><ele>78.14285714285714</ele><time>2026-04-13T17:01:11.677Z</time></trkpt><trkpt lat="40.8461883" lon="14.1180333"><ele>77.71428571428572</ele><time>2026-04-13T17:01:12.674Z</time></trkpt><trkpt lat="40.8462517" lon="14.1180517"><ele>77.28571428571429</ele><time>2026-04-13T17:01:13.676Z</time></trkpt><trkpt lat="40.8463183" lon="14.1180617"><ele>76.85714285714286</ele><time>2026-04-13T17:01:14.676Z</time></trkpt><trkpt lat="40.8463833" lon="14.1180767"><ele>76.42857142857143</ele><time>2026-04-13T17:01:15.674Z</time></trkpt><trkpt lat="40.8464483" lon="14.1180967"><ele>76.0</ele><time>2026-04-13T17:01:16.674Z</time></trkpt><trkpt lat="40.846515" lon="14.1181083"><ele>76.0</ele><time>2026-04-13T17:01:17.674Z</time></trkpt><trkpt lat="40.8465833" lon="14.1181233"><ele>76.0</ele><time>2026-04-13T17:01:18.675Z</time></trkpt><trkpt lat="40.8466483" lon="14.11814"><ele>76.0</ele><time>2026-04-13T17:01:19.675Z</time></trkpt><trkpt lat="40.8467267" lon="14.1181633"><ele>76.0</ele><time>2026-04-13T17:01:20.674Z</time></trkpt><trkpt lat="40.8467933" lon="14.1181683"><ele>76.0</ele><time>2026-04-13T17:01:21.674Z</time></trkpt><trkpt lat="40.8468633" lon="14.1181783"><ele>76.0</ele><time>2026-04-13T17:01:22.675Z</time></trkpt><trkpt lat="40.846935" lon="14.1181933"><ele>76.0</ele><time>2026-04-13T17:01:23.674Z</time></trkpt><trkpt lat="40.8470083" lon="14.118205"><ele>75.85714285714285</ele><time>2026-04-13T17:01:24.675Z</time></trkpt><trkpt lat="40.8470833" lon="14.1182167"><ele>75.71428571428572</ele><time>2026-04-13T17:01:25.675Z</time></trkpt><trkpt lat="40.847155" lon="14.11823"><ele>75.57142857142857</ele><time>2026-04-13T17:01:26.675Z</time></trkpt><trkpt lat="40.8472267" lon="14.118245"><ele>75.42857142857142</ele><time>2026-04-13T17:01:27.674Z</time></trkpt><trkpt lat="40.8473017" lon="14.1182617"><ele>75.28571428571428</ele><time>2026-04-13T17:01:28.675Z</time></trkpt><trkpt lat="40.8473767" lon="14.11828"><ele>75.14285714285714</ele><time>2026-04-13T17:01:29.675Z</time></trkpt><trkpt lat="40.84745" lon="14.1182967"><ele>75.0</ele><time>2026-04-13T17:01:30.674Z</time></trkpt><trkpt lat="40.84752" lon="14.1183133"><ele>74.99999999999999</ele><time>2026-04-13T17:01:31.674Z</time></trkpt><trkpt lat="40.84759" lon="14.1183317"><ele>75.0</ele><time>2026-04-13T17:01:32.674Z</time></trkpt><trkpt lat="40.8476583" lon="14.1183483"><ele>75.0</ele><time>2026-04-13T17:01:33.674Z</time></trkpt><trkpt lat="40.8477267" lon="14.118365"><ele>75.0</ele><time>2026-04-13T17:01:34.674Z</time></trkpt><trkpt lat="40.847795" lon="14.11838"><ele>75.0</ele><time>2026-04-13T17:01:35.675Z</time></trkpt><trkpt lat="40.847865" lon="14.1183933"><ele>74.99999999999999</ele><time>2026-04-13T17:01:36.676Z</time></trkpt><trkpt lat="40.8479317" lon="14.11841"><ele>75.0</ele><time>2026-04-13T17:01:37.675Z</time></trkpt><trkpt lat="40.8479983" lon="14.1184267"><ele>74.85714285714285</ele><time>2026-04-13T17:01:38.676Z</time></trkpt><trkpt lat="40.848065" lon="14.118445"><ele>74.71428571428571</ele><time>2026-04-13T17:01:39.674Z</time></trkpt><trkpt lat="40.848135" lon="14.11846"><ele>74.57142857142857</ele><time>2026-04-13T17:01:40.675Z</time></trkpt><trkpt lat="40.8482033" lon="14.1184783"><ele>74.42857142857142</ele><time>2026-04-13T17:01:41.675Z</time></trkpt><trkpt lat="40.8482733" lon="14.1184933"><ele>74.28571428571428</ele><time>2026-04-13T17:01:42.674Z</time></trkpt><trkpt lat="40.8483433" lon="14.1185133"><ele>74.14285714285714</ele><time>2026-04-13T17:01:43.675Z</time></trkpt><trkpt lat="40.8484133" lon="14.1185333"><ele>74.0</ele><time>2026-04-13T17:01:44.674Z</time></trkpt><trkpt lat="40.8484817" lon="14.1185533"><ele>73.71428571428572</ele><time>2026-04-13T17:01:45.675Z</time></trkpt><trkpt lat="40.8485467" lon="14.1185667"><ele>73.42857142857143</ele><time>2026-04-13T17:01:46.673Z</time></trkpt><trkpt lat="40.8486117" lon="14.118575"><ele>73.14285714285714</ele><time>2026-04-13T17:01:47.675Z</time></trkpt><trkpt lat="40.8486783" lon="14.1185867"><ele>72.85714285714286</ele><time>2026-04-13T17:01:48.674Z</time></trkpt><trkpt lat="40.8487517" lon="14.1186017"><ele>72.57142857142857</ele><time>2026-04-13T17:01:49.675Z</time></trkpt><trkpt lat="40.8488233" lon="14.1186133"><ele>72.28571428571429</ele><time>2026-04-13T17:01:50.674Z</time></trkpt><trkpt lat="40.8488983" lon="14.1186217"><ele>72.0</ele><time>2026-04-13T17:01:51.674Z</time></trkpt><trkpt lat="40.84897" lon="14.1186383"><ele>72.0</ele><time>2026-04-13T17:01:52.674Z</time></trkpt><trkpt lat="40.8490417" lon="14.11865"><ele>72.0</ele><time>2026-04-13T17:01:53.675Z</time></trkpt><trkpt lat="40.8491133" lon="14.11866"><ele>72.0</ele><time>2026-04-13T17:01:54.674Z</time></trkpt><trkpt lat="40.8491867" lon="14.118675"><ele>72.0</ele><time>2026-04-13T17:01:55.675Z</time></trkpt><trkpt lat="40.8492617" lon="14.1186867"><ele>72.0</ele><time>2026-04-13T17:01:56.675Z</time></trkpt><trkpt lat="40.8493383" lon="14.1187"><ele>72.0</ele><time>2026-04-13T17:01:57.674Z</time></trkpt><trkpt lat="40.8494183" lon="14.1187133"><ele>71.66666666666667</ele><time>2026-04-13T17:01:58.674Z</time></trkpt><trkpt lat="40.8494967" lon="14.1187283"><ele>71.33333333333333</ele><time>2026-04-13T17:01:59.674Z</time></trkpt><trkpt lat="40.8495733" lon="14.118745"><ele>71.0</ele><time>2026-04-13T17:02:00.674Z</time></trkpt><trkpt lat="40.8496533" lon="14.1187667"><ele>70.66666666666666</ele><time>2026-04-13T17:02:01.675Z</time></trkpt><trkpt lat="40.8497267" lon="14.1187833"><ele>70.33333333333333</ele><time>2026-04-13T17:02:02.674Z</time></trkpt><trkpt lat="40.84979" lon="14.1188017"><ele>70.0</ele><time>2026-04-13T17:02:03.674Z</time></trkpt><trkpt lat="40.8498683" lon="14.1188183"><ele>70.0</ele><time>2026-04-13T17:02:04.676Z</time></trkpt><trkpt lat="40.8499483" lon="14.1188383"><ele>70.0</ele><time>2026-04-13T17:02:05.675Z</time></trkpt><trkpt lat="40.850025" lon="14.1188617"><ele>70.0</ele><time>2026-04-13T17:02:06.675Z</time></trkpt><trkpt lat="40.85011" lon="14.1188817"><ele>70.0</ele><time>2026-04-13T17:02:07.674Z</time></trkpt><trkpt lat="40.8501933" lon="14.1188967"><ele>70.0</ele><time>2026-04-13T17:02:08.675Z</time></trkpt><trkpt lat="40.8502733" lon="14.118915"><ele>70.0</ele><time>2026-04-13T17:02:09.675Z</time></trkpt><trkpt lat="40.8503533" lon="14.1189317"><ele>69.33333333333333</ele><time>2026-04-13T17:02:10.675Z</time></trkpt><trkpt lat="40.850435" lon="14.1189517"><ele>68.66666666666666</ele><time>2026-04-13T17:02:11.675Z</time></trkpt><trkpt lat="40.8505133" lon="14.118975"><ele>68.0</ele><time>2026-04-13T17:02:12.676Z</time></trkpt><trkpt lat="40.850595" lon="14.1189983"><ele>67.33333333333333</ele><time>2026-04-13T17:02:13.676Z</time></trkpt><trkpt lat="40.850675" lon="14.1190167"><ele>66.66666666666667</ele><time>2026-04-13T17:02:14.675Z</time></trkpt><trkpt lat="40.8507583" lon="14.1190383"><ele>66.0</ele><time>2026-04-13T17:02:15.674Z</time></trkpt><trkpt lat="40.8508383" lon="14.1190533"><ele>66.0</ele><time>2026-04-13T17:02:16.674Z</time></trkpt><trkpt lat="40.8509167" lon="14.119065"><ele>66.0</ele><time>2026-04-13T17:02:17.674Z</time></trkpt><trkpt lat="40.8509917" lon="14.11908"><ele>66.0</ele><time>2026-04-13T17:02:18.674Z</time></trkpt><trkpt lat="40.8510733" lon="14.1190967"><ele>66.0</ele><time>2026-04-13T17:02:19.674Z</time></trkpt><trkpt lat="40.851155" lon="14.1191133"><ele>66.0</ele><time>2026-04-13T17:02:20.676Z</time></trkpt><trkpt lat="40.8512383" lon="14.11913"><ele>66.0</ele><time>2026-04-13T17:02:21.674Z</time></trkpt><trkpt lat="40.85132" lon="14.119145"><ele>66.0</ele><time>2026-04-13T17:02:22.675Z</time></trkpt><trkpt lat="40.8513983" lon="14.1191617"><ele>66.0</ele><time>2026-04-13T17:02:23.674Z</time></trkpt><trkpt lat="40.85148" lon="14.11918"><ele>66.0</ele><time>2026-04-13T17:02:24.674Z</time></trkpt><trkpt lat="40.8515617" lon="14.1192"><ele>66.0</ele><time>2026-04-13T17:02:25.676Z</time></trkpt><trkpt lat="40.8516433" lon="14.11922"><ele>66.0</ele><time>2026-04-13T17:02:26.674Z</time></trkpt><trkpt lat="40.851725" lon="14.11924"><ele>66.0</ele><time>2026-04-13T17:02:27.676Z</time></trkpt><trkpt lat="40.851805" lon="14.1192533"><ele>66.0</ele><time>2026-04-13T17:02:28.676Z</time></trkpt><trkpt lat="40.8518833" lon="14.119275"><ele>66.0</ele><time>2026-04-13T17:02:29.675Z</time></trkpt><trkpt lat="40.8519633" lon="14.1192983"><ele>66.0</ele><time>2026-04-13T17:02:30.675Z</time></trkpt><trkpt lat="40.8520433" lon="14.119315"><ele>66.0</ele><time>2026-04-13T17:02:31.675Z</time></trkpt><trkpt lat="40.8521233" lon="14.1193367"><ele>66.0</ele><time>2026-04-13T17:02:32.674Z</time></trkpt><trkpt lat="40.8522033" lon="14.1193567"><ele>66.0</ele><time>2026-04-13T17:02:33.675Z</time></trkpt><trkpt lat="40.8522833" lon="14.1193733"><ele>66.0</ele><time>2026-04-13T17:02:34.675Z</time></trkpt><trkpt lat="40.8523633" lon="14.1193883"><ele>66.0</ele><time>2026-04-13T17:02:35.677Z</time></trkpt><trkpt lat="40.8524417" lon="14.1194017"><ele>66.0</ele><time>2026-04-13T17:02:36.675Z</time></trkpt><trkpt lat="40.8525233" lon="14.119415"><ele>66.0</ele><time>2026-04-13T17:02:37.675Z</time></trkpt><trkpt lat="40.852605" lon="14.11943"><ele>66.0</ele><time>2026-04-13T17:02:38.675Z</time></trkpt><trkpt lat="40.8526867" lon="14.1194517"><ele>66.0</ele><time>2026-04-13T17:02:39.676Z</time></trkpt><trkpt lat="40.8527683" lon="14.119475"><ele>65.83333333333333</ele><time>2026-04-13T17:02:40.675Z</time></trkpt><trkpt lat="40.85285" lon="14.1194917"><ele>65.66666666666667</ele><time>2026-04-13T17:02:41.677Z</time></trkpt><trkpt lat="40.8529333" lon="14.1195083"><ele>65.5</ele><time>2026-04-13T17:02:42.677Z</time></trkpt><trkpt lat="40.8530167" lon="14.119525"><ele>65.33333333333334</ele><time>2026-04-13T17:02:43.677Z</time></trkpt><trkpt lat="40.8530983" lon="14.1195417"><ele>65.16666666666667</ele><time>2026-04-13T17:02:44.675Z</time></trkpt><trkpt lat="40.85318" lon="14.1195617"><ele>65.0</ele><time>2026-04-13T17:02:45.674Z</time></trkpt><trkpt lat="40.8532617" lon="14.11958"><ele>65.0</ele><time>2026-04-13T17:02:46.674Z</time></trkpt><trkpt lat="40.85334" lon="14.1196"><ele>65.0</ele><time>2026-04-13T17:02:47.674Z</time></trkpt><trkpt lat="40.8534183" lon="14.1196167"><ele>65.0</ele><time>2026-04-13T17:02:48.675Z</time></trkpt><trkpt lat="40.8534967" lon="14.1196383"><ele>65.0</ele><time>2026-04-13T17:02:49.676Z</time></trkpt><trkpt lat="40.8535733" lon="14.1196617"><ele>65.0</ele><time>2026-04-13T17:02:50.675Z</time></trkpt><trkpt lat="40.85365" lon="14.1196833"><ele>65.0</ele><time>2026-04-13T17:02:51.674Z</time></trkpt><trkpt lat="40.8537283" lon="14.1197033"><ele>64.16666666666667</ele><time>2026-04-13T17:02:52.675Z</time></trkpt><trkpt lat="40.8538083" lon="14.1197183"><ele>63.333333333333336</ele><time>2026-04-13T17:02:53.676Z</time></trkpt><trkpt lat="40.8538867" lon="14.11973"><ele>62.5</ele><time>2026-04-13T17:02:54.675Z</time></trkpt><trkpt lat="40.8539667" lon="14.1197333"><ele>61.66666666666667</ele><time>2026-04-13T17:02:55.674Z</time></trkpt><trkpt lat="40.854045" lon="14.119745"><ele>60.833333333333336</ele><time>2026-04-13T17:02:56.675Z</time></trkpt><trkpt lat="40.85412" lon="14.1197683"><ele>60.0</ele><time>2026-04-13T17:02:57.674Z</time></trkpt><trkpt lat="40.8541933" lon="14.119785"><ele>60.0</ele><time>2026-04-13T17:02:58.675Z</time></trkpt><trkpt lat="40.8542683" lon="14.1198"><ele>60.0</ele><time>2026-04-13T17:02:59.676Z</time></trkpt><trkpt lat="40.8543417" lon="14.1198133"><ele>60.0</ele><time>2026-04-13T17:03:00.676Z</time></trkpt><trkpt lat="40.8544167" lon="14.11983"><ele>60.0</ele><time>2026-04-13T17:03:01.674Z</time></trkpt><trkpt lat="40.85449" lon="14.1198433"><ele>60.0</ele><time>2026-04-13T17:03:02.677Z</time></trkpt><trkpt lat="40.8545667" lon="14.11986"><ele>60.0</ele><time>2026-04-13T17:03:03.675Z</time></trkpt><trkpt lat="40.8546417" lon="14.1198817"><ele>59.833333333333336</ele><time>2026-04-13T17:03:04.675Z</time></trkpt><trkpt lat="40.8547183" lon="14.1199033"><ele>59.66666666666667</ele><time>2026-04-13T17:03:05.677Z</time></trkpt><trkpt lat="40.854795" lon="14.1199233"><ele>59.5</ele><time>2026-04-13T17:03:06.674Z</time></trkpt><trkpt lat="40.8548717" lon="14.1199417"><ele>59.333333333333336</ele><time>2026-04-13T17:03:07.674Z</time></trkpt><trkpt lat="40.8549483" lon="14.1199583"><ele>59.16666666666667</ele><time>2026-04-13T17:03:08.674Z</time></trkpt><trkpt lat="40.855025" lon="14.119975"><ele>59.0</ele><time>2026-04-13T17:03:09.674Z</time></trkpt><trkpt lat="40.8551017" lon="14.11999"><ele>58.833333333333336</ele><time>2026-04-13T17:03:10.675Z</time></trkpt><trkpt lat="40.85518" lon="14.120005"><ele>58.66666666666667</ele><time>2026-04-13T17:03:11.676Z</time></trkpt><trkpt lat="40.8552567" lon="14.1200183"><ele>58.5</ele><time>2026-04-13T17:03:12.674Z</time></trkpt><trkpt lat="40.8553333" lon="14.1200333"><ele>58.33333333333333</ele><time>2026-04-13T17:03:13.675Z</time></trkpt><trkpt lat="40.85541" lon="14.1200467"><ele>58.166666666666664</ele><time>2026-04-13T17:03:14.675Z</time></trkpt><trkpt lat="40.8554867" lon="14.1200617"><ele>58.0</ele><time>2026-04-13T17:03:15.674Z</time></trkpt><trkpt lat="40.8555633" lon="14.120075"><ele>57.99999999999999</ele><time>2026-04-13T17:03:16.674Z</time></trkpt><trkpt lat="40.8556367" lon="14.12009"><ele>58.0</ele><time>2026-04-13T17:03:17.677Z</time></trkpt><trkpt lat="40.8557117" lon="14.1201067"><ele>58.0</ele><time>2026-04-13T17:03:18.674Z</time></trkpt><trkpt lat="40.855785" lon="14.120125"><ele>58.0</ele><time>2026-04-13T17:03:19.675Z</time></trkpt><trkpt lat="40.8558617" lon="14.12014"><ele>57.99999999999999</ele><time>2026-04-13T17:03:20.674Z</time></trkpt><trkpt lat="40.8559367" lon="14.1201583"><ele>58.0</ele><time>2026-04-13T17:03:21.674Z</time></trkpt><trkpt lat="40.8560117" lon="14.1201717"><ele>57.85714285714286</ele><time>2026-04-13T17:03:22.675Z</time></trkpt><trkpt lat="40.85609" lon="14.1201833"><ele>57.714285714285715</ele><time>2026-04-13T17:03:23.675Z</time></trkpt><trkpt lat="40.856165" lon="14.120195"><ele>57.57142857142857</ele><time>2026-04-13T17:03:24.675Z</time></trkpt><trkpt lat="40.8562383" lon="14.12021"><ele>57.42857142857143</ele><time>2026-04-13T17:03:25.675Z</time></trkpt><trkpt lat="40.8563117" lon="14.1202283"><ele>57.28571428571428</ele><time>2026-04-13T17:03:26.674Z</time></trkpt><trkpt lat="40.8563833" lon="14.120245"><ele>57.14285714285714</ele><time>2026-04-13T17:03:27.674Z</time></trkpt><trkpt lat="40.856455" lon="14.1202567"><ele>57.0</ele><time>2026-04-13T17:03:28.675Z</time></trkpt><trkpt lat="40.8565283" lon="14.1202667"><ele>57.0</ele><time>2026-04-13T17:03:29.675Z</time></trkpt><trkpt lat="40.8566017" lon="14.1202817"><ele>56.99999999999999</ele><time>2026-04-13T17:03:30.674Z</time></trkpt><trkpt lat="40.8566733" lon="14.1202967"><ele>57.0</ele><time>2026-04-13T17:03:31.675Z</time></trkpt><trkpt lat="40.8567467" lon="14.1203167"><ele>57.0</ele><time>2026-04-13T17:03:32.675Z</time></trkpt><trkpt lat="40.85682" lon="14.1203317"><ele>56.99999999999999</ele><time>2026-04-13T17:03:33.674Z</time></trkpt><trkpt lat="40.8568933" lon="14.1203433"><ele>57.0</ele><time>2026-04-13T17:03:34.674Z</time></trkpt><trkpt lat="40.85696" lon="14.120355"><ele>57.0</ele><time>2026-04-13T17:03:35.675Z</time></trkpt><trkpt lat="40.857025" lon="14.120365"><ele>56.857142857142854</ele><time>2026-04-13T17:03:36.675Z</time></trkpt><trkpt lat="40.8570933" lon="14.1203717"><ele>56.71428571428571</ele><time>2026-04-13T17:03:37.675Z</time></trkpt><trkpt lat="40.8571567" lon="14.1203817"><ele>56.57142857142857</ele><time>2026-04-13T17:03:38.675Z</time></trkpt><trkpt lat="40.8572267" lon="14.1203983"><ele>56.42857142857143</ele><time>2026-04-13T17:03:39.674Z</time></trkpt><trkpt lat="40.857295" lon="14.1204133"><ele>56.285714285714285</ele><time>2026-04-13T17:03:40.677Z</time></trkpt><trkpt lat="40.8573633" lon="14.1204283"><ele>56.14285714285714</ele><time>2026-04-13T17:03:41.675Z</time></trkpt><trkpt lat="40.857435" lon="14.1204367"><ele>56.0</ele><time>2026-04-13T17:03:42.676Z</time></trkpt><trkpt lat="40.857505" lon="14.120445"><ele>56.0</ele><time>2026-04-13T17:03:43.676Z</time></trkpt><trkpt lat="40.85758" lon="14.1204633"><ele>56.0</ele><time>2026-04-13T17:03:44.676Z</time></trkpt><trkpt lat="40.8576517" lon="14.1204833"><ele>56.0</ele><time>2026-04-13T17:03:45.674Z</time></trkpt><trkpt lat="40.8577233" lon="14.1205017"><ele>56.0</ele><time>2026-04-13T17:03:46.674Z</time></trkpt><trkpt lat="40.857795" lon="14.1205167"><ele>56.0</ele><time>2026-04-13T17:03:47.674Z</time></trkpt><trkpt lat="40.8578667" lon="14.1205367"><ele>56.0</ele><time>2026-04-13T17:03:48.674Z</time></trkpt><trkpt lat="40.85794" lon="14.1205533"><ele>56.0</ele><time>2026-04-13T17:03:49.674Z</time></trkpt><trkpt lat="40.85801" lon="14.1205667"><ele>56.0</ele><time>2026-04-13T17:03:50.675Z</time></trkpt><trkpt lat="40.8580817" lon="14.1205817"><ele>56.0</ele><time>2026-04-13T17:03:51.674Z</time></trkpt><trkpt lat="40.8581533" lon="14.1205967"><ele>56.0</ele><time>2026-04-13T17:03:52.674Z</time></trkpt><trkpt lat="40.858225" lon="14.12061"><ele>56.0</ele><time>2026-04-13T17:03:53.675Z</time></trkpt><trkpt lat="40.8582983" lon="14.1206233"><ele>56.0</ele><time>2026-04-13T17:03:54.674Z</time></trkpt><trkpt lat="40.85837" lon="14.120635"><ele>56.0</ele><time>2026-04-13T17:03:55.676Z</time></trkpt><trkpt lat="40.8584383" lon="14.1206483"><ele>56.0</ele><time>2026-04-13T17:03:56.675Z</time></trkpt><trkpt lat="40.8585067" lon="14.1206633"><ele>56.0</ele><time>2026-04-13T17:03:57.674Z</time></trkpt><trkpt lat="40.8585733" lon="14.1206783"><ele>56.0</ele><time>2026-04-13T17:03:58.674Z</time></trkpt><trkpt lat="40.8586417" lon="14.1206933"><ele>56.0</ele><time>2026-04-13T17:03:59.676Z</time></trkpt><trkpt lat="40.8587067" lon="14.1207117"><ele>56.0</ele><time>2026-04-13T17:04:00.675Z</time></trkpt><trkpt lat="40.8587733" lon="14.1207283"><ele>56.0</ele><time>2026-04-13T17:04:01.676Z</time></trkpt><trkpt lat="40.8588417" lon="14.1207383"><ele>56.0</ele><time>2026-04-13T17:04:02.674Z</time></trkpt><trkpt lat="40.8589067" lon="14.1207517"><ele>56.0</ele><time>2026-04-13T17:04:03.675Z</time></trkpt><trkpt lat="40.858975" lon="14.12076"><ele>56.0</ele><time>2026-04-13T17:04:04.674Z</time></trkpt><trkpt lat="40.8590417" lon="14.1207733"><ele>56.0</ele><time>2026-04-13T17:04:05.675Z</time></trkpt><trkpt lat="40.8591083" lon="14.12079"><ele>56.0</ele><time>2026-04-13T17:04:06.676Z</time></trkpt><trkpt lat="40.859175" lon="14.120805"><ele>56.0</ele><time>2026-04-13T17:04:07.676Z</time></trkpt><trkpt lat="40.8592367" lon="14.1208233"><ele>56.0</ele><time>2026-04-13T17:04:08.674Z</time></trkpt><trkpt lat="40.8593" lon="14.1208383"><ele>56.0</ele><time>2026-04-13T17:04:09.674Z</time></trkpt><trkpt lat="40.859365" lon="14.12085"><ele>56.0</ele><time>2026-04-13T17:04:10.675Z</time></trkpt><trkpt lat="40.8594283" lon="14.1208583"><ele>55.714285714285715</ele><time>2026-04-13T17:04:11.674Z</time></trkpt><trkpt lat="40.8594917" lon="14.1208667"><ele>55.42857142857143</ele><time>2026-04-13T17:04:12.675Z</time></trkpt><trkpt lat="40.859555" lon="14.120875"><ele>55.14285714285714</ele><time>2026-04-13T17:04:13.676Z</time></trkpt><trkpt lat="40.8596183" lon="14.1208917"><ele>54.85714285714286</ele><time>2026-04-13T17:04:14.674Z</time></trkpt><trkpt lat="40.8596833" lon="14.1209083"><ele>54.57142857142857</ele><time>2026-04-13T17:04:15.674Z</time></trkpt><trkpt lat="40.8597467" lon="14.120925"><ele>54.285714285714285</ele><time>2026-04-13T17:04:16.675Z</time></trkpt><trkpt lat="40.8598133" lon="14.120945"><ele>54.0</ele><time>2026-04-13T17:04:17.674Z</time></trkpt><trkpt lat="40.8598783" lon="14.12096"><ele>54.0</ele><time>2026-04-13T17:04:18.674Z</time></trkpt><trkpt lat="40.859945" lon="14.1209767"><ele>54.0</ele><time>2026-04-13T17:04:19.674Z</time></trkpt><trkpt lat="40.8600067" lon="14.120995"><ele>54.0</ele><time>2026-04-13T17:04:20.675Z</time></trkpt><trkpt lat="40.8600683" lon="14.1210133"><ele>54.0</ele><time>2026-04-13T17:04:21.675Z</time></trkpt><trkpt lat="40.86019" lon="14.12106"><ele>54.0</ele><time>2026-04-13T17:04:23.675Z</time></trkpt><trkpt lat="40.8602517" lon="14.1210867"><ele>54.0</ele><time>2026-04-13T17:04:24.675Z</time></trkpt><trkpt lat="40.8603133" lon="14.1211167"><ele>54.0</ele><time>2026-04-13T17:04:25.675Z</time></trkpt><trkpt lat="40.8603733" lon="14.121145"><ele>54.0</ele><time>2026-04-13T17:04:26.674Z</time></trkpt><trkpt lat="40.8604317" lon="14.1211767"><ele>54.0</ele><time>2026-04-13T17:04:27.674Z</time></trkpt><trkpt lat="40.8605383" lon="14.1212383"><ele>54.0</ele><time>2026-04-13T17:04:29.676Z</time></trkpt><trkpt lat="40.8605983" lon="14.1212683"><ele>54.0</ele><time>2026-04-13T17:04:30.676Z</time></trkpt><trkpt lat="40.86071" lon="14.1213317"><ele>54.0</ele><time>2026-04-13T17:04:32.674Z</time></trkpt><trkpt lat="40.86082" lon="14.1213867"><ele>54.0</ele><time>2026-04-13T17:04:34.675Z</time></trkpt><trkpt lat="40.86094" lon="14.121425"><ele>54.0</ele><time>2026-04-13T17:04:36.674Z</time></trkpt><trkpt lat="40.8610567" lon="14.1214767"><ele>54.0</ele><time>2026-04-13T17:04:38.674Z</time></trkpt><trkpt lat="40.8611667" lon="14.1215483"><ele>54.0</ele><time>2026-04-13T17:04:40.675Z</time></trkpt><trkpt lat="40.8612767" lon="14.121625"><ele>54.5</ele><time>2026-04-13T17:04:42.675Z</time></trkpt><trkpt lat="40.8613867" lon="14.1216833"><ele>55.0</ele><time>2026-04-13T17:04:44.677Z</time></trkpt><trkpt lat="40.8614983" lon="14.121735"><ele>55.5</ele><time>2026-04-13T17:04:46.676Z</time></trkpt><trkpt lat="40.8615967" lon="14.12179"><ele>56.0</ele><time>2026-04-13T17:04:48.674Z</time></trkpt><trkpt lat="40.8617067" lon="14.1218583"><ele>55.5</ele><time>2026-04-13T17:04:50.674Z</time></trkpt><trkpt lat="40.86182" lon="14.1219217"><ele>55.0</ele><time>2026-04-13T17:04:52.675Z</time></trkpt><trkpt lat="40.861935" lon="14.1219767"><ele>54.5</ele><time>2026-04-13T17:04:54.675Z</time></trkpt><trkpt lat="40.8620483" lon="14.122035"><ele>54.0</ele><time>2026-04-13T17:04:56.676Z</time></trkpt><trkpt lat="40.8621633" lon="14.1220917"><ele>54.0</ele><time>2026-04-13T17:04:58.675Z</time></trkpt><trkpt lat="40.8622767" lon="14.1221417"><ele>54.0</ele><time>2026-04-13T17:05:00.674Z</time></trkpt><trkpt lat="40.8623883" lon="14.1221967"><ele>54.0</ele><time>2026-04-13T17:05:02.675Z</time></trkpt><trkpt lat="40.8625017" lon="14.1222567"><ele>54.0</ele><time>2026-04-13T17:05:04.675Z</time></trkpt><trkpt lat="40.8626117" lon="14.1223133"><ele>54.0</ele><time>2026-04-13T17:05:06.675Z</time></trkpt><trkpt lat="40.8627217" lon="14.1223667"><ele>54.0</ele><time>2026-04-13T17:05:08.674Z</time></trkpt><trkpt lat="40.862835" lon="14.12242"><ele>54.0</ele><time>2026-04-13T17:05:10.675Z</time></trkpt><trkpt lat="40.8629433" lon="14.1224683"><ele>54.0</ele><time>2026-04-13T17:05:12.676Z</time></trkpt><trkpt lat="40.8630533" lon="14.122525"><ele>54.0</ele><time>2026-04-13T17:05:14.675Z</time></trkpt><trkpt lat="40.8631117" lon="14.1225617"><ele>54.0</ele><time>2026-04-13T17:05:15.674Z</time></trkpt><trkpt lat="40.86322" lon="14.122625"><ele>54.0</ele><time>2026-04-13T17:05:17.675Z</time></trkpt><trkpt lat="40.863335" lon="14.122685"><ele>54.0</ele><time>2026-04-13T17:05:19.675Z</time></trkpt><trkpt lat="40.863395" lon="14.122715"><ele>54.0</ele><time>2026-04-13T17:05:20.674Z</time></trkpt><trkpt lat="40.863455" lon="14.1227483"><ele>54.0</ele><time>2026-04-13T17:05:21.674Z</time></trkpt><trkpt lat="40.863515" lon="14.12278"><ele>54.0</ele><time>2026-04-13T17:05:22.675Z</time></trkpt><trkpt lat="40.863575" lon="14.12281"><ele>54.00000000000001</ele><time>2026-04-13T17:05:23.675Z</time></trkpt><trkpt lat="40.8636933" lon="14.12287"><ele>54.00000000000001</ele><time>2026-04-13T17:05:25.675Z</time></trkpt><trkpt lat="40.86381" lon="14.1229283"><ele>54.0</ele><time>2026-04-13T17:05:27.675Z</time></trkpt><trkpt lat="40.8639233" lon="14.1229883"><ele>54.0</ele><time>2026-04-13T17:05:29.677Z</time></trkpt><trkpt lat="40.8640367" lon="14.12305"><ele>54.0</ele><time>2026-04-13T17:05:31.675Z</time></trkpt><trkpt lat="40.864145" lon="14.123115"><ele>54.00000000000001</ele><time>2026-04-13T17:05:33.675Z</time></trkpt><trkpt lat="40.8642567" lon="14.1231733"><ele>54.00000000000001</ele><time>2026-04-13T17:05:35.676Z</time></trkpt><trkpt lat="40.8643733" lon="14.1232283"><ele>54.0</ele><time>2026-04-13T17:05:37.674Z</time></trkpt><trkpt lat="40.864435" lon="14.1232567"><ele>54.0</ele><time>2026-04-13T17:05:38.674Z</time></trkpt><trkpt lat="40.864495" lon="14.123285"><ele>54.2</ele><time>2026-04-13T17:05:39.676Z</time></trkpt><trkpt lat="40.8645533" lon="14.1233167"><ele>54.400000000000006</ele><time>2026-04-13T17:05:40.676Z</time></trkpt><trkpt lat="40.86467" lon="14.123375"><ele>54.6</ele><time>2026-04-13T17:05:42.674Z</time></trkpt><trkpt lat="40.8647867" lon="14.123435"><ele>54.8</ele><time>2026-04-13T17:05:44.674Z</time></trkpt><trkpt lat="40.8649033" lon="14.1234983"><ele>55.0</ele><time>2026-04-13T17:05:46.674Z</time></trkpt><trkpt lat="40.8650083" lon="14.1235583"><ele>55.25</ele><time>2026-04-13T17:05:48.675Z</time></trkpt><trkpt lat="40.8651167" lon="14.123615"><ele>55.5</ele><time>2026-04-13T17:05:50.676Z</time></trkpt><trkpt lat="40.86523" lon="14.12367"><ele>55.75</ele><time>2026-04-13T17:05:52.675Z</time></trkpt><trkpt lat="40.8653417" lon="14.1237283"><ele>56.0</ele><time>2026-04-13T17:05:54.674Z</time></trkpt><trkpt lat="40.8654517" lon="14.12378"><ele>56.0</ele><time>2026-04-13T17:05:56.676Z</time></trkpt><trkpt lat="40.8655617" lon="14.12383"><ele>56.0</ele><time>2026-04-13T17:05:58.675Z</time></trkpt><trkpt lat="40.8656767" lon="14.1238817"><ele>56.0</ele><time>2026-04-13T17:06:00.676Z</time></trkpt><trkpt lat="40.8657867" lon="14.1239383"><ele>56.0</ele><time>2026-04-13T17:06:02.675Z</time></trkpt><trkpt lat="40.865895" lon="14.1240033"><ele>57.0</ele><time>2026-04-13T17:06:04.675Z</time></trkpt><trkpt lat="40.866" lon="14.1240667"><ele>58.0</ele><time>2026-04-13T17:06:06.675Z</time></trkpt><trkpt lat="40.8661133" lon="14.124125"><ele>59.0</ele><time>2026-04-13T17:06:08.675Z</time></trkpt><trkpt lat="40.86623" lon="14.12418"><ele>60.0</ele><time>2026-04-13T17:06:10.675Z</time></trkpt><trkpt lat="40.8663467" lon="14.1242333"><ele>60.0</ele><time>2026-04-13T17:06:12.675Z</time></trkpt><trkpt lat="40.866455" lon="14.12429"><ele>60.0</ele><time>2026-04-13T17:06:14.674Z</time></trkpt><trkpt lat="40.8665617" lon="14.1243483"><ele>60.0</ele><time>2026-04-13T17:06:16.675Z</time></trkpt><trkpt lat="40.8666633" lon="14.1244"><ele>60.0</ele><time>2026-04-13T17:06:18.674Z</time></trkpt><trkpt lat="40.8667667" lon="14.1244517"><ele>63.2</ele><time>2026-04-13T17:06:20.674Z</time></trkpt><trkpt lat="40.86687" lon="14.124495"><ele>66.4</ele><time>2026-04-13T17:06:22.674Z</time></trkpt><trkpt lat="40.86697" lon="14.1245417"><ele>69.6</ele><time>2026-04-13T17:06:24.674Z</time></trkpt><trkpt lat="40.8670517" lon="14.1246083"><ele>72.8</ele><time>2026-04-13T17:06:26.675Z</time></trkpt><trkpt lat="40.867085" lon="14.1246833"><ele>76.0</ele><time>2026-04-13T17:06:28.676Z</time></trkpt><trkpt lat="40.867055" lon="14.1247817"><ele>76.0</ele><time>2026-04-13T17:06:30.676Z</time></trkpt><trkpt lat="40.8669917" lon="14.12488"><ele>76.0</ele><time>2026-04-13T17:06:32.677Z</time></trkpt><trkpt lat="40.866925" lon="14.1249767"><ele>76.0</ele><time>2026-04-13T17:06:34.676Z</time></trkpt><trkpt lat="40.86685" lon="14.125065"><ele>76.0</ele><time>2026-04-13T17:06:36.677Z</time></trkpt><trkpt lat="40.8667717" lon="14.125155"><ele>76.0</ele><time>2026-04-13T17:06:38.676Z</time></trkpt><trkpt lat="40.8666983" lon="14.1252533"><ele>75.39999999999999</ele><time>2026-04-13T17:06:40.676Z</time></trkpt><trkpt lat="40.8666183" lon="14.12535"><ele>74.8</ele><time>2026-04-13T17:06:42.676Z</time></trkpt><trkpt lat="40.866545" lon="14.12545"><ele>74.19999999999999</ele><time>2026-04-13T17:06:44.676Z</time></trkpt><trkpt lat="40.866475" lon="14.125545"><ele>73.6</ele><time>2026-04-13T17:06:46.676Z</time></trkpt><trkpt lat="40.8664033" lon="14.1256467"><ele>73.0</ele><time>2026-04-13T17:06:48.678Z</time></trkpt><trkpt lat="40.8663267" lon="14.12575"><ele>73.0</ele><time>2026-04-13T17:06:50.676Z</time></trkpt><trkpt lat="40.866255" lon="14.1258467"><ele>73.0</ele><time>2026-04-13T17:06:52.674Z</time></trkpt><trkpt lat="40.8661917" lon="14.1259417"><ele>73.0</ele><time>2026-04-13T17:06:54.674Z</time></trkpt><trkpt lat="40.8661283" lon="14.1260383"><ele>73.0</ele><time>2026-04-13T17:06:56.676Z</time></trkpt><trkpt lat="40.8660517" lon="14.1261267"><ele>73.0</ele><time>2026-04-13T17:06:58.675Z</time></trkpt><trkpt lat="40.8659767" lon="14.12621"><ele>71.6</ele><time>2026-04-13T17:07:00.676Z</time></trkpt><trkpt lat="40.86591" lon="14.1263"><ele>70.19999999999999</ele><time>2026-04-13T17:07:02.674Z</time></trkpt><trkpt lat="40.8658567" lon="14.126385"><ele>68.8</ele><time>2026-04-13T17:07:04.674Z</time></trkpt><trkpt lat="40.8657783" lon="14.12646"><ele>67.39999999999999</ele><time>2026-04-13T17:07:06.675Z</time></trkpt><trkpt lat="40.8657017" lon="14.1265533"><ele>66.0</ele><time>2026-04-13T17:07:08.674Z</time></trkpt><trkpt lat="40.86563" lon="14.126645"><ele>66.0</ele><time>2026-04-13T17:07:10.674Z</time></trkpt><trkpt lat="40.8655633" lon="14.1267383"><ele>66.0</ele><time>2026-04-13T17:07:12.676Z</time></trkpt><trkpt lat="40.8654967" lon="14.1268283"><ele>66.0</ele><time>2026-04-13T17:07:14.675Z</time></trkpt><trkpt lat="40.8654267" lon="14.12691"><ele>66.0</ele><time>2026-04-13T17:07:16.675Z</time></trkpt><trkpt lat="40.8653583" lon="14.1269967"><ele>66.0</ele><time>2026-04-13T17:07:18.674Z</time></trkpt><trkpt lat="40.8652817" lon="14.1270817"><ele>66.0</ele><time>2026-04-13T17:07:20.675Z</time></trkpt><trkpt lat="40.8652083" lon="14.1271683"><ele>66.0</ele><time>2026-04-13T17:07:22.677Z</time></trkpt><trkpt lat="40.8651367" lon="14.12726"><ele>66.0</ele><time>2026-04-13T17:07:24.675Z</time></trkpt><trkpt lat="40.8650633" lon="14.1273517"><ele>66.0</ele><time>2026-04-13T17:07:26.674Z</time></trkpt><trkpt lat="40.86499" lon="14.1274383"><ele>66.0</ele><time>2026-04-13T17:07:28.674Z</time></trkpt><trkpt lat="40.8649167" lon="14.127525"><ele>66.0</ele><time>2026-04-13T17:07:30.675Z</time></trkpt><trkpt lat="40.864845" lon="14.1276167"><ele>66.0</ele><time>2026-04-13T17:07:32.675Z</time></trkpt><trkpt lat="40.8647783" lon="14.127715"><ele>66.0</ele><time>2026-04-13T17:07:34.675Z</time></trkpt><trkpt lat="40.8647133" lon="14.1277983"><ele>66.0</ele><time>2026-04-13T17:07:36.676Z</time></trkpt><trkpt lat="40.86465" lon="14.1278817"><ele>66.0</ele><time>2026-04-13T17:07:38.676Z</time></trkpt><trkpt lat="40.86459" lon="14.1279683"><ele>66.0</ele><time>2026-04-13T17:07:40.675Z</time></trkpt><trkpt lat="40.864525" lon="14.12806"><ele>66.0</ele><time>2026-04-13T17:07:42.675Z</time></trkpt><trkpt lat="40.8644633" lon="14.1281483"><ele>66.0</ele><time>2026-04-13T17:07:44.675Z</time></trkpt><trkpt lat="40.8643967" lon="14.128235"><ele>66.0</ele><time>2026-04-13T17:07:46.676Z</time></trkpt><trkpt lat="40.864335" lon="14.1283183"><ele>66.0</ele><time>2026-04-13T17:07:48.675Z</time></trkpt><trkpt lat="40.8642867" lon="14.1284167"><ele>66.39999999999999</ele><time>2026-04-13T17:07:50.677Z</time></trkpt><trkpt lat="40.8642467" lon="14.1285233"><ele>66.8</ele><time>2026-04-13T17:07:52.673Z</time></trkpt><trkpt lat="40.8642117" lon="14.1286433"><ele>67.19999999999999</ele><time>2026-04-13T17:07:54.674Z</time></trkpt><trkpt lat="40.86418" lon="14.1287667"><ele>67.6</ele><time>2026-04-13T17:07:56.673Z</time></trkpt><trkpt lat="40.864165" lon="14.1288883"><ele>68.0</ele><time>2026-04-13T17:07:58.674Z</time></trkpt><trkpt lat="40.8641533" lon="14.1290083"><ele>68.33333333333334</ele><time>2026-04-13T17:08:00.674Z</time></trkpt><trkpt lat="40.8641417" lon="14.12913"><ele>68.66666666666667</ele><time>2026-04-13T17:08:02.674Z</time></trkpt><trkpt lat="40.8641233" lon="14.1292417"><ele>69.0</ele><time>2026-04-13T17:08:04.674Z</time></trkpt><trkpt lat="40.8641267" lon="14.12934"><ele>69.33333333333333</ele><time>2026-04-13T17:08:06.675Z</time></trkpt><trkpt lat="40.8641317" lon="14.1294583"><ele>69.66666666666666</ele><time>2026-04-13T17:08:08.675Z</time></trkpt><trkpt lat="40.86414" lon="14.1295833"><ele>70.0</ele><time>2026-04-13T17:08:10.674Z</time></trkpt><trkpt lat="40.86414" lon="14.1297133"><ele>70.0</ele><time>2026-04-13T17:08:12.674Z</time></trkpt><trkpt lat="40.8641333" lon="14.1298383"><ele>70.0</ele><time>2026-04-13T17:08:14.677Z</time></trkpt><trkpt lat="40.8641333" lon="14.129965"><ele>70.0</ele><time>2026-04-13T17:08:16.674Z</time></trkpt><trkpt lat="40.8641267" lon="14.13008"><ele>70.0</ele><time>2026-04-13T17:08:18.674Z</time></trkpt><trkpt lat="40.8641167" lon="14.1301933"><ele>70.0</ele><time>2026-04-13T17:08:20.673Z</time></trkpt><trkpt lat="40.864125" lon="14.1303133"><ele>70.0</ele><time>2026-04-13T17:08:22.674Z</time></trkpt><trkpt lat="40.8641317" lon="14.1304333"><ele>70.0</ele><time>2026-04-13T17:08:24.672Z</time></trkpt><trkpt lat="40.86414" lon="14.1305567"><ele>70.0</ele><time>2026-04-13T17:08:26.673Z</time></trkpt><trkpt lat="40.8641517" lon="14.1306633"><ele>70.0</ele><time>2026-04-13T17:08:28.672Z</time></trkpt><trkpt lat="40.8641667" lon="14.1307633"><ele>70.0</ele><time>2026-04-13T17:08:30.673Z</time></trkpt><trkpt lat="40.8641883" lon="14.1308733"><ele>70.0</ele><time>2026-04-13T17:08:32.673Z</time></trkpt><trkpt lat="40.8642" lon="14.1309817"><ele>70.5</ele><time>2026-04-13T17:08:34.674Z</time></trkpt><trkpt lat="40.8642083" lon="14.13109"><ele>71.0</ele><time>2026-04-13T17:08:36.673Z</time></trkpt><trkpt lat="40.864225" lon="14.13119"><ele>71.5</ele><time>2026-04-13T17:08:38.673Z</time></trkpt><trkpt lat="40.8642367" lon="14.1312917"><ele>72.0</ele><time>2026-04-13T17:08:40.673Z</time></trkpt><trkpt lat="40.8642467" lon="14.131385"><ele>72.5</ele><time>2026-04-13T17:08:42.672Z</time></trkpt><trkpt lat="40.86426" lon="14.1314883"><ele>73.0</ele><time>2026-04-13T17:08:44.673Z</time></trkpt><trkpt lat="40.8642617" lon="14.1315883"><ele>73.66666666666666</ele><time>2026-04-13T17:08:46.672Z</time></trkpt><trkpt lat="40.8642733" lon="14.1316883"><ele>74.33333333333333</ele><time>2026-04-13T17:08:48.673Z</time></trkpt><trkpt lat="40.8642817" lon="14.1317817"><ele>75.0</ele><time>2026-04-13T17:08:50.673Z</time></trkpt><trkpt lat="40.86429" lon="14.13191"><ele>75.66666666666667</ele><time>2026-04-13T17:08:53.673Z</time></trkpt><trkpt lat="40.8643033" lon="14.1320167"><ele>76.33333333333334</ele><time>2026-04-13T17:08:55.673Z</time></trkpt><trkpt lat="40.8643167" lon="14.1321183"><ele>77.0</ele><time>2026-04-13T17:08:57.673Z</time></trkpt><trkpt lat="40.86433" lon="14.13222"><ele>77.33333333333334</ele><time>2026-04-13T17:08:59.673Z</time></trkpt><trkpt lat="40.8643417" lon="14.132325"><ele>77.66666666666667</ele><time>2026-04-13T17:09:01.673Z</time></trkpt><trkpt lat="40.8643533" lon="14.1324233"><ele>78.0</ele><time>2026-04-13T17:09:03.673Z</time></trkpt><trkpt lat="40.8643717" lon="14.13251"><ele>78.33333333333333</ele><time>2026-04-13T17:09:05.675Z</time></trkpt><trkpt lat="40.8643883" lon="14.1326017"><ele>78.66666666666666</ele><time>2026-04-13T17:09:07.674Z</time></trkpt><trkpt lat="40.8644033" lon="14.1327083"><ele>79.0</ele><time>2026-04-13T17:09:09.674Z</time></trkpt><trkpt lat="40.8644233" lon="14.1328183"><ele>79.0</ele><time>2026-04-13T17:09:11.674Z</time></trkpt><trkpt lat="40.864435" lon="14.13292"><ele>79.0</ele><time>2026-04-13T17:09:13.675Z</time></trkpt><trkpt lat="40.86445" lon="14.1330267"><ele>79.0</ele><time>2026-04-13T17:09:15.675Z</time></trkpt><trkpt lat="40.8644617" lon="14.1331283"><ele>79.0</ele><time>2026-04-13T17:09:17.675Z</time></trkpt><trkpt lat="40.864475" lon="14.1332467"><ele>79.0</ele><time>2026-04-13T17:09:19.674Z</time></trkpt><trkpt lat="40.8644867" lon="14.13336"><ele>79.0</ele><time>2026-04-13T17:09:21.674Z</time></trkpt><trkpt lat="40.864505" lon="14.13347"><ele>79.16666666666666</ele><time>2026-04-13T17:09:23.675Z</time></trkpt><trkpt lat="40.864525" lon="14.1335767"><ele>79.33333333333333</ele><time>2026-04-13T17:09:25.675Z</time></trkpt><trkpt lat="40.864545" lon="14.13368"><ele>79.5</ele><time>2026-04-13T17:09:27.674Z</time></trkpt><trkpt lat="40.8645667" lon="14.1337817"><ele>79.66666666666667</ele><time>2026-04-13T17:09:29.676Z</time></trkpt><trkpt lat="40.8645817" lon="14.1338917"><ele>79.83333333333334</ele><time>2026-04-13T17:09:31.674Z</time></trkpt><trkpt lat="40.8645933" lon="14.1340083"><ele>80.0</ele><time>2026-04-13T17:09:33.675Z</time></trkpt><trkpt lat="40.8646017" lon="14.134135"><ele>80.33333333333334</ele><time>2026-04-13T17:09:35.674Z</time></trkpt><trkpt lat="40.864615" lon="14.1342583"><ele>80.66666666666667</ele><time>2026-04-13T17:09:37.674Z</time></trkpt><trkpt lat="40.8646217" lon="14.1343667"><ele>81.0</ele><time>2026-04-13T17:09:39.673Z</time></trkpt><trkpt lat="40.8646317" lon="14.1344783"><ele>81.33333333333333</ele><time>2026-04-13T17:09:41.674Z</time></trkpt><trkpt lat="40.8646383" lon="14.1345867"><ele>81.66666666666666</ele><time>2026-04-13T17:09:43.674Z</time></trkpt><trkpt lat="40.8646367" lon="14.134695"><ele>82.0</ele><time>2026-04-13T17:09:45.673Z</time></trkpt><trkpt lat="40.8646383" lon="14.13479"><ele>82.33333333333333</ele><time>2026-04-13T17:09:47.674Z</time></trkpt><trkpt lat="40.8646367" lon="14.1348883"><ele>82.66666666666666</ele><time>2026-04-13T17:09:49.675Z</time></trkpt><trkpt lat="40.8646417" lon="14.134995"><ele>83.0</ele><time>2026-04-13T17:09:51.674Z</time></trkpt><trkpt lat="40.8646417" lon="14.13509"><ele>83.33333333333333</ele><time>2026-04-13T17:09:53.674Z</time></trkpt><trkpt lat="40.8646367" lon="14.1352"><ele>83.66666666666667</ele><time>2026-04-13T17:09:55.674Z</time></trkpt><trkpt lat="40.8646283" lon="14.1353117"><ele>84.0</ele><time>2026-04-13T17:09:57.674Z</time></trkpt><trkpt lat="40.8646267" lon="14.1354317"><ele>84.0</ele><time>2026-04-13T17:09:59.675Z</time></trkpt><trkpt lat="40.8646267" lon="14.1355467"><ele>84.0</ele><time>2026-04-13T17:10:01.675Z</time></trkpt><trkpt lat="40.8646283" lon="14.13566"><ele>84.0</ele><time>2026-04-13T17:10:03.674Z</time></trkpt><trkpt lat="40.8646283" lon="14.1357633"><ele>84.0</ele><time>2026-04-13T17:10:05.675Z</time></trkpt><trkpt lat="40.8646267" lon="14.1358633"><ele>84.0</ele><time>2026-04-13T17:10:07.674Z</time></trkpt><trkpt lat="40.8646233" lon="14.1359617"><ele>84.0</ele><time>2026-04-13T17:10:09.675Z</time></trkpt><trkpt lat="40.864615" lon="14.1360733"><ele>84.5</ele><time>2026-04-13T17:10:11.675Z</time></trkpt><trkpt lat="40.8645967" lon="14.13618"><ele>85.0</ele><time>2026-04-13T17:10:13.675Z</time></trkpt><trkpt lat="40.8645767" lon="14.1362833"><ele>85.5</ele><time>2026-04-13T17:10:15.675Z</time></trkpt><trkpt lat="40.864555" lon="14.136385"><ele>86.0</ele><time>2026-04-13T17:10:17.675Z</time></trkpt><trkpt lat="40.8645233" lon="14.136485"><ele>86.5</ele><time>2026-04-13T17:10:19.675Z</time></trkpt><trkpt lat="40.86449" lon="14.1365833"><ele>87.0</ele><time>2026-04-13T17:10:21.674Z</time></trkpt><trkpt lat="40.86446" lon="14.1366783"><ele>87.71428571428571</ele><time>2026-04-13T17:10:23.674Z</time></trkpt><trkpt lat="40.8644317" lon="14.1367633"><ele>88.42857142857143</ele><time>2026-04-13T17:10:25.674Z</time></trkpt><trkpt lat="40.8644" lon="14.1368433"><ele>89.14285714285714</ele><time>2026-04-13T17:10:27.674Z</time></trkpt><trkpt lat="40.8643567" lon="14.1369183"><ele>89.85714285714286</ele><time>2026-04-13T17:10:29.676Z</time></trkpt><trkpt lat="40.8643283" lon="14.1369967"><ele>90.57142857142857</ele><time>2026-04-13T17:10:31.675Z</time></trkpt><trkpt lat="40.8643083" lon="14.13708"><ele>91.28571428571429</ele><time>2026-04-13T17:10:33.674Z</time></trkpt><trkpt lat="40.864255" lon="14.1371783"><ele>92.0</ele><time>2026-04-13T17:10:36.674Z</time></trkpt><trkpt lat="40.8642183" lon="14.1372483"><ele>92.5</ele><time>2026-04-13T17:10:38.674Z</time></trkpt><trkpt lat="40.864175" lon="14.13732"><ele>93.0</ele><time>2026-04-13T17:10:40.674Z</time></trkpt><trkpt lat="40.864135" lon="14.1373967"><ele>93.5</ele><time>2026-04-13T17:10:42.674Z</time></trkpt><trkpt lat="40.8641" lon="14.13747"><ele>94.0</ele><time>2026-04-13T17:10:44.675Z</time></trkpt><trkpt lat="40.8640467" lon="14.1375633"><ele>94.5</ele><time>2026-04-13T17:10:47.675Z</time></trkpt><trkpt lat="40.8639933" lon="14.137665"><ele>95.0</ele><time>2026-04-13T17:10:50.675Z</time></trkpt><trkpt lat="40.8639433" lon="14.1377567"><ele>96.0</ele><time>2026-04-13T17:10:53.675Z</time></trkpt><trkpt lat="40.8638867" lon="14.1378467"><ele>97.0</ele><time>2026-04-13T17:10:56.676Z</time></trkpt><trkpt lat="40.8638483" lon="14.137925"><ele>98.0</ele><time>2026-04-13T17:10:58.677Z</time></trkpt><trkpt lat="40.8637983" lon="14.1380133"><ele>99.0</ele><time>2026-04-13T17:11:00.676Z</time></trkpt><trkpt lat="40.863755" lon="14.1380967"><ele>99.99999999999999</ele><time>2026-04-13T17:11:02.678Z</time></trkpt><trkpt lat="40.8637083" lon="14.1381983"><ele>101.0</ele><time>2026-04-13T17:11:05.674Z</time></trkpt><trkpt lat="40.863675" lon="14.1382717"><ele>102.42857142857143</ele><time>2026-04-13T17:11:07.676Z</time></trkpt><trkpt lat="40.863645" lon="14.1383517"><ele>103.85714285714286</ele><time>2026-04-13T17:11:09.675Z</time></trkpt><trkpt lat="40.8636217" lon="14.1384317"><ele>105.28571428571428</ele><time>2026-04-13T17:11:11.676Z</time></trkpt><trkpt lat="40.863595" lon="14.1385217"><ele>106.71428571428572</ele><time>2026-04-13T17:11:13.674Z</time></trkpt><trkpt lat="40.86357" lon="14.1386217"><ele>108.14285714285715</ele><time>2026-04-13T17:11:15.674Z</time></trkpt><trkpt lat="40.86354" lon="14.138705"><ele>109.57142857142857</ele><time>2026-04-13T17:11:17.675Z</time></trkpt><trkpt lat="40.8635183" lon="14.1387967"><ele>111.0</ele><time>2026-04-13T17:11:19.675Z</time></trkpt><trkpt lat="40.8634917" lon="14.1388883"><ele>111.0</ele><time>2026-04-13T17:11:21.674Z</time></trkpt><trkpt lat="40.8634633" lon="14.1389933"><ele>111.0</ele><time>2026-04-13T17:11:24.674Z</time></trkpt><trkpt lat="40.8634217" lon="14.1391333"><ele>111.0</ele><time>2026-04-13T17:11:27.674Z</time></trkpt><trkpt lat="40.8633983" lon="14.139235"><ele>111.0</ele><time>2026-04-13T17:11:29.674Z</time></trkpt><trkpt lat="40.8633667" lon="14.1393417"><ele>111.0</ele><time>2026-04-13T17:11:31.674Z</time></trkpt><trkpt lat="40.863325" lon="14.13947"><ele>110.19999999999999</ele><time>2026-04-13T17:11:33.675Z</time></trkpt><trkpt lat="40.863295" lon="14.1395467"><ele>109.39999999999999</ele><time>2026-04-13T17:11:34.676Z</time></trkpt><trkpt lat="40.8632483" lon="14.139665"><ele>108.6</ele><time>2026-04-13T17:11:36.676Z</time></trkpt><trkpt lat="40.8631933" lon="14.1398167"><ele>107.8</ele><time>2026-04-13T17:11:38.676Z</time></trkpt><trkpt lat="40.8631417" lon="14.1399667"><ele>107.0</ele><time>2026-04-13T17:11:40.676Z</time></trkpt><trkpt lat="40.8631133" lon="14.1400433"><ele>106.85714285714286</ele><time>2026-04-13T17:11:41.674Z</time></trkpt><trkpt lat="40.8630783" lon="14.14012"><ele>106.71428571428572</ele><time>2026-04-13T17:11:42.674Z</time></trkpt><trkpt lat="40.8630417" lon="14.14019"><ele>106.57142857142858</ele><time>2026-04-13T17:11:43.674Z</time></trkpt><trkpt lat="40.8630033" lon="14.1402633"><ele>106.42857142857143</ele><time>2026-04-13T17:11:44.675Z</time></trkpt><trkpt lat="40.8629683" lon="14.1403333"><ele>106.28571428571428</ele><time>2026-04-13T17:11:45.674Z</time></trkpt><trkpt lat="40.862925" lon="14.1404133"><ele>106.14285714285715</ele><time>2026-04-13T17:11:46.674Z</time></trkpt><trkpt lat="40.8628733" lon="14.1405017"><ele>106.0</ele><time>2026-04-13T17:11:47.674Z</time></trkpt><trkpt lat="40.8628267" lon="14.1405733"><ele>106.00000000000001</ele><time>2026-04-13T17:11:48.674Z</time></trkpt><trkpt lat="40.8627783" lon="14.1406567"><ele>106.0</ele><time>2026-04-13T17:11:49.676Z</time></trkpt><trkpt lat="40.8627333" lon="14.140745"><ele>106.0</ele><time>2026-04-13T17:11:50.675Z</time></trkpt><trkpt lat="40.8626883" lon="14.1408217"><ele>106.0</ele><time>2026-04-13T17:11:51.674Z</time></trkpt><trkpt lat="40.8626433" lon="14.1409"><ele>106.00000000000001</ele><time>2026-04-13T17:11:52.673Z</time></trkpt><trkpt lat="40.8625983" lon="14.140975"><ele>106.0</ele><time>2026-04-13T17:11:53.674Z</time></trkpt><trkpt lat="40.862555" lon="14.1410567"><ele>105.00000000000001</ele><time>2026-04-13T17:11:54.674Z</time></trkpt><trkpt lat="40.8625083" lon="14.141145"><ele>104.0</ele><time>2026-04-13T17:11:55.674Z</time></trkpt><trkpt lat="40.8624567" lon="14.141235"><ele>103.0</ele><time>2026-04-13T17:11:56.675Z</time></trkpt><trkpt lat="40.8624033" lon="14.1413217"><ele>102.0</ele><time>2026-04-13T17:11:57.674Z</time></trkpt><trkpt lat="40.8623533" lon="14.1414117"><ele>101.00000000000001</ele><time>2026-04-13T17:11:58.674Z</time></trkpt><trkpt lat="40.862305" lon="14.14151"><ele>100.0</ele><time>2026-04-13T17:11:59.674Z</time></trkpt><trkpt lat="40.8622533" lon="14.1415983"><ele>99.66666666666667</ele><time>2026-04-13T17:12:00.674Z</time></trkpt><trkpt lat="40.8621983" lon="14.1416867"><ele>99.33333333333334</ele><time>2026-04-13T17:12:01.675Z</time></trkpt><trkpt lat="40.8621367" lon="14.1417633"><ele>99.0</ele><time>2026-04-13T17:12:02.676Z</time></trkpt><trkpt lat="40.86208" lon="14.1418333"><ele>98.66666666666666</ele><time>2026-04-13T17:12:03.674Z</time></trkpt><trkpt lat="40.8620283" lon="14.1418983"><ele>98.33333333333333</ele><time>2026-04-13T17:12:04.676Z</time></trkpt><trkpt lat="40.8619717" lon="14.1419567"><ele>98.0</ele><time>2026-04-13T17:12:05.675Z</time></trkpt><trkpt lat="40.86191" lon="14.1420017"><ele>97.99999999999999</ele><time>2026-04-13T17:12:06.675Z</time></trkpt><trkpt lat="40.8618517" lon="14.1420383"><ele>98.0</ele><time>2026-04-13T17:12:07.675Z</time></trkpt><trkpt lat="40.8617917" lon="14.1420717"><ele>98.0</ele><time>2026-04-13T17:12:08.674Z</time></trkpt><trkpt lat="40.8617317" lon="14.1421017"><ele>98.0</ele><time>2026-04-13T17:12:09.674Z</time></trkpt><trkpt lat="40.86163" lon="14.14213"><ele>97.99999999999999</ele><time>2026-04-13T17:12:11.676Z</time></trkpt><trkpt lat="40.8615333" lon="14.1421483"><ele>98.0</ele><time>2026-04-13T17:12:13.676Z</time></trkpt><trkpt lat="40.8614383" lon="14.14215"><ele>98.16666666666666</ele><time>2026-04-13T17:12:15.674Z</time></trkpt><trkpt lat="40.86135" lon="14.142145"><ele>98.33333333333333</ele><time>2026-04-13T17:12:17.674Z</time></trkpt><trkpt lat="40.861265" lon="14.1421383"><ele>98.5</ele><time>2026-04-13T17:12:19.675Z</time></trkpt><trkpt lat="40.8611783" lon="14.1421233"><ele>98.66666666666666</ele><time>2026-04-13T17:12:21.674Z</time></trkpt><trkpt lat="40.8610967" lon="14.1421067"><ele>98.83333333333333</ele><time>2026-04-13T17:12:23.674Z</time></trkpt><trkpt lat="40.8610067" lon="14.1420967"><ele>99.0</ele><time>2026-04-13T17:12:25.674Z</time></trkpt><trkpt lat="40.8609233" lon="14.142085"><ele>99.66666666666667</ele><time>2026-04-13T17:12:27.675Z</time></trkpt><trkpt lat="40.8608417" lon="14.1420733"><ele>100.33333333333334</ele><time>2026-04-13T17:12:29.676Z</time></trkpt><trkpt lat="40.8607617" lon="14.1420567"><ele>101.0</ele><time>2026-04-13T17:12:31.675Z</time></trkpt><trkpt lat="40.8606733" lon="14.1420383"><ele>101.66666666666667</ele><time>2026-04-13T17:12:33.674Z</time></trkpt><trkpt lat="40.8605883" lon="14.1420217"><ele>102.33333333333334</ele><time>2026-04-13T17:12:35.675Z</time></trkpt><trkpt lat="40.8605033" lon="14.142005"><ele>103.0</ele><time>2026-04-13T17:12:37.674Z</time></trkpt><trkpt lat="40.8604283" lon="14.1419983"><ele>103.00000000000001</ele><time>2026-04-13T17:12:39.674Z</time></trkpt><trkpt lat="40.8603583" lon="14.141985"><ele>103.0</ele><time>2026-04-13T17:12:41.675Z</time></trkpt><trkpt lat="40.8602767" lon="14.14196"><ele>103.0</ele><time>2026-04-13T17:12:43.675Z</time></trkpt><trkpt lat="40.8602017" lon="14.14193"><ele>103.0</ele><time>2026-04-13T17:12:45.673Z</time></trkpt><trkpt lat="40.8601233" lon="14.1419"><ele>103.00000000000001</ele><time>2026-04-13T17:12:47.675Z</time></trkpt><trkpt lat="40.860045" lon="14.1418667"><ele>103.0</ele><time>2026-04-13T17:12:49.675Z</time></trkpt><trkpt lat="40.859975" lon="14.1418383"><ele>103.50000000000001</ele><time>2026-04-13T17:12:51.674Z</time></trkpt><trkpt lat="40.8599" lon="14.141815"><ele>104.0</ele><time>2026-04-13T17:12:53.674Z</time></trkpt><trkpt lat="40.8598167" lon="14.1417933"><ele>104.5</ele><time>2026-04-13T17:12:56.674Z</time></trkpt><trkpt lat="40.8597317" lon="14.1417867"><ele>105.0</ele><time>2026-04-13T17:12:59.675Z</time></trkpt><trkpt lat="40.85965" lon="14.1417833"><ele>105.50000000000001</ele><time>2026-04-13T17:13:02.674Z</time></trkpt><trkpt lat="40.85958" lon="14.14178"><ele>106.0</ele><time>2026-04-13T17:13:04.677Z</time></trkpt><trkpt lat="40.859505" lon="14.1417833"><ele>106.00000000000001</ele><time>2026-04-13T17:13:06.674Z</time></trkpt><trkpt lat="40.85944" lon="14.141805"><ele>106.0</ele><time>2026-04-13T17:13:08.674Z</time></trkpt><trkpt lat="40.859375" lon="14.1418333"><ele>106.0</ele><time>2026-04-13T17:13:10.675Z</time></trkpt><trkpt lat="40.8592833" lon="14.1418617"><ele>106.0</ele><time>2026-04-13T17:13:13.674Z</time></trkpt><trkpt lat="40.8592117" lon="14.1418883"><ele>106.00000000000001</ele><time>2026-04-13T17:13:15.675Z</time></trkpt><trkpt lat="40.85914" lon="14.1419183"><ele>106.0</ele><time>2026-04-13T17:13:17.675Z</time></trkpt><trkpt lat="40.8590667" lon="14.1419583"><ele>106.33333333333334</ele><time>2026-04-13T17:13:19.675Z</time></trkpt><trkpt lat="40.858995" lon="14.1419933"><ele>106.66666666666667</ele><time>2026-04-13T17:13:21.674Z</time></trkpt><trkpt lat="40.8589117" lon="14.142025"><ele>107.0</ele><time>2026-04-13T17:13:23.676Z</time></trkpt><trkpt lat="40.8588317" lon="14.1420533"><ele>107.33333333333334</ele><time>2026-04-13T17:13:25.677Z</time></trkpt><trkpt lat="40.8587583" lon="14.1420883"><ele>107.66666666666667</ele><time>2026-04-13T17:13:27.675Z</time></trkpt><trkpt lat="40.8586783" lon="14.1421383"><ele>108.0</ele><time>2026-04-13T17:13:29.676Z</time></trkpt><trkpt lat="40.8586" lon="14.1421967"><ele>108.0</ele><time>2026-04-13T17:13:31.678Z</time></trkpt><trkpt lat="40.8585233" lon="14.1422467"><ele>108.0</ele><time>2026-04-13T17:13:33.675Z</time></trkpt><trkpt lat="40.8584467" lon="14.1422983"><ele>108.0</ele><time>2026-04-13T17:13:35.675Z</time></trkpt><trkpt lat="40.858375" lon="14.14235"><ele>108.0</ele><time>2026-04-13T17:13:37.674Z</time></trkpt><trkpt lat="40.858295" lon="14.1424017"><ele>108.0</ele><time>2026-04-13T17:13:39.675Z</time></trkpt><trkpt lat="40.8582183" lon="14.1424617"><ele>108.0</ele><time>2026-04-13T17:13:41.674Z</time></trkpt><trkpt lat="40.85814" lon="14.1425217"><ele>107.80000000000001</ele><time>2026-04-13T17:13:43.675Z</time></trkpt><trkpt lat="40.8580533" lon="14.1425783"><ele>107.60000000000001</ele><time>2026-04-13T17:13:45.674Z</time></trkpt><trkpt lat="40.8579667" lon="14.142645"><ele>107.39999999999999</ele><time>2026-04-13T17:13:47.675Z</time></trkpt><trkpt lat="40.8578883" lon="14.1427"><ele>107.19999999999999</ele><time>2026-04-13T17:13:49.674Z</time></trkpt><trkpt lat="40.857815" lon="14.1427533"><ele>107.0</ele><time>2026-04-13T17:13:51.674Z</time></trkpt><trkpt lat="40.8577333" lon="14.1428117"><ele>107.0</ele><time>2026-04-13T17:13:53.674Z</time></trkpt><trkpt lat="40.8576417" lon="14.1428767"><ele>106.99999999999999</ele><time>2026-04-13T17:13:55.675Z</time></trkpt><trkpt lat="40.8575567" lon="14.1429367"><ele>106.99999999999999</ele><time>2026-04-13T17:13:57.674Z</time></trkpt><trkpt lat="40.85747" lon="14.1429967"><ele>107.0</ele><time>2026-04-13T17:13:59.675Z</time></trkpt><trkpt lat="40.8573883" lon="14.14305"><ele>107.0</ele><time>2026-04-13T17:14:01.674Z</time></trkpt><trkpt lat="40.85731" lon="14.1431033"><ele>107.66666666666666</ele><time>2026-04-13T17:14:03.674Z</time></trkpt><trkpt lat="40.8572267" lon="14.1431617"><ele>108.33333333333333</ele><time>2026-04-13T17:14:05.674Z</time></trkpt><trkpt lat="40.857155" lon="14.1432283"><ele>109.0</ele><time>2026-04-13T17:14:07.676Z</time></trkpt><trkpt lat="40.8570733" lon="14.1432883"><ele>109.66666666666666</ele><time>2026-04-13T17:14:09.674Z</time></trkpt><trkpt lat="40.8570033" lon="14.1433417"><ele>110.33333333333333</ele><time>2026-04-13T17:14:11.675Z</time></trkpt><trkpt lat="40.8569217" lon="14.1434"><ele>111.0</ele><time>2026-04-13T17:14:13.676Z</time></trkpt><trkpt lat="40.8568367" lon="14.143465"><ele>111.8</ele><time>2026-04-13T17:14:15.675Z</time></trkpt><trkpt lat="40.85675" lon="14.1435367"><ele>112.6</ele><time>2026-04-13T17:14:17.675Z</time></trkpt><trkpt lat="40.8566633" lon="14.1436067"><ele>113.4</ele><time>2026-04-13T17:14:19.675Z</time></trkpt><trkpt lat="40.8565767" lon="14.14367"><ele>114.2</ele><time>2026-04-13T17:14:21.676Z</time></trkpt><trkpt lat="40.8564967" lon="14.14374"><ele>115.0</ele><time>2026-04-13T17:14:23.675Z</time></trkpt><trkpt lat="40.8564317" lon="14.1438317"><ele>115.0</ele><time>2026-04-13T17:14:25.674Z</time></trkpt><trkpt lat="40.8563767" lon="14.14394"><ele>115.0</ele><time>2026-04-13T17:14:27.674Z</time></trkpt><trkpt lat="40.856355" lon="14.1440633"><ele>115.0</ele><time>2026-04-13T17:14:29.675Z</time></trkpt><trkpt lat="40.8563517" lon="14.1441917"><ele>115.0</ele><time>2026-04-13T17:14:31.674Z</time></trkpt><trkpt lat="40.85636" lon="14.1443217"><ele>115.0</ele><time>2026-04-13T17:14:33.675Z</time></trkpt><trkpt lat="40.8563717" lon="14.1444383"><ele>114.4</ele><time>2026-04-13T17:14:35.674Z</time></trkpt><trkpt lat="40.8563917" lon="14.1445533"><ele>113.8</ele><time>2026-04-13T17:14:37.674Z</time></trkpt><trkpt lat="40.8564083" lon="14.1446767"><ele>113.19999999999999</ele><time>2026-04-13T17:14:39.674Z</time></trkpt><trkpt lat="40.85642" lon="14.1448033"><ele>112.6</ele><time>2026-04-13T17:14:41.674Z</time></trkpt><trkpt lat="40.8564317" lon="14.1449133"><ele>112.0</ele><time>2026-04-13T17:14:43.675Z</time></trkpt><trkpt lat="40.8564433" lon="14.1450267"><ele>111.8</ele><time>2026-04-13T17:14:45.674Z</time></trkpt><trkpt lat="40.856455" lon="14.1451533"><ele>111.6</ele><time>2026-04-13T17:14:47.675Z</time></trkpt><trkpt lat="40.85647" lon="14.1452783"><ele>111.39999999999999</ele><time>2026-04-13T17:14:49.675Z</time></trkpt><trkpt lat="40.85648" lon="14.1454217"><ele>111.19999999999999</ele><time>2026-04-13T17:14:51.674Z</time></trkpt><trkpt lat="40.8564867" lon="14.14556"><ele>111.0</ele><time>2026-04-13T17:14:53.675Z</time></trkpt><trkpt lat="40.8564967" lon="14.1456883"><ele>111.4</ele><time>2026-04-13T17:14:55.675Z</time></trkpt><trkpt lat="40.8565067" lon="14.1458283"><ele>111.8</ele><time>2026-04-13T17:14:57.674Z</time></trkpt><trkpt lat="40.856505" lon="14.1459533"><ele>112.20000000000002</ele><time>2026-04-13T17:14:59.675Z</time></trkpt><trkpt lat="40.8564883" lon="14.14608"><ele>112.60000000000001</ele><time>2026-04-13T17:15:01.674Z</time></trkpt><trkpt lat="40.85647" lon="14.146205"><ele>113.0</ele><time>2026-04-13T17:15:03.674Z</time></trkpt><trkpt lat="40.8564383" lon="14.1463133"><ele>112.99999999999999</ele><time>2026-04-13T17:15:05.675Z</time></trkpt><trkpt lat="40.85641" lon="14.14641"><ele>113.0</ele><time>2026-04-13T17:15:07.675Z</time></trkpt><trkpt lat="40.856375" lon="14.1465067"><ele>113.0</ele><time>2026-04-13T17:15:09.674Z</time></trkpt><trkpt lat="40.8563267" lon="14.1465917"><ele>113.0</ele><time>2026-04-13T17:15:11.676Z</time></trkpt><trkpt lat="40.8562867" lon="14.1466667"><ele>112.99999999999999</ele><time>2026-04-13T17:15:13.674Z</time></trkpt><trkpt lat="40.8562433" lon="14.14675"><ele>113.0</ele><time>2026-04-13T17:15:15.674Z</time></trkpt><trkpt lat="40.856205" lon="14.14683"><ele>113.66666666666666</ele><time>2026-04-13T17:15:17.674Z</time></trkpt><trkpt lat="40.85616" lon="14.1469033"><ele>114.33333333333333</ele><time>2026-04-13T17:15:19.675Z</time></trkpt><trkpt lat="40.8561133" lon="14.146975"><ele>115.0</ele><time>2026-04-13T17:15:21.674Z</time></trkpt><trkpt lat="40.8560617" lon="14.1470383"><ele>115.66666666666666</ele><time>2026-04-13T17:15:23.674Z</time></trkpt><trkpt lat="40.856015" lon="14.147095"><ele>116.33333333333333</ele><time>2026-04-13T17:15:25.674Z</time></trkpt><trkpt lat="40.855945" lon="14.1471733"><ele>117.0</ele><time>2026-04-13T17:15:28.674Z</time></trkpt><trkpt lat="40.8558817" lon="14.14725"><ele>118.16666666666667</ele><time>2026-04-13T17:15:31.674Z</time></trkpt><trkpt lat="40.8558217" lon="14.1473367"><ele>119.33333333333334</ele><time>2026-04-13T17:15:34.674Z</time></trkpt><trkpt lat="40.8557567" lon="14.147415"><ele>120.5</ele><time>2026-04-13T17:15:37.674Z</time></trkpt><trkpt lat="40.8556867" lon="14.1474917"><ele>121.66666666666667</ele><time>2026-04-13T17:15:40.674Z</time></trkpt><trkpt lat="40.8556367" lon="14.1475467"><ele>122.83333333333334</ele><time>2026-04-13T17:15:42.674Z</time></trkpt><trkpt lat="40.8555717" lon="14.147625"><ele>124.0</ele><time>2026-04-13T17:15:45.675Z</time></trkpt><trkpt lat="40.8555283" lon="14.1476867"><ele>124.16666666666667</ele><time>2026-04-13T17:15:48.674Z</time></trkpt><trkpt lat="40.8554633" lon="14.1477633"><ele>124.33333333333334</ele><time>2026-04-13T17:15:51.673Z</time></trkpt><trkpt lat="40.8554083" lon="14.1478433"><ele>124.5</ele><time>2026-04-13T17:15:54.675Z</time></trkpt><trkpt lat="40.855355" lon="14.1479183"><ele>124.66666666666666</ele><time>2026-04-13T17:15:57.674Z</time></trkpt><trkpt lat="40.8553033" lon="14.1480067"><ele>124.83333333333333</ele><time>2026-04-13T17:16:00.675Z</time></trkpt><trkpt lat="40.8552683" lon="14.1480783"><ele>125.0</ele><time>2026-04-13T17:16:02.676Z</time></trkpt><trkpt lat="40.85524" lon="14.1481583"><ele>125.33333333333333</ele><time>2026-04-13T17:16:04.674Z</time></trkpt><trkpt lat="40.8552133" lon="14.1482783"><ele>125.66666666666666</ele><time>2026-04-13T17:16:07.675Z</time></trkpt><trkpt lat="40.8551833" lon="14.1483933"><ele>126.0</ele><time>2026-04-13T17:16:10.675Z</time></trkpt><trkpt lat="40.85517" lon="14.1484833"><ele>126.33333333333334</ele><time>2026-04-13T17:16:12.676Z</time></trkpt><trkpt lat="40.85517" lon="14.1485733"><ele>126.66666666666667</ele><time>2026-04-13T17:16:14.675Z</time></trkpt><trkpt lat="40.8551717" lon="14.1486567"><ele>127.0</ele><time>2026-04-13T17:16:16.674Z</time></trkpt><trkpt lat="40.8551833" lon="14.1487717"><ele>127.0</ele><time>2026-04-13T17:16:19.675Z</time></trkpt><trkpt lat="40.8551883" lon="14.1488817"><ele>127.0</ele><time>2026-04-13T17:16:22.675Z</time></trkpt><trkpt lat="40.8551883" lon="14.1489767"><ele>127.0</ele><time>2026-04-13T17:16:25.675Z</time></trkpt><trkpt lat="40.8552017" lon="14.1490733"><ele>127.0</ele><time>2026-04-13T17:16:28.674Z</time></trkpt><trkpt lat="40.8552067" lon="14.1491567"><ele>127.0</ele><time>2026-04-13T17:16:31.676Z</time></trkpt><trkpt lat="40.8552033" lon="14.149265"><ele>127.0</ele><time>2026-04-13T17:16:34.675Z</time></trkpt><trkpt lat="40.8552083" lon="14.1493583"><ele>127.0</ele><time>2026-04-13T17:16:36.674Z</time></trkpt><trkpt lat="40.855215" lon="14.1494483"><ele>127.57142857142858</ele><time>2026-04-13T17:16:38.675Z</time></trkpt><trkpt lat="40.855225" lon="14.1495317"><ele>128.14285714285714</ele><time>2026-04-13T17:16:40.674Z</time></trkpt><trkpt lat="40.855245" lon="14.1496483"><ele>128.71428571428572</ele><time>2026-04-13T17:16:43.675Z</time></trkpt><trkpt lat="40.8552667" lon="14.149765"><ele>129.28571428571428</ele><time>2026-04-13T17:16:46.674Z</time></trkpt><trkpt lat="40.8552733" lon="14.1498483"><ele>129.85714285714286</ele><time>2026-04-13T17:16:48.674Z</time></trkpt><trkpt lat="40.8552767" lon="14.14994"><ele>130.42857142857144</ele><time>2026-04-13T17:16:50.674Z</time></trkpt><trkpt lat="40.85528" lon="14.1500233"><ele>131.0</ele><time>2026-04-13T17:16:52.675Z</time></trkpt><trkpt lat="40.85528" lon="14.1501083"><ele>131.0</ele><time>2026-04-13T17:16:54.675Z</time></trkpt><trkpt lat="40.855285" lon="14.1501933"><ele>131.0</ele><time>2026-04-13T17:16:56.676Z</time></trkpt><trkpt lat="40.855285" lon="14.1503183"><ele>131.0</ele><time>2026-04-13T17:16:59.676Z</time></trkpt><trkpt lat="40.8552867" lon="14.1504183"><ele>131.0</ele><time>2026-04-13T17:17:01.675Z</time></trkpt><trkpt lat="40.8552933" lon="14.1505017"><ele>131.0</ele><time>2026-04-13T17:17:03.674Z</time></trkpt><trkpt lat="40.85529" lon="14.15059"><ele>131.0</ele><time>2026-04-13T17:17:05.674Z</time></trkpt><trkpt lat="40.8553033" lon="14.1506983"><ele>131.0</ele><time>2026-04-13T17:17:08.674Z</time></trkpt><trkpt lat="40.8553033" lon="14.1508133"><ele>131.66666666666666</ele><time>2026-04-13T17:17:11.676Z</time></trkpt><trkpt lat="40.8553017" lon="14.1509017"><ele>132.33333333333331</ele><time>2026-04-13T17:17:13.674Z</time></trkpt><trkpt lat="40.85528" lon="14.151025"><ele>133.0</ele><time>2026-04-13T17:17:16.674Z</time></trkpt><trkpt lat="40.855255" lon="14.1511183"><ele>133.66666666666666</ele><time>2026-04-13T17:17:18.675Z</time></trkpt><trkpt lat="40.85523" lon="14.1512167"><ele>134.33333333333334</ele><time>2026-04-13T17:17:20.674Z</time></trkpt><trkpt lat="40.8552067" lon="14.1513183"><ele>135.0</ele><time>2026-04-13T17:17:22.674Z</time></trkpt><trkpt lat="40.8551833" lon="14.151415"><ele>135.0</ele><time>2026-04-13T17:17:24.675Z</time></trkpt><trkpt lat="40.85516" lon="14.1515067"><ele>135.0</ele><time>2026-04-13T17:17:26.677Z</time></trkpt><trkpt lat="40.85514" lon="14.1515967"><ele>135.0</ele><time>2026-04-13T17:17:28.676Z</time></trkpt><trkpt lat="40.8551117" lon="14.1516817"><ele>135.0</ele><time>2026-04-13T17:17:30.675Z</time></trkpt><trkpt lat="40.8550883" lon="14.1517633"><ele>135.0</ele><time>2026-04-13T17:17:32.675Z</time></trkpt><trkpt lat="40.855065" lon="14.1518533"><ele>135.0</ele><time>2026-04-13T17:17:34.675Z</time></trkpt><trkpt lat="40.85504" lon="14.1519417"><ele>135.0</ele><time>2026-04-13T17:17:36.675Z</time></trkpt><trkpt lat="40.8550133" lon="14.1520283"><ele>136.66666666666666</ele><time>2026-04-13T17:17:38.676Z</time></trkpt><trkpt lat="40.85499" lon="14.152115"><ele>138.33333333333334</ele><time>2026-04-13T17:17:40.675Z</time></trkpt><trkpt lat="40.8549617" lon="14.1522267"><ele>140.0</ele><time>2026-04-13T17:17:43.675Z</time></trkpt><trkpt lat="40.8549317" lon="14.1523317"><ele>141.66666666666669</ele><time>2026-04-13T17:17:46.674Z</time></trkpt><trkpt lat="40.8549067" lon="14.15241"><ele>143.33333333333334</ele><time>2026-04-13T17:17:48.674Z</time></trkpt><trkpt lat="40.8548833" lon="14.1525"><ele>145.0</ele><time>2026-04-13T17:17:50.675Z</time></trkpt><trkpt lat="40.8548567" lon="14.1525967"><ele>145.42857142857144</ele><time>2026-04-13T17:17:52.674Z</time></trkpt><trkpt lat="40.85483" lon="14.1526883"><ele>145.85714285714286</ele><time>2026-04-13T17:17:54.677Z</time></trkpt><trkpt lat="40.8548017" lon="14.15278"><ele>146.28571428571428</ele><time>2026-04-13T17:17:56.674Z</time></trkpt><trkpt lat="40.8547783" lon="14.1528667"><ele>146.71428571428572</ele><time>2026-04-13T17:17:58.674Z</time></trkpt><trkpt lat="40.854765" lon="14.15296"><ele>147.14285714285714</ele><time>2026-04-13T17:18:00.675Z</time></trkpt><trkpt lat="40.8547483" lon="14.15305"><ele>147.57142857142858</ele><time>2026-04-13T17:18:02.674Z</time></trkpt><trkpt lat="40.8547333" lon="14.1531417"><ele>148.0</ele><time>2026-04-13T17:18:04.674Z</time></trkpt><trkpt lat="40.854725" lon="14.1532367"><ele>148.85714285714286</ele><time>2026-04-13T17:18:06.674Z</time></trkpt><trkpt lat="40.8547183" lon="14.1533283"><ele>149.71428571428572</ele><time>2026-04-13T17:18:08.674Z</time></trkpt><trkpt lat="40.85471" lon="14.1534133"><ele>150.57142857142856</ele><time>2026-04-13T17:18:10.675Z</time></trkpt><trkpt lat="40.854695" lon="14.153535"><ele>151.42857142857144</ele><time>2026-04-13T17:18:13.676Z</time></trkpt><trkpt lat="40.8546783" lon="14.15362"><ele>152.28571428571428</ele><time>2026-04-13T17:18:15.675Z</time></trkpt><trkpt lat="40.854665" lon="14.1537033"><ele>153.14285714285714</ele><time>2026-04-13T17:18:17.675Z</time></trkpt><trkpt lat="40.8546683" lon="14.1538083"><ele>154.0</ele><time>2026-04-13T17:18:20.675Z</time></trkpt><trkpt lat="40.85466" lon="14.15392"><ele>154.0</ele><time>2026-04-13T17:18:23.676Z</time></trkpt><trkpt lat="40.8546533" lon="14.154015"><ele>154.0</ele><time>2026-04-13T17:18:26.674Z</time></trkpt><trkpt lat="40.85464" lon="14.1541317"><ele>154.0</ele><time>2026-04-13T17:18:29.674Z</time></trkpt><trkpt lat="40.85463" lon="14.1542517"><ele>154.0</ele><time>2026-04-13T17:18:32.673Z</time></trkpt><trkpt lat="40.854625" lon="14.15434"><ele>154.0</ele><time>2026-04-13T17:18:34.673Z</time></trkpt><trkpt lat="40.8546217" lon="14.15443"><ele>154.0</ele><time>2026-04-13T17:18:36.673Z</time></trkpt><trkpt lat="40.85462" lon="14.1545483"><ele>154.66666666666669</ele><time>2026-04-13T17:18:39.673Z</time></trkpt><trkpt lat="40.854625" lon="14.1546317"><ele>155.33333333333334</ele><time>2026-04-13T17:18:41.674Z</time></trkpt><trkpt lat="40.8546333" lon="14.154745"><ele>156.0</ele><time>2026-04-13T17:18:44.673Z</time></trkpt><trkpt lat="40.854645" lon="14.1548583"><ele>156.66666666666666</ele><time>2026-04-13T17:18:47.675Z</time></trkpt><trkpt lat="40.8546517" lon="14.1549467"><ele>157.33333333333331</ele><time>2026-04-13T17:18:49.674Z</time></trkpt><trkpt lat="40.85467" lon="14.1550567"><ele>158.0</ele><time>2026-04-13T17:18:52.673Z</time></trkpt><trkpt lat="40.8546983" lon="14.1551633"><ele>159.0</ele><time>2026-04-13T17:18:55.674Z</time></trkpt><trkpt lat="40.854715" lon="14.1552717"><ele>160.0</ele><time>2026-04-13T17:18:58.674Z</time></trkpt><trkpt lat="40.85475" lon="14.1553433"><ele>161.0</ele><time>2026-04-13T17:19:00.674Z</time></trkpt><trkpt lat="40.8548167" lon="14.1554317"><ele>162.0</ele><time>2026-04-13T17:19:03.674Z</time></trkpt><trkpt lat="40.8548917" lon="14.15549"><ele>163.0</ele><time>2026-04-13T17:19:06.674Z</time></trkpt><trkpt lat="40.8549467" lon="14.1555317"><ele>164.0</ele><time>2026-04-13T17:19:08.673Z</time></trkpt><trkpt lat="40.8550217" lon="14.155585"><ele>163.99999999999997</ele><time>2026-04-13T17:19:11.675Z</time></trkpt><trkpt lat="40.8551017" lon="14.15563"><ele>164.0</ele><time>2026-04-13T17:19:14.675Z</time></trkpt><trkpt lat="40.855165" lon="14.1556517"><ele>164.0</ele><time>2026-04-13T17:19:16.674Z</time></trkpt><trkpt lat="40.8552217" lon="14.1556933"><ele>164.0</ele><time>2026-04-13T17:19:18.674Z</time></trkpt><trkpt lat="40.8552883" lon="14.1557383"><ele>164.0</ele><time>2026-04-13T17:19:20.674Z</time></trkpt><trkpt lat="40.85536" lon="14.1557783"><ele>163.99999999999997</ele><time>2026-04-13T17:19:22.673Z</time></trkpt><trkpt lat="40.85543" lon="14.155825"><ele>164.0</ele><time>2026-04-13T17:19:24.674Z</time></trkpt><trkpt lat="40.8554867" lon="14.15588"><ele>165.33333333333331</ele><time>2026-04-13T17:19:26.674Z</time></trkpt><trkpt lat="40.855545" lon="14.1559533"><ele>166.66666666666666</ele><time>2026-04-13T17:19:28.674Z</time></trkpt><trkpt lat="40.8556033" lon="14.1560317"><ele>168.0</ele><time>2026-04-13T17:19:30.673Z</time></trkpt><trkpt lat="40.855665" lon="14.1561133"><ele>169.33333333333334</ele><time>2026-04-13T17:19:32.674Z</time></trkpt><trkpt lat="40.8557233" lon="14.1561917"><ele>170.66666666666669</ele><time>2026-04-13T17:19:34.673Z</time></trkpt><trkpt lat="40.8557767" lon="14.15629"><ele>172.0</ele><time>2026-04-13T17:19:36.675Z</time></trkpt><trkpt lat="40.855825" lon="14.1563617"><ele>172.0</ele><time>2026-04-13T17:19:38.673Z</time></trkpt><trkpt lat="40.8559" lon="14.1564267"><ele>172.0</ele><time>2026-04-13T17:19:41.675Z</time></trkpt><trkpt lat="40.8559633" lon="14.1565183"><ele>172.0</ele><time>2026-04-13T17:19:44.674Z</time></trkpt><trkpt lat="40.8560017" lon="14.1565867"><ele>172.0</ele><time>2026-04-13T17:19:46.673Z</time></trkpt><trkpt lat="40.8560467" lon="14.1566567"><ele>172.0</ele><time>2026-04-13T17:19:48.673Z</time></trkpt><trkpt lat="40.85611" lon="14.1567333"><ele>172.0</ele><time>2026-04-13T17:19:50.675Z</time></trkpt><trkpt lat="40.8561617" lon="14.1568217"><ele>173.16666666666669</ele><time>2026-04-13T17:19:52.674Z</time></trkpt><trkpt lat="40.8561633" lon="14.1569267"><ele>174.33333333333334</ele><time>2026-04-13T17:19:54.673Z</time></trkpt><trkpt lat="40.8561533" lon="14.1570317"><ele>175.5</ele><time>2026-04-13T17:19:56.674Z</time></trkpt><trkpt lat="40.8561267" lon="14.15714"><ele>176.66666666666666</ele><time>2026-04-13T17:19:58.674Z</time></trkpt><trkpt lat="40.8561083" lon="14.15725"><ele>177.83333333333331</ele><time>2026-04-13T17:20:00.674Z</time></trkpt><trkpt lat="40.8560767" lon="14.1573517"><ele>179.0</ele><time>2026-04-13T17:20:02.673Z</time></trkpt><trkpt lat="40.856045" lon="14.1574433"><ele>179.0</ele><time>2026-04-13T17:20:04.673Z</time></trkpt><trkpt lat="40.85603" lon="14.157555"><ele>179.0</ele><time>2026-04-13T17:20:06.674Z</time></trkpt><trkpt lat="40.8559983" lon="14.15765"><ele>179.0</ele><time>2026-04-13T17:20:08.674Z</time></trkpt><trkpt lat="40.8559633" lon="14.157745"><ele>179.0</ele><time>2026-04-13T17:20:10.674Z</time></trkpt><trkpt lat="40.855935" lon="14.15783"><ele>179.0</ele><time>2026-04-13T17:20:12.674Z</time></trkpt><trkpt lat="40.855905" lon="14.1579183"><ele>179.0</ele><time>2026-04-13T17:20:14.674Z</time></trkpt><trkpt lat="40.8558683" lon="14.1579967"><ele>179.00000000000003</ele><time>2026-04-13T17:20:16.673Z</time></trkpt><trkpt lat="40.85584" lon="14.1580867"><ele>179.0</ele><time>2026-04-13T17:20:18.673Z</time></trkpt><trkpt lat="40.85581" lon="14.158175"><ele>179.0</ele><time>2026-04-13T17:20:20.673Z</time></trkpt><trkpt lat="40.8557783" lon="14.1582717"><ele>179.0</ele><time>2026-04-13T17:20:22.673Z</time></trkpt><trkpt lat="40.8557533" lon="14.1583567"><ele>179.0</ele><time>2026-04-13T17:20:24.675Z</time></trkpt><trkpt lat="40.85573" lon="14.1584517"><ele>179.00000000000003</ele><time>2026-04-13T17:20:26.673Z</time></trkpt><trkpt lat="40.8557133" lon="14.1585383"><ele>179.0</ele><time>2026-04-13T17:20:28.673Z</time></trkpt><trkpt lat="40.855695" lon="14.15865"><ele>178.71428571428572</ele><time>2026-04-13T17:20:31.674Z</time></trkpt><trkpt lat="40.85566" lon="14.1587467"><ele>178.42857142857144</ele><time>2026-04-13T17:20:34.673Z</time></trkpt><trkpt lat="40.8556317" lon="14.158825"><ele>178.14285714285717</ele><time>2026-04-13T17:20:36.674Z</time></trkpt><trkpt lat="40.855595" lon="14.1589367"><ele>177.85714285714286</ele><time>2026-04-13T17:20:39.673Z</time></trkpt><trkpt lat="40.8555767" lon="14.1590217"><ele>177.57142857142856</ele><time>2026-04-13T17:20:41.673Z</time></trkpt><trkpt lat="40.8555583" lon="14.1591017"><ele>177.2857142857143</ele><time>2026-04-13T17:20:43.675Z</time></trkpt><trkpt lat="40.8555133" lon="14.15916"><ele>177.0</ele><time>2026-04-13T17:20:46.674Z</time></trkpt><trkpt lat="40.8554487" lon="14.1591627"><ele>176.66666666666666</ele><time>2026-04-13T17:21:57.789Z</time></trkpt><trkpt lat="40.8555223" lon="14.1591955"><ele>176.33333333333334</ele><time>2026-04-13T17:23:00.746Z</time></trkpt><trkpt lat="40.85559" lon="14.1592153"><ele>176.0</ele><time>2026-04-13T17:24:13.745Z</time></trkpt><trkpt lat="40.855664" lon="14.1591977"><ele>175.66666666666669</ele><time>2026-04-13T17:24:16.772Z</time></trkpt><trkpt lat="40.8557067" lon="14.159124"><ele>175.33333333333334</ele><time>2026-04-13T17:24:18.712Z</time></trkpt><trkpt lat="40.8558002" lon="14.1591504"><ele>175.0</ele><time>2026-04-13T17:24:20.708Z</time></trkpt><trkpt lat="40.8558833" lon="14.159185"><ele>175.0</ele><time>2026-04-13T17:24:23.674Z</time></trkpt><trkpt lat="40.8559633" lon="14.1591883"><ele>175.0</ele><time>2026-04-13T17:24:26.674Z</time></trkpt><trkpt lat="40.8560433" lon="14.159225"><ele>175.0</ele><time>2026-04-13T17:24:29.674Z</time></trkpt><trkpt lat="40.85612" lon="14.1593033"><ele>175.0</ele><time>2026-04-13T17:24:32.674Z</time></trkpt><trkpt lat="40.856175" lon="14.1593667"><ele>175.0</ele><time>2026-04-13T17:24:34.674Z</time></trkpt><trkpt lat="40.8562367" lon="14.1594533"><ele>175.0</ele><time>2026-04-13T17:24:36.673Z</time></trkpt><trkpt lat="40.856285" lon="14.1595383"><ele>175.0</ele><time>2026-04-13T17:24:38.674Z</time></trkpt><trkpt lat="40.8563267" lon="14.1596383"><ele>175.0</ele><time>2026-04-13T17:24:40.673Z</time></trkpt><trkpt lat="40.8563717" lon="14.1597517"><ele>175.0</ele><time>2026-04-13T17:24:42.673Z</time></trkpt><trkpt lat="40.85641" lon="14.1598733"><ele>175.0</ele><time>2026-04-13T17:24:44.674Z</time></trkpt><trkpt lat="40.856455" lon="14.16002"><ele>175.0</ele><time>2026-04-13T17:24:46.673Z</time></trkpt><trkpt lat="40.8565117" lon="14.1601717"><ele>174.5</ele><time>2026-04-13T17:24:48.673Z</time></trkpt><trkpt lat="40.8565667" lon="14.160295"><ele>174.0</ele><time>2026-04-13T17:24:50.674Z</time></trkpt><trkpt lat="40.8566283" lon="14.1604333"><ele>173.5</ele><time>2026-04-13T17:24:52.673Z</time></trkpt><trkpt lat="40.8566633" lon="14.16051"><ele>173.0</ele><time>2026-04-13T17:24:53.674Z</time></trkpt><trkpt lat="40.8567017" lon="14.1605917"><ele>172.5</ele><time>2026-04-13T17:24:54.673Z</time></trkpt><trkpt lat="40.8567433" lon="14.160665"><ele>172.0</ele><time>2026-04-13T17:24:55.674Z</time></trkpt><trkpt lat="40.8567833" lon="14.1607317"><ele>171.33333333333334</ele><time>2026-04-13T17:24:56.673Z</time></trkpt><trkpt lat="40.8568267" lon="14.160805"><ele>170.66666666666669</ele><time>2026-04-13T17:24:57.673Z</time></trkpt><trkpt lat="40.8568717" lon="14.1608833"><ele>170.0</ele><time>2026-04-13T17:24:58.673Z</time></trkpt><trkpt lat="40.85692" lon="14.160965"><ele>169.33333333333334</ele><time>2026-04-13T17:24:59.674Z</time></trkpt><trkpt lat="40.8569683" lon="14.16104"><ele>168.66666666666666</ele><time>2026-04-13T17:25:00.673Z</time></trkpt><trkpt lat="40.8570183" lon="14.1611183"><ele>168.0</ele><time>2026-04-13T17:25:01.674Z</time></trkpt><trkpt lat="40.8570717" lon="14.1611967"><ele>168.0</ele><time>2026-04-13T17:25:02.674Z</time></trkpt><trkpt lat="40.8571267" lon="14.1612783"><ele>168.0</ele><time>2026-04-13T17:25:03.673Z</time></trkpt><trkpt lat="40.8571817" lon="14.1613533"><ele>168.0</ele><time>2026-04-13T17:25:04.675Z</time></trkpt><trkpt lat="40.85724" lon="14.1614233"><ele>168.0</ele><time>2026-04-13T17:25:05.675Z</time></trkpt><trkpt lat="40.8572983" lon="14.1614867"><ele>168.0</ele><time>2026-04-13T17:25:06.674Z</time></trkpt><trkpt lat="40.8573533" lon="14.161555"><ele>168.0</ele><time>2026-04-13T17:25:07.674Z</time></trkpt><trkpt lat="40.8574033" lon="14.1616183"><ele>167.66666666666666</ele><time>2026-04-13T17:25:08.673Z</time></trkpt><trkpt lat="40.857455" lon="14.16169"><ele>167.33333333333334</ele><time>2026-04-13T17:25:09.673Z</time></trkpt><trkpt lat="40.8575083" lon="14.16176"><ele>167.0</ele><time>2026-04-13T17:25:10.673Z</time></trkpt><trkpt lat="40.8575667" lon="14.1618317"><ele>166.66666666666669</ele><time>2026-04-13T17:25:11.675Z</time></trkpt><trkpt lat="40.8576183" lon="14.1619067"><ele>166.33333333333334</ele><time>2026-04-13T17:25:12.673Z</time></trkpt><trkpt lat="40.85767" lon="14.1619783"><ele>166.0</ele><time>2026-04-13T17:25:13.673Z</time></trkpt><trkpt lat="40.857715" lon="14.1620583"><ele>165.83333333333334</ele><time>2026-04-13T17:25:14.674Z</time></trkpt><trkpt lat="40.8577617" lon="14.1621433"><ele>165.66666666666669</ele><time>2026-04-13T17:25:15.673Z</time></trkpt><trkpt lat="40.8578067" lon="14.1622333"><ele>165.5</ele><time>2026-04-13T17:25:16.673Z</time></trkpt><trkpt lat="40.8578517" lon="14.1623167"><ele>165.33333333333334</ele><time>2026-04-13T17:25:17.673Z</time></trkpt><trkpt lat="40.857895" lon="14.16241"><ele>165.16666666666666</ele><time>2026-04-13T17:25:18.675Z</time></trkpt><trkpt lat="40.8579333" lon="14.1624967"><ele>165.0</ele><time>2026-04-13T17:25:19.674Z</time></trkpt><trkpt lat="40.857965" lon="14.1625817"><ele>164.85714285714286</ele><time>2026-04-13T17:25:20.674Z</time></trkpt><trkpt lat="40.8579967" lon="14.1626683"><ele>164.71428571428572</ele><time>2026-04-13T17:25:21.673Z</time></trkpt><trkpt lat="40.85802" lon="14.1627517"><ele>164.57142857142856</ele><time>2026-04-13T17:25:22.674Z</time></trkpt><trkpt lat="40.8580383" lon="14.1628333"><ele>164.42857142857144</ele><time>2026-04-13T17:25:23.674Z</time></trkpt><trkpt lat="40.8580567" lon="14.1629167"><ele>164.28571428571428</ele><time>2026-04-13T17:25:24.674Z</time></trkpt><trkpt lat="40.858075" lon="14.1629967"><ele>164.14285714285714</ele><time>2026-04-13T17:25:25.674Z</time></trkpt><trkpt lat="40.8581033" lon="14.1631433"><ele>164.0</ele><time>2026-04-13T17:25:27.673Z</time></trkpt><trkpt lat="40.8581367" lon="14.1632933"><ele>163.79999999999998</ele><time>2026-04-13T17:25:29.674Z</time></trkpt><trkpt lat="40.8581733" lon="14.1634367"><ele>163.6</ele><time>2026-04-13T17:25:31.675Z</time></trkpt><trkpt lat="40.8582067" lon="14.16357"><ele>163.4</ele><time>2026-04-13T17:25:33.674Z</time></trkpt><trkpt lat="40.8582383" lon="14.1637067"><ele>163.2</ele><time>2026-04-13T17:25:35.675Z</time></trkpt><trkpt lat="40.85829" lon="14.1638383"><ele>163.0</ele><time>2026-04-13T17:25:37.673Z</time></trkpt><trkpt lat="40.8583417" lon="14.16396"><ele>162.8</ele><time>2026-04-13T17:25:39.674Z</time></trkpt><trkpt lat="40.8583983" lon="14.1640867"><ele>162.60000000000002</ele><time>2026-04-13T17:25:41.673Z</time></trkpt><trkpt lat="40.85845" lon="14.16421"><ele>162.39999999999998</ele><time>2026-04-13T17:25:43.674Z</time></trkpt><trkpt lat="40.8585117" lon="14.16433"><ele>162.2</ele><time>2026-04-13T17:25:45.673Z</time></trkpt><trkpt lat="40.8585867" lon="14.1644417"><ele>162.0</ele><time>2026-04-13T17:25:47.672Z</time></trkpt><trkpt lat="40.8586683" lon="14.1645567"><ele>162.0</ele><time>2026-04-13T17:25:49.673Z</time></trkpt><trkpt lat="40.8587433" lon="14.16469"><ele>162.0</ele><time>2026-04-13T17:25:51.674Z</time></trkpt><trkpt lat="40.85878" lon="14.1647633"><ele>162.0</ele><time>2026-04-13T17:25:52.673Z</time></trkpt><trkpt lat="40.85882" lon="14.164835"><ele>162.0</ele><time>2026-04-13T17:25:53.673Z</time></trkpt><trkpt lat="40.8588583" lon="14.1649017"><ele>162.0</ele><time>2026-04-13T17:25:54.673Z</time></trkpt><trkpt lat="40.858895" lon="14.1649817"><ele>162.0</ele><time>2026-04-13T17:25:55.674Z</time></trkpt><trkpt lat="40.85893" lon="14.16506"><ele>161.6</ele><time>2026-04-13T17:25:56.674Z</time></trkpt><trkpt lat="40.8589667" lon="14.1651383"><ele>161.2</ele><time>2026-04-13T17:25:57.674Z</time></trkpt><trkpt lat="40.8590017" lon="14.1652217"><ele>160.8</ele><time>2026-04-13T17:25:58.673Z</time></trkpt><trkpt lat="40.859075" lon="14.165355"><ele>160.4</ele><time>2026-04-13T17:26:00.675Z</time></trkpt><trkpt lat="40.8591417" lon="14.16548"><ele>160.0</ele><time>2026-04-13T17:26:02.674Z</time></trkpt><trkpt lat="40.8591983" lon="14.1656033"><ele>160.0</ele><time>2026-04-13T17:26:04.675Z</time></trkpt><trkpt lat="40.859255" lon="14.1657317"><ele>160.0</ele><time>2026-04-13T17:26:06.674Z</time></trkpt><trkpt lat="40.8593217" lon="14.1658433"><ele>160.0</ele><time>2026-04-13T17:26:08.674Z</time></trkpt><trkpt lat="40.8593933" lon="14.1659567"><ele>160.0</ele><time>2026-04-13T17:26:10.673Z</time></trkpt><trkpt lat="40.8594633" lon="14.166065"><ele>160.0</ele><time>2026-04-13T17:26:12.673Z</time></trkpt><trkpt lat="40.8595217" lon="14.1661833"><ele>160.0</ele><time>2026-04-13T17:26:14.673Z</time></trkpt><trkpt lat="40.8595817" lon="14.166295"><ele>160.0</ele><time>2026-04-13T17:26:16.673Z</time></trkpt><trkpt lat="40.85964" lon="14.1664033"><ele>160.0</ele><time>2026-04-13T17:26:18.673Z</time></trkpt><trkpt lat="40.859695" lon="14.1665133"><ele>160.0</ele><time>2026-04-13T17:26:20.674Z</time></trkpt><trkpt lat="40.859745" lon="14.1666233"><ele>160.0</ele><time>2026-04-13T17:26:22.673Z</time></trkpt><trkpt lat="40.8598033" lon="14.1667417"><ele>160.0</ele><time>2026-04-13T17:26:24.674Z</time></trkpt><trkpt lat="40.8598733" lon="14.16684"><ele>160.0</ele><time>2026-04-13T17:26:26.673Z</time></trkpt><trkpt lat="40.8599517" lon="14.1669367"><ele>160.0</ele><time>2026-04-13T17:26:28.674Z</time></trkpt><trkpt lat="40.86002" lon="14.167015"><ele>160.0</ele><time>2026-04-13T17:26:30.673Z</time></trkpt><trkpt lat="40.8600817" lon="14.1670967"><ele>160.0</ele><time>2026-04-13T17:26:32.673Z</time></trkpt><trkpt lat="40.860165" lon="14.1671517"><ele>160.2</ele><time>2026-04-13T17:26:34.674Z</time></trkpt><trkpt lat="40.860265" lon="14.167205"><ele>160.4</ele><time>2026-04-13T17:26:36.674Z</time></trkpt><trkpt lat="40.86037" lon="14.1672383"><ele>160.60000000000002</ele><time>2026-04-13T17:26:38.673Z</time></trkpt><trkpt lat="40.8604733" lon="14.16726"><ele>160.8</ele><time>2026-04-13T17:26:40.673Z</time></trkpt><trkpt lat="40.860595" lon="14.167275"><ele>161.0</ele><time>2026-04-13T17:26:42.674Z</time></trkpt><trkpt lat="40.8606583" lon="14.16728"><ele>161.0</ele><time>2026-04-13T17:26:43.674Z</time></trkpt><trkpt lat="40.860725" lon="14.1672783"><ele>161.0</ele><time>2026-04-13T17:26:44.673Z</time></trkpt><trkpt lat="40.8607933" lon="14.1672717"><ele>161.0</ele><time>2026-04-13T17:26:45.673Z</time></trkpt><trkpt lat="40.8609133" lon="14.167245"><ele>161.0</ele><time>2026-04-13T17:26:47.675Z</time></trkpt><trkpt lat="40.86103" lon="14.1672117"><ele>161.0</ele><time>2026-04-13T17:26:49.675Z</time></trkpt><trkpt lat="40.8611417" lon="14.1671783"><ele>161.20000000000002</ele><time>2026-04-13T17:26:51.673Z</time></trkpt><trkpt lat="40.8612517" lon="14.1671367"><ele>161.4</ele><time>2026-04-13T17:26:53.674Z</time></trkpt><trkpt lat="40.86136" lon="14.1671083"><ele>161.6</ele><time>2026-04-13T17:26:55.674Z</time></trkpt><trkpt lat="40.861465" lon="14.1670633"><ele>161.8</ele><time>2026-04-13T17:26:57.673Z</time></trkpt><trkpt lat="40.861565" lon="14.1670217"><ele>162.0</ele><time>2026-04-13T17:26:59.674Z</time></trkpt><trkpt lat="40.8616633" lon="14.1670017"><ele>162.0</ele><time>2026-04-13T17:27:01.674Z</time></trkpt><trkpt lat="40.86176" lon="14.16699"><ele>162.0</ele><time>2026-04-13T17:27:03.674Z</time></trkpt><trkpt lat="40.8618533" lon="14.1669867"><ele>162.0</ele><time>2026-04-13T17:27:05.673Z</time></trkpt><trkpt lat="40.8619533" lon="14.167005"><ele>162.0</ele><time>2026-04-13T17:27:07.674Z</time></trkpt><trkpt lat="40.862065" lon="14.1670383"><ele>162.0</ele><time>2026-04-13T17:27:09.673Z</time></trkpt><trkpt lat="40.86213" lon="14.1670717"><ele>162.5</ele><time>2026-04-13T17:27:10.675Z</time></trkpt><trkpt lat="40.8621983" lon="14.1671033"><ele>163.0</ele><time>2026-04-13T17:27:11.673Z</time></trkpt><trkpt lat="40.8622733" lon="14.1671283"><ele>163.5</ele><time>2026-04-13T17:27:12.673Z</time></trkpt><trkpt lat="40.8623483" lon="14.167165"><ele>164.0</ele><time>2026-04-13T17:27:13.676Z</time></trkpt><trkpt lat="40.8624167" lon="14.1672217"><ele>164.5</ele><time>2026-04-13T17:27:14.674Z</time></trkpt><trkpt lat="40.8624833" lon="14.16728"><ele>165.0</ele><time>2026-04-13T17:27:15.674Z</time></trkpt><trkpt lat="40.8625467" lon="14.1673367"><ele>164.83333333333334</ele><time>2026-04-13T17:27:16.673Z</time></trkpt><trkpt lat="40.8626017" lon="14.1673983"><ele>164.66666666666666</ele><time>2026-04-13T17:27:17.674Z</time></trkpt><trkpt lat="40.8626483" lon="14.1674633"><ele>164.5</ele><time>2026-04-13T17:27:18.674Z</time></trkpt><trkpt lat="40.86272" lon="14.1676033"><ele>164.33333333333331</ele><time>2026-04-13T17:27:20.674Z</time></trkpt><trkpt lat="40.86276" lon="14.1676833"><ele>164.16666666666666</ele><time>2026-04-13T17:27:21.673Z</time></trkpt><trkpt lat="40.8627967" lon="14.1677583"><ele>164.0</ele><time>2026-04-13T17:27:22.673Z</time></trkpt><trkpt lat="40.862835" lon="14.1678333"><ele>164.66666666666666</ele><time>2026-04-13T17:27:23.674Z</time></trkpt><trkpt lat="40.8629017" lon="14.1679683"><ele>165.33333333333331</ele><time>2026-04-13T17:27:25.676Z</time></trkpt><trkpt lat="40.8629367" lon="14.1680433"><ele>166.0</ele><time>2026-04-13T17:27:26.674Z</time></trkpt><trkpt lat="40.86297" lon="14.1681267"><ele>166.66666666666666</ele><time>2026-04-13T17:27:27.674Z</time></trkpt><trkpt lat="40.8629983" lon="14.168205"><ele>167.33333333333334</ele><time>2026-04-13T17:27:28.674Z</time></trkpt><trkpt lat="40.8630233" lon="14.1682833"><ele>168.0</ele><time>2026-04-13T17:27:29.675Z</time></trkpt><trkpt lat="40.8630667" lon="14.1684283"><ele>168.0</ele><time>2026-04-13T17:27:31.675Z</time></trkpt><trkpt lat="40.8631067" lon="14.1685667"><ele>168.0</ele><time>2026-04-13T17:27:33.674Z</time></trkpt><trkpt lat="40.863145" lon="14.1687117"><ele>168.0</ele><time>2026-04-13T17:27:35.674Z</time></trkpt><trkpt lat="40.863185" lon="14.16885"><ele>168.0</ele><time>2026-04-13T17:27:37.674Z</time></trkpt><trkpt lat="40.8632383" lon="14.1689733"><ele>168.0</ele><time>2026-04-13T17:27:39.673Z</time></trkpt><trkpt lat="40.8632883" lon="14.169095"><ele>167.60000000000002</ele><time>2026-04-13T17:27:41.674Z</time></trkpt><trkpt lat="40.86334" lon="14.1692133"><ele>167.20000000000002</ele><time>2026-04-13T17:27:43.675Z</time></trkpt><trkpt lat="40.863395" lon="14.1693483"><ele>166.8</ele><time>2026-04-13T17:27:45.674Z</time></trkpt><trkpt lat="40.8634567" lon="14.169475"><ele>166.4</ele><time>2026-04-13T17:27:47.673Z</time></trkpt><trkpt lat="40.8634933" lon="14.1695483"><ele>166.0</ele><time>2026-04-13T17:27:48.673Z</time></trkpt><trkpt lat="40.863525" lon="14.1696217"><ele>166.60000000000002</ele><time>2026-04-13T17:27:49.673Z</time></trkpt><trkpt lat="40.8635783" lon="14.1697417"><ele>167.2</ele><time>2026-04-13T17:27:51.673Z</time></trkpt><trkpt lat="40.863635" lon="14.1698617"><ele>167.8</ele><time>2026-04-13T17:27:53.674Z</time></trkpt><trkpt lat="40.86369" lon="14.1699783"><ele>168.39999999999998</ele><time>2026-04-13T17:27:55.674Z</time></trkpt><trkpt lat="40.86375" lon="14.1700883"><ele>169.0</ele><time>2026-04-13T17:27:57.674Z</time></trkpt><trkpt lat="40.8638067" lon="14.1701967"><ele>169.0</ele><time>2026-04-13T17:27:59.674Z</time></trkpt><trkpt lat="40.8638683" lon="14.1703033"><ele>169.0</ele><time>2026-04-13T17:28:01.674Z</time></trkpt><trkpt lat="40.8639233" lon="14.1704017"><ele>169.0</ele><time>2026-04-13T17:28:03.673Z</time></trkpt><trkpt lat="40.863975" lon="14.1705117"><ele>169.0</ele><time>2026-04-13T17:28:05.673Z</time></trkpt><trkpt lat="40.8640283" lon="14.1706133"><ele>169.0</ele><time>2026-04-13T17:28:07.675Z</time></trkpt><trkpt lat="40.8640683" lon="14.1707033"><ele>169.0</ele><time>2026-04-13T17:28:09.673Z</time></trkpt><trkpt lat="40.8641133" lon="14.1707917"><ele>169.0</ele><time>2026-04-13T17:28:11.673Z</time></trkpt><trkpt lat="40.8641517" lon="14.1708767"><ele>169.0</ele><time>2026-04-13T17:28:13.674Z</time></trkpt><trkpt lat="40.8641883" lon="14.17096"><ele>169.0</ele><time>2026-04-13T17:28:15.673Z</time></trkpt><trkpt lat="40.864235" lon="14.171045"><ele>169.0</ele><time>2026-04-13T17:28:17.673Z</time></trkpt><trkpt lat="40.864275" lon="14.171135"><ele>169.0</ele><time>2026-04-13T17:28:19.673Z</time></trkpt><trkpt lat="40.864315" lon="14.17124"><ele>169.0</ele><time>2026-04-13T17:28:21.673Z</time></trkpt><trkpt lat="40.86436" lon="14.1713317"><ele>169.0</ele><time>2026-04-13T17:28:23.674Z</time></trkpt><trkpt lat="40.864405" lon="14.1714083"><ele>169.0</ele><time>2026-04-13T17:28:25.674Z</time></trkpt><trkpt lat="40.8644483" lon="14.1714983"><ele>169.0</ele><time>2026-04-13T17:28:27.673Z</time></trkpt><trkpt lat="40.8644783" lon="14.171595"><ele>169.0</ele><time>2026-04-13T17:28:29.675Z</time></trkpt><trkpt lat="40.8644933" lon="14.171685"><ele>169.0</ele><time>2026-04-13T17:28:31.673Z</time></trkpt><trkpt lat="40.86449" lon="14.17181"><ele>169.39999999999998</ele><time>2026-04-13T17:28:33.673Z</time></trkpt><trkpt lat="40.8644933" lon="14.171945"><ele>169.8</ele><time>2026-04-13T17:28:35.675Z</time></trkpt><trkpt lat="40.8644933" lon="14.1720533"><ele>170.2</ele><time>2026-04-13T17:28:37.674Z</time></trkpt><trkpt lat="40.86448" lon="14.172155"><ele>170.60000000000002</ele><time>2026-04-13T17:28:39.674Z</time></trkpt><trkpt lat="40.8644617" lon="14.1722867"><ele>171.0</ele><time>2026-04-13T17:28:41.674Z</time></trkpt><trkpt lat="40.8644317" lon="14.1724333"><ele>171.0</ele><time>2026-04-13T17:28:43.674Z</time></trkpt><trkpt lat="40.864395" lon="14.17257"><ele>171.0</ele><time>2026-04-13T17:28:45.675Z</time></trkpt><trkpt lat="40.8643633" lon="14.172715"><ele>171.0</ele><time>2026-04-13T17:28:47.675Z</time></trkpt><trkpt lat="40.8643417" lon="14.1728683"><ele>171.0</ele><time>2026-04-13T17:28:49.674Z</time></trkpt><trkpt lat="40.864345" lon="14.1730217"><ele>171.0</ele><time>2026-04-13T17:28:51.673Z</time></trkpt><trkpt lat="40.8643583" lon="14.1731717"><ele>171.0</ele><time>2026-04-13T17:28:53.674Z</time></trkpt><trkpt lat="40.86437" lon="14.17332"><ele>171.0</ele><time>2026-04-13T17:28:55.674Z</time></trkpt><trkpt lat="40.8643983" lon="14.17346"><ele>171.0</ele><time>2026-04-13T17:28:57.675Z</time></trkpt><trkpt lat="40.8644517" lon="14.1735583"><ele>171.0</ele><time>2026-04-13T17:28:59.674Z</time></trkpt><trkpt lat="40.8645117" lon="14.1736483"><ele>170.5</ele><time>2026-04-13T17:29:01.674Z</time></trkpt><trkpt lat="40.8645733" lon="14.1737217"><ele>170.0</ele><time>2026-04-13T17:29:03.673Z</time></trkpt><trkpt lat="40.864635" lon="14.1737417"><ele>169.5</ele><time>2026-04-13T17:29:06.675Z</time></trkpt><trkpt lat="40.8646783" lon="14.1736717"><ele>169.0</ele><time>2026-04-13T17:29:09.673Z</time></trkpt><trkpt lat="40.8647217" lon="14.17357"><ele>168.5</ele><time>2026-04-13T17:29:12.674Z</time></trkpt><trkpt lat="40.8647517" lon="14.1734817"><ele>168.0</ele><time>2026-04-13T17:29:14.674Z</time></trkpt><trkpt lat="40.8647817" lon="14.1733867"><ele>168.0</ele><time>2026-04-13T17:29:16.674Z</time></trkpt><trkpt lat="40.8648167" lon="14.1732933"><ele>168.0</ele><time>2026-04-13T17:29:18.674Z</time></trkpt><trkpt lat="40.864845" lon="14.1731783"><ele>168.0</ele><time>2026-04-13T17:29:20.674Z</time></trkpt><trkpt lat="40.86487" lon="14.173065"><ele>168.0</ele><time>2026-04-13T17:29:22.675Z</time></trkpt><trkpt lat="40.864875" lon="14.1729433"><ele>168.0</ele><time>2026-04-13T17:29:24.673Z</time></trkpt><trkpt lat="40.8648733" lon="14.1728033"><ele>168.60000000000002</ele><time>2026-04-13T17:29:26.674Z</time></trkpt><trkpt lat="40.8648783" lon="14.1726717"><ele>169.20000000000002</ele><time>2026-04-13T17:29:28.674Z</time></trkpt><trkpt lat="40.864875" lon="14.1725383"><ele>169.8</ele><time>2026-04-13T17:29:30.674Z</time></trkpt><trkpt lat="40.8648883" lon="14.17241"><ele>170.4</ele><time>2026-04-13T17:29:32.673Z</time></trkpt><trkpt lat="40.8649067" lon="14.1722633"><ele>171.0</ele><time>2026-04-13T17:29:34.673Z</time></trkpt><trkpt lat="40.8649383" lon="14.1721417"><ele>171.0</ele><time>2026-04-13T17:29:36.674Z</time></trkpt><trkpt lat="40.86497" lon="14.172035"><ele>171.0</ele><time>2026-04-13T17:29:38.674Z</time></trkpt><trkpt lat="40.8650033" lon="14.171935"><ele>171.0</ele><time>2026-04-13T17:29:40.674Z</time></trkpt><trkpt lat="40.86504" lon="14.1718317"><ele>171.0</ele><time>2026-04-13T17:29:42.674Z</time></trkpt><trkpt lat="40.865075" lon="14.1717367"><ele>171.0</ele><time>2026-04-13T17:29:44.676Z</time></trkpt><trkpt lat="40.865115" lon="14.1716233"><ele>171.0</ele><time>2026-04-13T17:29:46.676Z</time></trkpt><trkpt lat="40.8651417" lon="14.1715017"><ele>172.20000000000002</ele><time>2026-04-13T17:29:48.673Z</time></trkpt><trkpt lat="40.86517" lon="14.1713883"><ele>173.4</ele><time>2026-04-13T17:29:50.675Z</time></trkpt><trkpt lat="40.8651933" lon="14.1712667"><ele>174.6</ele><time>2026-04-13T17:29:52.675Z</time></trkpt><trkpt lat="40.8652083" lon="14.1711417"><ele>175.8</ele><time>2026-04-13T17:29:54.675Z</time></trkpt><trkpt lat="40.8652183" lon="14.1710133"><ele>177.0</ele><time>2026-04-13T17:29:56.675Z</time></trkpt><trkpt lat="40.865225" lon="14.1708767"><ele>177.0</ele><time>2026-04-13T17:29:58.675Z</time></trkpt><trkpt lat="40.8652467" lon="14.1707517"><ele>177.0</ele><time>2026-04-13T17:30:00.674Z</time></trkpt><trkpt lat="40.8652717" lon="14.170625"><ele>177.0</ele><time>2026-04-13T17:30:02.674Z</time></trkpt><trkpt lat="40.8652917" lon="14.1705117"><ele>177.0</ele><time>2026-04-13T17:30:04.675Z</time></trkpt><trkpt lat="40.8653117" lon="14.1703917"><ele>177.0</ele><time>2026-04-13T17:30:06.675Z</time></trkpt><trkpt lat="40.86533" lon="14.170285"><ele>177.16666666666666</ele><time>2026-04-13T17:30:08.675Z</time></trkpt><trkpt lat="40.8653533" lon="14.17018"><ele>177.33333333333334</ele><time>2026-04-13T17:30:10.676Z</time></trkpt><trkpt lat="40.8653817" lon="14.1700617"><ele>177.5</ele><time>2026-04-13T17:30:12.675Z</time></trkpt><trkpt lat="40.8654" lon="14.169955"><ele>177.66666666666669</ele><time>2026-04-13T17:30:14.675Z</time></trkpt><trkpt lat="40.8654167" lon="14.1698533"><ele>177.83333333333334</ele><time>2026-04-13T17:30:17.675Z</time></trkpt><trkpt lat="40.865425" lon="14.1697583"><ele>178.0</ele><time>2026-04-13T17:30:20.682Z</time></trkpt><trkpt lat="40.865445" lon="14.169645"><ele>178.16666666666669</ele><time>2026-04-13T17:30:23.675Z</time></trkpt><trkpt lat="40.865475" lon="14.1695667"><ele>178.33333333333334</ele><time>2026-04-13T17:30:25.677Z</time></trkpt><trkpt lat="40.8655067" lon="14.1694917"><ele>178.5</ele><time>2026-04-13T17:30:27.675Z</time></trkpt><trkpt lat="40.8655417" lon="14.1694"><ele>178.66666666666666</ele><time>2026-04-13T17:30:29.677Z</time></trkpt><trkpt lat="40.865565" lon="14.1693067"><ele>178.83333333333331</ele><time>2026-04-13T17:30:31.678Z</time></trkpt><trkpt lat="40.8656" lon="14.1692083"><ele>179.0</ele><time>2026-04-13T17:30:33.677Z</time></trkpt><trkpt lat="40.8656417" lon="14.1691083"><ele>178.66666666666666</ele><time>2026-04-13T17:30:35.676Z</time></trkpt><trkpt lat="40.8656933" lon="14.1690217"><ele>178.33333333333331</ele><time>2026-04-13T17:30:37.678Z</time></trkpt><trkpt lat="40.8657567" lon="14.1689483"><ele>178.0</ele><time>2026-04-13T17:30:39.676Z</time></trkpt><trkpt lat="40.86583" lon="14.1688683"><ele>177.66666666666666</ele><time>2026-04-13T17:30:41.677Z</time></trkpt><trkpt lat="40.865895" lon="14.168775"><ele>177.33333333333334</ele><time>2026-04-13T17:30:43.677Z</time></trkpt><trkpt lat="40.865955" lon="14.1686917"><ele>177.0</ele><time>2026-04-13T17:30:45.676Z</time></trkpt><trkpt lat="40.8660183" lon="14.16861"><ele>179.16666666666666</ele><time>2026-04-13T17:30:47.676Z</time></trkpt><trkpt lat="40.866075" lon="14.1685267"><ele>181.33333333333334</ele><time>2026-04-13T17:30:49.677Z</time></trkpt><trkpt lat="40.86613" lon="14.1684483"><ele>183.5</ele><time>2026-04-13T17:30:51.676Z</time></trkpt><trkpt lat="40.8661867" lon="14.1683733"><ele>185.66666666666669</ele><time>2026-04-13T17:30:53.675Z</time></trkpt><trkpt lat="40.866245" lon="14.1683167"><ele>187.83333333333334</ele><time>2026-04-13T17:30:55.675Z</time></trkpt><trkpt lat="40.8663017" lon="14.1682667"><ele>190.0</ele><time>2026-04-13T17:30:57.675Z</time></trkpt><trkpt lat="40.8663817" lon="14.1682383"><ele>190.0</ele><time>2026-04-13T17:31:00.676Z</time></trkpt><trkpt lat="40.8664367" lon="14.1683167"><ele>190.0</ele><time>2026-04-13T17:31:03.675Z</time></trkpt><trkpt lat="40.86645" lon="14.1684133"><ele>190.0</ele><time>2026-04-13T17:31:06.675Z</time></trkpt><trkpt lat="40.866425" lon="14.16852"><ele>190.0</ele><time>2026-04-13T17:31:09.676Z</time></trkpt><trkpt lat="40.8663783" lon="14.16861"><ele>190.0</ele><time>2026-04-13T17:31:12.679Z</time></trkpt><trkpt lat="40.8663217" lon="14.1686767"><ele>190.0</ele><time>2026-04-13T17:31:15.675Z</time></trkpt><trkpt lat="40.8662633" lon="14.168745"><ele>190.0</ele><time>2026-04-13T17:31:18.675Z</time></trkpt><trkpt lat="40.86622" lon="14.1688383"><ele>190.0</ele><time>2026-04-13T17:31:21.675Z</time></trkpt><trkpt lat="40.8661667" lon="14.168915"><ele>190.0</ele><time>2026-04-13T17:31:24.677Z</time></trkpt><trkpt lat="40.8661133" lon="14.1690083"><ele>190.0</ele><time>2026-04-13T17:31:27.674Z</time></trkpt><trkpt lat="40.8660567" lon="14.1691"><ele>190.0</ele><time>2026-04-13T17:31:30.676Z</time></trkpt><trkpt lat="40.8660067" lon="14.1691833"><ele>190.0</ele><time>2026-04-13T17:31:33.675Z</time></trkpt><trkpt lat="40.865965" lon="14.1692683"><ele>191.5</ele><time>2026-04-13T17:31:36.677Z</time></trkpt><trkpt lat="40.8659767" lon="14.1693617"><ele>193.0</ele><time>2026-04-13T17:31:39.677Z</time></trkpt><trkpt lat="40.866025" lon="14.169435"><ele>194.5</ele><time>2026-04-13T17:31:42.677Z</time></trkpt><trkpt lat="40.8661017" lon="14.1694583"><ele>196.0</ele><time>2026-04-13T17:31:45.678Z</time></trkpt><trkpt lat="40.86618" lon="14.1694517"><ele>197.49999999999997</ele><time>2026-04-13T17:31:48.679Z</time></trkpt><trkpt lat="40.8662567" lon="14.1694533"><ele>199.0</ele><time>2026-04-13T17:31:51.677Z</time></trkpt><trkpt lat="40.86633" lon="14.169465"><ele>198.99999999999997</ele><time>2026-04-13T17:31:54.677Z</time></trkpt><trkpt lat="40.8663967" lon="14.169475"><ele>199.0</ele><time>2026-04-13T17:31:57.674Z</time></trkpt><trkpt lat="40.8664617" lon="14.16947"><ele>199.0</ele><time>2026-04-13T17:32:00.676Z</time></trkpt><trkpt lat="40.8665317" lon="14.1694717"><ele>199.0</ele><time>2026-04-13T17:32:04.678Z</time></trkpt><trkpt lat="40.8665967" lon="14.1694567"><ele>199.0</ele><time>2026-04-13T17:32:07.675Z</time></trkpt><trkpt lat="40.8666633" lon="14.169435"><ele>198.99999999999997</ele><time>2026-04-13T17:32:10.678Z</time></trkpt><trkpt lat="40.8667383" lon="14.1694217"><ele>199.0</ele><time>2026-04-13T17:32:14.675Z</time></trkpt><trkpt lat="40.8668083" lon="14.1694017"><ele>201.28571428571428</ele><time>2026-04-13T17:32:18.677Z</time></trkpt><trkpt lat="40.86687" lon="14.1693833"><ele>203.57142857142856</ele><time>2026-04-13T17:32:22.674Z</time></trkpt><trkpt lat="40.8669383" lon="14.1693983"><ele>205.85714285714283</ele><time>2026-04-13T17:32:26.675Z</time></trkpt><trkpt lat="40.867005" lon="14.1694033"><ele>208.14285714285714</ele><time>2026-04-13T17:32:30.675Z</time></trkpt><trkpt lat="40.8670817" lon="14.1694367"><ele>210.42857142857144</ele><time>2026-04-13T17:32:34.674Z</time></trkpt><trkpt lat="40.86715" lon="14.1694733"><ele>212.7142857142857</ele><time>2026-04-13T17:32:37.676Z</time></trkpt><trkpt lat="40.8672" lon="14.16955"><ele>215.0</ele><time>2026-04-13T17:32:40.675Z</time></trkpt><trkpt lat="40.8672033" lon="14.1696517"><ele>215.00000000000003</ele><time>2026-04-13T17:32:43.676Z</time></trkpt><trkpt lat="40.86717" lon="14.1697417"><ele>215.0</ele><time>2026-04-13T17:32:47.674Z</time></trkpt><trkpt lat="40.8671133" lon="14.1698067"><ele>215.0</ele><time>2026-04-13T17:32:51.677Z</time></trkpt><trkpt lat="40.8670517" lon="14.1698617"><ele>215.0</ele><time>2026-04-13T17:32:56.676Z</time></trkpt><trkpt lat="40.8669783" lon="14.1698983"><ele>215.00000000000003</ele><time>2026-04-13T17:33:00.676Z</time></trkpt><trkpt lat="40.866905" lon="14.1699367"><ele>215.0</ele><time>2026-04-13T17:33:03.677Z</time></trkpt><trkpt lat="40.86684" lon="14.16998"><ele>215.33333333333334</ele><time>2026-04-13T17:33:06.675Z</time></trkpt><trkpt lat="40.8667883" lon="14.170065"><ele>215.66666666666669</ele><time>2026-04-13T17:33:09.675Z</time></trkpt><trkpt lat="40.8667633" lon="14.1701717"><ele>216.0</ele><time>2026-04-13T17:33:12.678Z</time></trkpt><trkpt lat="40.8667667" lon="14.170275"><ele>216.33333333333331</ele><time>2026-04-13T17:33:15.676Z</time></trkpt><trkpt lat="40.8667667" lon="14.1703767"><ele>216.66666666666666</ele><time>2026-04-13T17:33:18.677Z</time></trkpt><trkpt lat="40.8667767" lon="14.1704717"><ele>217.0</ele><time>2026-04-13T17:33:21.677Z</time></trkpt><trkpt lat="40.866805" lon="14.1705583"><ele>217.0</ele><time>2026-04-13T17:33:24.675Z</time></trkpt><trkpt lat="40.8668417" lon="14.1706317"><ele>217.0</ele><time>2026-04-13T17:33:27.675Z</time></trkpt><trkpt lat="40.86689" lon="14.1706967"><ele>217.0</ele><time>2026-04-13T17:33:30.674Z</time></trkpt><trkpt lat="40.8669567" lon="14.1707333"><ele>217.0</ele><time>2026-04-13T17:33:33.675Z</time></trkpt><trkpt lat="40.86703" lon="14.170735"><ele>217.0</ele><time>2026-04-13T17:33:36.676Z</time></trkpt><trkpt lat="40.8671033" lon="14.1707283"><ele>217.0</ele><time>2026-04-13T17:33:39.676Z</time></trkpt><trkpt lat="40.867175" lon="14.1707117"><ele>217.0</ele><time>2026-04-13T17:33:42.676Z</time></trkpt><trkpt lat="40.8672383" lon="14.1706883"><ele>216.99999999999997</ele><time>2026-04-13T17:33:45.677Z</time></trkpt><trkpt lat="40.8673217" lon="14.1706633"><ele>217.0</ele><time>2026-04-13T17:33:49.676Z</time></trkpt><trkpt lat="40.8673933" lon="14.1706367"><ele>217.0</ele><time>2026-04-13T17:33:52.676Z</time></trkpt><trkpt lat="40.8674567" lon="14.17062"><ele>217.0</ele><time>2026-04-13T17:33:55.676Z</time></trkpt><trkpt lat="40.8675417" lon="14.170615"><ele>216.99999999999997</ele><time>2026-04-13T17:33:59.677Z</time></trkpt><trkpt lat="40.8676133" lon="14.1706167"><ele>217.0</ele><time>2026-04-13T17:34:02.677Z</time></trkpt><trkpt lat="40.8676833" lon="14.17061"><ele>216.85714285714286</ele><time>2026-04-13T17:34:05.676Z</time></trkpt><trkpt lat="40.86775" lon="14.170625"><ele>216.71428571428572</ele><time>2026-04-13T17:34:08.676Z</time></trkpt><trkpt lat="40.8678167" lon="14.17065"><ele>216.57142857142856</ele><time>2026-04-13T17:34:11.677Z</time></trkpt><trkpt lat="40.867885" lon="14.1706667"><ele>216.42857142857144</ele><time>2026-04-13T17:34:14.678Z</time></trkpt><trkpt lat="40.8679467" lon="14.170685"><ele>216.28571428571428</ele><time>2026-04-13T17:34:17.678Z</time></trkpt><trkpt lat="40.868015" lon="14.17071"><ele>216.14285714285714</ele><time>2026-04-13T17:34:20.676Z</time></trkpt><trkpt lat="40.86808" lon="14.1707333"><ele>216.0</ele><time>2026-04-13T17:34:23.678Z</time></trkpt><trkpt lat="40.8681517" lon="14.1707617"><ele>216.0</ele><time>2026-04-13T17:34:26.675Z</time></trkpt><trkpt lat="40.8682267" lon="14.170785"><ele>216.0</ele><time>2026-04-13T17:34:29.678Z</time></trkpt><trkpt lat="40.8682933" lon="14.1708133"><ele>216.0</ele><time>2026-04-13T17:34:32.678Z</time></trkpt><trkpt lat="40.86835" lon="14.17085"><ele>216.0</ele><time>2026-04-13T17:34:35.678Z</time></trkpt><trkpt lat="40.8684133" lon="14.1708767"><ele>216.0</ele><time>2026-04-13T17:34:38.677Z</time></trkpt><trkpt lat="40.868475" lon="14.1708983"><ele>216.0</ele><time>2026-04-13T17:34:41.676Z</time></trkpt><trkpt lat="40.8685483" lon="14.1709433"><ele>216.0</ele><time>2026-04-13T17:34:45.678Z</time></trkpt><trkpt lat="40.868605" lon="14.1709817"><ele>217.0</ele><time>2026-04-13T17:34:48.676Z</time></trkpt><trkpt lat="40.8686717" lon="14.17104"><ele>218.0</ele><time>2026-04-13T17:34:52.676Z</time></trkpt><trkpt lat="40.8687417" lon="14.1710833"><ele>219.0</ele><time>2026-04-13T17:34:56.675Z</time></trkpt><trkpt lat="40.8688033" lon="14.1711067"><ele>220.0</ele><time>2026-04-13T17:34:59.676Z</time></trkpt><trkpt lat="40.8688767" lon="14.17108"><ele>221.0</ele><time>2026-04-13T17:35:02.676Z</time></trkpt><trkpt lat="40.8689333" lon="14.17101"><ele>222.0</ele><time>2026-04-13T17:35:05.675Z</time></trkpt><trkpt lat="40.8689717" lon="14.170935"><ele>223.0</ele><time>2026-04-13T17:35:08.676Z</time></trkpt><trkpt lat="40.8690117" lon="14.1708633"><ele>223.0</ele><time>2026-04-13T17:35:11.676Z</time></trkpt><trkpt lat="40.86905" lon="14.17078"><ele>223.0</ele><time>2026-04-13T17:35:14.675Z</time></trkpt><trkpt lat="40.8690917" lon="14.1706983"><ele>223.0</ele><time>2026-04-13T17:35:17.676Z</time></trkpt><trkpt lat="40.8691233" lon="14.170615"><ele>223.0</ele><time>2026-04-13T17:35:20.676Z</time></trkpt><trkpt lat="40.8691683" lon="14.170545"><ele>223.0</ele><time>2026-04-13T17:35:23.676Z</time></trkpt><trkpt lat="40.8692167" lon="14.1704767"><ele>223.0</ele><time>2026-04-13T17:35:26.675Z</time></trkpt><trkpt lat="40.86926" lon="14.1704083"><ele>223.0</ele><time>2026-04-13T17:35:29.676Z</time></trkpt><trkpt lat="40.8693183" lon="14.1703367"><ele>225.42857142857142</ele><time>2026-04-13T17:35:33.676Z</time></trkpt><trkpt lat="40.8693717" lon="14.1702767"><ele>227.85714285714283</ele><time>2026-04-13T17:35:36.676Z</time></trkpt><trkpt lat="40.8694333" lon="14.17022"><ele>230.28571428571428</ele><time>2026-04-13T17:35:39.677Z</time></trkpt><trkpt lat="40.8694883" lon="14.1701517"><ele>232.71428571428572</ele><time>2026-04-13T17:35:42.676Z</time></trkpt><trkpt lat="40.86955" lon="14.1700933"><ele>235.14285714285714</ele><time>2026-04-13T17:35:45.677Z</time></trkpt><trkpt lat="40.8696083" lon="14.170045"><ele>237.57142857142858</ele><time>2026-04-13T17:35:48.675Z</time></trkpt><trkpt lat="40.869675" lon="14.17"><ele>240.0</ele><time>2026-04-13T17:35:51.675Z</time></trkpt><trkpt lat="40.8697333" lon="14.16995"><ele>240.0</ele><time>2026-04-13T17:35:54.675Z</time></trkpt><trkpt lat="40.8698017" lon="14.1698983"><ele>240.0</ele><time>2026-04-13T17:35:58.676Z</time></trkpt><trkpt lat="40.8698533" lon="14.1698467"><ele>240.0</ele><time>2026-04-13T17:36:01.677Z</time></trkpt><trkpt lat="40.8699083" lon="14.1697917"><ele>240.0</ele><time>2026-04-13T17:36:04.677Z</time></trkpt><trkpt lat="40.8699733" lon="14.169745"><ele>240.0</ele><time>2026-04-13T17:36:07.676Z</time></trkpt><trkpt lat="40.87002" lon="14.169685"><ele>240.0</ele><time>2026-04-13T17:36:10.677Z</time></trkpt><trkpt lat="40.8700867" lon="14.1696283"><ele>240.0</ele><time>2026-04-13T17:36:14.676Z</time></trkpt><trkpt lat="40.87015" lon="14.1695983"><ele>243.42857142857144</ele><time>2026-04-13T17:36:17.675Z</time></trkpt><trkpt lat="40.8702183" lon="14.16958"><ele>246.85714285714283</ele><time>2026-04-13T17:36:20.676Z</time></trkpt><trkpt lat="40.8702883" lon="14.1695617"><ele>250.28571428571428</ele><time>2026-04-13T17:36:23.674Z</time></trkpt><trkpt lat="40.8703517" lon="14.1695683"><ele>253.71428571428572</ele><time>2026-04-13T17:36:26.676Z</time></trkpt><trkpt lat="40.8704317" lon="14.1695983"><ele>257.14285714285717</ele><time>2026-04-13T17:36:30.675Z</time></trkpt><trkpt lat="40.8705067" lon="14.1696083"><ele>260.57142857142856</ele><time>2026-04-13T17:36:33.678Z</time></trkpt><trkpt lat="40.870585" lon="14.1696333"><ele>264.0</ele><time>2026-04-13T17:36:36.676Z</time></trkpt><trkpt lat="40.8706483" lon="14.1696667"><ele>264.0</ele><time>2026-04-13T17:36:39.678Z</time></trkpt><trkpt lat="40.870665" lon="14.1697517"><ele>264.0</ele><time>2026-04-13T17:36:42.675Z</time></trkpt><trkpt lat="40.8706017" lon="14.1698067"><ele>264.0</ele><time>2026-04-13T17:36:45.677Z</time></trkpt><trkpt lat="40.8705467" lon="14.1698533"><ele>264.0</ele><time>2026-04-13T17:36:48.677Z</time></trkpt><trkpt lat="40.87049" lon="14.169895"><ele>264.0</ele><time>2026-04-13T17:36:51.676Z</time></trkpt><trkpt lat="40.8704367" lon="14.169945"><ele>264.0</ele><time>2026-04-13T17:36:54.678Z</time></trkpt><trkpt lat="40.8703717" lon="14.1700033"><ele>264.0</ele><time>2026-04-13T17:36:58.674Z</time></trkpt><trkpt lat="40.870315" lon="14.1700533"><ele>263.7142857142857</ele><time>2026-04-13T17:37:01.676Z</time></trkpt><trkpt lat="40.8702567" lon="14.1701233"><ele>263.42857142857144</ele><time>2026-04-13T17:37:05.679Z</time></trkpt><trkpt lat="40.8702117" lon="14.1702133"><ele>263.14285714285717</ele><time>2026-04-13T17:37:09.676Z</time></trkpt><trkpt lat="40.87018" lon="14.1702967"><ele>262.8571428571429</ele><time>2026-04-13T17:37:12.679Z</time></trkpt><trkpt lat="40.870155" lon="14.1703883"><ele>262.5714285714286</ele><time>2026-04-13T17:37:16.674Z</time></trkpt><trkpt lat="40.8701267" lon="14.170465"><ele>262.2857142857143</ele><time>2026-04-13T17:37:19.676Z</time></trkpt><trkpt lat="40.8700967" lon="14.17056"><ele>262.0</ele><time>2026-04-13T17:38:12.678Z</time></trkpt><trkpt lat="40.870065" lon="14.170635"><ele>260.8333333333333</ele><time>2026-04-13T17:38:16.678Z</time></trkpt><trkpt lat="40.8700667" lon="14.170735"><ele>259.66666666666663</ele><time>2026-04-13T17:38:20.678Z</time></trkpt><trkpt lat="40.870115" lon="14.17082"><ele>258.5</ele><time>2026-04-13T17:38:24.678Z</time></trkpt><trkpt lat="40.8701917" lon="14.1708617"><ele>257.3333333333333</ele><time>2026-04-13T17:38:28.678Z</time></trkpt><trkpt lat="40.87027" lon="14.1708567"><ele>256.1666666666667</ele><time>2026-04-13T17:38:32.673Z</time></trkpt><trkpt lat="40.8703417" lon="14.1708533"><ele>255.0</ele><time>2026-04-13T17:38:35.675Z</time></trkpt><trkpt lat="40.8704117" lon="14.1708533"><ele>255.0</ele><time>2026-04-13T17:38:38.673Z</time></trkpt><trkpt lat="40.8704767" lon="14.1708517"><ele>255.00000000000003</ele><time>2026-04-13T17:38:41.675Z</time></trkpt><trkpt lat="40.8705517" lon="14.1708317"><ele>255.0</ele><time>2026-04-13T17:38:44.673Z</time></trkpt><trkpt lat="40.8706167" lon="14.1707967"><ele>255.0</ele><time>2026-04-13T17:38:47.674Z</time></trkpt><trkpt lat="40.8706917" lon="14.1707417"><ele>255.00000000000003</ele><time>2026-04-13T17:38:51.674Z</time></trkpt><trkpt lat="40.8707483" lon="14.1706867"><ele>255.0</ele><time>2026-04-13T17:38:54.673Z</time></trkpt><trkpt lat="40.8707983" lon="14.17062"><ele>255.0</ele><time>2026-04-13T17:38:57.673Z</time></trkpt><trkpt lat="40.87082" lon="14.1705333"><ele>256.0</ele><time>2026-04-13T17:39:00.673Z</time></trkpt><trkpt lat="40.87087" lon="14.1704467"><ele>257.0</ele><time>2026-04-13T17:39:04.673Z</time></trkpt><trkpt lat="40.8709117" lon="14.1703567"><ele>258.0</ele><time>2026-04-13T17:39:09.675Z</time></trkpt><trkpt lat="40.87096" lon="14.1702733"><ele>259.0</ele><time>2026-04-13T17:39:13.674Z</time></trkpt><trkpt lat="40.8710167" lon="14.1702167"><ele>260.0</ele><time>2026-04-13T17:39:16.673Z</time></trkpt><trkpt lat="40.8710717" lon="14.1701683"><ele>261.0</ele><time>2026-04-13T17:39:19.674Z</time></trkpt><trkpt lat="40.8711283" lon="14.1701283"><ele>262.0</ele><time>2026-04-13T17:39:22.673Z</time></trkpt><trkpt lat="40.871185" lon="14.1700533"><ele>263.8571428571429</ele><time>2026-04-13T17:39:26.674Z</time></trkpt><trkpt lat="40.8712433" lon="14.1700033"><ele>265.7142857142857</ele><time>2026-04-13T17:39:30.676Z</time></trkpt><trkpt lat="40.8713067" lon="14.1699667"><ele>267.57142857142856</ele><time>2026-04-13T17:39:34.675Z</time></trkpt><trkpt lat="40.8713833" lon="14.17"><ele>269.42857142857144</ele><time>2026-04-13T17:39:38.673Z</time></trkpt><trkpt lat="40.871425" lon="14.170085"><ele>271.2857142857143</ele><time>2026-04-13T17:39:42.673Z</time></trkpt><trkpt lat="40.871415" lon="14.1701817"><ele>273.14285714285717</ele><time>2026-04-13T17:39:46.673Z</time></trkpt><trkpt lat="40.87141" lon="14.1702733"><ele>275.0</ele><time>2026-04-13T17:39:50.674Z</time></trkpt><trkpt lat="40.87139" lon="14.17037"><ele>275.0</ele><time>2026-04-13T17:39:54.674Z</time></trkpt><trkpt lat="40.87135" lon="14.170465"><ele>275.0</ele><time>2026-04-13T17:39:58.673Z</time></trkpt><trkpt lat="40.8713517" lon="14.1705533"><ele>275.0</ele><time>2026-04-13T17:40:01.674Z</time></trkpt><trkpt lat="40.8713933" lon="14.1706317"><ele>275.0</ele><time>2026-04-13T17:40:04.673Z</time></trkpt><trkpt lat="40.8714433" lon="14.17069"><ele>275.0</ele><time>2026-04-13T17:40:07.673Z</time></trkpt><trkpt lat="40.871505" lon="14.170725"><ele>275.0</ele><time>2026-04-13T17:40:10.673Z</time></trkpt><trkpt lat="40.87157" lon="14.1707717"><ele>275.0</ele><time>2026-04-13T17:40:14.674Z</time></trkpt><trkpt lat="40.8716333" lon="14.1708133"><ele>274.8571428571429</ele><time>2026-04-13T17:40:18.674Z</time></trkpt><trkpt lat="40.8716917" lon="14.1708533"><ele>274.7142857142857</ele><time>2026-04-13T17:40:21.674Z</time></trkpt><trkpt lat="40.871745" lon="14.1709133"><ele>274.57142857142856</ele><time>2026-04-13T17:40:24.673Z</time></trkpt><trkpt lat="40.8717817" lon="14.171"><ele>274.42857142857144</ele><time>2026-04-13T17:40:27.673Z</time></trkpt><trkpt lat="40.87176" lon="14.1710917"><ele>274.2857142857143</ele><time>2026-04-13T17:40:30.674Z</time></trkpt><trkpt lat="40.8717333" lon="14.17117"><ele>274.14285714285717</ele><time>2026-04-13T17:40:33.674Z</time></trkpt><trkpt lat="40.8717" lon="14.171265"><ele>274.0</ele><time>2026-04-13T17:40:36.674Z</time></trkpt><trkpt lat="40.8717167" lon="14.1713517"><ele>274.0</ele><time>2026-04-13T17:40:39.676Z</time></trkpt><trkpt lat="40.8717583" lon="14.1714433"><ele>274.0</ele><time>2026-04-13T17:40:42.674Z</time></trkpt><trkpt lat="40.8717983" lon="14.1715283"><ele>274.0</ele><time>2026-04-13T17:40:45.674Z</time></trkpt><trkpt lat="40.8718067" lon="14.171635"><ele>274.0</ele><time>2026-04-13T17:40:48.673Z</time></trkpt><trkpt lat="40.87179" lon="14.1717267"><ele>274.0</ele><time>2026-04-13T17:40:51.673Z</time></trkpt><trkpt lat="40.8717383" lon="14.171805"><ele>274.0</ele><time>2026-04-13T17:40:54.673Z</time></trkpt><trkpt lat="40.8716783" lon="14.1718733"><ele>274.8333333333333</ele><time>2026-04-13T17:40:57.673Z</time></trkpt><trkpt lat="40.8716217" lon="14.1719283"><ele>275.66666666666663</ele><time>2026-04-13T17:41:00.673Z</time></trkpt><trkpt lat="40.871555" lon="14.171995"><ele>276.5</ele><time>2026-04-13T17:41:03.674Z</time></trkpt><trkpt lat="40.8714917" lon="14.172065"><ele>277.3333333333333</ele><time>2026-04-13T17:41:06.675Z</time></trkpt><trkpt lat="40.8714383" lon="14.17215"><ele>278.1666666666667</ele><time>2026-04-13T17:41:09.674Z</time></trkpt><trkpt lat="40.8713967" lon="14.17224"><ele>279.0</ele><time>2026-04-13T17:41:12.674Z</time></trkpt><trkpt lat="40.87137" lon="14.1723433"><ele>279.6666666666667</ele><time>2026-04-13T17:41:15.674Z</time></trkpt><trkpt lat="40.871355" lon="14.1724417"><ele>280.3333333333333</ele><time>2026-04-13T17:41:18.674Z</time></trkpt><trkpt lat="40.87135" lon="14.1725333"><ele>281.0</ele><time>2026-04-13T17:41:21.673Z</time></trkpt><trkpt lat="40.8713733" lon="14.1726183"><ele>281.66666666666663</ele><time>2026-04-13T17:41:24.674Z</time></trkpt><trkpt lat="40.87144" lon="14.172675"><ele>282.3333333333333</ele><time>2026-04-13T17:41:27.674Z</time></trkpt><trkpt lat="40.8715233" lon="14.1726967"><ele>283.0</ele><time>2026-04-13T17:41:30.673Z</time></trkpt><trkpt lat="40.87161" lon="14.1727"><ele>283.0</ele><time>2026-04-13T17:41:33.674Z</time></trkpt><trkpt lat="40.8716967" lon="14.1727017"><ele>283.0</ele><time>2026-04-13T17:41:36.673Z</time></trkpt><trkpt lat="40.8717733" lon="14.17272"><ele>283.0</ele><time>2026-04-13T17:41:39.673Z</time></trkpt><trkpt lat="40.8718583" lon="14.1727383"><ele>283.0</ele><time>2026-04-13T17:41:42.674Z</time></trkpt><trkpt lat="40.8719267" lon="14.17275"><ele>283.0</ele><time>2026-04-13T17:41:45.674Z</time></trkpt><trkpt lat="40.8719917" lon="14.1727717"><ele>283.0</ele><time>2026-04-13T17:41:48.675Z</time></trkpt><trkpt lat="40.8720717" lon="14.17279"><ele>285.57142857142856</ele><time>2026-04-13T17:41:51.673Z</time></trkpt><trkpt lat="40.872135" lon="14.1727917"><ele>288.14285714285717</ele><time>2026-04-13T17:41:53.674Z</time></trkpt><trkpt lat="40.8722167" lon="14.1727983"><ele>290.7142857142857</ele><time>2026-04-13T17:41:56.673Z</time></trkpt><trkpt lat="40.87229" lon="14.17281"><ele>293.2857142857143</ele><time>2026-04-13T17:41:59.674Z</time></trkpt><trkpt lat="40.8723617" lon="14.1728217"><ele>295.8571428571429</ele><time>2026-04-13T17:42:02.674Z</time></trkpt><trkpt lat="40.872445" lon="14.1728433"><ele>298.42857142857144</ele><time>2026-04-13T17:42:06.673Z</time></trkpt><trkpt lat="40.8725067" lon="14.172875"><ele>301.0</ele><time>2026-04-13T17:42:09.673Z</time></trkpt><trkpt lat="40.872575" lon="14.1729317"><ele>300.8333333333333</ele><time>2026-04-13T17:42:13.674Z</time></trkpt><trkpt lat="40.8726217" lon="14.1730017"><ele>300.66666666666663</ele><time>2026-04-13T17:42:16.673Z</time></trkpt><trkpt lat="40.8726533" lon="14.17309"><ele>300.5</ele><time>2026-04-13T17:42:19.677Z</time></trkpt><trkpt lat="40.8726783" lon="14.1731867"><ele>300.3333333333333</ele><time>2026-04-13T17:42:22.674Z</time></trkpt><trkpt lat="40.8726783" lon="14.17329"><ele>300.1666666666667</ele><time>2026-04-13T17:42:25.674Z</time></trkpt><trkpt lat="40.8726483" lon="14.173395"><ele>300.0</ele><time>2026-04-13T17:42:28.674Z</time></trkpt><trkpt lat="40.8725983" lon="14.1734617"><ele>300.0</ele><time>2026-04-13T17:42:31.675Z</time></trkpt><trkpt lat="40.87252" lon="14.1734617"><ele>300.0</ele><time>2026-04-13T17:42:34.674Z</time></trkpt><trkpt lat="40.8724483" lon="14.1734483"><ele>300.0</ele><time>2026-04-13T17:42:37.674Z</time></trkpt><trkpt lat="40.8723767" lon="14.17344"><ele>300.0</ele><time>2026-04-13T17:42:40.675Z</time></trkpt><trkpt lat="40.8722933" lon="14.1734483"><ele>300.0</ele><time>2026-04-13T17:42:43.674Z</time></trkpt><trkpt lat="40.87221" lon="14.1735017"><ele>300.0</ele><time>2026-04-13T17:42:46.674Z</time></trkpt><trkpt lat="40.8721483" lon="14.17359"><ele>300.0</ele><time>2026-04-13T17:42:49.674Z</time></trkpt><trkpt lat="40.8720933" lon="14.17368"><ele>300.0</ele><time>2026-04-13T17:42:52.674Z</time></trkpt><trkpt lat="40.8720433" lon="14.1737517"><ele>300.0</ele><time>2026-04-13T17:42:55.674Z</time></trkpt><trkpt lat="40.8720267" lon="14.1738467"><ele>300.0</ele><time>2026-04-13T17:42:59.674Z</time></trkpt><trkpt lat="40.872055" lon="14.1739317"><ele>300.0</ele><time>2026-04-13T17:43:02.673Z</time></trkpt><trkpt lat="40.8721283" lon="14.173915"><ele>300.0</ele><time>2026-04-13T17:43:07.675Z</time></trkpt><trkpt lat="40.8721917" lon="14.173855"><ele>300.0</ele><time>2026-04-13T17:43:11.674Z</time></trkpt><trkpt lat="40.8722533" lon="14.1737833"><ele>300.0</ele><time>2026-04-13T17:43:14.675Z</time></trkpt><trkpt lat="40.8723167" lon="14.1737317"><ele>300.0</ele><time>2026-04-13T17:43:17.675Z</time></trkpt><trkpt lat="40.87239" lon="14.1737233"><ele>300.0</ele><time>2026-04-13T17:43:20.674Z</time></trkpt><trkpt lat="40.8724783" lon="14.1737433"><ele>300.0</ele><time>2026-04-13T17:43:23.675Z</time></trkpt><trkpt lat="40.87257" lon="14.173775"><ele>300.0</ele><time>2026-04-13T17:43:26.674Z</time></trkpt><trkpt lat="40.872635" lon="14.173785"><ele>301.71428571428567</ele><time>2026-04-13T17:43:28.675Z</time></trkpt><trkpt lat="40.8727283" lon="14.17378"><ele>303.42857142857144</ele><time>2026-04-13T17:43:31.675Z</time></trkpt><trkpt lat="40.8727917" lon="14.1737483"><ele>305.1428571428571</ele><time>2026-04-13T17:43:33.673Z</time></trkpt><trkpt lat="40.8728533" lon="14.1737067"><ele>306.85714285714283</ele><time>2026-04-13T17:43:35.674Z</time></trkpt><trkpt lat="40.8728967" lon="14.1736417"><ele>308.57142857142856</ele><time>2026-04-13T17:43:37.674Z</time></trkpt><trkpt lat="40.87294" lon="14.17358"><ele>310.2857142857143</ele><time>2026-04-13T17:43:39.673Z</time></trkpt><trkpt lat="40.8729917" lon="14.1734983"><ele>312.0</ele><time>2026-04-13T17:43:42.674Z</time></trkpt><trkpt lat="40.8730367" lon="14.1734083"><ele>312.0</ele><time>2026-04-13T17:43:45.673Z</time></trkpt><trkpt lat="40.8730733" lon="14.1733283"><ele>312.0</ele><time>2026-04-13T17:43:48.675Z</time></trkpt><trkpt lat="40.8731083" lon="14.1732583"><ele>312.0</ele><time>2026-04-13T17:43:50.674Z</time></trkpt><trkpt lat="40.87317" lon="14.1731633"><ele>312.0</ele><time>2026-04-13T17:43:53.676Z</time></trkpt><trkpt lat="40.8732233" lon="14.1730817"><ele>312.0</ele><time>2026-04-13T17:43:56.674Z</time></trkpt><trkpt lat="40.873265" lon="14.1730017"><ele>312.0</ele><time>2026-04-13T17:43:59.674Z</time></trkpt><trkpt lat="40.8733167" lon="14.1729117"><ele>311.7142857142857</ele><time>2026-04-13T17:44:02.674Z</time></trkpt><trkpt lat="40.873365" lon="14.172815"><ele>311.4285714285714</ele><time>2026-04-13T17:44:05.674Z</time></trkpt><trkpt lat="40.873405" lon="14.1727483"><ele>311.1428571428571</ele><time>2026-04-13T17:44:07.674Z</time></trkpt><trkpt lat="40.87346" lon="14.17266"><ele>310.8571428571429</ele><time>2026-04-13T17:44:10.673Z</time></trkpt><trkpt lat="40.8735017" lon="14.172585"><ele>310.57142857142856</ele><time>2026-04-13T17:44:13.674Z</time></trkpt><trkpt lat="40.87354" lon="14.1725167"><ele>310.2857142857143</ele><time>2026-04-13T17:44:16.674Z</time></trkpt><trkpt lat="40.8735817" lon="14.172445"><ele>310.0</ele><time>2026-04-13T17:44:19.674Z</time></trkpt><trkpt lat="40.8736517" lon="14.1724183"><ele>310.8333333333333</ele><time>2026-04-13T17:44:22.673Z</time></trkpt><trkpt lat="40.8737183" lon="14.1724167"><ele>311.66666666666663</ele><time>2026-04-13T17:44:25.674Z</time></trkpt><trkpt lat="40.873785" lon="14.1724567"><ele>312.5</ele><time>2026-04-13T17:44:28.674Z</time></trkpt><trkpt lat="40.8738583" lon="14.172505"><ele>313.3333333333333</ele><time>2026-04-13T17:44:31.674Z</time></trkpt><trkpt lat="40.8739333" lon="14.17253"><ele>314.1666666666667</ele><time>2026-04-13T17:44:34.673Z</time></trkpt><trkpt lat="40.8740033" lon="14.1725567"><ele>315.0</ele><time>2026-04-13T17:44:37.674Z</time></trkpt><trkpt lat="40.8740767" lon="14.1725917"><ele>315.0</ele><time>2026-04-13T17:44:40.673Z</time></trkpt><trkpt lat="40.87415" lon="14.17262"><ele>315.0</ele><time>2026-04-13T17:44:43.674Z</time></trkpt><trkpt lat="40.8742317" lon="14.17265"><ele>315.0</ele><time>2026-04-13T17:44:46.673Z</time></trkpt><trkpt lat="40.8743167" lon="14.1726733"><ele>315.0</ele><time>2026-04-13T17:44:49.675Z</time></trkpt><trkpt lat="40.8743933" lon="14.172685"><ele>315.0</ele><time>2026-04-13T17:44:52.674Z</time></trkpt><trkpt lat="40.87447" lon="14.1727033"><ele>315.0</ele><time>2026-04-13T17:44:56.675Z</time></trkpt><trkpt lat="40.8745433" lon="14.1727567"><ele>314.5</ele><time>2026-04-13T17:45:00.674Z</time></trkpt><trkpt lat="40.8746033" lon="14.17282"><ele>314.0</ele><time>2026-04-13T17:45:03.674Z</time></trkpt><trkpt lat="40.8746683" lon="14.1729017"><ele>313.5</ele><time>2026-04-13T17:45:06.674Z</time></trkpt><trkpt lat="40.8747117" lon="14.172995"><ele>313.0</ele><time>2026-04-13T17:45:09.673Z</time></trkpt><trkpt lat="40.8747433" lon="14.1730817"><ele>312.5</ele><time>2026-04-13T17:45:12.673Z</time></trkpt><trkpt lat="40.8747917" lon="14.173145"><ele>312.0</ele><time>2026-04-13T17:45:15.673Z</time></trkpt><trkpt lat="40.8748417" lon="14.173215"><ele>314.1666666666667</ele><time>2026-04-13T17:45:18.674Z</time></trkpt><trkpt lat="40.874895" lon="14.17328"><ele>316.3333333333333</ele><time>2026-04-13T17:45:21.672Z</time></trkpt><trkpt lat="40.874965" lon="14.17335"><ele>318.5</ele><time>2026-04-13T17:45:24.673Z</time></trkpt><trkpt lat="40.87502" lon="14.1734"><ele>320.66666666666663</ele><time>2026-04-13T17:45:27.672Z</time></trkpt><trkpt lat="40.8750833" lon="14.1734517"><ele>322.8333333333333</ele><time>2026-04-13T17:45:31.673Z</time></trkpt><trkpt lat="40.8751567" lon="14.1734933"><ele>325.0</ele><time>2026-04-13T17:45:35.674Z</time></trkpt><trkpt lat="40.8752233" lon="14.17356"><ele>325.2857142857143</ele><time>2026-04-13T17:45:39.673Z</time></trkpt><trkpt lat="40.8752717" lon="14.17363"><ele>325.5714285714286</ele><time>2026-04-13T17:45:42.673Z</time></trkpt><trkpt lat="40.8753233" lon="14.1736983"><ele>325.8571428571429</ele><time>2026-04-13T17:45:45.672Z</time></trkpt><trkpt lat="40.8753817" lon="14.1737483"><ele>326.1428571428571</ele><time>2026-04-13T17:45:48.673Z</time></trkpt><trkpt lat="40.87545" lon="14.173775"><ele>326.42857142857144</ele><time>2026-04-13T17:45:52.673Z</time></trkpt><trkpt lat="40.8755367" lon="14.173815"><ele>326.7142857142857</ele><time>2026-04-13T17:45:56.672Z</time></trkpt><trkpt lat="40.8756067" lon="14.1738333"><ele>327.0</ele><time>2026-04-13T17:45:59.674Z</time></trkpt><trkpt lat="40.875675" lon="14.1738367"><ele>327.0</ele><time>2026-04-13T17:46:02.673Z</time></trkpt><trkpt lat="40.875745" lon="14.1738717"><ele>327.0</ele><time>2026-04-13T17:46:05.674Z</time></trkpt><trkpt lat="40.8758183" lon="14.1739033"><ele>327.0</ele><time>2026-04-13T17:46:08.672Z</time></trkpt><trkpt lat="40.87589" lon="14.1738733"><ele>327.0</ele><time>2026-04-13T17:46:12.672Z</time></trkpt><trkpt lat="40.8759383" lon="14.1738183"><ele>327.0</ele><time>2026-04-13T17:46:15.672Z</time></trkpt><trkpt lat="40.8759967" lon="14.1737533"><ele>327.0</ele><time>2026-04-13T17:46:18.673Z</time></trkpt><trkpt lat="40.87605" lon="14.17367"><ele>328.3333333333333</ele><time>2026-04-13T17:46:21.672Z</time></trkpt><trkpt lat="40.87611" lon="14.1736133"><ele>329.6666666666667</ele><time>2026-04-13T17:46:24.673Z</time></trkpt><trkpt lat="40.8761883" lon="14.17361"><ele>331.0</ele><time>2026-04-13T17:46:27.673Z</time></trkpt><trkpt lat="40.87626" lon="14.1736417"><ele>332.33333333333337</ele><time>2026-04-13T17:46:30.674Z</time></trkpt><trkpt lat="40.8763367" lon="14.173665"><ele>333.6666666666667</ele><time>2026-04-13T17:46:33.673Z</time></trkpt><trkpt lat="40.8764183" lon="14.1737083"><ele>335.0</ele><time>2026-04-13T17:46:36.673Z</time></trkpt><trkpt lat="40.8764917" lon="14.173755"><ele>335.0</ele><time>2026-04-13T17:46:39.673Z</time></trkpt><trkpt lat="40.8765267" lon="14.1738533"><ele>335.0</ele><time>2026-04-13T17:46:42.673Z</time></trkpt><trkpt lat="40.87653" lon="14.1739417"><ele>335.0</ele><time>2026-04-13T17:46:44.673Z</time></trkpt><trkpt lat="40.8765267" lon="14.1740483"><ele>335.0</ele><time>2026-04-13T17:46:47.674Z</time></trkpt><trkpt lat="40.876505" lon="14.1741417"><ele>335.0</ele><time>2026-04-13T17:46:50.673Z</time></trkpt><trkpt lat="40.8764917" lon="14.1742533"><ele>335.0</ele><time>2026-04-13T17:46:53.675Z</time></trkpt><trkpt lat="40.8764883" lon="14.1743617"><ele>335.5</ele><time>2026-04-13T17:46:56.674Z</time></trkpt><trkpt lat="40.8764567" lon="14.1744467"><ele>336.0</ele><time>2026-04-13T17:46:58.673Z</time></trkpt><trkpt lat="40.87641" lon="14.1745233"><ele>336.5</ele><time>2026-04-13T17:47:00.673Z</time></trkpt><trkpt lat="40.8763517" lon="14.17461"><ele>337.0</ele><time>2026-04-13T17:47:03.673Z</time></trkpt><trkpt lat="40.8763033" lon="14.1746633"><ele>337.5</ele><time>2026-04-13T17:47:05.673Z</time></trkpt><trkpt lat="40.8762333" lon="14.1747267"><ele>338.0</ele><time>2026-04-13T17:47:07.682Z</time></trkpt><trkpt lat="40.8761617" lon="14.174785"><ele>338.0</ele><time>2026-04-13T17:47:09.673Z</time></trkpt><trkpt lat="40.8761133" lon="14.1748533"><ele>338.0</ele><time>2026-04-13T17:47:11.673Z</time></trkpt><trkpt lat="40.8760717" lon="14.1749183"><ele>338.0</ele><time>2026-04-13T17:47:13.673Z</time></trkpt><trkpt lat="40.87603" lon="14.17499"><ele>338.0</ele><time>2026-04-13T17:47:15.673Z</time></trkpt><trkpt lat="40.87599" lon="14.1750567"><ele>338.0</ele><time>2026-04-13T17:47:17.674Z</time></trkpt><trkpt lat="40.8759533" lon="14.1751383"><ele>338.0</ele><time>2026-04-13T17:47:19.673Z</time></trkpt><trkpt lat="40.87591" lon="14.1752167"><ele>338.0</ele><time>2026-04-13T17:47:21.673Z</time></trkpt><trkpt lat="40.875865" lon="14.1752883"><ele>338.57142857142856</ele><time>2026-04-13T17:47:23.673Z</time></trkpt><trkpt lat="40.87582" lon="14.1753617"><ele>339.1428571428571</ele><time>2026-04-13T17:47:25.673Z</time></trkpt><trkpt lat="40.87577" lon="14.1754383"><ele>339.71428571428567</ele><time>2026-04-13T17:47:27.673Z</time></trkpt><trkpt lat="40.87573" lon="14.1755283"><ele>340.2857142857143</ele><time>2026-04-13T17:47:29.673Z</time></trkpt><trkpt lat="40.8756767" lon="14.175595"><ele>340.85714285714283</ele><time>2026-04-13T17:47:31.674Z</time></trkpt><trkpt lat="40.8756233" lon="14.1756667"><ele>341.4285714285714</ele><time>2026-04-13T17:47:33.673Z</time></trkpt><trkpt lat="40.8755683" lon="14.1757267"><ele>342.0</ele><time>2026-04-13T17:47:35.673Z</time></trkpt><trkpt lat="40.87552" lon="14.1757967"><ele>342.1428571428571</ele><time>2026-04-13T17:47:37.674Z</time></trkpt><trkpt lat="40.8754967" lon="14.17589"><ele>342.2857142857143</ele><time>2026-04-13T17:47:39.674Z</time></trkpt><trkpt lat="40.8754883" lon="14.1759917"><ele>342.42857142857144</ele><time>2026-04-13T17:47:41.674Z</time></trkpt><trkpt lat="40.87548" lon="14.176085"><ele>342.57142857142856</ele><time>2026-04-13T17:47:43.673Z</time></trkpt><trkpt lat="40.8754733" lon="14.1761817"><ele>342.7142857142857</ele><time>2026-04-13T17:47:45.673Z</time></trkpt><trkpt lat="40.8754583" lon="14.176275"><ele>342.85714285714283</ele><time>2026-04-13T17:47:47.673Z</time></trkpt><trkpt lat="40.87544" lon="14.1763567"><ele>343.0</ele><time>2026-04-13T17:47:49.673Z</time></trkpt><trkpt lat="40.8754167" lon="14.1764733"><ele>342.5</ele><time>2026-04-13T17:47:52.674Z</time></trkpt><trkpt lat="40.8754" lon="14.176595"><ele>342.0</ele><time>2026-04-13T17:47:55.673Z</time></trkpt><trkpt lat="40.875365" lon="14.1766767"><ele>341.5</ele><time>2026-04-13T17:47:57.673Z</time></trkpt><trkpt lat="40.8753267" lon="14.1767667"><ele>341.0</ele><time>2026-04-13T17:48:00.672Z</time></trkpt><trkpt lat="40.8752917" lon="14.1768433"><ele>340.5</ele><time>2026-04-13T17:48:03.672Z</time></trkpt><trkpt lat="40.8752483" lon="14.1769083"><ele>340.0</ele><time>2026-04-13T17:48:06.674Z</time></trkpt><trkpt lat="40.8751883" lon="14.176985"><ele>340.0</ele><time>2026-04-13T17:48:09.673Z</time></trkpt><trkpt lat="40.87512" lon="14.1770367"><ele>340.0</ele><time>2026-04-13T17:48:12.673Z</time></trkpt><trkpt lat="40.8750467" lon="14.177075"><ele>340.0</ele><time>2026-04-13T17:48:15.673Z</time></trkpt><trkpt lat="40.8749867" lon="14.1771133"><ele>340.0</ele><time>2026-04-13T17:48:18.673Z</time></trkpt><trkpt lat="40.8749067" lon="14.1771567"><ele>340.0</ele><time>2026-04-13T17:48:22.673Z</time></trkpt><trkpt lat="40.874835" lon="14.17717"><ele>340.0</ele><time>2026-04-13T17:48:25.674Z</time></trkpt><trkpt lat="40.874755" lon="14.1771933"><ele>341.8333333333333</ele><time>2026-04-13T17:48:28.673Z</time></trkpt><trkpt lat="40.8746867" lon="14.1772433"><ele>343.66666666666663</ele><time>2026-04-13T17:48:31.673Z</time></trkpt><trkpt lat="40.8746117" lon="14.1773067"><ele>345.5</ele><time>2026-04-13T17:48:34.673Z</time></trkpt><trkpt lat="40.8745617" lon="14.17737"><ele>347.3333333333333</ele><time>2026-04-13T17:48:37.673Z</time></trkpt><trkpt lat="40.8745067" lon="14.1774233"><ele>349.1666666666667</ele><time>2026-04-13T17:48:40.673Z</time></trkpt><trkpt lat="40.87445" lon="14.1774767"><ele>351.0</ele><time>2026-04-13T17:48:43.673Z</time></trkpt><trkpt lat="40.8743867" lon="14.1775417"><ele>351.5</ele><time>2026-04-13T17:48:46.674Z</time></trkpt><trkpt lat="40.87435" lon="14.1776433"><ele>352.0</ele><time>2026-04-13T17:48:49.674Z</time></trkpt><trkpt lat="40.8743333" lon="14.1777633"><ele>352.5</ele><time>2026-04-13T17:48:52.673Z</time></trkpt><trkpt lat="40.8743233" lon="14.1778483"><ele>353.0</ele><time>2026-04-13T17:48:54.674Z</time></trkpt><trkpt lat="40.8743117" lon="14.1779667"><ele>353.5</ele><time>2026-04-13T17:48:57.673Z</time></trkpt><trkpt lat="40.8743" lon="14.17805"><ele>354.0</ele><time>2026-04-13T17:48:59.675Z</time></trkpt><trkpt lat="40.8742933" lon="14.178165"><ele>354.5</ele><time>2026-04-13T17:49:02.674Z</time></trkpt><trkpt lat="40.8742833" lon="14.178265"><ele>355.0</ele><time>2026-04-13T17:49:05.674Z</time></trkpt><trkpt lat="40.87426" lon="14.17837"><ele>355.5</ele><time>2026-04-13T17:49:08.674Z</time></trkpt><trkpt lat="40.8742333" lon="14.178475"><ele>356.0</ele><time>2026-04-13T17:49:11.673Z</time></trkpt><trkpt lat="40.8742133" lon="14.17858"><ele>356.5</ele><time>2026-04-13T17:49:14.673Z</time></trkpt><trkpt lat="40.874225" lon="14.1786767"><ele>357.0</ele><time>2026-04-13T17:49:17.674Z</time></trkpt><trkpt lat="40.874225" lon="14.1787867"><ele>357.14285714285717</ele><time>2026-04-13T17:49:20.673Z</time></trkpt><trkpt lat="40.8742283" lon="14.1788983"><ele>357.2857142857143</ele><time>2026-04-13T17:49:23.674Z</time></trkpt><trkpt lat="40.874235" lon="14.1789817"><ele>357.42857142857144</ele><time>2026-04-13T17:49:26.673Z</time></trkpt><trkpt lat="40.8742333" lon="14.179065"><ele>357.57142857142856</ele><time>2026-04-13T17:49:29.673Z</time></trkpt><trkpt lat="40.8742167" lon="14.1791717"><ele>357.7142857142857</ele><time>2026-04-13T17:49:33.673Z</time></trkpt><trkpt lat="40.874195" lon="14.1792517"><ele>357.8571428571429</ele><time>2026-04-13T17:49:36.673Z</time></trkpt><trkpt lat="40.8741533" lon="14.1793167"><ele>358.0</ele><time>2026-04-13T17:49:38.674Z</time></trkpt><trkpt lat="40.87417" lon="14.1794333"><ele>358.5</ele><time>2026-04-13T17:49:41.673Z</time></trkpt><trkpt lat="40.874175" lon="14.1795517"><ele>359.0</ele><time>2026-04-13T17:49:43.674Z</time></trkpt><trkpt lat="40.8741517" lon="14.1796383"><ele>359.5</ele><time>2026-04-13T17:49:45.673Z</time></trkpt><trkpt lat="40.8741233" lon="14.1797283"><ele>360.0</ele><time>2026-04-13T17:49:47.673Z</time></trkpt><trkpt lat="40.8740967" lon="14.179805"><ele>360.5</ele><time>2026-04-13T17:49:49.674Z</time></trkpt><trkpt lat="40.874055" lon="14.1799067"><ele>361.0</ele><time>2026-04-13T17:49:51.673Z</time></trkpt><trkpt lat="40.8740283" lon="14.1799917"><ele>362.0</ele><time>2026-04-13T17:49:53.675Z</time></trkpt><trkpt lat="40.8739967" lon="14.1800783"><ele>363.0</ele><time>2026-04-13T17:49:55.674Z</time></trkpt><trkpt lat="40.8739733" lon="14.1801633"><ele>364.0</ele><time>2026-04-13T17:49:57.674Z</time></trkpt><trkpt lat="40.8739483" lon="14.180275"><ele>365.0</ele><time>2026-04-13T17:50:00.673Z</time></trkpt><trkpt lat="40.8739233" lon="14.1803717"><ele>366.0</ele><time>2026-04-13T17:50:03.674Z</time></trkpt><trkpt lat="40.8739033" lon="14.18048"><ele>367.0</ele><time>2026-04-13T17:50:06.673Z</time></trkpt><trkpt lat="40.8738383" lon="14.18061"><ele>367.0</ele><time>2026-04-13T17:51:13.673Z</time></trkpt><trkpt lat="40.873805" lon="14.1806817"><ele>367.0</ele><time>2026-04-13T17:51:16.673Z</time></trkpt><trkpt lat="40.8737483" lon="14.1807667"><ele>367.0</ele><time>2026-04-13T17:51:19.673Z</time></trkpt><trkpt lat="40.8736917" lon="14.1808767"><ele>367.0</ele><time>2026-04-13T17:51:21.673Z</time></trkpt><trkpt lat="40.87366" lon="14.18095"><ele>367.0</ele><time>2026-04-13T17:51:22.673Z</time></trkpt><trkpt lat="40.8736283" lon="14.1810883"><ele>367.0</ele><time>2026-04-13T17:51:24.673Z</time></trkpt><trkpt lat="40.873615" lon="14.1812433"><ele>366.6</ele><time>2026-04-13T17:51:26.673Z</time></trkpt><trkpt lat="40.8736" lon="14.18139"><ele>366.20000000000005</ele><time>2026-04-13T17:51:28.673Z</time></trkpt><trkpt lat="40.87359" lon="14.1815183"><ele>365.8</ele><time>2026-04-13T17:51:30.673Z</time></trkpt><trkpt lat="40.8735617" lon="14.1816317"><ele>365.4</ele><time>2026-04-13T17:51:32.673Z</time></trkpt><trkpt lat="40.8735167" lon="14.1817567"><ele>365.0</ele><time>2026-04-13T17:51:34.673Z</time></trkpt><trkpt lat="40.8734783" lon="14.1818517"><ele>364.8</ele><time>2026-04-13T17:51:36.673Z</time></trkpt><trkpt lat="40.8734267" lon="14.1819417"><ele>364.6</ele><time>2026-04-13T17:51:38.673Z</time></trkpt><trkpt lat="40.8733733" lon="14.18204"><ele>364.4</ele><time>2026-04-13T17:51:40.674Z</time></trkpt><trkpt lat="40.8733133" lon="14.1821383"><ele>364.2</ele><time>2026-04-13T17:51:42.673Z</time></trkpt><trkpt lat="40.873245" lon="14.1822217"><ele>364.0</ele><time>2026-04-13T17:51:44.673Z</time></trkpt><trkpt lat="40.8731833" lon="14.1823033"><ele>363.8333333333333</ele><time>2026-04-13T17:51:46.675Z</time></trkpt><trkpt lat="40.8731283" lon="14.1823817"><ele>363.66666666666663</ele><time>2026-04-13T17:51:48.673Z</time></trkpt><trkpt lat="40.8730683" lon="14.1824633"><ele>363.5</ele><time>2026-04-13T17:51:50.674Z</time></trkpt><trkpt lat="40.8729967" lon="14.182535"><ele>363.3333333333333</ele><time>2026-04-13T17:51:52.674Z</time></trkpt><trkpt lat="40.8729283" lon="14.1826233"><ele>363.1666666666667</ele><time>2026-04-13T17:51:54.674Z</time></trkpt><trkpt lat="40.8728717" lon="14.1827017"><ele>363.0</ele><time>2026-04-13T17:51:56.675Z</time></trkpt><trkpt lat="40.872815" lon="14.18278"><ele>363.0</ele><time>2026-04-13T17:51:58.674Z</time></trkpt><trkpt lat="40.872755" lon="14.1828483"><ele>363.0</ele><time>2026-04-13T17:52:00.673Z</time></trkpt><trkpt lat="40.87269" lon="14.1829"><ele>363.0</ele><time>2026-04-13T17:52:02.674Z</time></trkpt><trkpt lat="40.8726233" lon="14.18294"><ele>363.0</ele><time>2026-04-13T17:52:04.673Z</time></trkpt><trkpt lat="40.872555" lon="14.1829867"><ele>363.0</ele><time>2026-04-13T17:52:06.675Z</time></trkpt><trkpt lat="40.8724767" lon="14.183015"><ele>363.0</ele><time>2026-04-13T17:52:08.673Z</time></trkpt><trkpt lat="40.8724067" lon="14.1829967"><ele>363.1666666666667</ele><time>2026-04-13T17:52:10.69Z</time></trkpt><trkpt lat="40.8723583" lon="14.1829333"><ele>363.3333333333333</ele><time>2026-04-13T17:52:12.675Z</time></trkpt><trkpt lat="40.8723117" lon="14.1828483"><ele>363.5</ele><time>2026-04-13T17:52:14.675Z</time></trkpt><trkpt lat="40.8722433" lon="14.1827817"><ele>363.66666666666663</ele><time>2026-04-13T17:52:16.675Z</time></trkpt><trkpt lat="40.872175" lon="14.182745"><ele>363.8333333333333</ele><time>2026-04-13T17:52:18.675Z</time></trkpt><trkpt lat="40.8721083" lon="14.1827267"><ele>364.0</ele><time>2026-04-13T17:52:20.676Z</time></trkpt><trkpt lat="40.8720183" lon="14.18272"><ele>364.0</ele><time>2026-04-13T17:52:23.674Z</time></trkpt><trkpt lat="40.8719233" lon="14.18271"><ele>364.0</ele><time>2026-04-13T17:52:25.674Z</time></trkpt><trkpt lat="40.8718133" lon="14.1827433"><ele>364.0</ele><time>2026-04-13T17:52:27.673Z</time></trkpt><trkpt lat="40.8717167" lon="14.1828533"><ele>364.0</ele><time>2026-04-13T17:52:29.675Z</time></trkpt><trkpt lat="40.8716433" lon="14.182965"><ele>364.0</ele><time>2026-04-13T17:52:31.674Z</time></trkpt><trkpt lat="40.8715817" lon="14.183065"><ele>363.16666666666663</ele><time>2026-04-13T17:52:33.674Z</time></trkpt><trkpt lat="40.87153" lon="14.1831783"><ele>362.3333333333333</ele><time>2026-04-13T17:52:36.673Z</time></trkpt><trkpt lat="40.8714983" lon="14.1832583"><ele>361.5</ele><time>2026-04-13T17:52:38.673Z</time></trkpt><trkpt lat="40.8714817" lon="14.1833683"><ele>360.6666666666667</ele><time>2026-04-13T17:52:41.674Z</time></trkpt><trkpt lat="40.87148" lon="14.1834583"><ele>359.83333333333337</ele><time>2026-04-13T17:52:43.673Z</time></trkpt><trkpt lat="40.8714917" lon="14.1835467"><ele>359.0</ele><time>2026-04-13T17:52:45.673Z</time></trkpt><trkpt lat="40.871485" lon="14.183635"><ele>361.0</ele><time>2026-04-13T17:52:47.674Z</time></trkpt><trkpt lat="40.8714833" lon="14.183745"><ele>363.0</ele><time>2026-04-13T17:52:50.675Z</time></trkpt><trkpt lat="40.871465" lon="14.1838517"><ele>365.0</ele><time>2026-04-13T17:52:53.674Z</time></trkpt><trkpt lat="40.8714533" lon="14.1839683"><ele>367.0</ele><time>2026-04-13T17:52:56.675Z</time></trkpt><trkpt lat="40.8714333" lon="14.184065"><ele>369.0</ele><time>2026-04-13T17:52:58.673Z</time></trkpt><trkpt lat="40.8714083" lon="14.1841433"><ele>371.0</ele><time>2026-04-13T17:53:00.675Z</time></trkpt><trkpt lat="40.87138" lon="14.1842233"><ele>371.5</ele><time>2026-04-13T17:53:02.673Z</time></trkpt><trkpt lat="40.8713467" lon="14.1843"><ele>372.0</ele><time>2026-04-13T17:53:04.674Z</time></trkpt><trkpt lat="40.8712983" lon="14.1843867"><ele>372.5</ele><time>2026-04-13T17:53:06.673Z</time></trkpt><trkpt lat="40.8712433" lon="14.1844867"><ele>373.0</ele><time>2026-04-13T17:53:08.674Z</time></trkpt><trkpt lat="40.87119" lon="14.1845783"><ele>373.5</ele><time>2026-04-13T17:53:10.674Z</time></trkpt><trkpt lat="40.8711383" lon="14.1846483"><ele>374.0</ele><time>2026-04-13T17:53:12.673Z</time></trkpt><trkpt lat="40.8710767" lon="14.18471"><ele>374.0</ele><time>2026-04-13T17:53:14.674Z</time></trkpt><trkpt lat="40.8710083" lon="14.1847817"><ele>374.0</ele><time>2026-04-13T17:53:16.673Z</time></trkpt><trkpt lat="40.8709433" lon="14.184865"><ele>374.0</ele><time>2026-04-13T17:53:18.674Z</time></trkpt><trkpt lat="40.8708833" lon="14.184935"><ele>374.0</ele><time>2026-04-13T17:53:20.673Z</time></trkpt><trkpt lat="40.87083" lon="14.1850033"><ele>374.0</ele><time>2026-04-13T17:53:22.674Z</time></trkpt><trkpt lat="40.8707567" lon="14.1850833"><ele>374.0</ele><time>2026-04-13T17:53:25.674Z</time></trkpt><trkpt lat="40.870695" lon="14.1851733"><ele>374.33333333333337</ele><time>2026-04-13T17:53:28.674Z</time></trkpt><trkpt lat="40.8706433" lon="14.1852367"><ele>374.6666666666667</ele><time>2026-04-13T17:53:30.675Z</time></trkpt><trkpt lat="40.8706" lon="14.18533"><ele>375.0</ele><time>2026-04-13T17:53:33.673Z</time></trkpt><trkpt lat="40.8705983" lon="14.1854217"><ele>375.3333333333333</ele><time>2026-04-13T17:53:37.674Z</time></trkpt><trkpt lat="40.8706133" lon="14.1855267"><ele>375.66666666666663</ele><time>2026-04-13T17:53:41.674Z</time></trkpt><trkpt lat="40.87063" lon="14.1856283"><ele>376.0</ele><time>2026-04-13T17:53:44.675Z</time></trkpt><trkpt lat="40.8706267" lon="14.185745"><ele>376.66666666666663</ele><time>2026-04-13T17:53:47.674Z</time></trkpt><trkpt lat="40.8706283" lon="14.1858483"><ele>377.3333333333333</ele><time>2026-04-13T17:53:50.673Z</time></trkpt><trkpt lat="40.8706283" lon="14.1859533"><ele>378.0</ele><time>2026-04-13T17:53:53.674Z</time></trkpt><trkpt lat="40.8706367" lon="14.1860583"><ele>378.6666666666667</ele><time>2026-04-13T17:53:56.673Z</time></trkpt><trkpt lat="40.8706467" lon="14.1861433"><ele>379.33333333333337</ele><time>2026-04-13T17:53:58.673Z</time></trkpt><trkpt lat="40.8706467" lon="14.1862383"><ele>380.0</ele><time>2026-04-13T17:54:01.673Z</time></trkpt><trkpt lat="40.870665" lon="14.1863583"><ele>380.0</ele><time>2026-04-13T17:54:05.675Z</time></trkpt><trkpt lat="40.8706667" lon="14.18648"><ele>380.0</ele><time>2026-04-13T17:54:08.673Z</time></trkpt><trkpt lat="40.8706517" lon="14.1865817"><ele>380.0</ele><time>2026-04-13T17:54:10.673Z</time></trkpt><trkpt lat="40.8706133" lon="14.1866867"><ele>380.0</ele><time>2026-04-13T17:54:13.675Z</time></trkpt><trkpt lat="40.87055" lon="14.1867317"><ele>380.0</ele><time>2026-04-13T17:54:16.675Z</time></trkpt><trkpt lat="40.8704717" lon="14.18675"><ele>380.0</ele><time>2026-04-13T17:54:19.673Z</time></trkpt><trkpt lat="40.87039" lon="14.186755"><ele>379.83333333333337</ele><time>2026-04-13T17:54:22.673Z</time></trkpt><trkpt lat="40.8703067" lon="14.18676"><ele>379.6666666666667</ele><time>2026-04-13T17:54:25.674Z</time></trkpt><trkpt lat="40.8702167" lon="14.1867767"><ele>379.5</ele><time>2026-04-13T17:54:28.675Z</time></trkpt><trkpt lat="40.8701533" lon="14.1867917"><ele>379.3333333333333</ele><time>2026-04-13T17:54:30.675Z</time></trkpt><trkpt lat="40.8700683" lon="14.1868033"><ele>379.16666666666663</ele><time>2026-04-13T17:54:33.673Z</time></trkpt><trkpt lat="40.8699817" lon="14.186795"><ele>379.0</ele><time>2026-04-13T17:54:36.674Z</time></trkpt><trkpt lat="40.8699" lon="14.1868067"><ele>380.0</ele><time>2026-04-13T17:54:39.673Z</time></trkpt><trkpt lat="40.8698217" lon="14.1868267"><ele>381.0</ele><time>2026-04-13T17:54:42.674Z</time></trkpt><trkpt lat="40.869755" lon="14.1868317"><ele>382.0</ele><time>2026-04-13T17:54:44.674Z</time></trkpt><trkpt lat="40.8696683" lon="14.18684"><ele>383.0</ele><time>2026-04-13T17:54:47.674Z</time></trkpt><trkpt lat="40.86958" lon="14.186825"><ele>384.00000000000006</ele><time>2026-04-13T17:54:50.673Z</time></trkpt><trkpt lat="40.869505" lon="14.1867867"><ele>385.0</ele><time>2026-04-13T17:54:53.675Z</time></trkpt><trkpt lat="40.8694217" lon="14.18673"><ele>385.0</ele><time>2026-04-13T17:54:56.674Z</time></trkpt><trkpt lat="40.8693617" lon="14.186685"><ele>385.0</ele><time>2026-04-13T17:54:58.674Z</time></trkpt><trkpt lat="40.869305" lon="14.1866433"><ele>385.0</ele><time>2026-04-13T17:55:00.673Z</time></trkpt><trkpt lat="40.8692483" lon="14.1865967"><ele>385.0</ele><time>2026-04-13T17:55:02.674Z</time></trkpt><trkpt lat="40.8691633" lon="14.186545"><ele>385.0</ele><time>2026-04-13T17:55:05.674Z</time></trkpt><trkpt lat="40.8691033" lon="14.1865167"><ele>385.0</ele><time>2026-04-13T17:55:07.674Z</time></trkpt><trkpt lat="40.8690317" lon="14.1864867"><ele>385.0</ele><time>2026-04-13T17:55:09.673Z</time></trkpt><trkpt lat="40.868965" lon="14.1864617"><ele>384.7142857142857</ele><time>2026-04-13T17:55:11.674Z</time></trkpt><trkpt lat="40.8688733" lon="14.1864367"><ele>384.42857142857144</ele><time>2026-04-13T17:55:14.674Z</time></trkpt><trkpt lat="40.86881" lon="14.18643"><ele>384.1428571428571</ele><time>2026-04-13T17:55:16.674Z</time></trkpt><trkpt lat="40.8687267" lon="14.1864383"><ele>383.8571428571429</ele><time>2026-04-13T17:55:19.675Z</time></trkpt><trkpt lat="40.8686617" lon="14.18644"><ele>383.57142857142856</ele><time>2026-04-13T17:55:22.674Z</time></trkpt><trkpt lat="40.8685933" lon="14.18645"><ele>383.2857142857143</ele><time>2026-04-13T17:55:25.674Z</time></trkpt><trkpt lat="40.8685317" lon="14.1864767"><ele>383.0</ele><time>2026-04-13T17:55:28.673Z</time></trkpt><trkpt lat="40.8684717" lon="14.186515"><ele>385.33333333333337</ele><time>2026-04-13T17:55:32.674Z</time></trkpt><trkpt lat="40.8684017" lon="14.186515"><ele>387.6666666666667</ele><time>2026-04-13T17:55:37.673Z</time></trkpt><trkpt lat="40.8683383" lon="14.18653"><ele>390.0</ele><time>2026-04-13T17:55:40.672Z</time></trkpt><trkpt lat="40.8682733" lon="14.1865483"><ele>392.33333333333337</ele><time>2026-04-13T17:55:43.674Z</time></trkpt><trkpt lat="40.86819" lon="14.186555"><ele>394.6666666666667</ele><time>2026-04-13T17:55:46.673Z</time></trkpt><trkpt lat="40.86811" lon="14.1865683"><ele>397.0</ele><time>2026-04-13T17:55:49.673Z</time></trkpt><trkpt lat="40.8680283" lon="14.1866433"><ele>397.00000000000006</ele><time>2026-04-13T17:55:52.672Z</time></trkpt><trkpt lat="40.8679683" lon="14.18672"><ele>397.0</ele><time>2026-04-13T17:55:54.674Z</time></trkpt><trkpt lat="40.86792" lon="14.1867933"><ele>397.0</ele><time>2026-04-13T17:55:56.673Z</time></trkpt><trkpt lat="40.86787" lon="14.1868567"><ele>397.0</ele><time>2026-04-13T17:55:58.674Z</time></trkpt><trkpt lat="40.867815" lon="14.186935"><ele>397.00000000000006</ele><time>2026-04-13T17:56:00.673Z</time></trkpt><trkpt lat="40.867755" lon="14.1870067"><ele>397.0</ele><time>2026-04-13T17:56:02.673Z</time></trkpt><trkpt lat="40.8676933" lon="14.1870717"><ele>397.00000000000006</ele><time>2026-04-13T17:56:04.673Z</time></trkpt><trkpt lat="40.867635" lon="14.187135"><ele>397.0</ele><time>2026-04-13T17:56:06.673Z</time></trkpt><trkpt lat="40.8675817" lon="14.1871867"><ele>397.0</ele><time>2026-04-13T17:56:08.672Z</time></trkpt><trkpt lat="40.8675217" lon="14.1872567"><ele>397.0</ele><time>2026-04-13T17:56:10.673Z</time></trkpt><trkpt lat="40.8674667" lon="14.1873033"><ele>397.00000000000006</ele><time>2026-04-13T17:56:12.673Z</time></trkpt><trkpt lat="40.867385" lon="14.1873767"><ele>397.0</ele><time>2026-04-13T17:56:15.673Z</time></trkpt><trkpt lat="40.8673283" lon="14.1874167"><ele>398.00000000000006</ele><time>2026-04-13T17:56:17.674Z</time></trkpt><trkpt lat="40.8672683" lon="14.187455"><ele>399.0</ele><time>2026-04-13T17:56:19.674Z</time></trkpt><trkpt lat="40.86719" lon="14.187485"><ele>400.0</ele><time>2026-04-13T17:56:22.673Z</time></trkpt><trkpt lat="40.8671083" lon="14.18752"><ele>401.0</ele><time>2026-04-13T17:56:26.673Z</time></trkpt><trkpt lat="40.86704" lon="14.18754"><ele>402.00000000000006</ele><time>2026-04-13T17:56:29.674Z</time></trkpt><trkpt lat="40.86696" lon="14.1875633"><ele>403.0</ele><time>2026-04-13T17:56:32.673Z</time></trkpt><trkpt lat="40.8668967" lon="14.1875767"><ele>403.0</ele><time>2026-04-13T17:56:35.674Z</time></trkpt><trkpt lat="40.8668267" lon="14.1875833"><ele>403.0</ele><time>2026-04-13T17:56:38.674Z</time></trkpt><trkpt lat="40.8667683" lon="14.187625"><ele>403.0</ele><time>2026-04-13T17:56:42.673Z</time></trkpt><trkpt lat="40.8666967" lon="14.1876867"><ele>403.0</ele><time>2026-04-13T17:56:46.673Z</time></trkpt><trkpt lat="40.86665" lon="14.1877467"><ele>403.0</ele><time>2026-04-13T17:56:49.673Z</time></trkpt><trkpt lat="40.8665917" lon="14.1878267"><ele>403.0</ele><time>2026-04-13T17:56:52.673Z</time></trkpt><trkpt lat="40.86654" lon="14.18789"><ele>403.0</ele><time>2026-04-13T17:56:54.674Z</time></trkpt><trkpt lat="40.8664783" lon="14.1879767"><ele>403.2857142857143</ele><time>2026-04-13T17:56:57.674Z</time></trkpt><trkpt lat="40.8664417" lon="14.188075"><ele>403.57142857142856</ele><time>2026-04-13T17:57:00.673Z</time></trkpt><trkpt lat="40.8664167" lon="14.188165"><ele>403.85714285714283</ele><time>2026-04-13T17:57:03.673Z</time></trkpt><trkpt lat="40.86638" lon="14.1882617"><ele>404.1428571428571</ele><time>2026-04-13T17:57:06.674Z</time></trkpt><trkpt lat="40.86634" lon="14.18833"><ele>404.42857142857144</ele><time>2026-04-13T17:57:09.673Z</time></trkpt><trkpt lat="40.86631" lon="14.188405"><ele>404.71428571428567</ele><time>2026-04-13T17:57:12.673Z</time></trkpt><trkpt lat="40.8662733" lon="14.1884833"><ele>405.0</ele><time>2026-04-13T17:57:15.674Z</time></trkpt><trkpt lat="40.8662417" lon="14.1885683"><ele>406.0</ele><time>2026-04-13T17:57:18.673Z</time></trkpt><trkpt lat="40.8662133" lon="14.1886567"><ele>407.0</ele><time>2026-04-13T17:57:21.673Z</time></trkpt><trkpt lat="40.8661767" lon="14.18874"><ele>408.0</ele><time>2026-04-13T17:57:24.674Z</time></trkpt><trkpt lat="40.86613" lon="14.1888317"><ele>409.0</ele><time>2026-04-13T17:57:27.673Z</time></trkpt><trkpt lat="40.8660817" lon="14.1889133"><ele>410.0</ele><time>2026-04-13T17:57:30.674Z</time></trkpt><trkpt lat="40.866025" lon="14.1890167"><ele>411.0</ele><time>2026-04-13T17:57:33.673Z</time></trkpt><trkpt lat="40.8659767" lon="14.189095"><ele>411.8333333333333</ele><time>2026-04-13T17:57:36.673Z</time></trkpt><trkpt lat="40.86593" lon="14.1891783"><ele>412.66666666666663</ele><time>2026-04-13T17:57:39.674Z</time></trkpt><trkpt lat="40.86586" lon="14.1892317"><ele>413.5</ele><time>2026-04-13T17:57:42.674Z</time></trkpt><trkpt lat="40.8658067" lon="14.1892783"><ele>414.3333333333333</ele><time>2026-04-13T17:57:44.673Z</time></trkpt><trkpt lat="40.8657383" lon="14.18933"><ele>415.16666666666663</ele><time>2026-04-13T17:57:46.673Z</time></trkpt><trkpt lat="40.865665" lon="14.189375"><ele>416.0</ele><time>2026-04-13T17:57:48.673Z</time></trkpt><trkpt lat="40.865595" lon="14.1894317"><ele>416.0</ele><time>2026-04-13T17:57:50.672Z</time></trkpt><trkpt lat="40.865535" lon="14.1894783"><ele>416.0</ele><time>2026-04-13T17:57:52.673Z</time></trkpt><trkpt lat="40.86547" lon="14.189495"><ele>416.0</ele><time>2026-04-13T17:57:54.673Z</time></trkpt><trkpt lat="40.86539" lon="14.18951"><ele>416.0</ele><time>2026-04-13T17:57:57.674Z</time></trkpt><trkpt lat="40.86532" lon="14.1895283"><ele>416.0</ele><time>2026-04-13T17:58:00.672Z</time></trkpt><trkpt lat="40.86523" lon="14.1895683"><ele>416.0</ele><time>2026-04-13T17:58:03.673Z</time></trkpt><trkpt lat="40.8651683" lon="14.1895967"><ele>416.0</ele><time>2026-04-13T17:58:05.675Z</time></trkpt><trkpt lat="40.86511" lon="14.1896417"><ele>416.49999999999994</ele><time>2026-04-13T17:58:07.674Z</time></trkpt><trkpt lat="40.8650517" lon="14.1896867"><ele>417.0</ele><time>2026-04-13T17:58:09.673Z</time></trkpt><trkpt lat="40.8649917" lon="14.189725"><ele>417.5</ele><time>2026-04-13T17:58:11.673Z</time></trkpt><trkpt lat="40.8649083" lon="14.1897733"><ele>418.0</ele><time>2026-04-13T17:58:14.674Z</time></trkpt><trkpt lat="40.8648383" lon="14.1898283"><ele>418.49999999999994</ele><time>2026-04-13T17:58:16.674Z</time></trkpt><trkpt lat="40.86478" lon="14.189885"><ele>419.0</ele><time>2026-04-13T17:58:18.675Z</time></trkpt><trkpt lat="40.8647117" lon="14.1899533"><ele>418.99999999999994</ele><time>2026-04-13T17:58:20.673Z</time></trkpt><trkpt lat="40.8646483" lon="14.1900317"><ele>419.0</ele><time>2026-04-13T17:58:22.673Z</time></trkpt><trkpt lat="40.8646033" lon="14.1901183"><ele>419.0</ele><time>2026-04-13T17:58:24.674Z</time></trkpt><trkpt lat="40.8645483" lon="14.1901917"><ele>419.0</ele><time>2026-04-13T17:58:26.673Z</time></trkpt><trkpt lat="40.8644683" lon="14.190255"><ele>418.99999999999994</ele><time>2026-04-13T17:58:29.674Z</time></trkpt><trkpt lat="40.8643967" lon="14.1903017"><ele>419.0</ele><time>2026-04-13T17:58:32.673Z</time></trkpt><trkpt lat="40.86434" lon="14.1903417"><ele>420.66666666666663</ele><time>2026-04-13T17:58:34.673Z</time></trkpt><trkpt lat="40.8642733" lon="14.1903717"><ele>422.3333333333333</ele><time>2026-04-13T17:58:36.673Z</time></trkpt><trkpt lat="40.86421" lon="14.190405"><ele>424.0</ele><time>2026-04-13T17:58:38.672Z</time></trkpt><trkpt lat="40.8641267" lon="14.1904433"><ele>425.66666666666663</ele><time>2026-04-13T17:58:41.673Z</time></trkpt><trkpt lat="40.8640483" lon="14.19049"><ele>427.3333333333333</ele><time>2026-04-13T17:58:44.673Z</time></trkpt><trkpt lat="40.8639633" lon="14.1905"><ele>429.0</ele><time>2026-04-13T17:58:48.673Z</time></trkpt><trkpt lat="40.8638983" lon="14.19051"><ele>429.0</ele><time>2026-04-13T17:58:50.674Z</time></trkpt><trkpt lat="40.8638267" lon="14.190545"><ele>429.0</ele><time>2026-04-13T17:58:53.676Z</time></trkpt><trkpt lat="40.8637483" lon="14.1905867"><ele>429.0</ele><time>2026-04-13T17:58:56.675Z</time></trkpt><trkpt lat="40.8636683" lon="14.19061"><ele>429.0</ele><time>2026-04-13T17:58:59.674Z</time></trkpt><trkpt lat="40.8635933" lon="14.1906333"><ele>429.0</ele><time>2026-04-13T17:59:02.673Z</time></trkpt><trkpt lat="40.86353" lon="14.190645"><ele>429.0</ele><time>2026-04-13T17:59:05.673Z</time></trkpt><trkpt lat="40.8634583" lon="14.190655"><ele>429.7142857142857</ele><time>2026-04-13T17:59:08.673Z</time></trkpt><trkpt lat="40.86338" lon="14.1906667"><ele>430.42857142857144</ele><time>2026-04-13T17:59:11.673Z</time></trkpt><trkpt lat="40.863315" lon="14.19068"><ele>431.1428571428571</ele><time>2026-04-13T17:59:14.674Z</time></trkpt><trkpt lat="40.8632633" lon="14.19074"><ele>431.8571428571429</ele><time>2026-04-13T17:59:17.674Z</time></trkpt><trkpt lat="40.8632233" lon="14.1908183"><ele>432.57142857142856</ele><time>2026-04-13T17:59:20.674Z</time></trkpt><trkpt lat="40.863205" lon="14.1909033"><ele>433.2857142857143</ele><time>2026-04-13T17:59:23.674Z</time></trkpt><trkpt lat="40.8631767" lon="14.1909983"><ele>434.0</ele><time>2026-04-13T17:59:27.673Z</time></trkpt><trkpt lat="40.86313" lon="14.1910567"><ele>433.99999999999994</ele><time>2026-04-13T17:59:29.673Z</time></trkpt><trkpt lat="40.8630783" lon="14.19112"><ele>434.0</ele><time>2026-04-13T17:59:31.674Z</time></trkpt><trkpt lat="40.8630133" lon="14.1911733"><ele>434.0</ele><time>2026-04-13T17:59:34.673Z</time></trkpt><trkpt lat="40.8629383" lon="14.1911967"><ele>434.0</ele><time>2026-04-13T17:59:37.674Z</time></trkpt><trkpt lat="40.862845" lon="14.191175"><ele>433.99999999999994</ele><time>2026-04-13T17:59:41.674Z</time></trkpt><trkpt lat="40.8627833" lon="14.19113"><ele>434.0</ele><time>2026-04-13T17:59:44.674Z</time></trkpt><trkpt lat="40.8627183" lon="14.1910967"><ele>433.99999999999994</ele><time>2026-04-13T17:59:47.675Z</time></trkpt><trkpt lat="40.862635" lon="14.1910483"><ele>434.0</ele><time>2026-04-13T17:59:50.674Z</time></trkpt><trkpt lat="40.86258" lon="14.1909833"><ele>434.0</ele><time>2026-04-13T17:59:52.674Z</time></trkpt><trkpt lat="40.8625233" lon="14.1909367"><ele>434.0</ele><time>2026-04-13T17:59:54.674Z</time></trkpt><trkpt lat="40.8624333" lon="14.1909067"><ele>433.99999999999994</ele><time>2026-04-13T17:59:57.675Z</time></trkpt><trkpt lat="40.86235" lon="14.1909033"><ele>434.0</ele><time>2026-04-13T17:59:59.674Z</time></trkpt><trkpt lat="40.8622767" lon="14.1909"><ele>434.7142857142857</ele><time>2026-04-13T18:00:01.674Z</time></trkpt><trkpt lat="40.86221" lon="14.1909067"><ele>435.42857142857144</ele><time>2026-04-13T18:00:03.674Z</time></trkpt><trkpt lat="40.8621433" lon="14.190925"><ele>436.1428571428571</ele><time>2026-04-13T18:00:05.675Z</time></trkpt><trkpt lat="40.8620817" lon="14.190955"><ele>436.8571428571429</ele><time>2026-04-13T18:00:07.675Z</time></trkpt><trkpt lat="40.862015" lon="14.19102"><ele>437.57142857142856</ele><time>2026-04-13T18:00:09.675Z</time></trkpt><trkpt lat="40.8619767" lon="14.1910983"><ele>438.2857142857143</ele><time>2026-04-13T18:00:11.674Z</time></trkpt><trkpt lat="40.8619433" lon="14.1911783"><ele>439.0</ele><time>2026-04-13T18:00:13.675Z</time></trkpt><trkpt lat="40.86191" lon="14.191275"><ele>439.00000000000006</ele><time>2026-04-13T18:00:16.674Z</time></trkpt><trkpt lat="40.8618733" lon="14.1913817"><ele>439.0</ele><time>2026-04-13T18:00:19.674Z</time></trkpt><trkpt lat="40.8618183" lon="14.1914583"><ele>439.0</ele><time>2026-04-13T18:00:22.674Z</time></trkpt><trkpt lat="40.86176" lon="14.1914983"><ele>439.0</ele><time>2026-04-13T18:00:24.674Z</time></trkpt><trkpt lat="40.8616683" lon="14.1915217"><ele>439.00000000000006</ele><time>2026-04-13T18:00:27.675Z</time></trkpt><trkpt lat="40.8615833" lon="14.1915283"><ele>439.0</ele><time>2026-04-13T18:00:30.675Z</time></trkpt><trkpt lat="40.8615033" lon="14.1915067"><ele>440.1666666666667</ele><time>2026-04-13T18:00:33.674Z</time></trkpt><trkpt lat="40.8614333" lon="14.1914883"><ele>441.33333333333337</ele><time>2026-04-13T18:00:36.674Z</time></trkpt><trkpt lat="40.8613617" lon="14.191505"><ele>442.5</ele><time>2026-04-13T18:00:39.674Z</time></trkpt><trkpt lat="40.8612833" lon="14.1915167"><ele>443.66666666666663</ele><time>2026-04-13T18:00:42.675Z</time></trkpt><trkpt lat="40.8612167" lon="14.191525"><ele>444.8333333333333</ele><time>2026-04-13T18:00:44.674Z</time></trkpt><trkpt lat="40.861125" lon="14.191535"><ele>446.0</ele><time>2026-04-13T18:00:47.674Z</time></trkpt><trkpt lat="40.8610283" lon="14.1915233"><ele>445.99999999999994</ele><time>2026-04-13T18:00:50.674Z</time></trkpt><trkpt lat="40.86096" lon="14.1915117"><ele>446.0</ele><time>2026-04-13T18:00:52.675Z</time></trkpt><trkpt lat="40.860885" lon="14.1915017"><ele>446.0</ele><time>2026-04-13T18:00:54.675Z</time></trkpt><trkpt lat="40.8607933" lon="14.1914817"><ele>446.0</ele><time>2026-04-13T18:00:57.674Z</time></trkpt><trkpt lat="40.8607" lon="14.1914633"><ele>445.99999999999994</ele><time>2026-04-13T18:01:00.674Z</time></trkpt><trkpt lat="40.8606333" lon="14.1914567"><ele>446.0</ele><time>2026-04-13T18:01:02.674Z</time></trkpt><trkpt lat="40.8605717" lon="14.1914383"><ele>445.99999999999994</ele><time>2026-04-13T18:01:04.675Z</time></trkpt><trkpt lat="40.8604883" lon="14.191415"><ele>446.0</ele><time>2026-04-13T18:01:07.675Z</time></trkpt><trkpt lat="40.8604117" lon="14.19139"><ele>446.0</ele><time>2026-04-13T18:01:10.674Z</time></trkpt><trkpt lat="40.8603283" lon="14.1913867"><ele>446.0</ele><time>2026-04-13T18:01:13.674Z</time></trkpt><trkpt lat="40.860235" lon="14.1913717"><ele>445.99999999999994</ele><time>2026-04-13T18:01:16.674Z</time></trkpt><trkpt lat="40.860165" lon="14.1913617"><ele>446.0</ele><time>2026-04-13T18:01:18.675Z</time></trkpt><trkpt lat="40.86009" lon="14.1913683"><ele>444.85714285714283</ele><time>2026-04-13T18:01:20.676Z</time></trkpt><trkpt lat="40.8600183" lon="14.191375"><ele>443.71428571428567</ele><time>2026-04-13T18:01:22.677Z</time></trkpt><trkpt lat="40.8599517" lon="14.19138"><ele>442.57142857142856</ele><time>2026-04-13T18:01:24.674Z</time></trkpt><trkpt lat="40.8598883" lon="14.19139"><ele>441.42857142857144</ele><time>2026-04-13T18:01:26.673Z</time></trkpt><trkpt lat="40.8597967" lon="14.1914283"><ele>440.2857142857143</ele><time>2026-04-13T18:01:29.673Z</time></trkpt><trkpt lat="40.859725" lon="14.1914683"><ele>439.14285714285717</ele><time>2026-04-13T18:01:31.673Z</time></trkpt><trkpt lat="40.8596533" lon="14.1914867"><ele>438.0</ele><time>2026-04-13T18:01:33.675Z</time></trkpt><trkpt lat="40.8595767" lon="14.1915033"><ele>437.42857142857144</ele><time>2026-04-13T18:01:35.674Z</time></trkpt><trkpt lat="40.8595067" lon="14.19153"><ele>436.85714285714283</ele><time>2026-04-13T18:01:37.674Z</time></trkpt><trkpt lat="40.8594467" lon="14.19156"><ele>436.2857142857143</ele><time>2026-04-13T18:01:39.673Z</time></trkpt><trkpt lat="40.8593817" lon="14.191575"><ele>435.7142857142857</ele><time>2026-04-13T18:01:41.675Z</time></trkpt><trkpt lat="40.8593133" lon="14.191575"><ele>435.1428571428571</ele><time>2026-04-13T18:01:43.676Z</time></trkpt><trkpt lat="40.8592383" lon="14.19156"><ele>434.57142857142856</ele><time>2026-04-13T18:01:45.674Z</time></trkpt><trkpt lat="40.8591617" lon="14.1915317"><ele>434.0</ele><time>2026-04-13T18:01:47.674Z</time></trkpt><trkpt lat="40.8590983" lon="14.1914967"><ele>434.0</ele><time>2026-04-13T18:01:49.674Z</time></trkpt><trkpt lat="40.8590167" lon="14.1914817"><ele>434.0</ele><time>2026-04-13T18:01:52.673Z</time></trkpt><trkpt lat="40.8589679" lon="14.1915389"><ele>434.0</ele><time>2026-04-13T18:02:55.796Z</time></trkpt><trkpt lat="40.8589734" lon="14.1914529"><ele>434.0</ele><time>2026-04-13T18:05:34.793Z</time></trkpt><trkpt lat="40.8590444" lon="14.1914852"><ele>434.0</ele><time>2026-04-13T18:10:39.742Z</time></trkpt><trkpt lat="40.8591081" lon="14.1915363"><ele>434.0</ele><time>2026-04-13T18:10:41.757Z</time></trkpt><trkpt lat="40.8591715" lon="14.1915309"><ele>434.0</ele><time>2026-04-13T18:10:44.709Z</time></trkpt><trkpt lat="40.8592933" lon="14.1916117"><ele>438.5</ele><time>2026-04-13T18:10:45.673Z</time></trkpt><trkpt lat="40.859415" lon="14.1916183"><ele>443.0</ele><time>2026-04-13T18:10:47.673Z</time></trkpt><trkpt lat="40.85953" lon="14.1915917"><ele>447.5</ele><time>2026-04-13T18:10:49.674Z</time></trkpt><trkpt lat="40.8596417" lon="14.191555"><ele>452.0</ele><time>2026-04-13T18:10:51.673Z</time></trkpt><trkpt lat="40.85975" lon="14.1915233"><ele>450.8</ele><time>2026-04-13T18:10:53.674Z</time></trkpt><trkpt lat="40.8598567" lon="14.1914833"><ele>449.6</ele><time>2026-04-13T18:10:55.674Z</time></trkpt><trkpt lat="40.8599567" lon="14.1914583"><ele>448.40000000000003</ele><time>2026-04-13T18:10:57.673Z</time></trkpt><trkpt lat="40.8600517" lon="14.19144"><ele>447.20000000000005</ele><time>2026-04-13T18:10:59.673Z</time></trkpt><trkpt lat="40.8601433" lon="14.1914433"><ele>446.0</ele><time>2026-04-13T18:11:01.675Z</time></trkpt><trkpt lat="40.860235" lon="14.191455"><ele>446.0</ele><time>2026-04-13T18:11:03.674Z</time></trkpt><trkpt lat="40.8603217" lon="14.191475"><ele>446.0</ele><time>2026-04-13T18:11:05.674Z</time></trkpt><trkpt lat="40.860415" lon="14.19149"><ele>446.0</ele><time>2026-04-13T18:11:07.675Z</time></trkpt><trkpt lat="40.86052" lon="14.191535"><ele>446.0</ele><time>2026-04-13T18:11:09.673Z</time></trkpt><trkpt lat="40.8606267" lon="14.1915867"><ele>446.0</ele><time>2026-04-13T18:11:11.673Z</time></trkpt><trkpt lat="40.86069" lon="14.1916"><ele>446.0</ele><time>2026-04-13T18:11:12.674Z</time></trkpt><trkpt lat="40.8607517" lon="14.1916183"><ele>446.0</ele><time>2026-04-13T18:11:13.674Z</time></trkpt><trkpt lat="40.8608183" lon="14.1916383"><ele>446.0</ele><time>2026-04-13T18:11:14.674Z</time></trkpt><trkpt lat="40.860885" lon="14.1916583"><ele>446.0</ele><time>2026-04-13T18:11:15.673Z</time></trkpt><trkpt lat="40.860955" lon="14.19167"><ele>446.0</ele><time>2026-04-13T18:11:16.673Z</time></trkpt><trkpt lat="40.86103" lon="14.1916767"><ele>446.0</ele><time>2026-04-13T18:11:17.673Z</time></trkpt><trkpt lat="40.8611067" lon="14.1916733"><ele>446.0</ele><time>2026-04-13T18:11:18.674Z</time></trkpt><trkpt lat="40.8611883" lon="14.19166"><ele>445.99999999999994</ele><time>2026-04-13T18:11:19.674Z</time></trkpt><trkpt lat="40.8612633" lon="14.1916467"><ele>446.0</ele><time>2026-04-13T18:11:20.673Z</time></trkpt><trkpt lat="40.861345" lon="14.1916367"><ele>446.0</ele><time>2026-04-13T18:11:21.674Z</time></trkpt><trkpt lat="40.86143" lon="14.1916433"><ele>446.0</ele><time>2026-04-13T18:11:22.675Z</time></trkpt><trkpt lat="40.861515" lon="14.1916633"><ele>445.99999999999994</ele><time>2026-04-13T18:11:23.674Z</time></trkpt><trkpt lat="40.8616" lon="14.1916817"><ele>446.0</ele><time>2026-04-13T18:11:24.673Z</time></trkpt><trkpt lat="40.8616817" lon="14.191685"><ele>445.99999999999994</ele><time>2026-04-13T18:11:25.674Z</time></trkpt><trkpt lat="40.86176" lon="14.1916717"><ele>446.0</ele><time>2026-04-13T18:11:26.673Z</time></trkpt><trkpt lat="40.8618333" lon="14.1916317"><ele>446.0</ele><time>2026-04-13T18:11:27.673Z</time></trkpt><trkpt lat="40.8619033" lon="14.1915667"><ele>446.0</ele><time>2026-04-13T18:11:28.675Z</time></trkpt><trkpt lat="40.8619683" lon="14.1914833"><ele>445.99999999999994</ele><time>2026-04-13T18:11:29.675Z</time></trkpt><trkpt lat="40.8619967" lon="14.1913633"><ele>446.0</ele><time>2026-04-13T18:11:30.673Z</time></trkpt><trkpt lat="40.8620533" lon="14.191275"><ele>444.8333333333333</ele><time>2026-04-13T18:11:31.673Z</time></trkpt><trkpt lat="40.862095" lon="14.191175"><ele>443.66666666666663</ele><time>2026-04-13T18:11:32.673Z</time></trkpt><trkpt lat="40.8621433" lon="14.1910933"><ele>442.5</ele><time>2026-04-13T18:11:33.674Z</time></trkpt><trkpt lat="40.8622017" lon="14.1910217"><ele>441.33333333333337</ele><time>2026-04-13T18:11:34.673Z</time></trkpt><trkpt lat="40.862275" lon="14.1909733"><ele>440.1666666666667</ele><time>2026-04-13T18:11:35.675Z</time></trkpt><trkpt lat="40.8623717" lon="14.19096"><ele>439.0</ele><time>2026-04-13T18:11:36.674Z</time></trkpt><trkpt lat="40.862465" lon="14.1909683"><ele>439.00000000000006</ele><time>2026-04-13T18:11:37.674Z</time></trkpt><trkpt lat="40.86255" lon="14.1910117"><ele>439.0</ele><time>2026-04-13T18:11:38.673Z</time></trkpt><trkpt lat="40.8626333" lon="14.1910583"><ele>439.0</ele><time>2026-04-13T18:11:39.674Z</time></trkpt><trkpt lat="40.8627083" lon="14.1911067"><ele>439.0</ele><time>2026-04-13T18:11:40.673Z</time></trkpt><trkpt lat="40.8627767" lon="14.1911683"><ele>439.00000000000006</ele><time>2026-04-13T18:11:41.674Z</time></trkpt><trkpt lat="40.8628383" lon="14.19122"><ele>439.0</ele><time>2026-04-13T18:11:42.673Z</time></trkpt><trkpt lat="40.8629" lon="14.1912767"><ele>438.2857142857143</ele><time>2026-04-13T18:11:43.673Z</time></trkpt><trkpt lat="40.8629567" lon="14.1913233"><ele>437.57142857142856</ele><time>2026-04-13T18:11:44.674Z</time></trkpt><trkpt lat="40.86303" lon="14.19133"><ele>436.8571428571429</ele><time>2026-04-13T18:11:45.674Z</time></trkpt><trkpt lat="40.8630933" lon="14.191295"><ele>436.1428571428571</ele><time>2026-04-13T18:11:46.674Z</time></trkpt><trkpt lat="40.863155" lon="14.1912433"><ele>435.42857142857144</ele><time>2026-04-13T18:11:47.673Z</time></trkpt><trkpt lat="40.8632033" lon="14.1911617"><ele>434.7142857142857</ele><time>2026-04-13T18:11:48.674Z</time></trkpt><trkpt lat="40.8632383" lon="14.19107"><ele>434.0</ele><time>2026-04-13T18:11:49.673Z</time></trkpt><trkpt lat="40.863285" lon="14.1909933"><ele>433.99999999999994</ele><time>2026-04-13T18:11:50.674Z</time></trkpt><trkpt lat="40.8633367" lon="14.190905"><ele>434.0</ele><time>2026-04-13T18:11:51.674Z</time></trkpt><trkpt lat="40.8633967" lon="14.1908533"><ele>434.0</ele><time>2026-04-13T18:11:52.673Z</time></trkpt><trkpt lat="40.8634683" lon="14.1908117"><ele>434.0</ele><time>2026-04-13T18:11:53.673Z</time></trkpt><trkpt lat="40.8635433" lon="14.19078"><ele>433.99999999999994</ele><time>2026-04-13T18:11:54.673Z</time></trkpt><trkpt lat="40.86362" lon="14.1907567"><ele>434.0</ele><time>2026-04-13T18:11:55.674Z</time></trkpt><trkpt lat="40.8636833" lon="14.1907333"><ele>433.16666666666663</ele><time>2026-04-13T18:11:56.673Z</time></trkpt><trkpt lat="40.86376" lon="14.1907017"><ele>432.3333333333333</ele><time>2026-04-13T18:11:57.673Z</time></trkpt><trkpt lat="40.863835" lon="14.19067"><ele>431.5</ele><time>2026-04-13T18:11:58.674Z</time></trkpt><trkpt lat="40.8639167" lon="14.1906333"><ele>430.66666666666663</ele><time>2026-04-13T18:11:59.673Z</time></trkpt><trkpt lat="40.8639917" lon="14.1905983"><ele>429.8333333333333</ele><time>2026-04-13T18:12:00.673Z</time></trkpt><trkpt lat="40.864065" lon="14.19057"><ele>429.0</ele><time>2026-04-13T18:12:01.675Z</time></trkpt><trkpt lat="40.8641283" lon="14.19054"><ele>429.0</ele><time>2026-04-13T18:12:02.674Z</time></trkpt><trkpt lat="40.8642317" lon="14.1904883"><ele>429.0</ele><time>2026-04-13T18:12:04.674Z</time></trkpt><trkpt lat="40.8643333" lon="14.1904433"><ele>429.0</ele><time>2026-04-13T18:12:06.674Z</time></trkpt><trkpt lat="40.8644517" lon="14.1903667"><ele>429.0</ele><time>2026-04-13T18:12:08.674Z</time></trkpt><trkpt lat="40.86451" lon="14.1903183"><ele>429.0</ele><time>2026-04-13T18:12:09.673Z</time></trkpt><trkpt lat="40.8645683" lon="14.190255"><ele>427.57142857142856</ele><time>2026-04-13T18:12:10.673Z</time></trkpt><trkpt lat="40.86462" lon="14.1901867"><ele>426.14285714285717</ele><time>2026-04-13T18:12:11.673Z</time></trkpt><trkpt lat="40.864675" lon="14.1901283"><ele>424.71428571428567</ele><time>2026-04-13T18:12:12.673Z</time></trkpt><trkpt lat="40.86473" lon="14.1900617"><ele>423.2857142857143</ele><time>2026-04-13T18:12:13.674Z</time></trkpt><trkpt lat="40.8647833" lon="14.1899967"><ele>421.85714285714283</ele><time>2026-04-13T18:12:14.674Z</time></trkpt><trkpt lat="40.8648517" lon="14.1899517"><ele>420.4285714285714</ele><time>2026-04-13T18:12:15.673Z</time></trkpt><trkpt lat="40.8649217" lon="14.1899083"><ele>419.0</ele><time>2026-04-13T18:12:16.673Z</time></trkpt><trkpt lat="40.8649933" lon="14.18987"><ele>418.99999999999994</ele><time>2026-04-13T18:12:17.674Z</time></trkpt><trkpt lat="40.8650667" lon="14.1898267"><ele>419.0</ele><time>2026-04-13T18:12:18.676Z</time></trkpt><trkpt lat="40.8651417" lon="14.18978"><ele>419.0</ele><time>2026-04-13T18:12:19.675Z</time></trkpt><trkpt lat="40.8652167" lon="14.1897367"><ele>419.0</ele><time>2026-04-13T18:12:20.675Z</time></trkpt><trkpt lat="40.8652767" lon="14.1897083"><ele>418.99999999999994</ele><time>2026-04-13T18:12:21.674Z</time></trkpt><trkpt lat="40.8653933" lon="14.1896717"><ele>419.0</ele><time>2026-04-13T18:12:23.673Z</time></trkpt><trkpt lat="40.8655083" lon="14.1896467"><ele>418.49999999999994</ele><time>2026-04-13T18:12:25.674Z</time></trkpt><trkpt lat="40.86563" lon="14.1896317"><ele>418.0</ele><time>2026-04-13T18:12:27.673Z</time></trkpt><trkpt lat="40.865695" lon="14.189635"><ele>417.5</ele><time>2026-04-13T18:12:28.674Z</time></trkpt><trkpt lat="40.8657633" lon="14.1896383"><ele>417.0</ele><time>2026-04-13T18:12:29.675Z</time></trkpt><trkpt lat="40.86583" lon="14.1896417"><ele>416.49999999999994</ele><time>2026-04-13T18:12:30.674Z</time></trkpt><trkpt lat="40.8658967" lon="14.1896467"><ele>416.0</ele><time>2026-04-13T18:12:31.673Z</time></trkpt><trkpt lat="40.8659667" lon="14.18965"><ele>415.2857142857143</ele><time>2026-04-13T18:12:32.674Z</time></trkpt><trkpt lat="40.86604" lon="14.18965"><ele>414.5714285714286</ele><time>2026-04-13T18:12:33.673Z</time></trkpt><trkpt lat="40.8661117" lon="14.1896517"><ele>413.8571428571429</ele><time>2026-04-13T18:12:34.673Z</time></trkpt><trkpt lat="40.8661833" lon="14.1896483"><ele>413.1428571428571</ele><time>2026-04-13T18:12:35.674Z</time></trkpt><trkpt lat="40.86625" lon="14.1896617"><ele>412.42857142857144</ele><time>2026-04-13T18:12:36.674Z</time></trkpt><trkpt lat="40.8663217" lon="14.189665"><ele>411.7142857142857</ele><time>2026-04-13T18:12:37.674Z</time></trkpt><trkpt lat="40.866385" lon="14.18968"><ele>411.0</ele><time>2026-04-13T18:12:38.675Z</time></trkpt><trkpt lat="40.8664533" lon="14.1896917"><ele>411.0</ele><time>2026-04-13T18:12:39.674Z</time></trkpt><trkpt lat="40.866535" lon="14.1897017"><ele>411.0</ele><time>2026-04-13T18:12:40.674Z</time></trkpt><trkpt lat="40.8666583" lon="14.1897467"><ele>411.0</ele><time>2026-04-13T18:12:41.674Z</time></trkpt><trkpt lat="40.86674" lon="14.1897567"><ele>411.0</ele><time>2026-04-13T18:12:42.675Z</time></trkpt><trkpt lat="40.8668217" lon="14.189755"><ele>411.0</ele><time>2026-04-13T18:12:43.673Z</time></trkpt><trkpt lat="40.8669017" lon="14.1897583"><ele>410.8333333333333</ele><time>2026-04-13T18:12:44.674Z</time></trkpt><trkpt lat="40.8669783" lon="14.1897617"><ele>410.66666666666663</ele><time>2026-04-13T18:12:45.673Z</time></trkpt><trkpt lat="40.8670583" lon="14.1897633"><ele>410.5</ele><time>2026-04-13T18:12:46.674Z</time></trkpt><trkpt lat="40.8671333" lon="14.1897733"><ele>410.3333333333333</ele><time>2026-04-13T18:12:47.674Z</time></trkpt><trkpt lat="40.8672067" lon="14.1897783"><ele>410.16666666666663</ele><time>2026-04-13T18:12:48.673Z</time></trkpt><trkpt lat="40.8672783" lon="14.1897817"><ele>410.0</ele><time>2026-04-13T18:12:49.673Z</time></trkpt><trkpt lat="40.8673533" lon="14.18978"><ele>410.0</ele><time>2026-04-13T18:12:50.673Z</time></trkpt><trkpt lat="40.8674167" lon="14.18978"><ele>410.0</ele><time>2026-04-13T18:12:51.673Z</time></trkpt><trkpt lat="40.8675317" lon="14.1897917"><ele>410.0</ele><time>2026-04-13T18:12:53.673Z</time></trkpt><trkpt lat="40.8676367" lon="14.1898333"><ele>410.0</ele><time>2026-04-13T18:12:55.674Z</time></trkpt><trkpt lat="40.8677467" lon="14.1899167"><ele>410.0</ele><time>2026-04-13T18:12:57.673Z</time></trkpt><trkpt lat="40.8678033" lon="14.1899717"><ele>407.99999999999994</ele><time>2026-04-13T18:12:58.674Z</time></trkpt><trkpt lat="40.867855" lon="14.1900383"><ele>406.0</ele><time>2026-04-13T18:12:59.674Z</time></trkpt><trkpt lat="40.8678983" lon="14.1901133"><ele>404.0</ele><time>2026-04-13T18:13:00.673Z</time></trkpt><trkpt lat="40.8679333" lon="14.1901867"><ele>402.0</ele><time>2026-04-13T18:13:01.675Z</time></trkpt><trkpt lat="40.8679683" lon="14.1902567"><ele>399.99999999999994</ele><time>2026-04-13T18:13:02.673Z</time></trkpt><trkpt lat="40.8680317" lon="14.1903833"><ele>398.0</ele><time>2026-04-13T18:13:04.673Z</time></trkpt><trkpt lat="40.86809" lon="14.1905117"><ele>398.0</ele><time>2026-04-13T18:13:06.673Z</time></trkpt><trkpt lat="40.8681617" lon="14.19065"><ele>398.0</ele><time>2026-04-13T18:13:08.673Z</time></trkpt><trkpt lat="40.8682" lon="14.1907317"><ele>398.0</ele><time>2026-04-13T18:13:09.673Z</time></trkpt><trkpt lat="40.8682367" lon="14.1908083"><ele>398.0</ele><time>2026-04-13T18:13:10.673Z</time></trkpt><trkpt lat="40.8682733" lon="14.1908767"><ele>398.0</ele><time>2026-04-13T18:13:11.674Z</time></trkpt><trkpt lat="40.8683417" lon="14.1910067"><ele>397.49999999999994</ele><time>2026-04-13T18:13:13.674Z</time></trkpt><trkpt lat="40.868375" lon="14.1910783"><ele>397.0</ele><time>2026-04-13T18:13:14.674Z</time></trkpt><trkpt lat="40.8684133" lon="14.19115"><ele>396.5</ele><time>2026-04-13T18:13:15.674Z</time></trkpt><trkpt lat="40.8684517" lon="14.1912183"><ele>396.0</ele><time>2026-04-13T18:13:16.673Z</time></trkpt><trkpt lat="40.8685217" lon="14.1913383"><ele>395.49999999999994</ele><time>2026-04-13T18:13:18.673Z</time></trkpt><trkpt lat="40.86858" lon="14.1914383"><ele>395.0</ele><time>2026-04-13T18:13:20.673Z</time></trkpt><trkpt lat="40.8686117" lon="14.19154"><ele>392.4</ele><time>2026-04-13T18:13:22.673Z</time></trkpt><trkpt lat="40.8686117" lon="14.1916667"><ele>389.8</ele><time>2026-04-13T18:13:24.673Z</time></trkpt><trkpt lat="40.8685683" lon="14.1917833"><ele>387.20000000000005</ele><time>2026-04-13T18:13:26.674Z</time></trkpt><trkpt lat="40.868555" lon="14.1919167"><ele>384.6</ele><time>2026-04-13T18:13:28.673Z</time></trkpt><trkpt lat="40.868525" lon="14.1920767"><ele>382.0</ele><time>2026-04-13T18:13:30.673Z</time></trkpt><trkpt lat="40.8685017" lon="14.1921717"><ele>382.0</ele><time>2026-04-13T18:13:31.675Z</time></trkpt><trkpt lat="40.868485" lon="14.192265"><ele>382.0</ele><time>2026-04-13T18:13:32.674Z</time></trkpt><trkpt lat="40.8684667" lon="14.1923533"><ele>382.0</ele><time>2026-04-13T18:13:33.674Z</time></trkpt><trkpt lat="40.8684433" lon="14.192445"><ele>382.0</ele><time>2026-04-13T18:13:34.673Z</time></trkpt><trkpt lat="40.8684267" lon="14.1925383"><ele>382.0</ele><time>2026-04-13T18:13:35.673Z</time></trkpt><trkpt lat="40.8684117" lon="14.192635"><ele>382.0</ele><time>2026-04-13T18:13:36.675Z</time></trkpt><trkpt lat="40.8684017" lon="14.1927333"><ele>382.0</ele><time>2026-04-13T18:13:37.674Z</time></trkpt><trkpt lat="40.868405" lon="14.1928333"><ele>382.3333333333333</ele><time>2026-04-13T18:13:38.675Z</time></trkpt><trkpt lat="40.868405" lon="14.1929333"><ele>382.66666666666663</ele><time>2026-04-13T18:13:39.675Z</time></trkpt><trkpt lat="40.868405" lon="14.1930317"><ele>383.0</ele><time>2026-04-13T18:13:40.675Z</time></trkpt><trkpt lat="40.8684067" lon="14.1931317"><ele>383.3333333333333</ele><time>2026-04-13T18:13:41.675Z</time></trkpt><trkpt lat="40.8684033" lon="14.19323"><ele>383.6666666666667</ele><time>2026-04-13T18:13:42.674Z</time></trkpt><trkpt lat="40.8683933" lon="14.1933383"><ele>384.0</ele><time>2026-04-13T18:13:43.675Z</time></trkpt><trkpt lat="40.868385" lon="14.19345"><ele>384.0</ele><time>2026-04-13T18:13:44.675Z</time></trkpt><trkpt lat="40.86838" lon="14.1935567"><ele>384.0</ele><time>2026-04-13T18:13:45.674Z</time></trkpt><trkpt lat="40.8683767" lon="14.1936583"><ele>384.0</ele><time>2026-04-13T18:13:46.674Z</time></trkpt><trkpt lat="40.8683767" lon="14.19376"><ele>384.0</ele><time>2026-04-13T18:13:47.675Z</time></trkpt><trkpt lat="40.8683683" lon="14.1938617"><ele>384.0</ele><time>2026-04-13T18:13:48.676Z</time></trkpt><trkpt lat="40.8683617" lon="14.1939617"><ele>384.0</ele><time>2026-04-13T18:13:49.675Z</time></trkpt><trkpt lat="40.868355" lon="14.1940583"><ele>383.3333333333333</ele><time>2026-04-13T18:13:50.674Z</time></trkpt><trkpt lat="40.868345" lon="14.1941583"><ele>382.6666666666667</ele><time>2026-04-13T18:13:51.674Z</time></trkpt><trkpt lat="40.8683333" lon="14.1942567"><ele>382.0</ele><time>2026-04-13T18:13:52.675Z</time></trkpt><trkpt lat="40.868325" lon="14.1943517"><ele>381.33333333333337</ele><time>2026-04-13T18:13:53.676Z</time></trkpt><trkpt lat="40.868315" lon="14.1944517"><ele>380.6666666666667</ele><time>2026-04-13T18:13:54.674Z</time></trkpt><trkpt lat="40.8683017" lon="14.1945533"><ele>380.0</ele><time>2026-04-13T18:13:55.675Z</time></trkpt><trkpt lat="40.8682867" lon="14.19466"><ele>380.0</ele><time>2026-04-13T18:13:56.674Z</time></trkpt><trkpt lat="40.8682733" lon="14.1947683"><ele>380.0</ele><time>2026-04-13T18:13:57.674Z</time></trkpt><trkpt lat="40.8682583" lon="14.19488"><ele>380.0</ele><time>2026-04-13T18:13:58.674Z</time></trkpt><trkpt lat="40.868245" lon="14.194995"><ele>380.0</ele><time>2026-04-13T18:13:59.675Z</time></trkpt><trkpt lat="40.8682317" lon="14.1951083"><ele>380.0</ele><time>2026-04-13T18:14:00.676Z</time></trkpt><trkpt lat="40.86822" lon="14.19522"><ele>380.0</ele><time>2026-04-13T18:14:01.675Z</time></trkpt><trkpt lat="40.8682117" lon="14.1953317"><ele>379.83333333333337</ele><time>2026-04-13T18:14:02.674Z</time></trkpt><trkpt lat="40.8682033" lon="14.1954433"><ele>379.6666666666667</ele><time>2026-04-13T18:14:03.674Z</time></trkpt><trkpt lat="40.8681917" lon="14.1955533"><ele>379.5</ele><time>2026-04-13T18:14:04.675Z</time></trkpt><trkpt lat="40.8681733" lon="14.195665"><ele>379.3333333333333</ele><time>2026-04-13T18:14:05.674Z</time></trkpt><trkpt lat="40.8681683" lon="14.1957767"><ele>379.16666666666663</ele><time>2026-04-13T18:14:06.675Z</time></trkpt><trkpt lat="40.86816" lon="14.1958967"><ele>379.0</ele><time>2026-04-13T18:14:07.674Z</time></trkpt><trkpt lat="40.8681517" lon="14.19601"><ele>378.5</ele><time>2026-04-13T18:14:08.674Z</time></trkpt><trkpt lat="40.8681417" lon="14.1961283"><ele>378.0</ele><time>2026-04-13T18:14:09.674Z</time></trkpt><trkpt lat="40.868135" lon="14.1962467"><ele>377.5</ele><time>2026-04-13T18:14:10.674Z</time></trkpt><trkpt lat="40.8681333" lon="14.1963633"><ele>377.0</ele><time>2026-04-13T18:14:11.674Z</time></trkpt><trkpt lat="40.8681317" lon="14.1964817"><ele>376.5</ele><time>2026-04-13T18:14:12.675Z</time></trkpt><trkpt lat="40.86814" lon="14.1966"><ele>376.0</ele><time>2026-04-13T18:14:13.674Z</time></trkpt><trkpt lat="40.8681567" lon="14.1967233"><ele>374.8</ele><time>2026-04-13T18:14:14.675Z</time></trkpt><trkpt lat="40.86818" lon="14.1968467"><ele>373.6</ele><time>2026-04-13T18:14:15.674Z</time></trkpt><trkpt lat="40.8681983" lon="14.1969733"><ele>372.4</ele><time>2026-04-13T18:14:16.674Z</time></trkpt><trkpt lat="40.868215" lon="14.1970967"><ele>371.2</ele><time>2026-04-13T18:14:17.675Z</time></trkpt><trkpt lat="40.868235" lon="14.1972233"><ele>370.0</ele><time>2026-04-13T18:14:18.674Z</time></trkpt><trkpt lat="40.8682567" lon="14.1973483"><ele>369.8</ele><time>2026-04-13T18:14:19.675Z</time></trkpt><trkpt lat="40.8682683" lon="14.1974717"><ele>369.6</ele><time>2026-04-13T18:14:20.674Z</time></trkpt><trkpt lat="40.8682867" lon="14.19759"><ele>369.4</ele><time>2026-04-13T18:14:21.674Z</time></trkpt><trkpt lat="40.8683067" lon="14.19771"><ele>369.2</ele><time>2026-04-13T18:14:22.674Z</time></trkpt><trkpt lat="40.86833" lon="14.197835"><ele>369.0</ele><time>2026-04-13T18:14:23.675Z</time></trkpt><trkpt lat="40.8683517" lon="14.1979683"><ele>369.0</ele><time>2026-04-13T18:14:24.674Z</time></trkpt><trkpt lat="40.86837" lon="14.198095"><ele>369.0</ele><time>2026-04-13T18:14:25.675Z</time></trkpt><trkpt lat="40.8683867" lon="14.1982217"><ele>369.0</ele><time>2026-04-13T18:14:26.675Z</time></trkpt><trkpt lat="40.8684017" lon="14.19835"><ele>369.0</ele><time>2026-04-13T18:14:27.675Z</time></trkpt><trkpt lat="40.8684167" lon="14.198475"><ele>369.0</ele><time>2026-04-13T18:14:28.674Z</time></trkpt><trkpt lat="40.8684367" lon="14.1986017"><ele>367.79999999999995</ele><time>2026-04-13T18:14:29.674Z</time></trkpt><trkpt lat="40.8684517" lon="14.1987283"><ele>366.59999999999997</ele><time>2026-04-13T18:14:30.674Z</time></trkpt><trkpt lat="40.8684667" lon="14.198855"><ele>365.4</ele><time>2026-04-13T18:14:31.675Z</time></trkpt><trkpt lat="40.8684817" lon="14.19898"><ele>364.2</ele><time>2026-04-13T18:14:32.674Z</time></trkpt><trkpt lat="40.8684883" lon="14.1991"><ele>363.0</ele><time>2026-04-13T18:14:33.675Z</time></trkpt><trkpt lat="40.8684717" lon="14.1992283"><ele>362.79999999999995</ele><time>2026-04-13T18:14:34.675Z</time></trkpt><trkpt lat="40.8684433" lon="14.199345"><ele>362.6</ele><time>2026-04-13T18:14:35.675Z</time></trkpt><trkpt lat="40.868405" lon="14.1994567"><ele>362.4</ele><time>2026-04-13T18:14:36.674Z</time></trkpt><trkpt lat="40.8683633" lon="14.1995533"><ele>362.20000000000005</ele><time>2026-04-13T18:14:37.675Z</time></trkpt><trkpt lat="40.8683017" lon="14.1996417"><ele>362.0</ele><time>2026-04-13T18:14:38.674Z</time></trkpt><trkpt lat="40.8682283" lon="14.199715"><ele>361.6666666666667</ele><time>2026-04-13T18:14:39.675Z</time></trkpt><trkpt lat="40.8681517" lon="14.19977"><ele>361.33333333333337</ele><time>2026-04-13T18:14:40.675Z</time></trkpt><trkpt lat="40.8680817" lon="14.1998367"><ele>361.0</ele><time>2026-04-13T18:14:41.675Z</time></trkpt><trkpt lat="40.8680083" lon="14.199905"><ele>360.6666666666667</ele><time>2026-04-13T18:14:42.675Z</time></trkpt><trkpt lat="40.8679533" lon="14.1999867"><ele>360.3333333333333</ele><time>2026-04-13T18:14:43.675Z</time></trkpt><trkpt lat="40.8679083" lon="14.200085"><ele>360.0</ele><time>2026-04-13T18:14:44.675Z</time></trkpt><trkpt lat="40.867875" lon="14.200195"><ele>360.0</ele><time>2026-04-13T18:14:45.675Z</time></trkpt><trkpt lat="40.8678283" lon="14.2003033"><ele>360.0</ele><time>2026-04-13T18:14:46.675Z</time></trkpt><trkpt lat="40.86778" lon="14.2004133"><ele>360.0</ele><time>2026-04-13T18:14:47.675Z</time></trkpt><trkpt lat="40.867735" lon="14.2005217"><ele>360.0</ele><time>2026-04-13T18:14:48.675Z</time></trkpt><trkpt lat="40.8676967" lon="14.20063"><ele>360.0</ele><time>2026-04-13T18:14:49.675Z</time></trkpt><trkpt lat="40.86765" lon="14.200745"><ele>359.6</ele><time>2026-04-13T18:14:50.674Z</time></trkpt><trkpt lat="40.8676033" lon="14.20086"><ele>359.2</ele><time>2026-04-13T18:14:51.674Z</time></trkpt><trkpt lat="40.8675533" lon="14.2009733"><ele>358.79999999999995</ele><time>2026-04-13T18:14:52.674Z</time></trkpt><trkpt lat="40.8675033" lon="14.2010883"><ele>358.4</ele><time>2026-04-13T18:14:53.675Z</time></trkpt><trkpt lat="40.8674517" lon="14.2012017"><ele>358.0</ele><time>2026-04-13T18:14:54.674Z</time></trkpt><trkpt lat="40.8674083" lon="14.2013133"><ele>358.0</ele><time>2026-04-13T18:14:55.675Z</time></trkpt><trkpt lat="40.86737" lon="14.20143"><ele>358.0</ele><time>2026-04-13T18:14:56.675Z</time></trkpt><trkpt lat="40.867335" lon="14.2015483"><ele>358.0</ele><time>2026-04-13T18:14:57.674Z</time></trkpt><trkpt lat="40.867305" lon="14.201675"><ele>358.0</ele><time>2026-04-13T18:14:58.675Z</time></trkpt><trkpt lat="40.8672767" lon="14.201805"><ele>358.0</ele><time>2026-04-13T18:14:59.674Z</time></trkpt><trkpt lat="40.8672533" lon="14.2019367"><ele>357.2</ele><time>2026-04-13T18:15:00.674Z</time></trkpt><trkpt lat="40.8672333" lon="14.2020683"><ele>356.4</ele><time>2026-04-13T18:15:01.675Z</time></trkpt><trkpt lat="40.8672183" lon="14.20221"><ele>355.59999999999997</ele><time>2026-04-13T18:15:02.675Z</time></trkpt><trkpt lat="40.8672117" lon="14.20235"><ele>354.79999999999995</ele><time>2026-04-13T18:15:03.675Z</time></trkpt><trkpt lat="40.8672183" lon="14.2024917"><ele>354.0</ele><time>2026-04-13T18:15:04.676Z</time></trkpt><trkpt lat="40.86723" lon="14.202635"><ele>353.0</ele><time>2026-04-13T18:15:05.674Z</time></trkpt><trkpt lat="40.8672533" lon="14.20278"><ele>352.0</ele><time>2026-04-13T18:15:06.674Z</time></trkpt><trkpt lat="40.86728" lon="14.2029267"><ele>351.0</ele><time>2026-04-13T18:15:07.674Z</time></trkpt><trkpt lat="40.8673117" lon="14.2030733"><ele>350.0</ele><time>2026-04-13T18:15:08.676Z</time></trkpt><trkpt lat="40.8673483" lon="14.203215"><ele>348.0</ele><time>2026-04-13T18:15:09.673Z</time></trkpt><trkpt lat="40.8674" lon="14.2033467"><ele>346.0</ele><time>2026-04-13T18:15:10.673Z</time></trkpt><trkpt lat="40.867455" lon="14.2034717"><ele>344.0</ele><time>2026-04-13T18:15:11.673Z</time></trkpt><trkpt lat="40.8675283" lon="14.2035883"><ele>342.0</ele><time>2026-04-13T18:15:12.673Z</time></trkpt><trkpt lat="40.8676133" lon="14.2036933"><ele>341.75</ele><time>2026-04-13T18:15:13.674Z</time></trkpt><trkpt lat="40.8677033" lon="14.2037917"><ele>341.5</ele><time>2026-04-13T18:15:14.673Z</time></trkpt><trkpt lat="40.8677967" lon="14.2038883"><ele>341.25</ele><time>2026-04-13T18:15:15.674Z</time></trkpt><trkpt lat="40.8678833" lon="14.2039883"><ele>341.0</ele><time>2026-04-13T18:15:16.676Z</time></trkpt><trkpt lat="40.8679683" lon="14.2040917"><ele>339.4</ele><time>2026-04-13T18:15:17.673Z</time></trkpt><trkpt lat="40.8680517" lon="14.2041933"><ele>337.8</ele><time>2026-04-13T18:15:18.673Z</time></trkpt><trkpt lat="40.86813" lon="14.2042967"><ele>336.2</ele><time>2026-04-13T18:15:19.674Z</time></trkpt><trkpt lat="40.868195" lon="14.2044067"><ele>334.59999999999997</ele><time>2026-04-13T18:15:20.673Z</time></trkpt><trkpt lat="40.8682433" lon="14.2045283"><ele>333.0</ele><time>2026-04-13T18:15:21.673Z</time></trkpt><trkpt lat="40.8682717" lon="14.2046567"><ele>333.0</ele><time>2026-04-13T18:15:22.674Z</time></trkpt><trkpt lat="40.868295" lon="14.2047917"><ele>333.0</ele><time>2026-04-13T18:15:23.674Z</time></trkpt><trkpt lat="40.8683067" lon="14.2049333"><ele>333.0</ele><time>2026-04-13T18:15:24.673Z</time></trkpt><trkpt lat="40.8683217" lon="14.2050733"><ele>333.0</ele><time>2026-04-13T18:15:25.674Z</time></trkpt><trkpt lat="40.8683367" lon="14.20521"><ele>333.0</ele><time>2026-04-13T18:15:26.675Z</time></trkpt><trkpt lat="40.868345" lon="14.2053417"><ele>332.2</ele><time>2026-04-13T18:15:27.673Z</time></trkpt><trkpt lat="40.86834" lon="14.205475"><ele>331.4</ele><time>2026-04-13T18:15:28.673Z</time></trkpt><trkpt lat="40.868325" lon="14.205605"><ele>330.59999999999997</ele><time>2026-04-13T18:15:29.673Z</time></trkpt><trkpt lat="40.868305" lon="14.2057383"><ele>329.79999999999995</ele><time>2026-04-13T18:15:30.673Z</time></trkpt><trkpt lat="40.8682867" lon="14.2058683"><ele>329.0</ele><time>2026-04-13T18:15:31.673Z</time></trkpt><trkpt lat="40.8682683" lon="14.2059983"><ele>329.0</ele><time>2026-04-13T18:15:32.674Z</time></trkpt><trkpt lat="40.868245" lon="14.2061283"><ele>329.0</ele><time>2026-04-13T18:15:33.673Z</time></trkpt><trkpt lat="40.8682183" lon="14.2062567"><ele>329.0</ele><time>2026-04-13T18:15:34.676Z</time></trkpt><trkpt lat="40.86819" lon="14.2063883"><ele>329.0</ele><time>2026-04-13T18:15:35.675Z</time></trkpt><trkpt lat="40.8681633" lon="14.2065183"><ele>329.0</ele><time>2026-04-13T18:15:36.674Z</time></trkpt><trkpt lat="40.8681383" lon="14.2066467"><ele>328.6</ele><time>2026-04-13T18:15:37.675Z</time></trkpt><trkpt lat="40.86811" lon="14.2067783"><ele>328.2</ele><time>2026-04-13T18:15:38.674Z</time></trkpt><trkpt lat="40.8680833" lon="14.2069067"><ele>327.8</ele><time>2026-04-13T18:15:39.673Z</time></trkpt><trkpt lat="40.86806" lon="14.2070317"><ele>327.40000000000003</ele><time>2026-04-13T18:15:40.674Z</time></trkpt><trkpt lat="40.8680383" lon="14.207155"><ele>327.0</ele><time>2026-04-13T18:15:41.674Z</time></trkpt><trkpt lat="40.86803" lon="14.2072833"><ele>326.8</ele><time>2026-04-13T18:15:42.673Z</time></trkpt><trkpt lat="40.86804" lon="14.2074167"><ele>326.6</ele><time>2026-04-13T18:15:43.674Z</time></trkpt><trkpt lat="40.8680617" lon="14.20755"><ele>326.40000000000003</ele><time>2026-04-13T18:15:44.673Z</time></trkpt><trkpt lat="40.8680833" lon="14.2076733"><ele>326.20000000000005</ele><time>2026-04-13T18:15:45.673Z</time></trkpt><trkpt lat="40.8681267" lon="14.2078017"><ele>326.0</ele><time>2026-04-13T18:15:46.674Z</time></trkpt><trkpt lat="40.86818" lon="14.2079283"><ele>326.0</ele><time>2026-04-13T18:15:47.673Z</time></trkpt><trkpt lat="40.868235" lon="14.2080467"><ele>326.0</ele><time>2026-04-13T18:15:48.673Z</time></trkpt><trkpt lat="40.86828" lon="14.20817"><ele>326.0</ele><time>2026-04-13T18:15:49.673Z</time></trkpt><trkpt lat="40.8683117" lon="14.2082967"><ele>326.0</ele><time>2026-04-13T18:15:50.674Z</time></trkpt><trkpt lat="40.8683217" lon="14.2084267"><ele>326.0</ele><time>2026-04-13T18:15:51.674Z</time></trkpt><trkpt lat="40.86832" lon="14.2085683"><ele>324.5</ele><time>2026-04-13T18:15:52.674Z</time></trkpt><trkpt lat="40.8683033" lon="14.2087283"><ele>323.0</ele><time>2026-04-13T18:15:53.674Z</time></trkpt><trkpt lat="40.8682917" lon="14.2088783"><ele>321.5</ele><time>2026-04-13T18:15:54.674Z</time></trkpt><trkpt lat="40.8682867" lon="14.209025"><ele>320.0</ele><time>2026-04-13T18:15:55.675Z</time></trkpt><trkpt lat="40.8682767" lon="14.2091733"><ele>318.75</ele><time>2026-04-13T18:15:56.673Z</time></trkpt><trkpt lat="40.868275" lon="14.2093217"><ele>317.5</ele><time>2026-04-13T18:15:57.673Z</time></trkpt><trkpt lat="40.86827" lon="14.2094733"><ele>316.25</ele><time>2026-04-13T18:15:58.674Z</time></trkpt><trkpt lat="40.8682617" lon="14.209625"><ele>315.0</ele><time>2026-04-13T18:15:59.673Z</time></trkpt><trkpt lat="40.8682617" lon="14.209775"><ele>314.0</ele><time>2026-04-13T18:16:00.673Z</time></trkpt><trkpt lat="40.8682567" lon="14.2099267"><ele>313.0</ele><time>2026-04-13T18:16:01.674Z</time></trkpt><trkpt lat="40.8682467" lon="14.21008"><ele>312.0</ele><time>2026-04-13T18:16:02.674Z</time></trkpt><trkpt lat="40.8682433" lon="14.21023"><ele>311.0</ele><time>2026-04-13T18:16:03.673Z</time></trkpt><trkpt lat="40.8682383" lon="14.2103817"><ele>311.0</ele><time>2026-04-13T18:16:04.674Z</time></trkpt><trkpt lat="40.8682317" lon="14.2105367"><ele>311.0</ele><time>2026-04-13T18:16:05.674Z</time></trkpt><trkpt lat="40.8682267" lon="14.21069"><ele>311.0</ele><time>2026-04-13T18:16:06.673Z</time></trkpt><trkpt lat="40.8682233" lon="14.2108417"><ele>311.0</ele><time>2026-04-13T18:16:07.674Z</time></trkpt><trkpt lat="40.868225" lon="14.210995"><ele>310.8</ele><time>2026-04-13T18:16:08.673Z</time></trkpt><trkpt lat="40.8682167" lon="14.2111433"><ele>310.6</ele><time>2026-04-13T18:16:09.674Z</time></trkpt><trkpt lat="40.86821" lon="14.2112767"><ele>310.4</ele><time>2026-04-13T18:16:10.673Z</time></trkpt><trkpt lat="40.8682083" lon="14.2114033"><ele>310.2</ele><time>2026-04-13T18:16:11.675Z</time></trkpt><trkpt lat="40.8682183" lon="14.211525"><ele>310.0</ele><time>2026-04-13T18:16:12.673Z</time></trkpt><trkpt lat="40.868225" lon="14.2116483"><ele>308.8</ele><time>2026-04-13T18:16:13.674Z</time></trkpt><trkpt lat="40.8682217" lon="14.2117783"><ele>307.6</ele><time>2026-04-13T18:16:14.673Z</time></trkpt><trkpt lat="40.8682133" lon="14.211915"><ele>306.4</ele><time>2026-04-13T18:16:15.673Z</time></trkpt><trkpt lat="40.8682067" lon="14.2120483"><ele>305.2</ele><time>2026-04-13T18:16:16.673Z</time></trkpt><trkpt lat="40.8681983" lon="14.21219"><ele>304.0</ele><time>2026-04-13T18:16:17.673Z</time></trkpt><trkpt lat="40.86819" lon="14.21233"><ele>303.2</ele><time>2026-04-13T18:16:18.673Z</time></trkpt><trkpt lat="40.8681783" lon="14.2124567"><ele>302.4</ele><time>2026-04-13T18:16:19.675Z</time></trkpt><trkpt lat="40.8681717" lon="14.2125883"><ele>301.6</ele><time>2026-04-13T18:16:20.675Z</time></trkpt><trkpt lat="40.8681617" lon="14.21272"><ele>300.8</ele><time>2026-04-13T18:16:21.673Z</time></trkpt><trkpt lat="40.8681483" lon="14.2128433"><ele>300.0</ele><time>2026-04-13T18:16:22.673Z</time></trkpt><trkpt lat="40.8681267" lon="14.2129467"><ele>300.0</ele><time>2026-04-13T18:16:23.673Z</time></trkpt><trkpt lat="40.868105" lon="14.21303"><ele>300.0</ele><time>2026-04-13T18:16:24.675Z</time></trkpt><trkpt lat="40.868075" lon="14.2131567"><ele>300.0</ele><time>2026-04-13T18:16:26.673Z</time></trkpt><trkpt lat="40.8680283" lon="14.21326"><ele>300.0</ele><time>2026-04-13T18:16:28.674Z</time></trkpt><trkpt lat="40.8679683" lon="14.21338"><ele>300.0</ele><time>2026-04-13T18:16:30.673Z</time></trkpt><trkpt lat="40.8679067" lon="14.2134983"><ele>299.0</ele><time>2026-04-13T18:16:32.675Z</time></trkpt><trkpt lat="40.8678317" lon="14.2135983"><ele>298.0</ele><time>2026-04-13T18:16:34.673Z</time></trkpt><trkpt lat="40.8677817" lon="14.21366"><ele>297.0</ele><time>2026-04-13T18:16:36.673Z</time></trkpt><trkpt lat="40.8677267" lon="14.2137767"><ele>296.0</ele><time>2026-04-13T18:16:57.673Z</time></trkpt><trkpt lat="40.86765" lon="14.2138917"><ele>295.0</ele><time>2026-04-13T18:16:59.674Z</time></trkpt><trkpt lat="40.867605" lon="14.2139617"><ele>294.14285714285717</ele><time>2026-04-13T18:17:00.673Z</time></trkpt><trkpt lat="40.8675617" lon="14.2140367"><ele>293.2857142857143</ele><time>2026-04-13T18:17:01.674Z</time></trkpt><trkpt lat="40.867515" lon="14.2141083"><ele>292.42857142857144</ele><time>2026-04-13T18:17:02.673Z</time></trkpt><trkpt lat="40.8674667" lon="14.2141817"><ele>291.57142857142856</ele><time>2026-04-13T18:17:03.673Z</time></trkpt><trkpt lat="40.8674183" lon="14.21426"><ele>290.7142857142857</ele><time>2026-04-13T18:17:04.673Z</time></trkpt><trkpt lat="40.86737" lon="14.2143417"><ele>289.8571428571429</ele><time>2026-04-13T18:17:05.674Z</time></trkpt><trkpt lat="40.8673183" lon="14.2144183"><ele>289.0</ele><time>2026-04-13T18:17:06.673Z</time></trkpt><trkpt lat="40.86726" lon="14.2145017"><ele>289.0</ele><time>2026-04-13T18:17:07.677Z</time></trkpt><trkpt lat="40.8672067" lon="14.2145883"><ele>289.0</ele><time>2026-04-13T18:17:08.674Z</time></trkpt><trkpt lat="40.8671467" lon="14.2146783"><ele>289.0</ele><time>2026-04-13T18:17:09.673Z</time></trkpt><trkpt lat="40.8670867" lon="14.2147717"><ele>289.0</ele><time>2026-04-13T18:17:10.675Z</time></trkpt><trkpt lat="40.867025" lon="14.21487"><ele>289.0</ele><time>2026-04-13T18:17:11.674Z</time></trkpt><trkpt lat="40.8669633" lon="14.2149733"><ele>288.4</ele><time>2026-04-13T18:17:12.674Z</time></trkpt><trkpt lat="40.8668967" lon="14.215075"><ele>287.79999999999995</ele><time>2026-04-13T18:17:13.674Z</time></trkpt><trkpt lat="40.8668333" lon="14.2151767"><ele>287.20000000000005</ele><time>2026-04-13T18:17:14.674Z</time></trkpt><trkpt lat="40.86677" lon="14.2152717"><ele>286.6</ele><time>2026-04-13T18:17:15.673Z</time></trkpt><trkpt lat="40.86671" lon="14.2153733"><ele>286.0</ele><time>2026-04-13T18:17:16.674Z</time></trkpt><trkpt lat="40.8666467" lon="14.21547"><ele>285.8</ele><time>2026-04-13T18:17:17.673Z</time></trkpt><trkpt lat="40.8665867" lon="14.2155633"><ele>285.6</ele><time>2026-04-13T18:17:18.675Z</time></trkpt><trkpt lat="40.8665283" lon="14.2156567"><ele>285.4</ele><time>2026-04-13T18:17:19.674Z</time></trkpt><trkpt lat="40.86647" lon="14.215755"><ele>285.2</ele><time>2026-04-13T18:17:20.675Z</time></trkpt><trkpt lat="40.8664117" lon="14.2158467"><ele>285.0</ele><time>2026-04-13T18:17:21.673Z</time></trkpt><trkpt lat="40.8663583" lon="14.2159367"><ele>284.3333333333333</ele><time>2026-04-13T18:17:22.675Z</time></trkpt><trkpt lat="40.866305" lon="14.216025"><ele>283.6666666666667</ele><time>2026-04-13T18:17:23.673Z</time></trkpt><trkpt lat="40.866255" lon="14.2161033"><ele>283.0</ele><time>2026-04-13T18:17:24.674Z</time></trkpt><trkpt lat="40.866205" lon="14.2161867"><ele>282.33333333333337</ele><time>2026-04-13T18:17:25.674Z</time></trkpt><trkpt lat="40.8661583" lon="14.2162717"><ele>281.6666666666667</ele><time>2026-04-13T18:17:26.673Z</time></trkpt><trkpt lat="40.8661067" lon="14.2163533"><ele>281.0</ele><time>2026-04-13T18:17:27.673Z</time></trkpt><trkpt lat="40.8660567" lon="14.2164333"><ele>281.1666666666667</ele><time>2026-04-13T18:17:28.673Z</time></trkpt><trkpt lat="40.8660083" lon="14.21651"><ele>281.33333333333337</ele><time>2026-04-13T18:17:29.674Z</time></trkpt><trkpt lat="40.8659583" lon="14.2165883"><ele>281.5</ele><time>2026-04-13T18:17:30.674Z</time></trkpt><trkpt lat="40.8659067" lon="14.2166667"><ele>281.6666666666667</ele><time>2026-04-13T18:17:31.674Z</time></trkpt><trkpt lat="40.8658617" lon="14.2167467"><ele>281.8333333333333</ele><time>2026-04-13T18:17:32.674Z</time></trkpt><trkpt lat="40.8658133" lon="14.2168217"><ele>282.0</ele><time>2026-04-13T18:17:33.673Z</time></trkpt><trkpt lat="40.865765" lon="14.2168983"><ele>282.0</ele><time>2026-04-13T18:17:34.673Z</time></trkpt><trkpt lat="40.8657183" lon="14.2169733"><ele>282.0</ele><time>2026-04-13T18:17:35.674Z</time></trkpt><trkpt lat="40.8656667" lon="14.2170533"><ele>282.0</ele><time>2026-04-13T18:17:36.673Z</time></trkpt><trkpt lat="40.8656183" lon="14.2171283"><ele>282.0</ele><time>2026-04-13T18:17:37.675Z</time></trkpt><trkpt lat="40.8655683" lon="14.2172067"><ele>282.0</ele><time>2026-04-13T18:17:38.673Z</time></trkpt><trkpt lat="40.8655167" lon="14.2172833"><ele>282.0</ele><time>2026-04-13T18:17:39.674Z</time></trkpt><trkpt lat="40.865465" lon="14.2173567"><ele>281.7142857142857</ele><time>2026-04-13T18:17:40.673Z</time></trkpt><trkpt lat="40.865415" lon="14.2174317"><ele>281.42857142857144</ele><time>2026-04-13T18:17:41.674Z</time></trkpt><trkpt lat="40.8653667" lon="14.2175067"><ele>281.1428571428571</ele><time>2026-04-13T18:17:42.674Z</time></trkpt><trkpt lat="40.8653117" lon="14.2175783"><ele>280.8571428571429</ele><time>2026-04-13T18:17:43.675Z</time></trkpt><trkpt lat="40.8652617" lon="14.217655"><ele>280.57142857142856</ele><time>2026-04-13T18:17:44.673Z</time></trkpt><trkpt lat="40.8652117" lon="14.2177233"><ele>280.2857142857143</ele><time>2026-04-13T18:17:45.673Z</time></trkpt><trkpt lat="40.8651617" lon="14.217795"><ele>280.0</ele><time>2026-04-13T18:17:46.674Z</time></trkpt><trkpt lat="40.865115" lon="14.21787"><ele>280.57142857142856</ele><time>2026-04-13T18:17:47.674Z</time></trkpt><trkpt lat="40.865065" lon="14.217945"><ele>281.1428571428571</ele><time>2026-04-13T18:17:48.674Z</time></trkpt><trkpt lat="40.8650133" lon="14.2180033"><ele>281.7142857142857</ele><time>2026-04-13T18:17:49.674Z</time></trkpt><trkpt lat="40.86496" lon="14.2180583"><ele>282.2857142857143</ele><time>2026-04-13T18:17:50.674Z</time></trkpt><trkpt lat="40.8649067" lon="14.2181117"><ele>282.85714285714283</ele><time>2026-04-13T18:17:51.673Z</time></trkpt><trkpt lat="40.864845" lon="14.2181517"><ele>283.42857142857144</ele><time>2026-04-13T18:17:52.674Z</time></trkpt><trkpt lat="40.86479" lon="14.2182033"><ele>284.0</ele><time>2026-04-13T18:17:53.674Z</time></trkpt><trkpt lat="40.864735" lon="14.2182533"><ele>284.0</ele><time>2026-04-13T18:17:54.673Z</time></trkpt><trkpt lat="40.86468" lon="14.21831"><ele>284.0</ele><time>2026-04-13T18:17:55.674Z</time></trkpt><trkpt lat="40.864635" lon="14.2183733"><ele>284.0</ele><time>2026-04-13T18:17:56.673Z</time></trkpt><trkpt lat="40.864585" lon="14.21843"><ele>284.0</ele><time>2026-04-13T18:17:57.674Z</time></trkpt><trkpt lat="40.8645333" lon="14.2184867"><ele>284.0</ele><time>2026-04-13T18:17:58.674Z</time></trkpt><trkpt lat="40.8644817" lon="14.2185367"><ele>284.0</ele><time>2026-04-13T18:17:59.675Z</time></trkpt><trkpt lat="40.8643883" lon="14.218635"><ele>284.0</ele><time>2026-04-13T18:18:01.674Z</time></trkpt><trkpt lat="40.8643383" lon="14.2186867"><ele>284.0</ele><time>2026-04-13T18:18:02.674Z</time></trkpt><trkpt lat="40.8642867" lon="14.2187367"><ele>284.0</ele><time>2026-04-13T18:18:03.673Z</time></trkpt><trkpt lat="40.864195" lon="14.21883"><ele>284.0</ele><time>2026-04-13T18:18:05.674Z</time></trkpt><trkpt lat="40.86411" lon="14.2189233"><ele>284.0</ele><time>2026-04-13T18:18:07.675Z</time></trkpt><trkpt lat="40.8640267" lon="14.2189967"><ele>283.8</ele><time>2026-04-13T18:18:09.673Z</time></trkpt><trkpt lat="40.86396" lon="14.219075"><ele>283.59999999999997</ele><time>2026-04-13T18:18:11.675Z</time></trkpt><trkpt lat="40.8638867" lon="14.219155"><ele>283.4</ele><time>2026-04-13T18:18:13.673Z</time></trkpt><trkpt lat="40.8638183" lon="14.2192317"><ele>283.2</ele><time>2026-04-13T18:18:15.673Z</time></trkpt><trkpt lat="40.8637433" lon="14.2193233"><ele>283.0</ele><time>2026-04-13T18:18:17.674Z</time></trkpt><trkpt lat="40.8636583" lon="14.219425"><ele>283.0</ele><time>2026-04-13T18:18:19.674Z</time></trkpt><trkpt lat="40.8636083" lon="14.2194833"><ele>283.0</ele><time>2026-04-13T18:18:20.673Z</time></trkpt><trkpt lat="40.8635617" lon="14.2195417"><ele>283.0</ele><time>2026-04-13T18:18:21.674Z</time></trkpt><trkpt lat="40.8635067" lon="14.2196"><ele>283.0</ele><time>2026-04-13T18:18:22.674Z</time></trkpt><trkpt lat="40.8634467" lon="14.2196667"><ele>283.0</ele><time>2026-04-13T18:18:23.674Z</time></trkpt><trkpt lat="40.8633833" lon="14.2197317"><ele>283.0</ele><time>2026-04-13T18:18:24.673Z</time></trkpt><trkpt lat="40.8633167" lon="14.2197933"><ele>283.0</ele><time>2026-04-13T18:18:25.673Z</time></trkpt><trkpt lat="40.8632467" lon="14.2198617"><ele>282.2</ele><time>2026-04-13T18:18:26.674Z</time></trkpt><trkpt lat="40.86318" lon="14.2199367"><ele>281.4</ele><time>2026-04-13T18:18:27.675Z</time></trkpt><trkpt lat="40.8631117" lon="14.22001"><ele>280.59999999999997</ele><time>2026-04-13T18:18:28.673Z</time></trkpt><trkpt lat="40.8630433" lon="14.2200867"><ele>279.8</ele><time>2026-04-13T18:18:29.675Z</time></trkpt><trkpt lat="40.8629683" lon="14.22016"><ele>279.0</ele><time>2026-04-13T18:18:30.674Z</time></trkpt><trkpt lat="40.862885" lon="14.22023"><ele>279.0</ele><time>2026-04-13T18:18:31.674Z</time></trkpt><trkpt lat="40.862805" lon="14.2203033"><ele>279.0</ele><time>2026-04-13T18:18:32.674Z</time></trkpt><trkpt lat="40.8627267" lon="14.22038"><ele>279.0</ele><time>2026-04-13T18:18:33.674Z</time></trkpt><trkpt lat="40.8626467" lon="14.2204567"><ele>279.0</ele><time>2026-04-13T18:18:34.674Z</time></trkpt><trkpt lat="40.8625717" lon="14.2205383"><ele>279.0</ele><time>2026-04-13T18:18:35.674Z</time></trkpt><trkpt lat="40.8624933" lon="14.2206167"><ele>278.8</ele><time>2026-04-13T18:18:36.674Z</time></trkpt><trkpt lat="40.86241" lon="14.2206933"><ele>278.59999999999997</ele><time>2026-04-13T18:18:37.674Z</time></trkpt><trkpt lat="40.8623183" lon="14.2207783"><ele>278.4</ele><time>2026-04-13T18:18:38.674Z</time></trkpt><trkpt lat="40.8622367" lon="14.2208583"><ele>278.2</ele><time>2026-04-13T18:18:39.672Z</time></trkpt><trkpt lat="40.8621517" lon="14.2209367"><ele>278.0</ele><time>2026-04-13T18:18:40.672Z</time></trkpt><trkpt lat="40.8620533" lon="14.22101"><ele>278.0</ele><time>2026-04-13T18:18:41.673Z</time></trkpt><trkpt lat="40.861965" lon="14.2210933"><ele>278.0</ele><time>2026-04-13T18:18:42.674Z</time></trkpt><trkpt lat="40.861885" lon="14.2211783"><ele>278.0</ele><time>2026-04-13T18:18:43.674Z</time></trkpt><trkpt lat="40.8618033" lon="14.2212633"><ele>278.0</ele><time>2026-04-13T18:18:44.674Z</time></trkpt><trkpt lat="40.8617117" lon="14.2213483"><ele>278.0</ele><time>2026-04-13T18:18:45.673Z</time></trkpt><trkpt lat="40.8616317" lon="14.2214333"><ele>276.2</ele><time>2026-04-13T18:18:46.674Z</time></trkpt><trkpt lat="40.8615633" lon="14.2215217"><ele>274.4</ele><time>2026-04-13T18:18:47.674Z</time></trkpt><trkpt lat="40.8614883" lon="14.2216117"><ele>272.59999999999997</ele><time>2026-04-13T18:18:48.674Z</time></trkpt><trkpt lat="40.8614183" lon="14.2217017"><ele>270.8</ele><time>2026-04-13T18:18:49.674Z</time></trkpt><trkpt lat="40.86135" lon="14.22179"><ele>269.0</ele><time>2026-04-13T18:18:50.675Z</time></trkpt><trkpt lat="40.86128" lon="14.2218817"><ele>269.0</ele><time>2026-04-13T18:18:51.673Z</time></trkpt><trkpt lat="40.8612017" lon="14.221975"><ele>269.0</ele><time>2026-04-13T18:18:52.674Z</time></trkpt><trkpt lat="40.8611383" lon="14.2220783"><ele>269.0</ele><time>2026-04-13T18:18:53.674Z</time></trkpt><trkpt lat="40.8610933" lon="14.2222"><ele>269.0</ele><time>2026-04-13T18:18:54.675Z</time></trkpt><trkpt lat="40.8610667" lon="14.2223283"><ele>269.0</ele><time>2026-04-13T18:18:55.674Z</time></trkpt><trkpt lat="40.8610633" lon="14.2224667"><ele>269.4</ele><time>2026-04-13T18:18:56.674Z</time></trkpt><trkpt lat="40.86109" lon="14.2225867"><ele>269.79999999999995</ele><time>2026-04-13T18:18:57.673Z</time></trkpt><trkpt lat="40.8611117" lon="14.2227033"><ele>270.20000000000005</ele><time>2026-04-13T18:18:58.673Z</time></trkpt><trkpt lat="40.86114" lon="14.22282"><ele>270.6</ele><time>2026-04-13T18:18:59.674Z</time></trkpt><trkpt lat="40.8611833" lon="14.2229417"><ele>271.0</ele><time>2026-04-13T18:19:00.673Z</time></trkpt><trkpt lat="40.861215" lon="14.2230667"><ele>271.0</ele><time>2026-04-13T18:19:01.676Z</time></trkpt><trkpt lat="40.8612433" lon="14.2231833"><ele>271.0</ele><time>2026-04-13T18:19:02.674Z</time></trkpt><trkpt lat="40.8612817" lon="14.2232983"><ele>271.0</ele><time>2026-04-13T18:19:03.673Z</time></trkpt><trkpt lat="40.8613283" lon="14.223405"><ele>271.0</ele><time>2026-04-13T18:19:04.673Z</time></trkpt><trkpt lat="40.8613683" lon="14.2235117"><ele>271.0</ele><time>2026-04-13T18:19:05.674Z</time></trkpt><trkpt lat="40.86141" lon="14.2236133"><ele>271.0</ele><time>2026-04-13T18:19:06.673Z</time></trkpt><trkpt lat="40.8614467" lon="14.2237183"><ele>271.0</ele><time>2026-04-13T18:19:07.674Z</time></trkpt><trkpt lat="40.8614833" lon="14.2238083"><ele>271.0</ele><time>2026-04-13T18:19:08.674Z</time></trkpt><trkpt lat="40.8615067" lon="14.2238967"><ele>271.0</ele><time>2026-04-13T18:19:09.674Z</time></trkpt><trkpt lat="40.8615267" lon="14.22398"><ele>271.0</ele><time>2026-04-13T18:19:10.674Z</time></trkpt><trkpt lat="40.8615517" lon="14.2240567"><ele>271.0</ele><time>2026-04-13T18:19:11.675Z</time></trkpt><trkpt lat="40.861595" lon="14.2241983"><ele>270.6</ele><time>2026-04-13T18:19:13.674Z</time></trkpt><trkpt lat="40.8616433" lon="14.22434"><ele>270.20000000000005</ele><time>2026-04-13T18:19:15.673Z</time></trkpt><trkpt lat="40.861685" lon="14.224415"><ele>269.79999999999995</ele><time>2026-04-13T18:19:16.673Z</time></trkpt><trkpt lat="40.8617417" lon="14.224555"><ele>269.4</ele><time>2026-04-13T18:19:18.673Z</time></trkpt><trkpt lat="40.86176" lon="14.224635"><ele>269.0</ele><time>2026-04-13T18:19:19.674Z</time></trkpt><trkpt lat="40.8617967" lon="14.2248033"><ele>268.42857142857144</ele><time>2026-04-13T18:19:21.674Z</time></trkpt><trkpt lat="40.8618083" lon="14.2248917"><ele>267.8571428571429</ele><time>2026-04-13T18:19:22.673Z</time></trkpt><trkpt lat="40.8618283" lon="14.2249817"><ele>267.2857142857143</ele><time>2026-04-13T18:19:23.674Z</time></trkpt><trkpt lat="40.8618617" lon="14.2250667"><ele>266.7142857142857</ele><time>2026-04-13T18:19:24.675Z</time></trkpt><trkpt lat="40.8619033" lon="14.2251417"><ele>266.1428571428571</ele><time>2026-04-13T18:19:25.674Z</time></trkpt><trkpt lat="40.8619617" lon="14.2252083"><ele>265.57142857142856</ele><time>2026-04-13T18:19:26.674Z</time></trkpt><trkpt lat="40.862015" lon="14.2252683"><ele>265.0</ele><time>2026-04-13T18:19:27.673Z</time></trkpt><trkpt lat="40.862075" lon="14.2253367"><ele>265.0</ele><time>2026-04-13T18:19:28.673Z</time></trkpt><trkpt lat="40.8621333" lon="14.2254"><ele>265.0</ele><time>2026-04-13T18:19:29.674Z</time></trkpt><trkpt lat="40.8621967" lon="14.2254533"><ele>265.0</ele><time>2026-04-13T18:19:30.674Z</time></trkpt><trkpt lat="40.8622633" lon="14.225505"><ele>265.0</ele><time>2026-04-13T18:19:31.675Z</time></trkpt><trkpt lat="40.8623317" lon="14.22554"><ele>265.0</ele><time>2026-04-13T18:19:32.674Z</time></trkpt><trkpt lat="40.8624067" lon="14.225565"><ele>265.0</ele><time>2026-04-13T18:19:33.674Z</time></trkpt><trkpt lat="40.8624767" lon="14.2255917"><ele>265.0</ele><time>2026-04-13T18:19:34.674Z</time></trkpt><trkpt lat="40.8625517" lon="14.225615"><ele>265.0</ele><time>2026-04-13T18:19:35.674Z</time></trkpt><trkpt lat="40.8626267" lon="14.22564"><ele>265.0</ele><time>2026-04-13T18:19:36.674Z</time></trkpt><trkpt lat="40.8627" lon="14.225665"><ele>265.0</ele><time>2026-04-13T18:19:37.674Z</time></trkpt><trkpt lat="40.862775" lon="14.225695"><ele>265.0</ele><time>2026-04-13T18:19:38.674Z</time></trkpt><trkpt lat="40.862855" lon="14.2257217"><ele>265.0</ele><time>2026-04-13T18:19:39.674Z</time></trkpt><trkpt lat="40.8629317" lon="14.225755"><ele>264.2</ele><time>2026-04-13T18:19:40.674Z</time></trkpt><trkpt lat="40.863" lon="14.2257817"><ele>263.4</ele><time>2026-04-13T18:19:41.674Z</time></trkpt><trkpt lat="40.863125" lon="14.2257917"><ele>262.6</ele><time>2026-04-13T18:19:43.674Z</time></trkpt><trkpt lat="40.86322" lon="14.2258233"><ele>261.8</ele><time>2026-04-13T18:19:45.673Z</time></trkpt><trkpt lat="40.863315" lon="14.2258333"><ele>261.0</ele><time>2026-04-13T18:19:47.674Z</time></trkpt><trkpt lat="40.8634133" lon="14.2258567"><ele>260.8</ele><time>2026-04-13T18:19:49.674Z</time></trkpt><trkpt lat="40.86352" lon="14.2259033"><ele>260.6</ele><time>2026-04-13T18:19:51.675Z</time></trkpt><trkpt lat="40.8636183" lon="14.2259983"><ele>260.4</ele><time>2026-04-13T18:19:53.675Z</time></trkpt><trkpt lat="40.863705" lon="14.2261133"><ele>260.2</ele><time>2026-04-13T18:19:55.674Z</time></trkpt><trkpt lat="40.863745" lon="14.2261783"><ele>260.0</ele><time>2026-04-13T18:19:56.675Z</time></trkpt><trkpt lat="40.86378" lon="14.226255"><ele>260.0</ele><time>2026-04-13T18:19:57.675Z</time></trkpt><trkpt lat="40.8638417" lon="14.226405"><ele>260.0</ele><time>2026-04-13T18:19:59.674Z</time></trkpt><trkpt lat="40.8638817" lon="14.2264817"><ele>260.0</ele><time>2026-04-13T18:20:00.673Z</time></trkpt><trkpt lat="40.86393" lon="14.2265533"><ele>260.0</ele><time>2026-04-13T18:20:01.674Z</time></trkpt><trkpt lat="40.863985" lon="14.2266267"><ele>260.0</ele><time>2026-04-13T18:20:02.674Z</time></trkpt><trkpt lat="40.864045" lon="14.2267"><ele>260.0</ele><time>2026-04-13T18:20:03.674Z</time></trkpt><trkpt lat="40.86411" lon="14.22677"><ele>259.6</ele><time>2026-04-13T18:20:04.675Z</time></trkpt><trkpt lat="40.8641833" lon="14.2268283"><ele>259.2</ele><time>2026-04-13T18:20:05.674Z</time></trkpt><trkpt lat="40.8642617" lon="14.2268833"><ele>258.8</ele><time>2026-04-13T18:20:06.674Z</time></trkpt><trkpt lat="40.864345" lon="14.2269283"><ele>258.4</ele><time>2026-04-13T18:20:07.675Z</time></trkpt><trkpt lat="40.8644383" lon="14.2269617"><ele>258.0</ele><time>2026-04-13T18:20:08.673Z</time></trkpt><trkpt lat="40.86453" lon="14.226995"><ele>258.0</ele><time>2026-04-13T18:20:09.674Z</time></trkpt><trkpt lat="40.8646233" lon="14.22703"><ele>258.0</ele><time>2026-04-13T18:20:10.674Z</time></trkpt><trkpt lat="40.8647183" lon="14.2270617"><ele>258.0</ele><time>2026-04-13T18:20:11.674Z</time></trkpt><trkpt lat="40.8648083" lon="14.2271"><ele>258.0</ele><time>2026-04-13T18:20:12.674Z</time></trkpt><trkpt lat="40.8649" lon="14.2271333"><ele>258.0</ele><time>2026-04-13T18:20:13.674Z</time></trkpt><trkpt lat="40.8649883" lon="14.22717"><ele>258.0</ele><time>2026-04-13T18:20:14.673Z</time></trkpt><trkpt lat="40.8650783" lon="14.2272083"><ele>258.0</ele><time>2026-04-13T18:20:15.673Z</time></trkpt><trkpt lat="40.86517" lon="14.2272467"><ele>258.0</ele><time>2026-04-13T18:20:16.675Z</time></trkpt><trkpt lat="40.8652633" lon="14.2272717"><ele>258.0</ele><time>2026-04-13T18:20:17.674Z</time></trkpt><trkpt lat="40.8653583" lon="14.2272883"><ele>258.0</ele><time>2026-04-13T18:20:18.674Z</time></trkpt><trkpt lat="40.86545" lon="14.2272983"><ele>258.2</ele><time>2026-04-13T18:20:19.673Z</time></trkpt><trkpt lat="40.8655433" lon="14.227305"><ele>258.4</ele><time>2026-04-13T18:20:20.674Z</time></trkpt><trkpt lat="40.8656367" lon="14.2273117"><ele>258.59999999999997</ele><time>2026-04-13T18:20:21.674Z</time></trkpt><trkpt lat="40.86573" lon="14.2273133"><ele>258.8</ele><time>2026-04-13T18:20:22.674Z</time></trkpt><trkpt lat="40.86582" lon="14.2273133"><ele>259.0</ele><time>2026-04-13T18:20:23.674Z</time></trkpt><trkpt lat="40.8659183" lon="14.2272967"><ele>259.0</ele><time>2026-04-13T18:20:24.674Z</time></trkpt><trkpt lat="40.866015" lon="14.2272633"><ele>259.0</ele><time>2026-04-13T18:20:25.675Z</time></trkpt><trkpt lat="40.866105" lon="14.22722"><ele>259.0</ele><time>2026-04-13T18:20:26.675Z</time></trkpt><trkpt lat="40.866185" lon="14.2271817"><ele>259.0</ele><time>2026-04-13T18:20:27.673Z</time></trkpt><trkpt lat="40.866255" lon="14.227145"><ele>259.0</ele><time>2026-04-13T18:20:28.674Z</time></trkpt><trkpt lat="40.8663217" lon="14.227125"><ele>259.0</ele><time>2026-04-13T18:20:29.674Z</time></trkpt><trkpt lat="40.8664317" lon="14.2271"><ele>259.0</ele><time>2026-04-13T18:20:31.676Z</time></trkpt><trkpt lat="40.8665267" lon="14.227105"><ele>259.0</ele><time>2026-04-13T18:20:33.673Z</time></trkpt><trkpt lat="40.8666267" lon="14.227135"><ele>259.0</ele><time>2026-04-13T18:20:35.674Z</time></trkpt><trkpt lat="40.86674" lon="14.2271733"><ele>259.0</ele><time>2026-04-13T18:20:37.674Z</time></trkpt><trkpt lat="40.866865" lon="14.2272167"><ele>259.0</ele><time>2026-04-13T18:20:39.673Z</time></trkpt><trkpt lat="40.8669283" lon="14.227235"><ele>259.0</ele><time>2026-04-13T18:20:40.673Z</time></trkpt><trkpt lat="40.866995" lon="14.227255"><ele>259.0</ele><time>2026-04-13T18:20:41.674Z</time></trkpt><trkpt lat="40.8670617" lon="14.2272833"><ele>259.0</ele><time>2026-04-13T18:20:42.673Z</time></trkpt><trkpt lat="40.8671333" lon="14.22731"><ele>259.0</ele><time>2026-04-13T18:20:43.674Z</time></trkpt><trkpt lat="40.867205" lon="14.2273383"><ele>259.0</ele><time>2026-04-13T18:20:44.676Z</time></trkpt><trkpt lat="40.8672733" lon="14.2273633"><ele>259.0</ele><time>2026-04-13T18:20:45.673Z</time></trkpt><trkpt lat="40.8673417" lon="14.2273833"><ele>259.0</ele><time>2026-04-13T18:20:46.676Z</time></trkpt><trkpt lat="40.867405" lon="14.2274033"><ele>257.4</ele><time>2026-04-13T18:20:47.674Z</time></trkpt><trkpt lat="40.8675083" lon="14.2274433"><ele>255.79999999999998</ele><time>2026-04-13T18:20:49.674Z</time></trkpt><trkpt lat="40.8675933" lon="14.2274817"><ele>254.20000000000002</ele><time>2026-04-13T18:20:51.675Z</time></trkpt><trkpt lat="40.8676733" lon="14.2275083"><ele>252.60000000000002</ele><time>2026-04-13T18:20:53.675Z</time></trkpt><trkpt lat="40.8677617" lon="14.227535"><ele>251.0</ele><time>2026-04-13T18:20:55.673Z</time></trkpt><trkpt lat="40.8678583" lon="14.22758"><ele>251.0</ele><time>2026-04-13T18:20:57.673Z</time></trkpt><trkpt lat="40.86797" lon="14.2276317"><ele>251.00000000000003</ele><time>2026-04-13T18:20:59.674Z</time></trkpt><trkpt lat="40.8680767" lon="14.22767"><ele>251.00000000000003</ele><time>2026-04-13T18:21:01.673Z</time></trkpt><trkpt lat="40.868145" lon="14.227695"><ele>251.0</ele><time>2026-04-13T18:21:03.674Z</time></trkpt><trkpt lat="40.868225" lon="14.227715"><ele>251.0</ele><time>2026-04-13T18:21:05.674Z</time></trkpt><trkpt lat="40.868315" lon="14.227755"><ele>251.00000000000003</ele><time>2026-04-13T18:21:07.675Z</time></trkpt><trkpt lat="40.86841" lon="14.227815"><ele>251.0</ele><time>2026-04-13T18:21:09.674Z</time></trkpt><trkpt lat="40.8684917" lon="14.2278667"><ele>251.0</ele><time>2026-04-13T18:21:11.675Z</time></trkpt><trkpt lat="40.8685717" lon="14.2278517"><ele>251.0</ele><time>2026-04-13T18:21:13.674Z</time></trkpt><trkpt lat="40.86859" lon="14.227735"><ele>251.00000000000003</ele><time>2026-04-13T18:21:16.674Z</time></trkpt><trkpt lat="40.8686067" lon="14.2276417"><ele>251.0</ele><time>2026-04-13T18:21:18.674Z</time></trkpt><trkpt lat="40.8686333" lon="14.2275067"><ele>251.4</ele><time>2026-04-13T18:21:20.673Z</time></trkpt><trkpt lat="40.8686517" lon="14.2273367"><ele>251.8</ele><time>2026-04-13T18:21:22.674Z</time></trkpt><trkpt lat="40.86866" lon="14.2272533"><ele>252.20000000000002</ele><time>2026-04-13T18:21:23.673Z</time></trkpt><trkpt lat="40.8686683" lon="14.2271667"><ele>252.60000000000002</ele><time>2026-04-13T18:21:24.674Z</time></trkpt><trkpt lat="40.8686817" lon="14.2270033"><ele>253.0</ele><time>2026-04-13T18:21:26.673Z</time></trkpt><trkpt lat="40.8686833" lon="14.22684"><ele>253.0</ele><time>2026-04-13T18:21:28.674Z</time></trkpt><trkpt lat="40.8686917" lon="14.2266783"><ele>253.0</ele><time>2026-04-13T18:21:30.674Z</time></trkpt><trkpt lat="40.8686917" lon="14.2265267"><ele>253.0</ele><time>2026-04-13T18:21:32.674Z</time></trkpt><trkpt lat="40.8687017" lon="14.226385"><ele>253.0</ele><time>2026-04-13T18:21:34.673Z</time></trkpt><trkpt lat="40.868705" lon="14.2262333"><ele>254.0</ele><time>2026-04-13T18:21:36.674Z</time></trkpt><trkpt lat="40.8687067" lon="14.22609"><ele>255.0</ele><time>2026-04-13T18:21:38.674Z</time></trkpt><trkpt lat="40.8687133" lon="14.225965"><ele>256.0</ele><time>2026-04-13T18:21:40.674Z</time></trkpt><trkpt lat="40.86872" lon="14.2258417"><ele>257.0</ele><time>2026-04-13T18:21:42.673Z</time></trkpt><trkpt lat="40.8687233" lon="14.22572"><ele>258.0</ele><time>2026-04-13T18:21:44.673Z</time></trkpt><trkpt lat="40.86874" lon="14.2256117"><ele>258.0</ele><time>2026-04-13T18:21:46.674Z</time></trkpt><trkpt lat="40.86875" lon="14.2255033"><ele>258.0</ele><time>2026-04-13T18:21:48.674Z</time></trkpt><trkpt lat="40.86875" lon="14.225395"><ele>258.0</ele><time>2026-04-13T18:21:50.673Z</time></trkpt><trkpt lat="40.8687633" lon="14.2252717"><ele>258.0</ele><time>2026-04-13T18:21:52.673Z</time></trkpt><trkpt lat="40.8687667" lon="14.2251433"><ele>258.0</ele><time>2026-04-13T18:21:54.674Z</time></trkpt><trkpt lat="40.8687617" lon="14.2250133"><ele>258.0</ele><time>2026-04-13T18:21:56.672Z</time></trkpt><trkpt lat="40.8687633" lon="14.2248817"><ele>258.0</ele><time>2026-04-13T18:21:58.673Z</time></trkpt><trkpt lat="40.868785" lon="14.2247433"><ele>258.0</ele><time>2026-04-13T18:22:00.674Z</time></trkpt><trkpt lat="40.8687933" lon="14.2246283"><ele>258.0</ele><time>2026-04-13T18:22:02.674Z</time></trkpt><trkpt lat="40.868805" lon="14.2245117"><ele>258.0</ele><time>2026-04-13T18:22:04.673Z</time></trkpt><trkpt lat="40.8688133" lon="14.2243983"><ele>258.6666666666667</ele><time>2026-04-13T18:22:06.673Z</time></trkpt><trkpt lat="40.86882" lon="14.2242833"><ele>259.3333333333333</ele><time>2026-04-13T18:22:08.673Z</time></trkpt><trkpt lat="40.8688283" lon="14.2241633"><ele>260.0</ele><time>2026-04-13T18:22:10.675Z</time></trkpt><trkpt lat="40.86887" lon="14.2240733"><ele>260.66666666666663</ele><time>2026-04-13T18:22:12.673Z</time></trkpt><trkpt lat="40.8689533" lon="14.2240033"><ele>261.3333333333333</ele><time>2026-04-13T18:22:14.673Z</time></trkpt><trkpt lat="40.8690267" lon="14.22395"><ele>262.0</ele><time>2026-04-13T18:22:16.673Z</time></trkpt><trkpt lat="40.869065" lon="14.2238683"><ele>262.16666666666663</ele><time>2026-04-13T18:22:18.673Z</time></trkpt><trkpt lat="40.86908" lon="14.223755"><ele>262.3333333333333</ele><time>2026-04-13T18:22:20.673Z</time></trkpt><trkpt lat="40.8690933" lon="14.2236417"><ele>262.5</ele><time>2026-04-13T18:22:22.674Z</time></trkpt><trkpt lat="40.8690967" lon="14.223555"><ele>262.6666666666667</ele><time>2026-04-13T18:22:23.675Z</time></trkpt><trkpt lat="40.86912" lon="14.223415"><ele>262.83333333333337</ele><time>2026-04-13T18:22:25.674Z</time></trkpt><trkpt lat="40.8691433" lon="14.22333"><ele>263.0</ele><time>2026-04-13T18:22:26.674Z</time></trkpt><trkpt lat="40.869185" lon="14.22317"><ele>262.6666666666667</ele><time>2026-04-13T18:22:28.675Z</time></trkpt><trkpt lat="40.8691983" lon="14.2230867"><ele>262.33333333333337</ele><time>2026-04-13T18:22:29.674Z</time></trkpt><trkpt lat="40.869195" lon="14.222985"><ele>262.0</ele><time>2026-04-13T18:22:30.673Z</time></trkpt><trkpt lat="40.8691917" lon="14.222895"><ele>261.6666666666667</ele><time>2026-04-13T18:22:31.673Z</time></trkpt><trkpt lat="40.8691867" lon="14.22276"><ele>261.3333333333333</ele><time>2026-04-13T18:22:33.673Z</time></trkpt><trkpt lat="40.8691883" lon="14.2226667"><ele>261.0</ele><time>2026-04-13T18:22:34.673Z</time></trkpt><trkpt lat="40.8692017" lon="14.2225433"><ele>261.0</ele><time>2026-04-13T18:22:36.674Z</time></trkpt><trkpt lat="40.8692733" lon="14.2224417"><ele>261.0</ele><time>2026-04-13T18:22:39.673Z</time></trkpt><trkpt lat="40.86939" lon="14.2223783"><ele>261.0</ele><time>2026-04-13T18:22:41.672Z</time></trkpt><trkpt lat="40.869465" lon="14.222325"><ele>261.0</ele><time>2026-04-13T18:22:42.675Z</time></trkpt><trkpt lat="40.8695417" lon="14.2222733"><ele>261.0</ele><time>2026-04-13T18:22:43.673Z</time></trkpt><trkpt lat="40.8696267" lon="14.2222317"><ele>259.8</ele><time>2026-04-13T18:22:44.674Z</time></trkpt><trkpt lat="40.8697183" lon="14.2222033"><ele>258.6</ele><time>2026-04-13T18:22:45.673Z</time></trkpt><trkpt lat="40.86981" lon="14.2221867"><ele>257.4</ele><time>2026-04-13T18:22:46.673Z</time></trkpt><trkpt lat="40.869925" lon="14.2222017"><ele>256.2</ele><time>2026-04-13T18:22:47.675Z</time></trkpt><trkpt lat="40.870025" lon="14.2221933"><ele>255.0</ele><time>2026-04-13T18:22:48.674Z</time></trkpt><trkpt lat="40.870125" lon="14.22218"><ele>253.4</ele><time>2026-04-13T18:22:49.673Z</time></trkpt><trkpt lat="40.8702283" lon="14.2221617"><ele>251.8</ele><time>2026-04-13T18:22:50.673Z</time></trkpt><trkpt lat="40.8703283" lon="14.22215"><ele>250.2</ele><time>2026-04-13T18:22:51.673Z</time></trkpt><trkpt lat="40.87043" lon="14.2221383"><ele>248.6</ele><time>2026-04-13T18:22:52.673Z</time></trkpt><trkpt lat="40.8705367" lon="14.2221183"><ele>247.0</ele><time>2026-04-13T18:22:53.674Z</time></trkpt><trkpt lat="40.8706433" lon="14.2221033"><ele>247.0</ele><time>2026-04-13T18:22:54.673Z</time></trkpt><trkpt lat="40.8707517" lon="14.2220817"><ele>247.0</ele><time>2026-04-13T18:22:55.674Z</time></trkpt><trkpt lat="40.87086" lon="14.2220467"><ele>247.0</ele><time>2026-04-13T18:22:56.674Z</time></trkpt><trkpt lat="40.8709617" lon="14.2219967"><ele>247.0</ele><time>2026-04-13T18:22:57.674Z</time></trkpt><trkpt lat="40.871065" lon="14.2219517"><ele>247.0</ele><time>2026-04-13T18:22:58.673Z</time></trkpt><trkpt lat="40.871165" lon="14.2218983"><ele>245.8</ele><time>2026-04-13T18:22:59.674Z</time></trkpt><trkpt lat="40.871265" lon="14.2218567"><ele>244.6</ele><time>2026-04-13T18:23:00.673Z</time></trkpt><trkpt lat="40.8713667" lon="14.221815"><ele>243.40000000000003</ele><time>2026-04-13T18:23:01.674Z</time></trkpt><trkpt lat="40.8714667" lon="14.2217783"><ele>242.20000000000002</ele><time>2026-04-13T18:23:02.674Z</time></trkpt><trkpt lat="40.8715717" lon="14.22176"><ele>241.0</ele><time>2026-04-13T18:23:03.673Z</time></trkpt><trkpt lat="40.8716733" lon="14.2217617"><ele>241.8</ele><time>2026-04-13T18:23:04.673Z</time></trkpt><trkpt lat="40.87178" lon="14.2217767"><ele>242.60000000000002</ele><time>2026-04-13T18:23:05.674Z</time></trkpt><trkpt lat="40.8718817" lon="14.2218067"><ele>243.4</ele><time>2026-04-13T18:23:06.674Z</time></trkpt><trkpt lat="40.871985" lon="14.2218383"><ele>244.2</ele><time>2026-04-13T18:23:07.673Z</time></trkpt><trkpt lat="40.872085" lon="14.2218767"><ele>245.0</ele><time>2026-04-13T18:23:08.673Z</time></trkpt><trkpt lat="40.8721883" lon="14.22191"><ele>245.0</ele><time>2026-04-13T18:23:09.673Z</time></trkpt><trkpt lat="40.87229" lon="14.221935"><ele>245.0</ele><time>2026-04-13T18:23:10.673Z</time></trkpt><trkpt lat="40.8723833" lon="14.2219433"><ele>245.0</ele><time>2026-04-13T18:23:11.674Z</time></trkpt><trkpt lat="40.8724767" lon="14.22193"><ele>245.0</ele><time>2026-04-13T18:23:12.675Z</time></trkpt><trkpt lat="40.8725717" lon="14.221895"><ele>245.0</ele><time>2026-04-13T18:23:13.675Z</time></trkpt><trkpt lat="40.8726683" lon="14.22184"><ele>244.2</ele><time>2026-04-13T18:23:14.673Z</time></trkpt><trkpt lat="40.87276" lon="14.22179"><ele>243.4</ele><time>2026-04-13T18:23:15.674Z</time></trkpt><trkpt lat="40.8728533" lon="14.2217367"><ele>242.60000000000002</ele><time>2026-04-13T18:23:16.673Z</time></trkpt><trkpt lat="40.8729467" lon="14.2216817"><ele>241.8</ele><time>2026-04-13T18:23:17.674Z</time></trkpt><trkpt lat="40.8730433" lon="14.221635"><ele>241.0</ele><time>2026-04-13T18:23:18.674Z</time></trkpt><trkpt lat="40.8731417" lon="14.2216033"><ele>241.0</ele><time>2026-04-13T18:23:19.673Z</time></trkpt><trkpt lat="40.8732433" lon="14.2215933"><ele>241.00000000000003</ele><time>2026-04-13T18:23:20.673Z</time></trkpt><trkpt lat="40.8733417" lon="14.2215933"><ele>241.00000000000003</ele><time>2026-04-13T18:23:21.673Z</time></trkpt><trkpt lat="40.8734433" lon="14.2216"><ele>241.0</ele><time>2026-04-13T18:23:22.674Z</time></trkpt><trkpt lat="40.8735433" lon="14.2216083"><ele>241.0</ele><time>2026-04-13T18:23:23.674Z</time></trkpt><trkpt lat="40.8736417" lon="14.2216283"><ele>240.60000000000002</ele><time>2026-04-13T18:23:24.675Z</time></trkpt><trkpt lat="40.8737383" lon="14.2216433"><ele>240.20000000000002</ele><time>2026-04-13T18:23:25.673Z</time></trkpt><trkpt lat="40.873835" lon="14.2216667"><ele>239.79999999999998</ele><time>2026-04-13T18:23:26.673Z</time></trkpt><trkpt lat="40.8739367" lon="14.2216867"><ele>239.39999999999998</ele><time>2026-04-13T18:23:27.673Z</time></trkpt><trkpt lat="40.8740333" lon="14.2217133"><ele>239.0</ele><time>2026-04-13T18:23:28.674Z</time></trkpt><trkpt lat="40.874125" lon="14.221725"><ele>239.0</ele><time>2026-04-13T18:23:29.675Z</time></trkpt><trkpt lat="40.874205" lon="14.221745"><ele>238.99999999999997</ele><time>2026-04-13T18:23:30.674Z</time></trkpt><trkpt lat="40.8742683" lon="14.22176"><ele>238.99999999999997</ele><time>2026-04-13T18:23:31.674Z</time></trkpt><trkpt lat="40.87439" lon="14.22177"><ele>239.0</ele><time>2026-04-13T18:23:33.673Z</time></trkpt><trkpt lat="40.8745033" lon="14.221785"><ele>239.0</ele><time>2026-04-13T18:23:35.674Z</time></trkpt><trkpt lat="40.8746067" lon="14.221835"><ele>238.39999999999998</ele><time>2026-04-13T18:23:37.674Z</time></trkpt><trkpt lat="40.8747083" lon="14.22193"><ele>237.79999999999998</ele><time>2026-04-13T18:23:39.673Z</time></trkpt><trkpt lat="40.8747783" lon="14.2220633"><ele>237.20000000000002</ele><time>2026-04-13T18:23:41.674Z</time></trkpt><trkpt lat="40.8747617" lon="14.222175"><ele>236.60000000000002</ele><time>2026-04-13T18:23:42.673Z</time></trkpt><trkpt lat="40.87476" lon="14.2222717"><ele>236.0</ele><time>2026-04-13T18:23:43.673Z</time></trkpt><trkpt lat="40.87474" lon="14.2223833"><ele>235.8</ele><time>2026-04-13T18:23:44.674Z</time></trkpt><trkpt lat="40.8747317" lon="14.2224967"><ele>235.60000000000002</ele><time>2026-04-13T18:23:45.675Z</time></trkpt><trkpt lat="40.87473" lon="14.222615"><ele>235.4</ele><time>2026-04-13T18:23:46.673Z</time></trkpt><trkpt lat="40.8747383" lon="14.22274"><ele>235.2</ele><time>2026-04-13T18:23:47.674Z</time></trkpt><trkpt lat="40.8747567" lon="14.2228617"><ele>235.0</ele><time>2026-04-13T18:23:48.675Z</time></trkpt><trkpt lat="40.874785" lon="14.22298"><ele>235.0</ele><time>2026-04-13T18:23:49.675Z</time></trkpt><trkpt lat="40.87482" lon="14.22309"><ele>235.0</ele><time>2026-04-13T18:23:50.674Z</time></trkpt><trkpt lat="40.8748583" lon="14.2231983"><ele>235.0</ele><time>2026-04-13T18:23:51.675Z</time></trkpt><trkpt lat="40.8749033" lon="14.2233083"><ele>235.0</ele><time>2026-04-13T18:23:52.674Z</time></trkpt><trkpt lat="40.874955" lon="14.2234133"><ele>235.0</ele><time>2026-04-13T18:23:53.673Z</time></trkpt><trkpt lat="40.8750033" lon="14.223515"><ele>234.83333333333331</ele><time>2026-04-13T18:23:54.674Z</time></trkpt><trkpt lat="40.8750583" lon="14.2236117"><ele>234.66666666666666</ele><time>2026-04-13T18:23:55.673Z</time></trkpt><trkpt lat="40.8751133" lon="14.2237017"><ele>234.5</ele><time>2026-04-13T18:23:56.673Z</time></trkpt><trkpt lat="40.8751767" lon="14.2237817"><ele>234.33333333333331</ele><time>2026-04-13T18:23:57.673Z</time></trkpt><trkpt lat="40.875245" lon="14.2238567"><ele>234.16666666666666</ele><time>2026-04-13T18:23:58.673Z</time></trkpt><trkpt lat="40.8753167" lon="14.2239217"><ele>234.0</ele><time>2026-04-13T18:23:59.674Z</time></trkpt><trkpt lat="40.8754017" lon="14.22396"><ele>232.66666666666666</ele><time>2026-04-13T18:24:00.675Z</time></trkpt><trkpt lat="40.875485" lon="14.2239933"><ele>231.33333333333331</ele><time>2026-04-13T18:24:01.673Z</time></trkpt><trkpt lat="40.8755533" lon="14.2240367"><ele>230.0</ele><time>2026-04-13T18:24:02.673Z</time></trkpt><trkpt lat="40.8756133" lon="14.2240917"><ele>228.66666666666666</ele><time>2026-04-13T18:24:03.673Z</time></trkpt><trkpt lat="40.875665" lon="14.2241533"><ele>227.33333333333331</ele><time>2026-04-13T18:24:04.674Z</time></trkpt><trkpt lat="40.8757083" lon="14.2242333"><ele>226.0</ele><time>2026-04-13T18:24:05.674Z</time></trkpt><trkpt lat="40.8757283" lon="14.2243267"><ele>225.99999999999997</ele><time>2026-04-13T18:24:06.675Z</time></trkpt><trkpt lat="40.8757217" lon="14.2244233"><ele>226.0</ele><time>2026-04-13T18:24:07.674Z</time></trkpt><trkpt lat="40.875705" lon="14.2245117"><ele>226.0</ele><time>2026-04-13T18:24:08.674Z</time></trkpt><trkpt lat="40.875655" lon="14.2246117"><ele>226.0</ele><time>2026-04-13T18:24:09.674Z</time></trkpt><trkpt lat="40.8756033" lon="14.2247217"><ele>225.99999999999997</ele><time>2026-04-13T18:24:10.674Z</time></trkpt><trkpt lat="40.8755533" lon="14.2248283"><ele>226.0</ele><time>2026-04-13T18:24:11.674Z</time></trkpt><trkpt lat="40.8755183" lon="14.2249417"><ele>225.66666666666666</ele><time>2026-04-13T18:24:12.675Z</time></trkpt><trkpt lat="40.8754817" lon="14.2250517"><ele>225.33333333333331</ele><time>2026-04-13T18:24:13.674Z</time></trkpt><trkpt lat="40.875445" lon="14.225165"><ele>225.0</ele><time>2026-04-13T18:24:14.674Z</time></trkpt><trkpt lat="40.8754117" lon="14.225275"><ele>224.66666666666669</ele><time>2026-04-13T18:24:15.673Z</time></trkpt><trkpt lat="40.8753933" lon="14.2253817"><ele>224.33333333333334</ele><time>2026-04-13T18:24:16.674Z</time></trkpt><trkpt lat="40.87537" lon="14.2255"><ele>224.0</ele><time>2026-04-13T18:24:17.675Z</time></trkpt><trkpt lat="40.875355" lon="14.2256183"><ele>224.00000000000003</ele><time>2026-04-13T18:24:18.674Z</time></trkpt><trkpt lat="40.8753433" lon="14.2257283"><ele>224.0</ele><time>2026-04-13T18:24:19.674Z</time></trkpt><trkpt lat="40.875335" lon="14.2258417"><ele>224.0</ele><time>2026-04-13T18:24:20.673Z</time></trkpt><trkpt lat="40.8753367" lon="14.2259567"><ele>224.0</ele><time>2026-04-13T18:24:21.672Z</time></trkpt><trkpt lat="40.87534" lon="14.2260717"><ele>224.00000000000003</ele><time>2026-04-13T18:24:22.673Z</time></trkpt><trkpt lat="40.875345" lon="14.2261833"><ele>224.0</ele><time>2026-04-13T18:24:23.674Z</time></trkpt><trkpt lat="40.8753517" lon="14.2262967"><ele>224.00000000000003</ele><time>2026-04-13T18:24:24.674Z</time></trkpt><trkpt lat="40.8753683" lon="14.226415"><ele>224.0</ele><time>2026-04-13T18:24:25.674Z</time></trkpt><trkpt lat="40.875385" lon="14.22653"><ele>224.0</ele><time>2026-04-13T18:24:26.673Z</time></trkpt><trkpt lat="40.8754083" lon="14.22664"><ele>224.0</ele><time>2026-04-13T18:24:27.673Z</time></trkpt><trkpt lat="40.8754383" lon="14.2267517"><ele>224.00000000000003</ele><time>2026-04-13T18:24:28.674Z</time></trkpt><trkpt lat="40.8754783" lon="14.2268583"><ele>224.0</ele><time>2026-04-13T18:24:29.674Z</time></trkpt><trkpt lat="40.875535" lon="14.2269567"><ele>223.83333333333334</ele><time>2026-04-13T18:24:30.673Z</time></trkpt><trkpt lat="40.8755967" lon="14.227045"><ele>223.66666666666669</ele><time>2026-04-13T18:24:31.676Z</time></trkpt><trkpt lat="40.8756633" lon="14.2271183"><ele>223.5</ele><time>2026-04-13T18:24:32.674Z</time></trkpt><trkpt lat="40.87573" lon="14.227185"><ele>223.33333333333331</ele><time>2026-04-13T18:24:33.675Z</time></trkpt><trkpt lat="40.8758133" lon="14.2272217"><ele>223.16666666666666</ele><time>2026-04-13T18:24:34.676Z</time></trkpt><trkpt lat="40.8759" lon="14.2272517"><ele>223.0</ele><time>2026-04-13T18:24:35.674Z</time></trkpt><trkpt lat="40.8759983" lon="14.22725"><ele>223.0</ele><time>2026-04-13T18:24:36.674Z</time></trkpt><trkpt lat="40.8760933" lon="14.2272483"><ele>223.0</ele><time>2026-04-13T18:24:37.676Z</time></trkpt><trkpt lat="40.87619" lon="14.2272467"><ele>223.0</ele><time>2026-04-13T18:24:38.674Z</time></trkpt><trkpt lat="40.8762883" lon="14.2272483"><ele>223.0</ele><time>2026-04-13T18:24:39.675Z</time></trkpt><trkpt lat="40.8763883" lon="14.2272583"><ele>223.0</ele><time>2026-04-13T18:24:40.675Z</time></trkpt><trkpt lat="40.8764833" lon="14.227285"><ele>223.0</ele><time>2026-04-13T18:24:41.675Z</time></trkpt><trkpt lat="40.8765867" lon="14.227305"><ele>223.0</ele><time>2026-04-13T18:24:42.675Z</time></trkpt><trkpt lat="40.87669" lon="14.2273283"><ele>223.0</ele><time>2026-04-13T18:24:43.676Z</time></trkpt><trkpt lat="40.8767933" lon="14.2273617"><ele>223.0</ele><time>2026-04-13T18:24:44.674Z</time></trkpt><trkpt lat="40.8768883" lon="14.2274183"><ele>223.0</ele><time>2026-04-13T18:24:45.675Z</time></trkpt><trkpt lat="40.8769883" lon="14.2274783"><ele>220.2</ele><time>2026-04-13T18:24:46.674Z</time></trkpt><trkpt lat="40.8770783" lon="14.2275617"><ele>217.4</ele><time>2026-04-13T18:24:47.674Z</time></trkpt><trkpt lat="40.8771617" lon="14.2276467"><ele>214.6</ele><time>2026-04-13T18:24:48.674Z</time></trkpt><trkpt lat="40.877245" lon="14.2277317"><ele>211.79999999999998</ele><time>2026-04-13T18:24:49.674Z</time></trkpt><trkpt lat="40.877325" lon="14.2278167"><ele>209.0</ele><time>2026-04-13T18:24:50.675Z</time></trkpt><trkpt lat="40.8774" lon="14.227895"><ele>209.00000000000003</ele><time>2026-04-13T18:24:51.674Z</time></trkpt><trkpt lat="40.8774733" lon="14.22796"><ele>209.0</ele><time>2026-04-13T18:24:52.675Z</time></trkpt><trkpt lat="40.87755" lon="14.2280083"><ele>209.0</ele><time>2026-04-13T18:24:53.675Z</time></trkpt><trkpt lat="40.87763" lon="14.2280367"><ele>209.0</ele><time>2026-04-13T18:24:54.675Z</time></trkpt><trkpt lat="40.87772" lon="14.2280283"><ele>209.00000000000003</ele><time>2026-04-13T18:24:55.674Z</time></trkpt><trkpt lat="40.877815" lon="14.22799"><ele>209.0</ele><time>2026-04-13T18:24:56.674Z</time></trkpt><trkpt lat="40.87791" lon="14.227945"><ele>208.50000000000003</ele><time>2026-04-13T18:24:57.674Z</time></trkpt><trkpt lat="40.8780017" lon="14.2279167"><ele>208.0</ele><time>2026-04-13T18:24:58.675Z</time></trkpt><trkpt lat="40.8780883" lon="14.2279067"><ele>207.5</ele><time>2026-04-13T18:24:59.675Z</time></trkpt><trkpt lat="40.8781717" lon="14.2279083"><ele>207.0</ele><time>2026-04-13T18:25:00.674Z</time></trkpt><trkpt lat="40.87824" lon="14.2279333"><ele>206.50000000000003</ele><time>2026-04-13T18:25:01.675Z</time></trkpt><trkpt lat="40.87831" lon="14.22797"><ele>206.0</ele><time>2026-04-13T18:25:02.674Z</time></trkpt><trkpt lat="40.878375" lon="14.2280283"><ele>206.00000000000003</ele><time>2026-04-13T18:25:03.675Z</time></trkpt><trkpt lat="40.8784167" lon="14.2281133"><ele>206.0</ele><time>2026-04-13T18:25:04.674Z</time></trkpt><trkpt lat="40.878455" lon="14.2282167"><ele>206.0</ele><time>2026-04-13T18:25:05.676Z</time></trkpt><trkpt lat="40.878495" lon="14.228315"><ele>206.0</ele><time>2026-04-13T18:25:06.674Z</time></trkpt><trkpt lat="40.8785367" lon="14.22841"><ele>206.00000000000003</ele><time>2026-04-13T18:25:07.676Z</time></trkpt><trkpt lat="40.8785733" lon="14.2285083"><ele>206.0</ele><time>2026-04-13T18:25:08.674Z</time></trkpt><trkpt lat="40.878605" lon="14.2286117"><ele>205.20000000000002</ele><time>2026-04-13T18:25:09.675Z</time></trkpt><trkpt lat="40.8786217" lon="14.2287183"><ele>204.4</ele><time>2026-04-13T18:25:10.674Z</time></trkpt><trkpt lat="40.8786217" lon="14.228835"><ele>203.6</ele><time>2026-04-13T18:25:11.675Z</time></trkpt><trkpt lat="40.8786067" lon="14.2289567"><ele>202.8</ele><time>2026-04-13T18:25:12.675Z</time></trkpt><trkpt lat="40.8785817" lon="14.2290867"><ele>202.0</ele><time>2026-04-13T18:25:13.676Z</time></trkpt><trkpt lat="40.87856" lon="14.2292117"><ele>201.2</ele><time>2026-04-13T18:25:14.674Z</time></trkpt><trkpt lat="40.8785383" lon="14.2293367"><ele>200.39999999999998</ele><time>2026-04-13T18:25:15.674Z</time></trkpt><trkpt lat="40.87852" lon="14.2294617"><ele>199.60000000000002</ele><time>2026-04-13T18:25:16.675Z</time></trkpt><trkpt lat="40.8785067" lon="14.2295833"><ele>198.8</ele><time>2026-04-13T18:25:17.675Z</time></trkpt><trkpt lat="40.8784933" lon="14.2296983"><ele>198.0</ele><time>2026-04-13T18:25:18.674Z</time></trkpt><trkpt lat="40.8784917" lon="14.22982"><ele>197.2</ele><time>2026-04-13T18:25:19.675Z</time></trkpt><trkpt lat="40.8784917" lon="14.2299383"><ele>196.4</ele><time>2026-04-13T18:25:20.674Z</time></trkpt><trkpt lat="40.8784917" lon="14.23006"><ele>195.6</ele><time>2026-04-13T18:25:21.675Z</time></trkpt><trkpt lat="40.87849" lon="14.2301833"><ele>194.79999999999998</ele><time>2026-04-13T18:25:22.674Z</time></trkpt><trkpt lat="40.87849" lon="14.2303067"><ele>194.0</ele><time>2026-04-13T18:25:23.676Z</time></trkpt><trkpt lat="40.87849" lon="14.2304317"><ele>194.0</ele><time>2026-04-13T18:25:24.675Z</time></trkpt><trkpt lat="40.8785017" lon="14.230555"><ele>194.0</ele><time>2026-04-13T18:25:25.676Z</time></trkpt><trkpt lat="40.878525" lon="14.230675"><ele>194.0</ele><time>2026-04-13T18:25:26.674Z</time></trkpt><trkpt lat="40.878565" lon="14.2307833"><ele>194.0</ele><time>2026-04-13T18:25:27.675Z</time></trkpt><trkpt lat="40.87862" lon="14.23088"><ele>194.0</ele><time>2026-04-13T18:25:28.674Z</time></trkpt><trkpt lat="40.8786833" lon="14.2309617"><ele>193.33333333333334</ele><time>2026-04-13T18:25:29.675Z</time></trkpt><trkpt lat="40.8787517" lon="14.2310267"><ele>192.66666666666669</ele><time>2026-04-13T18:25:30.674Z</time></trkpt><trkpt lat="40.87884" lon="14.2310467"><ele>192.0</ele><time>2026-04-13T18:25:31.674Z</time></trkpt><trkpt lat="40.87892" lon="14.2310567"><ele>191.33333333333334</ele><time>2026-04-13T18:25:32.675Z</time></trkpt><trkpt lat="40.8789967" lon="14.2310683"><ele>190.66666666666669</ele><time>2026-04-13T18:25:33.675Z</time></trkpt><trkpt lat="40.8790817" lon="14.2310817"><ele>190.0</ele><time>2026-04-13T18:25:34.675Z</time></trkpt><trkpt lat="40.8791717" lon="14.231105"><ele>190.0</ele><time>2026-04-13T18:25:35.676Z</time></trkpt><trkpt lat="40.879265" lon="14.2310983"><ele>190.0</ele><time>2026-04-13T18:25:36.674Z</time></trkpt><trkpt lat="40.87937" lon="14.2310833"><ele>190.0</ele><time>2026-04-13T18:25:37.675Z</time></trkpt><trkpt lat="40.8794767" lon="14.2310917"><ele>190.0</ele><time>2026-04-13T18:25:38.675Z</time></trkpt><trkpt lat="40.8795783" lon="14.2311183"><ele>190.0</ele><time>2026-04-13T18:25:39.674Z</time></trkpt><trkpt lat="40.879675" lon="14.2311517"><ele>190.0</ele><time>2026-04-13T18:25:40.674Z</time></trkpt><trkpt lat="40.879765" lon="14.2311967"><ele>190.0</ele><time>2026-04-13T18:25:41.674Z</time></trkpt><trkpt lat="40.87985" lon="14.2312467"><ele>190.0</ele><time>2026-04-13T18:25:42.674Z</time></trkpt><trkpt lat="40.8799233" lon="14.2313217"><ele>190.0</ele><time>2026-04-13T18:25:43.675Z</time></trkpt><trkpt lat="40.8799733" lon="14.2314117"><ele>190.0</ele><time>2026-04-13T18:25:44.675Z</time></trkpt><trkpt lat="40.8800133" lon="14.231505"><ele>190.0</ele><time>2026-04-13T18:25:45.674Z</time></trkpt><trkpt lat="40.880045" lon="14.2316083"><ele>189.2</ele><time>2026-04-13T18:25:46.675Z</time></trkpt><trkpt lat="40.8800633" lon="14.2317117"><ele>188.4</ele><time>2026-04-13T18:25:47.675Z</time></trkpt><trkpt lat="40.8800317" lon="14.23185"><ele>187.60000000000002</ele><time>2026-04-13T18:25:48.674Z</time></trkpt><trkpt lat="40.8800017" lon="14.2319617"><ele>186.8</ele><time>2026-04-13T18:25:49.675Z</time></trkpt><trkpt lat="40.87998" lon="14.232085"><ele>186.0</ele><time>2026-04-13T18:25:50.675Z</time></trkpt><trkpt lat="40.879975" lon="14.2322017"><ele>185.2857142857143</ele><time>2026-04-13T18:25:51.674Z</time></trkpt><trkpt lat="40.8799817" lon="14.2323117"><ele>184.57142857142858</ele><time>2026-04-13T18:25:52.675Z</time></trkpt><trkpt lat="40.8800033" lon="14.2323967"><ele>183.85714285714286</ele><time>2026-04-13T18:25:53.675Z</time></trkpt><trkpt lat="40.880045" lon="14.2324683"><ele>183.14285714285717</ele><time>2026-04-13T18:25:54.675Z</time></trkpt><trkpt lat="40.880105" lon="14.232515"><ele>182.42857142857142</ele><time>2026-04-13T18:25:55.676Z</time></trkpt><trkpt lat="40.8801717" lon="14.2325517"><ele>181.71428571428572</ele><time>2026-04-13T18:25:56.675Z</time></trkpt><trkpt lat="40.880235" lon="14.2325933"><ele>181.0</ele><time>2026-04-13T18:25:57.675Z</time></trkpt><trkpt lat="40.8802983" lon="14.232635"><ele>180.83333333333334</ele><time>2026-04-13T18:25:58.674Z</time></trkpt><trkpt lat="40.8803567" lon="14.2326767"><ele>180.66666666666669</ele><time>2026-04-13T18:25:59.677Z</time></trkpt><trkpt lat="40.880415" lon="14.23272"><ele>180.5</ele><time>2026-04-13T18:26:00.674Z</time></trkpt><trkpt lat="40.8804683" lon="14.2327667"><ele>180.33333333333334</ele><time>2026-04-13T18:26:01.676Z</time></trkpt><trkpt lat="40.8805633" lon="14.23285"><ele>180.16666666666666</ele><time>2026-04-13T18:26:03.674Z</time></trkpt><trkpt lat="40.880635" lon="14.2329067"><ele>180.0</ele><time>2026-04-13T18:26:05.676Z</time></trkpt><trkpt lat="40.8806883" lon="14.23297"><ele>180.0</ele><time>2026-04-13T18:26:08.674Z</time></trkpt><trkpt lat="40.880745" lon="14.23303"><ele>180.0</ele><time>2026-04-13T18:26:13.674Z</time></trkpt><trkpt lat="40.880815" lon="14.23308"><ele>180.0</ele><time>2026-04-13T18:26:15.674Z</time></trkpt><trkpt lat="40.8809217" lon="14.2331583"><ele>180.0</ele><time>2026-04-13T18:26:17.674Z</time></trkpt><trkpt lat="40.8809833" lon="14.2332117"><ele>180.0</ele><time>2026-04-13T18:26:18.676Z</time></trkpt><trkpt lat="40.8810483" lon="14.2332633"><ele>180.0</ele><time>2026-04-13T18:26:19.675Z</time></trkpt><trkpt lat="40.8811083" lon="14.2333283"><ele>179.5</ele><time>2026-04-13T18:26:20.675Z</time></trkpt><trkpt lat="40.8811717" lon="14.2334"><ele>179.0</ele><time>2026-04-13T18:26:21.674Z</time></trkpt><trkpt lat="40.8812283" lon="14.23348"><ele>178.5</ele><time>2026-04-13T18:26:22.675Z</time></trkpt><trkpt lat="40.8812833" lon="14.2335683"><ele>178.0</ele><time>2026-04-13T18:26:23.674Z</time></trkpt><trkpt lat="40.8813317" lon="14.2336583"><ele>177.5</ele><time>2026-04-13T18:26:24.675Z</time></trkpt><trkpt lat="40.8813833" lon="14.2337517"><ele>177.0</ele><time>2026-04-13T18:26:25.676Z</time></trkpt><trkpt lat="40.881415" lon="14.23386"><ele>176.66666666666666</ele><time>2026-04-13T18:26:26.675Z</time></trkpt><trkpt lat="40.8814383" lon="14.233975"><ele>176.33333333333334</ele><time>2026-04-13T18:26:27.675Z</time></trkpt><trkpt lat="40.8814567" lon="14.2340917"><ele>176.0</ele><time>2026-04-13T18:26:28.676Z</time></trkpt><trkpt lat="40.8814733" lon="14.2342117"><ele>175.66666666666669</ele><time>2026-04-13T18:26:29.674Z</time></trkpt><trkpt lat="40.88149" lon="14.2343267"><ele>175.33333333333334</ele><time>2026-04-13T18:26:30.675Z</time></trkpt><trkpt lat="40.8815017" lon="14.234435"><ele>175.0</ele><time>2026-04-13T18:26:31.675Z</time></trkpt><trkpt lat="40.8815083" lon="14.23454"><ele>175.0</ele><time>2026-04-13T18:26:32.675Z</time></trkpt><trkpt lat="40.8815083" lon="14.23465"><ele>175.0</ele><time>2026-04-13T18:26:33.674Z</time></trkpt><trkpt lat="40.8815267" lon="14.23476"><ele>175.0</ele><time>2026-04-13T18:26:34.674Z</time></trkpt><trkpt lat="40.8815683" lon="14.2348717"><ele>175.0</ele><time>2026-04-13T18:26:35.677Z</time></trkpt><trkpt lat="40.8816217" lon="14.2349733"><ele>175.0</ele><time>2026-04-13T18:26:36.675Z</time></trkpt><trkpt lat="40.8816767" lon="14.23507"><ele>175.0</ele><time>2026-04-13T18:26:37.676Z</time></trkpt><trkpt lat="40.8817333" lon="14.235165"><ele>173.2</ele><time>2026-04-13T18:26:38.674Z</time></trkpt><trkpt lat="40.8817933" lon="14.235255"><ele>171.4</ele><time>2026-04-13T18:26:39.674Z</time></trkpt><trkpt lat="40.88186" lon="14.2353467"><ele>169.60000000000002</ele><time>2026-04-13T18:26:40.673Z</time></trkpt><trkpt lat="40.881925" lon="14.2354333"><ele>167.8</ele><time>2026-04-13T18:26:41.674Z</time></trkpt><trkpt lat="40.881995" lon="14.2355183"><ele>166.0</ele><time>2026-04-13T18:26:42.675Z</time></trkpt><trkpt lat="40.882065" lon="14.2356017"><ele>165.4</ele><time>2026-04-13T18:26:43.676Z</time></trkpt><trkpt lat="40.8821367" lon="14.235685"><ele>164.8</ele><time>2026-04-13T18:26:44.675Z</time></trkpt><trkpt lat="40.8822133" lon="14.2357617"><ele>164.20000000000002</ele><time>2026-04-13T18:26:45.674Z</time></trkpt><trkpt lat="40.8822967" lon="14.2358317"><ele>163.60000000000002</ele><time>2026-04-13T18:26:46.675Z</time></trkpt><trkpt lat="40.8823817" lon="14.2359017"><ele>163.0</ele><time>2026-04-13T18:26:47.677Z</time></trkpt><trkpt lat="40.8824683" lon="14.2359667"><ele>163.0</ele><time>2026-04-13T18:26:48.675Z</time></trkpt><trkpt lat="40.8825567" lon="14.2360283"><ele>163.0</ele><time>2026-04-13T18:26:49.676Z</time></trkpt><trkpt lat="40.88265" lon="14.2360883"><ele>163.0</ele><time>2026-04-13T18:26:50.673Z</time></trkpt><trkpt lat="40.8827417" lon="14.2361483"><ele>163.0</ele><time>2026-04-13T18:26:51.674Z</time></trkpt><trkpt lat="40.8828333" lon="14.2362117"><ele>163.0</ele><time>2026-04-13T18:26:52.674Z</time></trkpt><trkpt lat="40.8829183" lon="14.2362867"><ele>162.60000000000002</ele><time>2026-04-13T18:26:53.675Z</time></trkpt><trkpt lat="40.8829983" lon="14.2363733"><ele>162.20000000000002</ele><time>2026-04-13T18:26:54.673Z</time></trkpt><trkpt lat="40.883075" lon="14.236465"><ele>161.8</ele><time>2026-04-13T18:26:55.674Z</time></trkpt><trkpt lat="40.8831483" lon="14.2365633"><ele>161.4</ele><time>2026-04-13T18:26:56.673Z</time></trkpt><trkpt lat="40.88322" lon="14.23666"><ele>161.0</ele><time>2026-04-13T18:26:57.674Z</time></trkpt><trkpt lat="40.8832917" lon="14.23675"><ele>160.20000000000002</ele><time>2026-04-13T18:26:58.674Z</time></trkpt><trkpt lat="40.8833683" lon="14.2368267"><ele>159.4</ele><time>2026-04-13T18:26:59.674Z</time></trkpt><trkpt lat="40.8834533" lon="14.2368817"><ele>158.6</ele><time>2026-04-13T18:27:00.673Z</time></trkpt><trkpt lat="40.8835433" lon="14.23692"><ele>157.8</ele><time>2026-04-13T18:27:01.674Z</time></trkpt><trkpt lat="40.883635" lon="14.2369467"><ele>157.0</ele><time>2026-04-13T18:27:02.673Z</time></trkpt><trkpt lat="40.8837333" lon="14.2369583"><ele>156.4</ele><time>2026-04-13T18:27:03.675Z</time></trkpt><trkpt lat="40.8838367" lon="14.2369533"><ele>155.79999999999998</ele><time>2026-04-13T18:27:04.673Z</time></trkpt><trkpt lat="40.88394" lon="14.2369483"><ele>155.2</ele><time>2026-04-13T18:27:05.675Z</time></trkpt><trkpt lat="40.8840383" lon="14.2369533"><ele>154.6</ele><time>2026-04-13T18:27:06.673Z</time></trkpt><trkpt lat="40.8841417" lon="14.2369583"><ele>154.0</ele><time>2026-04-13T18:27:07.673Z</time></trkpt><trkpt lat="40.8842383" lon="14.2369733"><ele>153.8</ele><time>2026-04-13T18:27:08.675Z</time></trkpt><trkpt lat="40.8843267" lon="14.2370167"><ele>153.60000000000002</ele><time>2026-04-13T18:27:09.673Z</time></trkpt><trkpt lat="40.8844133" lon="14.237065"><ele>153.4</ele><time>2026-04-13T18:27:10.673Z</time></trkpt><trkpt lat="40.8844917" lon="14.2371367"><ele>153.20000000000002</ele><time>2026-04-13T18:27:11.673Z</time></trkpt><trkpt lat="40.884565" lon="14.2372183"><ele>153.0</ele><time>2026-04-13T18:27:12.675Z</time></trkpt><trkpt lat="40.8846333" lon="14.2373117"><ele>152.4</ele><time>2026-04-13T18:27:13.673Z</time></trkpt><trkpt lat="40.8846867" lon="14.2374183"><ele>151.8</ele><time>2026-04-13T18:27:14.673Z</time></trkpt><trkpt lat="40.8847367" lon="14.23753"><ele>151.2</ele><time>2026-04-13T18:27:15.674Z</time></trkpt><trkpt lat="40.8847783" lon="14.2376533"><ele>150.6</ele><time>2026-04-13T18:27:16.675Z</time></trkpt><trkpt lat="40.8848233" lon="14.2377717"><ele>150.0</ele><time>2026-04-13T18:27:17.674Z</time></trkpt><trkpt lat="40.8848683" lon="14.2378983"><ele>150.0</ele><time>2026-04-13T18:27:18.677Z</time></trkpt><trkpt lat="40.8849117" lon="14.2380183"><ele>150.0</ele><time>2026-04-13T18:27:19.674Z</time></trkpt><trkpt lat="40.8849483" lon="14.23814"><ele>150.0</ele><time>2026-04-13T18:27:20.673Z</time></trkpt><trkpt lat="40.8849867" lon="14.2382617"><ele>150.0</ele><time>2026-04-13T18:27:21.674Z</time></trkpt><trkpt lat="40.8850217" lon="14.2383817"><ele>150.0</ele><time>2026-04-13T18:27:22.673Z</time></trkpt><trkpt lat="40.8850583" lon="14.2384967"><ele>149.8</ele><time>2026-04-13T18:27:23.675Z</time></trkpt><trkpt lat="40.8850933" lon="14.238615"><ele>149.6</ele><time>2026-04-13T18:27:24.673Z</time></trkpt><trkpt lat="40.8851283" lon="14.23873"><ele>149.4</ele><time>2026-04-13T18:27:25.675Z</time></trkpt><trkpt lat="40.88516" lon="14.2388417"><ele>149.2</ele><time>2026-04-13T18:27:26.673Z</time></trkpt><trkpt lat="40.8851917" lon="14.2389567"><ele>149.0</ele><time>2026-04-13T18:27:27.672Z</time></trkpt><trkpt lat="40.8852267" lon="14.2390817"><ele>148.4</ele><time>2026-04-13T18:27:28.674Z</time></trkpt><trkpt lat="40.8852667" lon="14.239205"><ele>147.8</ele><time>2026-04-13T18:27:29.674Z</time></trkpt><trkpt lat="40.8853017" lon="14.239325"><ele>147.2</ele><time>2026-04-13T18:27:30.674Z</time></trkpt><trkpt lat="40.885345" lon="14.2394433"><ele>146.6</ele><time>2026-04-13T18:27:31.674Z</time></trkpt><trkpt lat="40.88539" lon="14.2395633"><ele>146.0</ele><time>2026-04-13T18:27:32.673Z</time></trkpt><trkpt lat="40.885425" lon="14.2396933"><ele>145.6</ele><time>2026-04-13T18:27:33.674Z</time></trkpt><trkpt lat="40.8854667" lon="14.2398167"><ele>145.2</ele><time>2026-04-13T18:27:34.673Z</time></trkpt><trkpt lat="40.8855067" lon="14.2399367"><ele>144.8</ele><time>2026-04-13T18:27:35.674Z</time></trkpt><trkpt lat="40.8855433" lon="14.2400517"><ele>144.4</ele><time>2026-04-13T18:27:36.674Z</time></trkpt><trkpt lat="40.8855783" lon="14.2401717"><ele>144.0</ele><time>2026-04-13T18:27:37.674Z</time></trkpt><trkpt lat="40.885615" lon="14.24029"><ele>144.0</ele><time>2026-04-13T18:27:38.673Z</time></trkpt><trkpt lat="40.8856483" lon="14.24041"><ele>144.0</ele><time>2026-04-13T18:27:39.674Z</time></trkpt><trkpt lat="40.8856817" lon="14.2405233"><ele>144.0</ele><time>2026-04-13T18:27:40.674Z</time></trkpt><trkpt lat="40.885715" lon="14.2406467"><ele>144.0</ele><time>2026-04-13T18:27:41.674Z</time></trkpt><trkpt lat="40.8857483" lon="14.240765"><ele>144.0</ele><time>2026-04-13T18:27:42.673Z</time></trkpt><trkpt lat="40.885785" lon="14.240875"><ele>143.8</ele><time>2026-04-13T18:27:43.674Z</time></trkpt><trkpt lat="40.8858233" lon="14.2409883"><ele>143.60000000000002</ele><time>2026-04-13T18:27:44.673Z</time></trkpt><trkpt lat="40.8858617" lon="14.2411067"><ele>143.4</ele><time>2026-04-13T18:27:45.673Z</time></trkpt><trkpt lat="40.885905" lon="14.24123"><ele>143.20000000000002</ele><time>2026-04-13T18:27:46.674Z</time></trkpt><trkpt lat="40.8859467" lon="14.2413483"><ele>143.0</ele><time>2026-04-13T18:27:47.676Z</time></trkpt><trkpt lat="40.885985" lon="14.2414583"><ele>142.6</ele><time>2026-04-13T18:27:48.673Z</time></trkpt><trkpt lat="40.88602" lon="14.2415783"><ele>142.20000000000002</ele><time>2026-04-13T18:27:49.674Z</time></trkpt><trkpt lat="40.88606" lon="14.2416983"><ele>141.8</ele><time>2026-04-13T18:27:50.673Z</time></trkpt><trkpt lat="40.8860967" lon="14.2418217"><ele>141.4</ele><time>2026-04-13T18:27:51.673Z</time></trkpt><trkpt lat="40.8861333" lon="14.2419417"><ele>141.0</ele><time>2026-04-13T18:27:52.673Z</time></trkpt><trkpt lat="40.8861683" lon="14.24206"><ele>141.0</ele><time>2026-04-13T18:27:53.673Z</time></trkpt><trkpt lat="40.8862017" lon="14.242185"><ele>141.0</ele><time>2026-04-13T18:27:54.674Z</time></trkpt><trkpt lat="40.8862367" lon="14.2423067"><ele>141.0</ele><time>2026-04-13T18:27:55.674Z</time></trkpt><trkpt lat="40.8862683" lon="14.242435"><ele>141.0</ele><time>2026-04-13T18:27:56.673Z</time></trkpt><trkpt lat="40.8862983" lon="14.24255"><ele>141.0</ele><time>2026-04-13T18:27:57.673Z</time></trkpt><trkpt lat="40.8863367" lon="14.2426667"><ele>141.0</ele><time>2026-04-13T18:27:58.674Z</time></trkpt><trkpt lat="40.88637" lon="14.242785"><ele>141.0</ele><time>2026-04-13T18:27:59.673Z</time></trkpt><trkpt lat="40.886405" lon="14.2428967"><ele>141.0</ele><time>2026-04-13T18:28:00.674Z</time></trkpt><trkpt lat="40.8864517" lon="14.243005"><ele>141.0</ele><time>2026-04-13T18:28:01.673Z</time></trkpt><trkpt lat="40.8864933" lon="14.2431167"><ele>141.0</ele><time>2026-04-13T18:28:02.675Z</time></trkpt><trkpt lat="40.88654" lon="14.2432267"><ele>140.4</ele><time>2026-04-13T18:28:03.673Z</time></trkpt><trkpt lat="40.886575" lon="14.2433383"><ele>139.8</ele><time>2026-04-13T18:28:04.673Z</time></trkpt><trkpt lat="40.8866017" lon="14.2434533"><ele>139.20000000000002</ele><time>2026-04-13T18:28:05.674Z</time></trkpt><trkpt lat="40.886635" lon="14.2435617"><ele>138.6</ele><time>2026-04-13T18:28:06.674Z</time></trkpt><trkpt lat="40.8866667" lon="14.24367"><ele>138.0</ele><time>2026-04-13T18:28:07.674Z</time></trkpt><trkpt lat="40.8867" lon="14.243785"><ele>138.0</ele><time>2026-04-13T18:28:08.673Z</time></trkpt><trkpt lat="40.8867383" lon="14.2438917"><ele>138.0</ele><time>2026-04-13T18:28:09.672Z</time></trkpt><trkpt lat="40.886765" lon="14.2440017"><ele>138.0</ele><time>2026-04-13T18:28:10.673Z</time></trkpt><trkpt lat="40.8868033" lon="14.2441083"><ele>138.0</ele><time>2026-04-13T18:28:11.673Z</time></trkpt><trkpt lat="40.8868283" lon="14.2442133"><ele>138.0</ele><time>2026-04-13T18:28:12.673Z</time></trkpt><trkpt lat="40.8868633" lon="14.2443217"><ele>138.0</ele><time>2026-04-13T18:28:13.674Z</time></trkpt><trkpt lat="40.8868967" lon="14.2444267"><ele>137.66666666666666</ele><time>2026-04-13T18:28:14.673Z</time></trkpt><trkpt lat="40.8869383" lon="14.2445267"><ele>137.33333333333334</ele><time>2026-04-13T18:28:15.674Z</time></trkpt><trkpt lat="40.8869733" lon="14.24463"><ele>137.0</ele><time>2026-04-13T18:28:16.674Z</time></trkpt><trkpt lat="40.88701" lon="14.2447317"><ele>136.66666666666669</ele><time>2026-04-13T18:28:17.674Z</time></trkpt><trkpt lat="40.887045" lon="14.2448383"><ele>136.33333333333334</ele><time>2026-04-13T18:28:18.673Z</time></trkpt><trkpt lat="40.8870717" lon="14.24494"><ele>136.0</ele><time>2026-04-13T18:28:19.674Z</time></trkpt><trkpt lat="40.887095" lon="14.2450433"><ele>135.66666666666669</ele><time>2026-04-13T18:28:20.673Z</time></trkpt><trkpt lat="40.8871333" lon="14.2451517"><ele>135.33333333333334</ele><time>2026-04-13T18:28:21.674Z</time></trkpt><trkpt lat="40.88718" lon="14.245255"><ele>135.0</ele><time>2026-04-13T18:28:22.674Z</time></trkpt><trkpt lat="40.88722" lon="14.2453583"><ele>134.66666666666666</ele><time>2026-04-13T18:28:23.673Z</time></trkpt><trkpt lat="40.88726" lon="14.2454617"><ele>134.33333333333331</ele><time>2026-04-13T18:28:24.674Z</time></trkpt><trkpt lat="40.8873017" lon="14.2455633"><ele>134.0</ele><time>2026-04-13T18:28:25.674Z</time></trkpt><trkpt lat="40.8873467" lon="14.2456583"><ele>133.66666666666666</ele><time>2026-04-13T18:28:26.673Z</time></trkpt><trkpt lat="40.887385" lon="14.2457517"><ele>133.33333333333331</ele><time>2026-04-13T18:28:27.672Z</time></trkpt><trkpt lat="40.8874233" lon="14.2458383"><ele>133.0</ele><time>2026-04-13T18:28:28.674Z</time></trkpt><trkpt lat="40.8874567" lon="14.24592"><ele>132.66666666666666</ele><time>2026-04-13T18:28:29.674Z</time></trkpt><trkpt lat="40.887485" lon="14.245995"><ele>132.33333333333334</ele><time>2026-04-13T18:28:30.673Z</time></trkpt><trkpt lat="40.8875483" lon="14.2461467"><ele>132.0</ele><time>2026-04-13T18:28:32.674Z</time></trkpt><trkpt lat="40.88758" lon="14.2462267"><ele>131.83333333333334</ele><time>2026-04-13T18:28:33.673Z</time></trkpt><trkpt lat="40.8876117" lon="14.2463"><ele>131.66666666666666</ele><time>2026-04-13T18:28:34.673Z</time></trkpt><trkpt lat="40.8876333" lon="14.24639"><ele>131.5</ele><time>2026-04-13T18:28:35.674Z</time></trkpt><trkpt lat="40.887655" lon="14.2464817"><ele>131.33333333333331</ele><time>2026-04-13T18:28:36.673Z</time></trkpt><trkpt lat="40.88768" lon="14.2465833"><ele>131.16666666666666</ele><time>2026-04-13T18:28:37.673Z</time></trkpt><trkpt lat="40.88771" lon="14.24668"><ele>131.0</ele><time>2026-04-13T18:28:38.673Z</time></trkpt><trkpt lat="40.887735" lon="14.246785"><ele>131.0</ele><time>2026-04-13T18:28:39.672Z</time></trkpt><trkpt lat="40.8877617" lon="14.24689"><ele>131.0</ele><time>2026-04-13T18:28:40.672Z</time></trkpt><trkpt lat="40.88778" lon="14.2470067"><ele>131.0</ele><time>2026-04-13T18:28:41.672Z</time></trkpt><trkpt lat="40.8878083" lon="14.247115"><ele>131.0</ele><time>2026-04-13T18:28:42.673Z</time></trkpt><trkpt lat="40.88784" lon="14.2472117"><ele>131.0</ele><time>2026-04-13T18:28:43.673Z</time></trkpt><trkpt lat="40.8878717" lon="14.2473083"><ele>131.0</ele><time>2026-04-13T18:28:44.675Z</time></trkpt><trkpt lat="40.8879" lon="14.2474117"><ele>130.5</ele><time>2026-04-13T18:28:45.674Z</time></trkpt><trkpt lat="40.8879283" lon="14.2475233"><ele>130.0</ele><time>2026-04-13T18:28:46.673Z</time></trkpt><trkpt lat="40.8879633" lon="14.2476333"><ele>129.5</ele><time>2026-04-13T18:28:47.673Z</time></trkpt><trkpt lat="40.8879967" lon="14.2477483"><ele>129.0</ele><time>2026-04-13T18:28:48.673Z</time></trkpt><trkpt lat="40.8880317" lon="14.2478533"><ele>128.5</ele><time>2026-04-13T18:28:49.674Z</time></trkpt><trkpt lat="40.8880667" lon="14.24796"><ele>128.0</ele><time>2026-04-13T18:28:50.673Z</time></trkpt><trkpt lat="40.8881" lon="14.2480617"><ele>127.33333333333333</ele><time>2026-04-13T18:28:51.673Z</time></trkpt><trkpt lat="40.8881317" lon="14.2481633"><ele>126.66666666666666</ele><time>2026-04-13T18:28:52.673Z</time></trkpt><trkpt lat="40.8881617" lon="14.2482683"><ele>126.0</ele><time>2026-04-13T18:28:53.675Z</time></trkpt><trkpt lat="40.888195" lon="14.2483717"><ele>125.33333333333334</ele><time>2026-04-13T18:28:54.673Z</time></trkpt><trkpt lat="40.88823" lon="14.248475"><ele>124.66666666666667</ele><time>2026-04-13T18:28:55.674Z</time></trkpt><trkpt lat="40.888265" lon="14.2485717"><ele>124.0</ele><time>2026-04-13T18:28:56.673Z</time></trkpt><trkpt lat="40.8883117" lon="14.248665"><ele>124.00000000000001</ele><time>2026-04-13T18:28:57.673Z</time></trkpt><trkpt lat="40.8883433" lon="14.248765"><ele>124.0</ele><time>2026-04-13T18:28:58.674Z</time></trkpt><trkpt lat="40.8883783" lon="14.2488617"><ele>124.0</ele><time>2026-04-13T18:28:59.673Z</time></trkpt><trkpt lat="40.8884167" lon="14.2489617"><ele>124.0</ele><time>2026-04-13T18:29:00.672Z</time></trkpt><trkpt lat="40.8884533" lon="14.2490617"><ele>124.00000000000001</ele><time>2026-04-13T18:29:01.674Z</time></trkpt><trkpt lat="40.8884867" lon="14.249165"><ele>124.0</ele><time>2026-04-13T18:29:02.673Z</time></trkpt><trkpt lat="40.8885267" lon="14.2492667"><ele>123.83333333333334</ele><time>2026-04-13T18:29:03.674Z</time></trkpt><trkpt lat="40.888565" lon="14.2493667"><ele>123.66666666666667</ele><time>2026-04-13T18:29:04.673Z</time></trkpt><trkpt lat="40.8886017" lon="14.2494683"><ele>123.5</ele><time>2026-04-13T18:29:05.674Z</time></trkpt><trkpt lat="40.8886383" lon="14.2495717"><ele>123.33333333333334</ele><time>2026-04-13T18:29:06.674Z</time></trkpt><trkpt lat="40.8886717" lon="14.2496733"><ele>123.16666666666667</ele><time>2026-04-13T18:29:07.674Z</time></trkpt><trkpt lat="40.888705" lon="14.2497717"><ele>123.0</ele><time>2026-04-13T18:29:08.673Z</time></trkpt><trkpt lat="40.888735" lon="14.2498617"><ele>122.57142857142858</ele><time>2026-04-13T18:29:09.673Z</time></trkpt><trkpt lat="40.8887667" lon="14.249945"><ele>122.14285714285714</ele><time>2026-04-13T18:29:10.673Z</time></trkpt><trkpt lat="40.8888" lon="14.25003"><ele>121.71428571428572</ele><time>2026-04-13T18:29:11.674Z</time></trkpt><trkpt lat="40.8888317" lon="14.2501183"><ele>121.28571428571429</ele><time>2026-04-13T18:29:12.673Z</time></trkpt><trkpt lat="40.8888583" lon="14.2502067"><ele>120.85714285714286</ele><time>2026-04-13T18:29:13.674Z</time></trkpt><trkpt lat="40.8888767" lon="14.2503"><ele>120.42857142857143</ele><time>2026-04-13T18:29:14.673Z</time></trkpt><trkpt lat="40.8888733" lon="14.2504083"><ele>120.0</ele><time>2026-04-13T18:29:15.673Z</time></trkpt><trkpt lat="40.888865" lon="14.25051"><ele>120.0</ele><time>2026-04-13T18:29:16.673Z</time></trkpt><trkpt lat="40.8888483" lon="14.2506"><ele>120.0</ele><time>2026-04-13T18:29:17.673Z</time></trkpt><trkpt lat="40.8887733" lon="14.2507233"><ele>120.0</ele><time>2026-04-13T18:29:19.674Z</time></trkpt><trkpt lat="40.8887133" lon="14.2507733"><ele>120.0</ele><time>2026-04-13T18:29:20.673Z</time></trkpt><trkpt lat="40.88865" lon="14.2508283"><ele>120.0</ele><time>2026-04-13T18:29:21.672Z</time></trkpt><trkpt lat="40.888595" lon="14.2508917"><ele>120.0</ele><time>2026-04-13T18:29:22.673Z</time></trkpt><trkpt lat="40.8885517" lon="14.250965"><ele>120.0</ele><time>2026-04-13T18:29:23.673Z</time></trkpt><trkpt lat="40.88852" lon="14.2510467"><ele>120.0</ele><time>2026-04-13T18:29:24.673Z</time></trkpt><trkpt lat="40.888485" lon="14.2511333"><ele>120.0</ele><time>2026-04-13T18:29:25.673Z</time></trkpt><trkpt lat="40.88845" lon="14.25122"><ele>120.0</ele><time>2026-04-13T18:29:26.674Z</time></trkpt><trkpt lat="40.888415" lon="14.2513133"><ele>120.0</ele><time>2026-04-13T18:29:27.673Z</time></trkpt><trkpt lat="40.8883867" lon="14.2514133"><ele>120.0</ele><time>2026-04-13T18:29:28.674Z</time></trkpt><trkpt lat="40.8883517" lon="14.2515"><ele>120.5</ele><time>2026-04-13T18:29:29.673Z</time></trkpt><trkpt lat="40.8883233" lon="14.2515933"><ele>121.0</ele><time>2026-04-13T18:29:30.675Z</time></trkpt><trkpt lat="40.8882983" lon="14.251675"><ele>121.5</ele><time>2026-04-13T18:29:31.673Z</time></trkpt><trkpt lat="40.8882717" lon="14.2517633"><ele>122.0</ele><time>2026-04-13T18:29:32.674Z</time></trkpt><trkpt lat="40.888245" lon="14.251845"><ele>122.5</ele><time>2026-04-13T18:29:33.673Z</time></trkpt><trkpt lat="40.8882233" lon="14.2519283"><ele>123.0</ele><time>2026-04-13T18:29:34.673Z</time></trkpt><trkpt lat="40.8881717" lon="14.2520683"><ele>123.00000000000001</ele><time>2026-04-13T18:29:36.673Z</time></trkpt><trkpt lat="40.8881433" lon="14.2521433"><ele>123.0</ele><time>2026-04-13T18:29:37.674Z</time></trkpt><trkpt lat="40.8881167" lon="14.2522217"><ele>123.00000000000001</ele><time>2026-04-13T18:29:38.675Z</time></trkpt><trkpt lat="40.8880833" lon="14.2523067"><ele>123.00000000000001</ele><time>2026-04-13T18:29:39.672Z</time></trkpt><trkpt lat="40.88804" lon="14.2524067"><ele>123.0</ele><time>2026-04-13T18:29:40.673Z</time></trkpt><trkpt lat="40.8880083" lon="14.2524967"><ele>123.00000000000001</ele><time>2026-04-13T18:29:41.673Z</time></trkpt><trkpt lat="40.8879783" lon="14.2525917"><ele>123.00000000000001</ele><time>2026-04-13T18:29:42.672Z</time></trkpt><trkpt lat="40.8879483" lon="14.252695"><ele>122.83333333333333</ele><time>2026-04-13T18:29:43.673Z</time></trkpt><trkpt lat="40.8879183" lon="14.2528033"><ele>122.66666666666666</ele><time>2026-04-13T18:29:44.674Z</time></trkpt><trkpt lat="40.8878933" lon="14.2529017"><ele>122.5</ele><time>2026-04-13T18:29:45.673Z</time></trkpt><trkpt lat="40.8878733" lon="14.25302"><ele>122.33333333333333</ele><time>2026-04-13T18:29:46.674Z</time></trkpt><trkpt lat="40.8878567" lon="14.2531383"><ele>122.16666666666666</ele><time>2026-04-13T18:29:47.673Z</time></trkpt><trkpt lat="40.8878467" lon="14.2532433"><ele>122.0</ele><time>2026-04-13T18:29:48.672Z</time></trkpt><trkpt lat="40.887845" lon="14.253345"><ele>121.28571428571428</ele><time>2026-04-13T18:29:49.673Z</time></trkpt><trkpt lat="40.88784" lon="14.2534467"><ele>120.57142857142857</ele><time>2026-04-13T18:29:50.674Z</time></trkpt><trkpt lat="40.8878417" lon="14.2535467"><ele>119.85714285714286</ele><time>2026-04-13T18:29:51.674Z</time></trkpt><trkpt lat="40.8878367" lon="14.2536433"><ele>119.14285714285714</ele><time>2026-04-13T18:29:52.674Z</time></trkpt><trkpt lat="40.8878317" lon="14.2537467"><ele>118.42857142857144</ele><time>2026-04-13T18:29:53.674Z</time></trkpt><trkpt lat="40.88783" lon="14.2538467"><ele>117.71428571428572</ele><time>2026-04-13T18:29:54.673Z</time></trkpt><trkpt lat="40.887835" lon="14.2539383"><ele>117.0</ele><time>2026-04-13T18:29:55.674Z</time></trkpt><trkpt lat="40.8878483" lon="14.2540883"><ele>116.6</ele><time>2026-04-13T18:29:57.672Z</time></trkpt><trkpt lat="40.88786" lon="14.25418"><ele>116.19999999999999</ele><time>2026-04-13T18:30:54.673Z</time></trkpt><trkpt lat="40.887825" lon="14.25426"><ele>115.8</ele><time>2026-04-13T18:30:58.674Z</time></trkpt><trkpt lat="40.8878217" lon="14.2543967"><ele>115.4</ele><time>2026-04-13T18:31:01.674Z</time></trkpt><trkpt lat="40.8878133" lon="14.2545383"><ele>115.0</ele><time>2026-04-13T18:31:03.674Z</time></trkpt><trkpt lat="40.88781" lon="14.2547133"><ele>115.16666666666667</ele><time>2026-04-13T18:31:05.675Z</time></trkpt><trkpt lat="40.8878117" lon="14.2548083"><ele>115.33333333333334</ele><time>2026-04-13T18:31:06.674Z</time></trkpt><trkpt lat="40.887805" lon="14.2548983"><ele>115.5</ele><time>2026-04-13T18:31:07.674Z</time></trkpt><trkpt lat="40.8877733" lon="14.255035"><ele>115.66666666666666</ele><time>2026-04-13T18:31:09.675Z</time></trkpt><trkpt lat="40.8877017" lon="14.2551067"><ele>115.83333333333333</ele><time>2026-04-13T18:31:11.674Z</time></trkpt><trkpt lat="40.8876117" lon="14.2551133"><ele>116.0</ele><time>2026-04-13T18:31:13.674Z</time></trkpt><trkpt lat="40.88754" lon="14.2550917"><ele>115.99999999999999</ele><time>2026-04-13T18:31:14.674Z</time></trkpt><trkpt lat="40.88743" lon="14.255085"><ele>116.0</ele><time>2026-04-13T18:31:15.674Z</time></trkpt><trkpt lat="40.887365" lon="14.2550483"><ele>116.0</ele><time>2026-04-13T18:31:16.674Z</time></trkpt><trkpt lat="40.8872917" lon="14.2550083"><ele>116.0</ele><time>2026-04-13T18:31:17.673Z</time></trkpt><trkpt lat="40.8872167" lon="14.2549667"><ele>115.99999999999999</ele><time>2026-04-13T18:31:18.675Z</time></trkpt><trkpt lat="40.88715" lon="14.2549167"><ele>116.0</ele><time>2026-04-13T18:31:19.675Z</time></trkpt><trkpt lat="40.887085" lon="14.2548717"><ele>116.00000000000001</ele><time>2026-04-13T18:31:20.674Z</time></trkpt><trkpt lat="40.88702" lon="14.25483"><ele>116.0</ele><time>2026-04-13T18:31:21.673Z</time></trkpt><trkpt lat="40.8869633" lon="14.2547817"><ele>116.00000000000001</ele><time>2026-04-13T18:31:22.673Z</time></trkpt><trkpt lat="40.886905" lon="14.254735"><ele>116.00000000000001</ele><time>2026-04-13T18:31:23.674Z</time></trkpt><trkpt lat="40.886845" lon="14.2546917"><ele>116.0</ele><time>2026-04-13T18:31:24.674Z</time></trkpt><trkpt lat="40.886795" lon="14.254635"><ele>116.00000000000001</ele><time>2026-04-13T18:31:25.674Z</time></trkpt><trkpt lat="40.8867383" lon="14.2545833"><ele>116.00000000000001</ele><time>2026-04-13T18:31:26.673Z</time></trkpt><trkpt lat="40.8866783" lon="14.2545383"><ele>116.19999999999999</ele><time>2026-04-13T18:31:27.673Z</time></trkpt><trkpt lat="40.8866133" lon="14.2544883"><ele>116.39999999999999</ele><time>2026-04-13T18:31:28.673Z</time></trkpt><trkpt lat="40.88656" lon="14.2544383"><ele>116.6</ele><time>2026-04-13T18:31:29.673Z</time></trkpt><trkpt lat="40.8864517" lon="14.25435"><ele>116.8</ele><time>2026-04-13T18:31:31.674Z</time></trkpt><trkpt lat="40.8863483" lon="14.2542817"><ele>117.0</ele><time>2026-04-13T18:31:33.674Z</time></trkpt><trkpt lat="40.886245" lon="14.2542317"><ele>117.0</ele><time>2026-04-13T18:31:35.674Z</time></trkpt><trkpt lat="40.8861333" lon="14.2542333"><ele>116.99999999999999</ele><time>2026-04-13T18:31:37.674Z</time></trkpt><trkpt lat="40.88603" lon="14.25427"><ele>116.99999999999999</ele><time>2026-04-13T18:31:39.673Z</time></trkpt><trkpt lat="40.88594" lon="14.2542633"><ele>117.0</ele><time>2026-04-13T18:31:41.674Z</time></trkpt><trkpt lat="40.8858467" lon="14.25423"><ele>117.0</ele><time>2026-04-13T18:31:43.674Z</time></trkpt><trkpt lat="40.8857633" lon="14.2541933"><ele>117.5</ele><time>2026-04-13T18:31:45.674Z</time></trkpt><trkpt lat="40.8856867" lon="14.25414"><ele>118.0</ele><time>2026-04-13T18:31:47.674Z</time></trkpt><trkpt lat="40.8856117" lon="14.25408"><ele>118.5</ele><time>2026-04-13T18:31:49.673Z</time></trkpt><trkpt lat="40.885535" lon="14.25403"><ele>119.0</ele><time>2026-04-13T18:31:51.673Z</time></trkpt><trkpt lat="40.8854633" lon="14.2539783"><ele>119.5</ele><time>2026-04-13T18:31:53.674Z</time></trkpt><trkpt lat="40.8853917" lon="14.2539233"><ele>120.0</ele><time>2026-04-13T18:31:55.674Z</time></trkpt><trkpt lat="40.8853367" lon="14.25385"><ele>120.0</ele><time>2026-04-13T18:31:57.674Z</time></trkpt><trkpt lat="40.8852833" lon="14.253765"><ele>120.0</ele><time>2026-04-13T18:31:59.674Z</time></trkpt><trkpt lat="40.8852117" lon="14.2537033"><ele>120.0</ele><time>2026-04-13T18:32:01.673Z</time></trkpt><trkpt lat="40.8851367" lon="14.2536417"><ele>120.0</ele><time>2026-04-13T18:32:03.673Z</time></trkpt><trkpt lat="40.8850667" lon="14.25357"><ele>120.0</ele><time>2026-04-13T18:32:05.673Z</time></trkpt><trkpt lat="40.8849917" lon="14.253505"><ele>120.0</ele><time>2026-04-13T18:32:07.673Z</time></trkpt><trkpt lat="40.8849083" lon="14.25344"><ele>120.0</ele><time>2026-04-13T18:32:09.674Z</time></trkpt><trkpt lat="40.8848133" lon="14.2533817"><ele>120.0</ele><time>2026-04-13T18:32:11.675Z</time></trkpt><trkpt lat="40.884715" lon="14.253355"><ele>120.0</ele><time>2026-04-13T18:32:13.674Z</time></trkpt><trkpt lat="40.8846017" lon="14.2533633"><ele>120.0</ele><time>2026-04-13T18:32:15.673Z</time></trkpt><trkpt lat="40.8844917" lon="14.2533767"><ele>120.0</ele><time>2026-04-13T18:32:17.675Z</time></trkpt><trkpt lat="40.88439" lon="14.2534267"><ele>120.0</ele><time>2026-04-13T18:32:19.674Z</time></trkpt><trkpt lat="40.8842983" lon="14.2535383"><ele>120.0</ele><time>2026-04-13T18:32:21.674Z</time></trkpt><trkpt lat="40.8842383" lon="14.2536933"><ele>120.0</ele><time>2026-04-13T18:32:23.674Z</time></trkpt><trkpt lat="40.8842233" lon="14.2537833"><ele>120.0</ele><time>2026-04-13T18:32:24.674Z</time></trkpt><trkpt lat="40.884215" lon="14.2538767"><ele>120.0</ele><time>2026-04-13T18:32:25.673Z</time></trkpt><trkpt lat="40.88421" lon="14.25397"><ele>119.33333333333333</ele><time>2026-04-13T18:32:26.673Z</time></trkpt><trkpt lat="40.8842033" lon="14.2540733"><ele>118.66666666666666</ele><time>2026-04-13T18:32:27.673Z</time></trkpt><trkpt lat="40.8841983" lon="14.254185"><ele>118.0</ele><time>2026-04-13T18:32:28.673Z</time></trkpt><trkpt lat="40.88418" lon="14.2542833"><ele>117.33333333333333</ele><time>2026-04-13T18:32:29.674Z</time></trkpt><trkpt lat="40.88415" lon="14.2543783"><ele>116.66666666666666</ele><time>2026-04-13T18:32:30.675Z</time></trkpt><trkpt lat="40.88412" lon="14.2544683"><ele>116.0</ele><time>2026-04-13T18:32:31.674Z</time></trkpt><trkpt lat="40.8840917" lon="14.2545667"><ele>115.99999999999999</ele><time>2026-04-13T18:32:32.674Z</time></trkpt><trkpt lat="40.88407" lon="14.2546683"><ele>116.0</ele><time>2026-04-13T18:32:33.674Z</time></trkpt><trkpt lat="40.8840633" lon="14.2547767"><ele>116.0</ele><time>2026-04-13T18:32:34.674Z</time></trkpt><trkpt lat="40.884075" lon="14.2548867"><ele>116.0</ele><time>2026-04-13T18:32:35.674Z</time></trkpt><trkpt lat="40.8840967" lon="14.2549917"><ele>115.99999999999999</ele><time>2026-04-13T18:32:36.674Z</time></trkpt><trkpt lat="40.8841267" lon="14.255095"><ele>116.0</ele><time>2026-04-13T18:32:37.674Z</time></trkpt><trkpt lat="40.8841783" lon="14.2551817"><ele>115.99999999999999</ele><time>2026-04-13T18:32:38.673Z</time></trkpt><trkpt lat="40.8842283" lon="14.255265"><ele>116.0</ele><time>2026-04-13T18:32:39.673Z</time></trkpt><trkpt lat="40.8842767" lon="14.2553383"><ele>116.0</ele><time>2026-04-13T18:32:40.673Z</time></trkpt><trkpt lat="40.884335" lon="14.2554083"><ele>116.0</ele><time>2026-04-13T18:32:41.673Z</time></trkpt><trkpt lat="40.8843933" lon="14.25548"><ele>115.99999999999999</ele><time>2026-04-13T18:32:42.674Z</time></trkpt><trkpt lat="40.88445" lon="14.25555"><ele>116.0</ele><time>2026-04-13T18:32:43.675Z</time></trkpt><trkpt lat="40.8845" lon="14.25562"><ele>116.16666666666666</ele><time>2026-04-13T18:32:44.673Z</time></trkpt><trkpt lat="40.8845483" lon="14.2557017"><ele>116.33333333333333</ele><time>2026-04-13T18:32:45.673Z</time></trkpt><trkpt lat="40.8845983" lon="14.25578"><ele>116.5</ele><time>2026-04-13T18:32:46.674Z</time></trkpt><trkpt lat="40.8846417" lon="14.255865"><ele>116.66666666666666</ele><time>2026-04-13T18:32:47.674Z</time></trkpt><trkpt lat="40.884685" lon="14.2559567"><ele>116.83333333333333</ele><time>2026-04-13T18:32:48.674Z</time></trkpt><trkpt lat="40.8847267" lon="14.25605"><ele>117.0</ele><time>2026-04-13T18:32:49.673Z</time></trkpt><trkpt lat="40.884765" lon="14.2561467"><ele>117.0</ele><time>2026-04-13T18:32:50.674Z</time></trkpt><trkpt lat="40.8848067" lon="14.2562433"><ele>117.0</ele><time>2026-04-13T18:32:51.673Z</time></trkpt><trkpt lat="40.8848517" lon="14.25634"><ele>117.0</ele><time>2026-04-13T18:32:52.673Z</time></trkpt><trkpt lat="40.884905" lon="14.256425"><ele>117.0</ele><time>2026-04-13T18:32:53.674Z</time></trkpt><trkpt lat="40.8849667" lon="14.2565033"><ele>117.0</ele><time>2026-04-13T18:32:54.673Z</time></trkpt><trkpt lat="40.8850217" lon="14.2565817"><ele>117.0</ele><time>2026-04-13T18:32:55.674Z</time></trkpt><trkpt lat="40.8850867" lon="14.256655"><ele>117.6</ele><time>2026-04-13T18:32:56.673Z</time></trkpt><trkpt lat="40.885155" lon="14.2567233"><ele>118.19999999999999</ele><time>2026-04-13T18:32:57.673Z</time></trkpt><trkpt lat="40.8852283" lon="14.25679"><ele>118.8</ele><time>2026-04-13T18:32:58.674Z</time></trkpt><trkpt lat="40.88531" lon="14.2568517"><ele>119.4</ele><time>2026-04-13T18:32:59.674Z</time></trkpt><trkpt lat="40.8853917" lon="14.2569133"><ele>120.0</ele><time>2026-04-13T18:33:00.673Z</time></trkpt><trkpt lat="40.885475" lon="14.256975"><ele>120.0</ele><time>2026-04-13T18:33:01.675Z</time></trkpt><trkpt lat="40.885555" lon="14.2570383"><ele>120.0</ele><time>2026-04-13T18:33:02.674Z</time></trkpt><trkpt lat="40.8856333" lon="14.2571083"><ele>120.0</ele><time>2026-04-13T18:33:03.673Z</time></trkpt><trkpt lat="40.8857117" lon="14.2571767"><ele>120.0</ele><time>2026-04-13T18:33:04.675Z</time></trkpt><trkpt lat="40.88579" lon="14.2572483"><ele>120.0</ele><time>2026-04-13T18:33:05.673Z</time></trkpt><trkpt lat="40.88587" lon="14.2573033"><ele>119.2</ele><time>2026-04-13T18:33:06.675Z</time></trkpt><trkpt lat="40.88595" lon="14.2573617"><ele>118.4</ele><time>2026-04-13T18:33:07.673Z</time></trkpt><trkpt lat="40.8860267" lon="14.2574283"><ele>117.6</ele><time>2026-04-13T18:33:08.674Z</time></trkpt><trkpt lat="40.8861067" lon="14.2574917"><ele>116.8</ele><time>2026-04-13T18:33:09.675Z</time></trkpt><trkpt lat="40.8861833" lon="14.257555"><ele>116.0</ele><time>2026-04-13T18:33:10.673Z</time></trkpt><trkpt lat="40.8862617" lon="14.2576183"><ele>115.99999999999999</ele><time>2026-04-13T18:33:11.674Z</time></trkpt><trkpt lat="40.8863333" lon="14.2576817"><ele>116.0</ele><time>2026-04-13T18:33:12.674Z</time></trkpt><trkpt lat="40.886395" lon="14.2577567"><ele>116.0</ele><time>2026-04-13T18:33:13.674Z</time></trkpt><trkpt lat="40.8864483" lon="14.2578417"><ele>116.0</ele><time>2026-04-13T18:33:14.673Z</time></trkpt><trkpt lat="40.8864767" lon="14.2579417"><ele>115.99999999999999</ele><time>2026-04-13T18:33:15.673Z</time></trkpt><trkpt lat="40.8864767" lon="14.2580483"><ele>116.0</ele><time>2026-04-13T18:33:16.674Z</time></trkpt><trkpt lat="40.8864533" lon="14.2581517"><ele>115.66666666666666</ele><time>2026-04-13T18:33:17.675Z</time></trkpt><trkpt lat="40.886425" lon="14.2582483"><ele>115.33333333333333</ele><time>2026-04-13T18:33:18.673Z</time></trkpt><trkpt lat="40.8863683" lon="14.2583233"><ele>115.0</ele><time>2026-04-13T18:33:19.674Z</time></trkpt><trkpt lat="40.88633" lon="14.258405"><ele>114.66666666666666</ele><time>2026-04-13T18:33:20.674Z</time></trkpt><trkpt lat="40.8862967" lon="14.25849"><ele>114.33333333333333</ele><time>2026-04-13T18:33:21.674Z</time></trkpt><trkpt lat="40.8862533" lon="14.25858"><ele>114.0</ele><time>2026-04-13T18:33:22.673Z</time></trkpt><trkpt lat="40.88622" lon="14.25868"><ele>114.0</ele><time>2026-04-13T18:33:23.674Z</time></trkpt><trkpt lat="40.8861883" lon="14.2587783"><ele>114.0</ele><time>2026-04-13T18:33:24.673Z</time></trkpt><trkpt lat="40.8861583" lon="14.25887"><ele>114.0</ele><time>2026-04-13T18:33:25.674Z</time></trkpt><trkpt lat="40.8861233" lon="14.2589617"><ele>114.0</ele><time>2026-04-13T18:33:26.674Z</time></trkpt><trkpt lat="40.88609" lon="14.25905"><ele>114.0</ele><time>2026-04-13T18:33:27.674Z</time></trkpt><trkpt lat="40.886055" lon="14.2591417"><ele>114.0</ele><time>2026-04-13T18:33:28.675Z</time></trkpt><trkpt lat="40.88602" lon="14.2592317"><ele>113.83333333333333</ele><time>2026-04-13T18:33:29.674Z</time></trkpt><trkpt lat="40.8859883" lon="14.2593267"><ele>113.66666666666666</ele><time>2026-04-13T18:33:30.673Z</time></trkpt><trkpt lat="40.88595" lon="14.2594217"><ele>113.5</ele><time>2026-04-13T18:33:31.673Z</time></trkpt><trkpt lat="40.8859167" lon="14.25951"><ele>113.33333333333333</ele><time>2026-04-13T18:33:32.674Z</time></trkpt><trkpt lat="40.8858683" lon="14.259585"><ele>113.16666666666666</ele><time>2026-04-13T18:33:33.674Z</time></trkpt><trkpt lat="40.8858333" lon="14.259675"><ele>113.0</ele><time>2026-04-13T18:33:34.674Z</time></trkpt><trkpt lat="40.885805" lon="14.2597683"><ele>112.49999999999999</ele><time>2026-04-13T18:33:35.674Z</time></trkpt><trkpt lat="40.8857767" lon="14.259865"><ele>112.0</ele><time>2026-04-13T18:33:36.674Z</time></trkpt><trkpt lat="40.8857467" lon="14.2599617"><ele>111.5</ele><time>2026-04-13T18:33:37.674Z</time></trkpt><trkpt lat="40.8857133" lon="14.260055"><ele>111.0</ele><time>2026-04-13T18:33:38.674Z</time></trkpt><trkpt lat="40.8856833" lon="14.2601467"><ele>110.49999999999999</ele><time>2026-04-13T18:33:39.674Z</time></trkpt><trkpt lat="40.8856583" lon="14.260245"><ele>110.0</ele><time>2026-04-13T18:33:40.675Z</time></trkpt><trkpt lat="40.8856267" lon="14.2603333"><ele>109.99999999999999</ele><time>2026-04-13T18:33:41.673Z</time></trkpt><trkpt lat="40.8855967" lon="14.2604233"><ele>110.0</ele><time>2026-04-13T18:33:42.673Z</time></trkpt><trkpt lat="40.885565" lon="14.26051"><ele>110.0</ele><time>2026-04-13T18:33:43.674Z</time></trkpt><trkpt lat="40.88553" lon="14.2606033"><ele>110.0</ele><time>2026-04-13T18:33:44.674Z</time></trkpt><trkpt lat="40.8854983" lon="14.2606967"><ele>109.99999999999999</ele><time>2026-04-13T18:33:45.674Z</time></trkpt><trkpt lat="40.8854683" lon="14.2607917"><ele>110.0</ele><time>2026-04-13T18:33:46.673Z</time></trkpt><trkpt lat="40.8854383" lon="14.260895"><ele>109.83333333333333</ele><time>2026-04-13T18:33:47.675Z</time></trkpt><trkpt lat="40.8854117" lon="14.260995"><ele>109.66666666666666</ele><time>2026-04-13T18:33:48.674Z</time></trkpt><trkpt lat="40.885385" lon="14.2610933"><ele>109.5</ele><time>2026-04-13T18:33:49.674Z</time></trkpt><trkpt lat="40.8853633" lon="14.2611883"><ele>109.33333333333334</ele><time>2026-04-13T18:33:50.674Z</time></trkpt><trkpt lat="40.885345" lon="14.26128"><ele>109.16666666666667</ele><time>2026-04-13T18:33:51.674Z</time></trkpt><trkpt lat="40.885335" lon="14.2613817"><ele>109.0</ele><time>2026-04-13T18:33:52.675Z</time></trkpt><trkpt lat="40.88534" lon="14.261475"><ele>108.85714285714286</ele><time>2026-04-13T18:33:53.676Z</time></trkpt><trkpt lat="40.8853633" lon="14.26158"><ele>108.71428571428572</ele><time>2026-04-13T18:33:54.673Z</time></trkpt><trkpt lat="40.885385" lon="14.261675"><ele>108.57142857142857</ele><time>2026-04-13T18:33:55.674Z</time></trkpt><trkpt lat="40.8854017" lon="14.261765"><ele>108.42857142857143</ele><time>2026-04-13T18:33:56.675Z</time></trkpt><trkpt lat="40.8854317" lon="14.261845"><ele>108.28571428571428</ele><time>2026-04-13T18:33:57.674Z</time></trkpt><trkpt lat="40.8854717" lon="14.261925"><ele>108.14285714285714</ele><time>2026-04-13T18:33:58.674Z</time></trkpt><trkpt lat="40.8855083" lon="14.26201"><ele>108.0</ele><time>2026-04-13T18:33:59.675Z</time></trkpt><trkpt lat="40.885555" lon="14.262095"><ele>108.0</ele><time>2026-04-13T18:34:00.673Z</time></trkpt><trkpt lat="40.8856" lon="14.2621817"><ele>108.0</ele><time>2026-04-13T18:34:01.673Z</time></trkpt><trkpt lat="40.885635" lon="14.26227"><ele>108.0</ele><time>2026-04-13T18:34:02.674Z</time></trkpt><trkpt lat="40.88566" lon="14.2623583"><ele>108.0</ele><time>2026-04-13T18:34:03.675Z</time></trkpt><trkpt lat="40.8856883" lon="14.262445"><ele>108.0</ele><time>2026-04-13T18:34:04.674Z</time></trkpt><trkpt lat="40.88573" lon="14.26254"><ele>108.0</ele><time>2026-04-13T18:34:05.674Z</time></trkpt><trkpt lat="40.885775" lon="14.2626267"><ele>108.0</ele><time>2026-04-13T18:34:06.673Z</time></trkpt><trkpt lat="40.88583" lon="14.2627033"><ele>108.0</ele><time>2026-04-13T18:34:07.674Z</time></trkpt><trkpt lat="40.885885" lon="14.262775"><ele>108.0</ele><time>2026-04-13T18:34:08.674Z</time></trkpt><trkpt lat="40.8859517" lon="14.2628283"><ele>108.0</ele><time>2026-04-13T18:34:09.673Z</time></trkpt><trkpt lat="40.886025" lon="14.2628617"><ele>108.0</ele><time>2026-04-13T18:34:10.673Z</time></trkpt><trkpt lat="40.8861367" lon="14.26294"><ele>108.0</ele><time>2026-04-13T18:34:12.675Z</time></trkpt><trkpt lat="40.8862167" lon="14.263025"><ele>108.0</ele><time>2026-04-13T18:34:14.674Z</time></trkpt><trkpt lat="40.886265" lon="14.2631133"><ele>108.00000000000001</ele><time>2026-04-13T18:34:17.674Z</time></trkpt><trkpt lat="40.8862783" lon="14.263235"><ele>108.00000000000001</ele><time>2026-04-13T18:34:20.674Z</time></trkpt><trkpt lat="40.8862633" lon="14.2633417"><ele>108.0</ele><time>2026-04-13T18:34:22.674Z</time></trkpt><trkpt lat="40.886165" lon="14.2635033"><ele>108.0</ele><time>2026-04-13T18:34:24.674Z</time></trkpt><trkpt lat="40.8860717" lon="14.26362"><ele>107.5</ele><time>2026-04-13T18:34:25.674Z</time></trkpt><trkpt lat="40.88599" lon="14.263745"><ele>107.0</ele><time>2026-04-13T18:34:26.674Z</time></trkpt><trkpt lat="40.8859183" lon="14.2638617"><ele>106.5</ele><time>2026-04-13T18:34:27.673Z</time></trkpt><trkpt lat="40.8858267" lon="14.2639817"><ele>106.0</ele><time>2026-04-13T18:34:28.674Z</time></trkpt><trkpt lat="40.8857367" lon="14.2640967"><ele>105.4</ele><time>2026-04-13T18:34:29.674Z</time></trkpt><trkpt lat="40.8856333" lon="14.2642117"><ele>104.8</ele><time>2026-04-13T18:34:30.675Z</time></trkpt><trkpt lat="40.8855517" lon="14.2643183"><ele>104.2</ele><time>2026-04-13T18:34:31.674Z</time></trkpt><trkpt lat="40.8854867" lon="14.2644183"><ele>103.60000000000001</ele><time>2026-04-13T18:34:32.674Z</time></trkpt><trkpt lat="40.8854267" lon="14.2645133"><ele>103.0</ele><time>2026-04-13T18:34:33.674Z</time></trkpt><trkpt lat="40.8853683" lon="14.2646067"><ele>103.00000000000001</ele><time>2026-04-13T18:34:34.674Z</time></trkpt><trkpt lat="40.885315" lon="14.2646967"><ele>103.0</ele><time>2026-04-13T18:34:35.674Z</time></trkpt><trkpt lat="40.885255" lon="14.264785"><ele>103.0</ele><time>2026-04-13T18:34:36.674Z</time></trkpt><trkpt lat="40.885195" lon="14.26487"><ele>103.0</ele><time>2026-04-13T18:34:37.674Z</time></trkpt><trkpt lat="40.88514" lon="14.2649533"><ele>103.00000000000001</ele><time>2026-04-13T18:34:38.674Z</time></trkpt><trkpt lat="40.8850817" lon="14.2650383"><ele>103.0</ele><time>2026-04-13T18:34:39.672Z</time></trkpt><trkpt lat="40.885025" lon="14.2651217"><ele>102.83333333333334</ele><time>2026-04-13T18:34:40.674Z</time></trkpt><trkpt lat="40.88497" lon="14.2652"><ele>102.66666666666667</ele><time>2026-04-13T18:34:41.673Z</time></trkpt><trkpt lat="40.8849183" lon="14.265275"><ele>102.5</ele><time>2026-04-13T18:34:42.673Z</time></trkpt><trkpt lat="40.8848683" lon="14.2653533"><ele>102.33333333333334</ele><time>2026-04-13T18:34:43.675Z</time></trkpt><trkpt lat="40.884815" lon="14.2654267"><ele>102.16666666666667</ele><time>2026-04-13T18:34:44.674Z</time></trkpt><trkpt lat="40.884765" lon="14.2655033"><ele>102.0</ele><time>2026-04-13T18:34:45.674Z</time></trkpt><trkpt lat="40.8847083" lon="14.2655717"><ele>101.57142857142857</ele><time>2026-04-13T18:34:46.673Z</time></trkpt><trkpt lat="40.8846567" lon="14.2656367"><ele>101.14285714285714</ele><time>2026-04-13T18:34:47.674Z</time></trkpt><trkpt lat="40.8846" lon="14.2657017"><ele>100.71428571428572</ele><time>2026-04-13T18:34:48.674Z</time></trkpt><trkpt lat="40.8845433" lon="14.2657633"><ele>100.28571428571428</ele><time>2026-04-13T18:34:49.674Z</time></trkpt><trkpt lat="40.8844867" lon="14.265825"><ele>99.85714285714285</ele><time>2026-04-13T18:34:50.674Z</time></trkpt><trkpt lat="40.8844317" lon="14.265885"><ele>99.42857142857143</ele><time>2026-04-13T18:34:51.674Z</time></trkpt><trkpt lat="40.8843783" lon="14.2659483"><ele>99.0</ele><time>2026-04-13T18:34:52.673Z</time></trkpt><trkpt lat="40.8843267" lon="14.2660117"><ele>99.0</ele><time>2026-04-13T18:34:53.673Z</time></trkpt><trkpt lat="40.8842717" lon="14.2660683"><ele>99.0</ele><time>2026-04-13T18:34:54.673Z</time></trkpt><trkpt lat="40.8842183" lon="14.26613"><ele>99.0</ele><time>2026-04-13T18:34:55.675Z</time></trkpt><trkpt lat="40.8841683" lon="14.2661983"><ele>99.0</ele><time>2026-04-13T18:34:56.673Z</time></trkpt><trkpt lat="40.8841167" lon="14.266265"><ele>99.0</ele><time>2026-04-13T18:34:57.674Z</time></trkpt><trkpt lat="40.8840633" lon="14.266335"><ele>99.0</ele><time>2026-04-13T18:34:58.674Z</time></trkpt><trkpt lat="40.8840067" lon="14.2664017"><ele>99.0</ele><time>2026-04-13T18:34:59.675Z</time></trkpt><trkpt lat="40.8839533" lon="14.2664667"><ele>99.16666666666667</ele><time>2026-04-13T18:35:00.675Z</time></trkpt><trkpt lat="40.8839033" lon="14.2665383"><ele>99.33333333333334</ele><time>2026-04-13T18:35:01.674Z</time></trkpt><trkpt lat="40.8838567" lon="14.2666167"><ele>99.5</ele><time>2026-04-13T18:35:02.674Z</time></trkpt><trkpt lat="40.8838017" lon="14.26669"><ele>99.66666666666667</ele><time>2026-04-13T18:35:03.673Z</time></trkpt><trkpt lat="40.883745" lon="14.2667667"><ele>99.83333333333334</ele><time>2026-04-13T18:35:04.673Z</time></trkpt><trkpt lat="40.8836917" lon="14.266845"><ele>100.0</ele><time>2026-04-13T18:35:05.674Z</time></trkpt><trkpt lat="40.88364" lon="14.266925"><ele>100.00000000000001</ele><time>2026-04-13T18:35:06.673Z</time></trkpt><trkpt lat="40.8835883" lon="14.267"><ele>100.0</ele><time>2026-04-13T18:35:07.676Z</time></trkpt><trkpt lat="40.8835333" lon="14.2670733"><ele>100.0</ele><time>2026-04-13T18:35:08.675Z</time></trkpt><trkpt lat="40.883475" lon="14.2671467"><ele>100.0</ele><time>2026-04-13T18:35:09.673Z</time></trkpt><trkpt lat="40.8834217" lon="14.2672283"><ele>100.00000000000001</ele><time>2026-04-13T18:35:10.673Z</time></trkpt><trkpt lat="40.8833733" lon="14.2673083"><ele>100.0</ele><time>2026-04-13T18:35:11.674Z</time></trkpt><trkpt lat="40.8833283" lon="14.267395"><ele>99.50000000000001</ele><time>2026-04-13T18:35:12.675Z</time></trkpt><trkpt lat="40.8832883" lon="14.2674833"><ele>99.0</ele><time>2026-04-13T18:35:13.674Z</time></trkpt><trkpt lat="40.8832467" lon="14.2675717"><ele>98.5</ele><time>2026-04-13T18:35:14.674Z</time></trkpt><trkpt lat="40.8832017" lon="14.26766"><ele>98.0</ele><time>2026-04-13T18:35:15.673Z</time></trkpt><trkpt lat="40.8831733" lon="14.2677567"><ele>97.50000000000001</ele><time>2026-04-13T18:35:16.674Z</time></trkpt><trkpt lat="40.883145" lon="14.2678567"><ele>97.0</ele><time>2026-04-13T18:35:17.674Z</time></trkpt><trkpt lat="40.8831083" lon="14.267945"><ele>97.00000000000001</ele><time>2026-04-13T18:35:18.674Z</time></trkpt><trkpt lat="40.8830767" lon="14.2680383"><ele>97.0</ele><time>2026-04-13T18:35:19.674Z</time></trkpt><trkpt lat="40.8830433" lon="14.2681333"><ele>97.0</ele><time>2026-04-13T18:35:20.674Z</time></trkpt><trkpt lat="40.8830117" lon="14.2682367"><ele>97.0</ele><time>2026-04-13T18:35:21.673Z</time></trkpt><trkpt lat="40.8829767" lon="14.2683367"><ele>97.00000000000001</ele><time>2026-04-13T18:35:22.673Z</time></trkpt><trkpt lat="40.8829483" lon="14.2684383"><ele>97.0</ele><time>2026-04-13T18:35:23.674Z</time></trkpt><trkpt lat="40.882915" lon="14.26854"><ele>96.83333333333334</ele><time>2026-04-13T18:35:24.674Z</time></trkpt><trkpt lat="40.882875" lon="14.2686383"><ele>96.66666666666667</ele><time>2026-04-13T18:35:25.674Z</time></trkpt><trkpt lat="40.8828317" lon="14.2687333"><ele>96.5</ele><time>2026-04-13T18:35:26.674Z</time></trkpt><trkpt lat="40.8827883" lon="14.26883"><ele>96.33333333333334</ele><time>2026-04-13T18:35:27.675Z</time></trkpt><trkpt lat="40.8827417" lon="14.268925"><ele>96.16666666666667</ele><time>2026-04-13T18:35:28.674Z</time></trkpt><trkpt lat="40.8826983" lon="14.2690217"><ele>96.0</ele><time>2026-04-13T18:35:29.675Z</time></trkpt><trkpt lat="40.8826483" lon="14.2691167"><ele>96.0</ele><time>2026-04-13T18:35:30.673Z</time></trkpt><trkpt lat="40.882605" lon="14.2692117"><ele>96.0</ele><time>2026-04-13T18:35:31.674Z</time></trkpt><trkpt lat="40.8825633" lon="14.269305"><ele>96.0</ele><time>2026-04-13T18:35:32.675Z</time></trkpt><trkpt lat="40.8825167" lon="14.2693933"><ele>96.0</ele><time>2026-04-13T18:35:33.674Z</time></trkpt><trkpt lat="40.8824717" lon="14.26948"><ele>96.0</ele><time>2026-04-13T18:35:34.674Z</time></trkpt><trkpt lat="40.8824267" lon="14.2695767"><ele>96.0</ele><time>2026-04-13T18:35:35.675Z</time></trkpt><trkpt lat="40.8823733" lon="14.2696883"><ele>95.8</ele><time>2026-04-13T18:35:36.673Z</time></trkpt><trkpt lat="40.8823167" lon="14.269795"><ele>95.6</ele><time>2026-04-13T18:35:37.673Z</time></trkpt><trkpt lat="40.8822683" lon="14.2699017"><ele>95.4</ele><time>2026-04-13T18:35:38.674Z</time></trkpt><trkpt lat="40.8822233" lon="14.2700133"><ele>95.2</ele><time>2026-04-13T18:35:39.673Z</time></trkpt><trkpt lat="40.8822" lon="14.2701317"><ele>95.0</ele><time>2026-04-13T18:35:40.674Z</time></trkpt><trkpt lat="40.8821833" lon="14.27025"><ele>95.0</ele><time>2026-04-13T18:35:41.674Z</time></trkpt><trkpt lat="40.8821783" lon="14.2703667"><ele>95.0</ele><time>2026-04-13T18:35:42.674Z</time></trkpt><trkpt lat="40.88218" lon="14.2704867"><ele>95.0</ele><time>2026-04-13T18:35:43.674Z</time></trkpt><trkpt lat="40.8821733" lon="14.270605"><ele>95.0</ele><time>2026-04-13T18:35:44.674Z</time></trkpt><trkpt lat="40.8821767" lon="14.2707217"><ele>95.0</ele><time>2026-04-13T18:35:45.673Z</time></trkpt><trkpt lat="40.8821733" lon="14.27083"><ele>95.0</ele><time>2026-04-13T18:35:46.674Z</time></trkpt><trkpt lat="40.8821817" lon="14.2709333"><ele>94.83333333333334</ele><time>2026-04-13T18:35:47.675Z</time></trkpt><trkpt lat="40.8821933" lon="14.2710267"><ele>94.66666666666667</ele><time>2026-04-13T18:35:48.674Z</time></trkpt><trkpt lat="40.8822017" lon="14.2711167"><ele>94.5</ele><time>2026-04-13T18:35:49.674Z</time></trkpt><trkpt lat="40.8821967" lon="14.2712733"><ele>94.33333333333333</ele><time>2026-04-13T18:35:51.674Z</time></trkpt><trkpt lat="40.8821667" lon="14.2713917"><ele>94.16666666666666</ele><time>2026-04-13T18:35:53.674Z</time></trkpt><trkpt lat="40.8821583" lon="14.2714867"><ele>94.0</ele><time>2026-04-13T18:35:56.673Z</time></trkpt><trkpt lat="40.8821133" lon="14.271575"><ele>93.6</ele><time>2026-04-13T18:36:00.674Z</time></trkpt><trkpt lat="40.8820517" lon="14.2716617"><ele>93.2</ele><time>2026-04-13T18:36:02.673Z</time></trkpt><trkpt lat="40.8819983" lon="14.271795"><ele>92.8</ele><time>2026-04-13T18:36:04.674Z</time></trkpt><trkpt lat="40.8819867" lon="14.2719483"><ele>92.39999999999999</ele><time>2026-04-13T18:36:06.674Z</time></trkpt><trkpt lat="40.88203" lon="14.2720917"><ele>92.0</ele><time>2026-04-13T18:36:08.674Z</time></trkpt><trkpt lat="40.8821417" lon="14.272175"><ele>92.0</ele><time>2026-04-13T18:36:10.674Z</time></trkpt><trkpt lat="40.8822517" lon="14.2722567"><ele>92.0</ele><time>2026-04-13T18:36:12.674Z</time></trkpt><trkpt lat="40.8823033" lon="14.272305"><ele>92.0</ele><time>2026-04-13T18:36:13.673Z</time></trkpt><trkpt lat="40.8823567" lon="14.2723567"><ele>92.0</ele><time>2026-04-13T18:36:14.673Z</time></trkpt><trkpt lat="40.8824167" lon="14.272405"><ele>92.0</ele><time>2026-04-13T18:36:15.673Z</time></trkpt><trkpt lat="40.8824783" lon="14.2724583"><ele>92.0</ele><time>2026-04-13T18:36:16.673Z</time></trkpt><trkpt lat="40.8825417" lon="14.2725117"><ele>92.57142857142857</ele><time>2026-04-13T18:36:17.673Z</time></trkpt><trkpt lat="40.8826" lon="14.2725617"><ele>93.14285714285714</ele><time>2026-04-13T18:36:18.674Z</time></trkpt><trkpt lat="40.8826567" lon="14.2726167"><ele>93.71428571428571</ele><time>2026-04-13T18:36:19.675Z</time></trkpt><trkpt lat="40.8827183" lon="14.2726667"><ele>94.28571428571428</ele><time>2026-04-13T18:36:20.674Z</time></trkpt><trkpt lat="40.8827717" lon="14.272725"><ele>94.85714285714286</ele><time>2026-04-13T18:36:21.674Z</time></trkpt><trkpt lat="40.8828283" lon="14.27278"><ele>95.42857142857142</ele><time>2026-04-13T18:36:22.675Z</time></trkpt><trkpt lat="40.882885" lon="14.2728333"><ele>96.0</ele><time>2026-04-13T18:36:23.674Z</time></trkpt><trkpt lat="40.8829467" lon="14.2728867"><ele>95.99999999999999</ele><time>2026-04-13T18:36:24.673Z</time></trkpt><trkpt lat="40.883005" lon="14.2729383"><ele>96.0</ele><time>2026-04-13T18:36:25.674Z</time></trkpt><trkpt lat="40.883065" lon="14.2729917"><ele>96.0</ele><time>2026-04-13T18:36:26.673Z</time></trkpt><trkpt lat="40.8831283" lon="14.27305"><ele>96.0</ele><time>2026-04-13T18:36:27.673Z</time></trkpt><trkpt lat="40.8831867" lon="14.273115"><ele>96.0</ele><time>2026-04-13T18:36:28.674Z</time></trkpt><trkpt lat="40.8832483" lon="14.2731733"><ele>95.99999999999999</ele><time>2026-04-13T18:36:29.674Z</time></trkpt><trkpt lat="40.8833083" lon="14.2732367"><ele>96.0</ele><time>2026-04-13T18:36:30.673Z</time></trkpt><trkpt lat="40.883365" lon="14.2733067"><ele>95.66666666666667</ele><time>2026-04-13T18:36:31.674Z</time></trkpt><trkpt lat="40.883425" lon="14.2733733"><ele>95.33333333333333</ele><time>2026-04-13T18:36:32.673Z</time></trkpt><trkpt lat="40.8834867" lon="14.273445"><ele>95.0</ele><time>2026-04-13T18:36:33.673Z</time></trkpt><trkpt lat="40.8835533" lon="14.2735217"><ele>94.66666666666666</ele><time>2026-04-13T18:36:34.674Z</time></trkpt><trkpt lat="40.8836233" lon="14.2735983"><ele>94.33333333333333</ele><time>2026-04-13T18:36:35.673Z</time></trkpt><trkpt lat="40.8836983" lon="14.273675"><ele>94.0</ele><time>2026-04-13T18:36:36.674Z</time></trkpt><trkpt lat="40.8837783" lon="14.2737533"><ele>94.0</ele><time>2026-04-13T18:36:37.674Z</time></trkpt><trkpt lat="40.883855" lon="14.27384"><ele>94.0</ele><time>2026-04-13T18:36:38.673Z</time></trkpt><trkpt lat="40.8839383" lon="14.2739233"><ele>94.0</ele><time>2026-04-13T18:36:39.673Z</time></trkpt><trkpt lat="40.8840233" lon="14.2740017"><ele>94.0</ele><time>2026-04-13T18:36:40.672Z</time></trkpt><trkpt lat="40.8841083" lon="14.274085"><ele>94.0</ele><time>2026-04-13T18:36:41.675Z</time></trkpt><trkpt lat="40.8841983" lon="14.27417"><ele>93.4</ele><time>2026-04-13T18:36:42.673Z</time></trkpt><trkpt lat="40.8842883" lon="14.2742567"><ele>92.80000000000001</ele><time>2026-04-13T18:36:43.674Z</time></trkpt><trkpt lat="40.884375" lon="14.2743483"><ele>92.19999999999999</ele><time>2026-04-13T18:36:44.673Z</time></trkpt><trkpt lat="40.884465" lon="14.2744367"><ele>91.6</ele><time>2026-04-13T18:36:45.673Z</time></trkpt><trkpt lat="40.8845533" lon="14.27452"><ele>91.0</ele><time>2026-04-13T18:36:46.674Z</time></trkpt><trkpt lat="40.884635" lon="14.2746033"><ele>91.0</ele><time>2026-04-13T18:36:47.674Z</time></trkpt><trkpt lat="40.8847117" lon="14.274685"><ele>91.0</ele><time>2026-04-13T18:36:48.674Z</time></trkpt><trkpt lat="40.8847883" lon="14.274765"><ele>91.0</ele><time>2026-04-13T18:36:49.673Z</time></trkpt><trkpt lat="40.8848617" lon="14.2748433"><ele>91.0</ele><time>2026-04-13T18:36:50.673Z</time></trkpt><trkpt lat="40.88494" lon="14.2749133"><ele>91.0</ele><time>2026-04-13T18:36:51.673Z</time></trkpt><trkpt lat="40.885015" lon="14.2749817"><ele>91.16666666666666</ele><time>2026-04-13T18:36:52.674Z</time></trkpt><trkpt lat="40.8850883" lon="14.2750533"><ele>91.33333333333333</ele><time>2026-04-13T18:36:53.674Z</time></trkpt><trkpt lat="40.8851583" lon="14.275125"><ele>91.5</ele><time>2026-04-13T18:36:54.673Z</time></trkpt><trkpt lat="40.885225" lon="14.275195"><ele>91.66666666666667</ele><time>2026-04-13T18:36:55.674Z</time></trkpt><trkpt lat="40.8852883" lon="14.2752667"><ele>91.83333333333334</ele><time>2026-04-13T18:36:56.674Z</time></trkpt><trkpt lat="40.8853533" lon="14.275335"><ele>92.0</ele><time>2026-04-13T18:36:57.674Z</time></trkpt><trkpt lat="40.8854217" lon="14.2753983"><ele>92.0</ele><time>2026-04-13T18:36:58.673Z</time></trkpt><trkpt lat="40.88549" lon="14.27546"><ele>92.0</ele><time>2026-04-13T18:36:59.674Z</time></trkpt><trkpt lat="40.8855567" lon="14.2755167"><ele>92.0</ele><time>2026-04-13T18:37:00.674Z</time></trkpt><trkpt lat="40.8856217" lon="14.27557"><ele>92.0</ele><time>2026-04-13T18:37:01.674Z</time></trkpt><trkpt lat="40.8856917" lon="14.275615"><ele>92.0</ele><time>2026-04-13T18:37:02.673Z</time></trkpt><trkpt lat="40.8857617" lon="14.275655"><ele>92.0</ele><time>2026-04-13T18:37:03.673Z</time></trkpt><trkpt lat="40.885835" lon="14.2756917"><ele>91.66666666666667</ele><time>2026-04-13T18:37:04.673Z</time></trkpt><trkpt lat="40.8859033" lon="14.27573"><ele>91.33333333333334</ele><time>2026-04-13T18:37:05.674Z</time></trkpt><trkpt lat="40.8859783" lon="14.27576"><ele>91.0</ele><time>2026-04-13T18:37:06.673Z</time></trkpt><trkpt lat="40.8860517" lon="14.2757933"><ele>90.66666666666667</ele><time>2026-04-13T18:37:07.673Z</time></trkpt><trkpt lat="40.88612" lon="14.2758317"><ele>90.33333333333333</ele><time>2026-04-13T18:37:08.673Z</time></trkpt><trkpt lat="40.8861983" lon="14.27587"><ele>90.0</ele><time>2026-04-13T18:37:09.674Z</time></trkpt><trkpt lat="40.88627" lon="14.2759167"><ele>90.0</ele><time>2026-04-13T18:37:10.672Z</time></trkpt><trkpt lat="40.886345" lon="14.27597"><ele>90.0</ele><time>2026-04-13T18:37:11.675Z</time></trkpt><trkpt lat="40.8864133" lon="14.2760233"><ele>90.0</ele><time>2026-04-13T18:37:12.673Z</time></trkpt><trkpt lat="40.8864783" lon="14.2760767"><ele>90.0</ele><time>2026-04-13T18:37:13.674Z</time></trkpt><trkpt lat="40.8865533" lon="14.276125"><ele>90.0</ele><time>2026-04-13T18:37:14.674Z</time></trkpt><trkpt lat="40.8866083" lon="14.276185"><ele>90.0</ele><time>2026-04-13T18:37:15.675Z</time></trkpt><trkpt lat="40.8866767" lon="14.2762417"><ele>90.0</ele><time>2026-04-13T18:37:16.674Z</time></trkpt><trkpt lat="40.886745" lon="14.2762967"><ele>90.0</ele><time>2026-04-13T18:37:17.674Z</time></trkpt><trkpt lat="40.88681" lon="14.2763483"><ele>90.0</ele><time>2026-04-13T18:37:18.674Z</time></trkpt><trkpt lat="40.886875" lon="14.2763883"><ele>90.0</ele><time>2026-04-13T18:37:19.676Z</time></trkpt><trkpt lat="40.8869367" lon="14.2764267"><ele>90.0</ele><time>2026-04-13T18:37:20.674Z</time></trkpt><trkpt lat="40.887" lon="14.276465"><ele>90.0</ele><time>2026-04-13T18:37:21.674Z</time></trkpt><trkpt lat="40.88706" lon="14.2765017"><ele>90.0</ele><time>2026-04-13T18:37:22.675Z</time></trkpt><trkpt lat="40.8871683" lon="14.2765767"><ele>90.0</ele><time>2026-04-13T18:37:24.675Z</time></trkpt><trkpt lat="40.887275" lon="14.2766533"><ele>90.0</ele><time>2026-04-13T18:37:26.673Z</time></trkpt><trkpt lat="40.8873333" lon="14.2766933"><ele>90.0</ele><time>2026-04-13T18:37:27.673Z</time></trkpt><trkpt lat="40.887395" lon="14.27674"><ele>90.0</ele><time>2026-04-13T18:37:28.674Z</time></trkpt><trkpt lat="40.8874633" lon="14.276785"><ele>90.0</ele><time>2026-04-13T18:37:29.674Z</time></trkpt><trkpt lat="40.8875317" lon="14.2768333"><ele>90.0</ele><time>2026-04-13T18:37:30.674Z</time></trkpt><trkpt lat="40.887605" lon="14.2768783"><ele>90.0</ele><time>2026-04-13T18:37:31.674Z</time></trkpt><trkpt lat="40.8876733" lon="14.276925"><ele>90.0</ele><time>2026-04-13T18:37:32.674Z</time></trkpt><trkpt lat="40.8877433" lon="14.2769767"><ele>90.0</ele><time>2026-04-13T18:37:33.673Z</time></trkpt><trkpt lat="40.8878167" lon="14.2770267"><ele>90.0</ele><time>2026-04-13T18:37:34.674Z</time></trkpt><trkpt lat="40.8878833" lon="14.2770783"><ele>90.0</ele><time>2026-04-13T18:37:35.673Z</time></trkpt><trkpt lat="40.8879483" lon="14.27713"><ele>90.0</ele><time>2026-04-13T18:37:36.674Z</time></trkpt><trkpt lat="40.8880233" lon="14.27719"><ele>90.0</ele><time>2026-04-13T18:37:37.674Z</time></trkpt><trkpt lat="40.8880833" lon="14.2772283"><ele>90.0</ele><time>2026-04-13T18:37:38.674Z</time></trkpt><trkpt lat="40.8881433" lon="14.2772733"><ele>90.0</ele><time>2026-04-13T18:37:39.673Z</time></trkpt><trkpt lat="40.8881967" lon="14.2773233"><ele>90.0</ele><time>2026-04-13T18:37:40.674Z</time></trkpt><trkpt lat="40.8882567" lon="14.2773733"><ele>90.0</ele><time>2026-04-13T18:37:41.673Z</time></trkpt><trkpt lat="40.8883133" lon="14.2774267"><ele>90.0</ele><time>2026-04-13T18:37:42.674Z</time></trkpt><trkpt lat="40.888365" lon="14.2774783"><ele>90.0</ele><time>2026-04-13T18:37:43.674Z</time></trkpt><trkpt lat="40.888415" lon="14.27753"><ele>90.0</ele><time>2026-04-13T18:37:44.673Z</time></trkpt><trkpt lat="40.8884683" lon="14.2775783"><ele>90.0</ele><time>2026-04-13T18:37:45.674Z</time></trkpt><trkpt lat="40.88852" lon="14.27763"><ele>90.0</ele><time>2026-04-13T18:37:46.674Z</time></trkpt><trkpt lat="40.88858" lon="14.277675"><ele>90.0</ele><time>2026-04-13T18:37:47.675Z</time></trkpt><trkpt lat="40.88864" lon="14.2777217"><ele>90.0</ele><time>2026-04-13T18:37:48.674Z</time></trkpt><trkpt lat="40.888695" lon="14.2777733"><ele>90.0</ele><time>2026-04-13T18:37:49.675Z</time></trkpt><trkpt lat="40.8887567" lon="14.27781"><ele>90.0</ele><time>2026-04-13T18:37:50.673Z</time></trkpt><trkpt lat="40.8888183" lon="14.2778433"><ele>90.0</ele><time>2026-04-13T18:37:51.674Z</time></trkpt><trkpt lat="40.8888783" lon="14.2778817"><ele>90.0</ele><time>2026-04-13T18:37:52.674Z</time></trkpt><trkpt lat="40.8889367" lon="14.27792"><ele>90.0</ele><time>2026-04-13T18:37:53.674Z</time></trkpt><trkpt lat="40.889" lon="14.2779567"><ele>90.0</ele><time>2026-04-13T18:37:54.673Z</time></trkpt><trkpt lat="40.8890683" lon="14.277985"><ele>90.0</ele><time>2026-04-13T18:37:55.674Z</time></trkpt><trkpt lat="40.8891367" lon="14.2780133"><ele>90.0</ele><time>2026-04-13T18:37:56.673Z</time></trkpt><trkpt lat="40.8892083" lon="14.2780467"><ele>90.0</ele><time>2026-04-13T18:37:57.674Z</time></trkpt><trkpt lat="40.889285" lon="14.278065"><ele>90.33333333333333</ele><time>2026-04-13T18:37:58.673Z</time></trkpt><trkpt lat="40.88937" lon="14.2780717"><ele>90.66666666666667</ele><time>2026-04-13T18:37:59.675Z</time></trkpt><trkpt lat="40.889455" lon="14.2780817"><ele>91.0</ele><time>2026-04-13T18:38:00.673Z</time></trkpt><trkpt lat="40.8895317" lon="14.2780967"><ele>91.33333333333334</ele><time>2026-04-13T18:38:01.675Z</time></trkpt><trkpt lat="40.8896083" lon="14.2781117"><ele>91.66666666666667</ele><time>2026-04-13T18:38:02.674Z</time></trkpt><trkpt lat="40.8896867" lon="14.2781267"><ele>92.0</ele><time>2026-04-13T18:38:03.675Z</time></trkpt><trkpt lat="40.8897633" lon="14.278165"><ele>92.16666666666667</ele><time>2026-04-13T18:38:04.675Z</time></trkpt><trkpt lat="40.88983" lon="14.2782133"><ele>92.33333333333334</ele><time>2026-04-13T18:38:05.674Z</time></trkpt><trkpt lat="40.8898917" lon="14.278255"><ele>92.5</ele><time>2026-04-13T18:38:06.674Z</time></trkpt><trkpt lat="40.88996" lon="14.2782933"><ele>92.66666666666667</ele><time>2026-04-13T18:38:07.675Z</time></trkpt><trkpt lat="40.89003" lon="14.2783317"><ele>92.83333333333333</ele><time>2026-04-13T18:38:08.675Z</time></trkpt><trkpt lat="40.8901017" lon="14.278365"><ele>93.0</ele><time>2026-04-13T18:38:09.674Z</time></trkpt><trkpt lat="40.8901833" lon="14.27839"><ele>93.00000000000001</ele><time>2026-04-13T18:38:10.674Z</time></trkpt><trkpt lat="40.8902617" lon="14.2784233"><ele>93.0</ele><time>2026-04-13T18:38:11.673Z</time></trkpt><trkpt lat="40.8903317" lon="14.2784617"><ele>93.0</ele><time>2026-04-13T18:38:12.675Z</time></trkpt><trkpt lat="40.8904017" lon="14.278495"><ele>93.0</ele><time>2026-04-13T18:38:13.674Z</time></trkpt><trkpt lat="40.8904683" lon="14.2785267"><ele>93.0</ele><time>2026-04-13T18:38:14.674Z</time></trkpt><trkpt lat="40.8905333" lon="14.27857"><ele>93.00000000000001</ele><time>2026-04-13T18:38:15.673Z</time></trkpt><trkpt lat="40.8906" lon="14.27861"><ele>93.0</ele><time>2026-04-13T18:38:16.674Z</time></trkpt><trkpt lat="40.8906717" lon="14.2786383"><ele>93.00000000000001</ele><time>2026-04-13T18:38:17.673Z</time></trkpt><trkpt lat="40.89074" lon="14.2786683"><ele>93.0</ele><time>2026-04-13T18:38:18.674Z</time></trkpt><trkpt lat="40.890805" lon="14.2786933"><ele>93.0</ele><time>2026-04-13T18:38:19.673Z</time></trkpt><trkpt lat="40.8908667" lon="14.2787333"><ele>93.0</ele><time>2026-04-13T18:38:20.675Z</time></trkpt><trkpt lat="40.8909267" lon="14.27877"><ele>93.0</ele><time>2026-04-13T18:38:21.673Z</time></trkpt><trkpt lat="40.8909933" lon="14.2788083"><ele>93.00000000000001</ele><time>2026-04-13T18:38:22.674Z</time></trkpt><trkpt lat="40.8910617" lon="14.278845"><ele>93.0</ele><time>2026-04-13T18:38:23.675Z</time></trkpt><trkpt lat="40.891125" lon="14.2789033"><ele>92.57142857142858</ele><time>2026-04-13T18:38:24.674Z</time></trkpt><trkpt lat="40.891185" lon="14.2789533"><ele>92.14285714285714</ele><time>2026-04-13T18:38:25.674Z</time></trkpt><trkpt lat="40.8912483" lon="14.27899"><ele>91.71428571428572</ele><time>2026-04-13T18:38:26.674Z</time></trkpt><trkpt lat="40.8913167" lon="14.279025"><ele>91.28571428571429</ele><time>2026-04-13T18:38:27.673Z</time></trkpt><trkpt lat="40.8913817" lon="14.279065"><ele>90.85714285714286</ele><time>2026-04-13T18:38:28.674Z</time></trkpt><trkpt lat="40.8914467" lon="14.279105"><ele>90.42857142857143</ele><time>2026-04-13T18:38:29.674Z</time></trkpt><trkpt lat="40.8915083" lon="14.2791467"><ele>90.0</ele><time>2026-04-13T18:38:30.674Z</time></trkpt><trkpt lat="40.8915783" lon="14.2791783"><ele>90.0</ele><time>2026-04-13T18:38:31.674Z</time></trkpt><trkpt lat="40.8916483" lon="14.279215"><ele>90.0</ele><time>2026-04-13T18:38:32.674Z</time></trkpt><trkpt lat="40.891715" lon="14.2792417"><ele>90.0</ele><time>2026-04-13T18:38:33.674Z</time></trkpt><trkpt lat="40.8917817" lon="14.2792667"><ele>90.0</ele><time>2026-04-13T18:38:34.675Z</time></trkpt><trkpt lat="40.891865" lon="14.2792517"><ele>90.0</ele><time>2026-04-13T18:38:35.674Z</time></trkpt><trkpt lat="40.89193" lon="14.2792983"><ele>90.0</ele><time>2026-04-13T18:38:37.675Z</time></trkpt><trkpt lat="40.8918383" lon="14.2793833"><ele>90.0</ele><time>2026-04-13T18:38:40.674Z</time></trkpt><trkpt lat="40.891775" lon="14.2794233"><ele>90.0</ele><time>2026-04-13T18:38:41.673Z</time></trkpt><trkpt lat="40.8917083" lon="14.2794883"><ele>90.0</ele><time>2026-04-13T18:38:42.673Z</time></trkpt><trkpt lat="40.8916533" lon="14.27954"><ele>90.0</ele><time>2026-04-13T18:38:43.674Z</time></trkpt><trkpt lat="40.891595" lon="14.2795933"><ele>90.0</ele><time>2026-04-13T18:38:44.673Z</time></trkpt><trkpt lat="40.8915217" lon="14.2796367"><ele>90.0</ele><time>2026-04-13T18:38:45.675Z</time></trkpt><trkpt lat="40.8914233" lon="14.2797183"><ele>89.4</ele><time>2026-04-13T18:38:47.674Z</time></trkpt><trkpt lat="40.8913317" lon="14.2798017"><ele>88.8</ele><time>2026-04-13T18:38:49.675Z</time></trkpt><trkpt lat="40.89128" lon="14.27985"><ele>88.19999999999999</ele><time>2026-04-13T18:38:50.675Z</time></trkpt><trkpt lat="40.8911833" lon="14.2799483"><ele>87.6</ele><time>2026-04-13T18:38:52.673Z</time></trkpt><trkpt lat="40.8910817" lon="14.28006"><ele>87.0</ele><time>2026-04-13T18:38:54.674Z</time></trkpt><trkpt lat="40.8909817" lon="14.28016"><ele>86.8</ele><time>2026-04-13T18:38:56.674Z</time></trkpt><trkpt lat="40.89088" lon="14.2802517"><ele>86.6</ele><time>2026-04-13T18:38:58.674Z</time></trkpt><trkpt lat="40.8908267" lon="14.2803017"><ele>86.39999999999999</ele><time>2026-04-13T18:38:59.675Z</time></trkpt><trkpt lat="40.89077" lon="14.2803467"><ele>86.19999999999999</ele><time>2026-04-13T18:39:00.675Z</time></trkpt><trkpt lat="40.89067" lon="14.2804367"><ele>86.0</ele><time>2026-04-13T18:39:02.674Z</time></trkpt><trkpt lat="40.890575" lon="14.2805283"><ele>85.83333333333334</ele><time>2026-04-13T18:39:04.675Z</time></trkpt><trkpt lat="40.8904717" lon="14.280615"><ele>85.66666666666667</ele><time>2026-04-13T18:39:06.674Z</time></trkpt><trkpt lat="40.8903667" lon="14.2807117"><ele>85.5</ele><time>2026-04-13T18:39:08.675Z</time></trkpt><trkpt lat="40.89032" lon="14.2807683"><ele>85.33333333333333</ele><time>2026-04-13T18:39:09.674Z</time></trkpt><trkpt lat="40.8902667" lon="14.280815"><ele>85.16666666666666</ele><time>2026-04-13T18:39:10.673Z</time></trkpt><trkpt lat="40.8902117" lon="14.2808617"><ele>85.0</ele><time>2026-04-13T18:39:11.674Z</time></trkpt><trkpt lat="40.8901283" lon="14.2809483"><ele>85.0</ele><time>2026-04-13T18:39:13.673Z</time></trkpt><trkpt lat="40.890075" lon="14.28105"><ele>85.0</ele><time>2026-04-13T18:39:15.675Z</time></trkpt><trkpt lat="40.8901383" lon="14.2811967"><ele>85.0</ele><time>2026-04-13T18:39:17.674Z</time></trkpt><trkpt lat="40.890205" lon="14.2812733"><ele>85.0</ele><time>2026-04-13T18:39:18.673Z</time></trkpt><trkpt lat="40.8902833" lon="14.2813617"><ele>85.0</ele><time>2026-04-13T18:39:19.673Z</time></trkpt><trkpt lat="40.890345" lon="14.281445"><ele>85.2</ele><time>2026-04-13T18:39:20.675Z</time></trkpt><trkpt lat="40.89042" lon="14.2815333"><ele>85.4</ele><time>2026-04-13T18:39:21.674Z</time></trkpt><trkpt lat="40.8904867" lon="14.281635"><ele>85.6</ele><time>2026-04-13T18:39:22.673Z</time></trkpt><trkpt lat="40.8905617" lon="14.2817217"><ele>85.8</ele><time>2026-04-13T18:39:23.674Z</time></trkpt><trkpt lat="40.8906417" lon="14.2818017"><ele>86.0</ele><time>2026-04-13T18:39:24.675Z</time></trkpt><trkpt lat="40.8907183" lon="14.281885"><ele>86.0</ele><time>2026-04-13T18:39:25.674Z</time></trkpt><trkpt lat="40.8907883" lon="14.2819633"><ele>86.0</ele><time>2026-04-13T18:39:26.674Z</time></trkpt><trkpt lat="40.8908467" lon="14.282045"><ele>86.0</ele><time>2026-04-13T18:39:27.672Z</time></trkpt><trkpt lat="40.8909133" lon="14.2821367"><ele>86.0</ele><time>2026-04-13T18:39:28.674Z</time></trkpt><trkpt lat="40.8909667" lon="14.282225"><ele>86.0</ele><time>2026-04-13T18:39:29.673Z</time></trkpt><trkpt lat="40.89102" lon="14.2823"><ele>86.0</ele><time>2026-04-13T18:39:30.674Z</time></trkpt><trkpt lat="40.89107" lon="14.2823717"><ele>86.16666666666667</ele><time>2026-04-13T18:39:31.675Z</time></trkpt><trkpt lat="40.8911217" lon="14.2824467"><ele>86.33333333333334</ele><time>2026-04-13T18:39:32.674Z</time></trkpt><trkpt lat="40.891165" lon="14.2825133"><ele>86.5</ele><time>2026-04-13T18:39:33.674Z</time></trkpt><trkpt lat="40.8912533" lon="14.28261"><ele>86.66666666666667</ele><time>2026-04-13T18:39:35.674Z</time></trkpt><trkpt lat="40.891335" lon="14.2826567"><ele>86.83333333333333</ele><time>2026-04-13T18:39:37.674Z</time></trkpt><trkpt lat="40.8912833" lon="14.2827733"><ele>87.0</ele><time>2026-04-13T18:39:40.675Z</time></trkpt><trkpt lat="40.8912267" lon="14.2828133"><ele>87.0</ele><time>2026-04-13T18:39:41.675Z</time></trkpt><trkpt lat="40.8912233" lon="14.282925"><ele>87.0</ele><time>2026-04-13T18:39:44.674Z</time></trkpt><trkpt lat="40.8912867" lon="14.283"><ele>87.0</ele><time>2026-04-13T18:39:46.673Z</time></trkpt><trkpt lat="40.8913433" lon="14.2830717"><ele>87.0</ele><time>2026-04-13T18:39:48.674Z</time></trkpt><trkpt lat="40.8914483" lon="14.2831417"><ele>87.0</ele><time>2026-04-13T18:39:50.675Z</time></trkpt><trkpt lat="40.89151" lon="14.2831767"><ele>87.0</ele><time>2026-04-13T18:39:51.673Z</time></trkpt><trkpt lat="40.8915733" lon="14.283215"><ele>86.71428571428571</ele><time>2026-04-13T18:39:52.674Z</time></trkpt><trkpt lat="40.8916367" lon="14.2832567"><ele>86.42857142857143</ele><time>2026-04-13T18:39:53.675Z</time></trkpt><trkpt lat="40.8916967" lon="14.2833017"><ele>86.14285714285714</ele><time>2026-04-13T18:39:54.673Z</time></trkpt><trkpt lat="40.8917583" lon="14.2833483"><ele>85.85714285714286</ele><time>2026-04-13T18:39:55.674Z</time></trkpt><trkpt lat="40.8918217" lon="14.283395"><ele>85.57142857142857</ele><time>2026-04-13T18:39:56.673Z</time></trkpt><trkpt lat="40.8918833" lon="14.2834517"><ele>85.28571428571429</ele><time>2026-04-13T18:39:57.674Z</time></trkpt><trkpt lat="40.8919433" lon="14.2835067"><ele>85.0</ele><time>2026-04-13T18:39:58.674Z</time></trkpt><trkpt lat="40.8920083" lon="14.2835683"><ele>85.0</ele><time>2026-04-13T18:39:59.673Z</time></trkpt><trkpt lat="40.8920683" lon="14.28363"><ele>85.0</ele><time>2026-04-13T18:40:00.674Z</time></trkpt><trkpt lat="40.89213" lon="14.283685"><ele>85.0</ele><time>2026-04-13T18:40:01.674Z</time></trkpt><trkpt lat="40.89218" lon="14.28375"><ele>85.0</ele><time>2026-04-13T18:40:02.674Z</time></trkpt><trkpt lat="40.89223" lon="14.2838167"><ele>85.0</ele><time>2026-04-13T18:40:03.673Z</time></trkpt><trkpt lat="40.892285" lon="14.2838783"><ele>85.0</ele><time>2026-04-13T18:40:04.673Z</time></trkpt><trkpt lat="40.8923383" lon="14.28394"><ele>85.0</ele><time>2026-04-13T18:40:05.674Z</time></trkpt><trkpt lat="40.8923883" lon="14.284005"><ele>85.14285714285715</ele><time>2026-04-13T18:40:06.673Z</time></trkpt><trkpt lat="40.8924417" lon="14.28407"><ele>85.28571428571428</ele><time>2026-04-13T18:40:07.674Z</time></trkpt><trkpt lat="40.892495" lon="14.284135"><ele>85.42857142857143</ele><time>2026-04-13T18:40:08.673Z</time></trkpt><trkpt lat="40.892545" lon="14.2842067"><ele>85.57142857142858</ele><time>2026-04-13T18:40:09.672Z</time></trkpt><trkpt lat="40.8925933" lon="14.2842767"><ele>85.71428571428572</ele><time>2026-04-13T18:40:10.674Z</time></trkpt><trkpt lat="40.8926533" lon="14.2843383"><ele>85.85714285714286</ele><time>2026-04-13T18:40:11.674Z</time></trkpt><trkpt lat="40.892705" lon="14.2844033"><ele>86.0</ele><time>2026-04-13T18:40:12.673Z</time></trkpt><trkpt lat="40.89275" lon="14.2844683"><ele>86.00000000000001</ele><time>2026-04-13T18:40:13.673Z</time></trkpt><trkpt lat="40.892795" lon="14.2845383"><ele>86.0</ele><time>2026-04-13T18:40:14.673Z</time></trkpt><trkpt lat="40.8928433" lon="14.2846067"><ele>86.0</ele><time>2026-04-13T18:40:15.673Z</time></trkpt><trkpt lat="40.8928983" lon="14.2846633"><ele>86.0</ele><time>2026-04-13T18:40:16.673Z</time></trkpt><trkpt lat="40.8929433" lon="14.2847283"><ele>86.0</ele><time>2026-04-13T18:40:17.675Z</time></trkpt><trkpt lat="40.8929883" lon="14.2847917"><ele>86.00000000000001</ele><time>2026-04-13T18:40:18.674Z</time></trkpt><trkpt lat="40.8930317" lon="14.2848567"><ele>86.0</ele><time>2026-04-13T18:40:19.674Z</time></trkpt><trkpt lat="40.893105" lon="14.284995"><ele>85.83333333333334</ele><time>2026-04-13T18:40:21.675Z</time></trkpt><trkpt lat="40.8931367" lon="14.2850733"><ele>85.66666666666667</ele><time>2026-04-13T18:40:22.674Z</time></trkpt><trkpt lat="40.8931683" lon="14.2851567"><ele>85.5</ele><time>2026-04-13T18:40:23.674Z</time></trkpt><trkpt lat="40.8932017" lon="14.2852317"><ele>85.33333333333333</ele><time>2026-04-13T18:40:24.674Z</time></trkpt><trkpt lat="40.8932467" lon="14.2853817"><ele>85.16666666666666</ele><time>2026-04-13T18:40:26.674Z</time></trkpt><trkpt lat="40.8932933" lon="14.28553"><ele>85.0</ele><time>2026-04-13T18:40:28.674Z</time></trkpt><trkpt lat="40.8933317" lon="14.2855967"><ele>84.4</ele><time>2026-04-13T18:40:29.675Z</time></trkpt><trkpt lat="40.893375" lon="14.2856583"><ele>83.8</ele><time>2026-04-13T18:40:30.674Z</time></trkpt><trkpt lat="40.89341" lon="14.2857917"><ele>83.19999999999999</ele><time>2026-04-13T18:40:32.675Z</time></trkpt><trkpt lat="40.8934317" lon="14.285925"><ele>82.6</ele><time>2026-04-13T18:40:34.674Z</time></trkpt><trkpt lat="40.8934133" lon="14.2860083"><ele>82.0</ele><time>2026-04-13T18:40:35.674Z</time></trkpt><trkpt lat="40.8934517" lon="14.28615"><ele>81.8</ele><time>2026-04-13T18:40:37.673Z</time></trkpt><trkpt lat="40.8934817" lon="14.286305"><ele>81.6</ele><time>2026-04-13T18:40:39.672Z</time></trkpt><trkpt lat="40.8935033" lon="14.286385"><ele>81.39999999999999</ele><time>2026-04-13T18:40:40.673Z</time></trkpt><trkpt lat="40.89354" lon="14.286545"><ele>81.19999999999999</ele><time>2026-04-13T18:40:42.673Z</time></trkpt><trkpt lat="40.8935833" lon="14.2866933"><ele>81.0</ele><time>2026-04-13T18:40:44.673Z</time></trkpt><trkpt lat="40.8936217" lon="14.28684"><ele>80.75</ele><time>2026-04-13T18:40:46.676Z</time></trkpt><trkpt lat="40.89367" lon="14.2869917"><ele>80.5</ele><time>2026-04-13T18:40:48.673Z</time></trkpt><trkpt lat="40.893715" lon="14.2871367"><ele>80.25</ele><time>2026-04-13T18:40:50.675Z</time></trkpt><trkpt lat="40.893755" lon="14.287285"><ele>80.0</ele><time>2026-04-13T18:40:52.673Z</time></trkpt><trkpt lat="40.893795" lon="14.2874367"><ele>80.0</ele><time>2026-04-13T18:40:54.673Z</time></trkpt><trkpt lat="40.89384" lon="14.28758"><ele>80.0</ele><time>2026-04-13T18:40:56.674Z</time></trkpt><trkpt lat="40.8938767" lon="14.287695"><ele>80.0</ele><time>2026-04-13T18:40:58.674Z</time></trkpt><trkpt lat="40.89385" lon="14.2876033"><ele>80.0</ele><time>2026-04-13T18:41:14.674Z</time></trkpt><trkpt lat="40.8938133" lon="14.2875267"><ele>80.0</ele><time>2026-04-13T18:41:16.673Z</time></trkpt><trkpt lat="40.8937567" lon="14.2874867"><ele>80.0</ele><time>2026-04-13T18:41:18.673Z</time></trkpt><trkpt lat="40.8936917" lon="14.2875217"><ele>80.0</ele><time>2026-04-13T18:41:20.674Z</time></trkpt><trkpt lat="40.8936217" lon="14.2876417"><ele>80.0</ele><time>2026-04-13T18:41:22.674Z</time></trkpt><trkpt lat="40.8936383" lon="14.28778"><ele>80.0</ele><time>2026-04-13T18:41:24.673Z</time></trkpt><trkpt lat="40.893665" lon="14.287895"><ele>80.0</ele><time>2026-04-13T18:41:26.674Z</time></trkpt><trkpt lat="40.8937869" lon="14.2878868"><ele>80.0</ele><time>2026-04-13T18:44:08.286Z</time></trkpt><trkpt lat="40.8938681" lon="14.2878132"><ele>80.0</ele><time>2026-04-13T18:45:22.952Z</time></trkpt></trkseg></trk></gpx>